<?xml version="1.0" encoding="UTF-8"?>
<gpx version="1.1" creator="https://www.youtrack.es" xsi:schemaLocation="http://www.topografix.com/GPX/1/1 http://www.topografix.com/GPX/1/1/gpx.xsd http://www.garmin.com/xmlschemas/GpxExtensions/v3 http://www.garmin.com/xmlschemas/GpxExtensionsv3.xsd http://www.garmin.com/xmlschemas/TrackPointExtension/v1 http://www.garmin.com/xmlschemas/TrackPointExtensionv1.xsd" xmlns:gpxtpx="http://www.garmin.com/xmlschemas/TrackPointExtension/v1" xmlns:gpxx="http://www.garmin.com/xmlschemas/GpxExtensions/v3" xmlns:xsi="http://www.w3.org/2001/XMLSchema-instance">
  <metadata>
    <link href="https://www.youtrack.es">
      <text>YouTrack.es</text>
    </link>
    <time>2026-05-08T04:52:34Z</time>
  </metadata>
  <trk>
    <src>https://www.youtrack.es</src>
    <link href="https://www.youtrack.es/ruta/18610-sol-i-mar">
      <text>YouTrack.es</text>
    </link>
    <trkseg>
      <trkpt lat="42.1610938198864459991455078125" lon="1.77588698454201221466064453125">
        <ele>1586.4000244140625</ele>
        <time>2020-10-24T07:54:26.000Z</time>
      </trkpt>
      <trkpt lat="42.1610384993255138397216796875" lon="1.77590467035770416259765625">
        <ele>1586.4000244140625</ele>
        <time>2020-10-24T07:54:27.000Z</time>
      </trkpt>
      <trkpt lat="42.16102902777493000030517578125" lon="1.77586468867957592010498046875">
        <ele>1586.800048828125</ele>
        <time>2020-10-24T07:54:30.000Z</time>
      </trkpt>
      <trkpt lat="42.16100572608411312103271484375" lon="1.77583568729460239410400390625">
        <ele>1587.4000244140625</ele>
        <time>2020-10-24T07:54:34.000Z</time>
      </trkpt>
      <trkpt lat="42.16096599586308002471923828125" lon="1.7758347652852535247802734375">
        <ele>1588.199951171875</ele>
        <time>2020-10-24T07:54:38.000Z</time>
      </trkpt>
      <trkpt lat="42.1609623916447162628173828125" lon="1.7758260481059551239013671875">
        <ele>1588.4000244140625</ele>
        <time>2020-10-24T07:54:39.000Z</time>
      </trkpt>
      <trkpt lat="42.16091302223503589630126953125" lon="1.7757952027022838592529296875">
        <ele>1589.5999755859375</ele>
        <time>2020-10-24T07:54:45.000Z</time>
      </trkpt>
      <trkpt lat="42.16089391149580478668212890625" lon="1.77578388713300228118896484375">
        <ele>1590</ele>
        <time>2020-10-24T07:54:47.000Z</time>
      </trkpt>
      <trkpt lat="42.1608463861048221588134765625" lon="1.7757187597453594207763671875">
        <ele>1590.5999755859375</ele>
        <time>2020-10-24T07:54:52.000Z</time>
      </trkpt>
      <trkpt lat="42.1608363278210163116455078125" lon="1.7757023312151432037353515625">
        <ele>1590.800048828125</ele>
        <time>2020-10-24T07:54:53.000Z</time>
      </trkpt>
      <trkpt lat="42.16082903556525707244873046875" lon="1.77569671534001827239990234375">
        <ele>1591</ele>
        <time>2020-10-24T07:54:54.000Z</time>
      </trkpt>
      <trkpt lat="42.16081746853888034820556640625" lon="1.77569101564586162567138671875">
        <ele>1601.800048828125</ele>
        <time>2020-10-24T07:54:55.000Z</time>
      </trkpt>
      <trkpt lat="42.16079534031450748443603515625" lon="1.77564374171197414398193359375">
        <ele>1603</ele>
        <time>2020-10-24T07:54:59.000Z</time>
      </trkpt>
      <trkpt lat="42.16077941469848155975341796875" lon="1.77559395320713520050048828125">
        <ele>1603</ele>
        <time>2020-10-24T07:55:02.000Z</time>
      </trkpt>
      <trkpt lat="42.1607543528079986572265625" lon="1.77555589936673641204833984375">
        <ele>1604</ele>
        <time>2020-10-24T07:55:07.000Z</time>
      </trkpt>
      <trkpt lat="42.16073624789714813232421875" lon="1.77554550580680370330810546875">
        <ele>1604.5999755859375</ele>
        <time>2020-10-24T07:55:09.000Z</time>
      </trkpt>
      <trkpt lat="42.16071655042469501495361328125" lon="1.77551533095538616180419921875">
        <ele>1605.199951171875</ele>
        <time>2020-10-24T07:55:12.000Z</time>
      </trkpt>
      <trkpt lat="42.1606844477355480194091796875" lon="1.77546755410730838775634765625">
        <ele>1605.800048828125</ele>
        <time>2020-10-24T07:55:17.000Z</time>
      </trkpt>
      <trkpt lat="42.16067497618496417999267578125" lon="1.7754579149186611175537109375">
        <ele>1606.199951171875</ele>
        <time>2020-10-24T07:55:18.000Z</time>
      </trkpt>
      <trkpt lat="42.1606336534023284912109375" lon="1.77539530210196971893310546875">
        <ele>1607.199951171875</ele>
        <time>2020-10-24T07:55:24.000Z</time>
      </trkpt>
      <trkpt lat="42.160627283155918121337890625" lon="1.7753841541707515716552734375">
        <ele>1607.5999755859375</ele>
        <time>2020-10-24T07:55:25.000Z</time>
      </trkpt>
      <trkpt lat="42.16060859151184558868408203125" lon="1.775341071188449859619140625">
        <ele>1608.4000244140625</ele>
        <time>2020-10-24T07:55:29.000Z</time>
      </trkpt>
      <trkpt lat="42.16060213744640350341796875" lon="1.7753447592258453369140625">
        <ele>1609</ele>
        <time>2020-10-24T07:55:32.000Z</time>
      </trkpt>
      <trkpt lat="42.16058881022036075592041015625" lon="1.7753298394381999969482421875">
        <ele>1609.4000244140625</ele>
        <time>2020-10-24T07:55:37.000Z</time>
      </trkpt>
      <trkpt lat="42.16058813966810703277587890625" lon="1.775324307382106781005859375">
        <ele>1609.4000244140625</ele>
        <time>2020-10-24T07:55:38.000Z</time>
      </trkpt>
      <trkpt lat="42.160574309527873992919921875" lon="1.77529321052134037017822265625">
        <ele>1610</ele>
        <time>2020-10-24T07:55:41.000Z</time>
      </trkpt>
      <trkpt lat="42.16056416742503643035888671875" lon="1.77526890300214290618896484375">
        <ele>1610.4000244140625</ele>
        <time>2020-10-24T07:55:43.000Z</time>
      </trkpt>
      <trkpt lat="42.160532735288143157958984375" lon="1.77518315613269805908203125">
        <ele>1611.5999755859375</ele>
        <time>2020-10-24T07:55:49.000Z</time>
      </trkpt>
      <trkpt lat="42.16052376665174961090087890625" lon="1.77515591494739055633544921875">
        <ele>1611.800048828125</ele>
        <time>2020-10-24T07:55:51.000Z</time>
      </trkpt>
      <trkpt lat="42.16052074916660785675048828125" lon="1.77509489469230175018310546875">
        <ele>1612.5999755859375</ele>
        <time>2020-10-24T07:55:56.000Z</time>
      </trkpt>
      <trkpt lat="42.16051370836794376373291015625" lon="1.77504007704555988311767578125">
        <ele>1613.800048828125</ele>
        <time>2020-10-24T07:56:02.000Z</time>
      </trkpt>
      <trkpt lat="42.16049929149448871612548828125" lon="1.7750200442969799041748046875">
        <ele>1614.800048828125</ele>
        <time>2020-10-24T07:56:06.000Z</time>
      </trkpt>
      <trkpt lat="42.1604983694851398468017578125" lon="1.77501954138278961181640625">
        <ele>1614.800048828125</ele>
        <time>2020-10-24T07:56:07.000Z</time>
      </trkpt>
      <trkpt lat="42.16050247661769390106201171875" lon="1.77502079866826534271240234375">
        <ele>1614.800048828125</ele>
        <time>2020-10-24T07:56:09.000Z</time>
      </trkpt>
      <trkpt lat="42.16049174778163433074951171875" lon="1.77502515725791454315185546875">
        <ele>1614.800048828125</ele>
        <time>2020-10-24T07:56:11.000Z</time>
      </trkpt>
      <trkpt lat="42.16050289571285247802734375" lon="1.7749824933707714080810546875">
        <ele>1615.199951171875</ele>
        <time>2020-10-24T07:56:22.000Z</time>
      </trkpt>
      <trkpt lat="42.16050155460834503173828125" lon="1.774858273565769195556640625">
        <ele>1615.5999755859375</ele>
        <time>2020-10-24T07:56:27.000Z</time>
      </trkpt>
      <trkpt lat="42.16049795038998126983642578125" lon="1.77483581006526947021484375">
        <ele>1615.800048828125</ele>
        <time>2020-10-24T07:56:28.000Z</time>
      </trkpt>
      <trkpt lat="42.16049484908580780029296875" lon="1.7748098261654376983642578125">
        <ele>1616</ele>
        <time>2020-10-24T07:56:29.000Z</time>
      </trkpt>
      <trkpt lat="42.16047280468046665191650390625" lon="1.774689964950084686279296875">
        <ele>1617</ele>
        <time>2020-10-24T07:56:35.000Z</time>
      </trkpt>
      <trkpt lat="42.16046408750116825103759765625" lon="1.77468082867562770843505859375">
        <ele>1617</ele>
        <time>2020-10-24T07:56:36.000Z</time>
      </trkpt>
      <trkpt lat="42.16041304171085357666015625" lon="1.77456163801252841949462890625">
        <ele>1616.5999755859375</ele>
        <time>2020-10-24T07:56:44.000Z</time>
      </trkpt>
      <trkpt lat="42.160403318703174591064453125" lon="1.77454411983489990234375">
        <ele>1616.5999755859375</ele>
        <time>2020-10-24T07:56:45.000Z</time>
      </trkpt>
      <trkpt lat="42.16038395650684833526611328125" lon="1.7744782380759716033935546875">
        <ele>1616.5999755859375</ele>
        <time>2020-10-24T07:56:50.000Z</time>
      </trkpt>
      <trkpt lat="42.160379849374294281005859375" lon="1.77443205378949642181396484375">
        <ele>1616.4000244140625</ele>
        <time>2020-10-24T07:56:54.000Z</time>
      </trkpt>
      <trkpt lat="42.16036501340568065643310546875" lon="1.7744314670562744140625">
        <ele>1616.4000244140625</ele>
        <time>2020-10-24T07:56:56.000Z</time>
      </trkpt>
      <trkpt lat="42.1603609062731266021728515625" lon="1.77441210485994815826416015625">
        <ele>1616.4000244140625</ele>
        <time>2020-10-24T07:56:57.000Z</time>
      </trkpt>
      <trkpt lat="42.1603431366384029388427734375" lon="1.7743696086108684539794921875">
        <ele>1616.5999755859375</ele>
        <time>2020-10-24T07:57:00.000Z</time>
      </trkpt>
      <trkpt lat="42.16033517383038997650146484375" lon="1.7743588797748088836669921875">
        <ele>1616.5999755859375</ele>
        <time>2020-10-24T07:57:01.000Z</time>
      </trkpt>
      <trkpt lat="42.1602891571819782257080078125" lon="1.774304397404193878173828125">
        <ele>1616.199951171875</ele>
        <time>2020-10-24T07:57:06.000Z</time>
      </trkpt>
      <trkpt lat="42.1602157317101955413818359375" lon="1.77416685037314891815185546875">
        <ele>1616.800048828125</ele>
        <time>2020-10-24T07:57:16.000Z</time>
      </trkpt>
      <trkpt lat="42.160182707011699676513671875" lon="1.77403542213141918182373046875">
        <ele>1617.4000244140625</ele>
        <time>2020-10-24T07:57:24.000Z</time>
      </trkpt>
      <trkpt lat="42.16016493737697601318359375" lon="1.7739847116172313690185546875">
        <ele>1617.5999755859375</ele>
        <time>2020-10-24T07:57:28.000Z</time>
      </trkpt>
      <trkpt lat="42.1601453237235546112060546875" lon="1.77390902303159236907958984375">
        <ele>1618.199951171875</ele>
        <time>2020-10-24T07:57:32.000Z</time>
      </trkpt>
      <trkpt lat="42.1601282246410846710205078125" lon="1.77383936941623687744140625">
        <ele>1618.4000244140625</ele>
        <time>2020-10-24T07:57:36.000Z</time>
      </trkpt>
      <trkpt lat="42.16012537479400634765625" lon="1.77373300306499004364013671875">
        <ele>1617.5999755859375</ele>
        <time>2020-10-24T07:57:42.000Z</time>
      </trkpt>
      <trkpt lat="42.1601205132901668548583984375" lon="1.7737193405628204345703125">
        <ele>1617.5999755859375</ele>
        <time>2020-10-24T07:57:43.000Z</time>
      </trkpt>
      <trkpt lat="42.16011070646345615386962890625" lon="1.7736665345728397369384765625">
        <ele>1617.199951171875</ele>
        <time>2020-10-24T07:57:46.000Z</time>
      </trkpt>
      <trkpt lat="42.16010115109384059906005859375" lon="1.77361833862960338592529296875">
        <ele>1617</ele>
        <time>2020-10-24T07:57:49.000Z</time>
      </trkpt>
      <trkpt lat="42.160087488591670989990234375" lon="1.7735716514289379119873046875">
        <ele>1617</ele>
        <time>2020-10-24T07:57:52.000Z</time>
      </trkpt>
      <trkpt lat="42.16006837785243988037109375" lon="1.77350350655615329742431640625">
        <ele>1617</ele>
        <time>2020-10-24T07:57:56.000Z</time>
      </trkpt>
      <trkpt lat="42.160055302083492279052734375" lon="1.77347458899021148681640625">
        <ele>1616.800048828125</ele>
        <time>2020-10-24T07:57:58.000Z</time>
      </trkpt>
      <trkpt lat="42.1600346826016902923583984375" lon="1.77340879105031490325927734375">
        <ele>1616</ele>
        <time>2020-10-24T07:58:02.000Z</time>
      </trkpt>
      <trkpt lat="42.160032503306865692138671875" lon="1.7733932845294475555419921875">
        <ele>1616</ele>
        <time>2020-10-24T07:58:03.000Z</time>
      </trkpt>
      <trkpt lat="42.1599679626524448394775390625" lon="1.7732638679444789886474609375">
        <ele>1615.4000244140625</ele>
        <time>2020-10-24T07:58:12.000Z</time>
      </trkpt>
      <trkpt lat="42.1599475108087062835693359375" lon="1.77323595620691776275634765625">
        <ele>1615.199951171875</ele>
        <time>2020-10-24T07:58:14.000Z</time>
      </trkpt>
      <trkpt lat="42.15994189493358135223388671875" lon="1.77322246134281158447265625">
        <ele>1615</ele>
        <time>2020-10-24T07:58:15.000Z</time>
      </trkpt>
      <trkpt lat="42.1599361114203929901123046875" lon="1.7731855809688568115234375">
        <ele>1615</ele>
        <time>2020-10-24T07:58:17.000Z</time>
      </trkpt>
      <trkpt lat="42.15991825796663761138916015625" lon="1.77314526401460170745849609375">
        <ele>1615</ele>
        <time>2020-10-24T07:58:20.000Z</time>
      </trkpt>
      <trkpt lat="42.15991054661571979522705078125" lon="1.7730972357094287872314453125">
        <ele>1615</ele>
        <time>2020-10-24T07:58:23.000Z</time>
      </trkpt>
      <trkpt lat="42.159908451139926910400390625" lon="1.77308608777821063995361328125">
        <ele>1615</ele>
        <time>2020-10-24T07:58:24.000Z</time>
      </trkpt>
      <trkpt lat="42.1598905138671398162841796875" lon="1.77306664176285266876220703125">
        <ele>1615</ele>
        <time>2020-10-24T07:58:26.000Z</time>
      </trkpt>
      <trkpt lat="42.15982538647949695587158203125" lon="1.77298751659691333770751953125">
        <ele>1615</ele>
        <time>2020-10-24T07:58:34.000Z</time>
      </trkpt>
      <trkpt lat="42.1597315929830074310302734375" lon="1.77287285216152667999267578125">
        <ele>1614.5999755859375</ele>
        <time>2020-10-24T07:58:42.000Z</time>
      </trkpt>
      <trkpt lat="42.1596856601536273956298828125" lon="1.7727974988520145416259765625">
        <ele>1614.5999755859375</ele>
        <time>2020-10-24T07:58:48.000Z</time>
      </trkpt>
      <trkpt lat="42.15966411866247653961181640625" lon="1.77274896763265132904052734375">
        <ele>1614.4000244140625</ele>
        <time>2020-10-24T07:58:51.000Z</time>
      </trkpt>
      <trkpt lat="42.159602679312229156494140625" lon="1.77265006117522716522216796875">
        <ele>1613.800048828125</ele>
        <time>2020-10-24T07:58:57.000Z</time>
      </trkpt>
      <trkpt lat="42.159583233296871185302734375" lon="1.77262030541896820068359375">
        <ele>1613.800048828125</ele>
        <time>2020-10-24T07:58:59.000Z</time>
      </trkpt>
      <trkpt lat="42.15957091189920902252197265625" lon="1.772609911859035491943359375">
        <ele>1614</ele>
        <time>2020-10-24T07:59:00.000Z</time>
      </trkpt>
      <trkpt lat="42.1595465205609798431396484375" lon="1.77258811891078948974609375">
        <ele>1614.4000244140625</ele>
        <time>2020-10-24T07:59:02.000Z</time>
      </trkpt>
      <trkpt lat="42.15953520499169826507568359375" lon="1.77258099429309368133544921875">
        <ele>1614.800048828125</ele>
        <time>2020-10-24T07:59:04.000Z</time>
      </trkpt>
      <trkpt lat="42.159503437578678131103515625" lon="1.7725701816380023956298828125">
        <ele>1614.800048828125</ele>
        <time>2020-10-24T07:59:06.000Z</time>
      </trkpt>
      <trkpt lat="42.1594910323619842529296875" lon="1.77256666123867034912109375">
        <ele>1615</ele>
        <time>2020-10-24T07:59:07.000Z</time>
      </trkpt>
      <trkpt lat="42.1594734303653240203857421875" lon="1.77255886606872081756591796875">
        <ele>1615.199951171875</ele>
        <time>2020-10-24T07:59:08.000Z</time>
      </trkpt>
      <trkpt lat="42.15942154638469219207763671875" lon="1.77252768538892269134521484375">
        <ele>1616</ele>
        <time>2020-10-24T07:59:13.000Z</time>
      </trkpt>
      <trkpt lat="42.159411907196044921875" lon="1.77251796238124370574951171875">
        <ele>1616</ele>
        <time>2020-10-24T07:59:14.000Z</time>
      </trkpt>
      <trkpt lat="42.15939874760806560516357421875" lon="1.77250823937356472015380859375">
        <ele>1616.199951171875</ele>
        <time>2020-10-24T07:59:15.000Z</time>
      </trkpt>
      <trkpt lat="42.15934007428586483001708984375" lon="1.77247571758925914764404296875">
        <ele>1617.199951171875</ele>
        <time>2020-10-24T07:59:21.000Z</time>
      </trkpt>
      <trkpt lat="42.159300930798053741455078125" lon="1.7724595405161380767822265625">
        <ele>1617.5999755859375</ele>
        <time>2020-10-24T07:59:24.000Z</time>
      </trkpt>
      <trkpt lat="42.15922616422176361083984375" lon="1.772358454763889312744140625">
        <ele>1618.4000244140625</ele>
        <time>2020-10-24T07:59:32.000Z</time>
      </trkpt>
      <trkpt lat="42.15922356583178043365478515625" lon="1.7723411880433559417724609375">
        <ele>1619</ele>
        <time>2020-10-24T07:59:33.000Z</time>
      </trkpt>
      <trkpt lat="42.15921719558537006378173828125" lon="1.77232316695153713226318359375">
        <ele>1619.199951171875</ele>
        <time>2020-10-24T07:59:34.000Z</time>
      </trkpt>
      <trkpt lat="42.159217111766338348388671875" lon="1.7723073251545429229736328125">
        <ele>1619.5999755859375</ele>
        <time>2020-10-24T07:59:35.000Z</time>
      </trkpt>
      <trkpt lat="42.15921535156667232513427734375" lon="1.77227539010345935821533203125">
        <ele>1619.800048828125</ele>
        <time>2020-10-24T07:59:37.000Z</time>
      </trkpt>
      <trkpt lat="42.15921543538570404052734375" lon="1.77219274453818798065185546875">
        <ele>1620.4000244140625</ele>
        <time>2020-10-24T07:59:42.000Z</time>
      </trkpt>
      <trkpt lat="42.159219793975353240966796875" lon="1.77217514254152774810791015625">
        <ele>1620.5999755859375</ele>
        <time>2020-10-24T07:59:43.000Z</time>
      </trkpt>
      <trkpt lat="42.15922457166016101837158203125" lon="1.77213356830179691314697265625">
        <ele>1621</ele>
        <time>2020-10-24T07:59:46.000Z</time>
      </trkpt>
      <trkpt lat="42.15922138653695583343505859375" lon="1.7721140384674072265625">
        <ele>1621.199951171875</ele>
        <time>2020-10-24T07:59:47.000Z</time>
      </trkpt>
      <trkpt lat="42.15921099297702312469482421875" lon="1.77206181921064853668212890625">
        <ele>1621.5999755859375</ele>
        <time>2020-10-24T07:59:50.000Z</time>
      </trkpt>
      <trkpt lat="42.159210741519927978515625" lon="1.77204472012817859649658203125">
        <ele>1621.800048828125</ele>
        <time>2020-10-24T07:59:51.000Z</time>
      </trkpt>
      <trkpt lat="42.15916447341442108154296875" lon="1.7719287984073162078857421875">
        <ele>1622</ele>
        <time>2020-10-24T07:59:59.000Z</time>
      </trkpt>
      <trkpt lat="42.15915969572961330413818359375" lon="1.77188345231115818023681640625">
        <ele>1622</ele>
        <time>2020-10-24T08:00:02.000Z</time>
      </trkpt>
      <trkpt lat="42.15916715562343597412109375" lon="1.7718050815165042877197265625">
        <ele>1621.800048828125</ele>
        <time>2020-10-24T08:00:08.000Z</time>
      </trkpt>
      <trkpt lat="42.15916623361408710479736328125" lon="1.77174816839396953582763671875">
        <ele>1620.5999755859375</ele>
        <time>2020-10-24T08:00:13.000Z</time>
      </trkpt>
      <trkpt lat="42.1591683290898799896240234375" lon="1.77173090167343616485595703125">
        <ele>1620.4000244140625</ele>
        <time>2020-10-24T08:00:14.000Z</time>
      </trkpt>
      <trkpt lat="42.159175872802734375" lon="1.7717023193836212158203125">
        <ele>1620.4000244140625</ele>
        <time>2020-10-24T08:00:17.000Z</time>
      </trkpt>
      <trkpt lat="42.15916941873729228973388671875" lon="1.7716391198337078094482421875">
        <ele>1620.5999755859375</ele>
        <time>2020-10-24T08:00:21.000Z</time>
      </trkpt>
      <trkpt lat="42.1591700054705142974853515625" lon="1.77158505655825138092041015625">
        <ele>1620</ele>
        <time>2020-10-24T08:00:26.000Z</time>
      </trkpt>
      <trkpt lat="42.159172184765338897705078125" lon="1.77157700993120670318603515625">
        <ele>1620</ele>
        <time>2020-10-24T08:00:28.000Z</time>
      </trkpt>
      <trkpt lat="42.15917922556400299072265625" lon="1.7715579830110073089599609375">
        <ele>1620</ele>
        <time>2020-10-24T08:00:31.000Z</time>
      </trkpt>
      <trkpt lat="42.15918165631592273712158203125" lon="1.7715413868427276611328125">
        <ele>1620</ele>
        <time>2020-10-24T08:00:32.000Z</time>
      </trkpt>
      <trkpt lat="42.15918316505849361419677734375" lon="1.77153040654957294464111328125">
        <ele>1620</ele>
        <time>2020-10-24T08:00:33.000Z</time>
      </trkpt>
      <trkpt lat="42.15917830355465412139892578125" lon="1.7714919336140155792236328125">
        <ele>1619.5999755859375</ele>
        <time>2020-10-24T08:00:36.000Z</time>
      </trkpt>
      <trkpt lat="42.15918366797268390655517578125" lon="1.77143275737762451171875">
        <ele>1619.800048828125</ele>
        <time>2020-10-24T08:00:40.000Z</time>
      </trkpt>
      <trkpt lat="42.15918685309588909149169921875" lon="1.77137215621769428253173828125">
        <ele>1620</ele>
        <time>2020-10-24T08:00:44.000Z</time>
      </trkpt>
      <trkpt lat="42.1591790579259395599365234375" lon="1.7712719924747943878173828125">
        <ele>1619.800048828125</ele>
        <time>2020-10-24T08:00:51.000Z</time>
      </trkpt>
      <trkpt lat="42.15917847119271755218505859375" lon="1.7711509577929973602294921875">
        <ele>1619.199951171875</ele>
        <time>2020-10-24T08:00:59.000Z</time>
      </trkpt>
      <trkpt lat="42.15918056666851043701171875" lon="1.77112237550318241119384765625">
        <ele>1619.199951171875</ele>
        <time>2020-10-24T08:01:01.000Z</time>
      </trkpt>
      <trkpt lat="42.1591951511800289154052734375" lon="1.77100284956395626068115234375">
        <ele>1619</ele>
        <time>2020-10-24T08:01:09.000Z</time>
      </trkpt>
      <trkpt lat="42.15923328883945941925048828125" lon="1.77084007300436496734619140625">
        <ele>1619</ele>
        <time>2020-10-24T08:01:20.000Z</time>
      </trkpt>
      <trkpt lat="42.15924938209354877471923828125" lon="1.77060504443943500518798828125">
        <ele>1618.800048828125</ele>
        <time>2020-10-24T08:01:34.000Z</time>
      </trkpt>
      <trkpt lat="42.15925030410289764404296875" lon="1.770523823797702789306640625">
        <ele>1618.5999755859375</ele>
        <time>2020-10-24T08:01:40.000Z</time>
      </trkpt>
      <trkpt lat="42.159249968826770782470703125" lon="1.7704495601356029510498046875">
        <ele>1618.800048828125</ele>
        <time>2020-10-24T08:01:44.000Z</time>
      </trkpt>
      <trkpt lat="42.1592514775693416595458984375" lon="1.7704173736274242401123046875">
        <ele>1619</ele>
        <time>2020-10-24T08:01:46.000Z</time>
      </trkpt>
      <trkpt lat="42.1592938899993896484375" lon="1.77024462260305881500244140625">
        <ele>1618.800048828125</ele>
        <time>2020-10-24T08:01:58.000Z</time>
      </trkpt>
      <trkpt lat="42.159366644918918609619140625" lon="1.770110763609409332275390625">
        <ele>1619.4000244140625</ele>
        <time>2020-10-24T08:02:08.000Z</time>
      </trkpt>
      <trkpt lat="42.1593859232962131500244140625" lon="1.7700901441276073455810546875">
        <ele>1619.5999755859375</ele>
        <time>2020-10-24T08:02:10.000Z</time>
      </trkpt>
      <trkpt lat="42.159404866397380828857421875" lon="1.770078241825103759765625">
        <ele>1619.5999755859375</ele>
        <time>2020-10-24T08:02:12.000Z</time>
      </trkpt>
      <trkpt lat="42.15946546755731105804443359375" lon="1.77002568729221820831298828125">
        <ele>1619.5999755859375</ele>
        <time>2020-10-24T08:02:18.000Z</time>
      </trkpt>
      <trkpt lat="42.15952632017433643341064453125" lon="1.7699738033115863800048828125">
        <ele>1620.199951171875</ele>
        <time>2020-10-24T08:02:24.000Z</time>
      </trkpt>
      <trkpt lat="42.15955465100705623626708984375" lon="1.769949160516262054443359375">
        <ele>1620.199951171875</ele>
        <time>2020-10-24T08:02:27.000Z</time>
      </trkpt>
      <trkpt lat="42.15962707065045833587646484375" lon="1.7698819376528263092041015625">
        <ele>1620.4000244140625</ele>
        <time>2020-10-24T08:02:34.000Z</time>
      </trkpt>
      <trkpt lat="42.15963562019169330596923828125" lon="1.76986970007419586181640625">
        <ele>1620.5999755859375</ele>
        <time>2020-10-24T08:02:35.000Z</time>
      </trkpt>
      <trkpt lat="42.15964685194194316864013671875" lon="1.76984346471726894378662109375">
        <ele>1620.800048828125</ele>
        <time>2020-10-24T08:02:37.000Z</time>
      </trkpt>
      <trkpt lat="42.15968809090554714202880859375" lon="1.76977850496768951416015625">
        <ele>1620.5999755859375</ele>
        <time>2020-10-24T08:02:42.000Z</time>
      </trkpt>
      <trkpt lat="42.15972513891756534576416015625" lon="1.76969678141176700592041015625">
        <ele>1621.199951171875</ele>
        <time>2020-10-24T08:02:48.000Z</time>
      </trkpt>
      <trkpt lat="42.15973310172557830810546875" lon="1.769669540226459503173828125">
        <ele>1621</ele>
        <time>2020-10-24T08:02:50.000Z</time>
      </trkpt>
      <trkpt lat="42.1597691439092159271240234375" lon="1.76956116221845149993896484375">
        <ele>1621.199951171875</ele>
        <time>2020-10-24T08:02:57.000Z</time>
      </trkpt>
      <trkpt lat="42.15978004038333892822265625" lon="1.7695272155106067657470703125">
        <ele>1621.5999755859375</ele>
        <time>2020-10-24T08:02:59.000Z</time>
      </trkpt>
      <trkpt lat="42.15979152359068393707275390625" lon="1.76948689855635166168212890625">
        <ele>1621.800048828125</ele>
        <time>2020-10-24T08:03:01.000Z</time>
      </trkpt>
      <trkpt lat="42.15979881584644317626953125" lon="1.76941783167421817779541015625">
        <ele>1621.199951171875</ele>
        <time>2020-10-24T08:03:06.000Z</time>
      </trkpt>
      <trkpt lat="42.15985740534961223602294921875" lon="1.769271232187747955322265625">
        <ele>1621.800048828125</ele>
        <time>2020-10-24T08:03:16.000Z</time>
      </trkpt>
      <trkpt lat="42.15992060489952564239501953125" lon="1.76916151307523250579833984375">
        <ele>1622.800048828125</ele>
        <time>2020-10-24T08:03:25.000Z</time>
      </trkpt>
      <trkpt lat="42.15992965735495090484619140625" lon="1.7691520415246486663818359375">
        <ele>1622.800048828125</ele>
        <time>2020-10-24T08:03:26.000Z</time>
      </trkpt>
      <trkpt lat="42.1600531227886676788330078125" lon="1.7689998261630535125732421875">
        <ele>1623.5999755859375</ele>
        <time>2020-10-24T08:03:40.000Z</time>
      </trkpt>
      <trkpt lat="42.16008690185844898223876953125" lon="1.76894844509661197662353515625">
        <ele>1623.800048828125</ele>
        <time>2020-10-24T08:03:44.000Z</time>
      </trkpt>
      <trkpt lat="42.16014389880001544952392578125" lon="1.7688764445483684539794921875">
        <ele>1624</ele>
        <time>2020-10-24T08:03:51.000Z</time>
      </trkpt>
      <trkpt lat="42.16023660264909267425537109375" lon="1.7687118239700794219970703125">
        <ele>1624.199951171875</ele>
        <time>2020-10-24T08:04:03.000Z</time>
      </trkpt>
      <trkpt lat="42.1602995507419109344482421875" lon="1.768586933612823486328125">
        <ele>1624.5999755859375</ele>
        <time>2020-10-24T08:04:12.000Z</time>
      </trkpt>
      <trkpt lat="42.16030768118798732757568359375" lon="1.76857553422451019287109375">
        <ele>1624.5999755859375</ele>
        <time>2020-10-24T08:04:13.000Z</time>
      </trkpt>
      <trkpt lat="42.1603478305041790008544921875" lon="1.76851443015038967132568359375">
        <ele>1624.199951171875</ele>
        <time>2020-10-24T08:04:18.000Z</time>
      </trkpt>
      <trkpt lat="42.1603790111839771270751953125" lon="1.76843865774571895599365234375">
        <ele>1623.4000244140625</ele>
        <time>2020-10-24T08:04:23.000Z</time>
      </trkpt>
      <trkpt lat="42.16040440835058689117431640625" lon="1.76833656616508960723876953125">
        <ele>1623.800048828125</ele>
        <time>2020-10-24T08:04:29.000Z</time>
      </trkpt>
      <trkpt lat="42.1604132093489170074462890625" lon="1.76830907352268695831298828125">
        <ele>1624</ele>
        <time>2020-10-24T08:04:31.000Z</time>
      </trkpt>
      <trkpt lat="42.16041832230985164642333984375" lon="1.76828694529831409454345703125">
        <ele>1624.199951171875</ele>
        <time>2020-10-24T08:04:33.000Z</time>
      </trkpt>
      <trkpt lat="42.16042754240334033966064453125" lon="1.76824562251567840576171875">
        <ele>1624.199951171875</ele>
        <time>2020-10-24T08:04:36.000Z</time>
      </trkpt>
      <trkpt lat="42.16043910942971706390380859375" lon="1.76815979182720184326171875">
        <ele>1623.199951171875</ele>
        <time>2020-10-24T08:04:41.000Z</time>
      </trkpt>
      <trkpt lat="42.1604460664093494415283203125" lon="1.7681043036282062530517578125">
        <ele>1623.800048828125</ele>
        <time>2020-10-24T08:04:44.000Z</time>
      </trkpt>
      <trkpt lat="42.1604608185589313507080078125" lon="1.7680169641971588134765625">
        <ele>1624.199951171875</ele>
        <time>2020-10-24T08:04:49.000Z</time>
      </trkpt>
      <trkpt lat="42.16046526096761226654052734375" lon="1.76798402331769466400146484375">
        <ele>1624.199951171875</ele>
        <time>2020-10-24T08:04:51.000Z</time>
      </trkpt>
      <trkpt lat="42.16048051603138446807861328125" lon="1.76791680045425891876220703125">
        <ele>1623.5999755859375</ele>
        <time>2020-10-24T08:04:55.000Z</time>
      </trkpt>
      <trkpt lat="42.160540111362934112548828125" lon="1.767717897891998291015625">
        <ele>1624.4000244140625</ele>
        <time>2020-10-24T08:05:05.000Z</time>
      </trkpt>
      <trkpt lat="42.1605451405048370361328125" lon="1.7676825262606143951416015625">
        <ele>1624.199951171875</ele>
        <time>2020-10-24T08:05:07.000Z</time>
      </trkpt>
      <trkpt lat="42.160583697259426116943359375" lon="1.76754883490502834320068359375">
        <ele>1624.4000244140625</ele>
        <time>2020-10-24T08:05:15.000Z</time>
      </trkpt>
      <trkpt lat="42.1605915762484073638916015625" lon="1.76751866005361080169677734375">
        <ele>1625</ele>
        <time>2020-10-24T08:05:17.000Z</time>
      </trkpt>
      <trkpt lat="42.1606120280921459197998046875" lon="1.76737348549067974090576171875">
        <ele>1624.5999755859375</ele>
        <time>2020-10-24T08:05:26.000Z</time>
      </trkpt>
      <trkpt lat="42.160644046962261199951171875" lon="1.76725982688367366790771484375">
        <ele>1625</ele>
        <time>2020-10-24T08:05:33.000Z</time>
      </trkpt>
      <trkpt lat="42.16064815409481525421142578125" lon="1.76724113523960113525390625">
        <ele>1625</ele>
        <time>2020-10-24T08:05:34.000Z</time>
      </trkpt>
      <trkpt lat="42.1606750600039958953857421875" lon="1.7671613395214080810546875">
        <ele>1624.5999755859375</ele>
        <time>2020-10-24T08:05:39.000Z</time>
      </trkpt>
      <trkpt lat="42.1606924943625926971435546875" lon="1.76708213053643703460693359375">
        <ele>1624.800048828125</ele>
        <time>2020-10-24T08:05:43.000Z</time>
      </trkpt>
      <trkpt lat="42.1607323922216892242431640625" lon="1.76696729846298694610595703125">
        <ele>1625</ele>
        <time>2020-10-24T08:05:50.000Z</time>
      </trkpt>
      <trkpt lat="42.1607743017375469207763671875" lon="1.766871325671672821044921875">
        <ele>1624.800048828125</ele>
        <time>2020-10-24T08:05:58.000Z</time>
      </trkpt>
      <trkpt lat="42.160828448832035064697265625" lon="1.7666756920516490936279296875">
        <ele>1625</ele>
        <time>2020-10-24T08:06:08.000Z</time>
      </trkpt>
      <trkpt lat="42.16084412299096584320068359375" lon="1.7665310204029083251953125">
        <ele>1624.4000244140625</ele>
        <time>2020-10-24T08:06:17.000Z</time>
      </trkpt>
      <trkpt lat="42.1608447097241878509521484375" lon="1.76650176756083965301513671875">
        <ele>1623.800048828125</ele>
        <time>2020-10-24T08:06:19.000Z</time>
      </trkpt>
      <trkpt lat="42.16084697283804416656494140625" lon="1.76636941730976104736328125">
        <ele>1624.800048828125</ele>
        <time>2020-10-24T08:06:27.000Z</time>
      </trkpt>
      <trkpt lat="42.1608457155525684356689453125" lon="1.76635466516017913818359375">
        <ele>1624.800048828125</ele>
        <time>2020-10-24T08:06:28.000Z</time>
      </trkpt>
      <trkpt lat="42.1608457155525684356689453125" lon="1.7663373984396457672119140625">
        <ele>1625</ele>
        <time>2020-10-24T08:06:29.000Z</time>
      </trkpt>
      <trkpt lat="42.16083825565874576568603515625" lon="1.7661429382860660552978515625">
        <ele>1625</ele>
        <time>2020-10-24T08:06:40.000Z</time>
      </trkpt>
      <trkpt lat="42.16085300780832767486572265625" lon="1.76595241762697696685791015625">
        <ele>1625.4000244140625</ele>
        <time>2020-10-24T08:06:50.000Z</time>
      </trkpt>
      <trkpt lat="42.16085954569280147552490234375" lon="1.76589793525636196136474609375">
        <ele>1626</ele>
        <time>2020-10-24T08:06:53.000Z</time>
      </trkpt>
      <trkpt lat="42.160866670310497283935546875" lon="1.76580137573182582855224609375">
        <ele>1625.800048828125</ele>
        <time>2020-10-24T08:06:59.000Z</time>
      </trkpt>
      <trkpt lat="42.16088100336492061614990234375" lon="1.7657174728810787200927734375">
        <ele>1625.199951171875</ele>
        <time>2020-10-24T08:07:04.000Z</time>
      </trkpt>
      <trkpt lat="42.16090447269380092620849609375" lon="1.76565452478826045989990234375">
        <ele>1626</ele>
        <time>2020-10-24T08:07:09.000Z</time>
      </trkpt>
      <trkpt lat="42.16091134585440158843994140625" lon="1.7655779980123043060302734375">
        <ele>1626.199951171875</ele>
        <time>2020-10-24T08:07:14.000Z</time>
      </trkpt>
      <trkpt lat="42.16092274524271488189697265625" lon="1.7655327357351779937744140625">
        <ele>1626</ele>
        <time>2020-10-24T08:07:17.000Z</time>
      </trkpt>
      <trkpt lat="42.16092802584171295166015625" lon="1.76551521755754947662353515625">
        <ele>1626</ele>
        <time>2020-10-24T08:07:18.000Z</time>
      </trkpt>
      <trkpt lat="42.16093540191650390625" lon="1.76549996249377727508544921875">
        <ele>1626.199951171875</ele>
        <time>2020-10-24T08:07:19.000Z</time>
      </trkpt>
      <trkpt lat="42.16100773774087429046630859375" lon="1.7654125392436981201171875">
        <ele>1626.800048828125</ele>
        <time>2020-10-24T08:07:26.000Z</time>
      </trkpt>
      <trkpt lat="42.16102751903235912322998046875" lon="1.765389740467071533203125">
        <ele>1626.5999755859375</ele>
        <time>2020-10-24T08:07:28.000Z</time>
      </trkpt>
      <trkpt lat="42.16103808023035526275634765625" lon="1.7653785087168216705322265625">
        <ele>1626.5999755859375</ele>
        <time>2020-10-24T08:07:29.000Z</time>
      </trkpt>
      <trkpt lat="42.1610824204981327056884765625" lon="1.76530533470213413238525390625">
        <ele>1626.4000244140625</ele>
        <time>2020-10-24T08:07:35.000Z</time>
      </trkpt>
      <trkpt lat="42.1611159481108188629150390625" lon="1.76522922702133655548095703125">
        <ele>1626.5999755859375</ele>
        <time>2020-10-24T08:07:40.000Z</time>
      </trkpt>
      <trkpt lat="42.16112508438527584075927734375" lon="1.76516368053853511810302734375">
        <ele>1626.5999755859375</ele>
        <time>2020-10-24T08:07:44.000Z</time>
      </trkpt>
      <trkpt lat="42.1611461229622364044189453125" lon="1.7650933563709259033203125">
        <ele>1626.5999755859375</ele>
        <time>2020-10-24T08:07:49.000Z</time>
      </trkpt>
      <trkpt lat="42.1611607074737548828125" lon="1.765050105750560760498046875">
        <ele>1626.800048828125</ele>
        <time>2020-10-24T08:07:52.000Z</time>
      </trkpt>
      <trkpt lat="42.16116297058761119842529296875" lon="1.76503627561032772064208984375">
        <ele>1626.800048828125</ele>
        <time>2020-10-24T08:07:53.000Z</time>
      </trkpt>
      <trkpt lat="42.161186523735523223876953125" lon="1.76489797420799732208251953125">
        <ele>1627.199951171875</ele>
        <time>2020-10-24T08:08:01.000Z</time>
      </trkpt>
      <trkpt lat="42.16119264252483844757080078125" lon="1.7648611776530742645263671875">
        <ele>1627.4000244140625</ele>
        <time>2020-10-24T08:08:03.000Z</time>
      </trkpt>
      <trkpt lat="42.16120739467442035675048828125" lon="1.76470653153955936431884765625">
        <ele>1627.199951171875</ele>
        <time>2020-10-24T08:08:13.000Z</time>
      </trkpt>
      <trkpt lat="42.1612158603966236114501953125" lon="1.76454911939799785614013671875">
        <ele>1627.800048828125</ele>
        <time>2020-10-24T08:08:23.000Z</time>
      </trkpt>
      <trkpt lat="42.16121141798794269561767578125" lon="1.764452643692493438720703125">
        <ele>1628</ele>
        <time>2020-10-24T08:08:29.000Z</time>
      </trkpt>
      <trkpt lat="42.161207310855388641357421875" lon="1.7644283361732959747314453125">
        <ele>1628</ele>
        <time>2020-10-24T08:08:31.000Z</time>
      </trkpt>
      <trkpt lat="42.161186523735523223876953125" lon="1.76437108777463436126708984375">
        <ele>1628.199951171875</ele>
        <time>2020-10-24T08:08:35.000Z</time>
      </trkpt>
      <trkpt lat="42.161126844584941864013671875" lon="1.76427704282104969024658203125">
        <ele>1628.5999755859375</ele>
        <time>2020-10-24T08:08:43.000Z</time>
      </trkpt>
      <trkpt lat="42.1611109189689159393310546875" lon="1.76415986381471157073974609375">
        <ele>1629.199951171875</ele>
        <time>2020-10-24T08:08:51.000Z</time>
      </trkpt>
      <trkpt lat="42.161109745502471923828125" lon="1.7641530744731426239013671875">
        <ele>1629.199951171875</ele>
        <time>2020-10-24T08:08:52.000Z</time>
      </trkpt>
      <trkpt lat="42.16110865585505962371826171875" lon="1.7641339637339115142822265625">
        <ele>1629.199951171875</ele>
        <time>2020-10-24T08:08:54.000Z</time>
      </trkpt>
      <trkpt lat="42.16110681183636188507080078125" lon="1.764105297625064849853515625">
        <ele>1629.4000244140625</ele>
        <time>2020-10-24T08:08:56.000Z</time>
      </trkpt>
      <trkpt lat="42.16110614128410816192626953125" lon="1.764092557132244110107421875">
        <ele>1629.5999755859375</ele>
        <time>2020-10-24T08:08:57.000Z</time>
      </trkpt>
      <trkpt lat="42.1610975079238414764404296875" lon="1.7640390805900096893310546875">
        <ele>1630.199951171875</ele>
        <time>2020-10-24T08:09:01.000Z</time>
      </trkpt>
      <trkpt lat="42.16107680462300777435302734375" lon="1.7639861069619655609130859375">
        <ele>1630.800048828125</ele>
        <time>2020-10-24T08:09:06.000Z</time>
      </trkpt>
      <trkpt lat="42.16105568222701549530029296875" lon="1.76393019966781139373779296875">
        <ele>1631.199951171875</ele>
        <time>2020-10-24T08:09:10.000Z</time>
      </trkpt>
      <trkpt lat="42.161045707762241363525390625" lon="1.7639042995870113372802734375">
        <ele>1631.4000244140625</ele>
        <time>2020-10-24T08:09:12.000Z</time>
      </trkpt>
      <trkpt lat="42.16104176826775074005126953125" lon="1.7638905532658100128173828125">
        <ele>1631.4000244140625</ele>
        <time>2020-10-24T08:09:13.000Z</time>
      </trkpt>
      <trkpt lat="42.16102651320397853851318359375" lon="1.7637879587709903717041015625">
        <ele>1632</ele>
        <time>2020-10-24T08:09:20.000Z</time>
      </trkpt>
      <trkpt lat="42.16101729311048984527587890625" lon="1.763740517199039459228515625">
        <ele>1632.4000244140625</ele>
        <time>2020-10-24T08:09:23.000Z</time>
      </trkpt>
      <trkpt lat="42.1610214002430438995361328125" lon="1.76364152692258358001708984375">
        <ele>1633</ele>
        <time>2020-10-24T08:09:29.000Z</time>
      </trkpt>
      <trkpt lat="42.1610227413475513458251953125" lon="1.7635968513786792755126953125">
        <ele>1633.4000244140625</ele>
        <time>2020-10-24T08:09:32.000Z</time>
      </trkpt>
      <trkpt lat="42.161037661135196685791015625" lon="1.7635073326528072357177734375">
        <ele>1634.199951171875</ele>
        <time>2020-10-24T08:09:38.000Z</time>
      </trkpt>
      <trkpt lat="42.1610431931912899017333984375" lon="1.76348227076232433319091796875">
        <ele>1634.199951171875</ele>
        <time>2020-10-24T08:09:40.000Z</time>
      </trkpt>
      <trkpt lat="42.16104394756257534027099609375" lon="1.76340968348085880279541015625">
        <ele>1634.4000244140625</ele>
        <time>2020-10-24T08:09:45.000Z</time>
      </trkpt>
      <trkpt lat="42.16104746796190738677978515625" lon="1.76340021193027496337890625">
        <ele>1634.5999755859375</ele>
        <time>2020-10-24T08:09:46.000Z</time>
      </trkpt>
      <trkpt lat="42.1610522456467151641845703125" lon="1.76336760632693767547607421875">
        <ele>1634.800048828125</ele>
        <time>2020-10-24T08:09:48.000Z</time>
      </trkpt>
      <trkpt lat="42.16111619956791400909423828125" lon="1.76325579173862934112548828125">
        <ele>1635.4000244140625</ele>
        <time>2020-10-24T08:09:57.000Z</time>
      </trkpt>
      <trkpt lat="42.1611253358423709869384765625" lon="1.76325210370123386383056640625">
        <ele>1635.5999755859375</ele>
        <time>2020-10-24T08:09:58.000Z</time>
      </trkpt>
      <trkpt lat="42.16119884513318538665771484375" lon="1.76327708177268505096435546875">
        <ele>1636.800048828125</ele>
        <time>2020-10-24T08:10:05.000Z</time>
      </trkpt>
      <trkpt lat="42.1612074784934520721435546875" lon="1.763279847800731658935546875">
        <ele>1637</ele>
        <time>2020-10-24T08:10:06.000Z</time>
      </trkpt>
      <trkpt lat="42.16124041937291622161865234375" lon="1.76328462548553943634033203125">
        <ele>1637.800048828125</ele>
        <time>2020-10-24T08:10:09.000Z</time>
      </trkpt>
      <trkpt lat="42.161305882036685943603515625" lon="1.76326207816600799560546875">
        <ele>1638.4000244140625</ele>
        <time>2020-10-24T08:10:16.000Z</time>
      </trkpt>
      <trkpt lat="42.1613630466163158416748046875" lon="1.76318831741809844970703125">
        <ele>1638.5999755859375</ele>
        <time>2020-10-24T08:10:23.000Z</time>
      </trkpt>
      <trkpt lat="42.16138576157391071319580078125" lon="1.7631737329065799713134765625">
        <ele>1639</ele>
        <time>2020-10-24T08:10:25.000Z</time>
      </trkpt>
      <trkpt lat="42.1614622883498668670654296875" lon="1.7631385289132595062255859375">
        <ele>1640.199951171875</ele>
        <time>2020-10-24T08:10:32.000Z</time>
      </trkpt>
      <trkpt lat="42.16147276572883129119873046875" lon="1.76313190720975399017333984375">
        <ele>1640.4000244140625</ele>
        <time>2020-10-24T08:10:33.000Z</time>
      </trkpt>
      <trkpt lat="42.161496989428997039794921875" lon="1.76309712231159210205078125">
        <ele>1641.199951171875</ele>
        <time>2020-10-24T08:10:36.000Z</time>
      </trkpt>
      <trkpt lat="42.1615182794630527496337890625" lon="1.76304205320775508880615234375">
        <ele>1641.4000244140625</ele>
        <time>2020-10-24T08:10:40.000Z</time>
      </trkpt>
      <trkpt lat="42.16154417954385280609130859375" lon="1.76295555196702480316162109375">
        <ele>1642.4000244140625</ele>
        <time>2020-10-24T08:10:47.000Z</time>
      </trkpt>
      <trkpt lat="42.16155272908508777618408203125" lon="1.7629440687596797943115234375">
        <ele>1642.5999755859375</ele>
        <time>2020-10-24T08:10:48.000Z</time>
      </trkpt>
      <trkpt lat="42.16162137687206268310546875" lon="1.76283292472362518310546875">
        <ele>1643.199951171875</ele>
        <time>2020-10-24T08:10:57.000Z</time>
      </trkpt>
      <trkpt lat="42.161651886999607086181640625" lon="1.76276008598506450653076171875">
        <ele>1643.5999755859375</ele>
        <time>2020-10-24T08:11:03.000Z</time>
      </trkpt>
      <trkpt lat="42.1616770327091217041015625" lon="1.7627016641199588775634765625">
        <ele>1644.199951171875</ele>
        <time>2020-10-24T08:11:07.000Z</time>
      </trkpt>
      <trkpt lat="42.1616983227431774139404296875" lon="1.7626597546041011810302734375">
        <ele>1644.800048828125</ele>
        <time>2020-10-24T08:11:11.000Z</time>
      </trkpt>
      <trkpt lat="42.1617172658443450927734375" lon="1.7626087926328182220458984375">
        <ele>1646</ele>
        <time>2020-10-24T08:11:16.000Z</time>
      </trkpt>
      <trkpt lat="42.161735035479068756103515625" lon="1.76258976571261882781982421875">
        <ele>1646.199951171875</ele>
        <time>2020-10-24T08:11:18.000Z</time>
      </trkpt>
      <trkpt lat="42.16177300550043582916259765625" lon="1.76246521063148975372314453125">
        <ele>1647</ele>
        <time>2020-10-24T08:11:27.000Z</time>
      </trkpt>
      <trkpt lat="42.1617829799652099609375" lon="1.762438975274562835693359375">
        <ele>1647.4000244140625</ele>
        <time>2020-10-24T08:11:29.000Z</time>
      </trkpt>
      <trkpt lat="42.16182044707238674163818359375" lon="1.76237829029560089111328125">
        <ele>1648</ele>
        <time>2020-10-24T08:11:35.000Z</time>
      </trkpt>
      <trkpt lat="42.1618666313588619232177734375" lon="1.76234032027423381805419921875">
        <ele>1649</ele>
        <time>2020-10-24T08:11:40.000Z</time>
      </trkpt>
      <trkpt lat="42.1618755161762237548828125" lon="1.76233462058007717132568359375">
        <ele>1649.199951171875</ele>
        <time>2020-10-24T08:11:41.000Z</time>
      </trkpt>
      <trkpt lat="42.16189563274383544921875" lon="1.7623258195817470550537109375">
        <ele>1649.5999755859375</ele>
        <time>2020-10-24T08:11:43.000Z</time>
      </trkpt>
      <trkpt lat="42.1619367040693759918212890625" lon="1.76231081597506999969482421875">
        <ele>1650</ele>
        <time>2020-10-24T08:11:47.000Z</time>
      </trkpt>
      <trkpt lat="42.16194592416286468505859375" lon="1.762308217585086822509765625">
        <ele>1650.199951171875</ele>
        <time>2020-10-24T08:11:48.000Z</time>
      </trkpt>
      <trkpt lat="42.161954976618289947509765625" lon="1.7623063735663890838623046875">
        <ele>1650.199951171875</ele>
        <time>2020-10-24T08:11:49.000Z</time>
      </trkpt>
      <trkpt lat="42.16198255307972431182861328125" lon="1.762296147644519805908203125">
        <ele>1650.4000244140625</ele>
        <time>2020-10-24T08:11:52.000Z</time>
      </trkpt>
      <trkpt lat="42.16202982701361179351806640625" lon="1.76227192394435405731201171875">
        <ele>1650.800048828125</ele>
        <time>2020-10-24T08:11:57.000Z</time>
      </trkpt>
      <trkpt lat="42.16204692609608173370361328125" lon="1.7622574232518672943115234375">
        <ele>1651.4000244140625</ele>
        <time>2020-10-24T08:11:59.000Z</time>
      </trkpt>
      <trkpt lat="42.1620550565421581268310546875" lon="1.76224560476839542388916015625">
        <ele>1651.5999755859375</ele>
        <time>2020-10-24T08:12:00.000Z</time>
      </trkpt>
      <trkpt lat="42.16207290999591350555419921875" lon="1.7622233927249908447265625">
        <ele>1651.800048828125</ele>
        <time>2020-10-24T08:12:02.000Z</time>
      </trkpt>
      <trkpt lat="42.16207257471978664398193359375" lon="1.7621196247637271881103515625">
        <ele>1652.199951171875</ele>
        <time>2020-10-24T08:12:09.000Z</time>
      </trkpt>
      <trkpt lat="42.1620728261768817901611328125" lon="1.76210713572800159454345703125">
        <ele>1652.4000244140625</ele>
        <time>2020-10-24T08:12:10.000Z</time>
      </trkpt>
      <trkpt lat="42.1620741672813892364501953125" lon="1.7620951496064662933349609375">
        <ele>1652.4000244140625</ele>
        <time>2020-10-24T08:12:11.000Z</time>
      </trkpt>
      <trkpt lat="42.162072658538818359375" lon="1.76205147989094257354736328125">
        <ele>1652.800048828125</ele>
        <time>2020-10-24T08:12:14.000Z</time>
      </trkpt>
      <trkpt lat="42.16206553392112255096435546875" lon="1.76198777742683887481689453125">
        <ele>1653</ele>
        <time>2020-10-24T08:12:19.000Z</time>
      </trkpt>
      <trkpt lat="42.1620644442737102508544921875" lon="1.76195986568927764892578125">
        <ele>1653.199951171875</ele>
        <time>2020-10-24T08:12:21.000Z</time>
      </trkpt>
      <trkpt lat="42.16206318698823451995849609375" lon="1.7619214765727519989013671875">
        <ele>1653.5999755859375</ele>
        <time>2020-10-24T08:12:24.000Z</time>
      </trkpt>
      <trkpt lat="42.16206084005534648895263671875" lon="1.7618674971163272857666015625">
        <ele>1654.4000244140625</ele>
        <time>2020-10-24T08:12:28.000Z</time>
      </trkpt>
      <trkpt lat="42.16205933131277561187744140625" lon="1.76183992065489292144775390625">
        <ele>1654.5999755859375</ele>
        <time>2020-10-24T08:12:30.000Z</time>
      </trkpt>
      <trkpt lat="42.16206402517855167388916015625" lon="1.76179080270230770111083984375">
        <ele>1654.800048828125</ele>
        <time>2020-10-24T08:12:33.000Z</time>
      </trkpt>
      <trkpt lat="42.16206452809274196624755859375" lon="1.76174939610064029693603515625">
        <ele>1654.800048828125</ele>
        <time>2020-10-24T08:12:36.000Z</time>
      </trkpt>
      <trkpt lat="42.16207810677587985992431640625" lon="1.7616830952465534210205078125">
        <ele>1655.199951171875</ele>
        <time>2020-10-24T08:12:41.000Z</time>
      </trkpt>
      <trkpt lat="42.1620805375277996063232421875" lon="1.7616730369627475738525390625">
        <ele>1655.4000244140625</ele>
        <time>2020-10-24T08:12:42.000Z</time>
      </trkpt>
      <trkpt lat="42.16209805570542812347412109375" lon="1.76163188181817531585693359375">
        <ele>1655.5999755859375</ele>
        <time>2020-10-24T08:12:45.000Z</time>
      </trkpt>
      <trkpt lat="42.16214516200125217437744140625" lon="1.76154638640582561492919921875">
        <ele>1656.4000244140625</ele>
        <time>2020-10-24T08:12:51.000Z</time>
      </trkpt>
      <trkpt lat="42.16215471737086772918701171875" lon="1.7615285329520702362060546875">
        <ele>1656.800048828125</ele>
        <time>2020-10-24T08:12:53.000Z</time>
      </trkpt>
      <trkpt lat="42.16215203516185283660888671875" lon="1.76151889376342296600341796875">
        <ele>1657.199951171875</ele>
        <time>2020-10-24T08:12:55.000Z</time>
      </trkpt>
      <trkpt lat="42.16214843094348907470703125" lon="1.76150615327060222625732421875">
        <ele>1657.199951171875</ele>
        <time>2020-10-24T08:12:56.000Z</time>
      </trkpt>
      <trkpt lat="42.1621318347752094268798828125" lon="1.7614634893834590911865234375">
        <ele>1657.5999755859375</ele>
        <time>2020-10-24T08:12:59.000Z</time>
      </trkpt>
      <trkpt lat="42.16214315034449100494384765625" lon="1.761415712535381317138671875">
        <ele>1657.5999755859375</ele>
        <time>2020-10-24T08:13:02.000Z</time>
      </trkpt>
      <trkpt lat="42.1621640212833881378173828125" lon="1.76133130677044391632080078125">
        <ele>1658</ele>
        <time>2020-10-24T08:13:06.000Z</time>
      </trkpt>
      <trkpt lat="42.1621920168399810791015625" lon="1.76126123405992984771728515625">
        <ele>1659</ele>
        <time>2020-10-24T08:13:11.000Z</time>
      </trkpt>
      <trkpt lat="42.16219310648739337921142578125" lon="1.76122301258146762847900390625">
        <ele>1659.5999755859375</ele>
        <time>2020-10-24T08:13:15.000Z</time>
      </trkpt>
      <trkpt lat="42.162200398743152618408203125" lon="1.76120457239449024200439453125">
        <ele>1660</ele>
        <time>2020-10-24T08:13:17.000Z</time>
      </trkpt>
      <trkpt lat="42.16220467351377010345458984375" lon="1.76119183190166950225830078125">
        <ele>1660</ele>
        <time>2020-10-24T08:13:18.000Z</time>
      </trkpt>
      <trkpt lat="42.16221272014081478118896484375" lon="1.7611198313534259796142578125">
        <ele>1660.4000244140625</ele>
        <time>2020-10-24T08:13:23.000Z</time>
      </trkpt>
      <trkpt lat="42.1622102893888950347900390625" lon="1.76109426654875278472900390625">
        <ele>1660.5999755859375</ele>
        <time>2020-10-24T08:13:25.000Z</time>
      </trkpt>
      <trkpt lat="42.16220819391310214996337890625" lon="1.76104112528264522552490234375">
        <ele>1661</ele>
        <time>2020-10-24T08:13:30.000Z</time>
      </trkpt>
      <trkpt lat="42.1621946990489959716796875" lon="1.7610091902315616607666015625">
        <ele>1661.4000244140625</ele>
        <time>2020-10-24T08:13:33.000Z</time>
      </trkpt>
      <trkpt lat="42.16220735572278499603271484375" lon="1.7609042488038539886474609375">
        <ele>1662</ele>
        <time>2020-10-24T08:13:41.000Z</time>
      </trkpt>
      <trkpt lat="42.162209451198577880859375" lon="1.760874576866626739501953125">
        <ele>1662</ele>
        <time>2020-10-24T08:13:43.000Z</time>
      </trkpt>
      <trkpt lat="42.1622394584119319915771484375" lon="1.76072613336145877838134765625">
        <ele>1662.5999755859375</ele>
        <time>2020-10-24T08:13:53.000Z</time>
      </trkpt>
      <trkpt lat="42.1622756682336330413818359375" lon="1.7605297453701496124267578125">
        <ele>1662.5999755859375</ele>
        <time>2020-10-24T08:14:03.000Z</time>
      </trkpt>
      <trkpt lat="42.162283547222614288330078125" lon="1.76051490940153598785400390625">
        <ele>1662.5999755859375</ele>
        <time>2020-10-24T08:14:04.000Z</time>
      </trkpt>
      <trkpt lat="42.162315733730792999267578125" lon="1.76048188470304012298583984375">
        <ele>1663.199951171875</ele>
        <time>2020-10-24T08:14:07.000Z</time>
      </trkpt>
      <trkpt lat="42.16237834654748439788818359375" lon="1.76042840816080570220947265625">
        <ele>1663.800048828125</ele>
        <time>2020-10-24T08:14:11.000Z</time>
      </trkpt>
      <trkpt lat="42.1624092757701873779296875" lon="1.76039957441389560699462890625">
        <ele>1664.199951171875</ele>
        <time>2020-10-24T08:14:14.000Z</time>
      </trkpt>
      <trkpt lat="42.16244070790708065032958984375" lon="1.76037208177149295806884765625">
        <ele>1664.5999755859375</ele>
        <time>2020-10-24T08:14:17.000Z</time>
      </trkpt>
      <trkpt lat="42.16246761381626129150390625" lon="1.7603554017841815948486328125">
        <ele>1665.199951171875</ele>
        <time>2020-10-24T08:14:19.000Z</time>
      </trkpt>
      <trkpt lat="42.16251245699822902679443359375" lon="1.760330758988857269287109375">
        <ele>1665.4000244140625</ele>
        <time>2020-10-24T08:14:22.000Z</time>
      </trkpt>
      <trkpt lat="42.16254380531609058380126953125" lon="1.76030360162258148193359375">
        <ele>1665.199951171875</ele>
        <time>2020-10-24T08:14:24.000Z</time>
      </trkpt>
      <trkpt lat="42.16257079504430294036865234375" lon="1.7602739296853542327880859375">
        <ele>1665</ele>
        <time>2020-10-24T08:14:26.000Z</time>
      </trkpt>
      <trkpt lat="42.1626025624573230743408203125" lon="1.760234199464321136474609375">
        <ele>1664.800048828125</ele>
        <time>2020-10-24T08:14:29.000Z</time>
      </trkpt>
      <trkpt lat="42.16262628324329853057861328125" lon="1.760196648538112640380859375">
        <ele>1665.199951171875</ele>
        <time>2020-10-24T08:14:32.000Z</time>
      </trkpt>
      <trkpt lat="42.1626451425254344940185546875" lon="1.7601800523698329925537109375">
        <ele>1665.199951171875</ele>
        <time>2020-10-24T08:14:34.000Z</time>
      </trkpt>
      <trkpt lat="42.162670455873012542724609375" lon="1.76016370765864849090576171875">
        <ele>1665.199951171875</ele>
        <time>2020-10-24T08:14:36.000Z</time>
      </trkpt>
      <trkpt lat="42.16277129016816616058349609375" lon="1.7600761167705059051513671875">
        <ele>1665.800048828125</ele>
        <time>2020-10-24T08:14:44.000Z</time>
      </trkpt>
      <trkpt lat="42.16278620995581150054931640625" lon="1.76005273126065731048583984375">
        <ele>1666.199951171875</ele>
        <time>2020-10-24T08:14:46.000Z</time>
      </trkpt>
      <trkpt lat="42.16279140673577785491943359375" lon="1.76004267297685146331787109375">
        <ele>1666.199951171875</ele>
        <time>2020-10-24T08:14:47.000Z</time>
      </trkpt>
      <trkpt lat="42.16278143227100372314453125" lon="1.76005960442125797271728515625">
        <ele>1666.4000244140625</ele>
        <time>2020-10-24T08:14:50.000Z</time>
      </trkpt>
      <trkpt lat="42.16276877559721469879150390625" lon="1.7600717581808567047119140625">
        <ele>1666.4000244140625</ele>
        <time>2020-10-24T08:14:51.000Z</time>
      </trkpt>
      <trkpt lat="42.16262259520590305328369140625" lon="1.76018801517784595489501953125">
        <ele>1665.800048828125</ele>
        <time>2020-10-24T08:15:02.000Z</time>
      </trkpt>
      <trkpt lat="42.1625566296279430389404296875" lon="1.76027703098952770233154296875">
        <ele>1665.800048828125</ele>
        <time>2020-10-24T08:15:08.000Z</time>
      </trkpt>
      <trkpt lat="42.16242914088070392608642578125" lon="1.76039454527199268341064453125">
        <ele>1665.800048828125</ele>
        <time>2020-10-24T08:15:18.000Z</time>
      </trkpt>
      <trkpt lat="42.16234750114381313323974609375" lon="1.76047853194177150726318359375">
        <ele>1665</ele>
        <time>2020-10-24T08:15:24.000Z</time>
      </trkpt>
      <trkpt lat="42.162307687103748321533203125" lon="1.760540306568145751953125">
        <ele>1664</ele>
        <time>2020-10-24T08:15:31.000Z</time>
      </trkpt>
      <trkpt lat="42.1623189188539981842041015625" lon="1.7605465091764926910400390625">
        <ele>1664</ele>
        <time>2020-10-24T08:15:35.000Z</time>
      </trkpt>
      <trkpt lat="42.1623122133314609527587890625" lon="1.7605361156165599822998046875">
        <ele>1664</ele>
        <time>2020-10-24T08:15:39.000Z</time>
      </trkpt>
      <trkpt lat="42.1623494289815425872802734375" lon="1.76049043424427509307861328125">
        <ele>1664.4000244140625</ele>
        <time>2020-10-24T08:15:54.000Z</time>
      </trkpt>
      <trkpt lat="42.16239728964865207672119140625" lon="1.76043679006397724151611328125">
        <ele>1665.199951171875</ele>
        <time>2020-10-24T08:15:57.000Z</time>
      </trkpt>
      <trkpt lat="42.16242528520524501800537109375" lon="1.76041130907833576202392578125">
        <ele>1665.5999755859375</ele>
        <time>2020-10-24T08:15:59.000Z</time>
      </trkpt>
      <trkpt lat="42.1624409593641757965087890625" lon="1.76039823330938816070556640625">
        <ele>1665.5999755859375</ele>
        <time>2020-10-24T08:16:00.000Z</time>
      </trkpt>
      <trkpt lat="42.16245043091475963592529296875" lon="1.76038431935012340545654296875">
        <ele>1665.800048828125</ele>
        <time>2020-10-24T08:16:01.000Z</time>
      </trkpt>
      <trkpt lat="42.162527628242969512939453125" lon="1.7602987401187419891357421875">
        <ele>1666.199951171875</ele>
        <time>2020-10-24T08:16:08.000Z</time>
      </trkpt>
      <trkpt lat="42.16257381252944469451904296875" lon="1.7602564953267574310302734375">
        <ele>1666.199951171875</ele>
        <time>2020-10-24T08:16:11.000Z</time>
      </trkpt>
      <trkpt lat="42.16261086054146289825439453125" lon="1.76022187806665897369384765625">
        <ele>1666.4000244140625</ele>
        <time>2020-10-24T08:16:14.000Z</time>
      </trkpt>
      <trkpt lat="42.16269166208803653717041015625" lon="1.7601528950035572052001953125">
        <ele>1666.199951171875</ele>
        <time>2020-10-24T08:16:20.000Z</time>
      </trkpt>
      <trkpt lat="42.16271060518920421600341796875" lon="1.76013353280723094940185546875">
        <ele>1666.4000244140625</ele>
        <time>2020-10-24T08:16:22.000Z</time>
      </trkpt>
      <trkpt lat="42.16278118081390857696533203125" lon="1.7600513063371181488037109375">
        <ele>1667.199951171875</ele>
        <time>2020-10-24T08:16:29.000Z</time>
      </trkpt>
      <trkpt lat="42.16280247084796428680419921875" lon="1.7600275017321109771728515625">
        <ele>1667.4000244140625</ele>
        <time>2020-10-24T08:16:31.000Z</time>
      </trkpt>
      <trkpt lat="42.16288964264094829559326171875" lon="1.7599446885287761688232421875">
        <ele>1668.199951171875</ele>
        <time>2020-10-24T08:16:38.000Z</time>
      </trkpt>
      <trkpt lat="42.16290825046598911285400390625" lon="1.75990923307836055755615234375">
        <ele>1668.4000244140625</ele>
        <time>2020-10-24T08:16:41.000Z</time>
      </trkpt>
      <trkpt lat="42.16291445307433605194091796875" lon="1.75988157279789447784423828125">
        <ele>1668.5999755859375</ele>
        <time>2020-10-24T08:16:43.000Z</time>
      </trkpt>
      <trkpt lat="42.16299408115446567535400390625" lon="1.75967194139957427978515625">
        <ele>1668.4000244140625</ele>
        <time>2020-10-24T08:16:55.000Z</time>
      </trkpt>
      <trkpt lat="42.1630146168172359466552734375" lon="1.75961284898221492767333984375">
        <ele>1668</ele>
        <time>2020-10-24T08:16:59.000Z</time>
      </trkpt>
      <trkpt lat="42.1630260162055492401123046875" lon="1.7595597915351390838623046875">
        <ele>1667.5999755859375</ele>
        <time>2020-10-24T08:17:02.000Z</time>
      </trkpt>
      <trkpt lat="42.1630342304706573486328125" lon="1.759526096284389495849609375">
        <ele>1667.5999755859375</ele>
        <time>2020-10-24T08:17:04.000Z</time>
      </trkpt>
      <trkpt lat="42.1630424447357654571533203125" lon="1.75951092503964900970458984375">
        <ele>1667.4000244140625</ele>
        <time>2020-10-24T08:17:05.000Z</time>
      </trkpt>
      <trkpt lat="42.16307002119719982147216796875" lon="1.75945468246936798095703125">
        <ele>1667</ele>
        <time>2020-10-24T08:17:09.000Z</time>
      </trkpt>
      <trkpt lat="42.1631012856960296630859375" lon="1.75938385538756847381591796875">
        <ele>1666.800048828125</ele>
        <time>2020-10-24T08:17:13.000Z</time>
      </trkpt>
      <trkpt lat="42.1631135232746601104736328125" lon="1.75935653038322925567626953125">
        <ele>1666.5999755859375</ele>
        <time>2020-10-24T08:17:15.000Z</time>
      </trkpt>
      <trkpt lat="42.1631205640733242034912109375" lon="1.7593438737094402313232421875">
        <ele>1666.4000244140625</ele>
        <time>2020-10-24T08:17:16.000Z</time>
      </trkpt>
      <trkpt lat="42.16316859237849712371826171875" lon="1.75923868082463741302490234375">
        <ele>1665.4000244140625</ele>
        <time>2020-10-24T08:17:23.000Z</time>
      </trkpt>
      <trkpt lat="42.1631832607090473175048828125" lon="1.75920255482196807861328125">
        <ele>1665</ele>
        <time>2020-10-24T08:17:25.000Z</time>
      </trkpt>
      <trkpt lat="42.16324436478316783905029296875" lon="1.75912552513182163238525390625">
        <ele>1664.199951171875</ele>
        <time>2020-10-24T08:17:31.000Z</time>
      </trkpt>
      <trkpt lat="42.16326783411204814910888671875" lon="1.7590950988233089447021484375">
        <ele>1664</ele>
        <time>2020-10-24T08:17:33.000Z</time>
      </trkpt>
      <trkpt lat="42.163304798305034637451171875" lon="1.75899191759526729583740234375">
        <ele>1663.199951171875</ele>
        <time>2020-10-24T08:17:38.000Z</time>
      </trkpt>
      <trkpt lat="42.163320221006870269775390625" lon="1.75893894396722316741943359375">
        <ele>1662.800048828125</ele>
        <time>2020-10-24T08:17:41.000Z</time>
      </trkpt>
      <trkpt lat="42.16335517354309558868408203125" lon="1.75885579548776149749755859375">
        <ele>1662</ele>
        <time>2020-10-24T08:17:46.000Z</time>
      </trkpt>
      <trkpt lat="42.163362465798854827880859375" lon="1.75884054042398929595947265625">
        <ele>1662</ele>
        <time>2020-10-24T08:17:47.000Z</time>
      </trkpt>
      <trkpt lat="42.163406722247600555419921875" lon="1.7587460763752460479736328125">
        <ele>1661.800048828125</ele>
        <time>2020-10-24T08:17:54.000Z</time>
      </trkpt>
      <trkpt lat="42.16341979801654815673828125" lon="1.758705340325832366943359375">
        <ele>1661.800048828125</ele>
        <time>2020-10-24T08:17:57.000Z</time>
      </trkpt>
      <trkpt lat="42.16344787739217281341552734375" lon="1.75862311385571956634521484375">
        <ele>1661.5999755859375</ele>
        <time>2020-10-24T08:18:02.000Z</time>
      </trkpt>
      <trkpt lat="42.16346673667430877685546875" lon="1.75855211913585662841796875">
        <ele>1661.800048828125</ele>
        <time>2020-10-24T08:18:07.000Z</time>
      </trkpt>
      <trkpt lat="42.1634794771671295166015625" lon="1.7585063539445400238037109375">
        <ele>1661.800048828125</ele>
        <time>2020-10-24T08:18:10.000Z</time>
      </trkpt>
      <trkpt lat="42.16351208277046680450439453125" lon="1.7583142407238483428955078125">
        <ele>1661.800048828125</ele>
        <time>2020-10-24T08:18:20.000Z</time>
      </trkpt>
      <trkpt lat="42.16357192955911159515380859375" lon="1.758129335939884185791015625">
        <ele>1662.800048828125</ele>
        <time>2020-10-24T08:18:30.000Z</time>
      </trkpt>
      <trkpt lat="42.16360227204859256744384765625" lon="1.758081726729869842529296875">
        <ele>1663.199951171875</ele>
        <time>2020-10-24T08:18:34.000Z</time>
      </trkpt>
      <trkpt lat="42.163622640073299407958984375" lon="1.75804308615624904632568359375">
        <ele>1663.5999755859375</ele>
        <time>2020-10-24T08:18:37.000Z</time>
      </trkpt>
      <trkpt lat="42.16363395564258098602294921875" lon="1.75801961682736873626708984375">
        <ele>1663.800048828125</ele>
        <time>2020-10-24T08:18:39.000Z</time>
      </trkpt>
      <trkpt lat="42.16365390457212924957275390625" lon="1.75798642449080944061279296875">
        <ele>1664.199951171875</ele>
        <time>2020-10-24T08:18:42.000Z</time>
      </trkpt>
      <trkpt lat="42.16369070112705230712890625" lon="1.75787561573088169097900390625">
        <ele>1664.5999755859375</ele>
        <time>2020-10-24T08:18:50.000Z</time>
      </trkpt>
      <trkpt lat="42.16371827758848667144775390625" lon="1.7577392421662807464599609375">
        <ele>1664.4000244140625</ele>
        <time>2020-10-24T08:18:59.000Z</time>
      </trkpt>
      <trkpt lat="42.1637210436165332794189453125" lon="1.7577191255986690521240234375">
        <ele>1664.4000244140625</ele>
        <time>2020-10-24T08:19:00.000Z</time>
      </trkpt>
      <trkpt lat="42.16375649906694889068603515625" lon="1.757560707628726959228515625">
        <ele>1665.199951171875</ele>
        <time>2020-10-24T08:19:09.000Z</time>
      </trkpt>
      <trkpt lat="42.16375934891402721405029296875" lon="1.757543273270130157470703125">
        <ele>1665.199951171875</ele>
        <time>2020-10-24T08:19:10.000Z</time>
      </trkpt>
      <trkpt lat="42.16378365643322467803955078125" lon="1.7574599571526050567626953125">
        <ele>1665.800048828125</ele>
        <time>2020-10-24T08:19:15.000Z</time>
      </trkpt>
      <trkpt lat="42.1637911163270473480224609375" lon="1.75742249004542827606201171875">
        <ele>1666</ele>
        <time>2020-10-24T08:19:17.000Z</time>
      </trkpt>
      <trkpt lat="42.16379857622087001800537109375" lon="1.75740907900035381317138671875">
        <ele>1666.199951171875</ele>
        <time>2020-10-24T08:19:18.000Z</time>
      </trkpt>
      <trkpt lat="42.16381098143756389617919921875" lon="1.75737823359668254852294921875">
        <ele>1666.199951171875</ele>
        <time>2020-10-24T08:19:20.000Z</time>
      </trkpt>
      <trkpt lat="42.1638343669474124908447265625" lon="1.75731671042740345001220703125">
        <ele>1666.800048828125</ele>
        <time>2020-10-24T08:19:24.000Z</time>
      </trkpt>
      <trkpt lat="42.1638534776866436004638671875" lon="1.75727798603475093841552734375">
        <ele>1667.199951171875</ele>
        <time>2020-10-24T08:19:27.000Z</time>
      </trkpt>
      <trkpt lat="42.16386630199849605560302734375" lon="1.757253594696521759033203125">
        <ele>1667.4000244140625</ele>
        <time>2020-10-24T08:19:29.000Z</time>
      </trkpt>
      <trkpt lat="42.16391894035041332244873046875" lon="1.757179833948612213134765625">
        <ele>1668.4000244140625</ele>
        <time>2020-10-24T08:19:35.000Z</time>
      </trkpt>
      <trkpt lat="42.16399605385959148406982421875" lon="1.75710028968751430511474609375">
        <ele>1669.199951171875</ele>
        <time>2020-10-24T08:19:42.000Z</time>
      </trkpt>
      <trkpt lat="42.16403410769999027252197265625" lon="1.75711554475128650665283203125">
        <ele>1669.199951171875</ele>
        <time>2020-10-24T08:19:44.000Z</time>
      </trkpt>
      <trkpt lat="42.16412496753036975860595703125" lon="1.7571287043392658233642578125">
        <ele>1669.4000244140625</ele>
        <time>2020-10-24T08:19:49.000Z</time>
      </trkpt>
      <trkpt lat="42.1641391329467296600341796875" lon="1.7571250163018703460693359375">
        <ele>1669.4000244140625</ele>
        <time>2020-10-24T08:19:50.000Z</time>
      </trkpt>
      <trkpt lat="42.16417224146425724029541015625" lon="1.75709023140370845794677734375">
        <ele>1669</ele>
        <time>2020-10-24T08:19:53.000Z</time>
      </trkpt>
      <trkpt lat="42.1641968004405498504638671875" lon="1.757069863379001617431640625">
        <ele>1668.5999755859375</ele>
        <time>2020-10-24T08:19:55.000Z</time>
      </trkpt>
      <trkpt lat="42.16424549929797649383544921875" lon="1.75701521337032318115234375">
        <ele>1667.5999755859375</ele>
        <time>2020-10-24T08:20:01.000Z</time>
      </trkpt>
      <trkpt lat="42.16424868442118167877197265625" lon="1.75700121559202671051025390625">
        <ele>1667.5999755859375</ele>
        <time>2020-10-24T08:20:02.000Z</time>
      </trkpt>
      <trkpt lat="42.16426544822752475738525390625" lon="1.75697606988251209259033203125">
        <ele>1667.5999755859375</ele>
        <time>2020-10-24T08:20:04.000Z</time>
      </trkpt>
      <trkpt lat="42.16426880098879337310791015625" lon="1.756959892809391021728515625">
        <ele>1667.5999755859375</ele>
        <time>2020-10-24T08:20:05.000Z</time>
      </trkpt>
      <trkpt lat="42.1642765961587429046630859375" lon="1.7569349147379398345947265625">
        <ele>1667.4000244140625</ele>
        <time>2020-10-24T08:20:07.000Z</time>
      </trkpt>
      <trkpt lat="42.16436385177075862884521484375" lon="1.75682745873928070068359375">
        <ele>1666.5999755859375</ele>
        <time>2020-10-24T08:20:16.000Z</time>
      </trkpt>
      <trkpt lat="42.16439017094671726226806640625" lon="1.75680021755397319793701171875">
        <ele>1666.4000244140625</ele>
        <time>2020-10-24T08:20:18.000Z</time>
      </trkpt>
      <trkpt lat="42.164462171494960784912109375" lon="1.75671740435063838958740234375">
        <ele>1665.800048828125</ele>
        <time>2020-10-24T08:20:25.000Z</time>
      </trkpt>
      <trkpt lat="42.1644734032452106475830078125" lon="1.75669074989855289459228515625">
        <ele>1665.199951171875</ele>
        <time>2020-10-24T08:20:29.000Z</time>
      </trkpt>
      <trkpt lat="42.16447390615940093994140625" lon="1.75668505020439624786376953125">
        <ele>1665</ele>
        <time>2020-10-24T08:20:30.000Z</time>
      </trkpt>
      <trkpt lat="42.16451279819011688232421875" lon="1.75664649344980716705322265625">
        <ele>1664.800048828125</ele>
        <time>2020-10-24T08:20:34.000Z</time>
      </trkpt>
      <trkpt lat="42.16453383676707744598388671875" lon="1.75663241185247898101806640625">
        <ele>1664.800048828125</ele>
        <time>2020-10-24T08:20:35.000Z</time>
      </trkpt>
      <trkpt lat="42.1646081842482089996337890625" lon="1.7564863152801990509033203125">
        <ele>1664</ele>
        <time>2020-10-24T08:20:42.000Z</time>
      </trkpt>
      <trkpt lat="42.1646189130842685699462890625" lon="1.7564718984067440032958984375">
        <ele>1664</ele>
        <time>2020-10-24T08:20:43.000Z</time>
      </trkpt>
      <trkpt lat="42.16464213095605373382568359375" lon="1.75645530223846435546875">
        <ele>1664</ele>
        <time>2020-10-24T08:20:45.000Z</time>
      </trkpt>
      <trkpt lat="42.16467381455004215240478515625" lon="1.756422780454158782958984375">
        <ele>1664.4000244140625</ele>
        <time>2020-10-24T08:20:48.000Z</time>
      </trkpt>
      <trkpt lat="42.16469250619411468505859375" lon="1.75639151595532894134521484375">
        <ele>1664.4000244140625</ele>
        <time>2020-10-24T08:20:50.000Z</time>
      </trkpt>
      <trkpt lat="42.1647433005273342132568359375" lon="1.75626126118004322052001953125">
        <ele>1664</ele>
        <time>2020-10-24T08:20:58.000Z</time>
      </trkpt>
      <trkpt lat="42.16476635076105594635009765625" lon="1.75614072941243648529052734375">
        <ele>1663.5999755859375</ele>
        <time>2020-10-24T08:21:05.000Z</time>
      </trkpt>
      <trkpt lat="42.164768613874912261962890625" lon="1.7560943774878978729248046875">
        <ele>1664</ele>
        <time>2020-10-24T08:21:08.000Z</time>
      </trkpt>
      <trkpt lat="42.1648016385734081268310546875" lon="1.755935288965702056884765625">
        <ele>1664.199951171875</ele>
        <time>2020-10-24T08:21:17.000Z</time>
      </trkpt>
      <trkpt lat="42.16485285200178623199462890625" lon="1.75578617490828037261962890625">
        <ele>1663.199951171875</ele>
        <time>2020-10-24T08:21:26.000Z</time>
      </trkpt>
      <trkpt lat="42.16485905461013317108154296875" lon="1.75577309913933277130126953125">
        <ele>1663</ele>
        <time>2020-10-24T08:21:27.000Z</time>
      </trkpt>
      <trkpt lat="42.16489157639443874359130859375" lon="1.7557081393897533416748046875">
        <ele>1662</ele>
        <time>2020-10-24T08:21:31.000Z</time>
      </trkpt>
      <trkpt lat="42.164915464818477630615234375" lon="1.755653321743011474609375">
        <ele>1661.199951171875</ele>
        <time>2020-10-24T08:21:35.000Z</time>
      </trkpt>
      <trkpt lat="42.16492828913033008575439453125" lon="1.7556199617683887481689453125">
        <ele>1660.800048828125</ele>
        <time>2020-10-24T08:21:37.000Z</time>
      </trkpt>
      <trkpt lat="42.16495410539209842681884765625" lon="1.75551895983517169952392578125">
        <ele>1660</ele>
        <time>2020-10-24T08:21:43.000Z</time>
      </trkpt>
      <trkpt lat="42.1649582125246524810791015625" lon="1.75550554879009723663330078125">
        <ele>1659.5999755859375</ele>
        <time>2020-10-24T08:21:44.000Z</time>
      </trkpt>
      <trkpt lat="42.16495326720178127288818359375" lon="1.75544050522148609161376953125">
        <ele>1658.5999755859375</ele>
        <time>2020-10-24T08:21:48.000Z</time>
      </trkpt>
      <trkpt lat="42.16497522778809070587158203125" lon="1.755395829677581787109375">
        <ele>1657.800048828125</ele>
        <time>2020-10-24T08:21:51.000Z</time>
      </trkpt>
      <trkpt lat="42.1649960987269878387451171875" lon="1.755374707281589508056640625">
        <ele>1657.4000244140625</ele>
        <time>2020-10-24T08:21:53.000Z</time>
      </trkpt>
      <trkpt lat="42.16503373347222805023193359375" lon="1.75529834814369678497314453125">
        <ele>1656</ele>
        <time>2020-10-24T08:21:58.000Z</time>
      </trkpt>
      <trkpt lat="42.16505753807723522186279296875" lon="1.75523447804152965545654296875">
        <ele>1654.800048828125</ele>
        <time>2020-10-24T08:22:02.000Z</time>
      </trkpt>
      <trkpt lat="42.16510355472564697265625" lon="1.755174212157726287841796875">
        <ele>1653.4000244140625</ele>
        <time>2020-10-24T08:22:07.000Z</time>
      </trkpt>
      <trkpt lat="42.1651370823383331298828125" lon="1.7551049776375293731689453125">
        <ele>1652.4000244140625</ele>
        <time>2020-10-24T08:22:11.000Z</time>
      </trkpt>
      <trkpt lat="42.1651580370962619781494140625" lon="1.7550377547740936279296875">
        <ele>1651.800048828125</ele>
        <time>2020-10-24T08:22:15.000Z</time>
      </trkpt>
      <trkpt lat="42.16514940373599529266357421875" lon="1.75496189855039119720458984375">
        <ele>1651.4000244140625</ele>
        <time>2020-10-24T08:22:21.000Z</time>
      </trkpt>
      <trkpt lat="42.165142782032489776611328125" lon="1.75494597293436527252197265625">
        <ele>1651.4000244140625</ele>
        <time>2020-10-24T08:22:22.000Z</time>
      </trkpt>
      <trkpt lat="42.16510648839175701141357421875" lon="1.754859723150730133056640625">
        <ele>1651</ele>
        <time>2020-10-24T08:22:27.000Z</time>
      </trkpt>
      <trkpt lat="42.165092490613460540771484375" lon="1.7547935061156749725341796875">
        <ele>1650.800048828125</ele>
        <time>2020-10-24T08:22:30.000Z</time>
      </trkpt>
      <trkpt lat="42.16509257443249225616455078125" lon="1.75475402735173702239990234375">
        <ele>1650.5999755859375</ele>
        <time>2020-10-24T08:22:32.000Z</time>
      </trkpt>
      <trkpt lat="42.16509559191763401031494140625" lon="1.75466115586459636688232421875">
        <ele>1650.4000244140625</ele>
        <time>2020-10-24T08:22:37.000Z</time>
      </trkpt>
      <trkpt lat="42.165090143680572509765625" lon="1.75462268292903900146484375">
        <ele>1650.4000244140625</ele>
        <time>2020-10-24T08:22:39.000Z</time>
      </trkpt>
      <trkpt lat="42.1650772355496883392333984375" lon="1.75453308038413524627685546875">
        <ele>1650.4000244140625</ele>
        <time>2020-10-24T08:22:44.000Z</time>
      </trkpt>
      <trkpt lat="42.16508251614868640899658203125" lon="1.75451832823455333709716796875">
        <ele>1650.4000244140625</ele>
        <time>2020-10-24T08:22:45.000Z</time>
      </trkpt>
      <trkpt lat="42.16510690748691558837890625" lon="1.7544327490031719207763671875">
        <ele>1650.800048828125</ele>
        <time>2020-10-24T08:22:51.000Z</time>
      </trkpt>
      <trkpt lat="42.1651167981326580047607421875" lon="1.75440969876945018768310546875">
        <ele>1650.800048828125</ele>
        <time>2020-10-24T08:22:53.000Z</time>
      </trkpt>
      <trkpt lat="42.16514638625085353851318359375" lon="1.75438656471669673919677734375">
        <ele>1651.199951171875</ele>
        <time>2020-10-24T08:22:56.000Z</time>
      </trkpt>
      <trkpt lat="42.16515342704951763153076171875" lon="1.75436175428330898284912109375">
        <ele>1651.4000244140625</ele>
        <time>2020-10-24T08:22:59.000Z</time>
      </trkpt>
      <trkpt lat="42.16515527106821537017822265625" lon="1.75434230826795101165771484375">
        <ele>1651.4000244140625</ele>
        <time>2020-10-24T08:23:01.000Z</time>
      </trkpt>
      <trkpt lat="42.1651657484471797943115234375" lon="1.7543174140155315399169921875">
        <ele>1651.4000244140625</ele>
        <time>2020-10-24T08:23:03.000Z</time>
      </trkpt>
      <trkpt lat="42.16517337597906589508056640625" lon="1.75430207513272762298583984375">
        <ele>1651.4000244140625</ele>
        <time>2020-10-24T08:23:04.000Z</time>
      </trkpt>
      <trkpt lat="42.16517605818808078765869140625" lon="1.75425278954207897186279296875">
        <ele>1651.4000244140625</ele>
        <time>2020-10-24T08:23:06.000Z</time>
      </trkpt>
      <trkpt lat="42.1651888824999332427978515625" lon="1.75420601852238178253173828125">
        <ele>1651.5999755859375</ele>
        <time>2020-10-24T08:23:08.000Z</time>
      </trkpt>
      <trkpt lat="42.16523070819675922393798828125" lon="1.75416142679750919342041015625">
        <ele>1651.5999755859375</ele>
        <time>2020-10-24T08:23:11.000Z</time>
      </trkpt>
      <trkpt lat="42.16524294577538967132568359375" lon="1.7541336826980113983154296875">
        <ele>1651.800048828125</ele>
        <time>2020-10-24T08:23:13.000Z</time>
      </trkpt>
      <trkpt lat="42.16526809148490428924560546875" lon="1.75410845316946506500244140625">
        <ele>1651.800048828125</ele>
        <time>2020-10-24T08:23:16.000Z</time>
      </trkpt>
      <trkpt lat="42.1652784012258052825927734375" lon="1.754109375178813934326171875">
        <ele>1652</ele>
        <time>2020-10-24T08:23:17.000Z</time>
      </trkpt>
      <trkpt lat="42.165335901081562042236328125" lon="1.7540719918906688690185546875">
        <ele>1652.4000244140625</ele>
        <time>2020-10-24T08:23:23.000Z</time>
      </trkpt>
      <trkpt lat="42.1653558500111103057861328125" lon="1.754047684371471405029296875">
        <ele>1652.800048828125</ele>
        <time>2020-10-24T08:23:26.000Z</time>
      </trkpt>
      <trkpt lat="42.16539013199508190155029296875" lon="1.7539836466312408447265625">
        <ele>1653.4000244140625</ele>
        <time>2020-10-24T08:23:31.000Z</time>
      </trkpt>
      <trkpt lat="42.16539566405117511749267578125" lon="1.75397350452840328216552734375">
        <ele>1653.4000244140625</ele>
        <time>2020-10-24T08:23:32.000Z</time>
      </trkpt>
      <trkpt lat="42.165423072874546051025390625" lon="1.753951124846935272216796875">
        <ele>1653.5999755859375</ele>
        <time>2020-10-24T08:23:35.000Z</time>
      </trkpt>
      <trkpt lat="42.16545634903013706207275390625" lon="1.75391650758683681488037109375">
        <ele>1653.5999755859375</ele>
        <time>2020-10-24T08:23:38.000Z</time>
      </trkpt>
      <trkpt lat="42.16547428630292415618896484375" lon="1.75386588089168071746826171875">
        <ele>1653.800048828125</ele>
        <time>2020-10-24T08:23:42.000Z</time>
      </trkpt>
      <trkpt lat="42.165566571056842803955078125" lon="1.7537905275821685791015625">
        <ele>1654.199951171875</ele>
        <time>2020-10-24T08:23:51.000Z</time>
      </trkpt>
      <trkpt lat="42.1656703390181064605712890625" lon="1.753694303333759307861328125">
        <ele>1654.4000244140625</ele>
        <time>2020-10-24T08:24:01.000Z</time>
      </trkpt>
      <trkpt lat="42.16572993434965610504150390625" lon="1.7535580135881900787353515625">
        <ele>1654.4000244140625</ele>
        <time>2020-10-24T08:24:10.000Z</time>
      </trkpt>
      <trkpt lat="42.16575508005917072296142578125" lon="1.753496490418910980224609375">
        <ele>1654.4000244140625</ele>
        <time>2020-10-24T08:24:13.000Z</time>
      </trkpt>
      <trkpt lat="42.16578684747219085693359375" lon="1.7534356378018856048583984375">
        <ele>1654.5999755859375</ele>
        <time>2020-10-24T08:24:17.000Z</time>
      </trkpt>
      <trkpt lat="42.16579196043312549591064453125" lon="1.75342281349003314971923828125">
        <ele>1654.5999755859375</ele>
        <time>2020-10-24T08:24:18.000Z</time>
      </trkpt>
      <trkpt lat="42.16582305729389190673828125" lon="1.75330328755080699920654296875">
        <ele>1655</ele>
        <time>2020-10-24T08:24:26.000Z</time>
      </trkpt>
      <trkpt lat="42.16587561182677745819091796875" lon="1.7532180435955524444580078125">
        <ele>1655.5999755859375</ele>
        <time>2020-10-24T08:24:32.000Z</time>
      </trkpt>
      <trkpt lat="42.165888436138629913330078125" lon="1.753197424113750457763671875">
        <ele>1655.800048828125</ele>
        <time>2020-10-24T08:24:34.000Z</time>
      </trkpt>
      <trkpt lat="42.16592959128320217132568359375" lon="1.7531409300863742828369140625">
        <ele>1656</ele>
        <time>2020-10-24T08:24:39.000Z</time>
      </trkpt>
      <trkpt lat="42.16596144251525402069091796875" lon="1.75307915546000003814697265625">
        <ele>1656.199951171875</ele>
        <time>2020-10-24T08:24:43.000Z</time>
      </trkpt>
      <trkpt lat="42.16598256491124629974365234375" lon="1.7530329711735248565673828125">
        <ele>1656.5999755859375</ele>
        <time>2020-10-24T08:24:46.000Z</time>
      </trkpt>
      <trkpt lat="42.166013158857822418212890625" lon="1.7529669217765331268310546875">
        <ele>1657</ele>
        <time>2020-10-24T08:24:51.000Z</time>
      </trkpt>
      <trkpt lat="42.16608532704412937164306640625" lon="1.7527922429144382476806640625">
        <ele>1657.4000244140625</ele>
        <time>2020-10-24T08:25:01.000Z</time>
      </trkpt>
      <trkpt lat="42.1661699004471302032470703125" lon="1.7527245171368122100830078125">
        <ele>1657</ele>
        <time>2020-10-24T08:25:09.000Z</time>
      </trkpt>
      <trkpt lat="42.16625531204044818878173828125" lon="1.752684451639652252197265625">
        <ele>1656.199951171875</ele>
        <time>2020-10-24T08:25:17.000Z</time>
      </trkpt>
      <trkpt lat="42.16629940085113048553466796875" lon="1.75261563621461391448974609375">
        <ele>1655.800048828125</ele>
        <time>2020-10-24T08:25:23.000Z</time>
      </trkpt>
      <trkpt lat="42.16631080023944377899169921875" lon="1.752593256533145904541015625">
        <ele>1655.800048828125</ele>
        <time>2020-10-24T08:25:25.000Z</time>
      </trkpt>
      <trkpt lat="42.1663931943476200103759765625" lon="1.75247951410710811614990234375">
        <ele>1656.5999755859375</ele>
        <time>2020-10-24T08:25:34.000Z</time>
      </trkpt>
      <trkpt lat="42.166456393897533416748046875" lon="1.75240843556821346282958984375">
        <ele>1657.5999755859375</ele>
        <time>2020-10-24T08:25:42.000Z</time>
      </trkpt>
      <trkpt lat="42.16646335087716579437255859375" lon="1.7523930966854095458984375">
        <ele>1657.800048828125</ele>
        <time>2020-10-24T08:25:43.000Z</time>
      </trkpt>
      <trkpt lat="42.16650894843041896820068359375" lon="1.75232579000294208526611328125">
        <ele>1658.5999755859375</ele>
        <time>2020-10-24T08:25:48.000Z</time>
      </trkpt>
      <trkpt lat="42.1665185876190662384033203125" lon="1.7522777616977691650390625">
        <ele>1658.800048828125</ele>
        <time>2020-10-24T08:25:51.000Z</time>
      </trkpt>
      <trkpt lat="42.166528142988681793212890625" lon="1.7521830461919307708740234375">
        <ele>1659.199951171875</ele>
        <time>2020-10-24T08:25:56.000Z</time>
      </trkpt>
      <trkpt lat="42.16654968447983264923095703125" lon="1.75213065929710865020751953125">
        <ele>1659.4000244140625</ele>
        <time>2020-10-24T08:25:59.000Z</time>
      </trkpt>
      <trkpt lat="42.16655421070754528045654296875" lon="1.7521106265485286712646484375">
        <ele>1659.4000244140625</ele>
        <time>2020-10-24T08:26:00.000Z</time>
      </trkpt>
      <trkpt lat="42.166570723056793212890625" lon="1.75201582722365856170654296875">
        <ele>1659.800048828125</ele>
        <time>2020-10-24T08:26:05.000Z</time>
      </trkpt>
      <trkpt lat="42.16658706776797771453857421875" lon="1.75194583833217620849609375">
        <ele>1660.199951171875</ele>
        <time>2020-10-24T08:26:09.000Z</time>
      </trkpt>
      <trkpt lat="42.16660081408917903900146484375" lon="1.75188171677291393280029296875">
        <ele>1660.5999755859375</ele>
        <time>2020-10-24T08:26:13.000Z</time>
      </trkpt>
      <trkpt lat="42.16660265810787677764892578125" lon="1.751838214695453643798828125">
        <ele>1660.800048828125</ele>
        <time>2020-10-24T08:26:15.000Z</time>
      </trkpt>
      <trkpt lat="42.1666027419269084930419921875" lon="1.751820780336856842041015625">
        <ele>1661</ele>
        <time>2020-10-24T08:26:16.000Z</time>
      </trkpt>
      <trkpt lat="42.16660735197365283966064453125" lon="1.751767136156558990478515625">
        <ele>1661.199951171875</ele>
        <time>2020-10-24T08:26:19.000Z</time>
      </trkpt>
      <trkpt lat="42.1666071005165576934814453125" lon="1.75170980393886566162109375">
        <ele>1661.5999755859375</ele>
        <time>2020-10-24T08:26:23.000Z</time>
      </trkpt>
      <trkpt lat="42.166602574288845062255859375" lon="1.75151844508945941925048828125">
        <ele>1662</ele>
        <time>2020-10-24T08:26:33.000Z</time>
      </trkpt>
      <trkpt lat="42.16659486293792724609375" lon="1.75145558081567287445068359375">
        <ele>1662.199951171875</ele>
        <time>2020-10-24T08:26:36.000Z</time>
      </trkpt>
      <trkpt lat="42.1666131354868412017822265625" lon="1.75128542818129062652587890625">
        <ele>1662.199951171875</ele>
        <time>2020-10-24T08:26:47.000Z</time>
      </trkpt>
      <trkpt lat="42.1666516922414302825927734375" lon="1.7511748708784580230712890625">
        <ele>1662.800048828125</ele>
        <time>2020-10-24T08:26:55.000Z</time>
      </trkpt>
      <trkpt lat="42.16665512882173061370849609375" lon="1.75113254226744174957275390625">
        <ele>1662.800048828125</ele>
        <time>2020-10-24T08:26:57.000Z</time>
      </trkpt>
      <trkpt lat="42.16670173220336437225341796875" lon="1.7510159499943256378173828125">
        <ele>1662.800048828125</ele>
        <time>2020-10-24T08:27:07.000Z</time>
      </trkpt>
      <trkpt lat="42.1667831204831600189208984375" lon="1.7508764751255512237548828125">
        <ele>1661.800048828125</ele>
        <time>2020-10-24T08:27:19.000Z</time>
      </trkpt>
      <trkpt lat="42.16686937026679515838623046875" lon="1.7507701925933361053466796875">
        <ele>1661.4000244140625</ele>
        <time>2020-10-24T08:27:28.000Z</time>
      </trkpt>
      <trkpt lat="42.16693156398832798004150390625" lon="1.75070942379534244537353515625">
        <ele>1661</ele>
        <time>2020-10-24T08:27:34.000Z</time>
      </trkpt>
      <trkpt lat="42.16694028116762638092041015625" lon="1.75069651566445827484130859375">
        <ele>1660.800048828125</ele>
        <time>2020-10-24T08:27:35.000Z</time>
      </trkpt>
      <trkpt lat="42.16696509160101413726806640625" lon="1.75065577961504459381103515625">
        <ele>1660.5999755859375</ele>
        <time>2020-10-24T08:27:38.000Z</time>
      </trkpt>
      <trkpt lat="42.16700934804975986480712890625" lon="1.75056047737598419189453125">
        <ele>1660.4000244140625</ele>
        <time>2020-10-24T08:27:46.000Z</time>
      </trkpt>
      <trkpt lat="42.1670146286487579345703125" lon="1.750553436577320098876953125">
        <ele>1660.4000244140625</ele>
        <time>2020-10-24T08:27:47.000Z</time>
      </trkpt>
      <trkpt lat="42.16704748570919036865234375" lon="1.75052301026880741119384765625">
        <ele>1659.800048828125</ele>
        <time>2020-10-24T08:27:51.000Z</time>
      </trkpt>
      <trkpt lat="42.16706818901002407073974609375" lon="1.7505021393299102783203125">
        <ele>1659.800048828125</ele>
        <time>2020-10-24T08:27:53.000Z</time>
      </trkpt>
      <trkpt lat="42.16714479960501194000244140625" lon="1.75041689537465572357177734375">
        <ele>1659.199951171875</ele>
        <time>2020-10-24T08:28:01.000Z</time>
      </trkpt>
      <trkpt lat="42.1671626530587673187255859375" lon="1.75039493478834629058837890625">
        <ele>1659</ele>
        <time>2020-10-24T08:28:03.000Z</time>
      </trkpt>
      <trkpt lat="42.167217470705509185791015625" lon="1.75035051070153713226318359375">
        <ele>1659.199951171875</ele>
        <time>2020-10-24T08:28:09.000Z</time>
      </trkpt>
      <trkpt lat="42.167337499558925628662109375" lon="1.75029887817800045013427734375">
        <ele>1659.4000244140625</ele>
        <time>2020-10-24T08:28:19.000Z</time>
      </trkpt>
      <trkpt lat="42.16744855977594852447509765625" lon="1.7502424679696559906005859375">
        <ele>1659.5999755859375</ele>
        <time>2020-10-24T08:28:29.000Z</time>
      </trkpt>
      <trkpt lat="42.16757512651383876800537109375" lon="1.75019175745546817779541015625">
        <ele>1660.199951171875</ele>
        <time>2020-10-24T08:28:38.000Z</time>
      </trkpt>
      <trkpt lat="42.167641930282115936279296875" lon="1.75009670667350292205810546875">
        <ele>1660</ele>
        <time>2020-10-24T08:28:45.000Z</time>
      </trkpt>
      <trkpt lat="42.16766112484037876129150390625" lon="1.7500704713165760040283203125">
        <ele>1659.800048828125</ele>
        <time>2020-10-24T08:28:47.000Z</time>
      </trkpt>
      <trkpt lat="42.16769649647176265716552734375" lon="1.75001791678369045257568359375">
        <ele>1659.5999755859375</ele>
        <time>2020-10-24T08:28:51.000Z</time>
      </trkpt>
      <trkpt lat="42.16775785200297832489013671875" lon="1.749938540160655975341796875">
        <ele>1659.5999755859375</ele>
        <time>2020-10-24T08:28:59.000Z</time>
      </trkpt>
      <trkpt lat="42.1677644737064838409423828125" lon="1.74993074499070644378662109375">
        <ele>1659.5999755859375</ele>
        <time>2020-10-24T08:29:00.000Z</time>
      </trkpt>
      <trkpt lat="42.16776992194354534149169921875" lon="1.7499232850968837738037109375">
        <ele>1659.5999755859375</ele>
        <time>2020-10-24T08:29:01.000Z</time>
      </trkpt>
      <trkpt lat="42.16779389418661594390869140625" lon="1.749894283711910247802734375">
        <ele>1659</ele>
        <time>2020-10-24T08:29:06.000Z</time>
      </trkpt>
      <trkpt lat="42.16780445538461208343505859375" lon="1.74987114965915679931640625">
        <ele>1659</ele>
        <time>2020-10-24T08:29:08.000Z</time>
      </trkpt>
      <trkpt lat="42.16781199909746646881103515625" lon="1.74985815770924091339111328125">
        <ele>1659</ele>
        <time>2020-10-24T08:29:09.000Z</time>
      </trkpt>
      <trkpt lat="42.16783446259796619415283203125" lon="1.7498216964304447174072265625">
        <ele>1659</ele>
        <time>2020-10-24T08:29:13.000Z</time>
      </trkpt>
      <trkpt lat="42.16783764772117137908935546875" lon="1.74981021322309970855712890625">
        <ele>1659</ele>
        <time>2020-10-24T08:29:14.000Z</time>
      </trkpt>
      <trkpt lat="42.167845107614994049072265625" lon="1.7498035915195941925048828125">
        <ele>1659</ele>
        <time>2020-10-24T08:29:15.000Z</time>
      </trkpt>
      <trkpt lat="42.167849801480770111083984375" lon="1.7497967183589935302734375">
        <ele>1659.199951171875</ele>
        <time>2020-10-24T08:29:16.000Z</time>
      </trkpt>
      <trkpt lat="42.1678555011749267578125" lon="1.7497720755636692047119140625">
        <ele>1659.199951171875</ele>
        <time>2020-10-24T08:29:18.000Z</time>
      </trkpt>
      <trkpt lat="42.16788659803569316864013671875" lon="1.74971918575465679168701171875">
        <ele>1659.199951171875</ele>
        <time>2020-10-24T08:29:23.000Z</time>
      </trkpt>
      <trkpt lat="42.16792364604771137237548828125" lon="1.749688424170017242431640625">
        <ele>1659.199951171875</ele>
        <time>2020-10-24T08:29:26.000Z</time>
      </trkpt>
      <trkpt lat="42.167941667139530181884765625" lon="1.749663613736629486083984375">
        <ele>1659.199951171875</ele>
        <time>2020-10-24T08:29:28.000Z</time>
      </trkpt>
      <trkpt lat="42.16797041706740856170654296875" lon="1.749563030898571014404296875">
        <ele>1659</ele>
        <time>2020-10-24T08:29:34.000Z</time>
      </trkpt>
      <trkpt lat="42.16797444038093090057373046875" lon="1.74953495152294635772705078125">
        <ele>1658.800048828125</ele>
        <time>2020-10-24T08:29:36.000Z</time>
      </trkpt>
      <trkpt lat="42.1679817326366901397705078125" lon="1.74952514469623565673828125">
        <ele>1658.800048828125</ele>
        <time>2020-10-24T08:29:37.000Z</time>
      </trkpt>
      <trkpt lat="42.167999334633350372314453125" lon="1.74947393126785755157470703125">
        <ele>1658.5999755859375</ele>
        <time>2020-10-24T08:29:41.000Z</time>
      </trkpt>
      <trkpt lat="42.16802515089511871337890625" lon="1.7494099773466587066650390625">
        <ele>1658.5999755859375</ele>
        <time>2020-10-24T08:29:48.000Z</time>
      </trkpt>
      <trkpt lat="42.16804451309144496917724609375" lon="1.74938525073230266571044921875">
        <ele>1658.5999755859375</ele>
        <time>2020-10-24T08:29:50.000Z</time>
      </trkpt>
      <trkpt lat="42.16807049699127674102783203125" lon="1.7493219673633575439453125">
        <ele>1658.5999755859375</ele>
        <time>2020-10-24T08:29:54.000Z</time>
      </trkpt>
      <trkpt lat="42.16807150281965732574462890625" lon="1.74930763430893421173095703125">
        <ele>1658.5999755859375</ele>
        <time>2020-10-24T08:29:55.000Z</time>
      </trkpt>
      <trkpt lat="42.16811089776456356048583984375" lon="1.7492054589092731475830078125">
        <ele>1658</ele>
        <time>2020-10-24T08:30:03.000Z</time>
      </trkpt>
      <trkpt lat="42.1681191958487033843994140625" lon="1.74919012002646923065185546875">
        <ele>1658</ele>
        <time>2020-10-24T08:30:04.000Z</time>
      </trkpt>
      <trkpt lat="42.16812095604836940765380859375" lon="1.7491690814495086669921875">
        <ele>1657.800048828125</ele>
        <time>2020-10-24T08:30:06.000Z</time>
      </trkpt>
      <trkpt lat="42.16812766157090663909912109375" lon="1.7491612024605274200439453125">
        <ele>1657.800048828125</ele>
        <time>2020-10-24T08:30:07.000Z</time>
      </trkpt>
      <trkpt lat="42.168146185576915740966796875" lon="1.7491410858929157257080078125">
        <ele>1657.199951171875</ele>
        <time>2020-10-24T08:30:10.000Z</time>
      </trkpt>
      <trkpt lat="42.16815498657524585723876953125" lon="1.74911074340343475341796875">
        <ele>1657.199951171875</ele>
        <time>2020-10-24T08:30:14.000Z</time>
      </trkpt>
      <trkpt lat="42.16815817169845104217529296875" lon="1.74910311587154865264892578125">
        <ele>1657.199951171875</ele>
        <time>2020-10-24T08:30:16.000Z</time>
      </trkpt>
      <trkpt lat="42.16815783642232418060302734375" lon="1.74908836372196674346923828125">
        <ele>1657.199951171875</ele>
        <time>2020-10-24T08:30:18.000Z</time>
      </trkpt>
      <trkpt lat="42.16815800406038761138916015625" lon="1.74907914362847805023193359375">
        <ele>1657.199951171875</ele>
        <time>2020-10-24T08:30:19.000Z</time>
      </trkpt>
      <trkpt lat="42.168165631592273712158203125" lon="1.749067492783069610595703125">
        <ele>1657.4000244140625</ele>
        <time>2020-10-24T08:30:21.000Z</time>
      </trkpt>
      <trkpt lat="42.16817912645637989044189453125" lon="1.749013848602771759033203125">
        <ele>1657.5999755859375</ele>
        <time>2020-10-24T08:30:25.000Z</time>
      </trkpt>
      <trkpt lat="42.168192453682422637939453125" lon="1.7489814944565296173095703125">
        <ele>1657.5999755859375</ele>
        <time>2020-10-24T08:30:27.000Z</time>
      </trkpt>
      <trkpt lat="42.16821558773517608642578125" lon="1.7489633895456790924072265625">
        <ele>1657.5999755859375</ele>
        <time>2020-10-24T08:30:30.000Z</time>
      </trkpt>
      <trkpt lat="42.1682227961719036102294921875" lon="1.7489513196051120758056640625">
        <ele>1657.800048828125</ele>
        <time>2020-10-24T08:30:31.000Z</time>
      </trkpt>
      <trkpt lat="42.1682653762400150299072265625" lon="1.7488668300211429595947265625">
        <ele>1658</ele>
        <time>2020-10-24T08:30:38.000Z</time>
      </trkpt>
      <trkpt lat="42.1682811342179775238037109375" lon="1.74884361214935779571533203125">
        <ele>1658</ele>
        <time>2020-10-24T08:30:40.000Z</time>
      </trkpt>
      <trkpt lat="42.16833016835153102874755859375" lon="1.74878795631229877471923828125">
        <ele>1658.5999755859375</ele>
        <time>2020-10-24T08:30:45.000Z</time>
      </trkpt>
      <trkpt lat="42.1683530509471893310546875" lon="1.74874621443450450897216796875">
        <ele>1658.800048828125</ele>
        <time>2020-10-24T08:30:48.000Z</time>
      </trkpt>
      <trkpt lat="42.16836235485970973968505859375" lon="1.74873397685587406158447265625">
        <ele>1658.800048828125</ele>
        <time>2020-10-24T08:30:49.000Z</time>
      </trkpt>
      <trkpt lat="42.16837509535253047943115234375" lon="1.74872743897140026092529296875">
        <ele>1658.800048828125</ele>
        <time>2020-10-24T08:30:50.000Z</time>
      </trkpt>
      <trkpt lat="42.16840141452848911285400390625" lon="1.74867446534335613250732421875">
        <ele>1658.800048828125</ele>
        <time>2020-10-24T08:30:54.000Z</time>
      </trkpt>
      <trkpt lat="42.16843678615987300872802734375" lon="1.7485825158655643463134765625">
        <ele>1658.4000244140625</ele>
        <time>2020-10-24T08:31:02.000Z</time>
      </trkpt>
      <trkpt lat="42.16844533570110797882080078125" lon="1.748553179204463958740234375">
        <ele>1658.199951171875</ele>
        <time>2020-10-24T08:31:05.000Z</time>
      </trkpt>
      <trkpt lat="42.16845455579459667205810546875" lon="1.74853901378810405731201171875">
        <ele>1658.199951171875</ele>
        <time>2020-10-24T08:31:07.000Z</time>
      </trkpt>
      <trkpt lat="42.168470062315464019775390625" lon="1.74852224998176097869873046875">
        <ele>1658.199951171875</ele>
        <time>2020-10-24T08:31:09.000Z</time>
      </trkpt>
      <trkpt lat="42.16853611171245574951171875" lon="1.74844513647258281707763671875">
        <ele>1657.800048828125</ele>
        <time>2020-10-24T08:31:20.000Z</time>
      </trkpt>
      <trkpt lat="42.1685443259775638580322265625" lon="1.74843356944620609283447265625">
        <ele>1657.800048828125</ele>
        <time>2020-10-24T08:31:21.000Z</time>
      </trkpt>
      <trkpt lat="42.1685515344142913818359375" lon="1.748420409858226776123046875">
        <ele>1657.800048828125</ele>
        <time>2020-10-24T08:31:23.000Z</time>
      </trkpt>
      <trkpt lat="42.16856419108808040618896484375" lon="1.74840272404253482818603515625">
        <ele>1657.800048828125</ele>
        <time>2020-10-24T08:31:26.000Z</time>
      </trkpt>
      <trkpt lat="42.16857642866671085357666015625" lon="1.74839501269161701202392578125">
        <ele>1657.800048828125</ele>
        <time>2020-10-24T08:31:27.000Z</time>
      </trkpt>
      <trkpt lat="42.16858916915953159332275390625" lon="1.74838562496006488800048828125">
        <ele>1657.800048828125</ele>
        <time>2020-10-24T08:31:28.000Z</time>
      </trkpt>
      <trkpt lat="42.16863862238824367523193359375" lon="1.7483349144458770751953125">
        <ele>1657.800048828125</ele>
        <time>2020-10-24T08:31:34.000Z</time>
      </trkpt>
      <trkpt lat="42.16869913972914218902587890625" lon="1.74831823445856571197509765625">
        <ele>1657.800048828125</ele>
        <time>2020-10-24T08:31:40.000Z</time>
      </trkpt>
      <trkpt lat="42.16870852746069431304931640625" lon="1.74831337295472621917724609375">
        <ele>1657.800048828125</ele>
        <time>2020-10-24T08:31:41.000Z</time>
      </trkpt>
      <trkpt lat="42.1687756665050983428955078125" lon="1.7483246885240077972412109375">
        <ele>1657.199951171875</ele>
        <time>2020-10-24T08:31:48.000Z</time>
      </trkpt>
      <trkpt lat="42.16880022548139095306396484375" lon="1.748330891132354736328125">
        <ele>1657</ele>
        <time>2020-10-24T08:31:51.000Z</time>
      </trkpt>
      <trkpt lat="42.16882201842963695526123046875" lon="1.7483401112258434295654296875">
        <ele>1656.800048828125</ele>
        <time>2020-10-24T08:31:53.000Z</time>
      </trkpt>
      <trkpt lat="42.16883576475083827972412109375" lon="1.7483434639871120452880859375">
        <ele>1656.4000244140625</ele>
        <time>2020-10-24T08:31:54.000Z</time>
      </trkpt>
      <trkpt lat="42.168847583234310150146484375" lon="1.748347319662570953369140625">
        <ele>1656.199951171875</ele>
        <time>2020-10-24T08:31:55.000Z</time>
      </trkpt>
      <trkpt lat="42.1689027361571788787841796875" lon="1.74837422557175159454345703125">
        <ele>1655.800048828125</ele>
        <time>2020-10-24T08:31:59.000Z</time>
      </trkpt>
      <trkpt lat="42.1689189970493316650390625" lon="1.74838009290397167205810546875">
        <ele>1655.5999755859375</ele>
        <time>2020-10-24T08:32:00.000Z</time>
      </trkpt>
      <trkpt lat="42.169005833566188812255859375" lon="1.74836416728794574737548828125">
        <ele>1655.800048828125</ele>
        <time>2020-10-24T08:32:09.000Z</time>
      </trkpt>
      <trkpt lat="42.16901195235550403594970703125" lon="1.7483619041740894317626953125">
        <ele>1655.800048828125</ele>
        <time>2020-10-24T08:32:10.000Z</time>
      </trkpt>
      <trkpt lat="42.16902972199022769927978515625" lon="1.7483635805547237396240234375">
        <ele>1655.800048828125</ele>
        <time>2020-10-24T08:32:13.000Z</time>
      </trkpt>
      <trkpt lat="42.16903290711343288421630859375" lon="1.74836383201181888580322265625">
        <ele>1655.800048828125</ele>
        <time>2020-10-24T08:32:14.000Z</time>
      </trkpt>
      <trkpt lat="42.16904128901660442352294921875" lon="1.74836433492600917816162109375">
        <ele>1655.800048828125</ele>
        <time>2020-10-24T08:32:15.000Z</time>
      </trkpt>
      <trkpt lat="42.1690477430820465087890625" lon="1.748348660767078399658203125">
        <ele>1655.800048828125</ele>
        <time>2020-10-24T08:32:18.000Z</time>
      </trkpt>
      <trkpt lat="42.16905646026134490966796875" lon="1.74832795746624469757080078125">
        <ele>1655.800048828125</ele>
        <time>2020-10-24T08:32:20.000Z</time>
      </trkpt>
      <trkpt lat="42.16907121241092681884765625" lon="1.74832326360046863555908203125">
        <ele>1656</ele>
        <time>2020-10-24T08:32:21.000Z</time>
      </trkpt>
      <trkpt lat="42.169137261807918548583984375" lon="1.74831010401248931884765625">
        <ele>1656</ele>
        <time>2020-10-24T08:32:27.000Z</time>
      </trkpt>
      <trkpt lat="42.16919417493045330047607421875" lon="1.74827045761048793792724609375">
        <ele>1656.5999755859375</ele>
        <time>2020-10-24T08:32:34.000Z</time>
      </trkpt>
      <trkpt lat="42.16922183521091938018798828125" lon="1.74825520254671573638916015625">
        <ele>1656.800048828125</ele>
        <time>2020-10-24T08:32:38.000Z</time>
      </trkpt>
      <trkpt lat="42.16923122294247150421142578125" lon="1.74825654365122318267822265625">
        <ele>1656.800048828125</ele>
        <time>2020-10-24T08:32:39.000Z</time>
      </trkpt>
      <trkpt lat="42.16925561428070068359375" lon="1.748263500630855560302734375">
        <ele>1656.800048828125</ele>
        <time>2020-10-24T08:32:41.000Z</time>
      </trkpt>
      <trkpt lat="42.16933499090373516082763671875" lon="1.748263835906982421875">
        <ele>1657</ele>
        <time>2020-10-24T08:32:47.000Z</time>
      </trkpt>
      <trkpt lat="42.1693454682826995849609375" lon="1.748260818421840667724609375">
        <ele>1657.199951171875</ele>
        <time>2020-10-24T08:32:48.000Z</time>
      </trkpt>
      <trkpt lat="42.16935477219521999359130859375" lon="1.7482589744031429290771484375">
        <ele>1657.199951171875</ele>
        <time>2020-10-24T08:32:49.000Z</time>
      </trkpt>
      <trkpt lat="42.16944060288369655609130859375" lon="1.7482656799256801605224609375">
        <ele>1656.199951171875</ele>
        <time>2020-10-24T08:32:56.000Z</time>
      </trkpt>
      <trkpt lat="42.16949164867401123046875" lon="1.7482629977166652679443359375">
        <ele>1655.800048828125</ele>
        <time>2020-10-24T08:33:00.000Z</time>
      </trkpt>
      <trkpt lat="42.1695721149444580078125" lon="1.74825855530798435211181640625">
        <ele>1655.4000244140625</ele>
        <time>2020-10-24T08:33:05.000Z</time>
      </trkpt>
      <trkpt lat="42.16966909356415271759033203125" lon="1.74825754947960376739501953125">
        <ele>1655.199951171875</ele>
        <time>2020-10-24T08:33:12.000Z</time>
      </trkpt>
      <trkpt lat="42.16975509189069271087646484375" lon="1.74822905100882053375244140625">
        <ele>1655.4000244140625</ele>
        <time>2020-10-24T08:33:20.000Z</time>
      </trkpt>
      <trkpt lat="42.16986623592674732208251953125" lon="1.74818680621683597564697265625">
        <ele>1656</ele>
        <time>2020-10-24T08:33:30.000Z</time>
      </trkpt>
      <trkpt lat="42.169948630034923553466796875" lon="1.7481563799083232879638671875">
        <ele>1656.4000244140625</ele>
        <time>2020-10-24T08:33:36.000Z</time>
      </trkpt>
      <trkpt lat="42.17004292644560337066650390625" lon="1.74810684286057949066162109375">
        <ele>1656</ele>
        <time>2020-10-24T08:33:45.000Z</time>
      </trkpt>
      <trkpt lat="42.17010444961488246917724609375" lon="1.7480792663991451263427734375">
        <ele>1655.4000244140625</ele>
        <time>2020-10-24T08:33:51.000Z</time>
      </trkpt>
      <trkpt lat="42.1701258234679698944091796875" lon="1.7480735667049884796142578125">
        <ele>1655</ele>
        <time>2020-10-24T08:33:53.000Z</time>
      </trkpt>
      <trkpt lat="42.17014904133975505828857421875" lon="1.7480608262121677398681640625">
        <ele>1654.800048828125</ele>
        <time>2020-10-24T08:33:55.000Z</time>
      </trkpt>
      <trkpt lat="42.17016412876546382904052734375" lon="1.74805395305156707763671875">
        <ele>1654.5999755859375</ele>
        <time>2020-10-24T08:33:57.000Z</time>
      </trkpt>
      <trkpt lat="42.17018969357013702392578125" lon="1.7480266280472278594970703125">
        <ele>1654.199951171875</ele>
        <time>2020-10-24T08:34:00.000Z</time>
      </trkpt>
      <trkpt lat="42.1701985783874988555908203125" lon="1.74802034161984920501708984375">
        <ele>1654.199951171875</ele>
        <time>2020-10-24T08:34:01.000Z</time>
      </trkpt>
      <trkpt lat="42.1702123247087001800537109375" lon="1.7480023205280303955078125">
        <ele>1654</ele>
        <time>2020-10-24T08:34:03.000Z</time>
      </trkpt>
      <trkpt lat="42.1702240593731403350830078125" lon="1.7479803599417209625244140625">
        <ele>1653.800048828125</ele>
        <time>2020-10-24T08:34:05.000Z</time>
      </trkpt>
      <trkpt lat="42.1702466905117034912109375" lon="1.7479459941387176513671875">
        <ele>1653.800048828125</ele>
        <time>2020-10-24T08:34:09.000Z</time>
      </trkpt>
      <trkpt lat="42.17031131498515605926513671875" lon="1.74792143516242504119873046875">
        <ele>1653.800048828125</ele>
        <time>2020-10-24T08:34:15.000Z</time>
      </trkpt>
      <trkpt lat="42.17032036744058132171630859375" lon="1.74791523255407810211181640625">
        <ele>1653.800048828125</ele>
        <time>2020-10-24T08:34:16.000Z</time>
      </trkpt>
      <trkpt lat="42.17032556422054767608642578125" lon="1.74791204743087291717529296875">
        <ele>1653.5999755859375</ele>
        <time>2020-10-24T08:34:17.000Z</time>
      </trkpt>
      <trkpt lat="42.1703531406819820404052734375" lon="1.74789377488195896148681640625">
        <ele>1653.5999755859375</ele>
        <time>2020-10-24T08:34:21.000Z</time>
      </trkpt>
      <trkpt lat="42.17041189782321453094482421875" lon="1.74784750677645206451416015625">
        <ele>1653.4000244140625</ele>
        <time>2020-10-24T08:34:28.000Z</time>
      </trkpt>
      <trkpt lat="42.1704500354826450347900390625" lon="1.74781523644924163818359375">
        <ele>1653.199951171875</ele>
        <time>2020-10-24T08:34:32.000Z</time>
      </trkpt>
      <trkpt lat="42.17045749537646770477294921875" lon="1.74780911765992641448974609375">
        <ele>1653.199951171875</ele>
        <time>2020-10-24T08:34:33.000Z</time>
      </trkpt>
      <trkpt lat="42.17047694139182567596435546875" lon="1.7477931082248687744140625">
        <ele>1653.199951171875</ele>
        <time>2020-10-24T08:34:35.000Z</time>
      </trkpt>
      <trkpt lat="42.17049554921686649322509765625" lon="1.74775731749832630157470703125">
        <ele>1653.199951171875</ele>
        <time>2020-10-24T08:34:38.000Z</time>
      </trkpt>
      <trkpt lat="42.17052538879215717315673828125" lon="1.7477206885814666748046875">
        <ele>1653</ele>
        <time>2020-10-24T08:34:42.000Z</time>
      </trkpt>
      <trkpt lat="42.17057886533439159393310546875" lon="1.74766813404858112335205078125">
        <ele>1652.5999755859375</ele>
        <time>2020-10-24T08:34:48.000Z</time>
      </trkpt>
      <trkpt lat="42.17059462331235408782958984375" lon="1.74765765666961669921875">
        <ele>1652.5999755859375</ele>
        <time>2020-10-24T08:34:49.000Z</time>
      </trkpt>
      <trkpt lat="42.17064659111201763153076171875" lon="1.74758330918848514556884765625">
        <ele>1652.199951171875</ele>
        <time>2020-10-24T08:34:54.000Z</time>
      </trkpt>
      <trkpt lat="42.1706569008529186248779296875" lon="1.747570149600505828857421875">
        <ele>1652.199951171875</ele>
        <time>2020-10-24T08:34:55.000Z</time>
      </trkpt>
      <trkpt lat="42.1706840582191944122314453125" lon="1.74746118485927581787109375">
        <ele>1651.800048828125</ele>
        <time>2020-10-24T08:35:01.000Z</time>
      </trkpt>
      <trkpt lat="42.17069939710199832916259765625" lon="1.7474318481981754302978515625">
        <ele>1651.800048828125</ele>
        <time>2020-10-24T08:35:03.000Z</time>
      </trkpt>
      <trkpt lat="42.17077818699181079864501953125" lon="1.7473503760993480682373046875">
        <ele>1652.199951171875</ele>
        <time>2020-10-24T08:35:13.000Z</time>
      </trkpt>
      <trkpt lat="42.17079277150332927703857421875" lon="1.7473356239497661590576171875">
        <ele>1652.4000244140625</ele>
        <time>2020-10-24T08:35:15.000Z</time>
      </trkpt>
      <trkpt lat="42.1708057634532451629638671875" lon="1.7473198659718036651611328125">
        <ele>1652.5999755859375</ele>
        <time>2020-10-24T08:35:18.000Z</time>
      </trkpt>
      <trkpt lat="42.17086837626993656158447265625" lon="1.74725658260285854339599609375">
        <ele>1652.800048828125</ele>
        <time>2020-10-24T08:35:26.000Z</time>
      </trkpt>
      <trkpt lat="42.17088438570499420166015625" lon="1.74724769778549671173095703125">
        <ele>1653</ele>
        <time>2020-10-24T08:35:27.000Z</time>
      </trkpt>
      <trkpt lat="42.17092738486826419830322265625" lon="1.7472233064472675323486328125">
        <ele>1653.199951171875</ele>
        <time>2020-10-24T08:35:31.000Z</time>
      </trkpt>
      <trkpt lat="42.17097348533570766448974609375" lon="1.74717687070369720458984375">
        <ele>1653.4000244140625</ele>
        <time>2020-10-24T08:35:36.000Z</time>
      </trkpt>
      <trkpt lat="42.17099703848361968994140625" lon="1.74715734086930751800537109375">
        <ele>1653.5999755859375</ele>
        <time>2020-10-24T08:35:39.000Z</time>
      </trkpt>
      <trkpt lat="42.171004749834537506103515625" lon="1.74715273082256317138671875">
        <ele>1653.800048828125</ele>
        <time>2020-10-24T08:35:40.000Z</time>
      </trkpt>
      <trkpt lat="42.171083204448223114013671875" lon="1.74710822291672229766845703125">
        <ele>1654</ele>
        <time>2020-10-24T08:35:48.000Z</time>
      </trkpt>
      <trkpt lat="42.1710930950939655303955078125" lon="1.74710503779351711273193359375">
        <ele>1654</ele>
        <time>2020-10-24T08:35:49.000Z</time>
      </trkpt>
      <trkpt lat="42.17113425023853778839111328125" lon="1.74708575941622257232666015625">
        <ele>1653.5999755859375</ele>
        <time>2020-10-24T08:35:54.000Z</time>
      </trkpt>
      <trkpt lat="42.171160317957401275634765625" lon="1.74706363119184970855712890625">
        <ele>1653.4000244140625</ele>
        <time>2020-10-24T08:35:57.000Z</time>
      </trkpt>
      <trkpt lat="42.17118387110531330108642578125" lon="1.7470449395477771759033203125">
        <ele>1653.199951171875</ele>
        <time>2020-10-24T08:35:59.000Z</time>
      </trkpt>
      <trkpt lat="42.1712096035480499267578125" lon="1.7470264993607997894287109375">
        <ele>1653</ele>
        <time>2020-10-24T08:36:01.000Z</time>
      </trkpt>
      <trkpt lat="42.1712471544742584228515625" lon="1.746988780796527862548828125">
        <ele>1653</ele>
        <time>2020-10-24T08:36:05.000Z</time>
      </trkpt>
      <trkpt lat="42.171266935765743255615234375" lon="1.74697813577950000762939453125">
        <ele>1653</ele>
        <time>2020-10-24T08:36:07.000Z</time>
      </trkpt>
      <trkpt lat="42.1713053248822689056396484375" lon="1.7469607852399349212646484375">
        <ele>1652.800048828125</ele>
        <time>2020-10-24T08:36:13.000Z</time>
      </trkpt>
      <trkpt lat="42.1713039837777614593505859375" lon="1.746957264840602874755859375">
        <ele>1652.800048828125</ele>
        <time>2020-10-24T08:36:14.000Z</time>
      </trkpt>
      <trkpt lat="42.17131462879478931427001953125" lon="1.746951229870319366455078125">
        <ele>1652.800048828125</ele>
        <time>2020-10-24T08:36:16.000Z</time>
      </trkpt>
      <trkpt lat="42.171333320438861846923828125" lon="1.746955923736095428466796875">
        <ele>1652.800048828125</ele>
        <time>2020-10-24T08:36:18.000Z</time>
      </trkpt>
      <trkpt lat="42.171361483633518218994140625" lon="1.74695801921188831329345703125">
        <ele>1652.800048828125</ele>
        <time>2020-10-24T08:36:21.000Z</time>
      </trkpt>
      <trkpt lat="42.17136592604219913482666015625" lon="1.74695416353642940521240234375">
        <ele>1652.800048828125</ele>
        <time>2020-10-24T08:36:22.000Z</time>
      </trkpt>
      <trkpt lat="42.17137799598276615142822265625" lon="1.74693287350237369537353515625">
        <ele>1652.800048828125</ele>
        <time>2020-10-24T08:36:26.000Z</time>
      </trkpt>
      <trkpt lat="42.1713827736675739288330078125" lon="1.746924407780170440673828125">
        <ele>1652.800048828125</ele>
        <time>2020-10-24T08:36:27.000Z</time>
      </trkpt>
      <trkpt lat="42.17142309062182903289794921875" lon="1.74688342027366161346435546875">
        <ele>1652.800048828125</ele>
        <time>2020-10-24T08:36:31.000Z</time>
      </trkpt>
      <trkpt lat="42.17146516777575016021728515625" lon="1.746824495494365692138671875">
        <ele>1653</ele>
        <time>2020-10-24T08:36:35.000Z</time>
      </trkpt>
      <trkpt lat="42.1714893914759159088134765625" lon="1.74681100063025951385498046875">
        <ele>1653</ele>
        <time>2020-10-24T08:36:37.000Z</time>
      </trkpt>
      <trkpt lat="42.1715125255286693572998046875" lon="1.74679842777550220489501953125">
        <ele>1653.199951171875</ele>
        <time>2020-10-24T08:36:39.000Z</time>
      </trkpt>
      <trkpt lat="42.1715229190886020660400390625" lon="1.7467899620532989501953125">
        <ele>1653.4000244140625</ele>
        <time>2020-10-24T08:36:40.000Z</time>
      </trkpt>
      <trkpt lat="42.17162190936505794525146484375" lon="1.74670538865029811859130859375">
        <ele>1654.4000244140625</ele>
        <time>2020-10-24T08:36:50.000Z</time>
      </trkpt>
      <trkpt lat="42.17166281305253505706787109375" lon="1.7466719448566436767578125">
        <ele>1654.800048828125</ele>
        <time>2020-10-24T08:36:54.000Z</time>
      </trkpt>
      <trkpt lat="42.17168929986655712127685546875" lon="1.74665409140288829803466796875">
        <ele>1655</ele>
        <time>2020-10-24T08:36:57.000Z</time>
      </trkpt>
      <trkpt lat="42.17176993377506732940673828125" lon="1.74662726931273937225341796875">
        <ele>1655.800048828125</ele>
        <time>2020-10-24T08:37:05.000Z</time>
      </trkpt>
      <trkpt lat="42.17177865095436573028564453125" lon="1.74662190489470958709716796875">
        <ele>1656</ele>
        <time>2020-10-24T08:37:06.000Z</time>
      </trkpt>
      <trkpt lat="42.17188074253499507904052734375" lon="1.74658670090138912200927734375">
        <ele>1656.800048828125</ele>
        <time>2020-10-24T08:37:15.000Z</time>
      </trkpt>
      <trkpt lat="42.17193103395402431488037109375" lon="1.74659256823360919952392578125">
        <ele>1657</ele>
        <time>2020-10-24T08:37:19.000Z</time>
      </trkpt>
      <trkpt lat="42.1719644777476787567138671875" lon="1.7465973459184169769287109375">
        <ele>1657.199951171875</ele>
        <time>2020-10-24T08:37:22.000Z</time>
      </trkpt>
      <trkpt lat="42.171988785266876220703125" lon="1.7465946637094020843505859375">
        <ele>1657.199951171875</ele>
        <time>2020-10-24T08:37:24.000Z</time>
      </trkpt>
      <trkpt lat="42.17207486741244792938232421875" lon="1.746576391160488128662109375">
        <ele>1657</ele>
        <time>2020-10-24T08:37:33.000Z</time>
      </trkpt>
      <trkpt lat="42.1721693314611911773681640625" lon="1.74650439061224460601806640625">
        <ele>1656.199951171875</ele>
        <time>2020-10-24T08:37:42.000Z</time>
      </trkpt>
      <trkpt lat="42.17219439335167407989501953125" lon="1.74647589214146137237548828125">
        <ele>1655.800048828125</ele>
        <time>2020-10-24T08:37:45.000Z</time>
      </trkpt>
      <trkpt lat="42.17220579273998737335205078125" lon="1.74645611084997653961181640625">
        <ele>1655.5999755859375</ele>
        <time>2020-10-24T08:37:47.000Z</time>
      </trkpt>
      <trkpt lat="42.1722114086151123046875" lon="1.7464437894523143768310546875">
        <ele>1655.4000244140625</ele>
        <time>2020-10-24T08:37:48.000Z</time>
      </trkpt>
      <trkpt lat="42.17223160900175571441650390625" lon="1.74642744474112987518310546875">
        <ele>1655.4000244140625</ele>
        <time>2020-10-24T08:37:50.000Z</time>
      </trkpt>
      <trkpt lat="42.1722444333136081695556640625" lon="1.74642308615148067474365234375">
        <ele>1655.5999755859375</ele>
        <time>2020-10-24T08:37:51.000Z</time>
      </trkpt>
      <trkpt lat="42.17225365340709686279296875" lon="1.74642358906567096710205078125">
        <ele>1655.5999755859375</ele>
        <time>2020-10-24T08:37:52.000Z</time>
      </trkpt>
      <trkpt lat="42.172262370586395263671875" lon="1.7463941685855388641357421875">
        <ele>1655.4000244140625</ele>
        <time>2020-10-24T08:37:55.000Z</time>
      </trkpt>
      <trkpt lat="42.17228659428656101226806640625" lon="1.74636340700089931488037109375">
        <ele>1655.199951171875</ele>
        <time>2020-10-24T08:37:58.000Z</time>
      </trkpt>
      <trkpt lat="42.17231811024248600006103515625" lon="1.74633826129138469696044921875">
        <ele>1655.199951171875</ele>
        <time>2020-10-24T08:38:01.000Z</time>
      </trkpt>
      <trkpt lat="42.172340489923954010009765625" lon="1.7463220842182636260986328125">
        <ele>1655.199951171875</ele>
        <time>2020-10-24T08:38:03.000Z</time>
      </trkpt>
      <trkpt lat="42.17235029675066471099853515625" lon="1.74631445668637752532958984375">
        <ele>1655</ele>
        <time>2020-10-24T08:38:04.000Z</time>
      </trkpt>
      <trkpt lat="42.172427661716938018798828125" lon="1.74626802094280719757080078125">
        <ele>1654.800048828125</ele>
        <time>2020-10-24T08:38:13.000Z</time>
      </trkpt>
      <trkpt lat="42.17244031839072704315185546875" lon="1.746265590190887451171875">
        <ele>1654.5999755859375</ele>
        <time>2020-10-24T08:38:14.000Z</time>
      </trkpt>
      <trkpt lat="42.17254509218037128448486328125" lon="1.7461779154837131500244140625">
        <ele>1653.800048828125</ele>
        <time>2020-10-24T08:38:25.000Z</time>
      </trkpt>
      <trkpt lat="42.17255414463579654693603515625" lon="1.74616659991443157196044921875">
        <ele>1653.800048828125</ele>
        <time>2020-10-24T08:38:26.000Z</time>
      </trkpt>
      <trkpt lat="42.17259228229522705078125" lon="1.74610935151576995849609375">
        <ele>1653.199951171875</ele>
        <time>2020-10-24T08:38:32.000Z</time>
      </trkpt>
      <trkpt lat="42.1725991554558277130126953125" lon="1.74610256217420101165771484375">
        <ele>1653</ele>
        <time>2020-10-24T08:38:33.000Z</time>
      </trkpt>
      <trkpt lat="42.1726296655833721160888671875" lon="1.74607180058956146240234375">
        <ele>1652.5999755859375</ele>
        <time>2020-10-24T08:38:37.000Z</time>
      </trkpt>
      <trkpt lat="42.17266763560473918914794921875" lon="1.74603114835917949676513671875">
        <ele>1651.800048828125</ele>
        <time>2020-10-24T08:38:42.000Z</time>
      </trkpt>
      <trkpt lat="42.17267283238470554351806640625" lon="1.74602813087403774261474609375">
        <ele>1651.800048828125</ele>
        <time>2020-10-24T08:38:43.000Z</time>
      </trkpt>
      <trkpt lat="42.17268657870590686798095703125" lon="1.74602259881794452667236328125">
        <ele>1651.5999755859375</ele>
        <time>2020-10-24T08:38:45.000Z</time>
      </trkpt>
      <trkpt lat="42.17270652763545513153076171875" lon="1.7460008896887302398681640625">
        <ele>1651.199951171875</ele>
        <time>2020-10-24T08:38:48.000Z</time>
      </trkpt>
      <trkpt lat="42.1727433241903781890869140625" lon="1.74597113393247127532958984375">
        <ele>1650.5999755859375</ele>
        <time>2020-10-24T08:38:52.000Z</time>
      </trkpt>
      <trkpt lat="42.172810547053813934326171875" lon="1.745916567742824554443359375">
        <ele>1649.4000244140625</ele>
        <time>2020-10-24T08:39:00.000Z</time>
      </trkpt>
      <trkpt lat="42.17282873578369617462158203125" lon="1.74589452333748340606689453125">
        <ele>1649.199951171875</ele>
        <time>2020-10-24T08:39:02.000Z</time>
      </trkpt>
      <trkpt lat="42.17284239828586578369140625" lon="1.74586434848606586456298828125">
        <ele>1648.800048828125</ele>
        <time>2020-10-24T08:39:04.000Z</time>
      </trkpt>
      <trkpt lat="42.17284650541841983795166015625" lon="1.74584842287003993988037109375">
        <ele>1648.5999755859375</ele>
        <time>2020-10-24T08:39:05.000Z</time>
      </trkpt>
      <trkpt lat="42.172863520681858062744140625" lon="1.74582746811211109161376953125">
        <ele>1648.4000244140625</ele>
        <time>2020-10-24T08:39:07.000Z</time>
      </trkpt>
      <trkpt lat="42.17291138134896755218505859375" lon="1.7457843013107776641845703125">
        <ele>1647.800048828125</ele>
        <time>2020-10-24T08:39:12.000Z</time>
      </trkpt>
      <trkpt lat="42.1729206852614879608154296875" lon="1.74577566795051097869873046875">
        <ele>1647.5999755859375</ele>
        <time>2020-10-24T08:39:13.000Z</time>
      </trkpt>
      <trkpt lat="42.17293367721140384674072265625" lon="1.74575940705835819244384765625">
        <ele>1647.199951171875</ele>
        <time>2020-10-24T08:39:15.000Z</time>
      </trkpt>
      <trkpt lat="42.172958739101886749267578125" lon="1.745743565261363983154296875">
        <ele>1647</ele>
        <time>2020-10-24T08:39:19.000Z</time>
      </trkpt>
      <trkpt lat="42.1729773469269275665283203125" lon="1.74572789110243320465087890625">
        <ele>1647</ele>
        <time>2020-10-24T08:39:22.000Z</time>
      </trkpt>
      <trkpt lat="42.17300911433994770050048828125" lon="1.745706014335155487060546875">
        <ele>1646.5999755859375</ele>
        <time>2020-10-24T08:39:26.000Z</time>
      </trkpt>
      <trkpt lat="42.17302034609019756317138671875" lon="1.74570500850677490234375">
        <ele>1646.5999755859375</ele>
        <time>2020-10-24T08:39:27.000Z</time>
      </trkpt>
      <trkpt lat="42.17304549179971218109130859375" lon="1.74569629132747650146484375">
        <ele>1646.4000244140625</ele>
        <time>2020-10-24T08:39:30.000Z</time>
      </trkpt>
      <trkpt lat="42.1730551309883594512939453125" lon="1.74569897353649139404296875">
        <ele>1646.4000244140625</ele>
        <time>2020-10-24T08:39:31.000Z</time>
      </trkpt>
      <trkpt lat="42.17309460975229740142822265625" lon="1.74571230076253414154052734375">
        <ele>1646.199951171875</ele>
        <time>2020-10-24T08:39:34.000Z</time>
      </trkpt>
      <trkpt lat="42.1731496788561344146728515625" lon="1.74570056609809398651123046875">
        <ele>1645.5999755859375</ele>
        <time>2020-10-24T08:39:40.000Z</time>
      </trkpt>
      <trkpt lat="42.1731580607593059539794921875" lon="1.745699979364871978759765625">
        <ele>1645.5999755859375</ele>
        <time>2020-10-24T08:39:41.000Z</time>
      </trkpt>
      <trkpt lat="42.17317993752658367156982421875" lon="1.74570391885936260223388671875">
        <ele>1645.199951171875</ele>
        <time>2020-10-24T08:39:45.000Z</time>
      </trkpt>
      <trkpt lat="42.17318731360137462615966796875" lon="1.74570878036320209503173828125">
        <ele>1645.199951171875</ele>
        <time>2020-10-24T08:39:46.000Z</time>
      </trkpt>
      <trkpt lat="42.1732586435973644256591796875" lon="1.745721437036991119384765625">
        <ele>1644.199951171875</ele>
        <time>2020-10-24T08:39:54.000Z</time>
      </trkpt>
      <trkpt lat="42.1733109466731548309326171875" lon="1.74569427967071533203125">
        <ele>1643</ele>
        <time>2020-10-24T08:40:00.000Z</time>
      </trkpt>
      <trkpt lat="42.1733481623232364654541015625" lon="1.74569671042263507843017578125">
        <ele>1642.4000244140625</ele>
        <time>2020-10-24T08:40:04.000Z</time>
      </trkpt>
      <trkpt lat="42.173360399901866912841796875" lon="1.74570106901228427886962890625">
        <ele>1642.199951171875</ele>
        <time>2020-10-24T08:40:05.000Z</time>
      </trkpt>
      <trkpt lat="42.17337104491889476776123046875" lon="1.7457065172493457794189453125">
        <ele>1642</ele>
        <time>2020-10-24T08:40:06.000Z</time>
      </trkpt>
      <trkpt lat="42.17345670796930789947509765625" lon="1.7457356862723827362060546875">
        <ele>1641.4000244140625</ele>
        <time>2020-10-24T08:40:13.000Z</time>
      </trkpt>
      <trkpt lat="42.1735037304461002349853515625" lon="1.74577566795051097869873046875">
        <ele>1641.199951171875</ele>
        <time>2020-10-24T08:40:18.000Z</time>
      </trkpt>
      <trkpt lat="42.173519991338253021240234375" lon="1.7457987181842327117919921875">
        <ele>1641</ele>
        <time>2020-10-24T08:40:21.000Z</time>
      </trkpt>
      <trkpt lat="42.1735278703272342681884765625" lon="1.7458060942590236663818359375">
        <ele>1641</ele>
        <time>2020-10-24T08:40:22.000Z</time>
      </trkpt>
      <trkpt lat="42.17356617562472820281982421875" lon="1.74584523774683475494384765625">
        <ele>1640.800048828125</ele>
        <time>2020-10-24T08:40:26.000Z</time>
      </trkpt>
      <trkpt lat="42.17358528636395931243896484375" lon="1.745866946876049041748046875">
        <ele>1640.5999755859375</ele>
        <time>2020-10-24T08:40:28.000Z</time>
      </trkpt>
      <trkpt lat="42.17365183867514133453369140625" lon="1.74592553637921810150146484375">
        <ele>1640</ele>
        <time>2020-10-24T08:40:34.000Z</time>
      </trkpt>
      <trkpt lat="42.17367061413824558258056640625" lon="1.74595177173614501953125">
        <ele>1639.800048828125</ele>
        <time>2020-10-24T08:40:36.000Z</time>
      </trkpt>
      <trkpt lat="42.17368084006011486053466796875" lon="1.74596124328672885894775390625">
        <ele>1639.800048828125</ele>
        <time>2020-10-24T08:40:37.000Z</time>
      </trkpt>
      <trkpt lat="42.1737246774137020111083984375" lon="1.74600717611610889434814453125">
        <ele>1639.4000244140625</ele>
        <time>2020-10-24T08:40:42.000Z</time>
      </trkpt>
      <trkpt lat="42.17373582534492015838623046875" lon="1.74601547420024871826171875">
        <ele>1639.4000244140625</ele>
        <time>2020-10-24T08:40:43.000Z</time>
      </trkpt>
      <trkpt lat="42.1738433651626110076904296875" lon="1.7460657656192779541015625">
        <ele>1639.5999755859375</ele>
        <time>2020-10-24T08:40:50.000Z</time>
      </trkpt>
      <trkpt lat="42.17389541678130626678466796875" lon="1.74604070372879505157470703125">
        <ele>1639.800048828125</ele>
        <time>2020-10-24T08:40:55.000Z</time>
      </trkpt>
      <trkpt lat="42.17394302599132061004638671875" lon="1.7460300587117671966552734375">
        <ele>1640</ele>
        <time>2020-10-24T08:41:00.000Z</time>
      </trkpt>
      <trkpt lat="42.1740659885108470916748046875" lon="1.74596727825701236724853515625">
        <ele>1640.199951171875</ele>
        <time>2020-10-24T08:41:11.000Z</time>
      </trkpt>
      <trkpt lat="42.17407227493822574615478515625" lon="1.7459603212773799896240234375">
        <ele>1640.199951171875</ele>
        <time>2020-10-24T08:41:12.000Z</time>
      </trkpt>
      <trkpt lat="42.174108736217021942138671875" lon="1.74590005539357662200927734375">
        <ele>1640.199951171875</ele>
        <time>2020-10-24T08:41:17.000Z</time>
      </trkpt>
      <trkpt lat="42.17416330240666866302490234375" lon="1.74584423191845417022705078125">
        <ele>1639.800048828125</ele>
        <time>2020-10-24T08:41:23.000Z</time>
      </trkpt>
      <trkpt lat="42.17423471622169017791748046875" lon="1.745754964649677276611328125">
        <ele>1639</ele>
        <time>2020-10-24T08:41:31.000Z</time>
      </trkpt>
      <trkpt lat="42.174240835011005401611328125" lon="1.74574113450944423675537109375">
        <ele>1639</ele>
        <time>2020-10-24T08:41:32.000Z</time>
      </trkpt>
      <trkpt lat="42.17428232543170452117919921875" lon="1.74567609094083309173583984375">
        <ele>1638.199951171875</ele>
        <time>2020-10-24T08:41:38.000Z</time>
      </trkpt>
      <trkpt lat="42.1742909587919712066650390625" lon="1.74564725719392299652099609375">
        <ele>1637.800048828125</ele>
        <time>2020-10-24T08:41:40.000Z</time>
      </trkpt>
      <trkpt lat="42.174327336251735687255859375" lon="1.74558690749108791351318359375">
        <ele>1637.199951171875</ele>
        <time>2020-10-24T08:41:45.000Z</time>
      </trkpt>
      <trkpt lat="42.174340747296810150146484375" lon="1.7455670423805713653564453125">
        <ele>1636.800048828125</ele>
        <time>2020-10-24T08:41:47.000Z</time>
      </trkpt>
      <trkpt lat="42.17438491992652416229248046875" lon="1.74549822695553302764892578125">
        <ele>1635.800048828125</ele>
        <time>2020-10-24T08:41:53.000Z</time>
      </trkpt>
      <trkpt lat="42.17439346946775913238525390625" lon="1.745487414300441741943359375">
        <ele>1635.5999755859375</ele>
        <time>2020-10-24T08:41:54.000Z</time>
      </trkpt>
      <trkpt lat="42.174410484731197357177734375" lon="1.7454691417515277862548828125">
        <ele>1635.199951171875</ele>
        <time>2020-10-24T08:41:56.000Z</time>
      </trkpt>
      <trkpt lat="42.17444476671516895294189453125" lon="1.74543418921530246734619140625">
        <ele>1634.800048828125</ele>
        <time>2020-10-24T08:42:00.000Z</time>
      </trkpt>
      <trkpt lat="42.1744523942470550537109375" lon="1.745431758463382720947265625">
        <ele>1634.800048828125</ele>
        <time>2020-10-24T08:42:01.000Z</time>
      </trkpt>
      <trkpt lat="42.1745189465582370758056640625" lon="1.7454027570784091949462890625">
        <ele>1634.4000244140625</ele>
        <time>2020-10-24T08:42:07.000Z</time>
      </trkpt>
      <trkpt lat="42.17457049526274204254150390625" lon="1.74537551589310169219970703125">
        <ele>1633.800048828125</ele>
        <time>2020-10-24T08:42:12.000Z</time>
      </trkpt>
      <trkpt lat="42.1745886839926242828369140625" lon="1.745360009372234344482421875">
        <ele>1633.5999755859375</ele>
        <time>2020-10-24T08:42:14.000Z</time>
      </trkpt>
      <trkpt lat="42.1745972335338592529296875" lon="1.745347268879413604736328125">
        <ele>1633.4000244140625</ele>
        <time>2020-10-24T08:42:15.000Z</time>
      </trkpt>
      <trkpt lat="42.17464375309646129608154296875" lon="1.74534450285136699676513671875">
        <ele>1632.4000244140625</ele>
        <time>2020-10-24T08:42:19.000Z</time>
      </trkpt>
      <trkpt lat="42.17465481720864772796630859375" lon="1.7453464306890964508056640625">
        <ele>1632.199951171875</ele>
        <time>2020-10-24T08:42:20.000Z</time>
      </trkpt>
      <trkpt lat="42.1747036837041378021240234375" lon="1.74534617923200130462646484375">
        <ele>1631.4000244140625</ele>
        <time>2020-10-24T08:42:25.000Z</time>
      </trkpt>
      <trkpt lat="42.17472153715789318084716796875" lon="1.74533394165337085723876953125">
        <ele>1631</ele>
        <time>2020-10-24T08:42:27.000Z</time>
      </trkpt>
      <trkpt lat="42.17476361431181430816650390625" lon="1.74529018811881542205810546875">
        <ele>1630.4000244140625</ele>
        <time>2020-10-24T08:42:32.000Z</time>
      </trkpt>
      <trkpt lat="42.1747948788106441497802734375" lon="1.7452800460159778594970703125">
        <ele>1630.199951171875</ele>
        <time>2020-10-24T08:42:34.000Z</time>
      </trkpt>
      <trkpt lat="42.1747983992099761962890625" lon="1.745262779295444488525390625">
        <ele>1630.199951171875</ele>
        <time>2020-10-24T08:42:35.000Z</time>
      </trkpt>
      <trkpt lat="42.1748572401702404022216796875" lon="1.7451201193034648895263671875">
        <ele>1630.199951171875</ele>
        <time>2020-10-24T08:42:44.000Z</time>
      </trkpt>
      <trkpt lat="42.1749232895672321319580078125" lon="1.7450510524213314056396484375">
        <ele>1630.800048828125</ele>
        <time>2020-10-24T08:42:51.000Z</time>
      </trkpt>
      <trkpt lat="42.17497483827173709869384765625" lon="1.74500134773552417755126953125">
        <ele>1631.199951171875</ele>
        <time>2020-10-24T08:42:59.000Z</time>
      </trkpt>
      <trkpt lat="42.17498280107975006103515625" lon="1.74497921951115131378173828125">
        <ele>1631.4000244140625</ele>
        <time>2020-10-24T08:43:01.000Z</time>
      </trkpt>
      <trkpt lat="42.17500451020896434783935546875" lon="1.744932197034358978271484375">
        <ele>1631.800048828125</ele>
        <time>2020-10-24T08:43:07.000Z</time>
      </trkpt>
      <trkpt lat="42.17501658014953136444091796875" lon="1.744911409914493560791015625">
        <ele>1632.4000244140625</ele>
        <time>2020-10-24T08:43:09.000Z</time>
      </trkpt>
      <trkpt lat="42.175024710595607757568359375" lon="1.74488886259496212005615234375">
        <ele>1632.800048828125</ele>
        <time>2020-10-24T08:43:11.000Z</time>
      </trkpt>
      <trkpt lat="42.17503619380295276641845703125" lon="1.74484946765005588531494140625">
        <ele>1633.4000244140625</ele>
        <time>2020-10-24T08:43:14.000Z</time>
      </trkpt>
      <trkpt lat="42.17503820545971393585205078125" lon="1.744834966957569122314453125">
        <ele>1633.5999755859375</ele>
        <time>2020-10-24T08:43:15.000Z</time>
      </trkpt>
      <trkpt lat="42.17504440806806087493896484375" lon="1.74479615874588489532470703125">
        <ele>1634.4000244140625</ele>
        <time>2020-10-24T08:43:18.000Z</time>
      </trkpt>
      <trkpt lat="42.17504692263901233673095703125" lon="1.7447868548333644866943359375">
        <ele>1634.4000244140625</ele>
        <time>2020-10-24T08:43:19.000Z</time>
      </trkpt>
      <trkpt lat="42.17504859901964664459228515625" lon="1.74478040076792240142822265625">
        <ele>1634.5999755859375</ele>
        <time>2020-10-24T08:43:20.000Z</time>
      </trkpt>
      <trkpt lat="42.17507936060428619384765625" lon="1.744753830134868621826171875">
        <ele>1635.4000244140625</ele>
        <time>2020-10-24T08:43:25.000Z</time>
      </trkpt>
      <trkpt lat="42.17508472502231597900390625" lon="1.74473765306174755096435546875">
        <ele>1635.5999755859375</ele>
        <time>2020-10-24T08:43:28.000Z</time>
      </trkpt>
      <trkpt lat="42.1750791929662227630615234375" lon="1.7447154410183429718017578125">
        <ele>1635.800048828125</ele>
        <time>2020-10-24T08:43:30.000Z</time>
      </trkpt>
      <trkpt lat="42.175082378089427947998046875" lon="1.74470789730548858642578125">
        <ele>1636</ele>
        <time>2020-10-24T08:43:31.000Z</time>
      </trkpt>
      <trkpt lat="42.17511297203600406646728515625" lon="1.74467713572084903717041015625">
        <ele>1636.5999755859375</ele>
        <time>2020-10-24T08:43:38.000Z</time>
      </trkpt>
      <trkpt lat="42.17511615715920925140380859375" lon="1.74466473050415515899658203125">
        <ele>1636.800048828125</ele>
        <time>2020-10-24T08:43:39.000Z</time>
      </trkpt>
      <trkpt lat="42.17513325624167919158935546875" lon="1.74461594782769680023193359375">
        <ele>1638</ele>
        <time>2020-10-24T08:43:46.000Z</time>
      </trkpt>
      <trkpt lat="42.17514079995453357696533203125" lon="1.744591891765594482421875">
        <ele>1638.5999755859375</ele>
        <time>2020-10-24T08:43:50.000Z</time>
      </trkpt>
      <trkpt lat="42.1751516126096248626708984375" lon="1.7445820011198520660400390625">
        <ele>1639.199951171875</ele>
        <time>2020-10-24T08:43:52.000Z</time>
      </trkpt>
      <trkpt lat="42.17515856958925724029541015625" lon="1.7445578612387180328369140625">
        <ele>1639.800048828125</ele>
        <time>2020-10-24T08:43:54.000Z</time>
      </trkpt>
      <trkpt lat="42.175184302031993865966796875" lon="1.7445588670670986175537109375">
        <ele>1640.199951171875</ele>
        <time>2020-10-24T08:43:56.000Z</time>
      </trkpt>
      <trkpt lat="42.1751945279538631439208984375" lon="1.7445454560220241546630859375">
        <ele>1640.4000244140625</ele>
        <time>2020-10-24T08:43:58.000Z</time>
      </trkpt>
      <trkpt lat="42.17521036975085735321044921875" lon="1.7445260100066661834716796875">
        <ele>1640.800048828125</ele>
        <time>2020-10-24T08:44:00.000Z</time>
      </trkpt>
      <trkpt lat="42.1752277202904224395751953125" lon="1.74452005885541439056396484375">
        <ele>1641.199951171875</ele>
        <time>2020-10-24T08:44:02.000Z</time>
      </trkpt>
      <trkpt lat="42.17523953877389430999755859375" lon="1.74451150931417942047119140625">
        <ele>1641.800048828125</ele>
        <time>2020-10-24T08:44:04.000Z</time>
      </trkpt>
      <trkpt lat="42.17526175081729888916015625" lon="1.744482927024364471435546875">
        <ele>1642.4000244140625</ele>
        <time>2020-10-24T08:44:08.000Z</time>
      </trkpt>
      <trkpt lat="42.17526434920728206634521484375" lon="1.7444727011024951934814453125">
        <ele>1642.5999755859375</ele>
        <time>2020-10-24T08:44:09.000Z</time>
      </trkpt>
      <trkpt lat="42.175296284258365631103515625" lon="1.744424588978290557861328125">
        <ele>1643.4000244140625</ele>
        <time>2020-10-24T08:44:14.000Z</time>
      </trkpt>
      <trkpt lat="42.1753246150910854339599609375" lon="1.74438963644206523895263671875">
        <ele>1644</ele>
        <time>2020-10-24T08:44:18.000Z</time>
      </trkpt>
      <trkpt lat="42.1753376908600330352783203125" lon="1.74437396228313446044921875">
        <ele>1644.199951171875</ele>
        <time>2020-10-24T08:44:20.000Z</time>
      </trkpt>
      <trkpt lat="42.1753504313528537750244140625" lon="1.74436465837061405181884765625">
        <ele>1644.5999755859375</ele>
        <time>2020-10-24T08:44:22.000Z</time>
      </trkpt>
      <trkpt lat="42.175375409424304962158203125" lon="1.74432241357862949371337890625">
        <ele>1645.199951171875</ele>
        <time>2020-10-24T08:44:27.000Z</time>
      </trkpt>
      <trkpt lat="42.17539678327739238739013671875" lon="1.74429760314524173736572265625">
        <ele>1645.5999755859375</ele>
        <time>2020-10-24T08:44:31.000Z</time>
      </trkpt>
      <trkpt lat="42.1754044108092784881591796875" lon="1.744289807975292205810546875">
        <ele>1645.800048828125</ele>
        <time>2020-10-24T08:44:33.000Z</time>
      </trkpt>
      <trkpt lat="42.1754153072834014892578125" lon="1.74427765421569347381591796875">
        <ele>1646</ele>
        <time>2020-10-24T08:44:35.000Z</time>
      </trkpt>
      <trkpt lat="42.17545512132346630096435546875" lon="1.7442490719258785247802734375">
        <ele>1646.199951171875</ele>
        <time>2020-10-24T08:44:40.000Z</time>
      </trkpt>
      <trkpt lat="42.1755170635879039764404296875" lon="1.7441927455365657806396484375">
        <ele>1645.5999755859375</ele>
        <time>2020-10-24T08:44:47.000Z</time>
      </trkpt>
      <trkpt lat="42.1755844540894031524658203125" lon="1.7441384308040142059326171875">
        <ele>1645.800048828125</ele>
        <time>2020-10-24T08:44:54.000Z</time>
      </trkpt>
      <trkpt lat="42.17559074051678180694580078125" lon="1.744127534329891204833984375">
        <ele>1645.800048828125</ele>
        <time>2020-10-24T08:44:55.000Z</time>
      </trkpt>
      <trkpt lat="42.17562728561460971832275390625" lon="1.744077242910861968994140625">
        <ele>1646.5999755859375</ele>
        <time>2020-10-24T08:45:01.000Z</time>
      </trkpt>
      <trkpt lat="42.17563248239457607269287109375" lon="1.74406894482672214508056640625">
        <ele>1646.800048828125</ele>
        <time>2020-10-24T08:45:02.000Z</time>
      </trkpt>
      <trkpt lat="42.1756377629935741424560546875" lon="1.7440621554851531982421875">
        <ele>1646.800048828125</ele>
        <time>2020-10-24T08:45:03.000Z</time>
      </trkpt>
      <trkpt lat="42.1756494976580142974853515625" lon="1.744051761925220489501953125">
        <ele>1647.800048828125</ele>
        <time>2020-10-24T08:45:07.000Z</time>
      </trkpt>
      <trkpt lat="42.17565125785768032073974609375" lon="1.74404648132622241973876953125">
        <ele>1648.199951171875</ele>
        <time>2020-10-24T08:45:09.000Z</time>
      </trkpt>
      <trkpt lat="42.1756431274116039276123046875" lon="1.7440314777195453643798828125">
        <ele>1648.5999755859375</ele>
        <time>2020-10-24T08:45:17.000Z</time>
      </trkpt>
      <trkpt lat="42.17566517181694507598876953125" lon="1.743973307311534881591796875">
        <ele>1648.4000244140625</ele>
        <time>2020-10-24T08:45:24.000Z</time>
      </trkpt>
      <trkpt lat="42.175712026655673980712890625" lon="1.7438966967165470123291015625">
        <ele>1648.4000244140625</ele>
        <time>2020-10-24T08:45:29.000Z</time>
      </trkpt>
      <trkpt lat="42.175731472671031951904296875" lon="1.74387373030185699462890625">
        <ele>1648.5999755859375</ele>
        <time>2020-10-24T08:45:31.000Z</time>
      </trkpt>
      <trkpt lat="42.17575100250542163848876953125" lon="1.7438641749322414398193359375">
        <ele>1649</ele>
        <time>2020-10-24T08:45:33.000Z</time>
      </trkpt>
      <trkpt lat="42.17579542659223079681396484375" lon="1.7438380233943462371826171875">
        <ele>1649.800048828125</ele>
        <time>2020-10-24T08:45:39.000Z</time>
      </trkpt>
      <trkpt lat="42.17580330558121204376220703125" lon="1.74383609555661678314208984375">
        <ele>1649.800048828125</ele>
        <time>2020-10-24T08:45:40.000Z</time>
      </trkpt>
      <trkpt lat="42.17581026256084442138671875" lon="1.74382452853024005889892578125">
        <ele>1650</ele>
        <time>2020-10-24T08:45:41.000Z</time>
      </trkpt>
      <trkpt lat="42.17585409991443157196044921875" lon="1.74381581135094165802001953125">
        <ele>1650.199951171875</ele>
        <time>2020-10-24T08:45:46.000Z</time>
      </trkpt>
      <trkpt lat="42.17588662169873714447021484375" lon="1.74380122683942317962646484375">
        <ele>1651.199951171875</ele>
        <time>2020-10-24T08:45:50.000Z</time>
      </trkpt>
      <trkpt lat="42.17590271495282649993896484375" lon="1.74377775751054286956787109375">
        <ele>1651.800048828125</ele>
        <time>2020-10-24T08:45:52.000Z</time>
      </trkpt>
      <trkpt lat="42.1759103424847126007080078125" lon="1.74376199953258037567138671875">
        <ele>1652</ele>
        <time>2020-10-24T08:45:53.000Z</time>
      </trkpt>
      <trkpt lat="42.17592853121459484100341796875" lon="1.743715144693851470947265625">
        <ele>1652.199951171875</ele>
        <time>2020-10-24T08:45:56.000Z</time>
      </trkpt>
      <trkpt lat="42.1759629808366298675537109375" lon="1.74368723295629024505615234375">
        <ele>1652.4000244140625</ele>
        <time>2020-10-24T08:45:59.000Z</time>
      </trkpt>
      <trkpt lat="42.17601603828370571136474609375" lon="1.74369494430720806121826171875">
        <ele>1652.5999755859375</ele>
        <time>2020-10-24T08:46:03.000Z</time>
      </trkpt>
      <trkpt lat="42.1760307066142559051513671875" lon="1.7436737380921840667724609375">
        <ele>1652.800048828125</ele>
        <time>2020-10-24T08:46:05.000Z</time>
      </trkpt>
      <trkpt lat="42.1760354004800319671630859375" lon="1.74366208724677562713623046875">
        <ele>1653</ele>
        <time>2020-10-24T08:46:06.000Z</time>
      </trkpt>
      <trkpt lat="42.17606297694146633148193359375" lon="1.74364046193659305572509765625">
        <ele>1653.4000244140625</ele>
        <time>2020-10-24T08:46:10.000Z</time>
      </trkpt>
      <trkpt lat="42.1760722808539867401123046875" lon="1.74361783079802989959716796875">
        <ele>1653.5999755859375</ele>
        <time>2020-10-24T08:46:12.000Z</time>
      </trkpt>
      <trkpt lat="42.1760831773281097412109375" lon="1.74360509030520915985107421875">
        <ele>1654</ele>
        <time>2020-10-24T08:46:14.000Z</time>
      </trkpt>
      <trkpt lat="42.17609725892543792724609375" lon="1.74357458017766475677490234375">
        <ele>1654.4000244140625</ele>
        <time>2020-10-24T08:46:19.000Z</time>
      </trkpt>
      <trkpt lat="42.17610237188637256622314453125" lon="1.7435728199779987335205078125">
        <ele>1654.4000244140625</ele>
        <time>2020-10-24T08:46:20.000Z</time>
      </trkpt>
      <trkpt lat="42.1761046350002288818359375" lon="1.74356083385646343231201171875">
        <ele>1654.5999755859375</ele>
        <time>2020-10-24T08:46:21.000Z</time>
      </trkpt>
      <trkpt lat="42.17611779458820819854736328125" lon="1.7435471713542938232421875">
        <ele>1654.5999755859375</ele>
        <time>2020-10-24T08:46:23.000Z</time>
      </trkpt>
      <trkpt lat="42.17613891698420047760009765625" lon="1.74353032372891902923583984375">
        <ele>1655.199951171875</ele>
        <time>2020-10-24T08:46:27.000Z</time>
      </trkpt>
      <trkpt lat="42.17615484260022640228271484375" lon="1.743520684540271759033203125">
        <ele>1655.4000244140625</ele>
        <time>2020-10-24T08:46:29.000Z</time>
      </trkpt>
      <trkpt lat="42.17617009766399860382080078125" lon="1.7435020767152309417724609375">
        <ele>1656.4000244140625</ele>
        <time>2020-10-24T08:46:34.000Z</time>
      </trkpt>
      <trkpt lat="42.17616833746433258056640625" lon="1.7435007356107234954833984375">
        <ele>1656.5999755859375</ele>
        <time>2020-10-24T08:46:35.000Z</time>
      </trkpt>
      <trkpt lat="42.17616691254079341888427734375" lon="1.74349763430655002593994140625">
        <ele>1656.800048828125</ele>
        <time>2020-10-24T08:46:36.000Z</time>
      </trkpt>
      <trkpt lat="42.17616708017885684967041015625" lon="1.74348237924277782440185546875">
        <ele>1657.4000244140625</ele>
        <time>2020-10-24T08:46:39.000Z</time>
      </trkpt>
      <trkpt lat="42.17616607435047626495361328125" lon="1.743471734225749969482421875">
        <ele>1657.5999755859375</ele>
        <time>2020-10-24T08:46:42.000Z</time>
      </trkpt>
      <trkpt lat="42.1761678345501422882080078125" lon="1.7434658668935298919677734375">
        <ele>1657.5999755859375</ele>
        <time>2020-10-24T08:46:44.000Z</time>
      </trkpt>
      <trkpt lat="42.17616699635982513427734375" lon="1.7434591613709926605224609375">
        <ele>1657.5999755859375</ele>
        <time>2020-10-24T08:46:45.000Z</time>
      </trkpt>
      <trkpt lat="42.17616967856884002685546875" lon="1.74345455132424831390380859375">
        <ele>1657.5999755859375</ele>
        <time>2020-10-24T08:46:46.000Z</time>
      </trkpt>
      <trkpt lat="42.17617361806333065032958984375" lon="1.74345421604812145233154296875">
        <ele>1657.800048828125</ele>
        <time>2020-10-24T08:46:53.000Z</time>
      </trkpt>
      <trkpt lat="42.17617361806333065032958984375" lon="1.74345421604812145233154296875">
        <ele>1658</ele>
        <time>2020-10-24T08:46:56.000Z</time>
      </trkpt>
      <trkpt lat="42.17617361806333065032958984375" lon="1.74345421604812145233154296875">
        <ele>1657.800048828125</ele>
        <time>2020-10-24T08:46:59.000Z</time>
      </trkpt>
      <trkpt lat="42.17617361806333065032958984375" lon="1.74345421604812145233154296875">
        <ele>1657.800048828125</ele>
        <time>2020-10-24T08:47:00.000Z</time>
      </trkpt>
      <trkpt lat="42.17617361806333065032958984375" lon="1.74345069564878940582275390625">
        <ele>1657.5999755859375</ele>
        <time>2020-10-24T08:47:05.000Z</time>
      </trkpt>
      <trkpt lat="42.17618183232843875885009765625" lon="1.743395626544952392578125">
        <ele>1657.5999755859375</ele>
        <time>2020-10-24T08:47:11.000Z</time>
      </trkpt>
      <trkpt lat="42.176194824278354644775390625" lon="1.74335715360939502716064453125">
        <ele>1657.199951171875</ele>
        <time>2020-10-24T08:47:19.000Z</time>
      </trkpt>
      <trkpt lat="42.1761923097074031829833984375" lon="1.74335715360939502716064453125">
        <ele>1657.199951171875</ele>
        <time>2020-10-24T08:47:30.000Z</time>
      </trkpt>
      <trkpt lat="42.17619222588837146759033203125" lon="1.74335715360939502716064453125">
        <ele>1657.199951171875</ele>
        <time>2020-10-24T08:47:31.000Z</time>
      </trkpt>
      <trkpt lat="42.17617328278720378875732421875" lon="1.74332714639604091644287109375">
        <ele>1657</ele>
        <time>2020-10-24T08:47:40.000Z</time>
      </trkpt>
      <trkpt lat="42.176189124584197998046875" lon="1.74333720467984676361083984375">
        <ele>1657</ele>
        <time>2020-10-24T08:48:06.000Z</time>
      </trkpt>
      <trkpt lat="42.17619541101157665252685546875" lon="1.74336503259837627410888671875">
        <ele>1657</ele>
        <time>2020-10-24T08:48:20.000Z</time>
      </trkpt>
      <trkpt lat="42.176196165382862091064453125" lon="1.74339093267917633056640625">
        <ele>1656.800048828125</ele>
        <time>2020-10-24T08:48:28.000Z</time>
      </trkpt>
      <trkpt lat="42.17619155533611774444580078125" lon="1.74339688383042812347412109375">
        <ele>1657</ele>
        <time>2020-10-24T08:48:37.000Z</time>
      </trkpt>
      <trkpt lat="42.176182754337787628173828125" lon="1.743408702313899993896484375">
        <ele>1656.800048828125</ele>
        <time>2020-10-24T08:48:50.000Z</time>
      </trkpt>
      <trkpt lat="42.17619809322059154510498046875" lon="1.7434276454150676727294921875">
        <ele>1656.800048828125</ele>
        <time>2020-10-24T08:49:06.000Z</time>
      </trkpt>
      <trkpt lat="42.17619826085865497589111328125" lon="1.74342806451022624969482421875">
        <ele>1656.5999755859375</ele>
        <time>2020-10-24T08:49:09.000Z</time>
      </trkpt>
      <trkpt lat="42.176194489002227783203125" lon="1.74342806451022624969482421875">
        <ele>1656.4000244140625</ele>
        <time>2020-10-24T08:49:40.000Z</time>
      </trkpt>
      <trkpt lat="42.17619289644062519073486328125" lon="1.74343007616698741912841796875">
        <ele>1656.4000244140625</ele>
        <time>2020-10-24T08:49:45.000Z</time>
      </trkpt>
      <trkpt lat="42.17619122005999088287353515625" lon="1.74343259073793888092041015625">
        <ele>1656</ele>
        <time>2020-10-24T08:49:50.000Z</time>
      </trkpt>
      <trkpt lat="42.17619113624095916748046875" lon="1.74343560822308063507080078125">
        <ele>1656.5999755859375</ele>
        <time>2020-10-24T08:49:59.000Z</time>
      </trkpt>
      <trkpt lat="42.17619725503027439117431640625" lon="1.74343845807015895843505859375">
        <ele>1656.5999755859375</ele>
        <time>2020-10-24T08:50:16.000Z</time>
      </trkpt>
      <trkpt lat="42.176197506487369537353515625" lon="1.7434377036988735198974609375">
        <ele>1656.5999755859375</ele>
        <time>2020-10-24T08:50:19.000Z</time>
      </trkpt>
      <trkpt lat="42.17619708739221096038818359375" lon="1.7434333451092243194580078125">
        <ele>1657</ele>
        <time>2020-10-24T08:50:24.000Z</time>
      </trkpt>
      <trkpt lat="42.1761959977447986602783203125" lon="1.74342940561473369598388671875">
        <ele>1656.4000244140625</ele>
        <time>2020-10-24T08:50:30.000Z</time>
      </trkpt>
      <trkpt lat="42.1761953271925449371337890625" lon="1.74342756159603595733642578125">
        <ele>1656.199951171875</ele>
        <time>2020-10-24T08:50:43.000Z</time>
      </trkpt>
      <trkpt lat="42.1761953271925449371337890625" lon="1.74342739395797252655029296875">
        <ele>1656</ele>
        <time>2020-10-24T08:50:50.000Z</time>
      </trkpt>
      <trkpt lat="42.1761953271925449371337890625" lon="1.74342722631990909576416015625">
        <ele>1655.800048828125</ele>
        <time>2020-10-24T08:50:55.000Z</time>
      </trkpt>
      <trkpt lat="42.17619524337351322174072265625" lon="1.743426807224750518798828125">
        <ele>1656.4000244140625</ele>
        <time>2020-10-24T08:51:07.000Z</time>
      </trkpt>
      <trkpt lat="42.17619524337351322174072265625" lon="1.74342672340571880340576171875">
        <ele>1656.5999755859375</ele>
        <time>2020-10-24T08:51:10.000Z</time>
      </trkpt>
      <trkpt lat="42.17619474045932292938232421875" lon="1.7434236221015453338623046875">
        <ele>1656.199951171875</ele>
        <time>2020-10-24T08:52:48.000Z</time>
      </trkpt>
      <trkpt lat="42.1761949919164180755615234375" lon="1.74342370592057704925537109375">
        <ele>1655.800048828125</ele>
        <time>2020-10-24T08:52:55.000Z</time>
      </trkpt>
      <trkpt lat="42.17620111070573329925537109375" lon="1.7433548904955387115478515625">
        <ele>1656</ele>
        <time>2020-10-24T08:53:01.000Z</time>
      </trkpt>
      <trkpt lat="42.17623405158519744873046875" lon="1.74329596571624279022216796875">
        <ele>1656.4000244140625</ele>
        <time>2020-10-24T08:53:10.000Z</time>
      </trkpt>
      <trkpt lat="42.17625408433377742767333984375" lon="1.7432274855673313140869140625">
        <ele>1657</ele>
        <time>2020-10-24T08:53:19.000Z</time>
      </trkpt>
      <trkpt lat="42.1762811578810214996337890625" lon="1.74316789023578166961669921875">
        <ele>1657.4000244140625</ele>
        <time>2020-10-24T08:53:25.000Z</time>
      </trkpt>
      <trkpt lat="42.1762955747544765472412109375" lon="1.74313553608953952789306640625">
        <ele>1657.199951171875</ele>
        <time>2020-10-24T08:53:28.000Z</time>
      </trkpt>
      <trkpt lat="42.176316864788532257080078125" lon="1.743086166679859161376953125">
        <ele>1657.199951171875</ele>
        <time>2020-10-24T08:53:33.000Z</time>
      </trkpt>
      <trkpt lat="42.17633941210806369781494140625" lon="1.74306194297969341278076171875">
        <ele>1657.199951171875</ele>
        <time>2020-10-24T08:53:37.000Z</time>
      </trkpt>
      <trkpt lat="42.1763505600392818450927734375" lon="1.74303880892693996429443359375">
        <ele>1657.199951171875</ele>
        <time>2020-10-24T08:53:39.000Z</time>
      </trkpt>
      <trkpt lat="42.176381908357143402099609375" lon="1.74297745339572429656982421875">
        <ele>1657.5999755859375</ele>
        <time>2020-10-24T08:53:46.000Z</time>
      </trkpt>
      <trkpt lat="42.17638802714645862579345703125" lon="1.74296177923679351806640625">
        <ele>1657.5999755859375</ele>
        <time>2020-10-24T08:53:47.000Z</time>
      </trkpt>
      <trkpt lat="42.1764370612800121307373046875" lon="1.742918528616428375244140625">
        <ele>1658.4000244140625</ele>
        <time>2020-10-24T08:53:53.000Z</time>
      </trkpt>
      <trkpt lat="42.17645022086799144744873046875" lon="1.74290888942778110504150390625">
        <ele>1658.5999755859375</ele>
        <time>2020-10-24T08:53:55.000Z</time>
      </trkpt>
      <trkpt lat="42.17648358084261417388916015625" lon="1.742895059287548065185546875">
        <ele>1659</ele>
        <time>2020-10-24T08:53:59.000Z</time>
      </trkpt>
      <trkpt lat="42.176504619419574737548828125" lon="1.74288877286016941070556640625">
        <ele>1659.199951171875</ele>
        <time>2020-10-24T08:54:01.000Z</time>
      </trkpt>
      <trkpt lat="42.17655549757182598114013671875" lon="1.74286496825516223907470703125">
        <ele>1659.800048828125</ele>
        <time>2020-10-24T08:54:08.000Z</time>
      </trkpt>
      <trkpt lat="42.1765624545514583587646484375" lon="1.74286681227385997772216796875">
        <ele>1659.800048828125</ele>
        <time>2020-10-24T08:54:09.000Z</time>
      </trkpt>
      <trkpt lat="42.1765765361487865447998046875" lon="1.74285843037068843841552734375">
        <ele>1660.199951171875</ele>
        <time>2020-10-24T08:54:12.000Z</time>
      </trkpt>
      <trkpt lat="42.17659254558384418487548828125" lon="1.74286379478871822357177734375">
        <ele>1660.5999755859375</ele>
        <time>2020-10-24T08:54:14.000Z</time>
      </trkpt>
      <trkpt lat="42.17660344205796718597412109375" lon="1.74286630935966968536376953125">
        <ele>1660.800048828125</ele>
        <time>2020-10-24T08:54:16.000Z</time>
      </trkpt>
      <trkpt lat="42.176607213914394378662109375" lon="1.742856502532958984375">
        <ele>1661.199951171875</ele>
        <time>2020-10-24T08:54:18.000Z</time>
      </trkpt>
      <trkpt lat="42.17661249451339244842529296875" lon="1.74281903542578220367431640625">
        <ele>1661.800048828125</ele>
        <time>2020-10-24T08:54:22.000Z</time>
      </trkpt>
      <trkpt lat="42.17661584727466106414794921875" lon="1.74281165935099124908447265625">
        <ele>1662</ele>
        <time>2020-10-24T08:54:23.000Z</time>
      </trkpt>
      <trkpt lat="42.1766459383070468902587890625" lon="1.74281157553195953369140625">
        <ele>1663.199951171875</ele>
        <time>2020-10-24T08:54:27.000Z</time>
      </trkpt>
      <trkpt lat="42.1766506321728229522705078125" lon="1.74280880950391292572021484375">
        <ele>1663.4000244140625</ele>
        <time>2020-10-24T08:54:28.000Z</time>
      </trkpt>
      <trkpt lat="42.176669575273990631103515625" lon="1.74280210398137569427490234375">
        <ele>1664</ele>
        <time>2020-10-24T08:54:31.000Z</time>
      </trkpt>
      <trkpt lat="42.176677286624908447265625" lon="1.74279950559139251708984375">
        <ele>1664.199951171875</ele>
        <time>2020-10-24T08:54:32.000Z</time>
      </trkpt>
      <trkpt lat="42.17668466269969940185546875" lon="1.742794476449489593505859375">
        <ele>1664.4000244140625</ele>
        <time>2020-10-24T08:54:33.000Z</time>
      </trkpt>
      <trkpt lat="42.1767042763531208038330078125" lon="1.74278584308922290802001953125">
        <ele>1664.5999755859375</ele>
        <time>2020-10-24T08:54:35.000Z</time>
      </trkpt>
      <trkpt lat="42.17671927995979785919189453125" lon="1.74277276732027530670166015625">
        <ele>1664.5999755859375</ele>
        <time>2020-10-24T08:54:37.000Z</time>
      </trkpt>
      <trkpt lat="42.1767337806522846221923828125" lon="1.7427597753703594207763671875">
        <ele>1664.5999755859375</ele>
        <time>2020-10-24T08:54:38.000Z</time>
      </trkpt>
      <trkpt lat="42.17674409039318561553955078125" lon="1.74274929799139499664306640625">
        <ele>1664.5999755859375</ele>
        <time>2020-10-24T08:54:39.000Z</time>
      </trkpt>
      <trkpt lat="42.17675481922924518585205078125" lon="1.7427393235266208648681640625">
        <ele>1664.5999755859375</ele>
        <time>2020-10-24T08:54:40.000Z</time>
      </trkpt>
      <trkpt lat="42.17678633518517017364501953125" lon="1.742726080119609832763671875">
        <ele>1664.4000244140625</ele>
        <time>2020-10-24T08:54:43.000Z</time>
      </trkpt>
      <trkpt lat="42.1768169291317462921142578125" lon="1.7427215538918972015380859375">
        <ele>1664.199951171875</ele>
        <time>2020-10-24T08:54:45.000Z</time>
      </trkpt>
      <trkpt lat="42.17685741372406482696533203125" lon="1.742720045149326324462890625">
        <ele>1664</ele>
        <time>2020-10-24T08:54:50.000Z</time>
      </trkpt>
      <trkpt lat="42.176864035427570343017578125" lon="1.7426955699920654296875">
        <ele>1663.800048828125</ele>
        <time>2020-10-24T08:54:52.000Z</time>
      </trkpt>
      <trkpt lat="42.1769020892679691314697265625" lon="1.74268190748989582061767578125">
        <ele>1663.800048828125</ele>
        <time>2020-10-24T08:54:54.000Z</time>
      </trkpt>
      <trkpt lat="42.17695028521120548248291015625" lon="1.742666400969028472900390625">
        <ele>1663.800048828125</ele>
        <time>2020-10-24T08:54:57.000Z</time>
      </trkpt>
      <trkpt lat="42.1769537217915058135986328125" lon="1.74266128800809383392333984375">
        <ele>1663.800048828125</ele>
        <time>2020-10-24T08:54:58.000Z</time>
      </trkpt>
      <trkpt lat="42.1769959665834903717041015625" lon="1.742649637162685394287109375">
        <ele>1664</ele>
        <time>2020-10-24T08:55:02.000Z</time>
      </trkpt>
      <trkpt lat="42.17700510285794734954833984375" lon="1.7426179535686969757080078125">
        <ele>1664.199951171875</ele>
        <time>2020-10-24T08:55:05.000Z</time>
      </trkpt>
      <trkpt lat="42.1770898438990116119384765625" lon="1.742555759847164154052734375">
        <ele>1664.5999755859375</ele>
        <time>2020-10-24T08:55:13.000Z</time>
      </trkpt>
      <trkpt lat="42.17709328047931194305419921875" lon="1.74255047924816608428955078125">
        <ele>1664.800048828125</ele>
        <time>2020-10-24T08:55:14.000Z</time>
      </trkpt>
      <trkpt lat="42.17709780670702457427978515625" lon="1.74254695884883403778076171875">
        <ele>1664.800048828125</ele>
        <time>2020-10-24T08:55:15.000Z</time>
      </trkpt>
      <trkpt lat="42.1771052666008472442626953125" lon="1.7425472103059291839599609375">
        <ele>1664.800048828125</ele>
        <time>2020-10-24T08:55:17.000Z</time>
      </trkpt>
      <trkpt lat="42.17712379060685634613037109375" lon="1.74255936406552791595458984375">
        <ele>1665.199951171875</ele>
        <time>2020-10-24T08:55:19.000Z</time>
      </trkpt>
      <trkpt lat="42.177131585776805877685546875" lon="1.7425508983433246612548828125">
        <ele>1665.199951171875</ele>
        <time>2020-10-24T08:55:20.000Z</time>
      </trkpt>
      <trkpt lat="42.17718950472772121429443359375" lon="1.74252566881477832794189453125">
        <ele>1665.5999755859375</ele>
        <time>2020-10-24T08:55:25.000Z</time>
      </trkpt>
      <trkpt lat="42.17722244560718536376953125" lon="1.74249130301177501678466796875">
        <ele>1665.4000244140625</ele>
        <time>2020-10-24T08:55:29.000Z</time>
      </trkpt>
      <trkpt lat="42.17724013142287731170654296875" lon="1.7424925602972507476806640625">
        <ele>1665.199951171875</ele>
        <time>2020-10-24T08:55:32.000Z</time>
      </trkpt>
      <trkpt lat="42.17725253663957118988037109375" lon="1.74249532632529735565185546875">
        <ele>1665</ele>
        <time>2020-10-24T08:55:34.000Z</time>
      </trkpt>
      <trkpt lat="42.1772675402462482452392578125" lon="1.74249348230659961700439453125">
        <ele>1664.800048828125</ele>
        <time>2020-10-24T08:55:36.000Z</time>
      </trkpt>
      <trkpt lat="42.177293859422206878662109375" lon="1.74247722141444683074951171875">
        <ele>1664.199951171875</ele>
        <time>2020-10-24T08:55:39.000Z</time>
      </trkpt>
      <trkpt lat="42.17731070704758167266845703125" lon="1.7424690909683704376220703125">
        <ele>1663.800048828125</ele>
        <time>2020-10-24T08:55:41.000Z</time>
      </trkpt>
      <trkpt lat="42.17731975950300693511962890625" lon="1.74246682785451412200927734375">
        <ele>1663.5999755859375</ele>
        <time>2020-10-24T08:55:42.000Z</time>
      </trkpt>
      <trkpt lat="42.1773302368819713592529296875" lon="1.7424593679606914520263671875">
        <ele>1663.199951171875</ele>
        <time>2020-10-24T08:55:44.000Z</time>
      </trkpt>
      <trkpt lat="42.1773384511470794677734375" lon="1.74244704656302928924560546875">
        <ele>1662.5999755859375</ele>
        <time>2020-10-24T08:55:46.000Z</time>
      </trkpt>
      <trkpt lat="42.17735026963055133819580078125" lon="1.74242936074733734130859375">
        <ele>1662.199951171875</ele>
        <time>2020-10-24T08:55:48.000Z</time>
      </trkpt>
      <trkpt lat="42.1773604117333889007568359375" lon="1.74242324195802211761474609375">
        <ele>1662</ele>
        <time>2020-10-24T08:55:49.000Z</time>
      </trkpt>
      <trkpt lat="42.17738161794841289520263671875" lon="1.7424110881984233856201171875">
        <ele>1661.5999755859375</ele>
        <time>2020-10-24T08:55:51.000Z</time>
      </trkpt>
      <trkpt lat="42.177435345947742462158203125" lon="1.7423960007727146148681640625">
        <ele>1661.4000244140625</ele>
        <time>2020-10-24T08:55:55.000Z</time>
      </trkpt>
      <trkpt lat="42.1774459071457386016845703125" lon="1.7423943243920803070068359375">
        <ele>1661.4000244140625</ele>
        <time>2020-10-24T08:55:56.000Z</time>
      </trkpt>
      <trkpt lat="42.17749175615608692169189453125" lon="1.742376051843166351318359375">
        <ele>1661.199951171875</ele>
        <time>2020-10-24T08:56:00.000Z</time>
      </trkpt>
      <trkpt lat="42.177537940442562103271484375" lon="1.742335818707942962646484375">
        <ele>1661</ele>
        <time>2020-10-24T08:56:04.000Z</time>
      </trkpt>
      <trkpt lat="42.17754757963120937347412109375" lon="1.7423118464648723602294921875">
        <ele>1661</ele>
        <time>2020-10-24T08:56:05.000Z</time>
      </trkpt>
      <trkpt lat="42.17755638062953948974609375" lon="1.74229499883949756622314453125">
        <ele>1661</ele>
        <time>2020-10-24T08:56:06.000Z</time>
      </trkpt>
      <trkpt lat="42.1775622479617595672607421875" lon="1.74227957613766193389892578125">
        <ele>1661</ele>
        <time>2020-10-24T08:56:07.000Z</time>
      </trkpt>
      <trkpt lat="42.17757808975875377655029296875" lon="1.74226348288357257843017578125">
        <ele>1660.5999755859375</ele>
        <time>2020-10-24T08:56:09.000Z</time>
      </trkpt>
      <trkpt lat="42.17761983163654804229736328125" lon="1.74221084453165531158447265625">
        <ele>1659.800048828125</ele>
        <time>2020-10-24T08:56:14.000Z</time>
      </trkpt>
      <trkpt lat="42.1776249445974826812744140625" lon="1.7421955056488513946533203125">
        <ele>1659.5999755859375</ele>
        <time>2020-10-24T08:56:15.000Z</time>
      </trkpt>
      <trkpt lat="42.17766911722719669342041015625" lon="1.7421475611627101898193359375">
        <ele>1658.800048828125</ele>
        <time>2020-10-24T08:56:19.000Z</time>
      </trkpt>
      <trkpt lat="42.177678756415843963623046875" lon="1.7421448789536952972412109375">
        <ele>1658.5999755859375</ele>
        <time>2020-10-24T08:56:20.000Z</time>
      </trkpt>
      <trkpt lat="42.17770298011600971221923828125" lon="1.7421240918338298797607421875">
        <ele>1658.4000244140625</ele>
        <time>2020-10-24T08:56:23.000Z</time>
      </trkpt>
      <trkpt lat="42.1777101047337055206298828125" lon="1.74211512319743633270263671875">
        <ele>1658.4000244140625</ele>
        <time>2020-10-24T08:56:24.000Z</time>
      </trkpt>
      <trkpt lat="42.17771421186625957489013671875" lon="1.74210347235202789306640625">
        <ele>1658.4000244140625</ele>
        <time>2020-10-24T08:56:25.000Z</time>
      </trkpt>
      <trkpt lat="42.17772795818746089935302734375" lon="1.74209768883883953094482421875">
        <ele>1658.4000244140625</ele>
        <time>2020-10-24T08:56:26.000Z</time>
      </trkpt>
      <trkpt lat="42.17778026126325130462646484375" lon="1.74206684343516826629638671875">
        <ele>1658.5999755859375</ele>
        <time>2020-10-24T08:56:30.000Z</time>
      </trkpt>
      <trkpt lat="42.177793420851230621337890625" lon="1.74206701107323169708251953125">
        <ele>1658.5999755859375</ele>
        <time>2020-10-24T08:56:31.000Z</time>
      </trkpt>
      <trkpt lat="42.177812196314334869384765625" lon="1.7420493252575397491455078125">
        <ele>1658.800048828125</ele>
        <time>2020-10-24T08:56:33.000Z</time>
      </trkpt>
      <trkpt lat="42.17784748412668704986572265625" lon="1.7420352436602115631103515625">
        <ele>1659.199951171875</ele>
        <time>2020-10-24T08:56:38.000Z</time>
      </trkpt>
      <trkpt lat="42.1778576262295246124267578125" lon="1.742036752402782440185546875">
        <ele>1659.4000244140625</ele>
        <time>2020-10-24T08:56:39.000Z</time>
      </trkpt>
      <trkpt lat="42.1778908185660839080810546875" lon="1.74204471521079540252685546875">
        <ele>1659.5999755859375</ele>
        <time>2020-10-24T08:56:42.000Z</time>
      </trkpt>
      <trkpt lat="42.17790196649730205535888671875" lon="1.742041110992431640625">
        <ele>1659.800048828125</ele>
        <time>2020-10-24T08:56:43.000Z</time>
      </trkpt>
      <trkpt lat="42.177910767495632171630859375" lon="1.742034740746021270751953125">
        <ele>1660</ele>
        <time>2020-10-24T08:56:44.000Z</time>
      </trkpt>
      <trkpt lat="42.17792007140815258026123046875" lon="1.7420308850705623626708984375">
        <ele>1660</ele>
        <time>2020-10-24T08:56:45.000Z</time>
      </trkpt>
      <trkpt lat="42.1779377572238445281982421875" lon="1.74202158115804195404052734375">
        <ele>1660.199951171875</ele>
        <time>2020-10-24T08:56:47.000Z</time>
      </trkpt>
      <trkpt lat="42.17794421128928661346435546875" lon="1.742015294730663299560546875">
        <ele>1660.199951171875</ele>
        <time>2020-10-24T08:56:48.000Z</time>
      </trkpt>
      <trkpt lat="42.17794856987893581390380859375" lon="1.74200666137039661407470703125">
        <ele>1660.199951171875</ele>
        <time>2020-10-24T08:56:49.000Z</time>
      </trkpt>
      <trkpt lat="42.177980840206146240234375" lon="1.7419826053082942962646484375">
        <ele>1660.4000244140625</ele>
        <time>2020-10-24T08:56:53.000Z</time>
      </trkpt>
      <trkpt lat="42.17799894511699676513671875" lon="1.74194253981113433837890625">
        <ele>1660.4000244140625</ele>
        <time>2020-10-24T08:56:55.000Z</time>
      </trkpt>
      <trkpt lat="42.178101204335689544677734375" lon="1.7419142089784145355224609375">
        <ele>1660.199951171875</ele>
        <time>2020-10-24T08:57:03.000Z</time>
      </trkpt>
      <trkpt lat="42.178115956485271453857421875" lon="1.7419058270752429962158203125">
        <ele>1660.199951171875</ele>
        <time>2020-10-24T08:57:04.000Z</time>
      </trkpt>
      <trkpt lat="42.17816616408526897430419921875" lon="1.741881184279918670654296875">
        <ele>1660.199951171875</ele>
        <time>2020-10-24T08:57:08.000Z</time>
      </trkpt>
      <trkpt lat="42.17817152850329875946044921875" lon="1.7418642528355121612548828125">
        <ele>1660.4000244140625</ele>
        <time>2020-10-24T08:57:10.000Z</time>
      </trkpt>
      <trkpt lat="42.17817597091197967529296875" lon="1.74185939133167266845703125">
        <ele>1660.4000244140625</ele>
        <time>2020-10-24T08:57:11.000Z</time>
      </trkpt>
      <trkpt lat="42.17819633893668651580810546875" lon="1.7418199963867664337158203125">
        <ele>1660.4000244140625</ele>
        <time>2020-10-24T08:57:16.000Z</time>
      </trkpt>
      <trkpt lat="42.17820757068693637847900390625" lon="1.74181119538843631744384765625">
        <ele>1660.5999755859375</ele>
        <time>2020-10-24T08:57:18.000Z</time>
      </trkpt>
      <trkpt lat="42.17823036946356296539306640625" lon="1.7417971976101398468017578125">
        <ele>1660.800048828125</ele>
        <time>2020-10-24T08:57:22.000Z</time>
      </trkpt>
      <trkpt lat="42.17824160121381282806396484375" lon="1.74178806133568286895751953125">
        <ele>1661</ele>
        <time>2020-10-24T08:57:24.000Z</time>
      </trkpt>
      <trkpt lat="42.17827211134135723114013671875" lon="1.74176911823451519012451171875">
        <ele>1661</ele>
        <time>2020-10-24T08:57:27.000Z</time>
      </trkpt>
      <trkpt lat="42.178281247615814208984375" lon="1.74175922758877277374267578125">
        <ele>1661.199951171875</ele>
        <time>2020-10-24T08:57:28.000Z</time>
      </trkpt>
      <trkpt lat="42.178339920938014984130859375" lon="1.7417334951460361480712890625">
        <ele>1661.4000244140625</ele>
        <time>2020-10-24T08:57:34.000Z</time>
      </trkpt>
      <trkpt lat="42.178360037505626678466796875" lon="1.741730980575084686279296875">
        <ele>1661.5999755859375</ele>
        <time>2020-10-24T08:57:36.000Z</time>
      </trkpt>
      <trkpt lat="42.17844486236572265625" lon="1.74169518984854221343994140625">
        <ele>1662</ele>
        <time>2020-10-24T08:57:41.000Z</time>
      </trkpt>
      <trkpt lat="42.17848216183483600616455078125" lon="1.741671301424503326416015625">
        <ele>1662</ele>
        <time>2020-10-24T08:57:44.000Z</time>
      </trkpt>
      <trkpt lat="42.1784998476505279541015625" lon="1.7416479997336864471435546875">
        <ele>1662</ele>
        <time>2020-10-24T08:57:46.000Z</time>
      </trkpt>
      <trkpt lat="42.17854267917573451995849609375" lon="1.74163416959345340728759765625">
        <ele>1662</ele>
        <time>2020-10-24T08:57:49.000Z</time>
      </trkpt>
      <trkpt lat="42.1785615384578704833984375" lon="1.741631738841533660888671875">
        <ele>1662</ele>
        <time>2020-10-24T08:57:51.000Z</time>
      </trkpt>
      <trkpt lat="42.17858232557773590087890625" lon="1.74162075854837894439697265625">
        <ele>1662.199951171875</ele>
        <time>2020-10-24T08:57:53.000Z</time>
      </trkpt>
      <trkpt lat="42.178608477115631103515625" lon="1.741612292826175689697265625">
        <ele>1662.199951171875</ele>
        <time>2020-10-24T08:57:55.000Z</time>
      </trkpt>
      <trkpt lat="42.17861761339008808135986328125" lon="1.74160315655171871185302734375">
        <ele>1662.4000244140625</ele>
        <time>2020-10-24T08:57:56.000Z</time>
      </trkpt>
      <trkpt lat="42.178645022213459014892578125" lon="1.7415812797844409942626953125">
        <ele>1662.199951171875</ele>
        <time>2020-10-24T08:57:59.000Z</time>
      </trkpt>
      <trkpt lat="42.1786661446094512939453125" lon="1.74158840440213680267333984375">
        <ele>1662.4000244140625</ele>
        <time>2020-10-24T08:58:01.000Z</time>
      </trkpt>
      <trkpt lat="42.17868282459676265716552734375" lon="1.74158538691699504852294921875">
        <ele>1662.4000244140625</ele>
        <time>2020-10-24T08:58:03.000Z</time>
      </trkpt>
      <trkpt lat="42.17870076186954975128173828125" lon="1.74157063476741313934326171875">
        <ele>1662.5999755859375</ele>
        <time>2020-10-24T08:58:06.000Z</time>
      </trkpt>
      <trkpt lat="42.17871165834367275238037109375" lon="1.74156929366290569305419921875">
        <ele>1662.5999755859375</ele>
        <time>2020-10-24T08:58:07.000Z</time>
      </trkpt>
      <trkpt lat="42.1787330321967601776123046875" lon="1.7415470816195011138916015625">
        <ele>1662.5999755859375</ele>
        <time>2020-10-24T08:58:10.000Z</time>
      </trkpt>
      <trkpt lat="42.17879413627088069915771484375" lon="1.7415236122906208038330078125">
        <ele>1662.800048828125</ele>
        <time>2020-10-24T08:58:15.000Z</time>
      </trkpt>
      <trkpt lat="42.178806960582733154296875" lon="1.741511039435863494873046875">
        <ele>1663</ele>
        <time>2020-10-24T08:58:16.000Z</time>
      </trkpt>
      <trkpt lat="42.1788232214748859405517578125" lon="1.741504669189453125">
        <ele>1663</ele>
        <time>2020-10-24T08:58:17.000Z</time>
      </trkpt>
      <trkpt lat="42.1788678131997585296630859375" lon="1.74148178659379482269287109375">
        <ele>1663.199951171875</ele>
        <time>2020-10-24T08:58:21.000Z</time>
      </trkpt>
      <trkpt lat="42.17890578322112560272216796875" lon="1.74145328812301158905029296875">
        <ele>1663.199951171875</ele>
        <time>2020-10-24T08:58:25.000Z</time>
      </trkpt>
      <trkpt lat="42.17892564833164215087890625" lon="1.74145345576107501983642578125">
        <ele>1662.800048828125</ele>
        <time>2020-10-24T08:58:27.000Z</time>
      </trkpt>
      <trkpt lat="42.17892539687454700469970703125" lon="1.7414340935647487640380859375">
        <ele>1662</ele>
        <time>2020-10-24T08:58:30.000Z</time>
      </trkpt>
      <trkpt lat="42.17892698943614959716796875" lon="1.741426549851894378662109375">
        <ele>1661.800048828125</ele>
        <time>2020-10-24T08:58:31.000Z</time>
      </trkpt>
      <trkpt lat="42.1789424121379852294921875" lon="1.7414317466318607330322265625">
        <ele>1661.5999755859375</ele>
        <time>2020-10-24T08:58:33.000Z</time>
      </trkpt>
      <trkpt lat="42.17895305715501308441162109375" lon="1.74143183045089244842529296875">
        <ele>1661.4000244140625</ele>
        <time>2020-10-24T08:58:34.000Z</time>
      </trkpt>
      <trkpt lat="42.17896646820008754730224609375" lon="1.74143719486892223358154296875">
        <ele>1661.4000244140625</ele>
        <time>2020-10-24T08:58:35.000Z</time>
      </trkpt>
      <trkpt lat="42.1789818070828914642333984375" lon="1.74144121818244457244873046875">
        <ele>1661.5999755859375</ele>
        <time>2020-10-24T08:58:36.000Z</time>
      </trkpt>
      <trkpt lat="42.1790002472698688507080078125" lon="1.74142713658511638641357421875">
        <ele>1661.800048828125</ele>
        <time>2020-10-24T08:58:38.000Z</time>
      </trkpt>
      <trkpt lat="42.1790072880685329437255859375" lon="1.7413866519927978515625">
        <ele>1662.5999755859375</ele>
        <time>2020-10-24T08:58:41.000Z</time>
      </trkpt>
      <trkpt lat="42.17900921590626239776611328125" lon="1.7413576506078243255615234375">
        <ele>1663</ele>
        <time>2020-10-24T08:58:44.000Z</time>
      </trkpt>
      <trkpt lat="42.17901072464883327484130859375" lon="1.74135404638946056365966796875">
        <ele>1663.199951171875</ele>
        <time>2020-10-24T08:58:45.000Z</time>
      </trkpt>
      <trkpt lat="42.17903603799641132354736328125" lon="1.74130392260849475860595703125">
        <ele>1663.800048828125</ele>
        <time>2020-10-24T08:58:50.000Z</time>
      </trkpt>
      <trkpt lat="42.179090939462184906005859375" lon="1.74120451323688030242919921875">
        <ele>1664</ele>
        <time>2020-10-24T08:58:56.000Z</time>
      </trkpt>
      <trkpt lat="42.17909789644181728363037109375" lon="1.74115975387394428253173828125">
        <ele>1663.800048828125</ele>
        <time>2020-10-24T08:58:58.000Z</time>
      </trkpt>
      <trkpt lat="42.17913092114031314849853515625" lon="1.7411102168262004852294921875">
        <ele>1663.800048828125</ele>
        <time>2020-10-24T08:59:03.000Z</time>
      </trkpt>
      <trkpt lat="42.17914097942411899566650390625" lon="1.74110233783721923828125">
        <ele>1663.800048828125</ele>
        <time>2020-10-24T08:59:04.000Z</time>
      </trkpt>
      <trkpt lat="42.17915204353630542755126953125" lon="1.74107618629932403564453125">
        <ele>1663.5999755859375</ele>
        <time>2020-10-24T08:59:06.000Z</time>
      </trkpt>
      <trkpt lat="42.1791990660130977630615234375" lon="1.74100066535174846649169921875">
        <ele>1663.5999755859375</ele>
        <time>2020-10-24T08:59:11.000Z</time>
      </trkpt>
      <trkpt lat="42.17923955060541629791259765625" lon="1.74094903282821178436279296875">
        <ele>1663.800048828125</ele>
        <time>2020-10-24T08:59:16.000Z</time>
      </trkpt>
      <trkpt lat="42.17927156947553157806396484375" lon="1.74090393818914890289306640625">
        <ele>1663.5999755859375</ele>
        <time>2020-10-24T08:59:20.000Z</time>
      </trkpt>
      <trkpt lat="42.17929922975599765777587890625" lon="1.74088952131569385528564453125">
        <ele>1663.4000244140625</ele>
        <time>2020-10-24T08:59:23.000Z</time>
      </trkpt>
      <trkpt lat="42.17934180982410907745361328125" lon="1.7408373020589351654052734375">
        <ele>1663.199951171875</ele>
        <time>2020-10-24T08:59:28.000Z</time>
      </trkpt>
      <trkpt lat="42.17938405461609363555908203125" lon="1.74080528318881988525390625">
        <ele>1663</ele>
        <time>2020-10-24T08:59:32.000Z</time>
      </trkpt>
      <trkpt lat="42.1794186718761920928955078125" lon="1.740772090852260589599609375">
        <ele>1662</ele>
        <time>2020-10-24T08:59:36.000Z</time>
      </trkpt>
      <trkpt lat="42.17942965216934680938720703125" lon="1.740765385329723358154296875">
        <ele>1662</ele>
        <time>2020-10-24T08:59:37.000Z</time>
      </trkpt>
      <trkpt lat="42.179459072649478912353515625" lon="1.74074585549533367156982421875">
        <ele>1662.199951171875</ele>
        <time>2020-10-24T08:59:40.000Z</time>
      </trkpt>
      <trkpt lat="42.17946611344814300537109375" lon="1.7407377250492572784423828125">
        <ele>1662.199951171875</ele>
        <time>2020-10-24T08:59:41.000Z</time>
      </trkpt>
      <trkpt lat="42.179525792598724365234375" lon="1.7406693287193775177001953125">
        <ele>1661.5999755859375</ele>
        <time>2020-10-24T08:59:48.000Z</time>
      </trkpt>
      <trkpt lat="42.17955973930656909942626953125" lon="1.74062968231737613677978515625">
        <ele>1661.4000244140625</ele>
        <time>2020-10-24T08:59:52.000Z</time>
      </trkpt>
      <trkpt lat="42.17959209345281124114990234375" lon="1.74058693461120128631591796875">
        <ele>1661.199951171875</ele>
        <time>2020-10-24T08:59:55.000Z</time>
      </trkpt>
      <trkpt lat="42.1796184964478015899658203125" lon="1.74056882970035076141357421875">
        <ele>1660.800048828125</ele>
        <time>2020-10-24T08:59:57.000Z</time>
      </trkpt>
      <trkpt lat="42.17963048256933689117431640625" lon="1.7405618727207183837890625">
        <ele>1660.4000244140625</ele>
        <time>2020-10-24T08:59:59.000Z</time>
      </trkpt>
      <trkpt lat="42.1796667762100696563720703125" lon="1.7405536584556102752685546875">
        <ele>1660.199951171875</ele>
        <time>2020-10-24T09:00:02.000Z</time>
      </trkpt>
      <trkpt lat="42.17968982644379138946533203125" lon="1.74054670147597789764404296875">
        <ele>1660.4000244140625</ele>
        <time>2020-10-24T09:00:05.000Z</time>
      </trkpt>
      <trkpt lat="42.17971782200038433074951171875" lon="1.74051904119551181793212890625">
        <ele>1660.800048828125</ele>
        <time>2020-10-24T09:00:09.000Z</time>
      </trkpt>
      <trkpt lat="42.17980281449854373931884765625" lon="1.74049993045628070831298828125">
        <ele>1661.800048828125</ele>
        <time>2020-10-24T09:00:16.000Z</time>
      </trkpt>
      <trkpt lat="42.1798263676464557647705078125" lon="1.740461289882659912109375">
        <ele>1662.199951171875</ele>
        <time>2020-10-24T09:00:21.000Z</time>
      </trkpt>
      <trkpt lat="42.17987020500004291534423828125" lon="1.74037001095712184906005859375">
        <ele>1661.800048828125</ele>
        <time>2020-10-24T09:00:28.000Z</time>
      </trkpt>
      <trkpt lat="42.17988629825413227081298828125" lon="1.74032391048967838287353515625">
        <ele>1661.800048828125</ele>
        <time>2020-10-24T09:00:31.000Z</time>
      </trkpt>
      <trkpt lat="42.17990641482174396514892578125" lon="1.74030228517949581146240234375">
        <ele>1661.800048828125</ele>
        <time>2020-10-24T09:00:33.000Z</time>
      </trkpt>
      <trkpt lat="42.179943211376667022705078125" lon="1.7402871139347553253173828125">
        <ele>1662</ele>
        <time>2020-10-24T09:00:38.000Z</time>
      </trkpt>
      <trkpt lat="42.17997749336063861846923828125" lon="1.74023321829736232757568359375">
        <ele>1662.199951171875</ele>
        <time>2020-10-24T09:00:42.000Z</time>
      </trkpt>
      <trkpt lat="42.18001185916364192962646484375" lon="1.7402089945971965789794921875">
        <ele>1662.199951171875</ele>
        <time>2020-10-24T09:00:45.000Z</time>
      </trkpt>
      <trkpt lat="42.18001839704811573028564453125" lon="1.74019801430404186248779296875">
        <ele>1662.199951171875</ele>
        <time>2020-10-24T09:00:46.000Z</time>
      </trkpt>
      <trkpt lat="42.18005695380270481109619140625" lon="1.74015459604561328887939453125">
        <ele>1662</ele>
        <time>2020-10-24T09:00:51.000Z</time>
      </trkpt>
      <trkpt lat="42.1800613962113857269287109375" lon="1.74013397656381130218505859375">
        <ele>1661.800048828125</ele>
        <time>2020-10-24T09:00:53.000Z</time>
      </trkpt>
      <trkpt lat="42.18007371760904788970947265625" lon="1.74011201597750186920166015625">
        <ele>1661.4000244140625</ele>
        <time>2020-10-24T09:00:56.000Z</time>
      </trkpt>
      <trkpt lat="42.1800855360925197601318359375" lon="1.74008846282958984375">
        <ele>1661.4000244140625</ele>
        <time>2020-10-24T09:00:58.000Z</time>
      </trkpt>
      <trkpt lat="42.18008629046380519866943359375" lon="1.74007597379386425018310546875">
        <ele>1661.199951171875</ele>
        <time>2020-10-24T09:00:59.000Z</time>
      </trkpt>
      <trkpt lat="42.18009500764310359954833984375" lon="1.74004043452441692352294921875">
        <ele>1661</ele>
        <time>2020-10-24T09:01:02.000Z</time>
      </trkpt>
      <trkpt lat="42.1800984442234039306640625" lon="1.74002098850905895233154296875">
        <ele>1661</ele>
        <time>2020-10-24T09:01:04.000Z</time>
      </trkpt>
      <trkpt lat="42.18010188080370426177978515625" lon="1.73996030353009700775146484375">
        <ele>1661.800048828125</ele>
        <time>2020-10-24T09:01:11.000Z</time>
      </trkpt>
      <trkpt lat="42.180097438395023345947265625" lon="1.73996281810104846954345703125">
        <ele>1662.199951171875</ele>
        <time>2020-10-24T09:01:14.000Z</time>
      </trkpt>
      <trkpt lat="42.180079333484172821044921875" lon="1.73994722776114940643310546875">
        <ele>1662.800048828125</ele>
        <time>2020-10-24T09:01:16.000Z</time>
      </trkpt>
      <trkpt lat="42.18007354997098445892333984375" lon="1.7399384267628192901611328125">
        <ele>1663</ele>
        <time>2020-10-24T09:01:17.000Z</time>
      </trkpt>
      <trkpt lat="42.18007271178066730499267578125" lon="1.7399303801357746124267578125">
        <ele>1663.199951171875</ele>
        <time>2020-10-24T09:01:18.000Z</time>
      </trkpt>
      <trkpt lat="42.18007137067615985870361328125" lon="1.73992694355547428131103515625">
        <ele>1663.4000244140625</ele>
        <time>2020-10-24T09:01:19.000Z</time>
      </trkpt>
      <trkpt lat="42.18007522635161876678466796875" lon="1.73991923220455646514892578125">
        <ele>1664</ele>
        <time>2020-10-24T09:01:22.000Z</time>
      </trkpt>
      <trkpt lat="42.18008947558701038360595703125" lon="1.73991286195814609527587890625">
        <ele>1664.199951171875</ele>
        <time>2020-10-24T09:01:23.000Z</time>
      </trkpt>
      <trkpt lat="42.18010171316564083099365234375" lon="1.7399062402546405792236328125">
        <ele>1664.4000244140625</ele>
        <time>2020-10-24T09:01:24.000Z</time>
      </trkpt>
      <trkpt lat="42.1801264397799968719482421875" lon="1.7398981936275959014892578125">
        <ele>1664.800048828125</ele>
        <time>2020-10-24T09:01:27.000Z</time>
      </trkpt>
      <trkpt lat="42.1801297925412654876708984375" lon="1.739899031817913055419921875">
        <ele>1665</ele>
        <time>2020-10-24T09:01:29.000Z</time>
      </trkpt>
      <trkpt lat="42.180135659873485565185546875" lon="1.739903390407562255859375">
        <ele>1665.5999755859375</ele>
        <time>2020-10-24T09:01:31.000Z</time>
      </trkpt>
      <trkpt lat="42.18014094047248363494873046875" lon="1.73990531824529170989990234375">
        <ele>1666.199951171875</ele>
        <time>2020-10-24T09:01:35.000Z</time>
      </trkpt>
      <trkpt lat="42.18014094047248363494873046875" lon="1.73990531824529170989990234375">
        <ele>1666.5999755859375</ele>
        <time>2020-10-24T09:01:37.000Z</time>
      </trkpt>
      <trkpt lat="42.18014094047248363494873046875" lon="1.73990531824529170989990234375">
        <ele>1667.199951171875</ele>
        <time>2020-10-24T09:01:40.000Z</time>
      </trkpt>
      <trkpt lat="42.18014094047248363494873046875" lon="1.73989911563694477081298828125">
        <ele>1668.4000244140625</ele>
        <time>2020-10-24T09:01:45.000Z</time>
      </trkpt>
      <trkpt lat="42.18014094047248363494873046875" lon="1.7398981936275959014892578125">
        <ele>1668.5999755859375</ele>
        <time>2020-10-24T09:01:46.000Z</time>
      </trkpt>
      <trkpt lat="42.18014094047248363494873046875" lon="1.7398978583514690399169921875">
        <ele>1669</ele>
        <time>2020-10-24T09:01:48.000Z</time>
      </trkpt>
      <trkpt lat="42.18014094047248363494873046875" lon="1.73988117836415767669677734375">
        <ele>1669.5999755859375</ele>
        <time>2020-10-24T09:01:50.000Z</time>
      </trkpt>
      <trkpt lat="42.18014094047248363494873046875" lon="1.73986156471073627471923828125">
        <ele>1670</ele>
        <time>2020-10-24T09:01:52.000Z</time>
      </trkpt>
      <trkpt lat="42.1801448799669742584228515625" lon="1.739852428436279296875">
        <ele>1670.4000244140625</ele>
        <time>2020-10-24T09:01:54.000Z</time>
      </trkpt>
      <trkpt lat="42.18015233986079692840576171875" lon="1.739850081503391265869140625">
        <ele>1670.5999755859375</ele>
        <time>2020-10-24T09:01:55.000Z</time>
      </trkpt>
      <trkpt lat="42.18017614446580410003662109375" lon="1.73983893357217311859130859375">
        <ele>1671</ele>
        <time>2020-10-24T09:01:58.000Z</time>
      </trkpt>
      <trkpt lat="42.18019240535795688629150390625" lon="1.739838011562824249267578125">
        <ele>1671.800048828125</ele>
        <time>2020-10-24T09:02:01.000Z</time>
      </trkpt>
      <trkpt lat="42.18019726686179637908935546875" lon="1.739838011562824249267578125">
        <ele>1672</ele>
        <time>2020-10-24T09:02:02.000Z</time>
      </trkpt>
      <trkpt lat="42.180212773382663726806640625" lon="1.739838011562824249267578125">
        <ele>1672.4000244140625</ele>
        <time>2020-10-24T09:02:04.000Z</time>
      </trkpt>
      <trkpt lat="42.18022475950419902801513671875" lon="1.739838011562824249267578125">
        <ele>1672.5999755859375</ele>
        <time>2020-10-24T09:02:06.000Z</time>
      </trkpt>
      <trkpt lat="42.1802317164838314056396484375" lon="1.739838011562824249267578125">
        <ele>1673</ele>
        <time>2020-10-24T09:02:07.000Z</time>
      </trkpt>
      <trkpt lat="42.180252335965633392333984375" lon="1.739838011562824249267578125">
        <ele>1673.800048828125</ele>
        <time>2020-10-24T09:02:11.000Z</time>
      </trkpt>
      <trkpt lat="42.18025677837431430816650390625" lon="1.739838011562824249267578125">
        <ele>1674</ele>
        <time>2020-10-24T09:02:12.000Z</time>
      </trkpt>
      <trkpt lat="42.18026247806847095489501953125" lon="1.7398448847234249114990234375">
        <ele>1674.5999755859375</ele>
        <time>2020-10-24T09:02:14.000Z</time>
      </trkpt>
      <trkpt lat="42.18027890659868717193603515625" lon="1.7398556135594844818115234375">
        <ele>1675.199951171875</ele>
        <time>2020-10-24T09:02:17.000Z</time>
      </trkpt>
      <trkpt lat="42.180295251309871673583984375" lon="1.739857457578182220458984375">
        <ele>1675.800048828125</ele>
        <time>2020-10-24T09:02:20.000Z</time>
      </trkpt>
      <trkpt lat="42.180319391191005706787109375" lon="1.73985754139721393585205078125">
        <ele>1676.199951171875</ele>
        <time>2020-10-24T09:02:23.000Z</time>
      </trkpt>
      <trkpt lat="42.1803262643516063690185546875" lon="1.73985754139721393585205078125">
        <ele>1676.4000244140625</ele>
        <time>2020-10-24T09:02:24.000Z</time>
      </trkpt>
      <trkpt lat="42.18034193851053714752197265625" lon="1.73985754139721393585205078125">
        <ele>1676.5999755859375</ele>
        <time>2020-10-24T09:02:26.000Z</time>
      </trkpt>
      <trkpt lat="42.180354930460453033447265625" lon="1.73985754139721393585205078125">
        <ele>1677.199951171875</ele>
        <time>2020-10-24T09:02:29.000Z</time>
      </trkpt>
      <trkpt lat="42.18037798069417476654052734375" lon="1.7398552782833576202392578125">
        <ele>1678.4000244140625</ele>
        <time>2020-10-24T09:02:35.000Z</time>
      </trkpt>
      <trkpt lat="42.1804677508771419525146484375" lon="1.73985309898853302001953125">
        <ele>1679.4000244140625</ele>
        <time>2020-10-24T09:02:42.000Z</time>
      </trkpt>
      <trkpt lat="42.1804820001125335693359375" lon="1.7398572899401187896728515625">
        <ele>1679.5999755859375</ele>
        <time>2020-10-24T09:02:43.000Z</time>
      </trkpt>
      <trkpt lat="42.180509157478809356689453125" lon="1.73985066823661327362060546875">
        <ele>1680</ele>
        <time>2020-10-24T09:02:45.000Z</time>
      </trkpt>
      <trkpt lat="42.18053908087313175201416015625" lon="1.73983030021190643310546875">
        <ele>1680.4000244140625</ele>
        <time>2020-10-24T09:02:47.000Z</time>
      </trkpt>
      <trkpt lat="42.18054293654859066009521484375" lon="1.739825271070003509521484375">
        <ele>1680.5999755859375</ele>
        <time>2020-10-24T09:02:48.000Z</time>
      </trkpt>
      <trkpt lat="42.18054830096662044525146484375" lon="1.73982091248035430908203125">
        <ele>1681</ele>
        <time>2020-10-24T09:02:50.000Z</time>
      </trkpt>
      <trkpt lat="42.1805545873939990997314453125" lon="1.73982183448970317840576171875">
        <ele>1681.199951171875</ele>
        <time>2020-10-24T09:02:51.000Z</time>
      </trkpt>
      <trkpt lat="42.18056741170585155487060546875" lon="1.7398160509765148162841796875">
        <ele>1681.5999755859375</ele>
        <time>2020-10-24T09:02:53.000Z</time>
      </trkpt>
      <trkpt lat="42.18057210557162761688232421875" lon="1.73981462605297565460205078125">
        <ele>1681.5999755859375</ele>
        <time>2020-10-24T09:02:54.000Z</time>
      </trkpt>
      <trkpt lat="42.18057143501937389373779296875" lon="1.73981831409037113189697265625">
        <ele>1681.800048828125</ele>
        <time>2020-10-24T09:02:55.000Z</time>
      </trkpt>
      <trkpt lat="42.18057864345610141754150390625" lon="1.73982116393744945526123046875">
        <ele>1682.199951171875</ele>
        <time>2020-10-24T09:02:57.000Z</time>
      </trkpt>
      <trkpt lat="42.18060093931853771209716796875" lon="1.73983356915414333343505859375">
        <ele>1682.4000244140625</ele>
        <time>2020-10-24T09:02:59.000Z</time>
      </trkpt>
      <trkpt lat="42.1806102432310581207275390625" lon="1.7398314736783504486083984375">
        <ele>1682.5999755859375</ele>
        <time>2020-10-24T09:03:00.000Z</time>
      </trkpt>
      <trkpt lat="42.18061770312488079071044921875" lon="1.73983088694512844085693359375">
        <ele>1682.800048828125</ele>
        <time>2020-10-24T09:03:01.000Z</time>
      </trkpt>
      <trkpt lat="42.1806437708437442779541015625" lon="1.739851422607898712158203125">
        <ele>1683.4000244140625</ele>
        <time>2020-10-24T09:03:04.000Z</time>
      </trkpt>
      <trkpt lat="42.1806531585752964019775390625" lon="1.73986919224262237548828125">
        <ele>1683.5999755859375</ele>
        <time>2020-10-24T09:03:05.000Z</time>
      </trkpt>
      <trkpt lat="42.18066045083105564117431640625" lon="1.73987044952809810638427734375">
        <ele>1684</ele>
        <time>2020-10-24T09:03:07.000Z</time>
      </trkpt>
      <trkpt lat="42.18067771755158901214599609375" lon="1.73985670320689678192138671875">
        <ele>1684.800048828125</ele>
        <time>2020-10-24T09:03:11.000Z</time>
      </trkpt>
      <trkpt lat="42.1806799806654453277587890625" lon="1.73985167406499385833740234375">
        <ele>1685</ele>
        <time>2020-10-24T09:03:12.000Z</time>
      </trkpt>
      <trkpt lat="42.1806893683969974517822265625" lon="1.73986827023327350616455078125">
        <ele>1685.4000244140625</ele>
        <time>2020-10-24T09:03:16.000Z</time>
      </trkpt>
      <trkpt lat="42.18069330789148807525634765625" lon="1.73987866379320621490478515625">
        <ele>1685.800048828125</ele>
        <time>2020-10-24T09:03:18.000Z</time>
      </trkpt>
      <trkpt lat="42.1806990914046764373779296875" lon="1.739881597459316253662109375">
        <ele>1686</ele>
        <time>2020-10-24T09:03:19.000Z</time>
      </trkpt>
      <trkpt lat="42.18073555268347263336181640625" lon="1.73987631686031818389892578125">
        <ele>1686.4000244140625</ele>
        <time>2020-10-24T09:03:23.000Z</time>
      </trkpt>
      <trkpt lat="42.1807510592043399810791015625" lon="1.7398854531347751617431640625">
        <ele>1686.5999755859375</ele>
        <time>2020-10-24T09:03:25.000Z</time>
      </trkpt>
      <trkpt lat="42.1807609498500823974609375" lon="1.73988520167768001556396484375">
        <ele>1687</ele>
        <time>2020-10-24T09:03:27.000Z</time>
      </trkpt>
      <trkpt lat="42.18076690100133419036865234375" lon="1.739878915250301361083984375">
        <ele>1687</ele>
        <time>2020-10-24T09:03:28.000Z</time>
      </trkpt>
      <trkpt lat="42.1807705052196979522705078125" lon="1.7398696951568126678466796875">
        <ele>1687.199951171875</ele>
        <time>2020-10-24T09:03:29.000Z</time>
      </trkpt>
      <trkpt lat="42.1807892806828022003173828125" lon="1.73987857997417449951171875">
        <ele>1688</ele>
        <time>2020-10-24T09:03:32.000Z</time>
      </trkpt>
      <trkpt lat="42.18079556711018085479736328125" lon="1.7398941703140735626220703125">
        <ele>1688.199951171875</ele>
        <time>2020-10-24T09:03:33.000Z</time>
      </trkpt>
      <trkpt lat="42.18082305975258350372314453125" lon="1.7399283684790134429931640625">
        <ele>1688.800048828125</ele>
        <time>2020-10-24T09:03:37.000Z</time>
      </trkpt>
      <trkpt lat="42.18082708306610584259033203125" lon="1.73993146978318691253662109375">
        <ele>1689</ele>
        <time>2020-10-24T09:03:38.000Z</time>
      </trkpt>
      <trkpt lat="42.18083345331251621246337890625" lon="1.73993079923093318939208984375">
        <ele>1689.4000244140625</ele>
        <time>2020-10-24T09:03:39.000Z</time>
      </trkpt>
      <trkpt lat="42.18083848245441913604736328125" lon="1.73993146978318691253662109375">
        <ele>1689.5999755859375</ele>
        <time>2020-10-24T09:03:40.000Z</time>
      </trkpt>
      <trkpt lat="42.18084803782403469085693359375" lon="1.7399468086659908294677734375">
        <ele>1690</ele>
        <time>2020-10-24T09:03:43.000Z</time>
      </trkpt>
      <trkpt lat="42.18085222877562046051025390625" lon="1.739946305751800537109375">
        <ele>1690.199951171875</ele>
        <time>2020-10-24T09:03:44.000Z</time>
      </trkpt>
      <trkpt lat="42.18086396344006061553955078125" lon="1.73995234072208404541015625">
        <ele>1690.5999755859375</ele>
        <time>2020-10-24T09:03:46.000Z</time>
      </trkpt>
      <trkpt lat="42.1808694116771221160888671875" lon="1.73996147699654102325439453125">
        <ele>1690.800048828125</ele>
        <time>2020-10-24T09:03:47.000Z</time>
      </trkpt>
      <trkpt lat="42.18089749105274677276611328125" lon="1.7399825155735015869140625">
        <ele>1691.199951171875</ele>
        <time>2020-10-24T09:03:49.000Z</time>
      </trkpt>
      <trkpt lat="42.1808979101479053497314453125" lon="1.73999668098986148834228515625">
        <ele>1691.4000244140625</ele>
        <time>2020-10-24T09:03:50.000Z</time>
      </trkpt>
      <trkpt lat="42.1808965690433979034423828125" lon="1.74002450890839099884033203125">
        <ele>1692</ele>
        <time>2020-10-24T09:03:54.000Z</time>
      </trkpt>
      <trkpt lat="42.18090386129915714263916015625" lon="1.74002987332642078399658203125">
        <ele>1692.199951171875</ele>
        <time>2020-10-24T09:03:55.000Z</time>
      </trkpt>
      <trkpt lat="42.18092548660933971405029296875" lon="1.740046553313732147216796875">
        <ele>1692.800048828125</ele>
        <time>2020-10-24T09:03:58.000Z</time>
      </trkpt>
      <trkpt lat="42.18093487434089183807373046875" lon="1.7400698550045490264892578125">
        <ele>1693</ele>
        <time>2020-10-24T09:04:00.000Z</time>
      </trkpt>
      <trkpt lat="42.1809331141412258148193359375" lon="1.7400708608329296112060546875">
        <ele>1693.199951171875</ele>
        <time>2020-10-24T09:04:01.000Z</time>
      </trkpt>
      <trkpt lat="42.1809294261038303375244140625" lon="1.7400547675788402557373046875">
        <ele>1693.5999755859375</ele>
        <time>2020-10-24T09:04:04.000Z</time>
      </trkpt>
      <trkpt lat="42.180939652025699615478515625" lon="1.7400348186492919921875">
        <ele>1693.800048828125</ele>
        <time>2020-10-24T09:04:06.000Z</time>
      </trkpt>
      <trkpt lat="42.18094191513955593109130859375" lon="1.74003054387867450714111328125">
        <ele>1693.800048828125</ele>
        <time>2020-10-24T09:04:07.000Z</time>
      </trkpt>
      <trkpt lat="42.1809525601565837860107421875" lon="1.74001713283360004425048828125">
        <ele>1694.199951171875</ele>
        <time>2020-10-24T09:04:11.000Z</time>
      </trkpt>
      <trkpt lat="42.18095063231885433197021484375" lon="1.74001512117683887481689453125">
        <ele>1694.4000244140625</ele>
        <time>2020-10-24T09:04:12.000Z</time>
      </trkpt>
      <trkpt lat="42.1809421665966510772705078125" lon="1.73996063880622386932373046875">
        <ele>1695.4000244140625</ele>
        <time>2020-10-24T09:04:20.000Z</time>
      </trkpt>
      <trkpt lat="42.18094392679631710052490234375" lon="1.73991923220455646514892578125">
        <ele>1696.5999755859375</ele>
        <time>2020-10-24T09:04:26.000Z</time>
      </trkpt>
      <trkpt lat="42.18095281161367893218994140625" lon="1.73987983725965023040771484375">
        <ele>1697.5999755859375</ele>
        <time>2020-10-24T09:04:31.000Z</time>
      </trkpt>
      <trkpt lat="42.18095281161367893218994140625" lon="1.73986039124429225921630859375">
        <ele>1698.4000244140625</ele>
        <time>2020-10-24T09:04:34.000Z</time>
      </trkpt>
      <trkpt lat="42.1809438429772853851318359375" lon="1.7398499138653278350830078125">
        <ele>1698.5999755859375</ele>
        <time>2020-10-24T09:04:36.000Z</time>
      </trkpt>
      <trkpt lat="42.18094560317695140838623046875" lon="1.739832647144794464111328125">
        <ele>1699</ele>
        <time>2020-10-24T09:04:38.000Z</time>
      </trkpt>
      <trkpt lat="42.180945016443729400634765625" lon="1.7398147098720073699951171875">
        <ele>1699.5999755859375</ele>
        <time>2020-10-24T09:04:40.000Z</time>
      </trkpt>
      <trkpt lat="42.18094266951084136962890625" lon="1.73980758525431156158447265625">
        <ele>1700.199951171875</ele>
        <time>2020-10-24T09:04:42.000Z</time>
      </trkpt>
      <trkpt lat="42.1809428371489048004150390625" lon="1.7398026399314403533935546875">
        <ele>1700.4000244140625</ele>
        <time>2020-10-24T09:04:43.000Z</time>
      </trkpt>
      <trkpt lat="42.1809455193579196929931640625" lon="1.73979316838085651397705078125">
        <ele>1700.5999755859375</ele>
        <time>2020-10-24T09:04:45.000Z</time>
      </trkpt>
      <trkpt lat="42.18094409443438053131103515625" lon="1.73979400657117366790771484375">
        <ele>1700.800048828125</ele>
        <time>2020-10-24T09:04:46.000Z</time>
      </trkpt>
      <trkpt lat="42.1809433400630950927734375" lon="1.739791743457317352294921875">
        <ele>1701</ele>
        <time>2020-10-24T09:04:47.000Z</time>
      </trkpt>
      <trkpt lat="42.18094795010983943939208984375" lon="1.73976349644362926483154296875">
        <ele>1701.800048828125</ele>
        <time>2020-10-24T09:04:52.000Z</time>
      </trkpt>
      <trkpt lat="42.1809487044811248779296875" lon="1.73975142650306224822998046875">
        <ele>1702</ele>
        <time>2020-10-24T09:04:53.000Z</time>
      </trkpt>
      <trkpt lat="42.18094660900533199310302734375" lon="1.7397369258105754852294921875">
        <ele>1702.5999755859375</ele>
        <time>2020-10-24T09:04:56.000Z</time>
      </trkpt>
      <trkpt lat="42.1809488721191883087158203125" lon="1.73971898853778839111328125">
        <ele>1703</ele>
        <time>2020-10-24T09:04:59.000Z</time>
      </trkpt>
      <trkpt lat="42.18095029704272747039794921875" lon="1.7397154681384563446044921875">
        <ele>1703.199951171875</ele>
        <time>2020-10-24T09:05:00.000Z</time>
      </trkpt>
      <trkpt lat="42.180949039757251739501953125" lon="1.7396846227347850799560546875">
        <ele>1704.199951171875</ele>
        <time>2020-10-24T09:05:06.000Z</time>
      </trkpt>
      <trkpt lat="42.18094979412853717803955078125" lon="1.73967070877552032470703125">
        <ele>1704.5999755859375</ele>
        <time>2020-10-24T09:05:08.000Z</time>
      </trkpt>
      <trkpt lat="42.180958092212677001953125" lon="1.73963072709739208221435546875">
        <ele>1705.199951171875</ele>
        <time>2020-10-24T09:05:11.000Z</time>
      </trkpt>
      <trkpt lat="42.180963456630706787109375" lon="1.7396299727261066436767578125">
        <ele>1705.4000244140625</ele>
        <time>2020-10-24T09:05:12.000Z</time>
      </trkpt>
      <trkpt lat="42.180962450802326202392578125" lon="1.73962603323161602020263671875">
        <ele>1705.5999755859375</ele>
        <time>2020-10-24T09:05:13.000Z</time>
      </trkpt>
      <trkpt lat="42.18096706084907054901123046875" lon="1.73958697356283664703369140625">
        <ele>1706.4000244140625</ele>
        <time>2020-10-24T09:05:18.000Z</time>
      </trkpt>
      <trkpt lat="42.18097091652452945709228515625" lon="1.7395756579935550689697265625">
        <ele>1706.4000244140625</ele>
        <time>2020-10-24T09:05:19.000Z</time>
      </trkpt>
      <trkpt lat="42.1809720061719417572021484375" lon="1.7395364306867122650146484375">
        <ele>1707</ele>
        <time>2020-10-24T09:05:23.000Z</time>
      </trkpt>
      <trkpt lat="42.18097158707678318023681640625" lon="1.7395292222499847412109375">
        <ele>1707.199951171875</ele>
        <time>2020-10-24T09:05:24.000Z</time>
      </trkpt>
      <trkpt lat="42.18097594566643238067626953125" lon="1.739513464272022247314453125">
        <ele>1707.5999755859375</ele>
        <time>2020-10-24T09:05:26.000Z</time>
      </trkpt>
      <trkpt lat="42.18097963370382785797119140625" lon="1.73947800882160663604736328125">
        <ele>1708.4000244140625</ele>
        <time>2020-10-24T09:05:30.000Z</time>
      </trkpt>
      <trkpt lat="42.1809917874634265899658203125" lon="1.7394660227000713348388671875">
        <ele>1708.800048828125</ele>
        <time>2020-10-24T09:05:32.000Z</time>
      </trkpt>
      <trkpt lat="42.181028835475444793701171875" lon="1.73939385451376438140869140625">
        <ele>1709.4000244140625</ele>
        <time>2020-10-24T09:05:39.000Z</time>
      </trkpt>
      <trkpt lat="42.18103478662669658660888671875" lon="1.7393862269818782806396484375">
        <ele>1709.5999755859375</ele>
        <time>2020-10-24T09:05:40.000Z</time>
      </trkpt>
      <trkpt lat="42.18104048632085323333740234375" lon="1.73937876708805561065673828125">
        <ele>1709.800048828125</ele>
        <time>2020-10-24T09:05:41.000Z</time>
      </trkpt>
      <trkpt lat="42.18106177635490894317626953125" lon="1.7393602430820465087890625">
        <ele>1710.5999755859375</ele>
        <time>2020-10-24T09:05:45.000Z</time>
      </trkpt>
      <trkpt lat="42.18106864951550960540771484375" lon="1.73935093916952610015869140625">
        <ele>1711</ele>
        <time>2020-10-24T09:05:47.000Z</time>
      </trkpt>
      <trkpt lat="42.18106948770582675933837890625" lon="1.739345490932464599609375">
        <ele>1711.199951171875</ele>
        <time>2020-10-24T09:05:48.000Z</time>
      </trkpt>
      <trkpt lat="42.1810735948383808135986328125" lon="1.73931355588138103485107421875">
        <ele>1712</ele>
        <time>2020-10-24T09:05:53.000Z</time>
      </trkpt>
      <trkpt lat="42.1810779534280300140380859375" lon="1.73927566967904567718505859375">
        <ele>1713</ele>
        <time>2020-10-24T09:05:59.000Z</time>
      </trkpt>
      <trkpt lat="42.18108574859797954559326171875" lon="1.7392527870833873748779296875">
        <ele>1713.800048828125</ele>
        <time>2020-10-24T09:06:03.000Z</time>
      </trkpt>
      <trkpt lat="42.1810994111001491546630859375" lon="1.739243566989898681640625">
        <ele>1714</ele>
        <time>2020-10-24T09:06:05.000Z</time>
      </trkpt>
      <trkpt lat="42.1811163425445556640625" lon="1.7392065189778804779052734375">
        <ele>1715.199951171875</ele>
        <time>2020-10-24T09:06:10.000Z</time>
      </trkpt>
      <trkpt lat="42.18111642636358737945556640625" lon="1.73920023255050182342529296875">
        <ele>1715.4000244140625</ele>
        <time>2020-10-24T09:06:11.000Z</time>
      </trkpt>
      <trkpt lat="42.18111122958362102508544921875" lon="1.73916368745267391204833984375">
        <ele>1716.199951171875</ele>
        <time>2020-10-24T09:06:15.000Z</time>
      </trkpt>
      <trkpt lat="42.18112430535256862640380859375" lon="1.7391294054687023162841796875">
        <ele>1717.199951171875</ele>
        <time>2020-10-24T09:06:21.000Z</time>
      </trkpt>
      <trkpt lat="42.18113520182669162750244140625" lon="1.73908866941928863525390625">
        <ele>1718.4000244140625</ele>
        <time>2020-10-24T09:06:28.000Z</time>
      </trkpt>
      <trkpt lat="42.1811550669372081756591796875" lon="1.739057488739490509033203125">
        <ele>1719.4000244140625</ele>
        <time>2020-10-24T09:06:33.000Z</time>
      </trkpt>
      <trkpt lat="42.181168310344219207763671875" lon="1.7390479333698749542236328125">
        <ele>1720</ele>
        <time>2020-10-24T09:06:37.000Z</time>
      </trkpt>
      <trkpt lat="42.18117342330515384674072265625" lon="1.73901624977588653564453125">
        <ele>1720.5999755859375</ele>
        <time>2020-10-24T09:06:40.000Z</time>
      </trkpt>
      <trkpt lat="42.18119136057794094085693359375" lon="1.7389688082039356231689453125">
        <ele>1721.4000244140625</ele>
        <time>2020-10-24T09:06:45.000Z</time>
      </trkpt>
      <trkpt lat="42.181194126605987548828125" lon="1.73895724117755889892578125">
        <ele>1721.5999755859375</ele>
        <time>2020-10-24T09:06:46.000Z</time>
      </trkpt>
      <trkpt lat="42.18120309524238109588623046875" lon="1.7389198578894138336181640625">
        <ele>1722.5999755859375</ele>
        <time>2020-10-24T09:06:51.000Z</time>
      </trkpt>
      <trkpt lat="42.18120242469012737274169921875" lon="1.73891256563365459442138671875">
        <ele>1722.5999755859375</ele>
        <time>2020-10-24T09:06:52.000Z</time>
      </trkpt>
      <trkpt lat="42.18121047131717205047607421875" lon="1.738896556198596954345703125">
        <ele>1723.800048828125</ele>
        <time>2020-10-24T09:06:57.000Z</time>
      </trkpt>
      <trkpt lat="42.181230001151561737060546875" lon="1.73884517513215541839599609375">
        <ele>1725</ele>
        <time>2020-10-24T09:07:04.000Z</time>
      </trkpt>
      <trkpt lat="42.18122656457126140594482421875" lon="1.73883813433349132537841796875">
        <ele>1725.199951171875</ele>
        <time>2020-10-24T09:07:05.000Z</time>
      </trkpt>
      <trkpt lat="42.18121801503002643585205078125" lon="1.73879538662731647491455078125">
        <ele>1726</ele>
        <time>2020-10-24T09:07:11.000Z</time>
      </trkpt>
      <trkpt lat="42.18123234808444976806640625" lon="1.73876680433750152587890625">
        <ele>1726.4000244140625</ele>
        <time>2020-10-24T09:07:14.000Z</time>
      </trkpt>
      <trkpt lat="42.18125087209045886993408203125" lon="1.73873537220060825347900390625">
        <ele>1727</ele>
        <time>2020-10-24T09:07:18.000Z</time>
      </trkpt>
      <trkpt lat="42.1812812983989715576171875" lon="1.73870855011045932769775390625">
        <ele>1727.5999755859375</ele>
        <time>2020-10-24T09:07:22.000Z</time>
      </trkpt>
      <trkpt lat="42.18130082823336124420166015625" lon="1.73867334611713886260986328125">
        <ele>1728.199951171875</ele>
        <time>2020-10-24T09:07:26.000Z</time>
      </trkpt>
      <trkpt lat="42.1813108026981353759765625" lon="1.73866462893784046173095703125">
        <ele>1728.4000244140625</ele>
        <time>2020-10-24T09:07:28.000Z</time>
      </trkpt>
      <trkpt lat="42.181338630616664886474609375" lon="1.738616265356540679931640625">
        <ele>1729.199951171875</ele>
        <time>2020-10-24T09:07:34.000Z</time>
      </trkpt>
      <trkpt lat="42.18134692870080471038818359375" lon="1.73859916627407073974609375">
        <ele>1730.4000244140625</ele>
        <time>2020-10-24T09:07:39.000Z</time>
      </trkpt>
      <trkpt lat="42.18136017210781574249267578125" lon="1.73858106136322021484375">
        <ele>1731</ele>
        <time>2020-10-24T09:07:43.000Z</time>
      </trkpt>
      <trkpt lat="42.18137090094387531280517578125" lon="1.73856555484235286712646484375">
        <ele>1731.4000244140625</ele>
        <time>2020-10-24T09:07:46.000Z</time>
      </trkpt>
      <trkpt lat="42.18138791620731353759765625" lon="1.7385544069111347198486328125">
        <ele>1732.4000244140625</ele>
        <time>2020-10-24T09:07:51.000Z</time>
      </trkpt>
      <trkpt lat="42.181390933692455291748046875" lon="1.7385517247021198272705078125">
        <ele>1732.5999755859375</ele>
        <time>2020-10-24T09:07:52.000Z</time>
      </trkpt>
      <trkpt lat="42.18139554373919963836669921875" lon="1.7385550774633884429931640625">
        <ele>1732.5999755859375</ele>
        <time>2020-10-24T09:07:53.000Z</time>
      </trkpt>
      <trkpt lat="42.18141138553619384765625" lon="1.7385493777692317962646484375">
        <ele>1733.5999755859375</ele>
        <time>2020-10-24T09:07:58.000Z</time>
      </trkpt>
      <trkpt lat="42.18141515739262104034423828125" lon="1.73854376189410686492919921875">
        <ele>1733.800048828125</ele>
        <time>2020-10-24T09:07:59.000Z</time>
      </trkpt>
      <trkpt lat="42.18144499696791172027587890625" lon="1.73852062784135341644287109375">
        <ele>1734.800048828125</ele>
        <time>2020-10-24T09:08:04.000Z</time>
      </trkpt>
      <trkpt lat="42.18146494589745998382568359375" lon="1.73846916295588016510009765625">
        <ele>1735.4000244140625</ele>
        <time>2020-10-24T09:08:08.000Z</time>
      </trkpt>
      <trkpt lat="42.1814712323248386383056640625" lon="1.7384518124163150787353515625">
        <ele>1736</ele>
        <time>2020-10-24T09:08:10.000Z</time>
      </trkpt>
      <trkpt lat="42.18148003332316875457763671875" lon="1.73844787292182445526123046875">
        <ele>1736.5999755859375</ele>
        <time>2020-10-24T09:08:14.000Z</time>
      </trkpt>
      <trkpt lat="42.1814853139221668243408203125" lon="1.738420464098453521728515625">
        <ele>1737.199951171875</ele>
        <time>2020-10-24T09:08:18.000Z</time>
      </trkpt>
      <trkpt lat="42.18149009160697460174560546875" lon="1.7384125851094722747802734375">
        <ele>1737.5999755859375</ele>
        <time>2020-10-24T09:08:20.000Z</time>
      </trkpt>
      <trkpt lat="42.181499563157558441162109375" lon="1.738408394157886505126953125">
        <ele>1737.800048828125</ele>
        <time>2020-10-24T09:08:22.000Z</time>
      </trkpt>
      <trkpt lat="42.18151456676423549652099609375" lon="1.7384028621017932891845703125">
        <ele>1738.199951171875</ele>
        <time>2020-10-24T09:08:24.000Z</time>
      </trkpt>
      <trkpt lat="42.1815265528857707977294921875" lon="1.7383907921612262725830078125">
        <ele>1738.5999755859375</ele>
        <time>2020-10-24T09:08:26.000Z</time>
      </trkpt>
      <trkpt lat="42.18154289759695529937744140625" lon="1.73838266171514987945556640625">
        <ele>1739.199951171875</ele>
        <time>2020-10-24T09:08:29.000Z</time>
      </trkpt>
      <trkpt lat="42.1815530396997928619384765625" lon="1.73839263617992401123046875">
        <ele>1739.800048828125</ele>
        <time>2020-10-24T09:08:32.000Z</time>
      </trkpt>
      <trkpt lat="42.181569635868072509765625" lon="1.7383988387882709503173828125">
        <ele>1740.4000244140625</ele>
        <time>2020-10-24T09:08:34.000Z</time>
      </trkpt>
      <trkpt lat="42.1815872378647327423095703125" lon="1.7383914627134799957275390625">
        <ele>1740.800048828125</ele>
        <time>2020-10-24T09:08:37.000Z</time>
      </trkpt>
      <trkpt lat="42.181609533727169036865234375" lon="1.73841275274753570556640625">
        <ele>1741.4000244140625</ele>
        <time>2020-10-24T09:08:41.000Z</time>
      </trkpt>
      <trkpt lat="42.18163342215120792388916015625" lon="1.73842071555554866790771484375">
        <ele>1741.800048828125</ele>
        <time>2020-10-24T09:08:43.000Z</time>
      </trkpt>
      <trkpt lat="42.18166091479361057281494140625" lon="1.73841811716556549072265625">
        <ele>1742.5999755859375</ele>
        <time>2020-10-24T09:08:47.000Z</time>
      </trkpt>
      <trkpt lat="42.1816650219261646270751953125" lon="1.738414429128170013427734375">
        <ele>1742.5999755859375</ele>
        <time>2020-10-24T09:08:48.000Z</time>
      </trkpt>
      <trkpt lat="42.1816713921725749969482421875" lon="1.73838148824870586395263671875">
        <ele>1743.199951171875</ele>
        <time>2020-10-24T09:08:51.000Z</time>
      </trkpt>
      <trkpt lat="42.181669883430004119873046875" lon="1.73832935281097888946533203125">
        <ele>1743.5999755859375</ele>
        <time>2020-10-24T09:08:54.000Z</time>
      </trkpt>
      <trkpt lat="42.18168052844703197479248046875" lon="1.7382938973605632781982421875">
        <ele>1744.4000244140625</ele>
        <time>2020-10-24T09:08:58.000Z</time>
      </trkpt>
      <trkpt lat="42.18170047737658023834228515625" lon="1.73828794620931148529052734375">
        <ele>1744.5999755859375</ele>
        <time>2020-10-24T09:09:00.000Z</time>
      </trkpt>
      <trkpt lat="42.18171556480228900909423828125" lon="1.7382506467401981353759765625">
        <ele>1745.199951171875</ele>
        <time>2020-10-24T09:09:05.000Z</time>
      </trkpt>
      <trkpt lat="42.18173651956021785736083984375" lon="1.73821334727108478546142578125">
        <ele>1745.800048828125</ele>
        <time>2020-10-24T09:09:10.000Z</time>
      </trkpt>
      <trkpt lat="42.18177172355353832244873046875" lon="1.73818610608577728271484375">
        <ele>1746.5999755859375</ele>
        <time>2020-10-24T09:09:16.000Z</time>
      </trkpt>
      <trkpt lat="42.18177339993417263031005859375" lon="1.73818015493452548980712890625">
        <ele>1746.800048828125</ele>
        <time>2020-10-24T09:09:17.000Z</time>
      </trkpt>
      <trkpt lat="42.18179284594953060150146484375" lon="1.7381574399769306182861328125">
        <ele>1747.4000244140625</ele>
        <time>2020-10-24T09:09:23.000Z</time>
      </trkpt>
      <trkpt lat="42.18181665055453777313232421875" lon="1.73813757486641407012939453125">
        <ele>1747.800048828125</ele>
        <time>2020-10-24T09:09:28.000Z</time>
      </trkpt>
      <trkpt lat="42.18185034580528736114501953125" lon="1.7381168715655803680419921875">
        <ele>1749</ele>
        <time>2020-10-24T09:09:34.000Z</time>
      </trkpt>
      <trkpt lat="42.1818856336176395416259765625" lon="1.7380808293819427490234375">
        <ele>1750</ele>
        <time>2020-10-24T09:09:40.000Z</time>
      </trkpt>
      <trkpt lat="42.1819107793271541595458984375" lon="1.73806917853653430938720703125">
        <ele>1750.5999755859375</ele>
        <time>2020-10-24T09:09:44.000Z</time>
      </trkpt>
      <trkpt lat="42.18193114735186100006103515625" lon="1.73806213773787021636962890625">
        <ele>1751</ele>
        <time>2020-10-24T09:09:47.000Z</time>
      </trkpt>
      <trkpt lat="42.18195746652781963348388671875" lon="1.7380647361278533935546875">
        <ele>1751.800048828125</ele>
        <time>2020-10-24T09:09:52.000Z</time>
      </trkpt>
      <trkpt lat="42.1819657646119594573974609375" lon="1.73805744387209415435791015625">
        <ele>1752.199951171875</ele>
        <time>2020-10-24T09:09:54.000Z</time>
      </trkpt>
      <trkpt lat="42.18199987895786762237548828125" lon="1.73803179524838924407958984375">
        <ele>1753.199951171875</ele>
        <time>2020-10-24T09:10:00.000Z</time>
      </trkpt>
      <trkpt lat="42.1820019744336605072021484375" lon="1.738021485507488250732421875">
        <ele>1753.4000244140625</ele>
        <time>2020-10-24T09:10:01.000Z</time>
      </trkpt>
      <trkpt lat="42.182021252810955047607421875" lon="1.7379743792116641998291015625">
        <ele>1754.4000244140625</ele>
        <time>2020-10-24T09:10:07.000Z</time>
      </trkpt>
      <trkpt lat="42.1820217557251453399658203125" lon="1.7379703558981418609619140625">
        <ele>1754.5999755859375</ele>
        <time>2020-10-24T09:10:08.000Z</time>
      </trkpt>
      <trkpt lat="42.18204681761562824249267578125" lon="1.7379539273679256439208984375">
        <ele>1755.5999755859375</ele>
        <time>2020-10-24T09:10:14.000Z</time>
      </trkpt>
      <trkpt lat="42.18206140212714672088623046875" lon="1.737939678132534027099609375">
        <ele>1756</ele>
        <time>2020-10-24T09:10:16.000Z</time>
      </trkpt>
      <trkpt lat="42.18208369798958301544189453125" lon="1.7378984391689300537109375">
        <ele>1756.800048828125</ele>
        <time>2020-10-24T09:10:21.000Z</time>
      </trkpt>
      <trkpt lat="42.1820931695401668548583984375" lon="1.73788611777126789093017578125">
        <ele>1757.199951171875</ele>
        <time>2020-10-24T09:10:23.000Z</time>
      </trkpt>
      <trkpt lat="42.18210783787071704864501953125" lon="1.737872622907161712646484375">
        <ele>1758</ele>
        <time>2020-10-24T09:10:27.000Z</time>
      </trkpt>
      <trkpt lat="42.1821002103388309478759765625" lon="1.73783448524773120880126953125">
        <ele>1758.800048828125</ele>
        <time>2020-10-24T09:10:32.000Z</time>
      </trkpt>
      <trkpt lat="42.1821042336523532867431640625" lon="1.73783029429614543914794921875">
        <ele>1759</ele>
        <time>2020-10-24T09:10:33.000Z</time>
      </trkpt>
      <trkpt lat="42.18208269216120243072509765625" lon="1.73776910640299320220947265625">
        <ele>1760.199951171875</ele>
        <time>2020-10-24T09:10:39.000Z</time>
      </trkpt>
      <trkpt lat="42.18208336271345615386962890625" lon="1.73775938339531421661376953125">
        <ele>1760.4000244140625</ele>
        <time>2020-10-24T09:10:41.000Z</time>
      </trkpt>
      <trkpt lat="42.18208420090377330780029296875" lon="1.73772200010716915130615234375">
        <ele>1761.199951171875</ele>
        <time>2020-10-24T09:10:46.000Z</time>
      </trkpt>
      <trkpt lat="42.18208235688507556915283203125" lon="1.7376961000263690948486328125">
        <ele>1762</ele>
        <time>2020-10-24T09:10:50.000Z</time>
      </trkpt>
      <trkpt lat="42.18208000995218753814697265625" lon="1.737684197723865509033203125">
        <ele>1762.199951171875</ele>
        <time>2020-10-24T09:10:52.000Z</time>
      </trkpt>
      <trkpt lat="42.1820844523608684539794921875" lon="1.737645305693149566650390625">
        <ele>1763</ele>
        <time>2020-10-24T09:10:57.000Z</time>
      </trkpt>
      <trkpt lat="42.1820894815027713775634765625" lon="1.73763214610517024993896484375">
        <ele>1763.4000244140625</ele>
        <time>2020-10-24T09:10:59.000Z</time>
      </trkpt>
      <trkpt lat="42.18209811486303806304931640625" lon="1.737605743110179901123046875">
        <ele>1764.199951171875</ele>
        <time>2020-10-24T09:11:04.000Z</time>
      </trkpt>
      <trkpt lat="42.18208319507539272308349609375" lon="1.73758973367512226104736328125">
        <ele>1764.4000244140625</ele>
        <time>2020-10-24T09:11:06.000Z</time>
      </trkpt>
      <trkpt lat="42.182079590857028961181640625" lon="1.73755955882370471954345703125">
        <ele>1765.4000244140625</ele>
        <time>2020-10-24T09:11:12.000Z</time>
      </trkpt>
      <trkpt lat="42.1820797584950923919677734375" lon="1.7375556193292140960693359375">
        <ele>1765.5999755859375</ele>
        <time>2020-10-24T09:11:13.000Z</time>
      </trkpt>
      <trkpt lat="42.182090319693088531494140625" lon="1.73750616610050201416015625">
        <ele>1766.199951171875</ele>
        <time>2020-10-24T09:11:19.000Z</time>
      </trkpt>
      <trkpt lat="42.18208034522831439971923828125" lon="1.737460233271121978759765625">
        <ele>1766.5999755859375</ele>
        <time>2020-10-24T09:11:22.000Z</time>
      </trkpt>
      <trkpt lat="42.18207095749676227569580078125" lon="1.7374288849532604217529296875">
        <ele>1767</ele>
        <time>2020-10-24T09:11:24.000Z</time>
      </trkpt>
      <trkpt lat="42.18206894584000110626220703125" lon="1.73741404898464679718017578125">
        <ele>1767.5999755859375</ele>
        <time>2020-10-24T09:11:27.000Z</time>
      </trkpt>
      <trkpt lat="42.18207648955285549163818359375" lon="1.73737532459199428558349609375">
        <ele>1768.199951171875</ele>
        <time>2020-10-24T09:11:30.000Z</time>
      </trkpt>
      <trkpt lat="42.18206928111612796783447265625" lon="1.73733827657997608184814453125">
        <ele>1768.5999755859375</ele>
        <time>2020-10-24T09:11:35.000Z</time>
      </trkpt>
      <trkpt lat="42.182067520916461944580078125" lon="1.7373259551823139190673828125">
        <ele>1769</ele>
        <time>2020-10-24T09:11:36.000Z</time>
      </trkpt>
      <trkpt lat="42.1820653416216373443603515625" lon="1.7372734844684600830078125">
        <ele>1769.5999755859375</ele>
        <time>2020-10-24T09:11:41.000Z</time>
      </trkpt>
      <trkpt lat="42.182068862020969390869140625" lon="1.73726518638432025909423828125">
        <ele>1769.800048828125</ele>
        <time>2020-10-24T09:11:42.000Z</time>
      </trkpt>
      <trkpt lat="42.182057462632656097412109375" lon="1.73722897656261920928955078125">
        <ele>1770.4000244140625</ele>
        <time>2020-10-24T09:11:47.000Z</time>
      </trkpt>
      <trkpt lat="42.182052433490753173828125" lon="1.73720450140535831451416015625">
        <ele>1770.800048828125</ele>
        <time>2020-10-24T09:11:50.000Z</time>
      </trkpt>
      <trkpt lat="42.18204103410243988037109375" lon="1.7371713928878307342529296875">
        <ele>1771.199951171875</ele>
        <time>2020-10-24T09:11:53.000Z</time>
      </trkpt>
      <trkpt lat="42.18201287090778350830078125" lon="1.73707902431488037109375">
        <ele>1771.199951171875</ele>
        <time>2020-10-24T09:12:01.000Z</time>
      </trkpt>
      <trkpt lat="42.18203072436153888702392578125" lon="1.73698070459067821502685546875">
        <ele>1771.199951171875</ele>
        <time>2020-10-24T09:12:07.000Z</time>
      </trkpt>
      <trkpt lat="42.182036340236663818359375" lon="1.7369677126407623291015625">
        <ele>1771.199951171875</ele>
        <time>2020-10-24T09:12:08.000Z</time>
      </trkpt>
      <trkpt lat="42.18206492252647876739501953125" lon="1.73694013617932796478271484375">
        <ele>1771.4000244140625</ele>
        <time>2020-10-24T09:12:13.000Z</time>
      </trkpt>
      <trkpt lat="42.18206978403031826019287109375" lon="1.73693074844777584075927734375">
        <ele>1771.5999755859375</ele>
        <time>2020-10-24T09:12:14.000Z</time>
      </trkpt>
      <trkpt lat="42.182085625827312469482421875" lon="1.73689386807382106781005859375">
        <ele>1771.800048828125</ele>
        <time>2020-10-24T09:12:18.000Z</time>
      </trkpt>
      <trkpt lat="42.1820911578834056854248046875" lon="1.7368631064891815185546875">
        <ele>1772</ele>
        <time>2020-10-24T09:12:20.000Z</time>
      </trkpt>
      <trkpt lat="42.1820992045104503631591796875" lon="1.7367982305586338043212890625">
        <ele>1772.5999755859375</ele>
        <time>2020-10-24T09:12:25.000Z</time>
      </trkpt>
      <trkpt lat="42.1821142919361591339111328125" lon="1.73676813952624797821044921875">
        <ele>1772.800048828125</ele>
        <time>2020-10-24T09:12:28.000Z</time>
      </trkpt>
      <trkpt lat="42.18212007544934749603271484375" lon="1.7367583326995372772216796875">
        <ele>1773</ele>
        <time>2020-10-24T09:12:29.000Z</time>
      </trkpt>
      <trkpt lat="42.18215678818523883819580078125" lon="1.736705191433429718017578125">
        <ele>1773.5999755859375</ele>
        <time>2020-10-24T09:12:35.000Z</time>
      </trkpt>
      <trkpt lat="42.18218361027538776397705078125" lon="1.73667468130588531494140625">
        <ele>1773.800048828125</ele>
        <time>2020-10-24T09:12:39.000Z</time>
      </trkpt>
      <trkpt lat="42.1821914054453372955322265625" lon="1.73667158000171184539794921875">
        <ele>1773.800048828125</ele>
        <time>2020-10-24T09:12:40.000Z</time>
      </trkpt>
      <trkpt lat="42.18220909126102924346923828125" lon="1.73665598966181278228759765625">
        <ele>1774</ele>
        <time>2020-10-24T09:12:42.000Z</time>
      </trkpt>
      <trkpt lat="42.1822527609765529632568359375" lon="1.73662413842976093292236328125">
        <ele>1774.5999755859375</ele>
        <time>2020-10-24T09:12:48.000Z</time>
      </trkpt>
      <trkpt lat="42.18226206488907337188720703125" lon="1.73662237823009490966796875">
        <ele>1774.5999755859375</ele>
        <time>2020-10-24T09:12:49.000Z</time>
      </trkpt>
      <trkpt lat="42.18229450285434722900390625" lon="1.7365632019937038421630859375">
        <ele>1774.800048828125</ele>
        <time>2020-10-24T09:12:54.000Z</time>
      </trkpt>
      <trkpt lat="42.18231705017387866973876953125" lon="1.7365564964711666107177734375">
        <ele>1774.800048828125</ele>
        <time>2020-10-24T09:12:56.000Z</time>
      </trkpt>
      <trkpt lat="42.1823771484196186065673828125" lon="1.73653076402842998504638671875">
        <ele>1775</ele>
        <time>2020-10-24T09:13:01.000Z</time>
      </trkpt>
      <trkpt lat="42.1824185550212860107421875" lon="1.73649388365447521209716796875">
        <ele>1775.4000244140625</ele>
        <time>2020-10-24T09:13:07.000Z</time>
      </trkpt>
      <trkpt lat="42.18243204988539218902587890625" lon="1.73645180650055408477783203125">
        <ele>1775.5999755859375</ele>
        <time>2020-10-24T09:13:10.000Z</time>
      </trkpt>
      <trkpt lat="42.18244738876819610595703125" lon="1.736428253352642059326171875">
        <ele>1775.800048828125</ele>
        <time>2020-10-24T09:13:12.000Z</time>
      </trkpt>
      <trkpt lat="42.182453759014606475830078125" lon="1.73640587367117404937744140625">
        <ele>1776</ele>
        <time>2020-10-24T09:13:14.000Z</time>
      </trkpt>
      <trkpt lat="42.18245652504265308380126953125" lon="1.7363781295716762542724609375">
        <ele>1776</ele>
        <time>2020-10-24T09:13:16.000Z</time>
      </trkpt>
      <trkpt lat="42.1824599616229534149169921875" lon="1.7363318614661693572998046875">
        <ele>1776.199951171875</ele>
        <time>2020-10-24T09:13:19.000Z</time>
      </trkpt>
      <trkpt lat="42.1824559383094310760498046875" lon="1.7363137565553188323974609375">
        <ele>1776.199951171875</ele>
        <time>2020-10-24T09:13:21.000Z</time>
      </trkpt>
      <trkpt lat="42.18245786614716053009033203125" lon="1.7362944781780242919921875">
        <ele>1776.199951171875</ele>
        <time>2020-10-24T09:13:24.000Z</time>
      </trkpt>
      <trkpt lat="42.18246188946068286895751953125" lon="1.7362808994948863983154296875">
        <ele>1776.199951171875</ele>
        <time>2020-10-24T09:13:25.000Z</time>
      </trkpt>
      <trkpt lat="42.1824626438319683074951171875" lon="1.73627293668687343597412109375">
        <ele>1776.199951171875</ele>
        <time>2020-10-24T09:13:26.000Z</time>
      </trkpt>
      <trkpt lat="42.18249759636819362640380859375" lon="1.73620454035699367523193359375">
        <ele>1776</ele>
        <time>2020-10-24T09:13:32.000Z</time>
      </trkpt>
      <trkpt lat="42.18254721723496913909912109375" lon="1.7361682467162609100341796875">
        <ele>1776</ele>
        <time>2020-10-24T09:13:38.000Z</time>
      </trkpt>
      <trkpt lat="42.1826011128723621368408203125" lon="1.736176125705242156982421875">
        <ele>1776.4000244140625</ele>
        <time>2020-10-24T09:13:43.000Z</time>
      </trkpt>
      <trkpt lat="42.1826329641044139862060546875" lon="1.736157350242137908935546875">
        <ele>1776.199951171875</ele>
        <time>2020-10-24T09:13:48.000Z</time>
      </trkpt>
      <trkpt lat="42.18264495022594928741455078125" lon="1.73614117316901683807373046875">
        <ele>1776.199951171875</ele>
        <time>2020-10-24T09:13:50.000Z</time>
      </trkpt>
      <trkpt lat="42.18265391886234283447265625" lon="1.736142933368682861328125">
        <ele>1776.4000244140625</ele>
        <time>2020-10-24T09:13:51.000Z</time>
      </trkpt>
      <trkpt lat="42.18267311342060565948486328125" lon="1.7361427657306194305419921875">
        <ele>1776.4000244140625</ele>
        <time>2020-10-24T09:13:53.000Z</time>
      </trkpt>
      <trkpt lat="42.18270865269005298614501953125" lon="1.7361672408878803253173828125">
        <ele>1776.5999755859375</ele>
        <time>2020-10-24T09:13:55.000Z</time>
      </trkpt>
      <trkpt lat="42.18272407539188861846923828125" lon="1.73617872409522533416748046875">
        <ele>1776.800048828125</ele>
        <time>2020-10-24T09:13:57.000Z</time>
      </trkpt>
      <trkpt lat="42.1827285178005695343017578125" lon="1.73618115484714508056640625">
        <ele>1777</ele>
        <time>2020-10-24T09:13:58.000Z</time>
      </trkpt>
      <trkpt lat="42.18272441066801548004150390625" lon="1.73617780208587646484375">
        <ele>1777.199951171875</ele>
        <time>2020-10-24T09:13:59.000Z</time>
      </trkpt>
      <trkpt lat="42.18273011036217212677001953125" lon="1.73618492670357227325439453125">
        <ele>1777.4000244140625</ele>
        <time>2020-10-24T09:14:00.000Z</time>
      </trkpt>
      <trkpt lat="42.18274838291108608245849609375" lon="1.7362047918140888214111328125">
        <ele>1778</ele>
        <time>2020-10-24T09:14:02.000Z</time>
      </trkpt>
      <trkpt lat="42.1827586926519870758056640625" lon="1.73621208406984806060791015625">
        <ele>1778.199951171875</ele>
        <time>2020-10-24T09:14:03.000Z</time>
      </trkpt>
      <trkpt lat="42.1827731095254421234130859375" lon="1.7362247407436370849609375">
        <ele>1778.4000244140625</ele>
        <time>2020-10-24T09:14:04.000Z</time>
      </trkpt>
      <trkpt lat="42.1828170306980609893798828125" lon="1.7362678237259387969970703125">
        <ele>1779.4000244140625</ele>
        <time>2020-10-24T09:14:09.000Z</time>
      </trkpt>
      <trkpt lat="42.18281711451709270477294921875" lon="1.73626371659338474273681640625">
        <ele>1779.5999755859375</ele>
        <time>2020-10-24T09:14:10.000Z</time>
      </trkpt>
      <trkpt lat="42.182819545269012451171875" lon="1.73626723699271678924560546875">
        <ele>1779.800048828125</ele>
        <time>2020-10-24T09:14:11.000Z</time>
      </trkpt>
      <trkpt lat="42.18283069320023059844970703125" lon="1.73629120923578739166259765625">
        <ele>1780.199951171875</ele>
        <time>2020-10-24T09:14:13.000Z</time>
      </trkpt>
      <trkpt lat="42.18283806927502155303955078125" lon="1.7363114096224308013916015625">
        <ele>1780.5999755859375</ele>
        <time>2020-10-24T09:14:15.000Z</time>
      </trkpt>
      <trkpt lat="42.182843349874019622802734375" lon="1.7363224737346172332763671875">
        <ele>1780.800048828125</ele>
        <time>2020-10-24T09:14:16.000Z</time>
      </trkpt>
      <trkpt lat="42.1828451938927173614501953125" lon="1.73633093945682048797607421875">
        <ele>1781</ele>
        <time>2020-10-24T09:14:17.000Z</time>
      </trkpt>
      <trkpt lat="42.1828508935868740081787109375" lon="1.73634720034897327423095703125">
        <ele>1781.199951171875</ele>
        <time>2020-10-24T09:14:18.000Z</time>
      </trkpt>
      <trkpt lat="42.1828277595341205596923828125" lon="1.736347116529941558837890625">
        <ele>1781.4000244140625</ele>
        <time>2020-10-24T09:14:20.000Z</time>
      </trkpt>
      <trkpt lat="42.182819545269012451171875" lon="1.7363432608544826507568359375">
        <ele>1781.5999755859375</ele>
        <time>2020-10-24T09:14:21.000Z</time>
      </trkpt>
      <trkpt lat="42.1827925555408000946044921875" lon="1.7363244853913784027099609375">
        <ele>1782</ele>
        <time>2020-10-24T09:14:23.000Z</time>
      </trkpt>
      <trkpt lat="42.18279800377786159515380859375" lon="1.73633630387485027313232421875">
        <ele>1782.199951171875</ele>
        <time>2020-10-24T09:14:25.000Z</time>
      </trkpt>
      <trkpt lat="42.18281342647969722747802734375" lon="1.73636228777468204498291015625">
        <ele>1782.800048828125</ele>
        <time>2020-10-24T09:14:27.000Z</time>
      </trkpt>
      <trkpt lat="42.1828143484890460968017578125" lon="1.736377961933612823486328125">
        <ele>1783.199951171875</ele>
        <time>2020-10-24T09:14:29.000Z</time>
      </trkpt>
      <trkpt lat="42.18281510286033153533935546875" lon="1.73638408072292804718017578125">
        <ele>1783.4000244140625</ele>
        <time>2020-10-24T09:14:30.000Z</time>
      </trkpt>
      <trkpt lat="42.18281543813645839691162109375" lon="1.73639841377735137939453125">
        <ele>1783.800048828125</ele>
        <time>2020-10-24T09:14:32.000Z</time>
      </trkpt>
      <trkpt lat="42.182819209992885589599609375" lon="1.73640687949955463409423828125">
        <ele>1784</ele>
        <time>2020-10-24T09:14:33.000Z</time>
      </trkpt>
      <trkpt lat="42.18283035792410373687744140625" lon="1.73642330802977085113525390625">
        <ele>1784.4000244140625</ele>
        <time>2020-10-24T09:14:35.000Z</time>
      </trkpt>
      <trkpt lat="42.1828384883701801300048828125" lon="1.7364388145506381988525390625">
        <ele>1784.5999755859375</ele>
        <time>2020-10-24T09:14:37.000Z</time>
      </trkpt>
      <trkpt lat="42.182843685150146484375" lon="1.736441664397716522216796875">
        <ele>1784.800048828125</ele>
        <time>2020-10-24T09:14:38.000Z</time>
      </trkpt>
      <trkpt lat="42.1828611195087432861328125" lon="1.73645314760506153106689453125">
        <ele>1785</ele>
        <time>2020-10-24T09:14:40.000Z</time>
      </trkpt>
      <trkpt lat="42.1828686632215976715087890625" lon="1.7364585958421230316162109375">
        <ele>1785.4000244140625</ele>
        <time>2020-10-24T09:14:41.000Z</time>
      </trkpt>
      <trkpt lat="42.18287126161158084869384765625" lon="1.73645834438502788543701171875">
        <ele>1785.5999755859375</ele>
        <time>2020-10-24T09:14:42.000Z</time>
      </trkpt>
      <trkpt lat="42.182870171964168548583984375" lon="1.736448705196380615234375">
        <ele>1785.800048828125</ele>
        <time>2020-10-24T09:14:43.000Z</time>
      </trkpt>
      <trkpt lat="42.18287092633545398712158203125" lon="1.73644191585481166839599609375">
        <ele>1786</ele>
        <time>2020-10-24T09:14:44.000Z</time>
      </trkpt>
      <trkpt lat="42.1828770451247692108154296875" lon="1.73644409514963626861572265625">
        <ele>1786</ele>
        <time>2020-10-24T09:14:45.000Z</time>
      </trkpt>
      <trkpt lat="42.18288123607635498046875" lon="1.73644308932125568389892578125">
        <ele>1786.199951171875</ele>
        <time>2020-10-24T09:14:46.000Z</time>
      </trkpt>
      <trkpt lat="42.18291618861258029937744140625" lon="1.7364552430808544158935546875">
        <ele>1786.5999755859375</ele>
        <time>2020-10-24T09:14:50.000Z</time>
      </trkpt>
      <trkpt lat="42.18294133432209491729736328125" lon="1.73648533411324024200439453125">
        <ele>1786.800048828125</ele>
        <time>2020-10-24T09:14:52.000Z</time>
      </trkpt>
      <trkpt lat="42.18295759521424770355224609375" lon="1.7365216277539730072021484375">
        <ele>1787.199951171875</ele>
        <time>2020-10-24T09:14:56.000Z</time>
      </trkpt>
      <trkpt lat="42.18299447558820247650146484375" lon="1.73657686449587345123291015625">
        <ele>1788.199951171875</ele>
        <time>2020-10-24T09:15:02.000Z</time>
      </trkpt>
      <trkpt lat="42.182998247444629669189453125" lon="1.73658709041774272918701171875">
        <ele>1788.4000244140625</ele>
        <time>2020-10-24T09:15:03.000Z</time>
      </trkpt>
      <trkpt lat="42.183012664318084716796875" lon="1.73662262968719005584716796875">
        <ele>1789</ele>
        <time>2020-10-24T09:15:08.000Z</time>
      </trkpt>
      <trkpt lat="42.18301492743194103240966796875" lon="1.73661961220204830169677734375">
        <ele>1789.199951171875</ele>
        <time>2020-10-24T09:15:09.000Z</time>
      </trkpt>
      <trkpt lat="42.183017693459987640380859375" lon="1.7366163432598114013671875">
        <ele>1789.4000244140625</ele>
        <time>2020-10-24T09:15:10.000Z</time>
      </trkpt>
      <trkpt lat="42.18302850611507892608642578125" lon="1.736601255834102630615234375">
        <ele>1789.5999755859375</ele>
        <time>2020-10-24T09:15:13.000Z</time>
      </trkpt>
      <trkpt lat="42.18304610811173915863037109375" lon="1.73660603351891040802001953125">
        <ele>1789.199951171875</ele>
        <time>2020-10-24T09:15:16.000Z</time>
      </trkpt>
      <trkpt lat="42.1830715052783489227294921875" lon="1.7365792952477931976318359375">
        <ele>1788.800048828125</ele>
        <time>2020-10-24T09:15:20.000Z</time>
      </trkpt>
      <trkpt lat="42.18308483250439167022705078125" lon="1.7365642078220844268798828125">
        <ele>1788.199951171875</ele>
        <time>2020-10-24T09:15:22.000Z</time>
      </trkpt>
      <trkpt lat="42.18309304676949977874755859375" lon="1.73655800521373748779296875">
        <ele>1788</ele>
        <time>2020-10-24T09:15:23.000Z</time>
      </trkpt>
      <trkpt lat="42.1831305138766765594482421875" lon="1.73651467077434062957763671875">
        <ele>1788.199951171875</ele>
        <time>2020-10-24T09:15:31.000Z</time>
      </trkpt>
      <trkpt lat="42.18312799930572509765625" lon="1.73645675182342529296875">
        <ele>1789.199951171875</ele>
        <time>2020-10-24T09:15:37.000Z</time>
      </trkpt>
      <trkpt lat="42.1831352077424526214599609375" lon="1.73642414622008800506591796875">
        <ele>1789.800048828125</ele>
        <time>2020-10-24T09:15:40.000Z</time>
      </trkpt>
      <trkpt lat="42.18314819969236850738525390625" lon="1.73642531968653202056884765625">
        <ele>1790.199951171875</ele>
        <time>2020-10-24T09:15:42.000Z</time>
      </trkpt>
      <trkpt lat="42.18316798098385334014892578125" lon="1.73642079345881938934326171875">
        <ele>1790.5999755859375</ele>
        <time>2020-10-24T09:15:45.000Z</time>
      </trkpt>
      <trkpt lat="42.18317485414445400238037109375" lon="1.73642112873494625091552734375">
        <ele>1790.5999755859375</ele>
        <time>2020-10-24T09:15:46.000Z</time>
      </trkpt>
      <trkpt lat="42.18317870981991291046142578125" lon="1.73640268854796886444091796875">
        <ele>1791.199951171875</ele>
        <time>2020-10-24T09:15:49.000Z</time>
      </trkpt>
      <trkpt lat="42.1831865049898624420166015625" lon="1.73635491169989109039306640625">
        <ele>1791.800048828125</ele>
        <time>2020-10-24T09:15:53.000Z</time>
      </trkpt>
      <trkpt lat="42.183195389807224273681640625" lon="1.73634937964379787445068359375">
        <ele>1792.5999755859375</ele>
        <time>2020-10-24T09:15:55.000Z</time>
      </trkpt>
      <trkpt lat="42.18320335261523723602294921875" lon="1.7363285087049007415771484375">
        <ele>1793.800048828125</ele>
        <time>2020-10-24T09:15:59.000Z</time>
      </trkpt>
      <trkpt lat="42.18322916887700557708740234375" lon="1.7362467013299465179443359375">
        <ele>1794.4000244140625</ele>
        <time>2020-10-24T09:16:06.000Z</time>
      </trkpt>
      <trkpt lat="42.1832468546926975250244140625" lon="1.736204624176025390625">
        <ele>1794.800048828125</ele>
        <time>2020-10-24T09:16:10.000Z</time>
      </trkpt>
      <trkpt lat="42.1832518838346004486083984375" lon="1.7361937277019023895263671875">
        <ele>1795.199951171875</ele>
        <time>2020-10-24T09:16:11.000Z</time>
      </trkpt>
      <trkpt lat="42.1832777000963687896728515625" lon="1.73616413958370685577392578125">
        <ele>1796</ele>
        <time>2020-10-24T09:16:16.000Z</time>
      </trkpt>
      <trkpt lat="42.183286584913730621337890625" lon="1.73615944571793079376220703125">
        <ele>1796.199951171875</ele>
        <time>2020-10-24T09:16:17.000Z</time>
      </trkpt>
      <trkpt lat="42.1833162568509578704833984375" lon="1.7361094057559967041015625">
        <ele>1797</ele>
        <time>2020-10-24T09:16:22.000Z</time>
      </trkpt>
      <trkpt lat="42.18331919051706790924072265625" lon="1.7360824160277843475341796875">
        <ele>1796.800048828125</ele>
        <time>2020-10-24T09:16:24.000Z</time>
      </trkpt>
      <trkpt lat="42.18339026905596256256103515625" lon="1.73605785705149173736572265625">
        <ele>1796</ele>
        <time>2020-10-24T09:16:30.000Z</time>
      </trkpt>
      <trkpt lat="42.18340854160487651824951171875" lon="1.73605316318571567535400390625">
        <ele>1795.5999755859375</ele>
        <time>2020-10-24T09:16:32.000Z</time>
      </trkpt>
      <trkpt lat="42.18343787826597690582275390625" lon="1.73605618067085742950439453125">
        <ele>1795</ele>
        <time>2020-10-24T09:16:35.000Z</time>
      </trkpt>
      <trkpt lat="42.183450199663639068603515625" lon="1.73603405244648456573486328125">
        <ele>1794.800048828125</ele>
        <time>2020-10-24T09:16:38.000Z</time>
      </trkpt>
      <trkpt lat="42.1834735013544559478759765625" lon="1.73599935136735439300537109375">
        <ele>1795</ele>
        <time>2020-10-24T09:16:43.000Z</time>
      </trkpt>
      <trkpt lat="42.183535359799861907958984375" lon="1.73594905994832515716552734375">
        <ele>1794</ele>
        <time>2020-10-24T09:16:51.000Z</time>
      </trkpt>
      <trkpt lat="42.18354332260787487030029296875" lon="1.7359261773526668548583984375">
        <ele>1794.199951171875</ele>
        <time>2020-10-24T09:16:53.000Z</time>
      </trkpt>
      <trkpt lat="42.1835603378713130950927734375" lon="1.73590698279440402984619140625">
        <ele>1794.800048828125</ele>
        <time>2020-10-24T09:16:56.000Z</time>
      </trkpt>
      <trkpt lat="42.18356260098516941070556640625" lon="1.73589642159640789031982421875">
        <ele>1795.199951171875</ele>
        <time>2020-10-24T09:16:57.000Z</time>
      </trkpt>
      <trkpt lat="42.183568887412548065185546875" lon="1.73586708493530750274658203125">
        <ele>1796</ele>
        <time>2020-10-24T09:17:01.000Z</time>
      </trkpt>
      <trkpt lat="42.1835690550506114959716796875" lon="1.73583355732262134552001953125">
        <ele>1796.5999755859375</ele>
        <time>2020-10-24T09:17:04.000Z</time>
      </trkpt>
      <trkpt lat="42.183582969009876251220703125" lon="1.7358309589326381683349609375">
        <ele>1797.199951171875</ele>
        <time>2020-10-24T09:17:06.000Z</time>
      </trkpt>
      <trkpt lat="42.18359545804560184478759765625" lon="1.73578226007521152496337890625">
        <ele>1798.4000244140625</ele>
        <time>2020-10-24T09:17:11.000Z</time>
      </trkpt>
      <trkpt lat="42.1836173348128795623779296875" lon="1.73572945408523082733154296875">
        <ele>1799.5999755859375</ele>
        <time>2020-10-24T09:17:16.000Z</time>
      </trkpt>
      <trkpt lat="42.1836357749998569488525390625" lon="1.73573716543614864349365234375">
        <ele>1800</ele>
        <time>2020-10-24T09:17:18.000Z</time>
      </trkpt>
      <trkpt lat="42.18364994041621685028076171875" lon="1.7357441224157810211181640625">
        <ele>1800.5999755859375</ele>
        <time>2020-10-24T09:17:21.000Z</time>
      </trkpt>
      <trkpt lat="42.1836550533771514892578125" lon="1.73572526313364505767822265625">
        <ele>1801.199951171875</ele>
        <time>2020-10-24T09:17:24.000Z</time>
      </trkpt>
      <trkpt lat="42.18366050161421298980712890625" lon="1.7357166297733783721923828125">
        <ele>1801.4000244140625</ele>
        <time>2020-10-24T09:17:25.000Z</time>
      </trkpt>
      <trkpt lat="42.1836699731647968292236328125" lon="1.73570246435701847076416015625">
        <ele>1801.5999755859375</ele>
        <time>2020-10-24T09:17:27.000Z</time>
      </trkpt>
      <trkpt lat="42.18367315828800201416015625" lon="1.73569642938673496246337890625">
        <ele>1801.800048828125</ele>
        <time>2020-10-24T09:17:28.000Z</time>
      </trkpt>
      <trkpt lat="42.1836711466312408447265625" lon="1.7356717027723789215087890625">
        <ele>1802</ele>
        <time>2020-10-24T09:17:30.000Z</time>
      </trkpt>
      <trkpt lat="42.183667458593845367431640625" lon="1.735657788813114166259765625">
        <ele>1802</ele>
        <time>2020-10-24T09:17:32.000Z</time>
      </trkpt>
      <trkpt lat="42.18365840613842010498046875" lon="1.7355925776064395904541015625">
        <ele>1802.199951171875</ele>
        <time>2020-10-24T09:17:37.000Z</time>
      </trkpt>
      <trkpt lat="42.1836642734706401824951171875" lon="1.73555159009993076324462890625">
        <ele>1802.4000244140625</ele>
        <time>2020-10-24T09:17:41.000Z</time>
      </trkpt>
      <trkpt lat="42.183661758899688720703125" lon="1.73552879132330417633056640625">
        <ele>1803</ele>
        <time>2020-10-24T09:17:44.000Z</time>
      </trkpt>
      <trkpt lat="42.18368522822856903076171875" lon="1.7354978621006011962890625">
        <ele>1803.5999755859375</ele>
        <time>2020-10-24T09:17:49.000Z</time>
      </trkpt>
      <trkpt lat="42.18372135423123836517333984375" lon="1.73545427620410919189453125">
        <ele>1803.5999755859375</ele>
        <time>2020-10-24T09:17:54.000Z</time>
      </trkpt>
      <trkpt lat="42.1837688796222209930419921875" lon="1.7353924177587032318115234375">
        <ele>1803.800048828125</ele>
        <time>2020-10-24T09:18:00.000Z</time>
      </trkpt>
      <trkpt lat="42.1837826259434223175048828125" lon="1.73539258539676666259765625">
        <ele>1804</ele>
        <time>2020-10-24T09:18:01.000Z</time>
      </trkpt>
      <trkpt lat="42.18381271697580814361572265625" lon="1.735302396118640899658203125">
        <ele>1804.5999755859375</ele>
        <time>2020-10-24T09:18:05.000Z</time>
      </trkpt>
      <trkpt lat="42.1838426403701305389404296875" lon="1.73521245829761028289794921875">
        <ele>1805</ele>
        <time>2020-10-24T09:18:09.000Z</time>
      </trkpt>
      <trkpt lat="42.18385647051036357879638671875" lon="1.735191084444522857666015625">
        <ele>1805.199951171875</ele>
        <time>2020-10-24T09:18:11.000Z</time>
      </trkpt>
      <trkpt lat="42.18390340916812419891357421875" lon="1.7351982928812503814697265625">
        <ele>1805.4000244140625</ele>
        <time>2020-10-24T09:18:14.000Z</time>
      </trkpt>
      <trkpt lat="42.18391648493707180023193359375" lon="1.73518261872231960296630859375">
        <ele>1805.800048828125</ele>
        <time>2020-10-24T09:18:16.000Z</time>
      </trkpt>
      <trkpt lat="42.1839608252048492431640625" lon="1.7351594008505344390869140625">
        <ele>1805.800048828125</ele>
        <time>2020-10-24T09:18:20.000Z</time>
      </trkpt>
      <trkpt lat="42.1839697100222110748291015625" lon="1.7351491749286651611328125">
        <ele>1805.800048828125</ele>
        <time>2020-10-24T09:18:21.000Z</time>
      </trkpt>
      <trkpt lat="42.18399125151336193084716796875" lon="1.735138110816478729248046875">
        <ele>1806</ele>
        <time>2020-10-24T09:18:24.000Z</time>
      </trkpt>
      <trkpt lat="42.18400164507329463958740234375" lon="1.73513182438910007476806640625">
        <ele>1806.4000244140625</ele>
        <time>2020-10-24T09:18:26.000Z</time>
      </trkpt>
      <trkpt lat="42.1840193308889865875244140625" lon="1.7351319082081317901611328125">
        <ele>1806.5999755859375</ele>
        <time>2020-10-24T09:18:28.000Z</time>
      </trkpt>
      <trkpt lat="42.18403399921953678131103515625" lon="1.73511271364986896514892578125">
        <ele>1807.199951171875</ele>
        <time>2020-10-24T09:18:31.000Z</time>
      </trkpt>
      <trkpt lat="42.18406073749065399169921875" lon="1.73509611748158931732177734375">
        <ele>1807.5999755859375</ele>
        <time>2020-10-24T09:18:34.000Z</time>
      </trkpt>
      <trkpt lat="42.18408596701920032501220703125" lon="1.73505856655538082122802734375">
        <ele>1808</ele>
        <time>2020-10-24T09:18:39.000Z</time>
      </trkpt>
      <trkpt lat="42.18411345966160297393798828125" lon="1.735022775828838348388671875">
        <ele>1807.5999755859375</ele>
        <time>2020-10-24T09:18:42.000Z</time>
      </trkpt>
      <trkpt lat="42.1841259486973285675048828125" lon="1.7350231111049652099609375">
        <ele>1807.4000244140625</ele>
        <time>2020-10-24T09:18:43.000Z</time>
      </trkpt>
      <trkpt lat="42.1841370128095149993896484375" lon="1.73501112498342990875244140625">
        <ele>1807</ele>
        <time>2020-10-24T09:18:45.000Z</time>
      </trkpt>
      <trkpt lat="42.18414044938981533050537109375" lon="1.7349686287343502044677734375">
        <ele>1806.5999755859375</ele>
        <time>2020-10-24T09:18:47.000Z</time>
      </trkpt>
      <trkpt lat="42.18417515046894550323486328125" lon="1.73494197428226470947265625">
        <ele>1806.199951171875</ele>
        <time>2020-10-24T09:18:52.000Z</time>
      </trkpt>
      <trkpt lat="42.18419811688363552093505859375" lon="1.73494054935872554779052734375">
        <ele>1806.5999755859375</ele>
        <time>2020-10-24T09:18:55.000Z</time>
      </trkpt>
      <trkpt lat="42.18419660814106464385986328125" lon="1.73492512665688991546630859375">
        <ele>1807</ele>
        <time>2020-10-24T09:18:57.000Z</time>
      </trkpt>
      <trkpt lat="42.18420096673071384429931640625" lon="1.7349280603229999542236328125">
        <ele>1807.199951171875</ele>
        <time>2020-10-24T09:18:58.000Z</time>
      </trkpt>
      <trkpt lat="42.1842181496322154998779296875" lon="1.73492294736206531524658203125">
        <ele>1807.800048828125</ele>
        <time>2020-10-24T09:19:01.000Z</time>
      </trkpt>
      <trkpt lat="42.18423298560082912445068359375" lon="1.73491339199244976043701171875">
        <ele>1808.4000244140625</ele>
        <time>2020-10-24T09:19:03.000Z</time>
      </trkpt>
      <trkpt lat="42.1842305548489093780517578125" lon="1.7348925210535526275634765625">
        <ele>1809</ele>
        <time>2020-10-24T09:19:05.000Z</time>
      </trkpt>
      <trkpt lat="42.18423642218112945556640625" lon="1.7348938621580600738525390625">
        <ele>1809.199951171875</ele>
        <time>2020-10-24T09:19:06.000Z</time>
      </trkpt>
      <trkpt lat="42.1842432953417301177978515625" lon="1.7349019087851047515869140625">
        <ele>1809.4000244140625</ele>
        <time>2020-10-24T09:19:07.000Z</time>
      </trkpt>
      <trkpt lat="42.1842483244836330413818359375" lon="1.73489796929061412811279296875">
        <ele>1809.5999755859375</ele>
        <time>2020-10-24T09:19:08.000Z</time>
      </trkpt>
      <trkpt lat="42.18425461091101169586181640625" lon="1.7348985560238361358642578125">
        <ele>1809.800048828125</ele>
        <time>2020-10-24T09:19:09.000Z</time>
      </trkpt>
      <trkpt lat="42.1842677704989910125732421875" lon="1.73488036729395389556884765625">
        <ele>1810.4000244140625</ele>
        <time>2020-10-24T09:19:12.000Z</time>
      </trkpt>
      <trkpt lat="42.18429132364690303802490234375" lon="1.7348626814782619476318359375">
        <ele>1811.4000244140625</ele>
        <time>2020-10-24T09:19:17.000Z</time>
      </trkpt>
      <trkpt lat="42.18429735861718654632568359375" lon="1.7348620109260082244873046875">
        <ele>1811.5999755859375</ele>
        <time>2020-10-24T09:19:18.000Z</time>
      </trkpt>
      <trkpt lat="42.1843041479587554931640625" lon="1.7348613403737545013427734375">
        <ele>1811.800048828125</ele>
        <time>2020-10-24T09:19:19.000Z</time>
      </trkpt>
      <trkpt lat="42.18431697227060794830322265625" lon="1.734844744205474853515625">
        <ele>1812.199951171875</ele>
        <time>2020-10-24T09:19:22.000Z</time>
      </trkpt>
      <trkpt lat="42.184328623116016387939453125" lon="1.73483644612133502960205078125">
        <ele>1812.5999755859375</ele>
        <time>2020-10-24T09:19:24.000Z</time>
      </trkpt>
      <trkpt lat="42.18434111215174198150634765625" lon="1.73484415747225284576416015625">
        <ele>1813.199951171875</ele>
        <time>2020-10-24T09:19:26.000Z</time>
      </trkpt>
      <trkpt lat="42.18434731476008892059326171875" lon="1.734833680093288421630859375">
        <ele>1813.5999755859375</ele>
        <time>2020-10-24T09:19:28.000Z</time>
      </trkpt>
      <trkpt lat="42.1843532659113407135009765625" lon="1.73483426682651042938232421875">
        <ele>1813.800048828125</ele>
        <time>2020-10-24T09:19:29.000Z</time>
      </trkpt>
      <trkpt lat="42.1843670122325420379638671875" lon="1.73484046943485736846923828125">
        <ele>1814</ele>
        <time>2020-10-24T09:19:31.000Z</time>
      </trkpt>
      <trkpt lat="42.184374891221523284912109375" lon="1.7348288185894489288330078125">
        <ele>1814.4000244140625</ele>
        <time>2020-10-24T09:19:33.000Z</time>
      </trkpt>
      <trkpt lat="42.1843958459794521331787109375" lon="1.73481901176273822784423828125">
        <ele>1814.800048828125</ele>
        <time>2020-10-24T09:19:36.000Z</time>
      </trkpt>
      <trkpt lat="42.18440464697778224945068359375" lon="1.734818927943706512451171875">
        <ele>1815</ele>
        <time>2020-10-24T09:19:37.000Z</time>
      </trkpt>
      <trkpt lat="42.1844213269650936126708984375" lon="1.73480543307960033416748046875">
        <ele>1815.800048828125</ele>
        <time>2020-10-24T09:19:40.000Z</time>
      </trkpt>
      <trkpt lat="42.1844233386218547821044921875" lon="1.73477374948561191558837890625">
        <ele>1816.4000244140625</ele>
        <time>2020-10-24T09:19:43.000Z</time>
      </trkpt>
      <trkpt lat="42.18442962504923343658447265625" lon="1.73475078307092189788818359375">
        <ele>1816.800048828125</ele>
        <time>2020-10-24T09:19:46.000Z</time>
      </trkpt>
      <trkpt lat="42.1844414435327053070068359375" lon="1.73473133705556392669677734375">
        <ele>1817.199951171875</ele>
        <time>2020-10-24T09:19:49.000Z</time>
      </trkpt>
      <trkpt lat="42.18446415849030017852783203125" lon="1.73471608199179172515869140625">
        <ele>1817.800048828125</ele>
        <time>2020-10-24T09:19:54.000Z</time>
      </trkpt>
      <trkpt lat="42.18445845879614353179931640625" lon="1.7346819676458835601806640625">
        <ele>1818</ele>
        <time>2020-10-24T09:19:56.000Z</time>
      </trkpt>
      <trkpt lat="42.18446231447160243988037109375" lon="1.73464961349964141845703125">
        <ele>1818.4000244140625</ele>
        <time>2020-10-24T09:19:59.000Z</time>
      </trkpt>
      <trkpt lat="42.1844890527427196502685546875" lon="1.7346645332872867584228515625">
        <ele>1819</ele>
        <time>2020-10-24T09:20:02.000Z</time>
      </trkpt>
      <trkpt lat="42.1845245920121669769287109375" lon="1.73467953689396381378173828125">
        <ele>1819.4000244140625</ele>
        <time>2020-10-24T09:20:06.000Z</time>
      </trkpt>
      <trkpt lat="42.18455468304455280303955078125" lon="1.73465942032635211944580078125">
        <ele>1820</ele>
        <time>2020-10-24T09:20:12.000Z</time>
      </trkpt>
      <trkpt lat="42.18456306494772434234619140625" lon="1.734660007059574127197265625">
        <ele>1820.199951171875</ele>
        <time>2020-10-24T09:20:13.000Z</time>
      </trkpt>
      <trkpt lat="42.18458921648561954498291015625" lon="1.73459622077643871307373046875">
        <ele>1820.5999755859375</ele>
        <time>2020-10-24T09:20:20.000Z</time>
      </trkpt>
      <trkpt lat="42.18461754731833934783935546875" lon="1.73457174561917781829833984375">
        <ele>1821</ele>
        <time>2020-10-24T09:20:25.000Z</time>
      </trkpt>
      <trkpt lat="42.18462408520281314849853515625" lon="1.73456403426826000213623046875">
        <ele>1821</ele>
        <time>2020-10-24T09:20:26.000Z</time>
      </trkpt>
      <trkpt lat="42.184659540653228759765625" lon="1.73452229239046573638916015625">
        <ele>1822.199951171875</ele>
        <time>2020-10-24T09:20:33.000Z</time>
      </trkpt>
      <trkpt lat="42.1846644021570682525634765625" lon="1.7345213703811168670654296875">
        <ele>1822.4000244140625</ele>
        <time>2020-10-24T09:20:34.000Z</time>
      </trkpt>
      <trkpt lat="42.18469432555139064788818359375" lon="1.73451424576342105865478515625">
        <ele>1823.199951171875</ele>
        <time>2020-10-24T09:20:39.000Z</time>
      </trkpt>
      <trkpt lat="42.1847170405089855194091796875" lon="1.7345093004405498504638671875">
        <ele>1823.4000244140625</ele>
        <time>2020-10-24T09:20:42.000Z</time>
      </trkpt>
      <trkpt lat="42.18473070301115512847900390625" lon="1.73447283916175365447998046875">
        <ele>1823.800048828125</ele>
        <time>2020-10-24T09:20:46.000Z</time>
      </trkpt>
      <trkpt lat="42.184739671647548675537109375" lon="1.7344539798796176910400390625">
        <ele>1824.199951171875</ele>
        <time>2020-10-24T09:20:49.000Z</time>
      </trkpt>
      <trkpt lat="42.18474092893302440643310546875" lon="1.734446771442890167236328125">
        <ele>1824.4000244140625</ele>
        <time>2020-10-24T09:20:50.000Z</time>
      </trkpt>
      <trkpt lat="42.18474335968494415283203125" lon="1.734425984323024749755859375">
        <ele>1824.5999755859375</ele>
        <time>2020-10-24T09:20:52.000Z</time>
      </trkpt>
      <trkpt lat="42.18475501053035259246826171875" lon="1.7344167642295360565185546875">
        <ele>1825</ele>
        <time>2020-10-24T09:20:54.000Z</time>
      </trkpt>
      <trkpt lat="42.1847654879093170166015625" lon="1.7344083823263645172119140625">
        <ele>1825.5999755859375</ele>
        <time>2020-10-24T09:20:56.000Z</time>
      </trkpt>
      <trkpt lat="42.18478485010564327239990234375" lon="1.73436303623020648956298828125">
        <ele>1826.4000244140625</ele>
        <time>2020-10-24T09:21:02.000Z</time>
      </trkpt>
      <trkpt lat="42.1847851015627384185791015625" lon="1.7343456856906414031982421875">
        <ele>1826.5999755859375</ele>
        <time>2020-10-24T09:21:03.000Z</time>
      </trkpt>
      <trkpt lat="42.1847851015627384185791015625" lon="1.73433244228363037109375">
        <ele>1826.5999755859375</ele>
        <time>2020-10-24T09:21:04.000Z</time>
      </trkpt>
      <trkpt lat="42.184794656932353973388671875" lon="1.73432347364723682403564453125">
        <ele>1827.199951171875</ele>
        <time>2020-10-24T09:21:06.000Z</time>
      </trkpt>
      <trkpt lat="42.18479205854237079620361328125" lon="1.7342980764806270599365234375">
        <ele>1827.800048828125</ele>
        <time>2020-10-24T09:21:08.000Z</time>
      </trkpt>
      <trkpt lat="42.1847961656749248504638671875" lon="1.7342873476445674896240234375">
        <ele>1828</ele>
        <time>2020-10-24T09:21:09.000Z</time>
      </trkpt>
      <trkpt lat="42.184809744358062744140625" lon="1.734265051782131195068359375">
        <ele>1828.199951171875</ele>
        <time>2020-10-24T09:21:12.000Z</time>
      </trkpt>
      <trkpt lat="42.18482357449829578399658203125" lon="1.73427636735141277313232421875">
        <ele>1828.199951171875</ele>
        <time>2020-10-24T09:21:14.000Z</time>
      </trkpt>
      <trkpt lat="42.18483732081949710845947265625" lon="1.7342233099043369293212890625">
        <ele>1829</ele>
        <time>2020-10-24T09:21:19.000Z</time>
      </trkpt>
      <trkpt lat="42.1848499774932861328125" lon="1.73421316780149936676025390625">
        <ele>1829.5999755859375</ele>
        <time>2020-10-24T09:21:22.000Z</time>
      </trkpt>
      <trkpt lat="42.18486095778644084930419921875" lon="1.73421350307762622833251953125">
        <ele>1830.199951171875</ele>
        <time>2020-10-24T09:21:24.000Z</time>
      </trkpt>
      <trkpt lat="42.18487705104053020477294921875" lon="1.7341971583664417266845703125">
        <ele>1831</ele>
        <time>2020-10-24T09:21:28.000Z</time>
      </trkpt>
      <trkpt lat="42.18487956561148166656494140625" lon="1.734190620481967926025390625">
        <ele>1831.199951171875</ele>
        <time>2020-10-24T09:21:29.000Z</time>
      </trkpt>
      <trkpt lat="42.18489632941782474517822265625" lon="1.73417511396110057830810546875">
        <ele>1831.800048828125</ele>
        <time>2020-10-24T09:21:32.000Z</time>
      </trkpt>
      <trkpt lat="42.18491560779511928558349609375" lon="1.7341435141861438751220703125">
        <ele>1832.4000244140625</ele>
        <time>2020-10-24T09:21:36.000Z</time>
      </trkpt>
      <trkpt lat="42.18492281623184680938720703125" lon="1.7341267503798007965087890625">
        <ele>1832.5999755859375</ele>
        <time>2020-10-24T09:21:38.000Z</time>
      </trkpt>
      <trkpt lat="42.18493572436273097991943359375" lon="1.73412985168397426605224609375">
        <ele>1833.4000244140625</ele>
        <time>2020-10-24T09:21:41.000Z</time>
      </trkpt>
      <trkpt lat="42.18493874184787273406982421875" lon="1.73411493189632892608642578125">
        <ele>1833.800048828125</ele>
        <time>2020-10-24T09:21:43.000Z</time>
      </trkpt>
      <trkpt lat="42.184948883950710296630859375" lon="1.7340801469981670379638671875">
        <ele>1834.4000244140625</ele>
        <time>2020-10-24T09:21:48.000Z</time>
      </trkpt>
      <trkpt lat="42.1849527396261692047119140625" lon="1.7340736091136932373046875">
        <ele>1834.4000244140625</ele>
        <time>2020-10-24T09:21:49.000Z</time>
      </trkpt>
      <trkpt lat="42.18498484231531620025634765625" lon="1.7340695858001708984375">
        <ele>1835.4000244140625</ele>
        <time>2020-10-24T09:21:54.000Z</time>
      </trkpt>
      <trkpt lat="42.18499288894236087799072265625" lon="1.7340709269046783447265625">
        <ele>1835.5999755859375</ele>
        <time>2020-10-24T09:21:55.000Z</time>
      </trkpt>
      <trkpt lat="42.18499925918877124786376953125" lon="1.7340405844151973724365234375">
        <ele>1836.5999755859375</ele>
        <time>2020-10-24T09:21:59.000Z</time>
      </trkpt>
      <trkpt lat="42.18500847928225994110107421875" lon="1.73401418142020702362060546875">
        <ele>1837</ele>
        <time>2020-10-24T09:22:02.000Z</time>
      </trkpt>
      <trkpt lat="42.18503513373434543609619140625" lon="1.73403027467429637908935546875">
        <ele>1837.800048828125</ele>
        <time>2020-10-24T09:22:05.000Z</time>
      </trkpt>
      <trkpt lat="42.1850610338151454925537109375" lon="1.73402289859950542449951171875">
        <ele>1838.5999755859375</ele>
        <time>2020-10-24T09:22:09.000Z</time>
      </trkpt>
      <trkpt lat="42.18510386534035205841064453125" lon="1.73403899185359477996826171875">
        <ele>1839</ele>
        <time>2020-10-24T09:22:15.000Z</time>
      </trkpt>
      <trkpt lat="42.18511216342449188232421875" lon="1.73402993939816951751708984375">
        <ele>1839.800048828125</ele>
        <time>2020-10-24T09:22:18.000Z</time>
      </trkpt>
      <trkpt lat="42.185118533670902252197265625" lon="1.73402306623756885528564453125">
        <ele>1840.199951171875</ele>
        <time>2020-10-24T09:22:20.000Z</time>
      </trkpt>
      <trkpt lat="42.18514795415103435516357421875" lon="1.734000183641910552978515625">
        <ele>1840.800048828125</ele>
        <time>2020-10-24T09:22:25.000Z</time>
      </trkpt>
      <trkpt lat="42.18516983091831207275390625" lon="1.7339855991303920745849609375">
        <ele>1841.199951171875</ele>
        <time>2020-10-24T09:22:29.000Z</time>
      </trkpt>
      <trkpt lat="42.18517544679343700408935546875" lon="1.73396891914308071136474609375">
        <ele>1841.800048828125</ele>
        <time>2020-10-24T09:22:33.000Z</time>
      </trkpt>
      <trkpt lat="42.185172177851200103759765625" lon="1.73396707512438297271728515625">
        <ele>1842.4000244140625</ele>
        <time>2020-10-24T09:22:35.000Z</time>
      </trkpt>
      <trkpt lat="42.18518567271530628204345703125" lon="1.7339812405407428741455078125">
        <ele>1842.800048828125</ele>
        <time>2020-10-24T09:22:38.000Z</time>
      </trkpt>
      <trkpt lat="42.18520847149193286895751953125" lon="1.734012924134731292724609375">
        <ele>1843</ele>
        <time>2020-10-24T09:22:44.000Z</time>
      </trkpt>
      <trkpt lat="42.18521676957607269287109375" lon="1.73402306623756885528564453125">
        <ele>1843.199951171875</ele>
        <time>2020-10-24T09:22:46.000Z</time>
      </trkpt>
      <trkpt lat="42.18521676957607269287109375" lon="1.73402306623756885528564453125">
        <ele>1843.4000244140625</ele>
        <time>2020-10-24T09:22:47.000Z</time>
      </trkpt>
      <trkpt lat="42.18521676957607269287109375" lon="1.73402306623756885528564453125">
        <ele>1843.199951171875</ele>
        <time>2020-10-24T09:22:54.000Z</time>
      </trkpt>
      <trkpt lat="42.18521534465253353118896484375" lon="1.73401300795376300811767578125">
        <ele>1843</ele>
        <time>2020-10-24T09:23:00.000Z</time>
      </trkpt>
      <trkpt lat="42.1852142550051212310791015625" lon="1.73400747589766979217529296875">
        <ele>1842.800048828125</ele>
        <time>2020-10-24T09:23:02.000Z</time>
      </trkpt>
      <trkpt lat="42.185212410986423492431640625" lon="1.73400110565125942230224609375">
        <ele>1842.5999755859375</ele>
        <time>2020-10-24T09:23:04.000Z</time>
      </trkpt>
      <trkpt lat="42.18519640155136585235595703125" lon="1.733990795910358428955078125">
        <ele>1843.5999755859375</ele>
        <time>2020-10-24T09:23:18.000Z</time>
      </trkpt>
      <trkpt lat="42.18519640155136585235595703125" lon="1.73397327773272991180419921875">
        <ele>1844.4000244140625</ele>
        <time>2020-10-24T09:23:25.000Z</time>
      </trkpt>
      <trkpt lat="42.18519933521747589111328125" lon="1.73396036960184574127197265625">
        <ele>1844.5999755859375</ele>
        <time>2020-10-24T09:23:31.000Z</time>
      </trkpt>
      <trkpt lat="42.1852000057697296142578125" lon="1.733958609402179718017578125">
        <ele>1844.5999755859375</ele>
        <time>2020-10-24T09:23:32.000Z</time>
      </trkpt>
      <trkpt lat="42.18520939350128173828125" lon="1.73393388278782367706298828125">
        <ele>1844.800048828125</ele>
        <time>2020-10-24T09:23:41.000Z</time>
      </trkpt>
      <trkpt lat="42.1852212958037853240966796875" lon="1.733915023505687713623046875">
        <ele>1844.800048828125</ele>
        <time>2020-10-24T09:23:56.000Z</time>
      </trkpt>
      <trkpt lat="42.18524166382849216461181640625" lon="1.73393421806395053863525390625">
        <ele>1844.800048828125</ele>
        <time>2020-10-24T09:24:01.000Z</time>
      </trkpt>
      <trkpt lat="42.1852429211139678955078125" lon="1.73394821584224700927734375">
        <ele>1844.800048828125</ele>
        <time>2020-10-24T09:24:04.000Z</time>
      </trkpt>
      <trkpt lat="42.18523914925754070281982421875" lon="1.73394679091870784759521484375">
        <ele>1844.800048828125</ele>
        <time>2020-10-24T09:24:06.000Z</time>
      </trkpt>
      <trkpt lat="42.1852451004087924957275390625" lon="1.73395936377346515655517578125">
        <ele>1844.5999755859375</ele>
        <time>2020-10-24T09:24:11.000Z</time>
      </trkpt>
      <trkpt lat="42.1852471120655536651611328125" lon="1.7339698411524295806884765625">
        <ele>1844.4000244140625</ele>
        <time>2020-10-24T09:24:20.000Z</time>
      </trkpt>
      <trkpt lat="42.1852487884461879730224609375" lon="1.73397210426628589630126953125">
        <ele>1844.4000244140625</ele>
        <time>2020-10-24T09:24:22.000Z</time>
      </trkpt>
      <trkpt lat="42.1852501295506954193115234375" lon="1.7339745350182056427001953125">
        <ele>1844.4000244140625</ele>
        <time>2020-10-24T09:24:24.000Z</time>
      </trkpt>
      <trkpt lat="42.185254991054534912109375" lon="1.73398174345493316650390625">
        <ele>1844.4000244140625</ele>
        <time>2020-10-24T09:24:28.000Z</time>
      </trkpt>
      <trkpt lat="42.18525256030261516571044921875" lon="1.73399909399449825286865234375">
        <ele>1844.5999755859375</ele>
        <time>2020-10-24T09:24:37.000Z</time>
      </trkpt>
      <trkpt lat="42.1852538175880908966064453125" lon="1.7340011894702911376953125">
        <ele>1844.5999755859375</ele>
        <time>2020-10-24T09:24:49.000Z</time>
      </trkpt>
      <trkpt lat="42.18525323085486888885498046875" lon="1.73400093801319599151611328125">
        <ele>1844.4000244140625</ele>
        <time>2020-10-24T09:24:54.000Z</time>
      </trkpt>
      <trkpt lat="42.18525272794067859649658203125" lon="1.73399909399449825286865234375">
        <ele>1844.4000244140625</ele>
        <time>2020-10-24T09:24:56.000Z</time>
      </trkpt>
      <trkpt lat="42.18525038100779056549072265625" lon="1.73399255611002445220947265625">
        <ele>1844.199951171875</ele>
        <time>2020-10-24T09:25:03.000Z</time>
      </trkpt>
      <trkpt lat="42.185249626636505126953125" lon="1.73398844897747039794921875">
        <ele>1844.199951171875</ele>
        <time>2020-10-24T09:25:05.000Z</time>
      </trkpt>
      <trkpt lat="42.18522012233734130859375" lon="1.7339688353240489959716796875">
        <ele>1844.199951171875</ele>
        <time>2020-10-24T09:25:16.000Z</time>
      </trkpt>
      <trkpt lat="42.1852052025496959686279296875" lon="1.73393706791102886199951171875">
        <ele>1844</ele>
        <time>2020-10-24T09:25:30.000Z</time>
      </trkpt>
      <trkpt lat="42.1852052025496959686279296875" lon="1.73393639735877513885498046875">
        <ele>1844</ele>
        <time>2020-10-24T09:25:34.000Z</time>
      </trkpt>
      <trkpt lat="42.18523412011563777923583984375" lon="1.73397176899015903472900390625">
        <ele>1844</ele>
        <time>2020-10-24T09:26:22.000Z</time>
      </trkpt>
      <trkpt lat="42.18522322364151477813720703125" lon="1.7339628003537654876708984375">
        <ele>1844.199951171875</ele>
        <time>2020-10-24T09:26:43.000Z</time>
      </trkpt>
      <trkpt lat="42.18521718867123126983642578125" lon="1.7339286021888256072998046875">
        <ele>1845</ele>
        <time>2020-10-24T09:26:52.000Z</time>
      </trkpt>
      <trkpt lat="42.1852162666618824005126953125" lon="1.7339259199798107147216796875">
        <ele>1845</ele>
        <time>2020-10-24T09:26:53.000Z</time>
      </trkpt>
      <trkpt lat="42.1852142550051212310791015625" lon="1.73392139375209808349609375">
        <ele>1844.800048828125</ele>
        <time>2020-10-24T09:26:55.000Z</time>
      </trkpt>
      <trkpt lat="42.1852085553109645843505859375" lon="1.73391343094408512115478515625">
        <ele>1844.4000244140625</ele>
        <time>2020-10-24T09:27:00.000Z</time>
      </trkpt>
      <trkpt lat="42.18519640155136585235595703125" lon="1.7338927276432514190673828125">
        <ele>1843.800048828125</ele>
        <time>2020-10-24T09:27:28.000Z</time>
      </trkpt>
      <trkpt lat="42.18519640155136585235595703125" lon="1.73389264382421970367431640625">
        <ele>1843.800048828125</ele>
        <time>2020-10-24T09:27:29.000Z</time>
      </trkpt>
      <trkpt lat="42.1851964853703975677490234375" lon="1.73389247618615627288818359375">
        <ele>1844</ele>
        <time>2020-10-24T09:27:41.000Z</time>
      </trkpt>
      <trkpt lat="42.18519673682749271392822265625" lon="1.73389214091002941131591796875">
        <ele>1844.199951171875</ele>
        <time>2020-10-24T09:27:52.000Z</time>
      </trkpt>
      <trkpt lat="42.1851968206465244293212890625" lon="1.7338920570909976959228515625">
        <ele>1844</ele>
        <time>2020-10-24T09:27:54.000Z</time>
      </trkpt>
      <trkpt lat="42.185197658836841583251953125" lon="1.73389147035777568817138671875">
        <ele>1844.199951171875</ele>
        <time>2020-10-24T09:28:17.000Z</time>
      </trkpt>
      <trkpt lat="42.1851978264749050140380859375" lon="1.73389147035777568817138671875">
        <ele>1844.4000244140625</ele>
        <time>2020-10-24T09:28:19.000Z</time>
      </trkpt>
      <trkpt lat="42.1851988323032855987548828125" lon="1.73389197327196598052978515625">
        <ele>1844</ele>
        <time>2020-10-24T09:28:31.000Z</time>
      </trkpt>
      <trkpt lat="42.185198999941349029541015625" lon="1.7338920570909976959228515625">
        <ele>1844.199951171875</ele>
        <time>2020-10-24T09:28:33.000Z</time>
      </trkpt>
      <trkpt lat="42.18519941903650760650634765625" lon="1.733892224729061126708984375">
        <ele>1844</ele>
        <time>2020-10-24T09:28:38.000Z</time>
      </trkpt>
      <trkpt lat="42.1852000057697296142578125" lon="1.73389247618615627288818359375">
        <ele>1844.199951171875</ele>
        <time>2020-10-24T09:28:45.000Z</time>
      </trkpt>
      <trkpt lat="42.18520025722682476043701171875" lon="1.73389247618615627288818359375">
        <ele>1844.5999755859375</ele>
        <time>2020-10-24T09:28:48.000Z</time>
      </trkpt>
      <trkpt lat="42.185200341045856475830078125" lon="1.73389247618615627288818359375">
        <ele>1844.800048828125</ele>
        <time>2020-10-24T09:28:49.000Z</time>
      </trkpt>
      <trkpt lat="42.18520076014101505279541015625" lon="1.73389256000518798828125">
        <ele>1845.199951171875</ele>
        <time>2020-10-24T09:28:54.000Z</time>
      </trkpt>
      <trkpt lat="42.18520092777907848358154296875" lon="1.73389256000518798828125">
        <ele>1845.5999755859375</ele>
        <time>2020-10-24T09:28:56.000Z</time>
      </trkpt>
      <trkpt lat="42.18520159833133220672607421875" lon="1.73389264382421970367431640625">
        <ele>1846.5999755859375</ele>
        <time>2020-10-24T09:29:03.000Z</time>
      </trkpt>
      <trkpt lat="42.18520201742649078369140625" lon="1.73389264382421970367431640625">
        <ele>1847.800048828125</ele>
        <time>2020-10-24T09:29:07.000Z</time>
      </trkpt>
      <trkpt lat="42.1852025203406810760498046875" lon="1.73389264382421970367431640625">
        <ele>1848.800048828125</ele>
        <time>2020-10-24T09:29:11.000Z</time>
      </trkpt>
      <trkpt lat="42.18520310707390308380126953125" lon="1.7338923923671245574951171875">
        <ele>1850</ele>
        <time>2020-10-24T09:29:16.000Z</time>
      </trkpt>
      <trkpt lat="42.18522104434669017791748046875" lon="1.73388577066361904144287109375">
        <ele>1851.199951171875</ele>
        <time>2020-10-24T09:29:20.000Z</time>
      </trkpt>
      <trkpt lat="42.1852980740368366241455078125" lon="1.73382282257080078125">
        <ele>1852.199951171875</ele>
        <time>2020-10-24T09:29:24.000Z</time>
      </trkpt>
      <trkpt lat="42.18533755280077457427978515625" lon="1.7337891273200511932373046875">
        <ele>1852.5999755859375</ele>
        <time>2020-10-24T09:29:26.000Z</time>
      </trkpt>
      <trkpt lat="42.18537728302180767059326171875" lon="1.7337612994015216827392578125">
        <ele>1853</ele>
        <time>2020-10-24T09:29:28.000Z</time>
      </trkpt>
      <trkpt lat="42.185390777885913848876953125" lon="1.733743362128734588623046875">
        <ele>1853.199951171875</ele>
        <time>2020-10-24T09:29:29.000Z</time>
      </trkpt>
      <trkpt lat="42.1854110620915889739990234375" lon="1.73373690806329250335693359375">
        <ele>1854.199951171875</ele>
        <time>2020-10-24T09:29:33.000Z</time>
      </trkpt>
      <trkpt lat="42.185418941080570220947265625" lon="1.73373992554843425750732421875">
        <ele>1854.5999755859375</ele>
        <time>2020-10-24T09:29:34.000Z</time>
      </trkpt>
      <trkpt lat="42.185429669916629791259765625" lon="1.73372752033174037933349609375">
        <ele>1855.4000244140625</ele>
        <time>2020-10-24T09:29:37.000Z</time>
      </trkpt>
      <trkpt lat="42.18546646647155284881591796875" lon="1.7337244190275669097900390625">
        <ele>1856</ele>
        <time>2020-10-24T09:29:41.000Z</time>
      </trkpt>
      <trkpt lat="42.1854797936975955963134765625" lon="1.733721904456615447998046875">
        <ele>1856.4000244140625</ele>
        <time>2020-10-24T09:29:43.000Z</time>
      </trkpt>
      <trkpt lat="42.18549706041812896728515625" lon="1.733702458441257476806640625">
        <ele>1857.5999755859375</ele>
        <time>2020-10-24T09:29:47.000Z</time>
      </trkpt>
      <trkpt lat="42.18550284393131732940673828125" lon="1.7336989380419254302978515625">
        <ele>1857.5999755859375</ele>
        <time>2020-10-24T09:29:48.000Z</time>
      </trkpt>
      <trkpt lat="42.18551608733832836151123046875" lon="1.73366130329668521881103515625">
        <ele>1857.5999755859375</ele>
        <time>2020-10-24T09:29:53.000Z</time>
      </trkpt>
      <trkpt lat="42.1855139918625354766845703125" lon="1.733638085424900054931640625">
        <ele>1857.800048828125</ele>
        <time>2020-10-24T09:29:55.000Z</time>
      </trkpt>
      <trkpt lat="42.18554307706654071807861328125" lon="1.73364370130002498626708984375">
        <ele>1858.4000244140625</ele>
        <time>2020-10-24T09:30:01.000Z</time>
      </trkpt>
      <trkpt lat="42.18554458580911159515380859375" lon="1.73364110291004180908203125">
        <ele>1858.800048828125</ele>
        <time>2020-10-24T09:30:03.000Z</time>
      </trkpt>
      <trkpt lat="42.18555531464517116546630859375" lon="1.73364034853875637054443359375">
        <ele>1859.4000244140625</ele>
        <time>2020-10-24T09:30:06.000Z</time>
      </trkpt>
      <trkpt lat="42.1855411492288112640380859375" lon="1.73360564745962619781494140625">
        <ele>1859.800048828125</ele>
        <time>2020-10-24T09:30:08.000Z</time>
      </trkpt>
      <trkpt lat="42.18555246479809284210205078125" lon="1.7335934937000274658203125">
        <ele>1860.199951171875</ele>
        <time>2020-10-24T09:30:12.000Z</time>
      </trkpt>
      <trkpt lat="42.18556009232997894287109375" lon="1.73358284868299961090087890625">
        <ele>1860.800048828125</ele>
        <time>2020-10-24T09:30:15.000Z</time>
      </trkpt>
      <trkpt lat="42.185579203069210052490234375" lon="1.7335802502930164337158203125">
        <ele>1861.4000244140625</ele>
        <time>2020-10-24T09:30:18.000Z</time>
      </trkpt>
      <trkpt lat="42.18558490276336669921875" lon="1.73357329331338405609130859375">
        <ele>1861.800048828125</ele>
        <time>2020-10-24T09:30:21.000Z</time>
      </trkpt>
      <trkpt lat="42.18559102155268192291259765625" lon="1.733569018542766571044921875">
        <ele>1862</ele>
        <time>2020-10-24T09:30:23.000Z</time>
      </trkpt>
      <trkpt lat="42.18559051863849163055419921875" lon="1.7335597984492778778076171875">
        <ele>1862.199951171875</ele>
        <time>2020-10-24T09:30:24.000Z</time>
      </trkpt>
      <trkpt lat="42.18559672124683856964111328125" lon="1.73354680649936199188232421875">
        <ele>1862.800048828125</ele>
        <time>2020-10-24T09:30:27.000Z</time>
      </trkpt>
      <trkpt lat="42.185594625771045684814453125" lon="1.73349492251873016357421875">
        <ele>1863.800048828125</ele>
        <time>2020-10-24T09:30:33.000Z</time>
      </trkpt>
      <trkpt lat="42.1855984814465045928955078125" lon="1.7334890551865100860595703125">
        <ele>1863.800048828125</ele>
        <time>2020-10-24T09:30:34.000Z</time>
      </trkpt>
      <trkpt lat="42.18560862354934215545654296875" lon="1.73349835909903049468994140625">
        <ele>1864.5999755859375</ele>
        <time>2020-10-24T09:30:38.000Z</time>
      </trkpt>
      <trkpt lat="42.1856216154992580413818359375" lon="1.73349131830036640167236328125">
        <ele>1865</ele>
        <time>2020-10-24T09:30:42.000Z</time>
      </trkpt>
      <trkpt lat="42.18562387861311435699462890625" lon="1.73347949981689453125">
        <ele>1865.4000244140625</ele>
        <time>2020-10-24T09:30:44.000Z</time>
      </trkpt>
      <trkpt lat="42.18563963659107685089111328125" lon="1.733476482331752777099609375">
        <ele>1866.199951171875</ele>
        <time>2020-10-24T09:30:47.000Z</time>
      </trkpt>
      <trkpt lat="42.185642905533313751220703125" lon="1.7334511689841747283935546875">
        <ele>1867.199951171875</ele>
        <time>2020-10-24T09:30:52.000Z</time>
      </trkpt>
      <trkpt lat="42.18564458191394805908203125" lon="1.73344672657549381256103515625">
        <ele>1867.4000244140625</ele>
        <time>2020-10-24T09:30:53.000Z</time>
      </trkpt>
      <trkpt lat="42.18566981144249439239501953125" lon="1.7334432899951934814453125">
        <ele>1868.4000244140625</ele>
        <time>2020-10-24T09:30:59.000Z</time>
      </trkpt>
      <trkpt lat="42.185672409832477569580078125" lon="1.73343767412006855010986328125">
        <ele>1868.5999755859375</ele>
        <time>2020-10-24T09:31:00.000Z</time>
      </trkpt>
      <trkpt lat="42.1856782771646976470947265625" lon="1.73339492641389369964599609375">
        <ele>1869.5999755859375</ele>
        <time>2020-10-24T09:31:07.000Z</time>
      </trkpt>
      <trkpt lat="42.1856935322284698486328125" lon="1.73336676321923732757568359375">
        <ele>1870.800048828125</ele>
        <time>2020-10-24T09:31:15.000Z</time>
      </trkpt>
      <trkpt lat="42.18569512479007244110107421875" lon="1.7333613149821758270263671875">
        <ele>1871.199951171875</ele>
        <time>2020-10-24T09:31:17.000Z</time>
      </trkpt>
      <trkpt lat="42.18569713644683361053466796875" lon="1.73331613652408123016357421875">
        <ele>1872</ele>
        <time>2020-10-24T09:31:22.000Z</time>
      </trkpt>
      <trkpt lat="42.18570970930159091949462890625" lon="1.73331462778151035308837890625">
        <ele>1872.5999755859375</ele>
        <time>2020-10-24T09:31:24.000Z</time>
      </trkpt>
      <trkpt lat="42.18573703430593013763427734375" lon="1.7333204112946987152099609375">
        <ele>1873</ele>
        <time>2020-10-24T09:31:28.000Z</time>
      </trkpt>
      <trkpt lat="42.185757569968700408935546875" lon="1.73334865830838680267333984375">
        <ele>1874</ele>
        <time>2020-10-24T09:31:33.000Z</time>
      </trkpt>
      <trkpt lat="42.1857584081590175628662109375" lon="1.7333445511758327484130859375">
        <ele>1874.199951171875</ele>
        <time>2020-10-24T09:31:34.000Z</time>
      </trkpt>
      <trkpt lat="42.18575748614966869354248046875" lon="1.73333675600588321685791015625">
        <ele>1874.4000244140625</ele>
        <time>2020-10-24T09:31:35.000Z</time>
      </trkpt>
      <trkpt lat="42.18578967265784740447998046875" lon="1.73333725892007350921630859375">
        <ele>1875.199951171875</ele>
        <time>2020-10-24T09:31:40.000Z</time>
      </trkpt>
      <trkpt lat="42.18580308370292186737060546875" lon="1.73331546597182750701904296875">
        <ele>1876.199951171875</ele>
        <time>2020-10-24T09:31:46.000Z</time>
      </trkpt>
      <trkpt lat="42.185805179178714752197265625" lon="1.73331663943827152252197265625">
        <ele>1876.4000244140625</ele>
        <time>2020-10-24T09:31:47.000Z</time>
      </trkpt>
      <trkpt lat="42.18580760993063449859619140625" lon="1.73331496305763721466064453125">
        <ele>1877.199951171875</ele>
        <time>2020-10-24T09:31:50.000Z</time>
      </trkpt>
      <trkpt lat="42.18580878339707851409912109375" lon="1.73331144265830516815185546875">
        <ele>1877.5999755859375</ele>
        <time>2020-10-24T09:31:52.000Z</time>
      </trkpt>
      <trkpt lat="42.18581129796802997589111328125" lon="1.7333093471825122833251953125">
        <ele>1877.5999755859375</ele>
        <time>2020-10-24T09:31:53.000Z</time>
      </trkpt>
      <trkpt lat="42.1858113817870616912841796875" lon="1.73327757976949214935302734375">
        <ele>1878.4000244140625</ele>
        <time>2020-10-24T09:31:57.000Z</time>
      </trkpt>
      <trkpt lat="42.1858097054064273834228515625" lon="1.73327037133276462554931640625">
        <ele>1878.5999755859375</ele>
        <time>2020-10-24T09:31:58.000Z</time>
      </trkpt>
      <trkpt lat="42.18580995686352252960205078125" lon="1.7332654260098934173583984375">
        <ele>1878.800048828125</ele>
        <time>2020-10-24T09:31:59.000Z</time>
      </trkpt>
      <trkpt lat="42.18582219444215297698974609375" lon="1.73324505798518657684326171875">
        <ele>1879.5999755859375</ele>
        <time>2020-10-24T09:32:04.000Z</time>
      </trkpt>
      <trkpt lat="42.18582428991794586181640625" lon="1.73323634080588817596435546875">
        <ele>1879.800048828125</ele>
        <time>2020-10-24T09:32:05.000Z</time>
      </trkpt>
      <trkpt lat="42.185853458940982818603515625" lon="1.73323206603527069091796875">
        <ele>1880.800048828125</ele>
        <time>2020-10-24T09:32:10.000Z</time>
      </trkpt>
      <trkpt lat="42.18585706315934658050537109375" lon="1.7332335747778415679931640625">
        <ele>1881</ele>
        <time>2020-10-24T09:32:11.000Z</time>
      </trkpt>
      <trkpt lat="42.1858660317957401275634765625" lon="1.73320130445063114166259765625">
        <ele>1881.800048828125</ele>
        <time>2020-10-24T09:32:15.000Z</time>
      </trkpt>
      <trkpt lat="42.18586661852896213531494140625" lon="1.7331906594336032867431640625">
        <ele>1882.199951171875</ele>
        <time>2020-10-24T09:32:17.000Z</time>
      </trkpt>
      <trkpt lat="42.18589545227587223052978515625" lon="1.733188815414905548095703125">
        <ele>1883</ele>
        <time>2020-10-24T09:32:22.000Z</time>
      </trkpt>
      <trkpt lat="42.18590232543647289276123046875" lon="1.733173392713069915771484375">
        <ele>1883.800048828125</ele>
        <time>2020-10-24T09:32:27.000Z</time>
      </trkpt>
      <trkpt lat="42.18589528463780879974365234375" lon="1.73315335996448993682861328125">
        <ele>1884.199951171875</ele>
        <time>2020-10-24T09:32:29.000Z</time>
      </trkpt>
      <trkpt lat="42.18589260242879390716552734375" lon="1.7331276275217533111572265625">
        <ele>1885.199951171875</ele>
        <time>2020-10-24T09:32:34.000Z</time>
      </trkpt>
      <trkpt lat="42.18589645810425281524658203125" lon="1.73312117345631122589111328125">
        <ele>1885.4000244140625</ele>
        <time>2020-10-24T09:32:35.000Z</time>
      </trkpt>
      <trkpt lat="42.185909785330295562744140625" lon="1.73307993449270725250244140625">
        <ele>1886.5999755859375</ele>
        <time>2020-10-24T09:32:40.000Z</time>
      </trkpt>
      <trkpt lat="42.185915820300579071044921875" lon="1.73307892866432666778564453125">
        <ele>1886.800048828125</ele>
        <time>2020-10-24T09:32:41.000Z</time>
      </trkpt>
      <trkpt lat="42.18592311255633831024169921875" lon="1.7330723069608211517333984375">
        <ele>1887</ele>
        <time>2020-10-24T09:32:42.000Z</time>
      </trkpt>
      <trkpt lat="42.18593283556401729583740234375" lon="1.73306333832442760467529296875">
        <ele>1887.5999755859375</ele>
        <time>2020-10-24T09:32:46.000Z</time>
      </trkpt>
      <trkpt lat="42.18593694269657135009765625" lon="1.7330360971391201019287109375">
        <ele>1888</ele>
        <time>2020-10-24T09:32:49.000Z</time>
      </trkpt>
      <trkpt lat="42.1859525330364704132080078125" lon="1.73302159644663333892822265625">
        <ele>1888.5999755859375</ele>
        <time>2020-10-24T09:32:52.000Z</time>
      </trkpt>
      <trkpt lat="42.185956723988056182861328125" lon="1.733017824590206146240234375">
        <ele>1888.5999755859375</ele>
        <time>2020-10-24T09:32:53.000Z</time>
      </trkpt>
      <trkpt lat="42.1859656088054180145263671875" lon="1.7329819500446319580078125">
        <ele>1889.4000244140625</ele>
        <time>2020-10-24T09:32:58.000Z</time>
      </trkpt>
      <trkpt lat="42.18597323633730411529541015625" lon="1.7329752445220947265625">
        <ele>1889.5999755859375</ele>
        <time>2020-10-24T09:32:59.000Z</time>
      </trkpt>
      <trkpt lat="42.18601070344448089599609375" lon="1.73295303247869014739990234375">
        <ele>1890.4000244140625</ele>
        <time>2020-10-24T09:33:03.000Z</time>
      </trkpt>
      <trkpt lat="42.18602470122277736663818359375" lon="1.73292453400790691375732421875">
        <ele>1890.800048828125</ele>
        <time>2020-10-24T09:33:07.000Z</time>
      </trkpt>
      <trkpt lat="42.18602771870791912078857421875" lon="1.7329170741140842437744140625">
        <ele>1890.800048828125</ele>
        <time>2020-10-24T09:33:08.000Z</time>
      </trkpt>
      <trkpt lat="42.18602905981242656707763671875" lon="1.73288161866366863250732421875">
        <ele>1891.199951171875</ele>
        <time>2020-10-24T09:33:11.000Z</time>
      </trkpt>
      <trkpt lat="42.186042554676532745361328125" lon="1.73285521566867828369140625">
        <ele>1891.800048828125</ele>
        <time>2020-10-24T09:33:14.000Z</time>
      </trkpt>
      <trkpt lat="42.186074741184711456298828125" lon="1.73279310576617717742919921875">
        <ele>1892.5999755859375</ele>
        <time>2020-10-24T09:33:21.000Z</time>
      </trkpt>
      <trkpt lat="42.1860739029943943023681640625" lon="1.732787154614925384521484375">
        <ele>1892.800048828125</ele>
        <time>2020-10-24T09:33:23.000Z</time>
      </trkpt>
      <trkpt lat="42.1860722266137599945068359375" lon="1.73275873996317386627197265625">
        <ele>1893.4000244140625</ele>
        <time>2020-10-24T09:33:27.000Z</time>
      </trkpt>
      <trkpt lat="42.186074741184711456298828125" lon="1.7327407188713550567626953125">
        <ele>1893.800048828125</ele>
        <time>2020-10-24T09:33:30.000Z</time>
      </trkpt>
      <trkpt lat="42.18608069233596324920654296875" lon="1.7327393777668476104736328125">
        <ele>1894</ele>
        <time>2020-10-24T09:33:32.000Z</time>
      </trkpt>
      <trkpt lat="42.18609963543713092803955078125" lon="1.7327263019979000091552734375">
        <ele>1894.5999755859375</ele>
        <time>2020-10-24T09:33:36.000Z</time>
      </trkpt>
      <trkpt lat="42.18610332347452640533447265625" lon="1.73271766863763332366943359375">
        <ele>1895</ele>
        <time>2020-10-24T09:33:37.000Z</time>
      </trkpt>
      <trkpt lat="42.1861060895025730133056640625" lon="1.732709705829620361328125">
        <ele>1895.199951171875</ele>
        <time>2020-10-24T09:33:38.000Z</time>
      </trkpt>
      <trkpt lat="42.18612276948988437652587890625" lon="1.73266251571476459503173828125">
        <ele>1896.4000244140625</ele>
        <time>2020-10-24T09:33:43.000Z</time>
      </trkpt>
      <trkpt lat="42.18612712807953357696533203125" lon="1.732647009193897247314453125">
        <ele>1896.5999755859375</ele>
        <time>2020-10-24T09:33:45.000Z</time>
      </trkpt>
      <trkpt lat="42.18613768927752971649169921875" lon="1.73261960037052631378173828125">
        <ele>1897.5999755859375</ele>
        <time>2020-10-24T09:33:49.000Z</time>
      </trkpt>
      <trkpt lat="42.18614707700908184051513671875" lon="1.73260987736284732818603515625">
        <ele>1897.800048828125</ele>
        <time>2020-10-24T09:33:51.000Z</time>
      </trkpt>
      <trkpt lat="42.1861567161977291107177734375" lon="1.732590012252330780029296875">
        <ele>1898.199951171875</ele>
        <time>2020-10-24T09:33:54.000Z</time>
      </trkpt>
      <trkpt lat="42.18616149388253688812255859375" lon="1.73258439637720584869384765625">
        <ele>1898.4000244140625</ele>
        <time>2020-10-24T09:33:55.000Z</time>
      </trkpt>
      <trkpt lat="42.1861650981009006500244140625" lon="1.7325767688453197479248046875">
        <ele>1898.5999755859375</ele>
        <time>2020-10-24T09:33:56.000Z</time>
      </trkpt>
      <trkpt lat="42.18616895377635955810546875" lon="1.73257358372211456298828125">
        <ele>1898.5999755859375</ele>
        <time>2020-10-24T09:33:57.000Z</time>
      </trkpt>
      <trkpt lat="42.18617809005081653594970703125" lon="1.73254868946969509124755859375">
        <ele>1899.199951171875</ele>
        <time>2020-10-24T09:34:00.000Z</time>
      </trkpt>
      <trkpt lat="42.1861895732581615447998046875" lon="1.73254944384098052978515625">
        <ele>1899.5999755859375</ele>
        <time>2020-10-24T09:34:03.000Z</time>
      </trkpt>
      <trkpt lat="42.186188735067844390869140625" lon="1.73255723901093006134033203125">
        <ele>1899.5999755859375</ele>
        <time>2020-10-24T09:34:04.000Z</time>
      </trkpt>
      <trkpt lat="42.18618714250624179840087890625" lon="1.73256595619022846221923828125">
        <ele>1899.800048828125</ele>
        <time>2020-10-24T09:34:05.000Z</time>
      </trkpt>
      <trkpt lat="42.18619032762944698333740234375" lon="1.732575595378875732421875">
        <ele>1900</ele>
        <time>2020-10-24T09:34:06.000Z</time>
      </trkpt>
      <trkpt lat="42.1862100251019001007080078125" lon="1.7325928620994091033935546875">
        <ele>1900.800048828125</ele>
        <time>2020-10-24T09:34:10.000Z</time>
      </trkpt>
      <trkpt lat="42.1862184070050716400146484375" lon="1.7325992323458194732666015625">
        <ele>1900.800048828125</ele>
        <time>2020-10-24T09:34:11.000Z</time>
      </trkpt>
      <trkpt lat="42.18621681444346904754638671875" lon="1.73256914131343364715576171875">
        <ele>1901.5999755859375</ele>
        <time>2020-10-24T09:34:16.000Z</time>
      </trkpt>
      <trkpt lat="42.1862207539379596710205078125" lon="1.73256159760057926177978515625">
        <ele>1901.800048828125</ele>
        <time>2020-10-24T09:34:17.000Z</time>
      </trkpt>
      <trkpt lat="42.18623307533562183380126953125" lon="1.73253209330141544342041015625">
        <ele>1903</ele>
        <time>2020-10-24T09:34:22.000Z</time>
      </trkpt>
      <trkpt lat="42.18624095432460308074951171875" lon="1.73253779299557209014892578125">
        <ele>1903</ele>
        <time>2020-10-24T09:34:23.000Z</time>
      </trkpt>
      <trkpt lat="42.18626073561608791351318359375" lon="1.7325563170015811920166015625">
        <ele>1903.5999755859375</ele>
        <time>2020-10-24T09:34:26.000Z</time>
      </trkpt>
      <trkpt lat="42.18626962043344974517822265625" lon="1.73255975358188152313232421875">
        <ele>1904</ele>
        <time>2020-10-24T09:34:28.000Z</time>
      </trkpt>
      <trkpt lat="42.18627481721341609954833984375" lon="1.73255723901093006134033203125">
        <ele>1904.199951171875</ele>
        <time>2020-10-24T09:34:30.000Z</time>
      </trkpt>
      <trkpt lat="42.18628101982176303863525390625" lon="1.73255212604999542236328125">
        <ele>1905</ele>
        <time>2020-10-24T09:34:33.000Z</time>
      </trkpt>
      <trkpt lat="42.18628705479204654693603515625" lon="1.73253871500492095947265625">
        <ele>1905.199951171875</ele>
        <time>2020-10-24T09:34:35.000Z</time>
      </trkpt>
      <trkpt lat="42.18629862181842327117919921875" lon="1.73252421431243419647216796875">
        <ele>1905.5999755859375</ele>
        <time>2020-10-24T09:34:37.000Z</time>
      </trkpt>
      <trkpt lat="42.18631622381508350372314453125" lon="1.73252790234982967376708984375">
        <ele>1906</ele>
        <time>2020-10-24T09:34:39.000Z</time>
      </trkpt>
      <trkpt lat="42.1863184869289398193359375" lon="1.73246604390442371368408203125">
        <ele>1907</ele>
        <time>2020-10-24T09:34:43.000Z</time>
      </trkpt>
      <trkpt lat="42.18631924130022525787353515625" lon="1.7324610985815525054931640625">
        <ele>1907</ele>
        <time>2020-10-24T09:34:44.000Z</time>
      </trkpt>
      <trkpt lat="42.1863317303359508514404296875" lon="1.7324610985815525054931640625">
        <ele>1907.4000244140625</ele>
        <time>2020-10-24T09:34:47.000Z</time>
      </trkpt>
      <trkpt lat="42.18633667565882205963134765625" lon="1.7324562370777130126953125">
        <ele>1907.5999755859375</ele>
        <time>2020-10-24T09:34:48.000Z</time>
      </trkpt>
      <trkpt lat="42.18637674115598201751708984375" lon="1.73242312856018543243408203125">
        <ele>1908.199951171875</ele>
        <time>2020-10-24T09:34:55.000Z</time>
      </trkpt>
      <trkpt lat="42.18639803119003772735595703125" lon="1.73240636475384235382080078125">
        <ele>1908.5999755859375</ele>
        <time>2020-10-24T09:34:58.000Z</time>
      </trkpt>
      <trkpt lat="42.18643005006015300750732421875" lon="1.73241273500025272369384765625">
        <ele>1909.199951171875</ele>
        <time>2020-10-24T09:35:02.000Z</time>
      </trkpt>
      <trkpt lat="42.18645066954195499420166015625" lon="1.73238675110042095184326171875">
        <ele>1910</ele>
        <time>2020-10-24T09:35:06.000Z</time>
      </trkpt>
      <trkpt lat="42.18645863234996795654296875" lon="1.73237032257020473480224609375">
        <ele>1910.4000244140625</ele>
        <time>2020-10-24T09:35:09.000Z</time>
      </trkpt>
      <trkpt lat="42.1864748932421207427978515625" lon="1.73233092762529850006103515625">
        <ele>1911.199951171875</ele>
        <time>2020-10-24T09:35:14.000Z</time>
      </trkpt>
      <trkpt lat="42.186477743089199066162109375" lon="1.73232405446469783782958984375">
        <ele>1911.4000244140625</ele>
        <time>2020-10-24T09:35:15.000Z</time>
      </trkpt>
      <trkpt lat="42.18649618327617645263671875" lon="1.73231852240860462188720703125">
        <ele>1912</ele>
        <time>2020-10-24T09:35:19.000Z</time>
      </trkpt>
      <trkpt lat="42.18650230206549167633056640625" lon="1.73230410553514957427978515625">
        <ele>1912.199951171875</ele>
        <time>2020-10-24T09:35:21.000Z</time>
      </trkpt>
      <trkpt lat="42.18651185743510723114013671875" lon="1.73229522071778774261474609375">
        <ele>1912.5999755859375</ele>
        <time>2020-10-24T09:35:23.000Z</time>
      </trkpt>
      <trkpt lat="42.18653909862041473388671875" lon="1.7322953045368194580078125">
        <ele>1913.199951171875</ele>
        <time>2020-10-24T09:35:28.000Z</time>
      </trkpt>
      <trkpt lat="42.18654270283877849578857421875" lon="1.73228524625301361083984375">
        <ele>1913.4000244140625</ele>
        <time>2020-10-24T09:35:30.000Z</time>
      </trkpt>
      <trkpt lat="42.1865451335906982421875" lon="1.73228482715785503387451171875">
        <ele>1913.5999755859375</ele>
        <time>2020-10-24T09:35:31.000Z</time>
      </trkpt>
      <trkpt lat="42.186552174389362335205078125" lon="1.73228180967271327972412109375">
        <ele>1914.199951171875</ele>
        <time>2020-10-24T09:35:35.000Z</time>
      </trkpt>
      <trkpt lat="42.1865650825202465057373046875" lon="1.7322619445621967315673828125">
        <ele>1914.5999755859375</ele>
        <time>2020-10-24T09:35:41.000Z</time>
      </trkpt>
      <trkpt lat="42.1865798346698284149169921875" lon="1.73225683160126209259033203125">
        <ele>1915.199951171875</ele>
        <time>2020-10-24T09:35:44.000Z</time>
      </trkpt>
      <trkpt lat="42.18657891266047954559326171875" lon="1.73224979080259799957275390625">
        <ele>1915.800048828125</ele>
        <time>2020-10-24T09:35:46.000Z</time>
      </trkpt>
      <trkpt lat="42.1865831874310970306396484375" lon="1.73222900368273258209228515625">
        <ele>1916.5999755859375</ele>
        <time>2020-10-24T09:35:51.000Z</time>
      </trkpt>
      <trkpt lat="42.1865867078304290771484375" lon="1.73221525736153125762939453125">
        <ele>1916.800048828125</ele>
        <time>2020-10-24T09:35:53.000Z</time>
      </trkpt>
      <trkpt lat="42.1865952573716640472412109375" lon="1.73218038864433765411376953125">
        <ele>1917.5999755859375</ele>
        <time>2020-10-24T09:36:00.000Z</time>
      </trkpt>
      <trkpt lat="42.1865996159613132476806640625" lon="1.732175610959529876708984375">
        <ele>1917.800048828125</ele>
        <time>2020-10-24T09:36:02.000Z</time>
      </trkpt>
      <trkpt lat="42.18662434257566928863525390625" lon="1.7321640439331531524658203125">
        <ele>1919</ele>
        <time>2020-10-24T09:36:08.000Z</time>
      </trkpt>
      <trkpt lat="42.18664781190454959869384765625" lon="1.732139401137828826904296875">
        <ele>1920.199951171875</ele>
        <time>2020-10-24T09:36:14.000Z</time>
      </trkpt>
      <trkpt lat="42.18664965592324733734130859375" lon="1.7321476154029369354248046875">
        <ele>1920.4000244140625</ele>
        <time>2020-10-24T09:36:15.000Z</time>
      </trkpt>
      <trkpt lat="42.18664638698101043701171875" lon="1.73208483494818210601806640625">
        <ele>1920.800048828125</ele>
        <time>2020-10-24T09:36:24.000Z</time>
      </trkpt>
      <trkpt lat="42.18666742555797100067138671875" lon="1.7320352979004383087158203125">
        <ele>1921</ele>
        <time>2020-10-24T09:36:36.000Z</time>
      </trkpt>
      <trkpt lat="42.18667094595730304718017578125" lon="1.73203177750110626220703125">
        <ele>1921.199951171875</ele>
        <time>2020-10-24T09:36:42.000Z</time>
      </trkpt>
      <trkpt lat="42.18665569089353084564208984375" lon="1.73203236423432826995849609375">
        <ele>1921.800048828125</ele>
        <time>2020-10-24T09:36:46.000Z</time>
      </trkpt>
      <trkpt lat="42.1866398490965366363525390625" lon="1.73203538171947002410888671875">
        <ele>1922.199951171875</ele>
        <time>2020-10-24T09:36:48.000Z</time>
      </trkpt>
      <trkpt lat="42.18663155101239681243896484375" lon="1.73203404061496257781982421875">
        <ele>1922.4000244140625</ele>
        <time>2020-10-24T09:36:50.000Z</time>
      </trkpt>
      <trkpt lat="42.18662434257566928863525390625" lon="1.73202800564467906951904296875">
        <ele>1922.5999755859375</ele>
        <time>2020-10-24T09:36:52.000Z</time>
      </trkpt>
      <trkpt lat="42.1866081655025482177734375" lon="1.732019372284412384033203125">
        <ele>1922.800048828125</ele>
        <time>2020-10-24T09:36:54.000Z</time>
      </trkpt>
      <trkpt lat="42.1865989454090595245361328125" lon="1.73200168646872043609619140625">
        <ele>1923</ele>
        <time>2020-10-24T09:36:56.000Z</time>
      </trkpt>
      <trkpt lat="42.18659014441072940826416015625" lon="1.7319695837795734405517578125">
        <ele>1923.4000244140625</ele>
        <time>2020-10-24T09:36:58.000Z</time>
      </trkpt>
      <trkpt lat="42.1866167150437831878662109375" lon="1.73194787465035915374755859375">
        <ele>1924.4000244140625</ele>
        <time>2020-10-24T09:37:03.000Z</time>
      </trkpt>
      <trkpt lat="42.1866492368280887603759765625" lon="1.7319548316299915313720703125">
        <ele>1925.4000244140625</ele>
        <time>2020-10-24T09:37:08.000Z</time>
      </trkpt>
      <trkpt lat="42.18665778636932373046875" lon="1.731954999268054962158203125">
        <ele>1925.800048828125</ele>
        <time>2020-10-24T09:37:10.000Z</time>
      </trkpt>
      <trkpt lat="42.18665753491222858428955078125" lon="1.73192918300628662109375">
        <ele>1926.4000244140625</ele>
        <time>2020-10-24T09:37:13.000Z</time>
      </trkpt>
      <trkpt lat="42.18664596788585186004638671875" lon="1.73187143169343471527099609375">
        <ele>1927.199951171875</ele>
        <time>2020-10-24T09:37:17.000Z</time>
      </trkpt>
      <trkpt lat="42.186642028391361236572265625" lon="1.7318565957248210906982421875">
        <ele>1927.4000244140625</ele>
        <time>2020-10-24T09:37:18.000Z</time>
      </trkpt>
      <trkpt lat="42.18663632869720458984375" lon="1.73178358934819698333740234375">
        <ele>1928.5999755859375</ele>
        <time>2020-10-24T09:37:25.000Z</time>
      </trkpt>
      <trkpt lat="42.1866425313055515289306640625" lon="1.731782667338848114013671875">
        <ele>1929</ele>
        <time>2020-10-24T09:37:30.000Z</time>
      </trkpt>
      <trkpt lat="42.18664814718067646026611328125" lon="1.73175819218158721923828125">
        <ele>1929.199951171875</ele>
        <time>2020-10-24T09:37:37.000Z</time>
      </trkpt>
      <trkpt lat="42.186664827167987823486328125" lon="1.73175123520195484161376953125">
        <ele>1929.5999755859375</ele>
        <time>2020-10-24T09:37:40.000Z</time>
      </trkpt>
      <trkpt lat="42.18667429871857166290283203125" lon="1.73175056464970111846923828125">
        <ele>1930.4000244140625</ele>
        <time>2020-10-24T09:37:42.000Z</time>
      </trkpt>
      <trkpt lat="42.18668418936431407928466796875" lon="1.73174872063100337982177734375">
        <ele>1930.800048828125</ele>
        <time>2020-10-24T09:37:44.000Z</time>
      </trkpt>
      <trkpt lat="42.18668553046882152557373046875" lon="1.73174000345170497894287109375">
        <ele>1931.5999755859375</ele>
        <time>2020-10-24T09:37:48.000Z</time>
      </trkpt>
      <trkpt lat="42.1866830997169017791748046875" lon="1.73173807561397552490234375">
        <ele>1931.800048828125</ele>
        <time>2020-10-24T09:37:49.000Z</time>
      </trkpt>
      <trkpt lat="42.18668259680271148681640625" lon="1.73173882998526096343994140625">
        <ele>1932</ele>
        <time>2020-10-24T09:37:50.000Z</time>
      </trkpt>
      <trkpt lat="42.18667949549853801727294921875" lon="1.73170798458158969879150390625">
        <ele>1932.800048828125</ele>
        <time>2020-10-24T09:37:55.000Z</time>
      </trkpt>
      <trkpt lat="42.1866777352988719940185546875" lon="1.73170320689678192138671875">
        <ele>1933.199951171875</ele>
        <time>2020-10-24T09:37:56.000Z</time>
      </trkpt>
      <trkpt lat="42.1866886317729949951171875" lon="1.731706559658050537109375">
        <ele>1933.4000244140625</ele>
        <time>2020-10-24T09:37:58.000Z</time>
      </trkpt>
      <trkpt lat="42.18669005669653415679931640625" lon="1.73170295543968677520751953125">
        <ele>1933.800048828125</ele>
        <time>2020-10-24T09:38:00.000Z</time>
      </trkpt>
      <trkpt lat="42.18667798675596714019775390625" lon="1.73169323243200778961181640625">
        <ele>1934.199951171875</ele>
        <time>2020-10-24T09:38:02.000Z</time>
      </trkpt>
      <trkpt lat="42.18667094595730304718017578125" lon="1.73168183304369449615478515625">
        <ele>1935</ele>
        <time>2020-10-24T09:38:06.000Z</time>
      </trkpt>
      <trkpt lat="42.18667178414762020111083984375" lon="1.73167906701564788818359375">
        <ele>1935.199951171875</ele>
        <time>2020-10-24T09:38:07.000Z</time>
      </trkpt>
      <trkpt lat="42.18665887601673603057861328125" lon="1.73165668733417987823486328125">
        <ele>1936.4000244140625</ele>
        <time>2020-10-24T09:38:12.000Z</time>
      </trkpt>
      <trkpt lat="42.1866552717983722686767578125" lon="1.73164763487875461578369140625">
        <ele>1936.5999755859375</ele>
        <time>2020-10-24T09:38:13.000Z</time>
      </trkpt>
      <trkpt lat="42.18663373030722141265869140625" lon="1.731608994305133819580078125">
        <ele>1937.4000244140625</ele>
        <time>2020-10-24T09:38:18.000Z</time>
      </trkpt>
      <trkpt lat="42.18663490377366542816162109375" lon="1.73160262405872344970703125">
        <ele>1937.5999755859375</ele>
        <time>2020-10-24T09:38:19.000Z</time>
      </trkpt>
      <trkpt lat="42.18664261512458324432373046875" lon="1.73159549944102764129638671875">
        <ele>1938</ele>
        <time>2020-10-24T09:38:21.000Z</time>
      </trkpt>
      <trkpt lat="42.18664965592324733734130859375" lon="1.73157714307308197021484375">
        <ele>1938.800048828125</ele>
        <time>2020-10-24T09:38:24.000Z</time>
      </trkpt>
      <trkpt lat="42.18664814718067646026611328125" lon="1.7315675877034664154052734375">
        <ele>1939</ele>
        <time>2020-10-24T09:38:25.000Z</time>
      </trkpt>
      <trkpt lat="42.1866509132087230682373046875" lon="1.73155493102967739105224609375">
        <ele>1939.5999755859375</ele>
        <time>2020-10-24T09:38:28.000Z</time>
      </trkpt>
      <trkpt lat="42.1866502426564693450927734375" lon="1.7315468005836009979248046875">
        <ele>1939.800048828125</ele>
        <time>2020-10-24T09:38:29.000Z</time>
      </trkpt>
      <trkpt lat="42.186647392809391021728515625" lon="1.731533892452716827392578125">
        <ele>1940</ele>
        <time>2020-10-24T09:38:30.000Z</time>
      </trkpt>
      <trkpt lat="42.1866418607532978057861328125" lon="1.731508076190948486328125">
        <ele>1940.199951171875</ele>
        <time>2020-10-24T09:38:32.000Z</time>
      </trkpt>
      <trkpt lat="42.18664043582975864410400390625" lon="1.73149609006941318511962890625">
        <ele>1940.4000244140625</ele>
        <time>2020-10-24T09:38:33.000Z</time>
      </trkpt>
      <trkpt lat="42.1866415254771709442138671875" lon="1.7314857803285121917724609375">
        <ele>1940.800048828125</ele>
        <time>2020-10-24T09:38:34.000Z</time>
      </trkpt>
      <trkpt lat="42.186634652316570281982421875" lon="1.731440015137195587158203125">
        <ele>1941.199951171875</ele>
        <time>2020-10-24T09:38:37.000Z</time>
      </trkpt>
      <trkpt lat="42.1866324730217456817626953125" lon="1.731423921883106231689453125">
        <ele>1941.4000244140625</ele>
        <time>2020-10-24T09:38:40.000Z</time>
      </trkpt>
      <trkpt lat="42.1866240911185741424560546875" lon="1.7313945852220058441162109375">
        <ele>1941.800048828125</ele>
        <time>2020-10-24T09:38:44.000Z</time>
      </trkpt>
      <trkpt lat="42.18662358820438385009765625" lon="1.73138846643269062042236328125">
        <ele>1942.199951171875</ele>
        <time>2020-10-24T09:38:46.000Z</time>
      </trkpt>
      <trkpt lat="42.18664680607616901397705078125" lon="1.73136952333152294158935546875">
        <ele>1943</ele>
        <time>2020-10-24T09:38:50.000Z</time>
      </trkpt>
      <trkpt lat="42.1866403520107269287109375" lon="1.73132392577826976776123046875">
        <ele>1943.4000244140625</ele>
        <time>2020-10-24T09:38:53.000Z</time>
      </trkpt>
      <trkpt lat="42.18664043582975864410400390625" lon="1.73131101764738559722900390625">
        <ele>1943.4000244140625</ele>
        <time>2020-10-24T09:38:54.000Z</time>
      </trkpt>
      <trkpt lat="42.1866415254771709442138671875" lon="1.731284447014331817626953125">
        <ele>1943.800048828125</ele>
        <time>2020-10-24T09:38:57.000Z</time>
      </trkpt>
      <trkpt lat="42.1866371668875217437744140625" lon="1.731278412044048309326171875">
        <ele>1944</ele>
        <time>2020-10-24T09:38:59.000Z</time>
      </trkpt>
      <trkpt lat="42.1866264380514621734619140625" lon="1.731262318789958953857421875">
        <ele>1944.5999755859375</ele>
        <time>2020-10-24T09:39:02.000Z</time>
      </trkpt>
      <trkpt lat="42.1866349875926971435546875" lon="1.731240190565586090087890625">
        <ele>1945</ele>
        <time>2020-10-24T09:39:07.000Z</time>
      </trkpt>
      <trkpt lat="42.186630629003047943115234375" lon="1.7312249355018138885498046875">
        <ele>1945.199951171875</ele>
        <time>2020-10-24T09:39:08.000Z</time>
      </trkpt>
      <trkpt lat="42.1866378374397754669189453125" lon="1.7311719618737697601318359375">
        <ele>1946</ele>
        <time>2020-10-24T09:39:13.000Z</time>
      </trkpt>
      <trkpt lat="42.1866428665816783905029296875" lon="1.731164418160915374755859375">
        <ele>1946.199951171875</ele>
        <time>2020-10-24T09:39:14.000Z</time>
      </trkpt>
      <trkpt lat="42.1866502426564693450927734375" lon="1.731155700981616973876953125">
        <ele>1946.4000244140625</ele>
        <time>2020-10-24T09:39:15.000Z</time>
      </trkpt>
      <trkpt lat="42.18663356266915798187255859375" lon="1.731115467846393585205078125">
        <ele>1947.199951171875</ele>
        <time>2020-10-24T09:39:19.000Z</time>
      </trkpt>
      <trkpt lat="42.186634652316570281982421875" lon="1.7311089299619197845458984375">
        <ele>1947.199951171875</ele>
        <time>2020-10-24T09:39:20.000Z</time>
      </trkpt>
      <trkpt lat="42.186644375324249267578125" lon="1.73110214062035083770751953125">
        <ele>1947.5999755859375</ele>
        <time>2020-10-24T09:39:22.000Z</time>
      </trkpt>
      <trkpt lat="42.186644040048122406005859375" lon="1.73109644092619419097900390625">
        <ele>1947.5999755859375</ele>
        <time>2020-10-24T09:39:23.000Z</time>
      </trkpt>
      <trkpt lat="42.1866472251713275909423828125" lon="1.73107548616826534271240234375">
        <ele>1948.199951171875</ele>
        <time>2020-10-24T09:39:28.000Z</time>
      </trkpt>
      <trkpt lat="42.1866509132087230682373046875" lon="1.731043718755245208740234375">
        <ele>1948.4000244140625</ele>
        <time>2020-10-24T09:39:31.000Z</time>
      </trkpt>
      <trkpt lat="42.18664747662842273712158203125" lon="1.7310371808707714080810546875">
        <ele>1948.5999755859375</ele>
        <time>2020-10-24T09:39:33.000Z</time>
      </trkpt>
      <trkpt lat="42.18666809611022472381591796875" lon="1.73101429827511310577392578125">
        <ele>1949.4000244140625</ele>
        <time>2020-10-24T09:39:39.000Z</time>
      </trkpt>
      <trkpt lat="42.1866725385189056396484375" lon="1.731011532247066497802734375">
        <ele>1949.5999755859375</ele>
        <time>2020-10-24T09:39:40.000Z</time>
      </trkpt>
      <trkpt lat="42.18671117909252643585205078125" lon="1.73099569045007228851318359375">
        <ele>1950.4000244140625</ele>
        <time>2020-10-24T09:39:45.000Z</time>
      </trkpt>
      <trkpt lat="42.186720483005046844482421875" lon="1.7309966124594211578369140625">
        <ele>1950.5999755859375</ele>
        <time>2020-10-24T09:39:47.000Z</time>
      </trkpt>
      <trkpt lat="42.1867310442030429840087890625" lon="1.73098010011017322540283203125">
        <ele>1951.199951171875</ele>
        <time>2020-10-24T09:39:52.000Z</time>
      </trkpt>
      <trkpt lat="42.18673749826848506927490234375" lon="1.73096367157995700836181640625">
        <ele>1951.5999755859375</ele>
        <time>2020-10-24T09:39:55.000Z</time>
      </trkpt>
      <trkpt lat="42.18675308860838413238525390625" lon="1.73095713369548320770263671875">
        <ele>1952.4000244140625</ele>
        <time>2020-10-24T09:39:59.000Z</time>
      </trkpt>
      <trkpt lat="42.1867652423679828643798828125" lon="1.73095378093421459197998046875">
        <ele>1952.5999755859375</ele>
        <time>2020-10-24T09:40:01.000Z</time>
      </trkpt>
      <trkpt lat="42.1867712773382663726806640625" lon="1.7309273779392242431640625">
        <ele>1953.4000244140625</ele>
        <time>2020-10-24T09:40:05.000Z</time>
      </trkpt>
      <trkpt lat="42.1867712773382663726806640625" lon="1.73091857694089412689208984375">
        <ele>1953.800048828125</ele>
        <time>2020-10-24T09:40:06.000Z</time>
      </trkpt>
      <trkpt lat="42.1867950819432735443115234375" lon="1.7308883182704448699951171875">
        <ele>1954.800048828125</ele>
        <time>2020-10-24T09:40:11.000Z</time>
      </trkpt>
      <trkpt lat="42.186800278723239898681640625" lon="1.73088387586176395416259765625">
        <ele>1954.800048828125</ele>
        <time>2020-10-24T09:40:12.000Z</time>
      </trkpt>
      <trkpt lat="42.18680136837065219879150390625" lon="1.730872057378292083740234375">
        <ele>1955.199951171875</ele>
        <time>2020-10-24T09:40:14.000Z</time>
      </trkpt>
      <trkpt lat="42.18679952435195446014404296875" lon="1.730848588049411773681640625">
        <ele>1956</ele>
        <time>2020-10-24T09:40:18.000Z</time>
      </trkpt>
      <trkpt lat="42.18679969199001789093017578125" lon="1.73083509318530559539794921875">
        <ele>1956.4000244140625</ele>
        <time>2020-10-24T09:40:21.000Z</time>
      </trkpt>
      <trkpt lat="42.18680103309452533721923828125" lon="1.7308205924928188323974609375">
        <ele>1957.199951171875</ele>
        <time>2020-10-24T09:40:24.000Z</time>
      </trkpt>
      <trkpt lat="42.1868041343986988067626953125" lon="1.7308148927986621856689453125">
        <ele>1957.4000244140625</ele>
        <time>2020-10-24T09:40:26.000Z</time>
      </trkpt>
      <trkpt lat="42.18681025318801403045654296875" lon="1.73080542124807834625244140625">
        <ele>1957.800048828125</ele>
        <time>2020-10-24T09:40:28.000Z</time>
      </trkpt>
      <trkpt lat="42.18682031147181987762451171875" lon="1.73080005683004856109619140625">
        <ele>1958</ele>
        <time>2020-10-24T09:40:30.000Z</time>
      </trkpt>
      <trkpt lat="42.18682475388050079345703125" lon="1.7307947762310504913330078125">
        <ele>1958.199951171875</ele>
        <time>2020-10-24T09:40:31.000Z</time>
      </trkpt>
      <trkpt lat="42.18683925457298755645751953125" lon="1.7307706363499164581298828125">
        <ele>1959.199951171875</ele>
        <time>2020-10-24T09:40:35.000Z</time>
      </trkpt>
      <trkpt lat="42.1868396736681461334228515625" lon="1.73076552338898181915283203125">
        <ele>1959.5999755859375</ele>
        <time>2020-10-24T09:40:36.000Z</time>
      </trkpt>
      <trkpt lat="42.1868467144668102264404296875" lon="1.7307530343532562255859375">
        <ele>1960</ele>
        <time>2020-10-24T09:40:39.000Z</time>
      </trkpt>
      <trkpt lat="42.18685291707515716552734375" lon="1.73073828220367431640625">
        <ele>1960.5999755859375</ele>
        <time>2020-10-24T09:40:42.000Z</time>
      </trkpt>
      <trkpt lat="42.18686222098767757415771484375" lon="1.73070902936160564422607421875">
        <ele>1961.4000244140625</ele>
        <time>2020-10-24T09:40:46.000Z</time>
      </trkpt>
      <trkpt lat="42.18686942942440509796142578125" lon="1.73069930635392665863037109375">
        <ele>1961.800048828125</ele>
        <time>2020-10-24T09:40:48.000Z</time>
      </trkpt>
      <trkpt lat="42.18688317574560642242431640625" lon="1.73065714538097381591796875">
        <ele>1963</ele>
        <time>2020-10-24T09:40:53.000Z</time>
      </trkpt>
      <trkpt lat="42.18689004890620708465576171875" lon="1.730652116239070892333984375">
        <ele>1963.199951171875</ele>
        <time>2020-10-24T09:40:54.000Z</time>
      </trkpt>
      <trkpt lat="42.186900191009044647216796875" lon="1.73063208349049091339111328125">
        <ele>1963.5999755859375</ele>
        <time>2020-10-24T09:40:57.000Z</time>
      </trkpt>
      <trkpt lat="42.18691083602607250213623046875" lon="1.73060894943773746490478515625">
        <ele>1964</ele>
        <time>2020-10-24T09:41:00.000Z</time>
      </trkpt>
      <trkpt lat="42.18691385351121425628662109375" lon="1.7306006513535976409912109375">
        <ele>1964.199951171875</ele>
        <time>2020-10-24T09:41:01.000Z</time>
      </trkpt>
      <trkpt lat="42.1869342215359210968017578125" lon="1.73056787811219692230224609375">
        <ele>1965</ele>
        <time>2020-10-24T09:41:07.000Z</time>
      </trkpt>
      <trkpt lat="42.18694805167615413665771484375" lon="1.73054809682071208953857421875">
        <ele>1965.4000244140625</ele>
        <time>2020-10-24T09:41:10.000Z</time>
      </trkpt>
      <trkpt lat="42.18696691095829010009765625" lon="1.73052127473056316375732421875">
        <ele>1966.199951171875</ele>
        <time>2020-10-24T09:41:14.000Z</time>
      </trkpt>
      <trkpt lat="42.1870083175599575042724609375" lon="1.73049227334558963775634765625">
        <ele>1967</ele>
        <time>2020-10-24T09:41:20.000Z</time>
      </trkpt>
      <trkpt lat="42.1870173700153827667236328125" lon="1.73047282733023166656494140625">
        <ele>1967.199951171875</ele>
        <time>2020-10-24T09:41:22.000Z</time>
      </trkpt>
      <trkpt lat="42.18706573359668254852294921875" lon="1.7304296605288982391357421875">
        <ele>1968.199951171875</ele>
        <time>2020-10-24T09:41:31.000Z</time>
      </trkpt>
      <trkpt lat="42.1870864368975162506103515625" lon="1.73038615845143795013427734375">
        <ele>1969.4000244140625</ele>
        <time>2020-10-24T09:41:37.000Z</time>
      </trkpt>
      <trkpt lat="42.18710839748382568359375" lon="1.7303384654223918914794921875">
        <ele>1970</ele>
        <time>2020-10-24T09:41:42.000Z</time>
      </trkpt>
      <trkpt lat="42.187122143805027008056640625" lon="1.73030820675194263458251953125">
        <ele>1970.4000244140625</ele>
        <time>2020-10-24T09:41:45.000Z</time>
      </trkpt>
      <trkpt lat="42.18713052570819854736328125" lon="1.73028356395661830902099609375">
        <ele>1970.800048828125</ele>
        <time>2020-10-24T09:41:48.000Z</time>
      </trkpt>
      <trkpt lat="42.18712658621370792388916015625" lon="1.73021868802607059478759765625">
        <ele>1971.4000244140625</ele>
        <time>2020-10-24T09:41:55.000Z</time>
      </trkpt>
      <trkpt lat="42.187132537364959716796875" lon="1.7301932908594608306884765625">
        <ele>1971.800048828125</ele>
        <time>2020-10-24T09:41:57.000Z</time>
      </trkpt>
      <trkpt lat="42.1871216408908367156982421875" lon="1.73014962114393711090087890625">
        <ele>1971.800048828125</ele>
        <time>2020-10-24T09:42:02.000Z</time>
      </trkpt>
      <trkpt lat="42.18713798560202121734619140625" lon="1.73010729253292083740234375">
        <ele>1972</ele>
        <time>2020-10-24T09:42:07.000Z</time>
      </trkpt>
      <trkpt lat="42.18713865615427494049072265625" lon="1.73009446822106838226318359375">
        <ele>1972</ele>
        <time>2020-10-24T09:42:08.000Z</time>
      </trkpt>
      <trkpt lat="42.18712658621370792388916015625" lon="1.73002691008150577545166015625">
        <ele>1972.199951171875</ele>
        <time>2020-10-24T09:42:12.000Z</time>
      </trkpt>
      <trkpt lat="42.18713396228849887847900390625" lon="1.73000813461840152740478515625">
        <ele>1972.4000244140625</ele>
        <time>2020-10-24T09:42:14.000Z</time>
      </trkpt>
      <trkpt lat="42.1871494688093662261962890625" lon="1.729952730238437652587890625">
        <ele>1972.5999755859375</ele>
        <time>2020-10-24T09:42:18.000Z</time>
      </trkpt>
      <trkpt lat="42.18716011382639408111572265625" lon="1.72992632724344730377197265625">
        <ele>1972.800048828125</ele>
        <time>2020-10-24T09:42:20.000Z</time>
      </trkpt>
      <trkpt lat="42.1871595270931720733642578125" lon="1.72983932308852672576904296875">
        <ele>1973.800048828125</ele>
        <time>2020-10-24T09:42:26.000Z</time>
      </trkpt>
      <trkpt lat="42.1871714293956756591796875" lon="1.7298157699406147003173828125">
        <ele>1974.199951171875</ele>
        <time>2020-10-24T09:42:29.000Z</time>
      </trkpt>
      <trkpt lat="42.1871886961162090301513671875" lon="1.729782409965991973876953125">
        <ele>1974.800048828125</ele>
        <time>2020-10-24T09:42:34.000Z</time>
      </trkpt>
      <trkpt lat="42.187193892896175384521484375" lon="1.72977964393794536590576171875">
        <ele>1974.800048828125</ele>
        <time>2020-10-24T09:42:35.000Z</time>
      </trkpt>
      <trkpt lat="42.18719867058098316192626953125" lon="1.72974980436265468597412109375">
        <ele>1975.4000244140625</ele>
        <time>2020-10-24T09:42:41.000Z</time>
      </trkpt>
      <trkpt lat="42.18721074052155017852783203125" lon="1.72974678687751293182373046875">
        <ele>1975.800048828125</ele>
        <time>2020-10-24T09:42:46.000Z</time>
      </trkpt>
      <trkpt lat="42.18721442855894565582275390625" lon="1.7297483794391155242919921875">
        <ele>1975.5999755859375</ele>
        <time>2020-10-24T09:42:48.000Z</time>
      </trkpt>
      <trkpt lat="42.1872185356914997100830078125" lon="1.72975500114262104034423828125">
        <ele>1975.5999755859375</ele>
        <time>2020-10-24T09:42:55.000Z</time>
      </trkpt>
      <trkpt lat="42.18722163699567317962646484375" lon="1.72976204194128513336181640625">
        <ele>1975.4000244140625</ele>
        <time>2020-10-24T09:43:12.000Z</time>
      </trkpt>
      <trkpt lat="42.18722708523273468017578125" lon="1.72977193258702754974365234375">
        <ele>1976</ele>
        <time>2020-10-24T09:43:16.000Z</time>
      </trkpt>
      <trkpt lat="42.1872399933636188507080078125" lon="1.7297825776040554046630859375">
        <ele>1976.199951171875</ele>
        <time>2020-10-24T09:43:31.000Z</time>
      </trkpt>
      <trkpt lat="42.18724175356328487396240234375" lon="1.72978341579437255859375">
        <ele>1976</ele>
        <time>2020-10-24T09:43:37.000Z</time>
      </trkpt>
      <trkpt lat="42.18724275939166545867919921875" lon="1.72978341579437255859375">
        <ele>1975.5999755859375</ele>
        <time>2020-10-24T09:43:41.000Z</time>
      </trkpt>
      <trkpt lat="42.18725533224642276763916015625" lon="1.72978567890822887420654296875">
        <ele>1975.199951171875</ele>
        <time>2020-10-24T09:43:56.000Z</time>
      </trkpt>
      <trkpt lat="42.18725600279867649078369140625" lon="1.7297882772982120513916015625">
        <ele>1975</ele>
        <time>2020-10-24T09:43:58.000Z</time>
      </trkpt>
      <trkpt lat="42.187255583703517913818359375" lon="1.729791462421417236328125">
        <ele>1975.199951171875</ele>
        <time>2020-10-24T09:44:05.000Z</time>
      </trkpt>
      <trkpt lat="42.187250554561614990234375" lon="1.72979121096432209014892578125">
        <ele>1975.4000244140625</ele>
        <time>2020-10-24T09:44:12.000Z</time>
      </trkpt>
      <trkpt lat="42.18723739497363567352294921875" lon="1.72980730421841144561767578125">
        <ele>1975.5999755859375</ele>
        <time>2020-10-24T09:44:18.000Z</time>
      </trkpt>
      <trkpt lat="42.1872289292514324188232421875" lon="1.729838065803050994873046875">
        <ele>1975.800048828125</ele>
        <time>2020-10-24T09:44:20.000Z</time>
      </trkpt>
      <trkpt lat="42.1872554160654544830322265625" lon="1.72990604303777217864990234375">
        <ele>1975.800048828125</ele>
        <time>2020-10-24T09:44:26.000Z</time>
      </trkpt>
      <trkpt lat="42.1872755326330661773681640625" lon="1.72991157509386539459228515625">
        <ele>1976.199951171875</ele>
        <time>2020-10-24T09:44:28.000Z</time>
      </trkpt>
      <trkpt lat="42.18731098808348178863525390625" lon="1.7299250699579715728759765625">
        <ele>1977.4000244140625</ele>
        <time>2020-10-24T09:44:32.000Z</time>
      </trkpt>
      <trkpt lat="42.18731450848281383514404296875" lon="1.72993236221373081207275390625">
        <ele>1977.800048828125</ele>
        <time>2020-10-24T09:44:34.000Z</time>
      </trkpt>
      <trkpt lat="42.1873028576374053955078125" lon="1.72994325868785381317138671875">
        <ele>1977.800048828125</ele>
        <time>2020-10-24T09:44:41.000Z</time>
      </trkpt>
      <trkpt lat="42.18731450848281383514404296875" lon="1.72994560562074184417724609375">
        <ele>1977.4000244140625</ele>
        <time>2020-10-24T09:44:52.000Z</time>
      </trkpt>
      <trkpt lat="42.18731434084475040435791015625" lon="1.72994560562074184417724609375">
        <ele>1977.4000244140625</ele>
        <time>2020-10-24T09:44:55.000Z</time>
      </trkpt>
      <trkpt lat="42.18731425702571868896484375" lon="1.72994560562074184417724609375">
        <ele>1977.4000244140625</ele>
        <time>2020-10-24T09:44:57.000Z</time>
      </trkpt>
      <trkpt lat="42.1873137541115283966064453125" lon="1.72994635999202728271484375">
        <ele>1977.5999755859375</ele>
        <time>2020-10-24T09:45:00.000Z</time>
      </trkpt>
      <trkpt lat="42.1873080544173717498779296875" lon="1.72994912602007389068603515625">
        <ele>1978.4000244140625</ele>
        <time>2020-10-24T09:45:15.000Z</time>
      </trkpt>
      <trkpt lat="42.1873080544173717498779296875" lon="1.72994929365813732147216796875">
        <ele>1978.199951171875</ele>
        <time>2020-10-24T09:45:23.000Z</time>
      </trkpt>
      <trkpt lat="42.187306880950927734375" lon="1.72994879074394702911376953125">
        <ele>1977.800048828125</ele>
        <time>2020-10-24T09:45:25.000Z</time>
      </trkpt>
      <trkpt lat="42.18730646185576915740966796875" lon="1.72994711436331272125244140625">
        <ele>1977.4000244140625</ele>
        <time>2020-10-24T09:45:27.000Z</time>
      </trkpt>
      <trkpt lat="42.18730629421770572662353515625" lon="1.7299431748688220977783203125">
        <ele>1976.199951171875</ele>
        <time>2020-10-24T09:45:32.000Z</time>
      </trkpt>
      <trkpt lat="42.18726455233991146087646484375" lon="1.72989330254495143890380859375">
        <ele>1975.4000244140625</ele>
        <time>2020-10-24T09:45:37.000Z</time>
      </trkpt>
      <trkpt lat="42.1872532367706298828125" lon="1.729878298938274383544921875">
        <ele>1975.199951171875</ele>
        <time>2020-10-24T09:45:38.000Z</time>
      </trkpt>
      <trkpt lat="42.1872411668300628662109375" lon="1.729866899549961090087890625">
        <ele>1975.199951171875</ele>
        <time>2020-10-24T09:45:39.000Z</time>
      </trkpt>
      <trkpt lat="42.187219373881816864013671875" lon="1.7298047058284282684326171875">
        <ele>1974.5999755859375</ele>
        <time>2020-10-24T09:45:44.000Z</time>
      </trkpt>
      <trkpt lat="42.1872222237288951873779296875" lon="1.7297993414103984832763671875">
        <ele>1974.5999755859375</ele>
        <time>2020-10-24T09:45:45.000Z</time>
      </trkpt>
      <trkpt lat="42.18722364865243434906005859375" lon="1.729778386652469635009765625">
        <ele>1975.199951171875</ele>
        <time>2020-10-24T09:45:52.000Z</time>
      </trkpt>
      <trkpt lat="42.187232114374637603759765625" lon="1.72978115268051624298095703125">
        <ele>1975.199951171875</ele>
        <time>2020-10-24T09:45:57.000Z</time>
      </trkpt>
      <trkpt lat="42.18723136000335216522216796875" lon="1.729778386652469635009765625">
        <ele>1975.4000244140625</ele>
        <time>2020-10-24T09:46:01.000Z</time>
      </trkpt>
      <trkpt lat="42.18741911463439464569091796875" lon="1.7298315279185771942138671875">
        <ele>1981.4000244140625</ele>
        <time>2020-10-24T09:58:29.000Z</time>
      </trkpt>
      <trkpt lat="42.1874248981475830078125" lon="1.729837395250797271728515625">
        <ele>1981.800048828125</ele>
        <time>2020-10-24T09:58:31.000Z</time>
      </trkpt>
      <trkpt lat="42.18743151985108852386474609375" lon="1.729838065803050994873046875">
        <ele>1982.199951171875</ele>
        <time>2020-10-24T09:58:34.000Z</time>
      </trkpt>
      <trkpt lat="42.18743093311786651611328125" lon="1.72983949072659015655517578125">
        <ele>1982.4000244140625</ele>
        <time>2020-10-24T09:58:35.000Z</time>
      </trkpt>
      <trkpt lat="42.1874327771365642547607421875" lon="1.72984032891690731048583984375">
        <ele>1982.5999755859375</ele>
        <time>2020-10-24T09:58:36.000Z</time>
      </trkpt>
      <trkpt lat="42.18744493089616298675537109375" lon="1.72984032891690731048583984375">
        <ele>1983</ele>
        <time>2020-10-24T09:58:39.000Z</time>
      </trkpt>
      <trkpt lat="42.18744912184774875640869140625" lon="1.7298432625830173492431640625">
        <ele>1983.199951171875</ele>
        <time>2020-10-24T09:58:41.000Z</time>
      </trkpt>
      <trkpt lat="42.18744945712387561798095703125" lon="1.72985072247684001922607421875">
        <ele>1983.5999755859375</ele>
        <time>2020-10-24T09:58:43.000Z</time>
      </trkpt>
      <trkpt lat="42.187460102140903472900390625" lon="1.72985927201807498931884765625">
        <ele>1984.4000244140625</ele>
        <time>2020-10-24T09:58:49.000Z</time>
      </trkpt>
      <trkpt lat="42.18746974132955074310302734375" lon="1.729872263967990875244140625">
        <ele>1984.800048828125</ele>
        <time>2020-10-24T09:58:52.000Z</time>
      </trkpt>
      <trkpt lat="42.1875015087425708770751953125" lon="1.7298620380461215972900390625">
        <ele>1985.800048828125</ele>
        <time>2020-10-24T09:59:00.000Z</time>
      </trkpt>
      <trkpt lat="42.18754827976226806640625" lon="1.72988601028919219970703125">
        <ele>1987</ele>
        <time>2020-10-24T09:59:08.000Z</time>
      </trkpt>
      <trkpt lat="42.18755205161869525909423828125" lon="1.72989916987717151641845703125">
        <ele>1987</ele>
        <time>2020-10-24T09:59:09.000Z</time>
      </trkpt>
      <trkpt lat="42.187567055225372314453125" lon="1.729913167655467987060546875">
        <ele>1987.800048828125</ele>
        <time>2020-10-24T09:59:12.000Z</time>
      </trkpt>
      <trkpt lat="42.1875739283859729766845703125" lon="1.729915179312229156494140625">
        <ele>1988</ele>
        <time>2020-10-24T09:59:13.000Z</time>
      </trkpt>
      <trkpt lat="42.18760536052286624908447265625" lon="1.72991006635129451751708984375">
        <ele>1989</ele>
        <time>2020-10-24T09:59:18.000Z</time>
      </trkpt>
      <trkpt lat="42.1876247227191925048828125" lon="1.72993655316531658172607421875">
        <ele>1990.199951171875</ele>
        <time>2020-10-24T09:59:23.000Z</time>
      </trkpt>
      <trkpt lat="42.18763000331819057464599609375" lon="1.7299512214958667755126953125">
        <ele>1990.5999755859375</ele>
        <time>2020-10-24T09:59:25.000Z</time>
      </trkpt>
      <trkpt lat="42.18763804994523525238037109375" lon="1.72995884902775287628173828125">
        <ele>1991.4000244140625</ele>
        <time>2020-10-24T09:59:29.000Z</time>
      </trkpt>
      <trkpt lat="42.18764953315258026123046875" lon="1.72997477464377880096435546875">
        <ele>1992.199951171875</ele>
        <time>2020-10-24T09:59:33.000Z</time>
      </trkpt>
      <trkpt lat="42.18765213154256343841552734375" lon="1.729975529015064239501953125">
        <ele>1992.4000244140625</ele>
        <time>2020-10-24T09:59:34.000Z</time>
      </trkpt>
      <trkpt lat="42.187682725489139556884765625" lon="1.72998986206948757171630859375">
        <ele>1993.4000244140625</ele>
        <time>2020-10-24T09:59:40.000Z</time>
      </trkpt>
      <trkpt lat="42.18768985010683536529541015625" lon="1.72999623231589794158935546875">
        <ele>1993.5999755859375</ele>
        <time>2020-10-24T09:59:41.000Z</time>
      </trkpt>
      <trkpt lat="42.18769269995391368865966796875" lon="1.730039902031421661376953125">
        <ele>1994.5999755859375</ele>
        <time>2020-10-24T09:59:46.000Z</time>
      </trkpt>
      <trkpt lat="42.187690772116184234619140625" lon="1.730047948658466339111328125">
        <ele>1994.5999755859375</ele>
        <time>2020-10-24T09:59:47.000Z</time>
      </trkpt>
      <trkpt lat="42.18769018538296222686767578125" lon="1.7300789617002010345458984375">
        <ele>1995.5999755859375</ele>
        <time>2020-10-24T09:59:51.000Z</time>
      </trkpt>
      <trkpt lat="42.18768582679331302642822265625" lon="1.73010569997131824493408203125">
        <ele>1996.4000244140625</ele>
        <time>2020-10-24T09:59:55.000Z</time>
      </trkpt>
      <trkpt lat="42.18768532387912273406982421875" lon="1.73011307604610919952392578125">
        <ele>1996.800048828125</ele>
        <time>2020-10-24T09:59:56.000Z</time>
      </trkpt>
      <trkpt lat="42.18768364749848842620849609375" lon="1.73016638495028018951416015625">
        <ele>1997.800048828125</ele>
        <time>2020-10-24T10:00:02.000Z</time>
      </trkpt>
      <trkpt lat="42.18767702579498291015625" lon="1.73017778433859348297119140625">
        <ele>1998.199951171875</ele>
        <time>2020-10-24T10:00:04.000Z</time>
      </trkpt>
      <trkpt lat="42.18767727725207805633544921875" lon="1.730194129049777984619140625">
        <ele>1999</ele>
        <time>2020-10-24T10:00:07.000Z</time>
      </trkpt>
      <trkpt lat="42.18768398277461528778076171875" lon="1.7302224598824977874755859375">
        <ele>1999.5999755859375</ele>
        <time>2020-10-24T10:00:11.000Z</time>
      </trkpt>
      <trkpt lat="42.1877009980380535125732421875" lon="1.730240397155284881591796875">
        <ele>2000</ele>
        <time>2020-10-24T10:00:14.000Z</time>
      </trkpt>
      <trkpt lat="42.18773678876459598541259765625" lon="1.7302868328988552093505859375">
        <ele>2001</ele>
        <time>2020-10-24T10:00:19.000Z</time>
      </trkpt>
      <trkpt lat="42.18774341046810150146484375" lon="1.73029663972556591033935546875">
        <ele>2001.199951171875</ele>
        <time>2020-10-24T10:00:20.000Z</time>
      </trkpt>
      <trkpt lat="42.1877563185989856719970703125" lon="1.7303166724741458892822265625">
        <ele>2001.5999755859375</ele>
        <time>2020-10-24T10:00:22.000Z</time>
      </trkpt>
      <trkpt lat="42.18777383677661418914794921875" lon="1.73033905215561389923095703125">
        <ele>2002.199951171875</ele>
        <time>2020-10-24T10:00:26.000Z</time>
      </trkpt>
      <trkpt lat="42.1877831406891345977783203125" lon="1.73035581596195697784423828125">
        <ele>2002.800048828125</ele>
        <time>2020-10-24T10:00:28.000Z</time>
      </trkpt>
      <trkpt lat="42.18777936883270740509033203125" lon="1.730374507606029510498046875">
        <ele>2003.4000244140625</ele>
        <time>2020-10-24T10:00:31.000Z</time>
      </trkpt>
      <trkpt lat="42.18779948540031909942626953125" lon="1.73040929250419139862060546875">
        <ele>2004.4000244140625</ele>
        <time>2020-10-24T10:00:36.000Z</time>
      </trkpt>
      <trkpt lat="42.1878052689135074615478515625" lon="1.73041532747447490692138671875">
        <ele>2004.800048828125</ele>
        <time>2020-10-24T10:00:37.000Z</time>
      </trkpt>
      <trkpt lat="42.1878178417682647705078125" lon="1.73043049871921539306640625">
        <ele>2005.5999755859375</ele>
        <time>2020-10-24T10:00:40.000Z</time>
      </trkpt>
      <trkpt lat="42.187824212014675140380859375" lon="1.73043661750853061676025390625">
        <ele>2005.800048828125</ele>
        <time>2020-10-24T10:00:41.000Z</time>
      </trkpt>
      <trkpt lat="42.187833599746227264404296875" lon="1.730442233383655548095703125">
        <ele>2006</ele>
        <time>2020-10-24T10:00:42.000Z</time>
      </trkpt>
      <trkpt lat="42.1878468431532382965087890625" lon="1.7304621823132038116455078125">
        <ele>2006.800048828125</ele>
        <time>2020-10-24T10:00:45.000Z</time>
      </trkpt>
      <trkpt lat="42.18785195611417293548583984375" lon="1.7304712347686290740966796875">
        <ele>2007</ele>
        <time>2020-10-24T10:00:46.000Z</time>
      </trkpt>
      <trkpt lat="42.18786821700632572174072265625" lon="1.7304943688213825225830078125">
        <ele>2007.800048828125</ele>
        <time>2020-10-24T10:00:49.000Z</time>
      </trkpt>
      <trkpt lat="42.18787458725273609161376953125" lon="1.73049478791654109954833984375">
        <ele>2008</ele>
        <time>2020-10-24T10:00:50.000Z</time>
      </trkpt>
      <trkpt lat="42.18787928111851215362548828125" lon="1.73049663193523883819580078125">
        <ele>2008.199951171875</ele>
        <time>2020-10-24T10:00:51.000Z</time>
      </trkpt>
      <trkpt lat="42.18788556754589080810546875" lon="1.73050451092422008514404296875">
        <ele>2008.4000244140625</ele>
        <time>2020-10-24T10:00:53.000Z</time>
      </trkpt>
      <trkpt lat="42.18789738602936267852783203125" lon="1.73051188699901103973388671875">
        <ele>2009</ele>
        <time>2020-10-24T10:00:55.000Z</time>
      </trkpt>
      <trkpt lat="42.18790031969547271728515625" lon="1.73051498830318450927734375">
        <ele>2009.199951171875</ele>
        <time>2020-10-24T10:00:56.000Z</time>
      </trkpt>
      <trkpt lat="42.1879063546657562255859375" lon="1.73051423393189907073974609375">
        <ele>2009.4000244140625</ele>
        <time>2020-10-24T10:00:57.000Z</time>
      </trkpt>
      <trkpt lat="42.187911383807659149169921875" lon="1.73051943071186542510986328125">
        <ele>2009.4000244140625</ele>
        <time>2020-10-24T10:00:58.000Z</time>
      </trkpt>
      <trkpt lat="42.187931835651397705078125" lon="1.7305312491953372955322265625">
        <ele>2010</ele>
        <time>2020-10-24T10:01:01.000Z</time>
      </trkpt>
      <trkpt lat="42.18793627806007862091064453125" lon="1.7305382899940013885498046875">
        <ele>2010.199951171875</ele>
        <time>2020-10-24T10:01:02.000Z</time>
      </trkpt>
      <trkpt lat="42.18794264830648899078369140625" lon="1.73055144958198070526123046875">
        <ele>2010.800048828125</ele>
        <time>2020-10-24T10:01:04.000Z</time>
      </trkpt>
      <trkpt lat="42.18794616870582103729248046875" lon="1.7305574007332324981689453125">
        <ele>2011</ele>
        <time>2020-10-24T10:01:05.000Z</time>
      </trkpt>
      <trkpt lat="42.1879470907151699066162109375" lon="1.730562262237071990966796875">
        <ele>2011.199951171875</ele>
        <time>2020-10-24T10:01:06.000Z</time>
      </trkpt>
      <trkpt lat="42.1879568137228488922119140625" lon="1.73057357780635356903076171875">
        <ele>2011.5999755859375</ele>
        <time>2020-10-24T10:01:08.000Z</time>
      </trkpt>
      <trkpt lat="42.18797215260565280914306640625" lon="1.73058648593723773956298828125">
        <ele>2012.199951171875</ele>
        <time>2020-10-24T10:01:11.000Z</time>
      </trkpt>
      <trkpt lat="42.18797542154788970947265625" lon="1.73059268854558467864990234375">
        <ele>2012.4000244140625</ele>
        <time>2020-10-24T10:01:12.000Z</time>
      </trkpt>
      <trkpt lat="42.18797718174755573272705078125" lon="1.73060006462037563323974609375">
        <ele>2012.800048828125</ele>
        <time>2020-10-24T10:01:13.000Z</time>
      </trkpt>
      <trkpt lat="42.18798606656491756439208984375" lon="1.73060459084808826446533203125">
        <ele>2013.199951171875</ele>
        <time>2020-10-24T10:01:16.000Z</time>
      </trkpt>
      <trkpt lat="42.187989838421344757080078125" lon="1.73060492612421512603759765625">
        <ele>2013.4000244140625</ele>
        <time>2020-10-24T10:01:17.000Z</time>
      </trkpt>
      <trkpt lat="42.1879987232387065887451171875" lon="1.73060484230518341064453125">
        <ele>2013.800048828125</ele>
        <time>2020-10-24T10:01:19.000Z</time>
      </trkpt>
      <trkpt lat="42.18800350092351436614990234375" lon="1.7306127212941646575927734375">
        <ele>2014</ele>
        <time>2020-10-24T10:01:20.000Z</time>
      </trkpt>
      <trkpt lat="42.18800819478929042816162109375" lon="1.730616576969623565673828125">
        <ele>2014.199951171875</ele>
        <time>2020-10-24T10:01:21.000Z</time>
      </trkpt>
      <trkpt lat="42.188015989959239959716796875" lon="1.73061666078865528106689453125">
        <ele>2014.4000244140625</ele>
        <time>2020-10-24T10:01:23.000Z</time>
      </trkpt>
      <trkpt lat="42.18803602270781993865966796875" lon="1.73061900772154331207275390625">
        <ele>2014.5999755859375</ele>
        <time>2020-10-24T10:01:25.000Z</time>
      </trkpt>
      <trkpt lat="42.1880584023892879486083984375" lon="1.73063443042337894439697265625">
        <ele>2015.199951171875</ele>
        <time>2020-10-24T10:01:28.000Z</time>
      </trkpt>
      <trkpt lat="42.18806385062634944915771484375" lon="1.73063828609883785247802734375">
        <ele>2015.4000244140625</ele>
        <time>2020-10-24T10:01:29.000Z</time>
      </trkpt>
      <trkpt lat="42.1880698017776012420654296875" lon="1.73063912428915500640869140625">
        <ele>2015.5999755859375</ele>
        <time>2020-10-24T10:01:30.000Z</time>
      </trkpt>
      <trkpt lat="42.1880899183452129364013671875" lon="1.73065446317195892333984375">
        <ele>2016.5999755859375</ele>
        <time>2020-10-24T10:01:34.000Z</time>
      </trkpt>
      <trkpt lat="42.1880936063826084136962890625" lon="1.73065572045743465423583984375">
        <ele>2016.800048828125</ele>
        <time>2020-10-24T10:01:35.000Z</time>
      </trkpt>
      <trkpt lat="42.18809586949646472930908203125" lon="1.7306707240641117095947265625">
        <ele>2017.4000244140625</ele>
        <time>2020-10-24T10:01:38.000Z</time>
      </trkpt>
      <trkpt lat="42.18809654004871845245361328125" lon="1.73067617230117321014404296875">
        <ele>2017.5999755859375</ele>
        <time>2020-10-24T10:01:40.000Z</time>
      </trkpt>
      <trkpt lat="42.18809821642935276031494140625" lon="1.73068069852888584136962890625">
        <ele>2017.800048828125</ele>
        <time>2020-10-24T10:01:41.000Z</time>
      </trkpt>
      <trkpt lat="42.18810207210481166839599609375" lon="1.73069209791719913482666015625">
        <ele>2018.199951171875</ele>
        <time>2020-10-24T10:01:44.000Z</time>
      </trkpt>
      <trkpt lat="42.18811179511249065399169921875" lon="1.7307163216173648834228515625">
        <ele>2018.800048828125</ele>
        <time>2020-10-24T10:01:48.000Z</time>
      </trkpt>
      <trkpt lat="42.18811355531215667724609375" lon="1.7307208478450775146484375">
        <ele>2019</ele>
        <time>2020-10-24T10:01:49.000Z</time>
      </trkpt>
      <trkpt lat="42.18811548314988613128662109375" lon="1.73072554171085357666015625">
        <ele>2019.199951171875</ele>
        <time>2020-10-24T10:01:50.000Z</time>
      </trkpt>
      <trkpt lat="42.1881190873682498931884765625" lon="1.73073249869048595428466796875">
        <ele>2019.4000244140625</ele>
        <time>2020-10-24T10:01:51.000Z</time>
      </trkpt>
      <trkpt lat="42.188121937215328216552734375" lon="1.7307418026030063629150390625">
        <ele>2020</ele>
        <time>2020-10-24T10:01:53.000Z</time>
      </trkpt>
      <trkpt lat="42.18811891973018646240234375" lon="1.7307575605809688568115234375">
        <ele>2020.5999755859375</ele>
        <time>2020-10-24T10:01:56.000Z</time>
      </trkpt>
      <trkpt lat="42.18812763690948486328125" lon="1.730773486196994781494140625">
        <ele>2021</ele>
        <time>2020-10-24T10:01:59.000Z</time>
      </trkpt>
      <trkpt lat="42.18815135769546031951904296875" lon="1.73080441541969776153564453125">
        <ele>2022.199951171875</ele>
        <time>2020-10-24T10:02:04.000Z</time>
      </trkpt>
      <trkpt lat="42.18815437518060207366943359375" lon="1.73080558888614177703857421875">
        <ele>2022.4000244140625</ele>
        <time>2020-10-24T10:02:05.000Z</time>
      </trkpt>
      <trkpt lat="42.18816510401666164398193359375" lon="1.730815060436725616455078125">
        <ele>2023.199951171875</ele>
        <time>2020-10-24T10:02:08.000Z</time>
      </trkpt>
      <trkpt lat="42.1881683729588985443115234375" lon="1.7308303155004978179931640625">
        <ele>2023.5999755859375</ele>
        <time>2020-10-24T10:02:11.000Z</time>
      </trkpt>
      <trkpt lat="42.18818119727075099945068359375" lon="1.73085562884807586669921875">
        <ele>2024.199951171875</ele>
        <time>2020-10-24T10:02:15.000Z</time>
      </trkpt>
      <trkpt lat="42.18817097134888172149658203125" lon="1.73087733797729015350341796875">
        <ele>2025</ele>
        <time>2020-10-24T10:02:19.000Z</time>
      </trkpt>
      <trkpt lat="42.18816376291215419769287109375" lon="1.7308896593749523162841796875">
        <ele>2025.4000244140625</ele>
        <time>2020-10-24T10:02:21.000Z</time>
      </trkpt>
      <trkpt lat="42.188183963298797607421875" lon="1.73093634657561779022216796875">
        <ele>2026.5999755859375</ele>
        <time>2020-10-24T10:02:27.000Z</time>
      </trkpt>
      <trkpt lat="42.18817918561398983001708984375" lon="1.730980016291141510009765625">
        <ele>2027.5999755859375</ele>
        <time>2020-10-24T10:02:32.000Z</time>
      </trkpt>
      <trkpt lat="42.1881780959665775299072265625" lon="1.730995438992977142333984375">
        <ele>2028.5999755859375</ele>
        <time>2020-10-24T10:02:37.000Z</time>
      </trkpt>
      <trkpt lat="42.18817432411015033721923828125" lon="1.7309972830116748809814453125">
        <ele>2028.800048828125</ele>
        <time>2020-10-24T10:02:38.000Z</time>
      </trkpt>
      <trkpt lat="42.188166193664073944091796875" lon="1.7309882305562496185302734375">
        <ele>2029.199951171875</ele>
        <time>2020-10-24T10:02:45.000Z</time>
      </trkpt>
      <trkpt lat="42.18815756030380725860595703125" lon="1.7309959419071674346923828125">
        <ele>2030</ele>
        <time>2020-10-24T10:02:52.000Z</time>
      </trkpt>
      <trkpt lat="42.1881559677422046661376953125" lon="1.7309962771832942962646484375">
        <ele>2031</ele>
        <time>2020-10-24T10:03:00.000Z</time>
      </trkpt>
      <trkpt lat="42.1881559677422046661376953125" lon="1.7309962771832942962646484375">
        <ele>2032.199951171875</ele>
        <time>2020-10-24T10:03:04.000Z</time>
      </trkpt>
      <trkpt lat="42.1881613321602344512939453125" lon="1.730999462306499481201171875">
        <ele>2033.199951171875</ele>
        <time>2020-10-24T10:03:10.000Z</time>
      </trkpt>
      <trkpt lat="42.1881663613021373748779296875" lon="1.73103307373821735382080078125">
        <ele>2034.4000244140625</ele>
        <time>2020-10-24T10:03:14.000Z</time>
      </trkpt>
      <trkpt lat="42.1881888248026371002197265625" lon="1.73106492497026920318603515625">
        <ele>2035.5999755859375</ele>
        <time>2020-10-24T10:03:18.000Z</time>
      </trkpt>
      <trkpt lat="42.188201732933521270751953125" lon="1.73109593801200389862060546875">
        <ele>2036.5999755859375</ele>
        <time>2020-10-24T10:03:23.000Z</time>
      </trkpt>
      <trkpt lat="42.188210785388946533203125" lon="1.73113801516592502593994140625">
        <ele>2037.5999755859375</ele>
        <time>2020-10-24T10:03:29.000Z</time>
      </trkpt>
      <trkpt lat="42.1882354281842708587646484375" lon="1.73117154277861118316650390625">
        <ele>2038.800048828125</ele>
        <time>2020-10-24T10:03:35.000Z</time>
      </trkpt>
      <trkpt lat="42.18825579620897769927978515625" lon="1.73120272345840930938720703125">
        <ele>2039.5999755859375</ele>
        <time>2020-10-24T10:03:40.000Z</time>
      </trkpt>
      <trkpt lat="42.188268788158893585205078125" lon="1.7312135361135005950927734375">
        <ele>2040</ele>
        <time>2020-10-24T10:03:43.000Z</time>
      </trkpt>
      <trkpt lat="42.18828446231782436370849609375" lon="1.73122401349246501922607421875">
        <ele>2041.199951171875</ele>
        <time>2020-10-24T10:03:48.000Z</time>
      </trkpt>
      <trkpt lat="42.1883262880146503448486328125" lon="1.73124195076525211334228515625">
        <ele>2042.199951171875</ele>
        <time>2020-10-24T10:03:56.000Z</time>
      </trkpt>
      <trkpt lat="42.18837968073785305023193359375" lon="1.73125720582902431488037109375">
        <ele>2043.199951171875</ele>
        <time>2020-10-24T10:04:04.000Z</time>
      </trkpt>
      <trkpt lat="42.1884312294423580169677734375" lon="1.73126173205673694610595703125">
        <ele>2044.4000244140625</ele>
        <time>2020-10-24T10:04:14.000Z</time>
      </trkpt>
      <trkpt lat="42.1884486638009548187255859375" lon="1.73126198351383209228515625">
        <ele>2044.800048828125</ele>
        <time>2020-10-24T10:04:17.000Z</time>
      </trkpt>
      <trkpt lat="42.1884583868086338043212890625" lon="1.73126198351383209228515625">
        <ele>2045</ele>
        <time>2020-10-24T10:04:19.000Z</time>
      </trkpt>
      <trkpt lat="42.1884694509208202362060546875" lon="1.73126198351383209228515625">
        <ele>2045.4000244140625</ele>
        <time>2020-10-24T10:04:22.000Z</time>
      </trkpt>
      <trkpt lat="42.18848328106105327606201171875" lon="1.73126407898962497711181640625">
        <ele>2046.800048828125</ele>
        <time>2020-10-24T10:04:27.000Z</time>
      </trkpt>
      <trkpt lat="42.1884949319064617156982421875" lon="1.7312653362751007080078125">
        <ele>2047.800048828125</ele>
        <time>2020-10-24T10:04:31.000Z</time>
      </trkpt>
      <trkpt lat="42.188533656299114227294921875" lon="1.7312725447118282318115234375">
        <ele>2048.800048828125</ele>
        <time>2020-10-24T10:04:41.000Z</time>
      </trkpt>
      <trkpt lat="42.18855100683867931365966796875" lon="1.73128687776625156402587890625">
        <ele>2050</ele>
        <time>2020-10-24T10:04:49.000Z</time>
      </trkpt>
      <trkpt lat="42.18855285085737705230712890625" lon="1.73130984418094158172607421875">
        <ele>2051</ele>
        <time>2020-10-24T10:04:56.000Z</time>
      </trkpt>
      <trkpt lat="42.1885512582957744598388671875" lon="1.73134856857359409332275390625">
        <ele>2052.199951171875</ele>
        <time>2020-10-24T10:05:04.000Z</time>
      </trkpt>
      <trkpt lat="42.1885509230196475982666015625" lon="1.7313533462584018707275390625">
        <ele>2052.39990234375</ele>
        <time>2020-10-24T10:05:05.000Z</time>
      </trkpt>
      <trkpt lat="42.18855067156255245208740234375" lon="1.73135896213352680206298828125">
        <ele>2052.39990234375</ele>
        <time>2020-10-24T10:05:06.000Z</time>
      </trkpt>
      <trkpt lat="42.188550420105457305908203125" lon="1.7313644103705883026123046875">
        <ele>2052.39990234375</ele>
        <time>2020-10-24T10:05:07.000Z</time>
      </trkpt>
      <trkpt lat="42.18854413367807865142822265625" lon="1.73140221275389194488525390625">
        <ele>2053.199951171875</ele>
        <time>2020-10-24T10:05:14.000Z</time>
      </trkpt>
      <trkpt lat="42.18854178674519062042236328125" lon="1.73142157495021820068359375">
        <ele>2054.199951171875</ele>
        <time>2020-10-24T10:05:18.000Z</time>
      </trkpt>
      <trkpt lat="42.1885412000119686126708984375" lon="1.73143037594854831695556640625">
        <ele>2054.800048828125</ele>
        <time>2020-10-24T10:05:22.000Z</time>
      </trkpt>
      <trkpt lat="42.188541032373905181884765625" lon="1.731434650719165802001953125">
        <ele>2055.39990234375</ele>
        <time>2020-10-24T10:05:25.000Z</time>
      </trkpt>
      <trkpt lat="42.1885418705642223358154296875" lon="1.73144462518393993377685546875">
        <ele>2056</ele>
        <time>2020-10-24T10:05:29.000Z</time>
      </trkpt>
      <trkpt lat="42.1885445527732372283935546875" lon="1.731454096734523773193359375">
        <ele>2056.60009765625</ele>
        <time>2020-10-24T10:05:34.000Z</time>
      </trkpt>
      <trkpt lat="42.18854530714452266693115234375" lon="1.73146449029445648193359375">
        <ele>2057.199951171875</ele>
        <time>2020-10-24T10:05:39.000Z</time>
      </trkpt>
      <trkpt lat="42.18854539096355438232421875" lon="1.73146717250347137451171875">
        <ele>2057.199951171875</ele>
        <time>2020-10-24T10:05:40.000Z</time>
      </trkpt>
      <trkpt lat="42.18854547478258609771728515625" lon="1.73147329129278659820556640625">
        <ele>2057.39990234375</ele>
        <time>2020-10-24T10:05:42.000Z</time>
      </trkpt>
      <trkpt lat="42.18854547478258609771728515625" lon="1.73147614113986492156982421875">
        <ele>2057.39990234375</ele>
        <time>2020-10-24T10:05:43.000Z</time>
      </trkpt>
      <trkpt lat="42.1885455586016178131103515625" lon="1.73147924244403839111328125">
        <ele>2057.60009765625</ele>
        <time>2020-10-24T10:05:44.000Z</time>
      </trkpt>
      <trkpt lat="42.18853541649878025054931640625" lon="1.73150799237191677093505859375">
        <ele>2058.60009765625</ele>
        <time>2020-10-24T10:05:52.000Z</time>
      </trkpt>
      <trkpt lat="42.18853323720395565032958984375" lon="1.73151084221899509429931640625">
        <ele>2058.800048828125</ele>
        <time>2020-10-24T10:05:53.000Z</time>
      </trkpt>
      <trkpt lat="42.18852384947240352630615234375" lon="1.73152123577892780303955078125">
        <ele>2059.800048828125</ele>
        <time>2020-10-24T10:05:57.000Z</time>
      </trkpt>
      <trkpt lat="42.18851714394986629486083984375" lon="1.73152945004403591156005859375">
        <ele>2060.60009765625</ele>
        <time>2020-10-24T10:06:00.000Z</time>
      </trkpt>
      <trkpt lat="42.18851513229310512542724609375" lon="1.7315317131578922271728515625">
        <ele>2061</ele>
        <time>2020-10-24T10:06:01.000Z</time>
      </trkpt>
      <trkpt lat="42.18850691802799701690673828125" lon="1.73154084943234920501708984375">
        <ele>2062</ele>
        <time>2020-10-24T10:06:06.000Z</time>
      </trkpt>
      <trkpt lat="42.188502810895442962646484375" lon="1.73154856078326702117919921875">
        <ele>2063</ele>
        <time>2020-10-24T10:06:12.000Z</time>
      </trkpt>
      <trkpt lat="42.18848906457424163818359375" lon="1.731598265469074249267578125">
        <ele>2064.199951171875</ele>
        <time>2020-10-24T10:06:18.000Z</time>
      </trkpt>
      <trkpt lat="42.18846634961664676666259765625" lon="1.73167076893150806427001953125">
        <ele>2064.60009765625</ele>
        <time>2020-10-24T10:06:22.000Z</time>
      </trkpt>
      <trkpt lat="42.18843751586973667144775390625" lon="1.7317348904907703399658203125">
        <ele>2065.199951171875</ele>
        <time>2020-10-24T10:06:27.000Z</time>
      </trkpt>
      <trkpt lat="42.18842678703367710113525390625" lon="1.731732375919818878173828125">
        <ele>2066.199951171875</ele>
        <time>2020-10-24T10:06:32.000Z</time>
      </trkpt>
      <trkpt lat="42.18842678703367710113525390625" lon="1.731732375919818878173828125">
        <ele>2066.39990234375</ele>
        <time>2020-10-24T10:06:33.000Z</time>
      </trkpt>
      <trkpt lat="42.18842678703367710113525390625" lon="1.73173245973885059356689453125">
        <ele>2067.39990234375</ele>
        <time>2020-10-24T10:06:45.000Z</time>
      </trkpt>
      <trkpt lat="42.18842326663434505462646484375" lon="1.73174318857491016387939453125">
        <ele>2067.39990234375</ele>
        <time>2020-10-24T10:06:49.000Z</time>
      </trkpt>
      <trkpt lat="42.18841505236923694610595703125" lon="1.73174821771681308746337890625">
        <ele>2068.199951171875</ele>
        <time>2020-10-24T10:06:54.000Z</time>
      </trkpt>
      <trkpt lat="42.18841471709311008453369140625" lon="1.73174905590713024139404296875">
        <ele>2068.39990234375</ele>
        <time>2020-10-24T10:06:56.000Z</time>
      </trkpt>
      <trkpt lat="42.18841253779828548431396484375" lon="1.7317499779164791107177734375">
        <ele>2068.60009765625</ele>
        <time>2020-10-24T10:06:59.000Z</time>
      </trkpt>
      <trkpt lat="42.188408933579921722412109375" lon="1.73175676725804805755615234375">
        <ele>2069.39990234375</ele>
        <time>2020-10-24T10:07:03.000Z</time>
      </trkpt>
      <trkpt lat="42.188402228057384490966796875" lon="1.731765568256378173828125">
        <ele>2070.60009765625</ele>
        <time>2020-10-24T10:07:07.000Z</time>
      </trkpt>
      <trkpt lat="42.1883920021355152130126953125" lon="1.73176757991313934326171875">
        <ele>2071.60009765625</ele>
        <time>2020-10-24T10:07:13.000Z</time>
      </trkpt>
      <trkpt lat="42.18837666325271129608154296875" lon="1.73177721910178661346435546875">
        <ele>2072.800048828125</ele>
        <time>2020-10-24T10:07:21.000Z</time>
      </trkpt>
      <trkpt lat="42.18836207874119281768798828125" lon="1.73179331235587596893310546875">
        <ele>2073.39990234375</ele>
        <time>2020-10-24T10:07:24.000Z</time>
      </trkpt>
      <trkpt lat="42.18835051171481609344482421875" lon="1.73181141726672649383544921875">
        <ele>2073.39990234375</ele>
        <time>2020-10-24T10:07:27.000Z</time>
      </trkpt>
      <trkpt lat="42.1883068419992923736572265625" lon="1.73184871673583984375">
        <ele>2073.199951171875</ele>
        <time>2020-10-24T10:07:38.000Z</time>
      </trkpt>
      <trkpt lat="42.1883068419992923736572265625" lon="1.73184871673583984375">
        <ele>2073.800048828125</ele>
        <time>2020-10-24T10:07:45.000Z</time>
      </trkpt>
      <trkpt lat="42.188288234174251556396484375" lon="1.73184871673583984375">
        <ele>2075</ele>
        <time>2020-10-24T10:07:50.000Z</time>
      </trkpt>
      <trkpt lat="42.18828630633652210235595703125" lon="1.73185047693550586700439453125">
        <ele>2075.800048828125</ele>
        <time>2020-10-24T10:07:53.000Z</time>
      </trkpt>
      <trkpt lat="42.18828563578426837921142578125" lon="1.73185064457356929779052734375">
        <ele>2076</ele>
        <time>2020-10-24T10:07:54.000Z</time>
      </trkpt>
      <trkpt lat="42.188282869756221771240234375" lon="1.731853075325489044189453125">
        <ele>2076.39990234375</ele>
        <time>2020-10-24T10:07:56.000Z</time>
      </trkpt>
      <trkpt lat="42.1882790140807628631591796875" lon="1.73185584135353565216064453125">
        <ele>2076.60009765625</ele>
        <time>2020-10-24T10:07:58.000Z</time>
      </trkpt>
      <trkpt lat="42.188278175890445709228515625" lon="1.731862463057041168212890625">
        <ele>2077</ele>
        <time>2020-10-24T10:08:00.000Z</time>
      </trkpt>
      <trkpt lat="42.1882759965956211090087890625" lon="1.731865815818309783935546875">
        <ele>2077</ele>
        <time>2020-10-24T10:08:01.000Z</time>
      </trkpt>
      <trkpt lat="42.18827356584370136260986328125" lon="1.7318864353001117706298828125">
        <ele>2078</ele>
        <time>2020-10-24T10:08:06.000Z</time>
      </trkpt>
      <trkpt lat="42.188273482024669647216796875" lon="1.73189121298491954803466796875">
        <ele>2078.199951171875</ele>
        <time>2020-10-24T10:08:07.000Z</time>
      </trkpt>
      <trkpt lat="42.18826367519795894622802734375" lon="1.73190311528742313385009765625">
        <ele>2079.39990234375</ele>
        <time>2020-10-24T10:08:12.000Z</time>
      </trkpt>
      <trkpt lat="42.1882615797221660614013671875" lon="1.7319129221141338348388671875">
        <ele>2080.199951171875</ele>
        <time>2020-10-24T10:08:17.000Z</time>
      </trkpt>
      <trkpt lat="42.1882609091699123382568359375" lon="1.73191786743700504302978515625">
        <ele>2080.39990234375</ele>
        <time>2020-10-24T10:08:19.000Z</time>
      </trkpt>
      <trkpt lat="42.18825437128543853759765625" lon="1.73195374198257923126220703125">
        <ele>2081.39990234375</ele>
        <time>2020-10-24T10:08:30.000Z</time>
      </trkpt>
      <trkpt lat="42.18824959360063076019287109375" lon="1.73196111805737018585205078125">
        <ele>2082.39990234375</ele>
        <time>2020-10-24T10:08:36.000Z</time>
      </trkpt>
      <trkpt lat="42.18824959360063076019287109375" lon="1.7319653928279876708984375">
        <ele>2082.60009765625</ele>
        <time>2020-10-24T10:08:38.000Z</time>
      </trkpt>
      <trkpt lat="42.18824691139161586761474609375" lon="1.73197008669376373291015625">
        <ele>2083.800048828125</ele>
        <time>2020-10-24T10:08:43.000Z</time>
      </trkpt>
      <trkpt lat="42.18823752366006374359130859375" lon="1.7319890297949314117431640625">
        <ele>2084.800048828125</ele>
        <time>2020-10-24T10:08:49.000Z</time>
      </trkpt>
      <trkpt lat="42.18819678761065006256103515625" lon="1.73201166093349456787109375">
        <ele>2085.800048828125</ele>
        <time>2020-10-24T10:09:03.000Z</time>
      </trkpt>
      <trkpt lat="42.1881866455078125" lon="1.73201375640928745269775390625">
        <ele>2087</ele>
        <time>2020-10-24T10:09:09.000Z</time>
      </trkpt>
      <trkpt lat="42.18817792832851409912109375" lon="1.73201409168541431427001953125">
        <ele>2087.199951171875</ele>
        <time>2020-10-24T10:09:14.000Z</time>
      </trkpt>
      <trkpt lat="42.1881690435111522674560546875" lon="1.7320202104747295379638671875">
        <ele>2088</ele>
        <time>2020-10-24T10:09:19.000Z</time>
      </trkpt>
      <trkpt lat="42.1881596557796001434326171875" lon="1.73204476945102214813232421875">
        <ele>2089.199951171875</ele>
        <time>2020-10-24T10:09:25.000Z</time>
      </trkpt>
      <trkpt lat="42.1881586499512195587158203125" lon="1.73205415718257427215576171875">
        <ele>2090.800048828125</ele>
        <time>2020-10-24T10:09:29.000Z</time>
      </trkpt>
      <trkpt lat="42.18815856613218784332275390625" lon="1.7320673167705535888671875">
        <ele>2091.800048828125</ele>
        <time>2020-10-24T10:09:34.000Z</time>
      </trkpt>
      <trkpt lat="42.188157476484775543212890625" lon="1.7320902831852436065673828125">
        <ele>2092.800048828125</ele>
        <time>2020-10-24T10:09:40.000Z</time>
      </trkpt>
      <trkpt lat="42.18815672211349010467529296875" lon="1.73210176639258861541748046875">
        <ele>2093</ele>
        <time>2020-10-24T10:09:42.000Z</time>
      </trkpt>
      <trkpt lat="42.18815420754253864288330078125" lon="1.7321254871785640716552734375">
        <ele>2094</ele>
        <time>2020-10-24T10:09:46.000Z</time>
      </trkpt>
      <trkpt lat="42.188151776790618896484375" lon="1.732145436108112335205078125">
        <ele>2094.800048828125</ele>
        <time>2020-10-24T10:09:53.000Z</time>
      </trkpt>
      <trkpt lat="42.18814842402935028076171875" lon="1.732146441936492919921875">
        <ele>2095</ele>
        <time>2020-10-24T10:09:54.000Z</time>
      </trkpt>
      <trkpt lat="42.1881314925849437713623046875" lon="1.73214904032647609710693359375">
        <ele>2095.60009765625</ele>
        <time>2020-10-24T10:09:58.000Z</time>
      </trkpt>
      <trkpt lat="42.18812252394855022430419921875" lon="1.7321553267538547515869140625">
        <ele>2095.60009765625</ele>
        <time>2020-10-24T10:10:00.000Z</time>
      </trkpt>
      <trkpt lat="42.18811145983636379241943359375" lon="1.732168905436992645263671875">
        <ele>2096.199951171875</ele>
        <time>2020-10-24T10:10:05.000Z</time>
      </trkpt>
      <trkpt lat="42.1880941092967987060546875" lon="1.73218466341495513916015625">
        <ele>2097.39990234375</ele>
        <time>2020-10-24T10:10:10.000Z</time>
      </trkpt>
      <trkpt lat="42.1880825422704219818115234375" lon="1.7322069592773914337158203125">
        <ele>2098.39990234375</ele>
        <time>2020-10-24T10:10:17.000Z</time>
      </trkpt>
      <trkpt lat="42.1880806982517242431640625" lon="1.73222783021628856658935546875">
        <ele>2099.60009765625</ele>
        <time>2020-10-24T10:10:23.000Z</time>
      </trkpt>
      <trkpt lat="42.1880838833749294281005859375" lon="1.73224031925201416015625">
        <ele>2100.60009765625</ele>
        <time>2020-10-24T10:10:29.000Z</time>
      </trkpt>
      <trkpt lat="42.18809000216424465179443359375" lon="1.73224744386970996856689453125">
        <ele>2101.60009765625</ele>
        <time>2020-10-24T10:10:35.000Z</time>
      </trkpt>
      <trkpt lat="42.1880932711064815521240234375" lon="1.7322555743157863616943359375">
        <ele>2102.800048828125</ele>
        <time>2020-10-24T10:10:41.000Z</time>
      </trkpt>
      <trkpt lat="42.18809519894421100616455078125" lon="1.73226420767605304718017578125">
        <ele>2103</ele>
        <time>2020-10-24T10:10:45.000Z</time>
      </trkpt>
      <trkpt lat="42.1880959533154964447021484375" lon="1.73226957209408283233642578125">
        <ele>2103</ele>
        <time>2020-10-24T10:10:47.000Z</time>
      </trkpt>
      <trkpt lat="42.18809821642935276031494140625" lon="1.73228281550109386444091796875">
        <ele>2103.800048828125</ele>
        <time>2020-10-24T10:10:55.000Z</time>
      </trkpt>
      <trkpt lat="42.188098467886447906494140625" lon="1.73228382132947444915771484375">
        <ele>2104.199951171875</ele>
        <time>2020-10-24T10:10:59.000Z</time>
      </trkpt>
      <trkpt lat="42.18809855170547962188720703125" lon="1.73228390514850616455078125">
        <ele>2104.39990234375</ele>
        <time>2020-10-24T10:11:01.000Z</time>
      </trkpt>
      <trkpt lat="42.1880986355245113372802734375" lon="1.73228415660560131072998046875">
        <ele>2104.800048828125</ele>
        <time>2020-10-24T10:11:04.000Z</time>
      </trkpt>
      <trkpt lat="42.18809888698160648345947265625" lon="1.7322845757007598876953125">
        <ele>2105.199951171875</ele>
        <time>2020-10-24T10:11:08.000Z</time>
      </trkpt>
      <trkpt lat="42.18809938989579677581787109375" lon="1.73228516243398189544677734375">
        <ele>2106</ele>
        <time>2020-10-24T10:11:14.000Z</time>
      </trkpt>
      <trkpt lat="42.188100479543209075927734375" lon="1.732286252081394195556640625">
        <ele>2107</ele>
        <time>2020-10-24T10:11:24.000Z</time>
      </trkpt>
      <trkpt lat="42.18810123391449451446533203125" lon="1.73228700645267963409423828125">
        <ele>2108.199951171875</ele>
        <time>2020-10-24T10:11:30.000Z</time>
      </trkpt>
      <trkpt lat="42.188101820647716522216796875" lon="1.73228750936686992645263671875">
        <ele>2109</ele>
        <time>2020-10-24T10:11:34.000Z</time>
      </trkpt>
      <trkpt lat="42.18810190446674823760986328125" lon="1.73228767700493335723876953125">
        <ele>2109.199951171875</ele>
        <time>2020-10-24T10:11:35.000Z</time>
      </trkpt>
      <trkpt lat="42.1881023235619068145751953125" lon="1.7322880961000919342041015625">
        <ele>2110.199951171875</ele>
        <time>2020-10-24T10:11:38.000Z</time>
      </trkpt>
      <trkpt lat="42.188102491199970245361328125" lon="1.732288263738155364990234375">
        <ele>2110.39990234375</ele>
        <time>2020-10-24T10:11:39.000Z</time>
      </trkpt>
      <trkpt lat="42.188103161752223968505859375" lon="1.7322891019284725189208984375">
        <ele>2111.60009765625</ele>
        <time>2020-10-24T10:11:44.000Z</time>
      </trkpt>
      <trkpt lat="42.18810391612350940704345703125" lon="1.7322901077568531036376953125">
        <ele>2112.800048828125</ele>
        <time>2020-10-24T10:11:49.000Z</time>
      </trkpt>
      <trkpt lat="42.18810475431382656097412109375" lon="1.7322914488613605499267578125">
        <ele>2113.39990234375</ele>
        <time>2020-10-24T10:11:55.000Z</time>
      </trkpt>
      <trkpt lat="42.1881050057709217071533203125" lon="1.73229203559458255767822265625">
        <ele>2113.800048828125</ele>
        <time>2020-10-24T10:11:57.000Z</time>
      </trkpt>
      <trkpt lat="42.18810559250414371490478515625" lon="1.73229337669909000396728515625">
        <ele>2114.39990234375</ele>
        <time>2020-10-24T10:12:02.000Z</time>
      </trkpt>
      <trkpt lat="42.18810617923736572265625" lon="1.73229740001261234283447265625">
        <ele>2114.39990234375</ele>
        <time>2020-10-24T10:12:15.000Z</time>
      </trkpt>
      <trkpt lat="42.1881063468754291534423828125" lon="1.73229941166937351226806640625">
        <ele>2114.800048828125</ele>
        <time>2020-10-24T10:12:21.000Z</time>
      </trkpt>
      <trkpt lat="42.1881063468754291534423828125" lon="1.73230108805000782012939453125">
        <ele>2114.800048828125</ele>
        <time>2020-10-24T10:12:26.000Z</time>
      </trkpt>
      <trkpt lat="42.18810643069446086883544921875" lon="1.73230242915451526641845703125">
        <ele>2114.800048828125</ele>
        <time>2020-10-24T10:12:30.000Z</time>
      </trkpt>
      <trkpt lat="42.18810643069446086883544921875" lon="1.732303686439990997314453125">
        <ele>2115</ele>
        <time>2020-10-24T10:12:34.000Z</time>
      </trkpt>
      <trkpt lat="42.18810643069446086883544921875" lon="1.732305027544498443603515625">
        <ele>2115</ele>
        <time>2020-10-24T10:12:38.000Z</time>
      </trkpt>
      <trkpt lat="42.188106514513492584228515625" lon="1.7323060333728790283203125">
        <ele>2115</ele>
        <time>2020-10-24T10:12:41.000Z</time>
      </trkpt>
      <trkpt lat="42.18810676597058773040771484375" lon="1.7323165945708751678466796875">
        <ele>2115</ele>
        <time>2020-10-24T10:13:19.000Z</time>
      </trkpt>
      <trkpt lat="42.1881066821515560150146484375" lon="1.7323182709515094757080078125">
        <ele>2114.199951171875</ele>
        <time>2020-10-24T10:13:26.000Z</time>
      </trkpt>
      <trkpt lat="42.18810626305639743804931640625" lon="1.73232120461761951446533203125">
        <ele>2114</ele>
        <time>2020-10-24T10:13:39.000Z</time>
      </trkpt>
      <trkpt lat="42.18810617923736572265625" lon="1.7323219589889049530029296875">
        <ele>2114</ele>
        <time>2020-10-24T10:13:42.000Z</time>
      </trkpt>
      <trkpt lat="42.1881050057709217071533203125" lon="1.73232690431177616119384765625">
        <ele>2114.60009765625</ele>
        <time>2020-10-24T10:14:02.000Z</time>
      </trkpt>
      <trkpt lat="42.18810475431382656097412109375" lon="1.73232816159725189208984375">
        <ele>2114.199951171875</ele>
        <time>2020-10-24T10:14:07.000Z</time>
      </trkpt>
      <trkpt lat="42.18810458667576313018798828125" lon="1.73232941888272762298583984375">
        <ele>2113.800048828125</ele>
        <time>2020-10-24T10:14:12.000Z</time>
      </trkpt>
      <trkpt lat="42.18810425139963626861572265625" lon="1.7323333583772182464599609375">
        <ele>2113.800048828125</ele>
        <time>2020-10-24T10:14:28.000Z</time>
      </trkpt>
      <trkpt lat="42.18810425139963626861572265625" lon="1.732333861291408538818359375">
        <ele>2113.800048828125</ele>
        <time>2020-10-24T10:14:30.000Z</time>
      </trkpt>
      <trkpt lat="42.18810425139963626861572265625" lon="1.7323346994817256927490234375">
        <ele>2113.60009765625</ele>
        <time>2020-10-24T10:14:33.000Z</time>
      </trkpt>
      <trkpt lat="42.18810425139963626861572265625" lon="1.732335872948169708251953125">
        <ele>2113.800048828125</ele>
        <time>2020-10-24T10:14:37.000Z</time>
      </trkpt>
      <trkpt lat="42.18810425139963626861572265625" lon="1.73233679495751857757568359375">
        <ele>2114</ele>
        <time>2020-10-24T10:14:40.000Z</time>
      </trkpt>
      <trkpt lat="42.18810425139963626861572265625" lon="1.73234232701361179351806640625">
        <ele>2113.800048828125</ele>
        <time>2020-10-24T10:14:58.000Z</time>
      </trkpt>
      <trkpt lat="42.18810416758060455322265625" lon="1.7323460988700389862060546875">
        <ele>2114</ele>
        <time>2020-10-24T10:15:11.000Z</time>
      </trkpt>
      <trkpt lat="42.18810416758060455322265625" lon="1.732346601784229278564453125">
        <ele>2114.199951171875</ele>
        <time>2020-10-24T10:15:13.000Z</time>
      </trkpt>
      <trkpt lat="42.18810190446674823760986328125" lon="1.7323752678930759429931640625">
        <ele>2114.199951171875</ele>
        <time>2020-10-24T10:17:22.000Z</time>
      </trkpt>
      <trkpt lat="42.1881019882857799530029296875" lon="1.73237551935017108917236328125">
        <ele>2114.199951171875</ele>
        <time>2020-10-24T10:17:23.000Z</time>
      </trkpt>
      <trkpt lat="42.18810240738093852996826171875" lon="1.73237686045467853546142578125">
        <ele>2114.800048828125</ele>
        <time>2020-10-24T10:17:30.000Z</time>
      </trkpt>
      <trkpt lat="42.18810324557125568389892578125" lon="1.73237912356853485107421875">
        <ele>2115.60009765625</ele>
        <time>2020-10-24T10:17:41.000Z</time>
      </trkpt>
      <trkpt lat="42.1881033293902873992919921875" lon="1.73237937502562999725341796875">
        <ele>2115.800048828125</ele>
        <time>2020-10-24T10:17:42.000Z</time>
      </trkpt>
      <trkpt lat="42.18810358084738254547119140625" lon="1.732380129396915435791015625">
        <ele>2116</ele>
        <time>2020-10-24T10:17:45.000Z</time>
      </trkpt>
      <trkpt lat="42.18810408376157283782958984375" lon="1.73238138668239116668701171875">
        <ele>2116.39990234375</ele>
        <time>2020-10-24T10:17:50.000Z</time>
      </trkpt>
      <trkpt lat="42.188104502856731414794921875" lon="1.732382141053676605224609375">
        <ele>2117</ele>
        <time>2020-10-24T10:17:53.000Z</time>
      </trkpt>
      <trkpt lat="42.18810525722801685333251953125" lon="1.7323836497962474822998046875">
        <ele>2118.199951171875</ele>
        <time>2020-10-24T10:17:59.000Z</time>
      </trkpt>
      <trkpt lat="42.18810609541833400726318359375" lon="1.73238524235785007476806640625">
        <ele>2119.199951171875</ele>
        <time>2020-10-24T10:18:05.000Z</time>
      </trkpt>
      <trkpt lat="42.18810693360865116119384765625" lon="1.73238658346235752105712890625">
        <ele>2120.199951171875</ele>
        <time>2020-10-24T10:18:10.000Z</time>
      </trkpt>
      <trkpt lat="42.1881086938083171844482421875" lon="1.73238926567137241363525390625">
        <ele>2121.39990234375</ele>
        <time>2020-10-24T10:18:19.000Z</time>
      </trkpt>
      <trkpt lat="42.18810953199863433837890625" lon="1.73239060677587985992431640625">
        <ele>2122.39990234375</ele>
        <time>2020-10-24T10:18:23.000Z</time>
      </trkpt>
      <trkpt lat="42.18810978345572948455810546875" lon="1.73239094205200672149658203125">
        <ele>2122.60009765625</ele>
        <time>2020-10-24T10:18:24.000Z</time>
      </trkpt>
      <trkpt lat="42.1881102025508880615234375" lon="1.7323916964232921600341796875">
        <ele>2123.199951171875</ele>
        <time>2020-10-24T10:18:26.000Z</time>
      </trkpt>
      <trkpt lat="42.18811062164604663848876953125" lon="1.7323923669755458831787109375">
        <ele>2123.60009765625</ele>
        <time>2020-10-24T10:18:28.000Z</time>
      </trkpt>
      <trkpt lat="42.18811213038861751556396484375" lon="1.73239463008940219879150390625">
        <ele>2124.60009765625</ele>
        <time>2020-10-24T10:18:34.000Z</time>
      </trkpt>
      <trkpt lat="42.18811380676925182342529296875" lon="1.73239680938422679901123046875">
        <ele>2125.60009765625</ele>
        <time>2020-10-24T10:18:40.000Z</time>
      </trkpt>
      <trkpt lat="42.1881143935024738311767578125" lon="1.732397563755512237548828125">
        <ele>2126</ele>
        <time>2020-10-24T10:18:42.000Z</time>
      </trkpt>
      <trkpt lat="42.1881157346069812774658203125" lon="1.7323990724980831146240234375">
        <ele>2126.800048828125</ele>
        <time>2020-10-24T10:18:46.000Z</time>
      </trkpt>
      <trkpt lat="42.18811833299696445465087890625" lon="1.73240200616419315338134765625">
        <ele>2127.800048828125</ele>
        <time>2020-10-24T10:18:53.000Z</time>
      </trkpt>
      <trkpt lat="42.18812084756791591644287109375" lon="1.73240460455417633056640625">
        <ele>2128.800048828125</ele>
        <time>2020-10-24T10:18:59.000Z</time>
      </trkpt>
      <trkpt lat="42.18812554143369197845458984375" lon="1.73240954987704753875732421875">
        <ele>2129.800048828125</ele>
        <time>2020-10-24T10:19:09.000Z</time>
      </trkpt>
      <trkpt lat="42.1881289780139923095703125" lon="1.73241323791444301605224609375">
        <ele>2131</ele>
        <time>2020-10-24T10:19:16.000Z</time>
      </trkpt>
      <trkpt lat="42.18813107348978519439697265625" lon="1.7324155010282993316650390625">
        <ele>2131.800048828125</ele>
        <time>2020-10-24T10:19:20.000Z</time>
      </trkpt>
      <trkpt lat="42.18813157640397548675537109375" lon="1.7324160039424896240234375">
        <ele>2132</ele>
        <time>2020-10-24T10:19:21.000Z</time>
      </trkpt>
      <trkpt lat="42.18813425861299037933349609375" lon="1.7324188537895679473876953125">
        <ele>2133.199951171875</ele>
        <time>2020-10-24T10:19:26.000Z</time>
      </trkpt>
      <trkpt lat="42.18813593499362468719482421875" lon="1.7324205301702022552490234375">
        <ele>2133.39990234375</ele>
        <time>2020-10-24T10:19:29.000Z</time>
      </trkpt>
      <trkpt lat="42.1882293932139873504638671875" lon="1.73249588347971439361572265625">
        <ele>2133.60009765625</ele>
        <time>2020-10-24T10:19:31.000Z</time>
      </trkpt>
      <trkpt lat="42.1882832050323486328125" lon="1.73253326676785945892333984375">
        <ele>2133.800048828125</ele>
        <time>2020-10-24T10:19:32.000Z</time>
      </trkpt>
      <trkpt lat="42.18838454224169254302978515625" lon="1.73260577023029327392578125">
        <ele>2134</ele>
        <time>2020-10-24T10:19:34.000Z</time>
      </trkpt>
      <trkpt lat="42.188434414565563201904296875" lon="1.73264868557453155517578125">
        <ele>2134.199951171875</ele>
        <time>2020-10-24T10:19:35.000Z</time>
      </trkpt>
      <trkpt lat="42.1885318122804164886474609375" lon="1.732720099389553070068359375">
        <ele>2134.60009765625</ele>
        <time>2020-10-24T10:19:37.000Z</time>
      </trkpt>
      <trkpt lat="42.18863365240395069122314453125" lon="1.7327668704092502593994140625">
        <ele>2134.800048828125</ele>
        <time>2020-10-24T10:19:41.000Z</time>
      </trkpt>
      <trkpt lat="42.188648320734500885009765625" lon="1.7327594943344593048095703125">
        <ele>2135.39990234375</ele>
        <time>2020-10-24T10:19:45.000Z</time>
      </trkpt>
      <trkpt lat="42.18865259550511837005615234375" lon="1.73275454901158809661865234375">
        <ele>2135.39990234375</ele>
        <time>2020-10-24T10:19:46.000Z</time>
      </trkpt>
      <trkpt lat="42.18866583891212940216064453125" lon="1.7327340133488178253173828125">
        <ele>2135.800048828125</ele>
        <time>2020-10-24T10:19:48.000Z</time>
      </trkpt>
      <trkpt lat="42.1886734664440155029296875" lon="1.73273040913045406341552734375">
        <ele>2136.199951171875</ele>
        <time>2020-10-24T10:19:49.000Z</time>
      </trkpt>
      <trkpt lat="42.18868226744234561920166015625" lon="1.7327219434082508087158203125">
        <ele>2136.39990234375</ele>
        <time>2020-10-24T10:19:50.000Z</time>
      </trkpt>
      <trkpt lat="42.18868578784167766571044921875" lon="1.73271666280925273895263671875">
        <ele>2136.60009765625</ele>
        <time>2020-10-24T10:19:51.000Z</time>
      </trkpt>
      <trkpt lat="42.188699953258037567138671875" lon="1.73271163366734981536865234375">
        <ele>2136.800048828125</ele>
        <time>2020-10-24T10:19:53.000Z</time>
      </trkpt>
      <trkpt lat="42.188707329332828521728515625" lon="1.732717417180538177490234375">
        <ele>2137.199951171875</ele>
        <time>2020-10-24T10:19:55.000Z</time>
      </trkpt>
      <trkpt lat="42.18871034681797027587890625" lon="1.73272035084664821624755859375">
        <ele>2137.39990234375</ele>
        <time>2020-10-24T10:19:56.000Z</time>
      </trkpt>
      <trkpt lat="42.188723422586917877197265625" lon="1.73273258842527866363525390625">
        <ele>2137.800048828125</ele>
        <time>2020-10-24T10:19:59.000Z</time>
      </trkpt>
      <trkpt lat="42.1887266077101230621337890625" lon="1.73273577354848384857177734375">
        <ele>2137.800048828125</ele>
        <time>2020-10-24T10:20:00.000Z</time>
      </trkpt>
      <trkpt lat="42.1887373365461826324462890625" lon="1.73274298198521137237548828125">
        <ele>2138.39990234375</ele>
        <time>2020-10-24T10:20:03.000Z</time>
      </trkpt>
      <trkpt lat="42.188762985169887542724609375" lon="1.73273225314915180206298828125">
        <ele>2139.60009765625</ele>
        <time>2020-10-24T10:20:09.000Z</time>
      </trkpt>
      <trkpt lat="42.18877145089209079742431640625" lon="1.73274616710841655731201171875">
        <ele>2140.60009765625</ele>
        <time>2020-10-24T10:20:14.000Z</time>
      </trkpt>
      <trkpt lat="42.18877312727272510528564453125" lon="1.7327484302222728729248046875">
        <ele>2141</ele>
        <time>2020-10-24T10:20:15.000Z</time>
      </trkpt>
      <trkpt lat="42.18879743479192256927490234375" lon="1.73274817876517772674560546875">
        <ele>2142</ele>
        <time>2020-10-24T10:20:19.000Z</time>
      </trkpt>
      <trkpt lat="42.188806235790252685546875" lon="1.73275086097419261932373046875">
        <ele>2142.199951171875</ele>
        <time>2020-10-24T10:20:20.000Z</time>
      </trkpt>
      <trkpt lat="42.18882023356854915618896484375" lon="1.73274415545165538787841796875">
        <ele>2143</ele>
        <time>2020-10-24T10:20:23.000Z</time>
      </trkpt>
      <trkpt lat="42.18883682973682880401611328125" lon="1.7327190935611724853515625">
        <ele>2143.60009765625</ele>
        <time>2020-10-24T10:20:28.000Z</time>
      </trkpt>
      <trkpt lat="42.188878990709781646728515625" lon="1.7326900921761989593505859375">
        <ele>2144</ele>
        <time>2020-10-24T10:20:33.000Z</time>
      </trkpt>
      <trkpt lat="42.18888745643198490142822265625" lon="1.73268891870975494384765625">
        <ele>2144</ele>
        <time>2020-10-24T10:20:35.000Z</time>
      </trkpt>
      <trkpt lat="42.1889026276767253875732421875" lon="1.7327018268406391143798828125">
        <ele>2145</ele>
        <time>2020-10-24T10:20:40.000Z</time>
      </trkpt>
      <trkpt lat="42.18890790827572345733642578125" lon="1.73270157538354396820068359375">
        <ele>2145.199951171875</ele>
        <time>2020-10-24T10:20:41.000Z</time>
      </trkpt>
      <trkpt lat="42.18895182944834232330322265625" lon="1.73270643688738346099853515625">
        <ele>2146.39990234375</ele>
        <time>2020-10-24T10:20:47.000Z</time>
      </trkpt>
      <trkpt lat="42.18896758742630481719970703125" lon="1.732702665030956268310546875">
        <ele>2147.199951171875</ele>
        <time>2020-10-24T10:20:52.000Z</time>
      </trkpt>
      <trkpt lat="42.1889713592827320098876953125" lon="1.7327018268406391143798828125">
        <ele>2147.39990234375</ele>
        <time>2020-10-24T10:20:53.000Z</time>
      </trkpt>
      <trkpt lat="42.18899005092680454254150390625" lon="1.7327028326690196990966796875">
        <ele>2148.199951171875</ele>
        <time>2020-10-24T10:20:58.000Z</time>
      </trkpt>
      <trkpt lat="42.18899457715451717376708984375" lon="1.732701323926448822021484375">
        <ele>2148.39990234375</ele>
        <time>2020-10-24T10:21:01.000Z</time>
      </trkpt>
      <trkpt lat="42.18901854939758777618408203125" lon="1.73267475329339504241943359375">
        <ele>2149.39990234375</ele>
        <time>2020-10-24T10:21:08.000Z</time>
      </trkpt>
      <trkpt lat="42.18904587440192699432373046875" lon="1.7326565645635128021240234375">
        <ele>2150.199951171875</ele>
        <time>2020-10-24T10:21:13.000Z</time>
      </trkpt>
      <trkpt lat="42.18904771842062473297119140625" lon="1.7326552234590053558349609375">
        <ele>2150.199951171875</ele>
        <time>2020-10-24T10:21:14.000Z</time>
      </trkpt>
      <trkpt lat="42.18905827961862087249755859375" lon="1.7326498590409755706787109375">
        <ele>2150.39990234375</ele>
        <time>2020-10-24T10:21:17.000Z</time>
      </trkpt>
      <trkpt lat="42.18906213529407978057861328125" lon="1.73265136778354644775390625">
        <ele>2150.39990234375</ele>
        <time>2020-10-24T10:21:18.000Z</time>
      </trkpt>
      <trkpt lat="42.1890650689601898193359375" lon="1.732663102447986602783203125">
        <ele>2151.199951171875</ele>
        <time>2020-10-24T10:21:22.000Z</time>
      </trkpt>
      <trkpt lat="42.1890706010162830352783203125" lon="1.732667125761508941650390625">
        <ele>2151.39990234375</ele>
        <time>2020-10-24T10:21:23.000Z</time>
      </trkpt>
      <trkpt lat="42.18906900845468044281005859375" lon="1.73265983350574970245361328125">
        <ele>2152</ele>
        <time>2020-10-24T10:21:26.000Z</time>
      </trkpt>
      <trkpt lat="42.18907470814883708953857421875" lon="1.73266955651342868804931640625">
        <ele>2152.199951171875</ele>
        <time>2020-10-24T10:21:28.000Z</time>
      </trkpt>
      <trkpt lat="42.18907252885401248931884765625" lon="1.7326708137989044189453125">
        <ele>2152.39990234375</ele>
        <time>2020-10-24T10:21:30.000Z</time>
      </trkpt>
      <trkpt lat="42.18907252885401248931884765625" lon="1.7326708137989044189453125">
        <ele>2152.60009765625</ele>
        <time>2020-10-24T10:21:31.000Z</time>
      </trkpt>
      <trkpt lat="42.18907252885401248931884765625" lon="1.7326708137989044189453125">
        <ele>2153.60009765625</ele>
        <time>2020-10-24T10:21:36.000Z</time>
      </trkpt>
      <trkpt lat="42.18907252885401248931884765625" lon="1.7326708137989044189453125">
        <ele>2154</ele>
        <time>2020-10-24T10:21:38.000Z</time>
      </trkpt>
      <trkpt lat="42.18907252885401248931884765625" lon="1.73266720958054065704345703125">
        <ele>2154.60009765625</ele>
        <time>2020-10-24T10:21:41.000Z</time>
      </trkpt>
      <trkpt lat="42.18907470814883708953857421875" lon="1.7326599173247814178466796875">
        <ele>2155.60009765625</ele>
        <time>2020-10-24T10:21:47.000Z</time>
      </trkpt>
      <trkpt lat="42.18910035677254199981689453125" lon="1.73265983350574970245361328125">
        <ele>2156.800048828125</ele>
        <time>2020-10-24T10:21:54.000Z</time>
      </trkpt>
      <trkpt lat="42.18912349082529544830322265625" lon="1.73266352154314517974853515625">
        <ele>2157.800048828125</ele>
        <time>2020-10-24T10:21:58.000Z</time>
      </trkpt>
      <trkpt lat="42.1891428530216217041015625" lon="1.73266938887536525726318359375">
        <ele>2159</ele>
        <time>2020-10-24T10:22:04.000Z</time>
      </trkpt>
      <trkpt lat="42.18919004313647747039794921875" lon="1.732692606747150421142578125">
        <ele>2160</ele>
        <time>2020-10-24T10:22:15.000Z</time>
      </trkpt>
      <trkpt lat="42.18920177780091762542724609375" lon="1.73271037638187408447265625">
        <ele>2160.60009765625</ele>
        <time>2020-10-24T10:22:19.000Z</time>
      </trkpt>
      <trkpt lat="42.189208231866359710693359375" lon="1.7327155731618404388427734375">
        <ele>2160.800048828125</ele>
        <time>2020-10-24T10:22:21.000Z</time>
      </trkpt>
      <trkpt lat="42.18921166844666004180908203125" lon="1.7327159084379673004150390625">
        <ele>2161.199951171875</ele>
        <time>2020-10-24T10:22:23.000Z</time>
      </trkpt>
      <trkpt lat="42.18921787105500698089599609375" lon="1.7327159084379673004150390625">
        <ele>2161.60009765625</ele>
        <time>2020-10-24T10:22:25.000Z</time>
      </trkpt>
      <trkpt lat="42.18922005034983158111572265625" lon="1.7327159084379673004150390625">
        <ele>2162.199951171875</ele>
        <time>2020-10-24T10:22:27.000Z</time>
      </trkpt>
      <trkpt lat="42.18922440893948078155517578125" lon="1.73271649517118930816650390625">
        <ele>2163.39990234375</ele>
        <time>2020-10-24T10:22:32.000Z</time>
      </trkpt>
      <trkpt lat="42.18925341032445430755615234375" lon="1.73271683044731616973876953125">
        <ele>2164.39990234375</ele>
        <time>2020-10-24T10:22:40.000Z</time>
      </trkpt>
      <trkpt lat="42.18930001370608806610107421875" lon="1.7327165789902210235595703125">
        <ele>2165.60009765625</ele>
        <time>2020-10-24T10:22:44.000Z</time>
      </trkpt>
      <trkpt lat="42.189318202435970306396484375" lon="1.73272990621626377105712890625">
        <ele>2165.800048828125</ele>
        <time>2020-10-24T10:22:46.000Z</time>
      </trkpt>
      <trkpt lat="42.18935080803930759429931640625" lon="1.73274767585098743438720703125">
        <ele>2166.60009765625</ele>
        <time>2020-10-24T10:22:51.000Z</time>
      </trkpt>
      <trkpt lat="42.189347036182880401611328125" lon="1.7327370308339595794677734375">
        <ele>2167</ele>
        <time>2020-10-24T10:22:54.000Z</time>
      </trkpt>
      <trkpt lat="42.18935298733413219451904296875" lon="1.7327316664159297943115234375">
        <ele>2167.199951171875</ele>
        <time>2020-10-24T10:22:57.000Z</time>
      </trkpt>
      <trkpt lat="42.18935416080057621002197265625" lon="1.73272923566401004791259765625">
        <ele>2167.60009765625</ele>
        <time>2020-10-24T10:23:00.000Z</time>
      </trkpt>
      <trkpt lat="42.18935416080057621002197265625" lon="1.73272923566401004791259765625">
        <ele>2167.800048828125</ele>
        <time>2020-10-24T10:23:01.000Z</time>
      </trkpt>
      <trkpt lat="42.18935416080057621002197265625" lon="1.73272923566401004791259765625">
        <ele>2168.800048828125</ele>
        <time>2020-10-24T10:23:06.000Z</time>
      </trkpt>
      <trkpt lat="42.18935416080057621002197265625" lon="1.7327306605875492095947265625">
        <ele>2169.800048828125</ele>
        <time>2020-10-24T10:23:13.000Z</time>
      </trkpt>
      <trkpt lat="42.18937209807336330413818359375" lon="1.73273694701492786407470703125">
        <ele>2171</ele>
        <time>2020-10-24T10:23:19.000Z</time>
      </trkpt>
      <trkpt lat="42.189383916556835174560546875" lon="1.7327323369681835174560546875">
        <ele>2172.199951171875</ele>
        <time>2020-10-24T10:23:25.000Z</time>
      </trkpt>
      <trkpt lat="42.1893921308219432830810546875" lon="1.73273543827235698699951171875">
        <ele>2173.39990234375</ele>
        <time>2020-10-24T10:23:31.000Z</time>
      </trkpt>
      <trkpt lat="42.189399339258670806884765625" lon="1.73273510299623012542724609375">
        <ele>2173.800048828125</ele>
        <time>2020-10-24T10:23:35.000Z</time>
      </trkpt>
      <trkpt lat="42.189420126378536224365234375" lon="1.7327343486249446868896484375">
        <ele>2174.39990234375</ele>
        <time>2020-10-24T10:23:38.000Z</time>
      </trkpt>
      <trkpt lat="42.18944669701159000396728515625" lon="1.73273024149239063262939453125">
        <ele>2175.39990234375</ele>
        <time>2020-10-24T10:23:44.000Z</time>
      </trkpt>
      <trkpt lat="42.18944971449673175811767578125" lon="1.7327252961695194244384765625">
        <ele>2175.800048828125</ele>
        <time>2020-10-24T10:23:47.000Z</time>
      </trkpt>
      <trkpt lat="42.189450301229953765869140625" lon="1.732722781598567962646484375">
        <ele>2176</ele>
        <time>2020-10-24T10:23:49.000Z</time>
      </trkpt>
      <trkpt lat="42.1894521452486515045166015625" lon="1.73270794562995433807373046875">
        <ele>2176.60009765625</ele>
        <time>2020-10-24T10:23:52.000Z</time>
      </trkpt>
      <trkpt lat="42.18946094624698162078857421875" lon="1.73268380574882030487060546875">
        <ele>2177.60009765625</ele>
        <time>2020-10-24T10:23:57.000Z</time>
      </trkpt>
      <trkpt lat="42.18948173336684703826904296875" lon="1.7326599173247814178466796875">
        <ele>2178.60009765625</ele>
        <time>2020-10-24T10:24:04.000Z</time>
      </trkpt>
      <trkpt lat="42.1894876845180988311767578125" lon="1.7326585762202739715576171875">
        <ele>2178.800048828125</ele>
        <time>2020-10-24T10:24:05.000Z</time>
      </trkpt>
      <trkpt lat="42.189527414739131927490234375" lon="1.73265379853546619415283203125">
        <ele>2179.800048828125</ele>
        <time>2020-10-24T10:24:14.000Z</time>
      </trkpt>
      <trkpt lat="42.1895470283925533294677734375" lon="1.73265195451676845550537109375">
        <ele>2181</ele>
        <time>2020-10-24T10:24:22.000Z</time>
      </trkpt>
      <trkpt lat="42.18956865370273590087890625" lon="1.73265446908771991729736328125">
        <ele>2181.800048828125</ele>
        <time>2020-10-24T10:24:27.000Z</time>
      </trkpt>
      <trkpt lat="42.18957225792109966278076171875" lon="1.7326545529067516326904296875">
        <ele>2182</ele>
        <time>2020-10-24T10:24:28.000Z</time>
      </trkpt>
      <trkpt lat="42.189578711986541748046875" lon="1.73265480436384677886962890625">
        <ele>2182.199951171875</ele>
        <time>2020-10-24T10:24:30.000Z</time>
      </trkpt>
      <trkpt lat="42.18958818353712558746337890625" lon="1.732655726373195648193359375">
        <ele>2182.60009765625</ele>
        <time>2020-10-24T10:24:33.000Z</time>
      </trkpt>
      <trkpt lat="42.18959723599255084991455078125" lon="1.73265866003930568695068359375">
        <ele>2182.60009765625</ele>
        <time>2020-10-24T10:24:35.000Z</time>
      </trkpt>
      <trkpt lat="42.1896274946630001068115234375" lon="1.73266033641993999481201171875">
        <ele>2183.199951171875</ele>
        <time>2020-10-24T10:24:40.000Z</time>
      </trkpt>
      <trkpt lat="42.18964031897485256195068359375" lon="1.73266033641993999481201171875">
        <ele>2183.199951171875</ele>
        <time>2020-10-24T10:24:42.000Z</time>
      </trkpt>
      <trkpt lat="42.189652808010578155517578125" lon="1.7326600849628448486328125">
        <ele>2184.199951171875</ele>
        <time>2020-10-24T10:24:49.000Z</time>
      </trkpt>
      <trkpt lat="42.1896663866937160491943359375" lon="1.73265798948705196380615234375">
        <ele>2185.199951171875</ele>
        <time>2020-10-24T10:24:53.000Z</time>
      </trkpt>
      <trkpt lat="42.18966814689338207244873046875" lon="1.7326547205448150634765625">
        <ele>2185.60009765625</ele>
        <time>2020-10-24T10:24:54.000Z</time>
      </trkpt>
      <trkpt lat="42.18966932035982608795166015625" lon="1.7326528765261173248291015625">
        <ele>2185.800048828125</ele>
        <time>2020-10-24T10:24:55.000Z</time>
      </trkpt>
      <trkpt lat="42.18967183493077754974365234375" lon="1.7326508648693561553955078125">
        <ele>2186.39990234375</ele>
        <time>2020-10-24T10:24:58.000Z</time>
      </trkpt>
      <trkpt lat="42.18969530425965785980224609375" lon="1.73265044577419757843017578125">
        <ele>2186.60009765625</ele>
        <time>2020-10-24T10:25:07.000Z</time>
      </trkpt>
      <trkpt lat="42.18971743248403072357177734375" lon="1.73265916295349597930908203125">
        <ele>2187.60009765625</ele>
        <time>2020-10-24T10:25:13.000Z</time>
      </trkpt>
      <trkpt lat="42.189722545444965362548828125" lon="1.732663773000240325927734375">
        <ele>2188.60009765625</ele>
        <time>2020-10-24T10:25:17.000Z</time>
      </trkpt>
      <trkpt lat="42.18972313217818737030029296875" lon="1.7326646111905574798583984375">
        <ele>2188.800048828125</ele>
        <time>2020-10-24T10:25:18.000Z</time>
      </trkpt>
      <trkpt lat="42.18974609859287738800048828125" lon="1.73269621096551418304443359375">
        <ele>2189.800048828125</ele>
        <time>2020-10-24T10:25:30.000Z</time>
      </trkpt>
      <trkpt lat="42.1897522173821926116943359375" lon="1.7327252961695194244384765625">
        <ele>2190.800048828125</ele>
        <time>2020-10-24T10:25:36.000Z</time>
      </trkpt>
      <trkpt lat="42.189754061400890350341796875" lon="1.73273812048137187957763671875">
        <ele>2192</ele>
        <time>2020-10-24T10:25:41.000Z</time>
      </trkpt>
      <trkpt lat="42.1897599287331104278564453125" lon="1.73274583183228969573974609375">
        <ele>2193</ele>
        <time>2020-10-24T10:25:45.000Z</time>
      </trkpt>
      <trkpt lat="42.18976177275180816650390625" lon="1.73274717293679714202880859375">
        <ele>2193.39990234375</ele>
        <time>2020-10-24T10:25:46.000Z</time>
      </trkpt>
      <trkpt lat="42.18977225013077259063720703125" lon="1.73275195062160491943359375">
        <ele>2194.199951171875</ele>
        <time>2020-10-24T10:25:51.000Z</time>
      </trkpt>
      <trkpt lat="42.1897907741367816925048828125" lon="1.73275454901158809661865234375">
        <ele>2195</ele>
        <time>2020-10-24T10:25:58.000Z</time>
      </trkpt>
      <trkpt lat="42.189801000058650970458984375" lon="1.7327551357448101043701171875">
        <ele>2195.199951171875</ele>
        <time>2020-10-24T10:26:02.000Z</time>
      </trkpt>
      <trkpt lat="42.189807035028934478759765625" lon="1.73275530338287353515625">
        <ele>2195.39990234375</ele>
        <time>2020-10-24T10:26:04.000Z</time>
      </trkpt>
      <trkpt lat="42.189817093312740325927734375" lon="1.73275572247803211212158203125">
        <ele>2196.39990234375</ele>
        <time>2020-10-24T10:26:08.000Z</time>
      </trkpt>
      <trkpt lat="42.189823128283023834228515625" lon="1.73275605775415897369384765625">
        <ele>2197.60009765625</ele>
        <time>2020-10-24T10:26:12.000Z</time>
      </trkpt>
      <trkpt lat="42.18982639722526073455810546875" lon="1.73275597393512725830078125">
        <ele>2198.199951171875</ele>
        <time>2020-10-24T10:26:16.000Z</time>
      </trkpt>
      <trkpt lat="42.18982748687267303466796875" lon="1.73275589011609554290771484375">
        <ele>2198.800048828125</ele>
        <time>2020-10-24T10:26:20.000Z</time>
      </trkpt>
      <trkpt lat="42.18982924707233905792236328125" lon="1.73275555483996868133544921875">
        <ele>2199.60009765625</ele>
        <time>2020-10-24T10:26:36.000Z</time>
      </trkpt>
      <trkpt lat="42.18982958234846591949462890625" lon="1.73275555483996868133544921875">
        <ele>2199.800048828125</ele>
        <time>2020-10-24T10:26:38.000Z</time>
      </trkpt>
      <trkpt lat="42.189830839633941650390625" lon="1.7327551357448101043701171875">
        <ele>2201</ele>
        <time>2020-10-24T10:26:47.000Z</time>
      </trkpt>
      <trkpt lat="42.18983159400522708892822265625" lon="1.73275488428771495819091796875">
        <ele>2202.199951171875</ele>
        <time>2020-10-24T10:26:52.000Z</time>
      </trkpt>
      <trkpt lat="42.1898326836526393890380859375" lon="1.73275463283061981201171875">
        <ele>2203.199951171875</ele>
        <time>2020-10-24T10:26:58.000Z</time>
      </trkpt>
      <trkpt lat="42.18983360566198825836181640625" lon="1.73275454901158809661865234375">
        <ele>2204.39990234375</ele>
        <time>2020-10-24T10:27:03.000Z</time>
      </trkpt>
      <trkpt lat="42.189834527671337127685546875" lon="1.73275463283061981201171875">
        <ele>2205.39990234375</ele>
        <time>2020-10-24T10:27:08.000Z</time>
      </trkpt>
      <trkpt lat="42.18992010690271854400634765625" lon="1.73275907523930072784423828125">
        <ele>2206.39990234375</ele>
        <time>2020-10-24T10:27:12.000Z</time>
      </trkpt>
      <trkpt lat="42.18994357623159885406494140625" lon="1.7327608354389667510986328125">
        <ele>2206.60009765625</ele>
        <time>2020-10-24T10:27:13.000Z</time>
      </trkpt>
      <trkpt lat="42.18996704556047916412353515625" lon="1.73276494257152080535888671875">
        <ele>2206.800048828125</ele>
        <time>2020-10-24T10:27:14.000Z</time>
      </trkpt>
      <trkpt lat="42.1900288201868534088134765625" lon="1.73278455622494220733642578125">
        <ele>2207.39990234375</ele>
        <time>2020-10-24T10:27:17.000Z</time>
      </trkpt>
      <trkpt lat="42.19005237333476543426513671875" lon="1.73278790898621082305908203125">
        <ele>2207.60009765625</ele>
        <time>2020-10-24T10:27:18.000Z</time>
      </trkpt>
      <trkpt lat="42.19005874358117580413818359375" lon="1.732783131301403045654296875">
        <ele>2207.800048828125</ele>
        <time>2020-10-24T10:27:19.000Z</time>
      </trkpt>
      <trkpt lat="42.19005547463893890380859375" lon="1.7327700555324554443359375">
        <ele>2208.60009765625</ele>
        <time>2020-10-24T10:27:25.000Z</time>
      </trkpt>
      <trkpt lat="42.190055139362812042236328125" lon="1.73277072608470916748046875">
        <ele>2208.800048828125</ele>
        <time>2020-10-24T10:27:26.000Z</time>
      </trkpt>
      <trkpt lat="42.19006041996181011199951171875" lon="1.73276561312377452850341796875">
        <ele>2208.800048828125</ele>
        <time>2020-10-24T10:27:27.000Z</time>
      </trkpt>
      <trkpt lat="42.19007215462625026702880859375" lon="1.73275941051542758941650390625">
        <ele>2209.39990234375</ele>
        <time>2020-10-24T10:27:30.000Z</time>
      </trkpt>
      <trkpt lat="42.19007332809269428253173828125" lon="1.7327517829835414886474609375">
        <ele>2209.800048828125</ele>
        <time>2020-10-24T10:27:32.000Z</time>
      </trkpt>
      <trkpt lat="42.1900767646729946136474609375" lon="1.732740886509418487548828125">
        <ele>2210.199951171875</ele>
        <time>2020-10-24T10:27:34.000Z</time>
      </trkpt>
      <trkpt lat="42.19008975662291049957275390625" lon="1.73272990621626377105712890625">
        <ele>2210.800048828125</ele>
        <time>2020-10-24T10:27:37.000Z</time>
      </trkpt>
      <trkpt lat="42.19009101390838623046875" lon="1.73272890038788318634033203125">
        <ele>2211.199951171875</ele>
        <time>2020-10-24T10:27:39.000Z</time>
      </trkpt>
      <trkpt lat="42.19009168446063995361328125" lon="1.73272646963596343994140625">
        <ele>2211.39990234375</ele>
        <time>2020-10-24T10:27:40.000Z</time>
      </trkpt>
      <trkpt lat="42.19010199420154094696044921875" lon="1.73272185958921909332275390625">
        <ele>2211.800048828125</ele>
        <time>2020-10-24T10:27:43.000Z</time>
      </trkpt>
      <trkpt lat="42.19011238776147365570068359375" lon="1.73271079547703266143798828125">
        <ele>2212.199951171875</ele>
        <time>2020-10-24T10:27:46.000Z</time>
      </trkpt>
      <trkpt lat="42.19011624343693256378173828125" lon="1.73270811326801776885986328125">
        <ele>2212.60009765625</ele>
        <time>2020-10-24T10:27:48.000Z</time>
      </trkpt>
      <trkpt lat="42.19012781046330928802490234375" lon="1.7327132262289524078369140625">
        <ele>2213</ele>
        <time>2020-10-24T10:27:50.000Z</time>
      </trkpt>
      <trkpt lat="42.19013862311840057373046875" lon="1.73270978964865207672119140625">
        <ele>2214</ele>
        <time>2020-10-24T10:27:53.000Z</time>
      </trkpt>
      <trkpt lat="42.19013920985162258148193359375" lon="1.73271414823830127716064453125">
        <ele>2214.39990234375</ele>
        <time>2020-10-24T10:27:55.000Z</time>
      </trkpt>
      <trkpt lat="42.1901444904506206512451171875" lon="1.73271565698087215423583984375">
        <ele>2215</ele>
        <time>2020-10-24T10:27:58.000Z</time>
      </trkpt>
      <trkpt lat="42.19014960341155529022216796875" lon="1.73271867446601390838623046875">
        <ele>2215.60009765625</ele>
        <time>2020-10-24T10:28:03.000Z</time>
      </trkpt>
      <trkpt lat="42.1901548840105533599853515625" lon="1.73270710743963718414306640625">
        <ele>2216</ele>
        <time>2020-10-24T10:28:08.000Z</time>
      </trkpt>
      <trkpt lat="42.19016938470304012298583984375" lon="1.73269889317452907562255859375">
        <ele>2216.39990234375</ele>
        <time>2020-10-24T10:28:11.000Z</time>
      </trkpt>
      <trkpt lat="42.19017541967332363128662109375" lon="1.73270090483129024505615234375">
        <ele>2216.60009765625</ele>
        <time>2020-10-24T10:28:12.000Z</time>
      </trkpt>
      <trkpt lat="42.19018799252808094024658203125" lon="1.73269771970808506011962890625">
        <ele>2217</ele>
        <time>2020-10-24T10:28:15.000Z</time>
      </trkpt>
      <trkpt lat="42.1902008168399333953857421875" lon="1.7327028326690196990966796875">
        <ele>2217.199951171875</ele>
        <time>2020-10-24T10:28:16.000Z</time>
      </trkpt>
      <trkpt lat="42.19022386707365512847900390625" lon="1.73271766863763332366943359375">
        <ele>2218.39990234375</ele>
        <time>2020-10-24T10:28:21.000Z</time>
      </trkpt>
      <trkpt lat="42.1902306564152240753173828125" lon="1.7327239550650119781494140625">
        <ele>2219</ele>
        <time>2020-10-24T10:28:24.000Z</time>
      </trkpt>
      <trkpt lat="42.19023006968200206756591796875" lon="1.73273795284330844879150390625">
        <ele>2219.39990234375</ele>
        <time>2020-10-24T10:28:31.000Z</time>
      </trkpt>
      <trkpt lat="42.19023174606263637542724609375" lon="1.73273627646267414093017578125">
        <ele>2219.39990234375</ele>
        <time>2020-10-24T10:28:32.000Z</time>
      </trkpt>
      <trkpt lat="42.19025035388767719268798828125" lon="1.7327378690242767333984375">
        <ele>2220.60009765625</ele>
        <time>2020-10-24T10:28:37.000Z</time>
      </trkpt>
      <trkpt lat="42.1902554668486118316650390625" lon="1.73274767585098743438720703125">
        <ele>2221</ele>
        <time>2020-10-24T10:28:39.000Z</time>
      </trkpt>
      <trkpt lat="42.19025705941021442413330078125" lon="1.73275957815349102020263671875">
        <ele>2221.39990234375</ele>
        <time>2020-10-24T10:28:41.000Z</time>
      </trkpt>
      <trkpt lat="42.19025387428700923919677734375" lon="1.73276125453412532806396484375">
        <ele>2221.60009765625</ele>
        <time>2020-10-24T10:28:42.000Z</time>
      </trkpt>
      <trkpt lat="42.19025840051472187042236328125" lon="1.7327646911144256591796875">
        <ele>2222.199951171875</ele>
        <time>2020-10-24T10:28:46.000Z</time>
      </trkpt>
      <trkpt lat="42.19025932252407073974609375" lon="1.73275253735482692718505859375">
        <ele>2222.60009765625</ele>
        <time>2020-10-24T10:28:49.000Z</time>
      </trkpt>
      <trkpt lat="42.1902544610202312469482421875" lon="1.73274868167936801910400390625">
        <ele>2222.800048828125</ele>
        <time>2020-10-24T10:28:50.000Z</time>
      </trkpt>
      <trkpt lat="42.190252952277660369873046875" lon="1.73274993896484375">
        <ele>2222.800048828125</ele>
        <time>2020-10-24T10:28:51.000Z</time>
      </trkpt>
      <trkpt lat="42.19025404192507266998291015625" lon="1.7327474243938922882080078125">
        <ele>2222.800048828125</ele>
        <time>2020-10-24T10:28:52.000Z</time>
      </trkpt>
      <trkpt lat="42.19028346240520477294921875" lon="1.73277751542627811431884765625">
        <ele>2223.60009765625</ele>
        <time>2020-10-24T10:28:59.000Z</time>
      </trkpt>
      <trkpt lat="42.19028974883258342742919921875" lon="1.73278472386300563812255859375">
        <ele>2223.800048828125</ele>
        <time>2020-10-24T10:29:00.000Z</time>
      </trkpt>
      <trkpt lat="42.19030215404927730560302734375" lon="1.73280819319188594818115234375">
        <ele>2224.800048828125</ele>
        <time>2020-10-24T10:29:05.000Z</time>
      </trkpt>
      <trkpt lat="42.19032411463558673858642578125" lon="1.732835434377193450927734375">
        <ele>2226</ele>
        <time>2020-10-24T10:29:09.000Z</time>
      </trkpt>
      <trkpt lat="42.19033635221421718597412109375" lon="1.732860244810581207275390625">
        <ele>2227.199951171875</ele>
        <time>2020-10-24T10:29:14.000Z</time>
      </trkpt>
      <trkpt lat="42.190340794622898101806640625" lon="1.73286502249538898468017578125">
        <ele>2227.60009765625</ele>
        <time>2020-10-24T10:29:15.000Z</time>
      </trkpt>
      <trkpt lat="42.19035026617348194122314453125" lon="1.73288580961525440216064453125">
        <ele>2228.39990234375</ele>
        <time>2020-10-24T10:29:19.000Z</time>
      </trkpt>
      <trkpt lat="42.190364263951778411865234375" lon="1.732918918132781982421875">
        <ele>2229</ele>
        <time>2020-10-24T10:29:24.000Z</time>
      </trkpt>
      <trkpt lat="42.190368287265300750732421875" lon="1.73292838968336582183837890625">
        <ele>2229.199951171875</ele>
        <time>2020-10-24T10:29:25.000Z</time>
      </trkpt>
      <trkpt lat="42.190368957817554473876953125" lon="1.73293341882526874542236328125">
        <ele>2229.39990234375</ele>
        <time>2020-10-24T10:29:26.000Z</time>
      </trkpt>
      <trkpt lat="42.19037340022623538970947265625" lon="1.7329495958983898162841796875">
        <ele>2229.800048828125</ele>
        <time>2020-10-24T10:29:29.000Z</time>
      </trkpt>
      <trkpt lat="42.19037331640720367431640625" lon="1.73295177519321441650390625">
        <ele>2230</ele>
        <time>2020-10-24T10:29:30.000Z</time>
      </trkpt>
      <trkpt lat="42.1903721429407596588134765625" lon="1.73295940272510051727294921875">
        <ele>2230.199951171875</ele>
        <time>2020-10-24T10:29:33.000Z</time>
      </trkpt>
      <trkpt lat="42.19037197530269622802734375" lon="1.732976250350475311279296875">
        <ele>2230.39990234375</ele>
        <time>2020-10-24T10:29:36.000Z</time>
      </trkpt>
      <trkpt lat="42.19037407077848911285400390625" lon="1.7329750768840312957763671875">
        <ele>2230.60009765625</ele>
        <time>2020-10-24T10:29:37.000Z</time>
      </trkpt>
      <trkpt lat="42.190395109355449676513671875" lon="1.732993684709072113037109375">
        <ele>2231.800048828125</ele>
        <time>2020-10-24T10:29:44.000Z</time>
      </trkpt>
      <trkpt lat="42.19040307216346263885498046875" lon="1.73299829475581645965576171875">
        <ele>2232.60009765625</ele>
        <time>2020-10-24T10:29:49.000Z</time>
      </trkpt>
      <trkpt lat="42.19040307216346263885498046875" lon="1.73299829475581645965576171875">
        <ele>2232.800048828125</ele>
        <time>2020-10-24T10:29:51.000Z</time>
      </trkpt>
      <trkpt lat="42.19040307216346263885498046875" lon="1.73299829475581645965576171875">
        <ele>2233.60009765625</ele>
        <time>2020-10-24T10:29:58.000Z</time>
      </trkpt>
      <trkpt lat="42.19040307216346263885498046875" lon="1.73299829475581645965576171875">
        <ele>2233.800048828125</ele>
        <time>2020-10-24T10:29:59.000Z</time>
      </trkpt>
      <trkpt lat="42.19040474854409694671630859375" lon="1.7330008931457996368408203125">
        <ele>2235</ele>
        <time>2020-10-24T10:30:04.000Z</time>
      </trkpt>
      <trkpt lat="42.1904075145721435546875" lon="1.73302394337952136993408203125">
        <ele>2236</ele>
        <time>2020-10-24T10:30:09.000Z</time>
      </trkpt>
      <trkpt lat="42.19041623175144195556640625" lon="1.7330240271985530853271484375">
        <ele>2237.199951171875</ele>
        <time>2020-10-24T10:30:14.000Z</time>
      </trkpt>
      <trkpt lat="42.19042218290269374847412109375" lon="1.7330240271985530853271484375">
        <ele>2237.60009765625</ele>
        <time>2020-10-24T10:30:16.000Z</time>
      </trkpt>
      <trkpt lat="42.1904261223971843719482421875" lon="1.7330240271985530853271484375">
        <ele>2237.60009765625</ele>
        <time>2020-10-24T10:30:17.000Z</time>
      </trkpt>
      <trkpt lat="42.19042989425361156463623046875" lon="1.7330240271985530853271484375">
        <ele>2237.60009765625</ele>
        <time>2020-10-24T10:30:18.000Z</time>
      </trkpt>
      <trkpt lat="42.190439701080322265625" lon="1.7329873144626617431640625">
        <ele>2238.39990234375</ele>
        <time>2020-10-24T10:30:30.000Z</time>
      </trkpt>
      <trkpt lat="42.19044431112706661224365234375" lon="1.73296426422894001007080078125">
        <ele>2239.39990234375</ele>
        <time>2020-10-24T10:30:38.000Z</time>
      </trkpt>
      <trkpt lat="42.19044447876513004302978515625" lon="1.73293811269104480743408203125">
        <ele>2240.60009765625</ele>
        <time>2020-10-24T10:30:43.000Z</time>
      </trkpt>
      <trkpt lat="42.1904807724058628082275390625" lon="1.73286988399922847747802734375">
        <ele>2241.60009765625</ele>
        <time>2020-10-24T10:30:48.000Z</time>
      </trkpt>
      <trkpt lat="42.1904975362122058868408203125" lon="1.7328426428139209747314453125">
        <ele>2242</ele>
        <time>2020-10-24T10:30:50.000Z</time>
      </trkpt>
      <trkpt lat="42.1905054152011871337890625" lon="1.73282629810273647308349609375">
        <ele>2242.199951171875</ele>
        <time>2020-10-24T10:30:51.000Z</time>
      </trkpt>
      <trkpt lat="42.1905216760933399200439453125" lon="1.73279494978487491607666015625">
        <ele>2242.39990234375</ele>
        <time>2020-10-24T10:30:53.000Z</time>
      </trkpt>
      <trkpt lat="42.19053014181554317474365234375" lon="1.73278271220624446868896484375">
        <ele>2242.60009765625</ele>
        <time>2020-10-24T10:30:55.000Z</time>
      </trkpt>
      <trkpt lat="42.1905310638248920440673828125" lon="1.7327765934169292449951171875">
        <ele>2242.60009765625</ele>
        <time>2020-10-24T10:30:56.000Z</time>
      </trkpt>
      <trkpt lat="42.19052829779684543609619140625" lon="1.73276376910507678985595703125">
        <ele>2242.800048828125</ele>
        <time>2020-10-24T10:30:59.000Z</time>
      </trkpt>
      <trkpt lat="42.19052896834909915924072265625" lon="1.73275060951709747314453125">
        <ele>2243</ele>
        <time>2020-10-24T10:31:01.000Z</time>
      </trkpt>
      <trkpt lat="42.19053701497614383697509765625" lon="1.73273644410073757171630859375">
        <ele>2243</ele>
        <time>2020-10-24T10:31:03.000Z</time>
      </trkpt>
      <trkpt lat="42.19053751789033412933349609375" lon="1.73273585736751556396484375">
        <ele>2243.39990234375</ele>
        <time>2020-10-24T10:31:06.000Z</time>
      </trkpt>
      <trkpt lat="42.190541289746761322021484375" lon="1.73272437416017055511474609375">
        <ele>2243.60009765625</ele>
        <time>2020-10-24T10:31:10.000Z</time>
      </trkpt>
      <trkpt lat="42.1905632503330707550048828125" lon="1.7327030003070831298828125">
        <ele>2244.60009765625</ele>
        <time>2020-10-24T10:31:16.000Z</time>
      </trkpt>
      <trkpt lat="42.1905676089227199554443359375" lon="1.7326988093554973602294921875">
        <ele>2244.800048828125</ele>
        <time>2020-10-24T10:31:17.000Z</time>
      </trkpt>
      <trkpt lat="42.190597616136074066162109375" lon="1.73270308412611484527587890625">
        <ele>2246</ele>
        <time>2020-10-24T10:31:23.000Z</time>
      </trkpt>
      <trkpt lat="42.1905992925167083740234375" lon="1.732706688344478607177734375">
        <ele>2246.199951171875</ele>
        <time>2020-10-24T10:31:24.000Z</time>
      </trkpt>
      <trkpt lat="42.1906034834682941436767578125" lon="1.7327286489307880401611328125">
        <ele>2247.199951171875</ele>
        <time>2020-10-24T10:31:28.000Z</time>
      </trkpt>
      <trkpt lat="42.19060599803924560546875" lon="1.73277148045599460601806640625">
        <ele>2247.800048828125</ele>
        <time>2020-10-24T10:31:31.000Z</time>
      </trkpt>
      <trkpt lat="42.19061396084725856781005859375" lon="1.732793860137462615966796875">
        <ele>2248.39990234375</ele>
        <time>2020-10-24T10:31:34.000Z</time>
      </trkpt>
      <trkpt lat="42.19063541851937770843505859375" lon="1.73282680101692676544189453125">
        <ele>2249.39990234375</ele>
        <time>2020-10-24T10:31:39.000Z</time>
      </trkpt>
      <trkpt lat="42.1906484104692935943603515625" lon="1.73282177187502384185791015625">
        <ele>2249.800048828125</ele>
        <time>2020-10-24T10:31:41.000Z</time>
      </trkpt>
      <trkpt lat="42.19066089950501918792724609375" lon="1.73281875438988208770751953125">
        <ele>2250.60009765625</ele>
        <time>2020-10-24T10:31:44.000Z</time>
      </trkpt>
      <trkpt lat="42.19065955840051174163818359375" lon="1.732810623943805694580078125">
        <ele>2251</ele>
        <time>2020-10-24T10:31:47.000Z</time>
      </trkpt>
      <trkpt lat="42.190667688846588134765625" lon="1.73281774856150150299072265625">
        <ele>2251.39990234375</ele>
        <time>2020-10-24T10:31:55.000Z</time>
      </trkpt>
      <trkpt lat="42.190667688846588134765625" lon="1.73281774856150150299072265625">
        <ele>2251.60009765625</ele>
        <time>2020-10-24T10:32:00.000Z</time>
      </trkpt>
      <trkpt lat="42.190667688846588134765625" lon="1.73281766474246978759765625">
        <ele>2251.60009765625</ele>
        <time>2020-10-24T10:32:05.000Z</time>
      </trkpt>
      <trkpt lat="42.19066324643790721893310546875" lon="1.73281707800924777984619140625">
        <ele>2251.60009765625</ele>
        <time>2020-10-24T10:32:19.000Z</time>
      </trkpt>
      <trkpt lat="42.19065503217279911041259765625" lon="1.73281632363796234130859375">
        <ele>2251.199951171875</ele>
        <time>2020-10-24T10:32:42.000Z</time>
      </trkpt>
      <trkpt lat="42.1906510926783084869384765625" lon="1.7328094504773616790771484375">
        <ele>2251.39990234375</ele>
        <time>2020-10-24T10:32:50.000Z</time>
      </trkpt>
      <trkpt lat="42.19064556062221527099609375" lon="1.73280819319188594818115234375">
        <ele>2250.800048828125</ele>
        <time>2020-10-24T10:32:59.000Z</time>
      </trkpt>
      <trkpt lat="42.1906453929841518402099609375" lon="1.73280819319188594818115234375">
        <ele>2250.60009765625</ele>
        <time>2020-10-24T10:33:02.000Z</time>
      </trkpt>
      <trkpt lat="42.1906453929841518402099609375" lon="1.73280819319188594818115234375">
        <ele>2250.60009765625</ele>
        <time>2020-10-24T10:33:03.000Z</time>
      </trkpt>
      <trkpt lat="42.1906453929841518402099609375" lon="1.73281230032444000244140625">
        <ele>2250.60009765625</ele>
        <time>2020-10-24T10:33:08.000Z</time>
      </trkpt>
      <trkpt lat="42.1906453929841518402099609375" lon="1.7328129708766937255859375">
        <ele>2250.60009765625</ele>
        <time>2020-10-24T10:33:09.000Z</time>
      </trkpt>
      <trkpt lat="42.1906457282602787017822265625" lon="1.73281372524797916412353515625">
        <ele>2250.39990234375</ele>
        <time>2020-10-24T10:33:22.000Z</time>
      </trkpt>
      <trkpt lat="42.19064514152705669403076171875" lon="1.73281271941959857940673828125">
        <ele>2250.800048828125</ele>
        <time>2020-10-24T10:33:31.000Z</time>
      </trkpt>
      <trkpt lat="42.1906319819390773773193359375" lon="1.73281774856150150299072265625">
        <ele>2251.199951171875</ele>
        <time>2020-10-24T10:33:55.000Z</time>
      </trkpt>
      <trkpt lat="42.19063407741487026214599609375" lon="1.732820682227611541748046875">
        <ele>2251.60009765625</ele>
        <time>2020-10-24T10:34:30.000Z</time>
      </trkpt>
      <trkpt lat="42.19063474796712398529052734375" lon="1.73282143659889698028564453125">
        <ele>2252</ele>
        <time>2020-10-24T10:34:35.000Z</time>
      </trkpt>
      <trkpt lat="42.1906353347003459930419921875" lon="1.7328215204179286956787109375">
        <ele>2252</ele>
        <time>2020-10-24T10:34:37.000Z</time>
      </trkpt>
      <trkpt lat="42.1906356699764728546142578125" lon="1.73282160423696041107177734375">
        <ele>2252</ele>
        <time>2020-10-24T10:34:38.000Z</time>
      </trkpt>
      <trkpt lat="42.19063592143356800079345703125" lon="1.73282160423696041107177734375">
        <ele>2252</ele>
        <time>2020-10-24T10:34:39.000Z</time>
      </trkpt>
      <trkpt lat="42.1906376816332340240478515625" lon="1.73282168805599212646484375">
        <ele>2252</ele>
        <time>2020-10-24T10:34:41.000Z</time>
      </trkpt>
      <trkpt lat="42.19064279459416866302490234375" lon="1.73282076604664325714111328125">
        <ele>2250.60009765625</ele>
        <time>2020-10-24T10:34:50.000Z</time>
      </trkpt>
      <trkpt lat="42.1906440518796443939208984375" lon="1.73282034695148468017578125">
        <ele>2251.199951171875</ele>
        <time>2020-10-24T10:34:57.000Z</time>
      </trkpt>
      <trkpt lat="42.1906443871557712554931640625" lon="1.73282034695148468017578125">
        <ele>2251.39990234375</ele>
        <time>2020-10-24T10:35:01.000Z</time>
      </trkpt>
      <trkpt lat="42.19064564444124698638916015625" lon="1.732830740511417388916015625">
        <ele>2251.800048828125</ele>
        <time>2020-10-24T10:35:05.000Z</time>
      </trkpt>
      <trkpt lat="42.1906661801040172576904296875" lon="1.7328894138336181640625">
        <ele>2252.39990234375</ele>
        <time>2020-10-24T10:35:09.000Z</time>
      </trkpt>
      <trkpt lat="42.19067699275910854339599609375" lon="1.73294045962393283843994140625">
        <ele>2252.60009765625</ele>
        <time>2020-10-24T10:35:12.000Z</time>
      </trkpt>
      <trkpt lat="42.19067648984491825103759765625" lon="1.7329578101634979248046875">
        <ele>2252.800048828125</ele>
        <time>2020-10-24T10:35:13.000Z</time>
      </trkpt>
      <trkpt lat="42.1906702034175395965576171875" lon="1.733003742992877960205078125">
        <ele>2253.39990234375</ele>
        <time>2020-10-24T10:35:17.000Z</time>
      </trkpt>
      <trkpt lat="42.19066609628498554229736328125" lon="1.73303165473043918609619140625">
        <ele>2253.800048828125</ele>
        <time>2020-10-24T10:35:23.000Z</time>
      </trkpt>
      <trkpt lat="42.1906698681414127349853515625" lon="1.733039282262325286865234375">
        <ele>2254</ele>
        <time>2020-10-24T10:35:25.000Z</time>
      </trkpt>
      <trkpt lat="42.190687470138072967529296875" lon="1.73306920565664768218994140625">
        <ele>2255</ele>
        <time>2020-10-24T10:35:31.000Z</time>
      </trkpt>
      <trkpt lat="42.19069442711770534515380859375" lon="1.7330830357968807220458984375">
        <ele>2255.60009765625</ele>
        <time>2020-10-24T10:35:33.000Z</time>
      </trkpt>
      <trkpt lat="42.19071622006595134735107421875" lon="1.73310332000255584716796875">
        <ele>2256.199951171875</ele>
        <time>2020-10-24T10:35:38.000Z</time>
      </trkpt>
      <trkpt lat="42.19072359614074230194091796875" lon="1.7331091873347759246826171875">
        <ele>2256.60009765625</ele>
        <time>2020-10-24T10:35:40.000Z</time>
      </trkpt>
      <trkpt lat="42.190729714930057525634765625" lon="1.7331122048199176788330078125">
        <ele>2257.199951171875</ele>
        <time>2020-10-24T10:35:42.000Z</time>
      </trkpt>
      <trkpt lat="42.19075611792504787445068359375" lon="1.73313081264495849609375">
        <ele>2257.800048828125</ele>
        <time>2020-10-24T10:35:47.000Z</time>
      </trkpt>
      <trkpt lat="42.19077187590301036834716796875" lon="1.7331474088132381439208984375">
        <ele>2258.39990234375</ele>
        <time>2020-10-24T10:35:50.000Z</time>
      </trkpt>
      <trkpt lat="42.1907808445394039154052734375" lon="1.73317439854145050048828125">
        <ele>2259.39990234375</ele>
        <time>2020-10-24T10:35:54.000Z</time>
      </trkpt>
      <trkpt lat="42.190788052976131439208984375" lon="1.7331829480826854705810546875">
        <ele>2259.60009765625</ele>
        <time>2020-10-24T10:35:56.000Z</time>
      </trkpt>
      <trkpt lat="42.19080389477312564849853515625" lon="1.73321387730538845062255859375">
        <ele>2260.60009765625</ele>
        <time>2020-10-24T10:36:02.000Z</time>
      </trkpt>
      <trkpt lat="42.19080473296344280242919921875" lon="1.73322058282792568206787109375">
        <ele>2260.800048828125</ele>
        <time>2020-10-24T10:36:03.000Z</time>
      </trkpt>
      <trkpt lat="42.19080959446728229522705078125" lon="1.7332287132740020751953125">
        <ele>2261.199951171875</ele>
        <time>2020-10-24T10:36:05.000Z</time>
      </trkpt>
      <trkpt lat="42.1908120252192020416259765625" lon="1.73322779126465320587158203125">
        <ele>2261.39990234375</ele>
        <time>2020-10-24T10:36:06.000Z</time>
      </trkpt>
      <trkpt lat="42.19081512652337551116943359375" lon="1.73323483206331729888916015625">
        <ele>2261.60009765625</ele>
        <time>2020-10-24T10:36:08.000Z</time>
      </trkpt>
      <trkpt lat="42.1908240951597690582275390625" lon="1.733256541192531585693359375">
        <ele>2262.39990234375</ele>
        <time>2020-10-24T10:36:11.000Z</time>
      </trkpt>
      <trkpt lat="42.19082786701619625091552734375" lon="1.73326232470571994781494140625">
        <ele>2262.60009765625</ele>
        <time>2020-10-24T10:36:12.000Z</time>
      </trkpt>
      <trkpt lat="42.19082937575876712799072265625" lon="1.73327053897082805633544921875">
        <ele>2262.800048828125</ele>
        <time>2020-10-24T10:36:13.000Z</time>
      </trkpt>
      <trkpt lat="42.1908197365701198577880859375" lon="1.73330591060221195220947265625">
        <ele>2263.199951171875</ele>
        <time>2020-10-24T10:36:17.000Z</time>
      </trkpt>
      <trkpt lat="42.19082384370267391204833984375" lon="1.733318902552127838134765625">
        <ele>2263.60009765625</ele>
        <time>2020-10-24T10:36:19.000Z</time>
      </trkpt>
      <trkpt lat="42.19082686118781566619873046875" lon="1.73332183621823787689208984375">
        <ele>2263.800048828125</ele>
        <time>2020-10-24T10:36:20.000Z</time>
      </trkpt>
      <trkpt lat="42.1908267773687839508056640625" lon="1.73333306796848773956298828125">
        <ele>2264.199951171875</ele>
        <time>2020-10-24T10:36:23.000Z</time>
      </trkpt>
      <trkpt lat="42.1908358298242092132568359375" lon="1.7333629913628101348876953125">
        <ele>2265</ele>
        <time>2020-10-24T10:36:27.000Z</time>
      </trkpt>
      <trkpt lat="42.19084010459482669830322265625" lon="1.73338520340621471405029296875">
        <ele>2265.800048828125</ele>
        <time>2020-10-24T10:36:32.000Z</time>
      </trkpt>
      <trkpt lat="42.1908432058990001678466796875" lon="1.733386628329753875732421875">
        <ele>2266.199951171875</ele>
        <time>2020-10-24T10:36:35.000Z</time>
      </trkpt>
      <trkpt lat="42.19086281955242156982421875" lon="1.7333884723484516143798828125">
        <ele>2267.199951171875</ele>
        <time>2020-10-24T10:36:40.000Z</time>
      </trkpt>
      <trkpt lat="42.19086684286594390869140625" lon="1.7333924956619739532470703125">
        <ele>2267.199951171875</ele>
        <time>2020-10-24T10:36:41.000Z</time>
      </trkpt>
      <trkpt lat="42.190876565873622894287109375" lon="1.73340733163058757781982421875">
        <ele>2268</ele>
        <time>2020-10-24T10:36:45.000Z</time>
      </trkpt>
      <trkpt lat="42.19087799079716205596923828125" lon="1.733410768210887908935546875">
        <ele>2268.199951171875</ele>
        <time>2020-10-24T10:36:47.000Z</time>
      </trkpt>
      <trkpt lat="42.19088318757712841033935546875" lon="1.73341420479118824005126953125">
        <ele>2268.39990234375</ele>
        <time>2020-10-24T10:36:48.000Z</time>
      </trkpt>
      <trkpt lat="42.19088218174874782562255859375" lon="1.7334568686783313751220703125">
        <ele>2269.60009765625</ele>
        <time>2020-10-24T10:36:55.000Z</time>
      </trkpt>
      <trkpt lat="42.1908723749220371246337890625" lon="1.73348159529268741607666015625">
        <ele>2270.60009765625</ele>
        <time>2020-10-24T10:36:59.000Z</time>
      </trkpt>
      <trkpt lat="42.19087799079716205596923828125" lon="1.73348478041589260101318359375">
        <ele>2271.39990234375</ele>
        <time>2020-10-24T10:37:04.000Z</time>
      </trkpt>
      <trkpt lat="42.1908837743103504180908203125" lon="1.73348830081522464752197265625">
        <ele>2271.800048828125</ele>
        <time>2020-10-24T10:37:06.000Z</time>
      </trkpt>
      <trkpt lat="42.19090263359248638153076171875" lon="1.73349567689001560211181640625">
        <ele>2272.39990234375</ele>
        <time>2020-10-24T10:37:10.000Z</time>
      </trkpt>
      <trkpt lat="42.19089861027896404266357421875" lon="1.73350959084928035736083984375">
        <ele>2272.800048828125</ele>
        <time>2020-10-24T10:37:12.000Z</time>
      </trkpt>
      <trkpt lat="42.19089156948029994964599609375" lon="1.73352736048400402069091796875">
        <ele>2273.800048828125</ele>
        <time>2020-10-24T10:37:16.000Z</time>
      </trkpt>
      <trkpt lat="42.19089089892804622650146484375" lon="1.733531467616558074951171875">
        <ele>2273.800048828125</ele>
        <time>2020-10-24T10:37:17.000Z</time>
      </trkpt>
      <trkpt lat="42.19089056365191936492919921875" lon="1.7335339821875095367431640625">
        <ele>2274</ele>
        <time>2020-10-24T10:37:18.000Z</time>
      </trkpt>
      <trkpt lat="42.19089056365191936492919921875" lon="1.7335339821875095367431640625">
        <ele>2275.199951171875</ele>
        <time>2020-10-24T10:37:30.000Z</time>
      </trkpt>
      <trkpt lat="42.1908914856612682342529296875" lon="1.7335356585681438446044921875">
        <ele>2276.199951171875</ele>
        <time>2020-10-24T10:37:38.000Z</time>
      </trkpt>
      <trkpt lat="42.19089173711836338043212890625" lon="1.7335363291203975677490234375">
        <ele>2276.199951171875</ele>
        <time>2020-10-24T10:37:39.000Z</time>
      </trkpt>
      <trkpt lat="42.19089559279382228851318359375" lon="1.73353909514844417572021484375">
        <ele>2277.199951171875</ele>
        <time>2020-10-24T10:37:45.000Z</time>
      </trkpt>
      <trkpt lat="42.1909023821353912353515625" lon="1.73354948870837688446044921875">
        <ele>2278.39990234375</ele>
        <time>2020-10-24T10:37:52.000Z</time>
      </trkpt>
      <trkpt lat="42.19090414233505725860595703125" lon="1.73355937935411930084228515625">
        <ele>2279.199951171875</ele>
        <time>2020-10-24T10:37:55.000Z</time>
      </trkpt>
      <trkpt lat="42.19090464524924755096435546875" lon="1.733566336333751678466796875">
        <ele>2279.39990234375</ele>
        <time>2020-10-24T10:37:57.000Z</time>
      </trkpt>
      <trkpt lat="42.19091956503689289093017578125" lon="1.7335836030542850494384765625">
        <ele>2280.60009765625</ele>
        <time>2020-10-24T10:38:06.000Z</time>
      </trkpt>
      <trkpt lat="42.1909260191023349761962890625" lon="1.73359139822423458099365234375">
        <ele>2281.199951171875</ele>
        <time>2020-10-24T10:38:09.000Z</time>
      </trkpt>
      <trkpt lat="42.1909310482442378997802734375" lon="1.73359676264226436614990234375">
        <ele>2281.60009765625</ele>
        <time>2020-10-24T10:38:12.000Z</time>
      </trkpt>
      <trkpt lat="42.19094135798513889312744140625" lon="1.73361503519117832183837890625">
        <ele>2283</ele>
        <time>2020-10-24T10:38:19.000Z</time>
      </trkpt>
      <trkpt lat="42.1909427829086780548095703125" lon="1.7336157895624637603759765625">
        <ele>2283.199951171875</ele>
        <time>2020-10-24T10:38:20.000Z</time>
      </trkpt>
      <trkpt lat="42.19094973988831043243408203125" lon="1.73361972905695438385009765625">
        <ele>2284</ele>
        <time>2020-10-24T10:38:23.000Z</time>
      </trkpt>
      <trkpt lat="42.19096985645592212677001953125" lon="1.73363213427364826202392578125">
        <ele>2285.39990234375</ele>
        <time>2020-10-24T10:38:34.000Z</time>
      </trkpt>
      <trkpt lat="42.19098150730133056640625" lon="1.73364856280386447906494140625">
        <ele>2286.60009765625</ele>
        <time>2020-10-24T10:38:37.000Z</time>
      </trkpt>
      <trkpt lat="42.1910095028579235076904296875" lon="1.73367840237915515899658203125">
        <ele>2287.800048828125</ele>
        <time>2020-10-24T10:38:41.000Z</time>
      </trkpt>
      <trkpt lat="42.19101612456142902374267578125" lon="1.73369340598583221435546875">
        <ele>2288.60009765625</ele>
        <time>2020-10-24T10:38:43.000Z</time>
      </trkpt>
      <trkpt lat="42.19101914204657077789306640625" lon="1.733705140650272369384765625">
        <ele>2289</ele>
        <time>2020-10-24T10:38:44.000Z</time>
      </trkpt>
      <trkpt lat="42.1910209022462368011474609375" lon="1.73372936435043811798095703125">
        <ele>2290</ele>
        <time>2020-10-24T10:38:48.000Z</time>
      </trkpt>
      <trkpt lat="42.1910230815410614013671875" lon="1.73373162746429443359375">
        <ele>2290.199951171875</ele>
        <time>2020-10-24T10:38:49.000Z</time>
      </trkpt>
      <trkpt lat="42.19102601520717144012451171875" lon="1.7337324656546115875244140625">
        <ele>2290.39990234375</ele>
        <time>2020-10-24T10:38:51.000Z</time>
      </trkpt>
      <trkpt lat="42.19102601520717144012451171875" lon="1.7337324656546115875244140625">
        <ele>2290.60009765625</ele>
        <time>2020-10-24T10:38:58.000Z</time>
      </trkpt>
      <trkpt lat="42.19102601520717144012451171875" lon="1.7337324656546115875244140625">
        <ele>2290.60009765625</ele>
        <time>2020-10-24T10:38:59.000Z</time>
      </trkpt>
      <trkpt lat="42.19102601520717144012451171875" lon="1.7337314598262310028076171875">
        <ele>2290.60009765625</ele>
        <time>2020-10-24T10:39:02.000Z</time>
      </trkpt>
      <trkpt lat="42.19102601520717144012451171875" lon="1.7337314598262310028076171875">
        <ele>2291</ele>
        <time>2020-10-24T10:39:05.000Z</time>
      </trkpt>
      <trkpt lat="42.19102467410266399383544921875" lon="1.7337314598262310028076171875">
        <ele>2291.199951171875</ele>
        <time>2020-10-24T10:39:08.000Z</time>
      </trkpt>
      <trkpt lat="42.19102350063621997833251953125" lon="1.7337314598262310028076171875">
        <ele>2291.199951171875</ele>
        <time>2020-10-24T10:39:09.000Z</time>
      </trkpt>
      <trkpt lat="42.19102106988430023193359375" lon="1.7337329685688018798828125">
        <ele>2290.800048828125</ele>
        <time>2020-10-24T10:39:15.000Z</time>
      </trkpt>
      <trkpt lat="42.19101830385625362396240234375" lon="1.73374428413808345794677734375">
        <ele>2290.800048828125</ele>
        <time>2020-10-24T10:39:25.000Z</time>
      </trkpt>
      <trkpt lat="42.19101629219949245452880859375" lon="1.7337515763938426971435546875">
        <ele>2290.60009765625</ele>
        <time>2020-10-24T10:39:32.000Z</time>
      </trkpt>
      <trkpt lat="42.19101025722920894622802734375" lon="1.733756102621555328369140625">
        <ele>2290.800048828125</ele>
        <time>2020-10-24T10:39:38.000Z</time>
      </trkpt>
      <trkpt lat="42.1910083293914794921875" lon="1.733756102621555328369140625">
        <ele>2290.800048828125</ele>
        <time>2020-10-24T10:39:45.000Z</time>
      </trkpt>
      <trkpt lat="42.19100824557244777679443359375" lon="1.733756102621555328369140625">
        <ele>2290.800048828125</ele>
        <time>2020-10-24T10:39:49.000Z</time>
      </trkpt>
      <trkpt lat="42.1910128556191921234130859375" lon="1.7337529174983501434326171875">
        <ele>2290.800048828125</ele>
        <time>2020-10-24T10:40:01.000Z</time>
      </trkpt>
      <trkpt lat="42.19102400355041027069091796875" lon="1.73375283367931842803955078125">
        <ele>2291</ele>
        <time>2020-10-24T10:40:13.000Z</time>
      </trkpt>
      <trkpt lat="42.19102551229298114776611328125" lon="1.73375719226896762847900390625">
        <ele>2290.60009765625</ele>
        <time>2020-10-24T10:40:23.000Z</time>
      </trkpt>
      <trkpt lat="42.19102903269231319427490234375" lon="1.7337589524686336517333984375">
        <ele>2290.800048828125</ele>
        <time>2020-10-24T10:40:27.000Z</time>
      </trkpt>
      <trkpt lat="42.1910292841494083404541015625" lon="1.73376381397247314453125">
        <ele>2290.199951171875</ele>
        <time>2020-10-24T10:40:44.000Z</time>
      </trkpt>
      <trkpt lat="42.191030122339725494384765625" lon="1.733751408755779266357421875">
        <ele>2290.199951171875</ele>
        <time>2020-10-24T10:41:34.000Z</time>
      </trkpt>
      <trkpt lat="42.1910172142088413238525390625" lon="1.73377160914242267608642578125">
        <ele>2291</ele>
        <time>2020-10-24T10:53:20.000Z</time>
      </trkpt>
      <trkpt lat="42.19096516259014606475830078125" lon="1.7338134348392486572265625">
        <ele>2290.60009765625</ele>
        <time>2020-10-24T10:53:24.000Z</time>
      </trkpt>
      <trkpt lat="42.19093364663422107696533203125" lon="1.73383749090135097503662109375">
        <ele>2290</ele>
        <time>2020-10-24T10:53:26.000Z</time>
      </trkpt>
      <trkpt lat="42.1909085847437381744384765625" lon="1.73386330716311931610107421875">
        <ele>2289.60009765625</ele>
        <time>2020-10-24T10:53:28.000Z</time>
      </trkpt>
      <trkpt lat="42.19087623059749603271484375" lon="1.73389398492872714996337890625">
        <ele>2289.39990234375</ele>
        <time>2020-10-24T10:53:30.000Z</time>
      </trkpt>
      <trkpt lat="42.1908465586602687835693359375" lon="1.73391158692538738250732421875">
        <ele>2289.39990234375</ele>
        <time>2020-10-24T10:53:33.000Z</time>
      </trkpt>
      <trkpt lat="42.1908039785921573638916015625" lon="1.7339353077113628387451171875">
        <ele>2289.199951171875</ele>
        <time>2020-10-24T10:53:38.000Z</time>
      </trkpt>
      <trkpt lat="42.19079551286995410919189453125" lon="1.73394528217613697052001953125">
        <ele>2289.199951171875</ele>
        <time>2020-10-24T10:53:40.000Z</time>
      </trkpt>
      <trkpt lat="42.1907870471477508544921875" lon="1.73395483754575252532958984375">
        <ele>2289</ele>
        <time>2020-10-24T10:53:42.000Z</time>
      </trkpt>
      <trkpt lat="42.19073717482388019561767578125" lon="1.733998171985149383544921875">
        <ele>2288.199951171875</ele>
        <time>2020-10-24T10:53:49.000Z</time>
      </trkpt>
      <trkpt lat="42.190728373825550079345703125" lon="1.73400186002254486083984375">
        <ele>2288</ele>
        <time>2020-10-24T10:53:50.000Z</time>
      </trkpt>
      <trkpt lat="42.19070549122989177703857421875" lon="1.7340011894702911376953125">
        <ele>2287.800048828125</ele>
        <time>2020-10-24T10:53:53.000Z</time>
      </trkpt>
      <trkpt lat="42.19066592864692211151123046875" lon="1.7340094037353992462158203125">
        <ele>2287.39990234375</ele>
        <time>2020-10-24T10:53:58.000Z</time>
      </trkpt>
      <trkpt lat="42.1906541101634502410888671875" lon="1.734006218612194061279296875">
        <ele>2287.199951171875</ele>
        <time>2020-10-24T10:54:00.000Z</time>
      </trkpt>
      <trkpt lat="42.190649248659610748291015625" lon="1.73401099629700183868408203125">
        <ele>2287.199951171875</ele>
        <time>2020-10-24T10:54:01.000Z</time>
      </trkpt>
      <trkpt lat="42.19061362557113170623779296875" lon="1.73402725718915462493896484375">
        <ele>2287</ele>
        <time>2020-10-24T10:54:06.000Z</time>
      </trkpt>
      <trkpt lat="42.19059686176478862762451171875" lon="1.73403161577880382537841796875">
        <ele>2287</ele>
        <time>2020-10-24T10:54:09.000Z</time>
      </trkpt>
      <trkpt lat="42.1905179880559444427490234375" lon="1.73406891524791717529296875">
        <ele>2286.60009765625</ele>
        <time>2020-10-24T10:54:19.000Z</time>
      </trkpt>
      <trkpt lat="42.19048068858683109283447265625" lon="1.7340575158596038818359375">
        <ele>2287.60009765625</ele>
        <time>2020-10-24T10:54:27.000Z</time>
      </trkpt>
      <trkpt lat="42.19047926366329193115234375" lon="1.7340560071170330047607421875">
        <ele>2287.800048828125</ele>
        <time>2020-10-24T10:54:28.000Z</time>
      </trkpt>
      <trkpt lat="42.19046878628432750701904296875" lon="1.734053827822208404541015625">
        <ele>2288</ele>
        <time>2020-10-24T10:54:30.000Z</time>
      </trkpt>
      <trkpt lat="42.19043056480586528778076171875" lon="1.73408224247395992279052734375">
        <ele>2288.60009765625</ele>
        <time>2020-10-24T10:54:36.000Z</time>
      </trkpt>
      <trkpt lat="42.19039611518383026123046875" lon="1.734102107584476470947265625">
        <ele>2289</ele>
        <time>2020-10-24T10:54:41.000Z</time>
      </trkpt>
      <trkpt lat="42.19038111157715320587158203125" lon="1.7341123335063457489013671875">
        <ele>2289.39990234375</ele>
        <time>2020-10-24T10:54:43.000Z</time>
      </trkpt>
      <trkpt lat="42.190353535115718841552734375" lon="1.73412390053272247314453125">
        <ele>2289.800048828125</ele>
        <time>2020-10-24T10:54:48.000Z</time>
      </trkpt>
      <trkpt lat="42.190339453518390655517578125" lon="1.73413454554975032806396484375">
        <ele>2289.800048828125</ele>
        <time>2020-10-24T10:54:50.000Z</time>
      </trkpt>
      <trkpt lat="42.1903283894062042236328125" lon="1.73414913006126880645751953125">
        <ele>2290</ele>
        <time>2020-10-24T10:54:53.000Z</time>
      </trkpt>
      <trkpt lat="42.19032495282590389251708984375" lon="1.734160445630550384521484375">
        <ele>2289.800048828125</ele>
        <time>2020-10-24T10:54:55.000Z</time>
      </trkpt>
      <trkpt lat="42.19030349515378475189208984375" lon="1.73418651334941387176513671875">
        <ele>2289.800048828125</ele>
        <time>2020-10-24T10:55:02.000Z</time>
      </trkpt>
      <trkpt lat="42.1902826242148876190185546875" lon="1.73421786166727542877197265625">
        <ele>2290.199951171875</ele>
        <time>2020-10-24T10:55:11.000Z</time>
      </trkpt>
      <trkpt lat="42.1902806125581264495849609375" lon="1.734222136437892913818359375">
        <ele>2290.199951171875</ele>
        <time>2020-10-24T10:55:12.000Z</time>
      </trkpt>
      <trkpt lat="42.190270721912384033203125" lon="1.73423831351101398468017578125">
        <ele>2290</ele>
        <time>2020-10-24T10:55:18.000Z</time>
      </trkpt>
      <trkpt lat="42.190249264240264892578125" lon="1.73426245339214801788330078125">
        <ele>2289.800048828125</ele>
        <time>2020-10-24T10:55:20.000Z</time>
      </trkpt>
      <trkpt lat="42.19022084958851337432861328125" lon="1.7343044467270374298095703125">
        <ele>2289</ele>
        <time>2020-10-24T10:55:25.000Z</time>
      </trkpt>
      <trkpt lat="42.1902165748178958892822265625" lon="1.73431157134473323822021484375">
        <ele>2288.800048828125</ele>
        <time>2020-10-24T10:55:27.000Z</time>
      </trkpt>
      <trkpt lat="42.19020576216280460357666015625" lon="1.734347529709339141845703125">
        <ele>2288.60009765625</ele>
        <time>2020-10-24T10:55:34.000Z</time>
      </trkpt>
      <trkpt lat="42.19020257703959941864013671875" lon="1.734354905784130096435546875">
        <ele>2288.60009765625</ele>
        <time>2020-10-24T10:55:35.000Z</time>
      </trkpt>
      <trkpt lat="42.19018229283392429351806640625" lon="1.734425984323024749755859375">
        <ele>2288.199951171875</ele>
        <time>2020-10-24T10:55:43.000Z</time>
      </trkpt>
      <trkpt lat="42.1901620924472808837890625" lon="1.7344284988939762115478515625">
        <ele>2289</ele>
        <time>2020-10-24T10:55:48.000Z</time>
      </trkpt>
      <trkpt lat="42.190143652260303497314453125" lon="1.73444065265357494354248046875">
        <ele>2290.199951171875</ele>
        <time>2020-10-24T10:55:53.000Z</time>
      </trkpt>
      <trkpt lat="42.190141975879669189453125" lon="1.7344439215958118438720703125">
        <ele>2290.39990234375</ele>
        <time>2020-10-24T10:55:54.000Z</time>
      </trkpt>
      <trkpt lat="42.1901387907564640045166015625" lon="1.734449453651905059814453125">
        <ele>2290.60009765625</ele>
        <time>2020-10-24T10:55:57.000Z</time>
      </trkpt>
      <trkpt lat="42.19012680463492870330810546875" lon="1.73447669483721256256103515625">
        <ele>2290.800048828125</ele>
        <time>2020-10-24T10:56:02.000Z</time>
      </trkpt>
      <trkpt lat="42.190120182931423187255859375" lon="1.73448826186358928680419921875">
        <ele>2290.800048828125</ele>
        <time>2020-10-24T10:56:05.000Z</time>
      </trkpt>
      <trkpt lat="42.19012320041656494140625" lon="1.73448842950165271759033203125">
        <ele>2290.800048828125</ele>
        <time>2020-10-24T10:56:07.000Z</time>
      </trkpt>
      <trkpt lat="42.19012194313108921051025390625" lon="1.7344871722161769866943359375">
        <ele>2290.800048828125</ele>
        <time>2020-10-24T10:56:08.000Z</time>
      </trkpt>
      <trkpt lat="42.1901191771030426025390625" lon="1.7344925366342067718505859375">
        <ele>2290.800048828125</ele>
        <time>2020-10-24T10:56:11.000Z</time>
      </trkpt>
      <trkpt lat="42.19011314213275909423828125" lon="1.73449681140482425689697265625">
        <ele>2290.39990234375</ele>
        <time>2020-10-24T10:56:17.000Z</time>
      </trkpt>
      <trkpt lat="42.19008103944361209869384765625" lon="1.734544001519680023193359375">
        <ele>2290</ele>
        <time>2020-10-24T10:56:26.000Z</time>
      </trkpt>
      <trkpt lat="42.190051786601543426513671875" lon="1.73463846556842327117919921875">
        <ele>2289.39990234375</ele>
        <time>2020-10-24T10:56:37.000Z</time>
      </trkpt>
      <trkpt lat="42.19006075523793697357177734375" lon="1.73466830514371395111083984375">
        <ele>2289.39990234375</ele>
        <time>2020-10-24T10:56:45.000Z</time>
      </trkpt>
      <trkpt lat="42.19004751183092594146728515625" lon="1.734710298478603363037109375">
        <ele>2289.800048828125</ele>
        <time>2020-10-24T10:56:53.000Z</time>
      </trkpt>
      <trkpt lat="42.19005337916314601898193359375" lon="1.734757237136363983154296875">
        <ele>2289</ele>
        <time>2020-10-24T10:57:00.000Z</time>
      </trkpt>
      <trkpt lat="42.1900521218776702880859375" lon="1.7347688041627407073974609375">
        <ele>2288.800048828125</ele>
        <time>2020-10-24T10:57:01.000Z</time>
      </trkpt>
      <trkpt lat="42.19005019403994083404541015625" lon="1.73478380776941776275634765625">
        <ele>2288.39990234375</ele>
        <time>2020-10-24T10:57:03.000Z</time>
      </trkpt>
      <trkpt lat="42.19004667364060878753662109375" lon="1.73480384051799774169921875">
        <ele>2287.800048828125</ele>
        <time>2020-10-24T10:57:05.000Z</time>
      </trkpt>
      <trkpt lat="42.19004231505095958709716796875" lon="1.73481381498277187347412109375">
        <ele>2287.60009765625</ele>
        <time>2020-10-24T10:57:06.000Z</time>
      </trkpt>
      <trkpt lat="42.1900372020900249481201171875" lon="1.73483602702617645263671875">
        <ele>2286.800048828125</ele>
        <time>2020-10-24T10:57:09.000Z</time>
      </trkpt>
      <trkpt lat="42.19003493897616863250732421875" lon="1.73484533093869686126708984375">
        <ele>2286.39990234375</ele>
        <time>2020-10-24T10:57:10.000Z</time>
      </trkpt>
      <trkpt lat="42.1900335140526294708251953125" lon="1.7348529584705829620361328125">
        <ele>2286.199951171875</ele>
        <time>2020-10-24T10:57:11.000Z</time>
      </trkpt>
      <trkpt lat="42.1900328435003757476806640625" lon="1.734858490526676177978515625">
        <ele>2286</ele>
        <time>2020-10-24T10:57:12.000Z</time>
      </trkpt>
      <trkpt lat="42.190034687519073486328125" lon="1.73488120548427104949951171875">
        <ele>2285.800048828125</ele>
        <time>2020-10-24T10:57:14.000Z</time>
      </trkpt>
      <trkpt lat="42.19003259204328060150146484375" lon="1.7349062673747539520263671875">
        <ele>2285.39990234375</ele>
        <time>2020-10-24T10:57:16.000Z</time>
      </trkpt>
      <trkpt lat="42.19002806581556797027587890625" lon="1.73495136201381683349609375">
        <ele>2285.199951171875</ele>
        <time>2020-10-24T10:57:20.000Z</time>
      </trkpt>
      <trkpt lat="42.19002571888267993927001953125" lon="1.73498488962650299072265625">
        <ele>2285.39990234375</ele>
        <time>2020-10-24T10:57:23.000Z</time>
      </trkpt>
      <trkpt lat="42.1900107152760028839111328125" lon="1.735030151903629302978515625">
        <ele>2285.39990234375</ele>
        <time>2020-10-24T10:57:28.000Z</time>
      </trkpt>
      <trkpt lat="42.1899932809174060821533203125" lon="1.73513735644519329071044921875">
        <ele>2286</ele>
        <time>2020-10-24T10:57:37.000Z</time>
      </trkpt>
      <trkpt lat="42.1899711526930332183837890625" lon="1.7352341674268245697021484375">
        <ele>2285.60009765625</ele>
        <time>2020-10-24T10:57:45.000Z</time>
      </trkpt>
      <trkpt lat="42.18996738083660602569580078125" lon="1.73524749465286731719970703125">
        <ele>2285.60009765625</ele>
        <time>2020-10-24T10:57:46.000Z</time>
      </trkpt>
      <trkpt lat="42.1899503655731678009033203125" lon="1.73535008914768695831298828125">
        <ele>2285.60009765625</ele>
        <time>2020-10-24T10:57:53.000Z</time>
      </trkpt>
      <trkpt lat="42.18994592316448688507080078125" lon="1.735386215150356292724609375">
        <ele>2285.60009765625</ele>
        <time>2020-10-24T10:57:56.000Z</time>
      </trkpt>
      <trkpt lat="42.18994139693677425384521484375" lon="1.735397279262542724609375">
        <ele>2285.60009765625</ele>
        <time>2020-10-24T10:57:57.000Z</time>
      </trkpt>
      <trkpt lat="42.1899322606623172760009765625" lon="1.73543306998908519744873046875">
        <ele>2286.199951171875</ele>
        <time>2020-10-24T10:58:01.000Z</time>
      </trkpt>
      <trkpt lat="42.189924381673336029052734375" lon="1.73546969890594482421875">
        <ele>2286.800048828125</ele>
        <time>2020-10-24T10:58:05.000Z</time>
      </trkpt>
      <trkpt lat="42.1899071149528026580810546875" lon="1.73552007414400577545166015625">
        <ele>2287.60009765625</ele>
        <time>2020-10-24T10:58:10.000Z</time>
      </trkpt>
      <trkpt lat="42.18990015797317028045654296875" lon="1.73553801141679286956787109375">
        <ele>2287.800048828125</ele>
        <time>2020-10-24T10:58:12.000Z</time>
      </trkpt>
      <trkpt lat="42.18988783657550811767578125" lon="1.73565787263214588165283203125">
        <ele>2288</ele>
        <time>2020-10-24T10:58:21.000Z</time>
      </trkpt>
      <trkpt lat="42.1898762695491313934326171875" lon="1.7357776500284671783447265625">
        <ele>2287.800048828125</ele>
        <time>2020-10-24T10:58:29.000Z</time>
      </trkpt>
      <trkpt lat="42.18987383879721164703369140625" lon="1.73579198308289051055908203125">
        <ele>2288</ele>
        <time>2020-10-24T10:58:30.000Z</time>
      </trkpt>
      <trkpt lat="42.18987643718719482421875" lon="1.7358500696718692779541015625">
        <ele>2288.39990234375</ele>
        <time>2020-10-24T10:58:34.000Z</time>
      </trkpt>
      <trkpt lat="42.18987534753978252410888671875" lon="1.73586473800241947174072265625">
        <ele>2288.39990234375</ele>
        <time>2020-10-24T10:58:35.000Z</time>
      </trkpt>
      <trkpt lat="42.189868055284023284912109375" lon="1.73589088954031467437744140625">
        <ele>2288.39990234375</ele>
        <time>2020-10-24T10:58:37.000Z</time>
      </trkpt>
      <trkpt lat="42.1898628585040569305419921875" lon="1.735901869833469390869140625">
        <ele>2288.60009765625</ele>
        <time>2020-10-24T10:58:38.000Z</time>
      </trkpt>
      <trkpt lat="42.1898571588099002838134765625" lon="1.7359298653900623321533203125">
        <ele>2288.60009765625</ele>
        <time>2020-10-24T10:58:40.000Z</time>
      </trkpt>
      <trkpt lat="42.18986143358051776885986328125" lon="1.73597328364849090576171875">
        <ele>2289</ele>
        <time>2020-10-24T10:58:43.000Z</time>
      </trkpt>
      <trkpt lat="42.1898621879518032073974609375" lon="1.73600505106151103973388671875">
        <ele>2289.199951171875</ele>
        <time>2020-10-24T10:58:46.000Z</time>
      </trkpt>
      <trkpt lat="42.18986243940889835357666015625" lon="1.73601460643112659454345703125">
        <ele>2289.199951171875</ele>
        <time>2020-10-24T10:58:47.000Z</time>
      </trkpt>
      <trkpt lat="42.18986864201724529266357421875" lon="1.7361172847449779510498046875">
        <ele>2289.60009765625</ele>
        <time>2020-10-24T10:58:56.000Z</time>
      </trkpt>
      <trkpt lat="42.1898548118770122528076171875" lon="1.7361897043883800506591796875">
        <ele>2289.60009765625</ele>
        <time>2020-10-24T10:59:02.000Z</time>
      </trkpt>
      <trkpt lat="42.189850620925426483154296875" lon="1.7362202145159244537353515625">
        <ele>2290</ele>
        <time>2020-10-24T10:59:05.000Z</time>
      </trkpt>
      <trkpt lat="42.1898484416306018829345703125" lon="1.736223734915256500244140625">
        <ele>2290</ele>
        <time>2020-10-24T10:59:06.000Z</time>
      </trkpt>
      <trkpt lat="42.18984550796449184417724609375" lon="1.73622851260006427764892578125">
        <ele>2290</ele>
        <time>2020-10-24T10:59:07.000Z</time>
      </trkpt>
      <trkpt lat="42.18983662314713001251220703125" lon="1.73628165386617183685302734375">
        <ele>2290.39990234375</ele>
        <time>2020-10-24T10:59:14.000Z</time>
      </trkpt>
      <trkpt lat="42.18983561731874942779541015625" lon="1.7362892813980579376220703125">
        <ele>2290.39990234375</ele>
        <time>2020-10-24T10:59:15.000Z</time>
      </trkpt>
      <trkpt lat="42.1898343600332736968994140625" lon="1.7363244853913784027099609375">
        <ele>2291</ele>
        <time>2020-10-24T10:59:18.000Z</time>
      </trkpt>
      <trkpt lat="42.1898202784359455108642578125" lon="1.73641383647918701171875">
        <ele>2291.800048828125</ele>
        <time>2020-10-24T10:59:28.000Z</time>
      </trkpt>
      <trkpt lat="42.1897937916219234466552734375" lon="1.73647074960172176361083984375">
        <ele>2292</ele>
        <time>2020-10-24T10:59:34.000Z</time>
      </trkpt>
      <trkpt lat="42.18977862037718296051025390625" lon="1.73654752783477306365966796875">
        <ele>2291.800048828125</ele>
        <time>2020-10-24T10:59:41.000Z</time>
      </trkpt>
      <trkpt lat="42.18977451324462890625" lon="1.7365635372698307037353515625">
        <ele>2292</ele>
        <time>2020-10-24T10:59:43.000Z</time>
      </trkpt>
      <trkpt lat="42.1897512115538120269775390625" lon="1.7366171814501285552978515625">
        <ele>2292.60009765625</ele>
        <time>2020-10-24T10:59:48.000Z</time>
      </trkpt>
      <trkpt lat="42.18974006362259387969970703125" lon="1.7366349510848522186279296875">
        <ele>2293.199951171875</ele>
        <time>2020-10-24T10:59:51.000Z</time>
      </trkpt>
      <trkpt lat="42.1897150017321109771728515625" lon="1.7366892658174037933349609375">
        <ele>2293.800048828125</ele>
        <time>2020-10-24T10:59:58.000Z</time>
      </trkpt>
      <trkpt lat="42.1897089667618274688720703125" lon="1.73671265132725238800048828125">
        <ele>2294.199951171875</ele>
        <time>2020-10-24T11:00:02.000Z</time>
      </trkpt>
      <trkpt lat="42.18970385380089282989501953125" lon="1.73673276789486408233642578125">
        <ele>2294.60009765625</ele>
        <time>2020-10-24T11:00:05.000Z</time>
      </trkpt>
      <trkpt lat="42.18969739973545074462890625" lon="1.7367539741098880767822265625">
        <ele>2295</ele>
        <time>2020-10-24T11:00:08.000Z</time>
      </trkpt>
      <trkpt lat="42.18969563953578472137451171875" lon="1.73675841651856899261474609375">
        <ele>2295</ele>
        <time>2020-10-24T11:00:09.000Z</time>
      </trkpt>
      <trkpt lat="42.18969404697418212890625" lon="1.73676319420337677001953125">
        <ele>2295.199951171875</ele>
        <time>2020-10-24T11:00:10.000Z</time>
      </trkpt>
      <trkpt lat="42.189689017832279205322265625" lon="1.7367911897599697113037109375">
        <ele>2295.60009765625</ele>
        <time>2020-10-24T11:00:13.000Z</time>
      </trkpt>
      <trkpt lat="42.18968826346099376678466796875" lon="1.7367982305586338043212890625">
        <ele>2295.800048828125</ele>
        <time>2020-10-24T11:00:14.000Z</time>
      </trkpt>
      <trkpt lat="42.18968591652810573577880859375" lon="1.7368290759623050689697265625">
        <ele>2296.39990234375</ele>
        <time>2020-10-24T11:00:17.000Z</time>
      </trkpt>
      <trkpt lat="42.1896819770336151123046875" lon="1.7368508689105510711669921875">
        <ele>2296.60009765625</ele>
        <time>2020-10-24T11:00:20.000Z</time>
      </trkpt>
      <trkpt lat="42.1896784566342830657958984375" lon="1.73686889000236988067626953125">
        <ele>2297</ele>
        <time>2020-10-24T11:00:22.000Z</time>
      </trkpt>
      <trkpt lat="42.189672254025936126708984375" lon="1.7368776910006999969482421875">
        <ele>2297.39990234375</ele>
        <time>2020-10-24T11:00:24.000Z</time>
      </trkpt>
      <trkpt lat="42.1896580047905445098876953125" lon="1.7368803732097148895263671875">
        <ele>2298</ele>
        <time>2020-10-24T11:00:27.000Z</time>
      </trkpt>
      <trkpt lat="42.18964283354580402374267578125" lon="1.73688146285712718963623046875">
        <ele>2298.39990234375</ele>
        <time>2020-10-24T11:00:31.000Z</time>
      </trkpt>
      <trkpt lat="42.18963562510907649993896484375" lon="1.7368867434561252593994140625">
        <ele>2298.800048828125</ele>
        <time>2020-10-24T11:00:34.000Z</time>
      </trkpt>
      <trkpt lat="42.1896375529468059539794921875" lon="1.73689001239836215972900390625">
        <ele>2298.800048828125</ele>
        <time>2020-10-24T11:00:42.000Z</time>
      </trkpt>
      <trkpt lat="42.1896375529468059539794921875" lon="1.73689001239836215972900390625">
        <ele>2298.60009765625</ele>
        <time>2020-10-24T11:00:46.000Z</time>
      </trkpt>
      <trkpt lat="42.18963813968002796173095703125" lon="1.73689001239836215972900390625">
        <ele>2298.60009765625</ele>
        <time>2020-10-24T11:00:50.000Z</time>
      </trkpt>
      <trkpt lat="42.18963411636650562286376953125" lon="1.736983470618724822998046875">
        <ele>2299.60009765625</ele>
        <time>2020-10-24T11:00:59.000Z</time>
      </trkpt>
      <trkpt lat="42.18963964842259883880615234375" lon="1.7370356060564517974853515625">
        <ele>2300</ele>
        <time>2020-10-24T11:01:02.000Z</time>
      </trkpt>
      <trkpt lat="42.18963931314647197723388671875" lon="1.7370696365833282470703125">
        <ele>2300.39990234375</ele>
        <time>2020-10-24T11:01:05.000Z</time>
      </trkpt>
      <trkpt lat="42.18964098952710628509521484375" lon="1.73708799295127391815185546875">
        <ele>2300.60009765625</ele>
        <time>2020-10-24T11:01:07.000Z</time>
      </trkpt>
      <trkpt lat="42.1896358765661716461181640625" lon="1.737128309905529022216796875">
        <ele>2301.39990234375</ele>
        <time>2020-10-24T11:01:11.000Z</time>
      </trkpt>
      <trkpt lat="42.189635373651981353759765625" lon="1.73713610507547855377197265625">
        <ele>2301.60009765625</ele>
        <time>2020-10-24T11:01:12.000Z</time>
      </trkpt>
      <trkpt lat="42.1896338649094104766845703125" lon="1.7371449060738086700439453125">
        <ele>2301.800048828125</ele>
        <time>2020-10-24T11:01:13.000Z</time>
      </trkpt>
      <trkpt lat="42.18963294290006160736083984375" lon="1.73717751167714595794677734375">
        <ele>2302.199951171875</ele>
        <time>2020-10-24T11:01:17.000Z</time>
      </trkpt>
      <trkpt lat="42.18962690792977809906005859375" lon="1.7372129671275615692138671875">
        <ele>2302.800048828125</ele>
        <time>2020-10-24T11:01:20.000Z</time>
      </trkpt>
      <trkpt lat="42.18962891958653926849365234375" lon="1.7372300662100315093994140625">
        <ele>2303</ele>
        <time>2020-10-24T11:01:22.000Z</time>
      </trkpt>
      <trkpt lat="42.18962053768336772918701171875" lon="1.737263761460781097412109375">
        <ele>2303.800048828125</ele>
        <time>2020-10-24T11:01:26.000Z</time>
      </trkpt>
      <trkpt lat="42.189598493278026580810546875" lon="1.737310029566287994384765625">
        <ele>2305</ele>
        <time>2020-10-24T11:01:32.000Z</time>
      </trkpt>
      <trkpt lat="42.18959371559321880340576171875" lon="1.7373269610106945037841796875">
        <ele>2305.39990234375</ele>
        <time>2020-10-24T11:01:34.000Z</time>
      </trkpt>
      <trkpt lat="42.1895922906696796417236328125" lon="1.7373343370854854583740234375">
        <ele>2305.60009765625</ele>
        <time>2020-10-24T11:01:35.000Z</time>
      </trkpt>
      <trkpt lat="42.189579717814922332763671875" lon="1.73735721968114376068115234375">
        <ele>2306</ele>
        <time>2020-10-24T11:01:38.000Z</time>
      </trkpt>
      <trkpt lat="42.1895701624453067779541015625" lon="1.73740290105342864990234375">
        <ele>2307.199951171875</ele>
        <time>2020-10-24T11:01:44.000Z</time>
      </trkpt>
      <trkpt lat="42.18956890515983104705810546875" lon="1.73741103149950504302978515625">
        <ele>2307.39990234375</ele>
        <time>2020-10-24T11:01:45.000Z</time>
      </trkpt>
      <trkpt lat="42.18956521712243556976318359375" lon="1.73742125742137432098388671875">
        <ele>2307.60009765625</ele>
        <time>2020-10-24T11:01:46.000Z</time>
      </trkpt>
      <trkpt lat="42.1895624510943889617919921875" lon="1.73745092935860157012939453125">
        <ele>2308.39990234375</ele>
        <time>2020-10-24T11:01:50.000Z</time>
      </trkpt>
      <trkpt lat="42.18955867923796176910400390625" lon="1.73745797015726566314697265625">
        <ele>2308.60009765625</ele>
        <time>2020-10-24T11:01:51.000Z</time>
      </trkpt>
      <trkpt lat="42.1895547397434711456298828125" lon="1.73746869899332523345947265625">
        <ele>2308.800048828125</ele>
        <time>2020-10-24T11:01:53.000Z</time>
      </trkpt>
      <trkpt lat="42.189553566277027130126953125" lon="1.7374915815889835357666015625">
        <ele>2309.39990234375</ele>
        <time>2020-10-24T11:01:56.000Z</time>
      </trkpt>
      <trkpt lat="42.18955390155315399169921875" lon="1.73749887384474277496337890625">
        <ele>2309.60009765625</ele>
        <time>2020-10-24T11:01:57.000Z</time>
      </trkpt>
      <trkpt lat="42.18955331481993198394775390625" lon="1.7375173978507518768310546875">
        <ele>2309.800048828125</ele>
        <time>2020-10-24T11:01:59.000Z</time>
      </trkpt>
      <trkpt lat="42.18954560346901416778564453125" lon="1.73753994517028331756591796875">
        <ele>2310.39990234375</ele>
        <time>2020-10-24T11:02:02.000Z</time>
      </trkpt>
      <trkpt lat="42.18954325653612613677978515625" lon="1.7375469021499156951904296875">
        <ele>2310.60009765625</ele>
        <time>2020-10-24T11:02:03.000Z</time>
      </trkpt>
      <trkpt lat="42.18954241834580898284912109375" lon="1.73755444586277008056640625">
        <ele>2310.800048828125</ele>
        <time>2020-10-24T11:02:04.000Z</time>
      </trkpt>
      <trkpt lat="42.1895302645862102508544921875" lon="1.73762552440166473388671875">
        <ele>2311.60009765625</ele>
        <time>2020-10-24T11:02:12.000Z</time>
      </trkpt>
      <trkpt lat="42.18951903283596038818359375" lon="1.7376696132123470306396484375">
        <ele>2312.39990234375</ele>
        <time>2020-10-24T11:02:17.000Z</time>
      </trkpt>
      <trkpt lat="42.18951391987502574920654296875" lon="1.7377017997205257415771484375">
        <ele>2312.800048828125</ele>
        <time>2020-10-24T11:02:20.000Z</time>
      </trkpt>
      <trkpt lat="42.18950922600924968719482421875" lon="1.73775435425341129302978515625">
        <ele>2313.39990234375</ele>
        <time>2020-10-24T11:02:25.000Z</time>
      </trkpt>
      <trkpt lat="42.18950620852410793304443359375" lon="1.73778503201901912689208984375">
        <ele>2313.800048828125</ele>
        <time>2020-10-24T11:02:28.000Z</time>
      </trkpt>
      <trkpt lat="42.189499922096729278564453125" lon="1.7378107644617557525634765625">
        <ele>2314.199951171875</ele>
        <time>2020-10-24T11:02:31.000Z</time>
      </trkpt>
      <trkpt lat="42.1894995868206024169921875" lon="1.7378251813352108001708984375">
        <ele>2314.39990234375</ele>
        <time>2020-10-24T11:02:34.000Z</time>
      </trkpt>
      <trkpt lat="42.18949179165065288543701171875" lon="1.7378684319555759429931640625">
        <ele>2314.800048828125</ele>
        <time>2020-10-24T11:02:38.000Z</time>
      </trkpt>
      <trkpt lat="42.18948273919522762298583984375" lon="1.73790673725306987762451171875">
        <ele>2315.39990234375</ele>
        <time>2020-10-24T11:02:43.000Z</time>
      </trkpt>
      <trkpt lat="42.18947268091142177581787109375" lon="1.73793087713420391082763671875">
        <ele>2316</ele>
        <time>2020-10-24T11:02:46.000Z</time>
      </trkpt>
      <trkpt lat="42.18944795429706573486328125" lon="1.73799910582602024078369140625">
        <ele>2316.800048828125</ele>
        <time>2020-10-24T11:02:54.000Z</time>
      </trkpt>
      <trkpt lat="42.18944300897419452667236328125" lon="1.7380035482347011566162109375">
        <ele>2317</ele>
        <time>2020-10-24T11:02:55.000Z</time>
      </trkpt>
      <trkpt lat="42.1894350461661815643310546875" lon="1.73801084049046039581298828125">
        <ele>2317.199951171875</ele>
        <time>2020-10-24T11:02:57.000Z</time>
      </trkpt>
      <trkpt lat="42.1894296817481517791748046875" lon="1.73801385797560214996337890625">
        <ele>2317.39990234375</ele>
        <time>2020-10-24T11:02:59.000Z</time>
      </trkpt>
      <trkpt lat="42.18942624516785144805908203125" lon="1.738024167716503143310546875">
        <ele>2317.800048828125</ele>
        <time>2020-10-24T11:03:03.000Z</time>
      </trkpt>
      <trkpt lat="42.18941803090274333953857421875" lon="1.73803732730448246002197265625">
        <ele>2318</ele>
        <time>2020-10-24T11:03:05.000Z</time>
      </trkpt>
      <trkpt lat="42.18938886187970638275146484375" lon="1.7380701005458831787109375">
        <ele>2318</ele>
        <time>2020-10-24T11:03:08.000Z</time>
      </trkpt>
      <trkpt lat="42.189375869929790496826171875" lon="1.738087870180606842041015625">
        <ele>2318</ele>
        <time>2020-10-24T11:03:14.000Z</time>
      </trkpt>
      <trkpt lat="42.18937561847269535064697265625" lon="1.7380880378186702728271484375">
        <ele>2317.800048828125</ele>
        <time>2020-10-24T11:03:19.000Z</time>
      </trkpt>
      <trkpt lat="42.1893869340419769287109375" lon="1.73806750215590000152587890625">
        <ele>2317.800048828125</ele>
        <time>2020-10-24T11:03:25.000Z</time>
      </trkpt>
      <trkpt lat="42.18939120881259441375732421875" lon="1.73805736005306243896484375">
        <ele>2317.800048828125</ele>
        <time>2020-10-24T11:03:33.000Z</time>
      </trkpt>
      <trkpt lat="42.1893928013741970062255859375" lon="1.73804529011249542236328125">
        <ele>2318.199951171875</ele>
        <time>2020-10-24T11:03:52.000Z</time>
      </trkpt>
      <trkpt lat="42.18940797261893749237060546875" lon="1.7380260117352008819580078125">
        <ele>2318</ele>
        <time>2020-10-24T11:04:00.000Z</time>
      </trkpt>
      <trkpt lat="42.18940814025700092315673828125" lon="1.73802559264004230499267578125">
        <ele>2318</ele>
        <time>2020-10-24T11:04:01.000Z</time>
      </trkpt>
      <trkpt lat="42.18941383995115756988525390625" lon="1.73802106641232967376708984375">
        <ele>2318</ele>
        <time>2020-10-24T11:04:22.000Z</time>
      </trkpt>
      <trkpt lat="42.18942423351109027862548828125" lon="1.73804000951349735260009765625">
        <ele>2318.800048828125</ele>
        <time>2020-10-24T11:04:41.000Z</time>
      </trkpt>
      <trkpt lat="42.189428173005580902099609375" lon="1.73804570920765399932861328125">
        <ele>2318.60009765625</ele>
        <time>2020-10-24T11:04:51.000Z</time>
      </trkpt>
      <trkpt lat="42.18942917883396148681640625" lon="1.7380464635789394378662109375">
        <ele>2318.60009765625</ele>
        <time>2020-10-24T11:04:54.000Z</time>
      </trkpt>
      <trkpt lat="42.18943043611943721771240234375" lon="1.73804654739797115325927734375">
        <ele>2319</ele>
        <time>2020-10-24T11:05:01.000Z</time>
      </trkpt>
      <trkpt lat="42.18943043611943721771240234375" lon="1.73804654739797115325927734375">
        <ele>2319</ele>
        <time>2020-10-24T11:05:02.000Z</time>
      </trkpt>
      <trkpt lat="42.189418114721775054931640625" lon="1.7380474694073200225830078125">
        <ele>2318.199951171875</ele>
        <time>2020-10-24T11:05:25.000Z</time>
      </trkpt>
      <trkpt lat="42.18941249884665012359619140625" lon="1.73805140890181064605712890625">
        <ele>2318.199951171875</ele>
        <time>2020-10-24T11:05:31.000Z</time>
      </trkpt>
      <trkpt lat="42.18941199593245983123779296875" lon="1.738052330911159515380859375">
        <ele>2318</ele>
        <time>2020-10-24T11:05:35.000Z</time>
      </trkpt>
      <trkpt lat="42.18941182829439640045166015625" lon="1.7380528338253498077392578125">
        <ele>2318</ele>
        <time>2020-10-24T11:05:37.000Z</time>
      </trkpt>
      <trkpt lat="42.18845863826572895050048828125" lon="1.73970884643495082855224609375">
        <ele>2284.800048828125</ele>
        <time>2020-10-24T11:20:41.000Z</time>
      </trkpt>
      <trkpt lat="42.18845008872449398040771484375" lon="1.73976131714880466461181640625">
        <ele>2284.39990234375</ele>
        <time>2020-10-24T11:20:45.000Z</time>
      </trkpt>
      <trkpt lat="42.1884536929428577423095703125" lon="1.739801466464996337890625">
        <ele>2283.800048828125</ele>
        <time>2020-10-24T11:20:48.000Z</time>
      </trkpt>
      <trkpt lat="42.18843667767941951751708984375" lon="1.7398636601865291595458984375">
        <ele>2282.800048828125</ele>
        <time>2020-10-24T11:20:53.000Z</time>
      </trkpt>
      <trkpt lat="42.1884215064346790313720703125" lon="1.73993649892508983612060546875">
        <ele>2281.60009765625</ele>
        <time>2020-10-24T11:20:58.000Z</time>
      </trkpt>
      <trkpt lat="42.1884218417108058929443359375" lon="1.74000372178852558135986328125">
        <ele>2280.60009765625</ele>
        <time>2020-10-24T11:21:03.000Z</time>
      </trkpt>
      <trkpt lat="42.18842209316790103912353515625" lon="1.74002098850905895233154296875">
        <ele>2280.39990234375</ele>
        <time>2020-10-24T11:21:04.000Z</time>
      </trkpt>
      <trkpt lat="42.18841203488409519195556640625" lon="1.7400604672729969024658203125">
        <ele>2279.39990234375</ele>
        <time>2020-10-24T11:21:07.000Z</time>
      </trkpt>
      <trkpt lat="42.18840549699962139129638671875" lon="1.7400728724896907806396484375">
        <ele>2279.199951171875</ele>
        <time>2020-10-24T11:21:08.000Z</time>
      </trkpt>
      <trkpt lat="42.18838705681264400482177734375" lon="1.740139424800872802734375">
        <ele>2278.199951171875</ele>
        <time>2020-10-24T11:21:13.000Z</time>
      </trkpt>
      <trkpt lat="42.18837984837591648101806640625" lon="1.74017437733709812164306640625">
        <ele>2277.60009765625</ele>
        <time>2020-10-24T11:21:15.000Z</time>
      </trkpt>
      <trkpt lat="42.188371382653713226318359375" lon="1.74020572565495967864990234375">
        <ele>2276.800048828125</ele>
        <time>2020-10-24T11:21:17.000Z</time>
      </trkpt>
      <trkpt lat="42.18836040236055850982666015625" lon="1.740277223289012908935546875">
        <ele>2275.60009765625</ele>
        <time>2020-10-24T11:21:20.000Z</time>
      </trkpt>
      <trkpt lat="42.18834850005805492401123046875" lon="1.74032039009034633636474609375">
        <ele>2274.60009765625</ele>
        <time>2020-10-24T11:21:22.000Z</time>
      </trkpt>
      <trkpt lat="42.188350595533847808837890625" lon="1.74033933319151401519775390625">
        <ele>2274.199951171875</ele>
        <time>2020-10-24T11:21:23.000Z</time>
      </trkpt>
      <trkpt lat="42.1883591450750827789306640625" lon="1.74039817415177822113037109375">
        <ele>2273.39990234375</ele>
        <time>2020-10-24T11:21:26.000Z</time>
      </trkpt>
      <trkpt lat="42.1883500926196575164794921875" lon="1.74045785330235958099365234375">
        <ele>2272.39990234375</ele>
        <time>2020-10-24T11:21:29.000Z</time>
      </trkpt>
      <trkpt lat="42.1883489191532135009765625" lon="1.740479059517383575439453125">
        <ele>2272</ele>
        <time>2020-10-24T11:21:30.000Z</time>
      </trkpt>
      <trkpt lat="42.18833240680396556854248046875" lon="1.74052339978516101837158203125">
        <ele>2270.800048828125</ele>
        <time>2020-10-24T11:21:33.000Z</time>
      </trkpt>
      <trkpt lat="42.18831044621765613555908203125" lon="1.74057184718549251556396484375">
        <ele>2270.199951171875</ele>
        <time>2020-10-24T11:21:37.000Z</time>
      </trkpt>
      <trkpt lat="42.1883046627044677734375" lon="1.7406074702739715576171875">
        <ele>2269.60009765625</ele>
        <time>2020-10-24T11:21:39.000Z</time>
      </trkpt>
      <trkpt lat="42.188296616077423095703125" lon="1.74065968953073024749755859375">
        <ele>2268.60009765625</ele>
        <time>2020-10-24T11:21:43.000Z</time>
      </trkpt>
      <trkpt lat="42.18829167075455188751220703125" lon="1.74067896790802478790283203125">
        <ele>2268</ele>
        <time>2020-10-24T11:21:45.000Z</time>
      </trkpt>
      <trkpt lat="42.1882910840213298797607421875" lon="1.7406887747347354888916015625">
        <ele>2267.60009765625</ele>
        <time>2020-10-24T11:21:46.000Z</time>
      </trkpt>
      <trkpt lat="42.1882952749729156494140625" lon="1.74069539643824100494384765625">
        <ele>2267.199951171875</ele>
        <time>2020-10-24T11:21:47.000Z</time>
      </trkpt>
      <trkpt lat="42.18830692581832408905029296875" lon="1.7407256551086902618408203125">
        <ele>2266.39990234375</ele>
        <time>2020-10-24T11:21:50.000Z</time>
      </trkpt>
      <trkpt lat="42.18830692581832408905029296875" lon="1.7407367192208766937255859375">
        <ele>2266</ele>
        <time>2020-10-24T11:21:51.000Z</time>
      </trkpt>
      <trkpt lat="42.18831111676990985870361328125" lon="1.74074828624725341796875">
        <ele>2265.60009765625</ele>
        <time>2020-10-24T11:21:52.000Z</time>
      </trkpt>
      <trkpt lat="42.188313044607639312744140625" lon="1.74077552743256092071533203125">
        <ele>2265.199951171875</ele>
        <time>2020-10-24T11:21:54.000Z</time>
      </trkpt>
      <trkpt lat="42.1883105300366878509521484375" lon="1.7407896928489208221435546875">
        <ele>2264.800048828125</ele>
        <time>2020-10-24T11:21:55.000Z</time>
      </trkpt>
      <trkpt lat="42.188295610249042510986328125" lon="1.7408094741404056549072265625">
        <ele>2264.199951171875</ele>
        <time>2020-10-24T11:21:57.000Z</time>
      </trkpt>
      <trkpt lat="42.1882830373942852020263671875" lon="1.7408262379467487335205078125">
        <ele>2263.60009765625</ele>
        <time>2020-10-24T11:21:59.000Z</time>
      </trkpt>
      <trkpt lat="42.1882682852447032928466796875" lon="1.74084442667663097381591796875">
        <ele>2263.199951171875</ele>
        <time>2020-10-24T11:22:01.000Z</time>
      </trkpt>
      <trkpt lat="42.18826769851148128509521484375" lon="1.74085364677011966705322265625">
        <ele>2263</ele>
        <time>2020-10-24T11:22:02.000Z</time>
      </trkpt>
      <trkpt lat="42.18826702795922756195068359375" lon="1.74087862484157085418701171875">
        <ele>2262.60009765625</ele>
        <time>2020-10-24T11:22:04.000Z</time>
      </trkpt>
      <trkpt lat="42.18827507458627223968505859375" lon="1.7408891022205352783203125">
        <ele>2262.199951171875</ele>
        <time>2020-10-24T11:22:05.000Z</time>
      </trkpt>
      <trkpt lat="42.18828789889812469482421875" lon="1.74091282300651073455810546875">
        <ele>2261.800048828125</ele>
        <time>2020-10-24T11:22:07.000Z</time>
      </trkpt>
      <trkpt lat="42.18830265104770660400390625" lon="1.7409281618893146514892578125">
        <ele>2261</ele>
        <time>2020-10-24T11:22:09.000Z</time>
      </trkpt>
      <trkpt lat="42.1883155591785907745361328125" lon="1.74096328206360340118408203125">
        <ele>2260</ele>
        <time>2020-10-24T11:22:13.000Z</time>
      </trkpt>
      <trkpt lat="42.18830860219895839691162109375" lon="1.74098230898380279541015625">
        <ele>2259.39990234375</ele>
        <time>2020-10-24T11:22:15.000Z</time>
      </trkpt>
      <trkpt lat="42.18829988501965999603271484375" lon="1.741003431379795074462890625">
        <ele>2258.800048828125</ele>
        <time>2020-10-24T11:22:17.000Z</time>
      </trkpt>
      <trkpt lat="42.1882987953722476959228515625" lon="1.7410419881343841552734375">
        <ele>2257.800048828125</ele>
        <time>2020-10-24T11:22:21.000Z</time>
      </trkpt>
      <trkpt lat="42.1883031539618968963623046875" lon="1.7410626076161861419677734375">
        <ele>2257.199951171875</ele>
        <time>2020-10-24T11:22:23.000Z</time>
      </trkpt>
      <trkpt lat="42.18831497244536876678466796875" lon="1.74109160900115966796875">
        <ele>2256.60009765625</ele>
        <time>2020-10-24T11:22:26.000Z</time>
      </trkpt>
      <trkpt lat="42.18833827413618564605712890625" lon="1.74111180938780307769775390625">
        <ele>2255.39990234375</ele>
        <time>2020-10-24T11:22:31.000Z</time>
      </trkpt>
      <trkpt lat="42.18834497965872287750244140625" lon="1.74111348576843738555908203125">
        <ele>2255</ele>
        <time>2020-10-24T11:22:32.000Z</time>
      </trkpt>
      <trkpt lat="42.18835361301898956298828125" lon="1.74113846383988857269287109375">
        <ele>2254.199951171875</ele>
        <time>2020-10-24T11:22:36.000Z</time>
      </trkpt>
      <trkpt lat="42.18833944760262966156005859375" lon="1.7411527968943119049072265625">
        <ele>2253.60009765625</ele>
        <time>2020-10-24T11:22:38.000Z</time>
      </trkpt>
      <trkpt lat="42.1883293054997920989990234375" lon="1.741165034472942352294921875">
        <ele>2253.199951171875</ele>
        <time>2020-10-24T11:22:40.000Z</time>
      </trkpt>
      <trkpt lat="42.1883165650069713592529296875" lon="1.7411895096302032470703125">
        <ele>2252.39990234375</ele>
        <time>2020-10-24T11:22:43.000Z</time>
      </trkpt>
      <trkpt lat="42.18831027857959270477294921875" lon="1.7412044294178485870361328125">
        <ele>2252</ele>
        <time>2020-10-24T11:22:46.000Z</time>
      </trkpt>
      <trkpt lat="42.18831539154052734375" lon="1.7412275634706020355224609375">
        <ele>2251.60009765625</ele>
        <time>2020-10-24T11:22:48.000Z</time>
      </trkpt>
      <trkpt lat="42.188320420682430267333984375" lon="1.74123904667794704437255859375">
        <ele>2251</ele>
        <time>2020-10-24T11:22:50.000Z</time>
      </trkpt>
      <trkpt lat="42.1883249469101428985595703125" lon="1.74125396646559238433837890625">
        <ele>2250.39990234375</ele>
        <time>2020-10-24T11:22:53.000Z</time>
      </trkpt>
      <trkpt lat="42.18834145925939083099365234375" lon="1.74126201309263706207275390625">
        <ele>2249.800048828125</ele>
        <time>2020-10-24T11:22:55.000Z</time>
      </trkpt>
      <trkpt lat="42.18834430910646915435791015625" lon="1.7412899248301982879638671875">
        <ele>2249</ele>
        <time>2020-10-24T11:22:58.000Z</time>
      </trkpt>
      <trkpt lat="42.18833760358393192291259765625" lon="1.74129939638078212738037109375">
        <ele>2248.60009765625</ele>
        <time>2020-10-24T11:22:59.000Z</time>
      </trkpt>
      <trkpt lat="42.18832955695688724517822265625" lon="1.7413066886365413665771484375">
        <ele>2248.39990234375</ele>
        <time>2020-10-24T11:23:00.000Z</time>
      </trkpt>
      <trkpt lat="42.18831899575889110565185546875" lon="1.741318590939044952392578125">
        <ele>2247.800048828125</ele>
        <time>2020-10-24T11:23:03.000Z</time>
      </trkpt>
      <trkpt lat="42.18831606209278106689453125" lon="1.7413257993757724761962890625">
        <ele>2247.60009765625</ele>
        <time>2020-10-24T11:23:04.000Z</time>
      </trkpt>
      <trkpt lat="42.18832486309111118316650390625" lon="1.7413576506078243255615234375">
        <ele>2246.60009765625</ele>
        <time>2020-10-24T11:23:09.000Z</time>
      </trkpt>
      <trkpt lat="42.18832410871982574462890625" lon="1.741366870701313018798828125">
        <ele>2246.39990234375</ele>
        <time>2020-10-24T11:23:10.000Z</time>
      </trkpt>
      <trkpt lat="42.188309691846370697021484375" lon="1.74140668474137783050537109375">
        <ele>2245.39990234375</ele>
        <time>2020-10-24T11:23:15.000Z</time>
      </trkpt>
      <trkpt lat="42.1883140504360198974609375" lon="1.74141724593937397003173828125">
        <ele>2245.199951171875</ele>
        <time>2020-10-24T11:23:16.000Z</time>
      </trkpt>
      <trkpt lat="42.188313044607639312744140625" lon="1.7414501868188381195068359375">
        <ele>2244.199951171875</ele>
        <time>2020-10-24T11:23:20.000Z</time>
      </trkpt>
      <trkpt lat="42.18829871155321598052978515625" lon="1.74147625453770160675048828125">
        <ele>2243.39990234375</ele>
        <time>2020-10-24T11:23:23.000Z</time>
      </trkpt>
      <trkpt lat="42.18828655779361724853515625" lon="1.741496287286281585693359375">
        <ele>2243</ele>
        <time>2020-10-24T11:23:25.000Z</time>
      </trkpt>
      <trkpt lat="42.1882666088640689849853515625" lon="1.7415407113730907440185546875">
        <ele>2241.800048828125</ele>
        <time>2020-10-24T11:23:29.000Z</time>
      </trkpt>
      <trkpt lat="42.1882511861622333526611328125" lon="1.7415500991046428680419921875">
        <ele>2241.199951171875</ele>
        <time>2020-10-24T11:23:31.000Z</time>
      </trkpt>
      <trkpt lat="42.18823534436523914337158203125" lon="1.74156837165355682373046875">
        <ele>2240.60009765625</ele>
        <time>2020-10-24T11:23:33.000Z</time>
      </trkpt>
      <trkpt lat="42.18821204267442226409912109375" lon="1.74161338247358798980712890625">
        <ele>2239.39990234375</ele>
        <time>2020-10-24T11:23:37.000Z</time>
      </trkpt>
      <trkpt lat="42.1882069297134876251220703125" lon="1.74162738025188446044921875">
        <ele>2239</ele>
        <time>2020-10-24T11:23:38.000Z</time>
      </trkpt>
      <trkpt lat="42.18818924389779567718505859375" lon="1.74166149459779262542724609375">
        <ele>2238.199951171875</ele>
        <time>2020-10-24T11:23:40.000Z</time>
      </trkpt>
      <trkpt lat="42.18817616812884807586669921875" lon="1.74170223064720630645751953125">
        <ele>2237.199951171875</ele>
        <time>2020-10-24T11:23:43.000Z</time>
      </trkpt>
      <trkpt lat="42.188167534768581390380859375" lon="1.741744391620159149169921875">
        <ele>2236</ele>
        <time>2020-10-24T11:23:46.000Z</time>
      </trkpt>
      <trkpt lat="42.18816074542701244354248046875" lon="1.74175746738910675048828125">
        <ele>2235.60009765625</ele>
        <time>2020-10-24T11:23:47.000Z</time>
      </trkpt>
      <trkpt lat="42.1881502680480480194091796875" lon="1.7417864687740802764892578125">
        <ele>2235</ele>
        <time>2020-10-24T11:23:49.000Z</time>
      </trkpt>
      <trkpt lat="42.18813207931816577911376953125" lon="1.74184807576239109039306640625">
        <ele>2234.199951171875</ele>
        <time>2020-10-24T11:23:53.000Z</time>
      </trkpt>
      <trkpt lat="42.1881311573088169097900390625" lon="1.7418605647981166839599609375">
        <ele>2233.800048828125</ele>
        <time>2020-10-24T11:23:54.000Z</time>
      </trkpt>
      <trkpt lat="42.188127301633358001708984375" lon="1.74190859310328960418701171875">
        <ele>2233</ele>
        <time>2020-10-24T11:23:57.000Z</time>
      </trkpt>
      <trkpt lat="42.1881335042417049407958984375" lon="1.741924099624156951904296875">
        <ele>2232.800048828125</ele>
        <time>2020-10-24T11:23:58.000Z</time>
      </trkpt>
      <trkpt lat="42.18816359527409076690673828125" lon="1.7420188151299953460693359375">
        <ele>2231.60009765625</ele>
        <time>2020-10-24T11:24:04.000Z</time>
      </trkpt>
      <trkpt lat="42.18816443346440792083740234375" lon="1.742036081850528717041015625">
        <ele>2231.60009765625</ele>
        <time>2020-10-24T11:24:05.000Z</time>
      </trkpt>
      <trkpt lat="42.18817264772951602935791015625" lon="1.7420821823179721832275390625">
        <ele>2231.199951171875</ele>
        <time>2020-10-24T11:24:08.000Z</time>
      </trkpt>
      <trkpt lat="42.1881804428994655609130859375" lon="1.7421482317149639129638671875">
        <ele>2230.60009765625</ele>
        <time>2020-10-24T11:24:12.000Z</time>
      </trkpt>
      <trkpt lat="42.18821757473051548004150390625" lon="1.7423151992261409759521484375">
        <ele>2229.60009765625</ele>
        <time>2020-10-24T11:24:21.000Z</time>
      </trkpt>
      <trkpt lat="42.18826116062700748443603515625" lon="1.74240119755268096923828125">
        <ele>2229.39990234375</ele>
        <time>2020-10-24T11:24:28.000Z</time>
      </trkpt>
      <trkpt lat="42.188264429569244384765625" lon="1.74240899272263050079345703125">
        <ele>2229.39990234375</ele>
        <time>2020-10-24T11:24:29.000Z</time>
      </trkpt>
      <trkpt lat="42.18830357305705547332763671875" lon="1.7424798198044300079345703125">
        <ele>2229.199951171875</ele>
        <time>2020-10-24T11:24:34.000Z</time>
      </trkpt>
      <trkpt lat="42.1883222647011280059814453125" lon="1.74253170378506183624267578125">
        <ele>2229</ele>
        <time>2020-10-24T11:24:38.000Z</time>
      </trkpt>
      <trkpt lat="42.1883487515151500701904296875" lon="1.74260010011494159698486328125">
        <ele>2228.800048828125</ele>
        <time>2020-10-24T11:24:43.000Z</time>
      </trkpt>
      <trkpt lat="42.18838579952716827392578125" lon="1.742654331028461456298828125">
        <ele>2228.60009765625</ele>
        <time>2020-10-24T11:24:48.000Z</time>
      </trkpt>
      <trkpt lat="42.18840013258159160614013671875" lon="1.74267570488154888153076171875">
        <ele>2228.60009765625</ele>
        <time>2020-10-24T11:24:50.000Z</time>
      </trkpt>
      <trkpt lat="42.188412956893444061279296875" lon="1.74269917421042919158935546875">
        <ele>2228.60009765625</ele>
        <time>2020-10-24T11:24:52.000Z</time>
      </trkpt>
      <trkpt lat="42.188454531133174896240234375" lon="1.74272130243480205535888671875">
        <ele>2228.39990234375</ele>
        <time>2020-10-24T11:24:56.000Z</time>
      </trkpt>
      <trkpt lat="42.1884966082870960235595703125" lon="1.7427731864154338836669921875">
        <ele>2228</ele>
        <time>2020-10-24T11:25:00.000Z</time>
      </trkpt>
      <trkpt lat="42.188526950776576995849609375" lon="1.74283496104180812835693359375">
        <ele>2227.39990234375</ele>
        <time>2020-10-24T11:25:05.000Z</time>
      </trkpt>
      <trkpt lat="42.188538014888763427734375" lon="1.74286547116935253143310546875">
        <ele>2227.199951171875</ele>
        <time>2020-10-24T11:25:07.000Z</time>
      </trkpt>
      <trkpt lat="42.18854061327874660491943359375" lon="1.742880977690219879150390625">
        <ele>2227.199951171875</ele>
        <time>2020-10-24T11:25:08.000Z</time>
      </trkpt>
      <trkpt lat="42.18857279978692531585693359375" lon="1.742949374020099639892578125">
        <ele>2227.39990234375</ele>
        <time>2020-10-24T11:25:16.000Z</time>
      </trkpt>
      <trkpt lat="42.18857548199594020843505859375" lon="1.74301584251224994659423828125">
        <ele>2227.800048828125</ele>
        <time>2020-10-24T11:25:22.000Z</time>
      </trkpt>
      <trkpt lat="42.18858025968074798583984375" lon="1.74302992410957813262939453125">
        <ele>2227.800048828125</ele>
        <time>2020-10-24T11:25:23.000Z</time>
      </trkpt>
      <trkpt lat="42.18859610147774219512939453125" lon="1.74308088608086109161376953125">
        <ele>2228</ele>
        <time>2020-10-24T11:25:28.000Z</time>
      </trkpt>
      <trkpt lat="42.1886037290096282958984375" lon="1.7431222088634967803955078125">
        <ele>2227.60009765625</ele>
        <time>2020-10-24T11:25:31.000Z</time>
      </trkpt>
      <trkpt lat="42.18861320056021213531494140625" lon="1.74318381585180759429931640625">
        <ele>2227.199951171875</ele>
        <time>2020-10-24T11:25:35.000Z</time>
      </trkpt>
      <trkpt lat="42.1886203251779079437255859375" lon="1.743229664862155914306640625">
        <ele>2227</ele>
        <time>2020-10-24T11:25:38.000Z</time>
      </trkpt>
      <trkpt lat="42.1886203251779079437255859375" lon="1.74335338175296783447265625">
        <ele>2226.39990234375</ele>
        <time>2020-10-24T11:25:45.000Z</time>
      </trkpt>
      <trkpt lat="42.18860599212348461151123046875" lon="1.74346762709319591522216796875">
        <ele>2225.800048828125</ele>
        <time>2020-10-24T11:25:53.000Z</time>
      </trkpt>
      <trkpt lat="42.18860850669443607330322265625" lon="1.74348120577633380889892578125">
        <ele>2225.60009765625</ele>
        <time>2020-10-24T11:25:54.000Z</time>
      </trkpt>
      <trkpt lat="42.18860574066638946533203125" lon="1.7435312457382678985595703125">
        <ele>2225.199951171875</ele>
        <time>2020-10-24T11:25:57.000Z</time>
      </trkpt>
      <trkpt lat="42.1885981969535350799560546875" lon="1.7435795255005359649658203125">
        <ele>2224.60009765625</ele>
        <time>2020-10-24T11:26:00.000Z</time>
      </trkpt>
      <trkpt lat="42.18859325163066387176513671875" lon="1.74364448525011539459228515625">
        <ele>2224.199951171875</ele>
        <time>2020-10-24T11:26:04.000Z</time>
      </trkpt>
      <trkpt lat="42.1886002086102962493896484375" lon="1.7437401227653026580810546875">
        <ele>2223.39990234375</ele>
        <time>2020-10-24T11:26:09.000Z</time>
      </trkpt>
      <trkpt lat="42.188603393733501434326171875" lon="1.74375546164810657501220703125">
        <ele>2223.199951171875</ele>
        <time>2020-10-24T11:26:10.000Z</time>
      </trkpt>
      <trkpt lat="42.18860431574285030364990234375" lon="1.74377071671187877655029296875">
        <ele>2223.199951171875</ele>
        <time>2020-10-24T11:26:11.000Z</time>
      </trkpt>
      <trkpt lat="42.18860515393316745758056640625" lon="1.74393449909985065460205078125">
        <ele>2222</ele>
        <time>2020-10-24T11:26:21.000Z</time>
      </trkpt>
      <trkpt lat="42.1886169724166393280029296875" lon="1.74404203891754150390625">
        <ele>2221.800048828125</ele>
        <time>2020-10-24T11:26:27.000Z</time>
      </trkpt>
      <trkpt lat="42.18863524496555328369140625" lon="1.74406961537897586822509765625">
        <ele>2221.60009765625</ele>
        <time>2020-10-24T11:26:30.000Z</time>
      </trkpt>
      <trkpt lat="42.18864052556455135345458984375" lon="1.7440790869295597076416015625">
        <ele>2221.39990234375</ele>
        <time>2020-10-24T11:26:31.000Z</time>
      </trkpt>
      <trkpt lat="42.1886417828500270843505859375" lon="1.744090653955936431884765625">
        <ele>2221.199951171875</ele>
        <time>2020-10-24T11:26:32.000Z</time>
      </trkpt>
      <trkpt lat="42.18865745700895786285400390625" lon="1.7441578768193721771240234375">
        <ele>2221.199951171875</ele>
        <time>2020-10-24T11:26:36.000Z</time>
      </trkpt>
      <trkpt lat="42.188669778406620025634765625" lon="1.7441994510591030120849609375">
        <ele>2221</ele>
        <time>2020-10-24T11:26:38.000Z</time>
      </trkpt>
      <trkpt lat="42.18868545256555080413818359375" lon="1.744250245392322540283203125">
        <ele>2221</ele>
        <time>2020-10-24T11:26:41.000Z</time>
      </trkpt>
      <trkpt lat="42.18869701959192752838134765625" lon="1.7442608065903186798095703125">
        <ele>2220.800048828125</ele>
        <time>2020-10-24T11:26:42.000Z</time>
      </trkpt>
      <trkpt lat="42.1887071616947650909423828125" lon="1.74428184516727924346923828125">
        <ele>2220.60009765625</ele>
        <time>2020-10-24T11:26:44.000Z</time>
      </trkpt>
      <trkpt lat="42.18872836790978908538818359375" lon="1.74434655345976352691650390625">
        <ele>2220.39990234375</ele>
        <time>2020-10-24T11:26:49.000Z</time>
      </trkpt>
      <trkpt lat="42.188763655722141265869140625" lon="1.7444240860641002655029296875">
        <ele>2220.199951171875</ele>
        <time>2020-10-24T11:26:55.000Z</time>
      </trkpt>
      <trkpt lat="42.18878352083265781402587890625" lon="1.74448686651885509490966796875">
        <ele>2220</ele>
        <time>2020-10-24T11:27:00.000Z</time>
      </trkpt>
      <trkpt lat="42.18879726715385913848876953125" lon="1.74453212879598140716552734375">
        <ele>2219.60009765625</ele>
        <time>2020-10-24T11:27:04.000Z</time>
      </trkpt>
      <trkpt lat="42.18880967237055301666259765625" lon="1.74464545212686061859130859375">
        <ele>2218.800048828125</ele>
        <time>2020-10-24T11:27:14.000Z</time>
      </trkpt>
      <trkpt lat="42.188809253275394439697265625" lon="1.7446710169315338134765625">
        <ele>2218</ele>
        <time>2020-10-24T11:27:16.000Z</time>
      </trkpt>
      <trkpt lat="42.1888047270476818084716796875" lon="1.7447084002196788787841796875">
        <ele>2217.60009765625</ele>
        <time>2020-10-24T11:27:18.000Z</time>
      </trkpt>
      <trkpt lat="42.188792489469051361083984375" lon="1.744808144867420196533203125">
        <ele>2216.39990234375</ele>
        <time>2020-10-24T11:27:24.000Z</time>
      </trkpt>
      <trkpt lat="42.18878419138491153717041015625" lon="1.7448777146637439727783203125">
        <ele>2215.800048828125</ele>
        <time>2020-10-24T11:27:28.000Z</time>
      </trkpt>
      <trkpt lat="42.18878637067973613739013671875" lon="1.744923479855060577392578125">
        <ele>2215.199951171875</ele>
        <time>2020-10-24T11:27:32.000Z</time>
      </trkpt>
      <trkpt lat="42.1887732110917568206787109375" lon="1.74498290754854679107666015625">
        <ele>2214.199951171875</ele>
        <time>2020-10-24T11:27:38.000Z</time>
      </trkpt>
      <trkpt lat="42.18877010978758335113525390625" lon="1.74499078653752803802490234375">
        <ele>2214.199951171875</ele>
        <time>2020-10-24T11:27:39.000Z</time>
      </trkpt>
      <trkpt lat="42.1887598000466823577880859375" lon="1.74501442350447177886962890625">
        <ele>2213.800048828125</ele>
        <time>2020-10-24T11:27:41.000Z</time>
      </trkpt>
      <trkpt lat="42.1887423656880855560302734375" lon="1.74504929222166538238525390625">
        <ele>2213.39990234375</ele>
        <time>2020-10-24T11:27:44.000Z</time>
      </trkpt>
      <trkpt lat="42.18874094076454639434814453125" lon="1.7450627870857715606689453125">
        <ele>2213</ele>
        <time>2020-10-24T11:27:45.000Z</time>
      </trkpt>
      <trkpt lat="42.18871613033115863800048828125" lon="1.74510880373418331146240234375">
        <ele>2212</ele>
        <time>2020-10-24T11:27:50.000Z</time>
      </trkpt>
      <trkpt lat="42.188699953258037567138671875" lon="1.7451452650129795074462890625">
        <ele>2211.199951171875</ele>
        <time>2020-10-24T11:27:54.000Z</time>
      </trkpt>
      <trkpt lat="42.18869316391646862030029296875" lon="1.74516429193317890167236328125">
        <ele>2210.800048828125</ele>
        <time>2020-10-24T11:27:56.000Z</time>
      </trkpt>
      <trkpt lat="42.18866617418825626373291015625" lon="1.7452391423285007476806640625">
        <ele>2209.60009765625</ele>
        <time>2020-10-24T11:28:01.000Z</time>
      </trkpt>
      <trkpt lat="42.1886466443538665771484375" lon="1.74528582952916622161865234375">
        <ele>2208.60009765625</ele>
        <time>2020-10-24T11:28:05.000Z</time>
      </trkpt>
      <trkpt lat="42.18862183392047882080078125" lon="1.7453630268573760986328125">
        <ele>2207.800048828125</ele>
        <time>2020-10-24T11:28:11.000Z</time>
      </trkpt>
      <trkpt lat="42.18862107954919338226318359375" lon="1.745372749865055084228515625">
        <ele>2207.60009765625</ele>
        <time>2020-10-24T11:28:12.000Z</time>
      </trkpt>
      <trkpt lat="42.1885878033936023712158203125" lon="1.74544206820428371429443359375">
        <ele>2206.60009765625</ele>
        <time>2020-10-24T11:28:18.000Z</time>
      </trkpt>
      <trkpt lat="42.18858134932816028594970703125" lon="1.74546134658157825469970703125">
        <ele>2206.199951171875</ele>
        <time>2020-10-24T11:28:20.000Z</time>
      </trkpt>
      <trkpt lat="42.18858671374619007110595703125" lon="1.7454971373081207275390625">
        <ele>2205.39990234375</ele>
        <time>2020-10-24T11:28:24.000Z</time>
      </trkpt>
      <trkpt lat="42.18858696520328521728515625" lon="1.74553359858691692352294921875">
        <ele>2204.199951171875</ele>
        <time>2020-10-24T11:28:28.000Z</time>
      </trkpt>
      <trkpt lat="42.1885807625949382781982421875" lon="1.74554499797523021697998046875">
        <ele>2203.800048828125</ele>
        <time>2020-10-24T11:28:29.000Z</time>
      </trkpt>
      <trkpt lat="42.1885787509381771087646484375" lon="1.74555891193449497222900390625">
        <ele>2203.39990234375</ele>
        <time>2020-10-24T11:28:30.000Z</time>
      </trkpt>
      <trkpt lat="42.1885750629007816314697265625" lon="1.74558766186237335205078125">
        <ele>2203</ele>
        <time>2020-10-24T11:28:32.000Z</time>
      </trkpt>
      <trkpt lat="42.18856492079794406890869140625" lon="1.74564591608941555023193359375">
        <ele>2201.800048828125</ele>
        <time>2020-10-24T11:28:36.000Z</time>
      </trkpt>
      <trkpt lat="42.18856240622699260711669921875" lon="1.7456555552780628204345703125">
        <ele>2201.60009765625</ele>
        <time>2020-10-24T11:28:37.000Z</time>
      </trkpt>
      <trkpt lat="42.1885549463331699371337890625" lon="1.74569101072847843170166015625">
        <ele>2200.800048828125</ele>
        <time>2020-10-24T11:28:40.000Z</time>
      </trkpt>
      <trkpt lat="42.18852904625236988067626953125" lon="1.74575798213481903076171875">
        <ele>2199.60009765625</ele>
        <time>2020-10-24T11:28:45.000Z</time>
      </trkpt>
      <trkpt lat="42.18850859440863132476806640625" lon="1.74581053666770458221435546875">
        <ele>2198.39990234375</ele>
        <time>2020-10-24T11:28:50.000Z</time>
      </trkpt>
      <trkpt lat="42.1884785033762454986572265625" lon="1.745909191668033599853515625">
        <ele>2197.199951171875</ele>
        <time>2020-10-24T11:28:56.000Z</time>
      </trkpt>
      <trkpt lat="42.18844455666840076446533203125" lon="1.7459727264940738677978515625">
        <ele>2196</ele>
        <time>2020-10-24T11:29:01.000Z</time>
      </trkpt>
      <trkpt lat="42.1884386055171489715576171875" lon="1.74599225632846355438232421875">
        <ele>2195.60009765625</ele>
        <time>2020-10-24T11:29:03.000Z</time>
      </trkpt>
      <trkpt lat="42.1884365938603878021240234375" lon="1.74600248225033283233642578125">
        <ele>2195.39990234375</ele>
        <time>2020-10-24T11:29:04.000Z</time>
      </trkpt>
      <trkpt lat="42.18843449838459491729736328125" lon="1.7460213415324687957763671875">
        <ele>2194.800048828125</ele>
        <time>2020-10-24T11:29:06.000Z</time>
      </trkpt>
      <trkpt lat="42.18842712230980396270751953125" lon="1.746052019298076629638671875">
        <ele>2194.199951171875</ele>
        <time>2020-10-24T11:29:09.000Z</time>
      </trkpt>
      <trkpt lat="42.188423015177249908447265625" lon="1.746076159179210662841796875">
        <ele>2193.800048828125</ele>
        <time>2020-10-24T11:29:11.000Z</time>
      </trkpt>
      <trkpt lat="42.18842335045337677001953125" lon="1.7460843734443187713623046875">
        <ele>2193.39990234375</ele>
        <time>2020-10-24T11:29:12.000Z</time>
      </trkpt>
      <trkpt lat="42.1883893199265003204345703125" lon="1.74614883027970790863037109375">
        <ele>2192.199951171875</ele>
        <time>2020-10-24T11:29:17.000Z</time>
      </trkpt>
      <trkpt lat="42.1883795969188213348388671875" lon="1.74616525880992412567138671875">
        <ele>2192</ele>
        <time>2020-10-24T11:29:18.000Z</time>
      </trkpt>
      <trkpt lat="42.1883355081081390380859375" lon="1.74623717553913593292236328125">
        <ele>2191.199951171875</ele>
        <time>2020-10-24T11:29:23.000Z</time>
      </trkpt>
      <trkpt lat="42.18830809928476810455322265625" lon="1.74629819579422473907470703125">
        <ele>2190.39990234375</ele>
        <time>2020-10-24T11:29:27.000Z</time>
      </trkpt>
      <trkpt lat="42.18829217366874217987060546875" lon="1.74632568843662738800048828125">
        <ele>2190</ele>
        <time>2020-10-24T11:29:29.000Z</time>
      </trkpt>
      <trkpt lat="42.18822863884270191192626953125" lon="1.74641311168670654296875">
        <ele>2189.199951171875</ele>
        <time>2020-10-24T11:29:35.000Z</time>
      </trkpt>
      <trkpt lat="42.18821145594120025634765625" lon="1.74644169397652149200439453125">
        <ele>2188.800048828125</ele>
        <time>2020-10-24T11:29:37.000Z</time>
      </trkpt>
      <trkpt lat="42.18818438239395618438720703125" lon="1.74650204367935657501220703125">
        <ele>2188.199951171875</ele>
        <time>2020-10-24T11:29:41.000Z</time>
      </trkpt>
      <trkpt lat="42.1881797723472118377685546875" lon="1.74651436507701873779296875">
        <ele>2188.199951171875</ele>
        <time>2020-10-24T11:29:42.000Z</time>
      </trkpt>
      <trkpt lat="42.18817298300564289093017578125" lon="1.74656398594379425048828125">
        <ele>2187.800048828125</ele>
        <time>2020-10-24T11:29:45.000Z</time>
      </trkpt>
      <trkpt lat="42.1881482563912868499755859375" lon="1.74664554186165332794189453125">
        <ele>2187.60009765625</ele>
        <time>2020-10-24T11:29:51.000Z</time>
      </trkpt>
      <trkpt lat="42.1881194226443767547607421875" lon="1.7467083223164081573486328125">
        <ele>2186.800048828125</ele>
        <time>2020-10-24T11:29:56.000Z</time>
      </trkpt>
      <trkpt lat="42.18807256780564785003662109375" lon="1.7467738687992095947265625">
        <ele>2186.39990234375</ele>
        <time>2020-10-24T11:30:02.000Z</time>
      </trkpt>
      <trkpt lat="42.18800819478929042816162109375" lon="1.7468363977968692779541015625">
        <ele>2186</ele>
        <time>2020-10-24T11:30:12.000Z</time>
      </trkpt>
      <trkpt lat="42.1879826299846172332763671875" lon="1.746849976480007171630859375">
        <ele>2185.800048828125</ele>
        <time>2020-10-24T11:30:15.000Z</time>
      </trkpt>
      <trkpt lat="42.18788665719330310821533203125" lon="1.74692331813275814056396484375">
        <ele>2185</ele>
        <time>2020-10-24T11:30:25.000Z</time>
      </trkpt>
      <trkpt lat="42.1878780238330364227294921875" lon="1.74693052656948566436767578125">
        <ele>2184.800048828125</ele>
        <time>2020-10-24T11:30:27.000Z</time>
      </trkpt>
      <trkpt lat="42.18784977681934833526611328125" lon="1.7469483800232410430908203125">
        <ele>2184</ele>
        <time>2020-10-24T11:30:32.000Z</time>
      </trkpt>
      <trkpt lat="42.1878421492874622344970703125" lon="1.74695366062223911285400390625">
        <ele>2184</ele>
        <time>2020-10-24T11:30:33.000Z</time>
      </trkpt>
      <trkpt lat="42.1878347732126712799072265625" lon="1.746957935392856597900390625">
        <ele>2183.800048828125</ele>
        <time>2020-10-24T11:30:34.000Z</time>
      </trkpt>
      <trkpt lat="42.187826894223690032958984375" lon="1.7469621263444423675537109375">
        <ele>2183.60009765625</ele>
        <time>2020-10-24T11:30:35.000Z</time>
      </trkpt>
      <trkpt lat="42.1877668797969818115234375" lon="1.746992133557796478271484375">
        <ele>2182.60009765625</ele>
        <time>2020-10-24T11:30:40.000Z</time>
      </trkpt>
      <trkpt lat="42.1877395547926425933837890625" lon="1.747008226811885833740234375">
        <ele>2182.199951171875</ele>
        <time>2020-10-24T11:30:43.000Z</time>
      </trkpt>
      <trkpt lat="42.18771315179765224456787109375" lon="1.747023649513721466064453125">
        <ele>2182</ele>
        <time>2020-10-24T11:30:45.000Z</time>
      </trkpt>
      <trkpt lat="42.18769085593521595001220703125" lon="1.74703848548233509063720703125">
        <ele>2181.60009765625</ele>
        <time>2020-10-24T11:30:47.000Z</time>
      </trkpt>
      <trkpt lat="42.18768666498363018035888671875" lon="1.74704410135746002197265625">
        <ele>2181.39990234375</ele>
        <time>2020-10-24T11:30:48.000Z</time>
      </trkpt>
      <trkpt lat="42.18766923062503337860107421875" lon="1.74706396646797657012939453125">
        <ele>2180.800048828125</ele>
        <time>2020-10-24T11:30:52.000Z</time>
      </trkpt>
      <trkpt lat="42.18764257617294788360595703125" lon="1.74707067199051380157470703125">
        <ele>2180.39990234375</ele>
        <time>2020-10-24T11:30:55.000Z</time>
      </trkpt>
      <trkpt lat="42.18760888092219829559326171875" lon="1.7470888607203960418701171875">
        <ele>2180</ele>
        <time>2020-10-24T11:31:00.000Z</time>
      </trkpt>
      <trkpt lat="42.18757032416760921478271484375" lon="1.74711383879184722900390625">
        <ele>2179.39990234375</ele>
        <time>2020-10-24T11:31:05.000Z</time>
      </trkpt>
      <trkpt lat="42.187526486814022064208984375" lon="1.74714736640453338623046875">
        <ele>2178.199951171875</ele>
        <time>2020-10-24T11:31:10.000Z</time>
      </trkpt>
      <trkpt lat="42.1874626167118549346923828125" lon="1.74719028174877166748046875">
        <ele>2177.60009765625</ele>
        <time>2020-10-24T11:31:16.000Z</time>
      </trkpt>
      <trkpt lat="42.18744166195392608642578125" lon="1.7472058720886707305908203125">
        <ele>2177.199951171875</ele>
        <time>2020-10-24T11:31:18.000Z</time>
      </trkpt>
      <trkpt lat="42.1874223835766315460205078125" lon="1.74722154624760150909423828125">
        <ele>2176.800048828125</ele>
        <time>2020-10-24T11:31:20.000Z</time>
      </trkpt>
      <trkpt lat="42.1873958967626094818115234375" lon="1.7472459375858306884765625">
        <ele>2176.199951171875</ele>
        <time>2020-10-24T11:31:23.000Z</time>
      </trkpt>
      <trkpt lat="42.1873372234404087066650390625" lon="1.74730368889868259429931640625">
        <ele>2175.199951171875</ele>
        <time>2020-10-24T11:31:29.000Z</time>
      </trkpt>
      <trkpt lat="42.187329344451427459716796875" lon="1.7473104782402515411376953125">
        <ele>2175</ele>
        <time>2020-10-24T11:31:30.000Z</time>
      </trkpt>
      <trkpt lat="42.18729623593389987945556640625" lon="1.74737208522856235504150390625">
        <ele>2174.199951171875</ele>
        <time>2020-10-24T11:31:35.000Z</time>
      </trkpt>
      <trkpt lat="42.18728148378431797027587890625" lon="1.74740779213607311248779296875">
        <ele>2174</ele>
        <time>2020-10-24T11:31:37.000Z</time>
      </trkpt>
      <trkpt lat="42.18727377243340015411376953125" lon="1.74742606468498706817626953125">
        <ele>2174</ele>
        <time>2020-10-24T11:31:38.000Z</time>
      </trkpt>
      <trkpt lat="42.18722700141370296478271484375" lon="1.747489012777805328369140625">
        <ele>2173.60009765625</ele>
        <time>2020-10-24T11:31:42.000Z</time>
      </trkpt>
      <trkpt lat="42.18718257732689380645751953125" lon="1.74754299223423004150390625">
        <ele>2173.199951171875</ele>
        <time>2020-10-24T11:31:46.000Z</time>
      </trkpt>
      <trkpt lat="42.18716380186378955841064453125" lon="1.7475830577313899993896484375">
        <ele>2173</ele>
        <time>2020-10-24T11:31:48.000Z</time>
      </trkpt>
      <trkpt lat="42.18713731504976749420166015625" lon="1.74772529862821102142333984375">
        <ele>2172</ele>
        <time>2020-10-24T11:31:55.000Z</time>
      </trkpt>
      <trkpt lat="42.1871223114430904388427734375" lon="1.7477694712579250335693359375">
        <ele>2171.800048828125</ele>
        <time>2020-10-24T11:31:57.000Z</time>
      </trkpt>
      <trkpt lat="42.18709490261971950531005859375" lon="1.747877597808837890625">
        <ele>2171.199951171875</ele>
        <time>2020-10-24T11:32:02.000Z</time>
      </trkpt>
      <trkpt lat="42.1870800666511058807373046875" lon="1.7479210160672664642333984375">
        <ele>2171.199951171875</ele>
        <time>2020-10-24T11:32:04.000Z</time>
      </trkpt>
      <trkpt lat="42.18707344494760036468505859375" lon="1.74793635495007038116455078125">
        <ele>2171.199951171875</ele>
        <time>2020-10-24T11:32:05.000Z</time>
      </trkpt>
      <trkpt lat="42.1870341338217258453369140625" lon="1.7480859719216823577880859375">
        <ele>2171.60009765625</ele>
        <time>2020-10-24T11:32:14.000Z</time>
      </trkpt>
      <trkpt lat="42.18698929063975811004638671875" lon="1.74821178428828716278076171875">
        <ele>2171.39990234375</ele>
        <time>2020-10-24T11:32:24.000Z</time>
      </trkpt>
      <trkpt lat="42.18699130229651927947998046875" lon="1.74819887615740299224853515625">
        <ele>2171.60009765625</ele>
        <time>2020-10-24T11:32:27.000Z</time>
      </trkpt>
      <trkpt lat="42.18698660843074321746826171875" lon="1.74823827110230922698974609375">
        <ele>2171.60009765625</ele>
        <time>2020-10-24T11:32:31.000Z</time>
      </trkpt>
      <trkpt lat="42.18698644079267978668212890625" lon="1.7482536099851131439208984375">
        <ele>2171.60009765625</ele>
        <time>2020-10-24T11:32:32.000Z</time>
      </trkpt>
      <trkpt lat="42.186986021697521209716796875" lon="1.74827230162918567657470703125">
        <ele>2171.60009765625</ele>
        <time>2020-10-24T11:32:33.000Z</time>
      </trkpt>
      <trkpt lat="42.18697872944176197052001953125" lon="1.74837891943752765655517578125">
        <ele>2171</ele>
        <time>2020-10-24T11:32:38.000Z</time>
      </trkpt>
      <trkpt lat="42.18698107637465000152587890625" lon="1.74840389750897884368896484375">
        <ele>2170.800048828125</ele>
        <time>2020-10-24T11:32:39.000Z</time>
      </trkpt>
      <trkpt lat="42.18698568642139434814453125" lon="1.7484564520418643951416015625">
        <ele>2170.199951171875</ele>
        <time>2020-10-24T11:32:42.000Z</time>
      </trkpt>
      <trkpt lat="42.1869952417910099029541015625" lon="1.7485241778194904327392578125">
        <ele>2169.60009765625</ele>
        <time>2020-10-24T11:32:46.000Z</time>
      </trkpt>
      <trkpt lat="42.18699130229651927947998046875" lon="1.74856533296406269073486328125">
        <ele>2169.199951171875</ele>
        <time>2020-10-24T11:32:49.000Z</time>
      </trkpt>
      <trkpt lat="42.1869865246117115020751953125" lon="1.74862048588693141937255859375">
        <ele>2168.60009765625</ele>
        <time>2020-10-24T11:32:53.000Z</time>
      </trkpt>
      <trkpt lat="42.1869915537536144256591796875" lon="1.74864630214869976043701171875">
        <ele>2168.39990234375</ele>
        <time>2020-10-24T11:32:55.000Z</time>
      </trkpt>
      <trkpt lat="42.18700789846479892730712890625" lon="1.7486599646508693695068359375">
        <ele>2168.199951171875</ele>
        <time>2020-10-24T11:32:58.000Z</time>
      </trkpt>
      <trkpt lat="42.1870277635753154754638671875" lon="1.74868402071297168731689453125">
        <ele>2168</ele>
        <time>2020-10-24T11:33:01.000Z</time>
      </trkpt>
      <trkpt lat="42.18705366365611553192138671875" lon="1.74870313145220279693603515625">
        <ele>2167.60009765625</ele>
        <time>2020-10-24T11:33:05.000Z</time>
      </trkpt>
      <trkpt lat="42.18706590123474597930908203125" lon="1.74870430491864681243896484375">
        <ele>2167.39990234375</ele>
        <time>2020-10-24T11:33:06.000Z</time>
      </trkpt>
      <trkpt lat="42.18709356151521205902099609375" lon="1.74870983697474002838134765625">
        <ele>2166.800048828125</ele>
        <time>2020-10-24T11:33:11.000Z</time>
      </trkpt>
      <trkpt lat="42.187104709446430206298828125" lon="1.74870749004185199737548828125">
        <ele>2166.60009765625</ele>
        <time>2020-10-24T11:33:13.000Z</time>
      </trkpt>
      <trkpt lat="42.1871102415025234222412109375" lon="1.7487075738608837127685546875">
        <ele>2166.60009765625</ele>
        <time>2020-10-24T11:33:14.000Z</time>
      </trkpt>
      <trkpt lat="42.187120802700519561767578125" lon="1.74870430491864681243896484375">
        <ele>2166.60009765625</ele>
        <time>2020-10-24T11:33:16.000Z</time>
      </trkpt>
      <trkpt lat="42.1871229819953441619873046875" lon="1.74870195798575878143310546875">
        <ele>2166.39990234375</ele>
        <time>2020-10-24T11:33:17.000Z</time>
      </trkpt>
      <trkpt lat="42.1871270053088665008544921875" lon="1.74869902431964874267578125">
        <ele>2166.39990234375</ele>
        <time>2020-10-24T11:33:21.000Z</time>
      </trkpt>
      <trkpt lat="42.1871243230998516082763671875" lon="1.74869994632899761199951171875">
        <ele>2166.60009765625</ele>
        <time>2020-10-24T11:33:28.000Z</time>
      </trkpt>
      <trkpt lat="42.1871384046971797943115234375" lon="1.74871654249727725982666015625">
        <ele>2165.800048828125</ele>
        <time>2020-10-24T11:33:46.000Z</time>
      </trkpt>
      <trkpt lat="42.187130860984325408935546875" lon="1.74870933406054973602294921875">
        <ele>2166.39990234375</ele>
        <time>2020-10-24T11:34:00.000Z</time>
      </trkpt>
      <trkpt lat="42.18709389679133892059326171875" lon="1.74868502654135227203369140625">
        <ele>2166.800048828125</ele>
        <time>2020-10-24T11:34:24.000Z</time>
      </trkpt>
      <trkpt lat="42.1870911307632923126220703125" lon="1.7486807517707347869873046875">
        <ele>2166.800048828125</ele>
        <time>2020-10-24T11:34:27.000Z</time>
      </trkpt>
      <trkpt lat="42.18708115629851818084716796875" lon="1.74866004846990108489990234375">
        <ele>2166.800048828125</ele>
        <time>2020-10-24T11:34:41.000Z</time>
      </trkpt>
      <trkpt lat="42.18707277439534664154052734375" lon="1.74864646978676319122314453125">
        <ele>2167.199951171875</ele>
        <time>2020-10-24T11:35:03.000Z</time>
      </trkpt>
      <trkpt lat="42.18708182685077190399169921875" lon="1.74865342676639556884765625">
        <ele>2166.800048828125</ele>
        <time>2020-10-24T11:35:34.000Z</time>
      </trkpt>
      <trkpt lat="42.1870492212474346160888671875" lon="1.74864630214869976043701171875">
        <ele>2167</ele>
        <time>2020-10-24T11:35:41.000Z</time>
      </trkpt>
      <trkpt lat="42.18704729340970516204833984375" lon="1.74863867461681365966796875">
        <ele>2166.800048828125</ele>
        <time>2020-10-24T11:35:45.000Z</time>
      </trkpt>
      <trkpt lat="42.18705617822706699371337890625" lon="1.748625934123992919921875">
        <ele>2167.199951171875</ele>
        <time>2020-10-24T11:36:01.000Z</time>
      </trkpt>
      <trkpt lat="42.18706539832055568695068359375" lon="1.7486244253814220428466796875">
        <ele>2167</ele>
        <time>2020-10-24T11:36:16.000Z</time>
      </trkpt>
      <trkpt lat="42.18706975691020488739013671875" lon="1.74862333573400974273681640625">
        <ele>2166.800048828125</ele>
        <time>2020-10-24T11:36:30.000Z</time>
      </trkpt>
      <trkpt lat="42.18707042746245861053466796875" lon="1.74862333573400974273681640625">
        <ele>2166.800048828125</ele>
        <time>2020-10-24T11:36:34.000Z</time>
      </trkpt>
      <trkpt lat="42.187075875699520111083984375" lon="1.748623587191104888916015625">
        <ele>2166.60009765625</ele>
        <time>2020-10-24T11:36:41.000Z</time>
      </trkpt>
      <trkpt lat="42.1870777197182178497314453125" lon="1.7486240901052951812744140625">
        <ele>2166.800048828125</ele>
        <time>2020-10-24T11:36:46.000Z</time>
      </trkpt>
      <trkpt lat="42.187078893184661865234375" lon="1.7486245930194854736328125">
        <ele>2167.199951171875</ele>
        <time>2020-10-24T11:36:52.000Z</time>
      </trkpt>
      <trkpt lat="42.18708090484142303466796875" lon="1.74862551502883434295654296875">
        <ele>2167.199951171875</ele>
        <time>2020-10-24T11:37:11.000Z</time>
      </trkpt>
      <trkpt lat="42.18708098866045475006103515625" lon="1.748625598847866058349609375">
        <ele>2167.199951171875</ele>
        <time>2020-10-24T11:37:21.000Z</time>
      </trkpt>
      <trkpt lat="42.18708098866045475006103515625" lon="1.74862568266689777374267578125">
        <ele>2167.60009765625</ele>
        <time>2020-10-24T11:37:27.000Z</time>
      </trkpt>
      <trkpt lat="42.18708115629851818084716796875" lon="1.74862601794302463531494140625">
        <ele>2167.199951171875</ele>
        <time>2020-10-24T11:37:43.000Z</time>
      </trkpt>
      <trkpt lat="42.187081240117549896240234375" lon="1.74862618558108806610107421875">
        <ele>2167.199951171875</ele>
        <time>2020-10-24T11:37:52.000Z</time>
      </trkpt>
      <trkpt lat="42.187079228460788726806640625" lon="1.74860179424285888671875">
        <ele>2167.39990234375</ele>
        <time>2020-10-24T11:38:08.000Z</time>
      </trkpt>
      <trkpt lat="42.18707746826112270355224609375" lon="1.748570613563060760498046875">
        <ele>2167.39990234375</ele>
        <time>2020-10-24T11:38:11.000Z</time>
      </trkpt>
      <trkpt lat="42.1870730258524417877197265625" lon="1.7485459707677364349365234375">
        <ele>2167.60009765625</ele>
        <time>2020-10-24T11:38:16.000Z</time>
      </trkpt>
      <trkpt lat="42.18707998283207416534423828125" lon="1.74853742122650146484375">
        <ele>2167.800048828125</ele>
        <time>2020-10-24T11:38:22.000Z</time>
      </trkpt>
      <trkpt lat="42.18708266504108905792236328125" lon="1.748538427054882049560546875">
        <ele>2167.800048828125</ele>
        <time>2020-10-24T11:38:24.000Z</time>
      </trkpt>
      <trkpt lat="42.18708266504108905792236328125" lon="1.748538427054882049560546875">
        <ele>2167.39990234375</ele>
        <time>2020-10-24T11:38:32.000Z</time>
      </trkpt>
      <trkpt lat="42.187101356685161590576171875" lon="1.74854052253067493438720703125">
        <ele>2167.39990234375</ele>
        <time>2020-10-24T11:38:56.000Z</time>
      </trkpt>
      <trkpt lat="42.1871058829128742218017578125" lon="1.74853499047458171844482421875">
        <ele>2167.199951171875</ele>
        <time>2020-10-24T11:39:16.000Z</time>
      </trkpt>
      <trkpt lat="42.18710504472255706787109375" lon="1.748535744845867156982421875">
        <ele>2167.199951171875</ele>
        <time>2020-10-24T11:39:26.000Z</time>
      </trkpt>
      <trkpt lat="42.187104038894176483154296875" lon="1.74853633157908916473388671875">
        <ele>2167.199951171875</ele>
        <time>2020-10-24T11:39:37.000Z</time>
      </trkpt>
      <trkpt lat="42.18710395507514476776123046875" lon="1.74854035489261150360107421875">
        <ele>2167.199951171875</ele>
        <time>2020-10-24T11:39:47.000Z</time>
      </trkpt>
      <trkpt lat="42.18710764311254024505615234375" lon="1.74855443648993968963623046875">
        <ele>2167.60009765625</ele>
        <time>2020-10-24T11:40:35.000Z</time>
      </trkpt>
      <trkpt lat="42.18710839748382568359375" lon="1.748551838099956512451171875">
        <ele>2167.60009765625</ele>
        <time>2020-10-24T11:40:44.000Z</time>
      </trkpt>
      <trkpt lat="42.18710864894092082977294921875" lon="1.74855141900479793548583984375">
        <ele>2167.60009765625</ele>
        <time>2020-10-24T11:40:50.000Z</time>
      </trkpt>
      <trkpt lat="42.186999432742595672607421875" lon="1.74881209619343280792236328125">
        <ele>2166.39990234375</ele>
        <time>2020-10-24T12:34:16.000Z</time>
      </trkpt>
      <trkpt lat="42.1869918890297412872314453125" lon="1.74881125800311565399169921875">
        <ele>2165.800048828125</ele>
        <time>2020-10-24T12:34:17.000Z</time>
      </trkpt>
      <trkpt lat="42.1869174577295780181884765625" lon="1.7488162033259868621826171875">
        <ele>2166.60009765625</ele>
        <time>2020-10-24T12:34:26.000Z</time>
      </trkpt>
      <trkpt lat="42.1868648193776607513427734375" lon="1.74883053638041019439697265625">
        <ele>2167.39990234375</ele>
        <time>2020-10-24T12:34:33.000Z</time>
      </trkpt>
      <trkpt lat="42.18686054460704326629638671875" lon="1.7488329671323299407958984375">
        <ele>2167.60009765625</ele>
        <time>2020-10-24T12:34:34.000Z</time>
      </trkpt>
      <trkpt lat="42.186812348663806915283203125" lon="1.74888015724718570709228515625">
        <ele>2168.39990234375</ele>
        <time>2020-10-24T12:34:43.000Z</time>
      </trkpt>
      <trkpt lat="42.186799608170986175537109375" lon="1.74889289774000644683837890625">
        <ele>2168.800048828125</ele>
        <time>2020-10-24T12:34:45.000Z</time>
      </trkpt>
      <trkpt lat="42.1867642365396022796630859375" lon="1.74893799237906932830810546875">
        <ele>2169.39990234375</ele>
        <time>2020-10-24T12:34:52.000Z</time>
      </trkpt>
      <trkpt lat="42.18675761483609676361083984375" lon="1.74894838593900203704833984375">
        <ele>2169.39990234375</ele>
        <time>2020-10-24T12:34:53.000Z</time>
      </trkpt>
      <trkpt lat="42.186752669513225555419921875" lon="1.7489576898515224456787109375">
        <ele>2169.60009765625</ele>
        <time>2020-10-24T12:34:54.000Z</time>
      </trkpt>
      <trkpt lat="42.18674671836197376251220703125" lon="1.74898275174200534820556640625">
        <ele>2169.60009765625</ele>
        <time>2020-10-24T12:34:56.000Z</time>
      </trkpt>
      <trkpt lat="42.18672425486147403717041015625" lon="1.7490492202341556549072265625">
        <ele>2169.800048828125</ele>
        <time>2020-10-24T12:35:01.000Z</time>
      </trkpt>
      <trkpt lat="42.1867102570831775665283203125" lon="1.74908953718841075897216796875">
        <ele>2170</ele>
        <time>2020-10-24T12:35:05.000Z</time>
      </trkpt>
      <trkpt lat="42.1866800822317600250244140625" lon="1.74918986856937408447265625">
        <ele>2169.800048828125</ele>
        <time>2020-10-24T12:35:13.000Z</time>
      </trkpt>
      <trkpt lat="42.18667379580438137054443359375" lon="1.74924477003514766693115234375">
        <ele>2169.800048828125</ele>
        <time>2020-10-24T12:35:18.000Z</time>
      </trkpt>
      <trkpt lat="42.18665518797934055328369140625" lon="1.74930495209991931915283203125">
        <ele>2170.60009765625</ele>
        <time>2020-10-24T12:35:25.000Z</time>
      </trkpt>
      <trkpt lat="42.18662870116531848907470703125" lon="1.7494002543389797210693359375">
        <ele>2170.60009765625</ele>
        <time>2020-10-24T12:35:31.000Z</time>
      </trkpt>
      <trkpt lat="42.18661176972091197967529296875" lon="1.7494917847216129302978515625">
        <ele>2170.60009765625</ele>
        <time>2020-10-24T12:35:34.000Z</time>
      </trkpt>
      <trkpt lat="42.18657807447016239166259765625" lon="1.749595887959003448486328125">
        <ele>2171.199951171875</ele>
        <time>2020-10-24T12:35:38.000Z</time>
      </trkpt>
      <trkpt lat="42.18657170422375202178955078125" lon="1.7496124841272830963134765625">
        <ele>2171.199951171875</ele>
        <time>2020-10-24T12:35:39.000Z</time>
      </trkpt>
      <trkpt lat="42.186560891568660736083984375" lon="1.74965045414865016937255859375">
        <ele>2171.39990234375</ele>
        <time>2020-10-24T12:35:41.000Z</time>
      </trkpt>
      <trkpt lat="42.1865674294531345367431640625" lon="1.74967979080975055694580078125">
        <ele>2171.39990234375</ele>
        <time>2020-10-24T12:35:43.000Z</time>
      </trkpt>
      <trkpt lat="42.18656717799603939056396484375" lon="1.74967492930591106414794921875">
        <ele>2171.60009765625</ele>
        <time>2020-10-24T12:35:44.000Z</time>
      </trkpt>
      <trkpt lat="42.186567597091197967529296875" lon="1.74963838420808315277099609375">
        <ele>2171.39990234375</ele>
        <time>2020-10-24T12:35:47.000Z</time>
      </trkpt>
      <trkpt lat="42.18656047247350215911865234375" lon="1.7496339417994022369384765625">
        <ele>2171.39990234375</ele>
        <time>2020-10-24T12:35:49.000Z</time>
      </trkpt>
      <trkpt lat="42.18655410222709178924560546875" lon="1.7496406473219394683837890625">
        <ele>2171.39990234375</ele>
        <time>2020-10-24T12:35:50.000Z</time>
      </trkpt>
      <trkpt lat="42.1865439601242542266845703125" lon="1.7496862448751926422119140625">
        <ele>2171.60009765625</ele>
        <time>2020-10-24T12:35:54.000Z</time>
      </trkpt>
      <trkpt lat="42.18653633259236812591552734375" lon="1.7497341893613338470458984375">
        <ele>2171.60009765625</ele>
        <time>2020-10-24T12:35:58.000Z</time>
      </trkpt>
      <trkpt lat="42.18653582967817783355712890625" lon="1.749741397798061370849609375">
        <ele>2171.800048828125</ele>
        <time>2020-10-24T12:35:59.000Z</time>
      </trkpt>
      <trkpt lat="42.186534740030765533447265625" lon="1.7497439123690128326416015625">
        <ele>2171.800048828125</ele>
        <time>2020-10-24T12:36:01.000Z</time>
      </trkpt>
      <trkpt lat="42.186533398926258087158203125" lon="1.7497459240257740020751953125">
        <ele>2171.800048828125</ele>
        <time>2020-10-24T12:36:02.000Z</time>
      </trkpt>
      <trkpt lat="42.18653012998402118682861328125" lon="1.74974818713963031768798828125">
        <ele>2172</ele>
        <time>2020-10-24T12:36:08.000Z</time>
      </trkpt>
      <trkpt lat="42.186448238790035247802734375" lon="1.75000366754829883575439453125">
        <ele>2173.39990234375</ele>
        <time>2020-10-24T12:36:29.000Z</time>
      </trkpt>
      <trkpt lat="42.186440527439117431640625" lon="1.75002395175397396087646484375">
        <ele>2173.39990234375</ele>
        <time>2020-10-24T12:36:31.000Z</time>
      </trkpt>
      <trkpt lat="42.18640691600739955902099609375" lon="1.750143729150295257568359375">
        <ele>2174.199951171875</ele>
        <time>2020-10-24T12:36:40.000Z</time>
      </trkpt>
      <trkpt lat="42.18640557490289211273193359375" lon="1.75017046742141246795654296875">
        <ele>2174.39990234375</ele>
        <time>2020-10-24T12:36:42.000Z</time>
      </trkpt>
      <trkpt lat="42.18639836646616458892822265625" lon="1.750226207077503204345703125">
        <ele>2174.39990234375</ele>
        <time>2020-10-24T12:36:46.000Z</time>
      </trkpt>
      <trkpt lat="42.1863954328000545501708984375" lon="1.750318072736263275146484375">
        <ele>2174.39990234375</ele>
        <time>2020-10-24T12:36:52.000Z</time>
      </trkpt>
      <trkpt lat="42.1863813512027263641357421875" lon="1.75042594783008098602294921875">
        <ele>2175</ele>
        <time>2020-10-24T12:37:00.000Z</time>
      </trkpt>
      <trkpt lat="42.18636450357735157012939453125" lon="1.7504805140197277069091796875">
        <ele>2175.199951171875</ele>
        <time>2020-10-24T12:37:04.000Z</time>
      </trkpt>
      <trkpt lat="42.1863324008882045745849609375" lon="1.75050741992890834808349609375">
        <ele>2175.39990234375</ele>
        <time>2020-10-24T12:37:07.000Z</time>
      </trkpt>
      <trkpt lat="42.18628504313528537750244140625" lon="1.75054899416863918304443359375">
        <ele>2176.199951171875</ele>
        <time>2020-10-24T12:37:12.000Z</time>
      </trkpt>
      <trkpt lat="42.18626894988119602203369140625" lon="1.7505710385739803314208984375">
        <ele>2176.39990234375</ele>
        <time>2020-10-24T12:37:14.000Z</time>
      </trkpt>
      <trkpt lat="42.1862623281776905059814453125" lon="1.75058201886713504791259765625">
        <ele>2176.60009765625</ele>
        <time>2020-10-24T12:37:15.000Z</time>
      </trkpt>
      <trkpt lat="42.18621513806283473968505859375" lon="1.75066768191754817962646484375">
        <ele>2177.60009765625</ele>
        <time>2020-10-24T12:37:23.000Z</time>
      </trkpt>
      <trkpt lat="42.18620457686483860015869140625" lon="1.75068746320903301239013671875">
        <ele>2178</ele>
        <time>2020-10-24T12:37:25.000Z</time>
      </trkpt>
      <trkpt lat="42.18617557547986507415771484375" lon="1.7507408559322357177734375">
        <ele>2178.39990234375</ele>
        <time>2020-10-24T12:37:29.000Z</time>
      </trkpt>
      <trkpt lat="42.18615646474063396453857421875" lon="1.750766001641750335693359375">
        <ele>2178.60009765625</ele>
        <time>2020-10-24T12:37:33.000Z</time>
      </trkpt>
      <trkpt lat="42.18615093268454074859619140625" lon="1.75077681429684162139892578125">
        <ele>2178.800048828125</ele>
        <time>2020-10-24T12:37:34.000Z</time>
      </trkpt>
      <trkpt lat="42.186139114201068878173828125" lon="1.7508052289485931396484375">
        <ele>2178.800048828125</ele>
        <time>2020-10-24T12:37:36.000Z</time>
      </trkpt>
      <trkpt lat="42.186104916036128997802734375" lon="1.75087161362171173095703125">
        <ele>2179.39990234375</ele>
        <time>2020-10-24T12:37:42.000Z</time>
      </trkpt>
      <trkpt lat="42.1860742382705211639404296875" lon="1.75092525780200958251953125">
        <ele>2179.60009765625</ele>
        <time>2020-10-24T12:37:47.000Z</time>
      </trkpt>
      <trkpt lat="42.18606795184314250946044921875" lon="1.75093255005776882171630859375">
        <ele>2179.800048828125</ele>
        <time>2020-10-24T12:37:48.000Z</time>
      </trkpt>
      <trkpt lat="42.1860192529857158660888671875" lon="1.75101385451853275299072265625">
        <ele>2180.800048828125</ele>
        <time>2020-10-24T12:37:56.000Z</time>
      </trkpt>
      <trkpt lat="42.18598078005015850067138671875" lon="1.751108653843402862548828125">
        <ele>2181.800048828125</ele>
        <time>2020-10-24T12:38:04.000Z</time>
      </trkpt>
      <trkpt lat="42.1859699673950672149658203125" lon="1.75111058168113231658935546875">
        <ele>2181.800048828125</ele>
        <time>2020-10-24T12:38:05.000Z</time>
      </trkpt>
      <trkpt lat="42.18595999293029308319091796875" lon="1.75112030468881130218505859375">
        <ele>2182</ele>
        <time>2020-10-24T12:38:06.000Z</time>
      </trkpt>
      <trkpt lat="42.185935936868190765380859375" lon="1.7511592805385589599609375">
        <ele>2182.199951171875</ele>
        <time>2020-10-24T12:38:11.000Z</time>
      </trkpt>
      <trkpt lat="42.18587332405149936676025390625" lon="1.75129900686442852020263671875">
        <ele>2182.60009765625</ele>
        <time>2020-10-24T12:38:23.000Z</time>
      </trkpt>
      <trkpt lat="42.18583426438271999359130859375" lon="1.75136388279497623443603515625">
        <ele>2182.800048828125</ele>
        <time>2020-10-24T12:38:28.000Z</time>
      </trkpt>
      <trkpt lat="42.18579269014298915863037109375" lon="1.7514122463762760162353515625">
        <ele>2183</ele>
        <time>2020-10-24T12:38:33.000Z</time>
      </trkpt>
      <trkpt lat="42.1857228688895702362060546875" lon="1.7515527270734310150146484375">
        <ele>2183.800048828125</ele>
        <time>2020-10-24T12:38:45.000Z</time>
      </trkpt>
      <trkpt lat="42.18571574427187442779541015625" lon="1.75156555138528347015380859375">
        <ele>2184</ele>
        <time>2020-10-24T12:38:46.000Z</time>
      </trkpt>
      <trkpt lat="42.18569462187588214874267578125" lon="1.75160528160631656646728515625">
        <ele>2184.39990234375</ele>
        <time>2020-10-24T12:38:49.000Z</time>
      </trkpt>
      <trkpt lat="42.18567274510860443115234375" lon="1.7516442574560642242431640625">
        <ele>2185.199951171875</ele>
        <time>2020-10-24T12:38:53.000Z</time>
      </trkpt>
      <trkpt lat="42.1856640279293060302734375" lon="1.75166286528110504150390625">
        <ele>2185.199951171875</ele>
        <time>2020-10-24T12:38:55.000Z</time>
      </trkpt>
      <trkpt lat="42.185619771480560302734375" lon="1.751725561916828155517578125">
        <ele>2186.199951171875</ele>
        <time>2020-10-24T12:39:02.000Z</time>
      </trkpt>
      <trkpt lat="42.18560745008289813995361328125" lon="1.751740984618663787841796875">
        <ele>2186.39990234375</ele>
        <time>2020-10-24T12:39:04.000Z</time>
      </trkpt>
      <trkpt lat="42.185595966875553131103515625" lon="1.75175799988210201263427734375">
        <ele>2186.39990234375</ele>
        <time>2020-10-24T12:39:06.000Z</time>
      </trkpt>
      <trkpt lat="42.1855649538338184356689453125" lon="1.75180661492049694061279296875">
        <ele>2186.60009765625</ele>
        <time>2020-10-24T12:39:11.000Z</time>
      </trkpt>
      <trkpt lat="42.18555866740643978118896484375" lon="1.75181499682366847991943359375">
        <ele>2186.800048828125</ele>
        <time>2020-10-24T12:39:12.000Z</time>
      </trkpt>
      <trkpt lat="42.18553301878273487091064453125" lon="1.751867718994617462158203125">
        <ele>2187.199951171875</ele>
        <time>2020-10-24T12:39:17.000Z</time>
      </trkpt>
      <trkpt lat="42.1854938752949237823486328125" lon="1.7519416473805904388427734375">
        <ele>2188</ele>
        <time>2020-10-24T12:39:23.000Z</time>
      </trkpt>
      <trkpt lat="42.1854653768241405487060546875" lon="1.7519798688590526580810546875">
        <ele>2188.199951171875</ele>
        <time>2020-10-24T12:39:27.000Z</time>
      </trkpt>
      <trkpt lat="42.185417599976062774658203125" lon="1.75204239785671234130859375">
        <ele>2189</ele>
        <time>2020-10-24T12:39:33.000Z</time>
      </trkpt>
      <trkpt lat="42.18539605848491191864013671875" lon="1.75206460990011692047119140625">
        <ele>2189.39990234375</ele>
        <time>2020-10-24T12:39:36.000Z</time>
      </trkpt>
      <trkpt lat="42.185308635234832763671875" lon="1.7521739937365055084228515625">
        <ele>2190.39990234375</ele>
        <time>2020-10-24T12:39:46.000Z</time>
      </trkpt>
      <trkpt lat="42.18530335463583469390869140625" lon="1.75218195654451847076416015625">
        <ele>2190.39990234375</ele>
        <time>2020-10-24T12:39:47.000Z</time>
      </trkpt>
      <trkpt lat="42.1852482855319976806640625" lon="1.75227306783199310302734375">
        <ele>2191.39990234375</ele>
        <time>2020-10-24T12:39:55.000Z</time>
      </trkpt>
      <trkpt lat="42.185226492583751678466796875" lon="1.7522940225899219512939453125">
        <ele>2191.60009765625</ele>
        <time>2020-10-24T12:39:58.000Z</time>
      </trkpt>
      <trkpt lat="42.1851572580635547637939453125" lon="1.75238295458257198333740234375">
        <ele>2192.199951171875</ele>
        <time>2020-10-24T12:40:07.000Z</time>
      </trkpt>
      <trkpt lat="42.18509531579911708831787109375" lon="1.7524733953177928924560546875">
        <ele>2192.39990234375</ele>
        <time>2020-10-24T12:40:15.000Z</time>
      </trkpt>
      <trkpt lat="42.1850704215466976165771484375" lon="1.75249577499926090240478515625">
        <ele>2192.39990234375</ele>
        <time>2020-10-24T12:40:18.000Z</time>
      </trkpt>
      <trkpt lat="42.18504301272332668304443359375" lon="1.75252251327037811279296875">
        <ele>2192.60009765625</ele>
        <time>2020-10-24T12:40:21.000Z</time>
      </trkpt>
      <trkpt lat="42.18498953618109226226806640625" lon="1.7525749839842319488525390625">
        <ele>2193</ele>
        <time>2020-10-24T12:40:28.000Z</time>
      </trkpt>
      <trkpt lat="42.1848974190652370452880859375" lon="1.752684116363525390625">
        <ele>2193</ele>
        <time>2020-10-24T12:40:38.000Z</time>
      </trkpt>
      <trkpt lat="42.18479976989328861236572265625" lon="1.75276231952011585235595703125">
        <ele>2193</ele>
        <time>2020-10-24T12:40:49.000Z</time>
      </trkpt>
      <trkpt lat="42.1847762167453765869140625" lon="1.75277908332645893096923828125">
        <ele>2193</ele>
        <time>2020-10-24T12:40:51.000Z</time>
      </trkpt>
      <trkpt lat="42.1847126819193363189697265625" lon="1.7528450489044189453125">
        <ele>2193.60009765625</ele>
        <time>2020-10-24T12:40:58.000Z</time>
      </trkpt>
      <trkpt lat="42.1846768073737621307373046875" lon="1.7528841085731983184814453125">
        <ele>2193.800048828125</ele>
        <time>2020-10-24T12:41:02.000Z</time>
      </trkpt>
      <trkpt lat="42.1846099197864532470703125" lon="1.75297169946134090423583984375">
        <ele>2194.199951171875</ele>
        <time>2020-10-24T12:41:11.000Z</time>
      </trkpt>
      <trkpt lat="42.1845906414091587066650390625" lon="1.75298829562962055206298828125">
        <ele>2194.199951171875</ele>
        <time>2020-10-24T12:41:13.000Z</time>
      </trkpt>
      <trkpt lat="42.18456490896642208099365234375" lon="1.75301059149205684661865234375">
        <ele>2194.39990234375</ele>
        <time>2020-10-24T12:41:16.000Z</time>
      </trkpt>
      <trkpt lat="42.1845373325049877166748046875" lon="1.75304026342928409576416015625">
        <ele>2194.60009765625</ele>
        <time>2020-10-24T12:41:19.000Z</time>
      </trkpt>
      <trkpt lat="42.18451528809964656829833984375" lon="1.753070019185543060302734375">
        <ele>2194.60009765625</ele>
        <time>2020-10-24T12:41:22.000Z</time>
      </trkpt>
      <trkpt lat="42.184488885104656219482421875" lon="1.75309139303863048553466796875">
        <ele>2194.800048828125</ele>
        <time>2020-10-24T12:41:25.000Z</time>
      </trkpt>
      <trkpt lat="42.18443783931434154510498046875" lon="1.7531375773251056671142578125">
        <ele>2195</ele>
        <time>2020-10-24T12:41:31.000Z</time>
      </trkpt>
      <trkpt lat="42.18441068194806575775146484375" lon="1.75316280685365200042724609375">
        <ele>2195.199951171875</ele>
        <time>2020-10-24T12:41:34.000Z</time>
      </trkpt>
      <trkpt lat="42.1843713708221912384033203125" lon="1.75319499336183071136474609375">
        <ele>2195.60009765625</ele>
        <time>2020-10-24T12:41:40.000Z</time>
      </trkpt>
      <trkpt lat="42.18434932641685009002685546875" lon="1.7532089911401271820068359375">
        <ele>2195.800048828125</ele>
        <time>2020-10-24T12:41:42.000Z</time>
      </trkpt>
      <trkpt lat="42.1843405254185199737548828125" lon="1.75321326591074466705322265625">
        <ele>2196</ele>
        <time>2020-10-24T12:41:43.000Z</time>
      </trkpt>
      <trkpt lat="42.1842942573130130767822265625" lon="1.75324712879955768585205078125">
        <ele>2196.60009765625</ele>
        <time>2020-10-24T12:41:48.000Z</time>
      </trkpt>
      <trkpt lat="42.18427003361284732818603515625" lon="1.75327487289905548095703125">
        <ele>2197</ele>
        <time>2020-10-24T12:41:52.000Z</time>
      </trkpt>
      <trkpt lat="42.18418504111468791961669921875" lon="1.75335810519754886627197265625">
        <ele>2197.800048828125</ele>
        <time>2020-10-24T12:42:02.000Z</time>
      </trkpt>
      <trkpt lat="42.18415000475943088531494140625" lon="1.75342130474746227264404296875">
        <ele>2198.199951171875</ele>
        <time>2020-10-24T12:42:07.000Z</time>
      </trkpt>
      <trkpt lat="42.18408864922821521759033203125" lon="1.75347612239420413970947265625">
        <ele>2198.800048828125</ele>
        <time>2020-10-24T12:42:14.000Z</time>
      </trkpt>
      <trkpt lat="42.18407859094440937042236328125" lon="1.753483749926090240478515625">
        <ele>2198.800048828125</ele>
        <time>2020-10-24T12:42:15.000Z</time>
      </trkpt>
      <trkpt lat="42.1840676106512546539306640625" lon="1.75349188037216663360595703125">
        <ele>2198.800048828125</ele>
        <time>2020-10-24T12:42:16.000Z</time>
      </trkpt>
      <trkpt lat="42.18406350351870059967041015625" lon="1.753499843180179595947265625">
        <ele>2198.800048828125</ele>
        <time>2020-10-24T12:42:17.000Z</time>
      </trkpt>
      <trkpt lat="42.18405109830200672149658203125" lon="1.75351560115814208984375">
        <ele>2199</ele>
        <time>2020-10-24T12:42:19.000Z</time>
      </trkpt>
      <trkpt lat="42.1840334124863147735595703125" lon="1.7535316944122314453125">
        <ele>2199.199951171875</ele>
        <time>2020-10-24T12:42:21.000Z</time>
      </trkpt>
      <trkpt lat="42.18393291346728801727294921875" lon="1.7536274157464504241943359375">
        <ele>2199.60009765625</ele>
        <time>2020-10-24T12:42:33.000Z</time>
      </trkpt>
      <trkpt lat="42.1839120425283908843994140625" lon="1.7536304332315921783447265625">
        <ele>2199.60009765625</ele>
        <time>2020-10-24T12:42:35.000Z</time>
      </trkpt>
      <trkpt lat="42.183873653411865234375" lon="1.75365784205496311187744140625">
        <ele>2199.800048828125</ele>
        <time>2020-10-24T12:42:40.000Z</time>
      </trkpt>
      <trkpt lat="42.1838674508035182952880859375" lon="1.75366002134978771209716796875">
        <ele>2200</ele>
        <time>2020-10-24T12:42:41.000Z</time>
      </trkpt>
      <trkpt lat="42.18383501283824443817138671875" lon="1.75367494113743305206298828125">
        <ele>2200.199951171875</ele>
        <time>2020-10-24T12:42:45.000Z</time>
      </trkpt>
      <trkpt lat="42.18379192985594272613525390625" lon="1.753702349960803985595703125">
        <ele>2200.39990234375</ele>
        <time>2020-10-24T12:42:49.000Z</time>
      </trkpt>
      <trkpt lat="42.18378178775310516357421875" lon="1.753706037998199462890625">
        <ele>2200.39990234375</ele>
        <time>2020-10-24T12:42:50.000Z</time>
      </trkpt>
      <trkpt lat="42.18368522822856903076171875" lon="1.7537608556449413299560546875">
        <ele>2200.800048828125</ele>
        <time>2020-10-24T12:42:59.000Z</time>
      </trkpt>
      <trkpt lat="42.18366033397614955902099609375" lon="1.75376764498651027679443359375">
        <ele>2201</ele>
        <time>2020-10-24T12:43:02.000Z</time>
      </trkpt>
      <trkpt lat="42.18356545083224773406982421875" lon="1.75379932858049869537353515625">
        <ele>2201.199951171875</ele>
        <time>2020-10-24T12:43:11.000Z</time>
      </trkpt>
      <trkpt lat="42.1835167519748210906982421875" lon="1.7538218759000301361083984375">
        <ele>2201.199951171875</ele>
        <time>2020-10-24T12:43:17.000Z</time>
      </trkpt>
      <trkpt lat="42.18349470756947994232177734375" lon="1.75382430665194988250732421875">
        <ele>2201.199951171875</ele>
        <time>2020-10-24T12:43:19.000Z</time>
      </trkpt>
      <trkpt lat="42.1834859065711498260498046875" lon="1.753829754889011383056640625">
        <ele>2201.199951171875</ele>
        <time>2020-10-24T12:43:20.000Z</time>
      </trkpt>
      <trkpt lat="42.18343234620988368988037109375" lon="1.7538549005985260009765625">
        <ele>2201.39990234375</ele>
        <time>2020-10-24T12:43:26.000Z</time>
      </trkpt>
      <trkpt lat="42.183377444744110107421875" lon="1.75387660972774028778076171875">
        <ele>2201.39990234375</ele>
        <time>2020-10-24T12:43:32.000Z</time>
      </trkpt>
      <trkpt lat="42.18334400095045566558837890625" lon="1.7539043538272380828857421875">
        <ele>2201.60009765625</ele>
        <time>2020-10-24T12:43:36.000Z</time>
      </trkpt>
      <trkpt lat="42.18329722993075847625732421875" lon="1.75392329692840576171875">
        <ele>2201.800048828125</ele>
        <time>2020-10-24T12:43:42.000Z</time>
      </trkpt>
      <trkpt lat="42.18323788605630397796630859375" lon="1.75397358834743499755859375">
        <ele>2201.800048828125</ele>
        <time>2020-10-24T12:43:49.000Z</time>
      </trkpt>
      <trkpt lat="42.1832237206399440765380859375" lon="1.75400032661855220794677734375">
        <ele>2201.60009765625</ele>
        <time>2020-10-24T12:43:52.000Z</time>
      </trkpt>
      <trkpt lat="42.18318038620054721832275390625" lon="1.7540243826806545257568359375">
        <ele>2201.60009765625</ele>
        <time>2020-10-24T12:43:57.000Z</time>
      </trkpt>
      <trkpt lat="42.18315658159554004669189453125" lon="1.754052378237247467041015625">
        <ele>2201.800048828125</ele>
        <time>2020-10-24T12:44:01.000Z</time>
      </trkpt>
      <trkpt lat="42.18315205536782741546630859375" lon="1.7540555633604526519775390625">
        <ele>2202</ele>
        <time>2020-10-24T12:44:02.000Z</time>
      </trkpt>
      <trkpt lat="42.18313210643827915191650390625" lon="1.75406344234943389892578125">
        <ele>2202.60009765625</ele>
        <time>2020-10-24T12:44:05.000Z</time>
      </trkpt>
      <trkpt lat="42.1831248141825199127197265625" lon="1.75406956113874912261962890625">
        <ele>2202.800048828125</ele>
        <time>2020-10-24T12:44:06.000Z</time>
      </trkpt>
      <trkpt lat="42.183093130588531494140625" lon="1.7541011609137058258056640625">
        <ele>2203</ele>
        <time>2020-10-24T12:44:10.000Z</time>
      </trkpt>
      <trkpt lat="42.18302599154412746429443359375" lon="1.754122786223888397216796875">
        <ele>2203.39990234375</ele>
        <time>2020-10-24T12:44:17.000Z</time>
      </trkpt>
      <trkpt lat="42.1829766221344470977783203125" lon="1.75412169657647609710693359375">
        <ele>2204.199951171875</ele>
        <time>2020-10-24T12:44:23.000Z</time>
      </trkpt>
      <trkpt lat="42.1829487942159175872802734375" lon="1.7541293241083621978759765625">
        <ele>2204.60009765625</ele>
        <time>2020-10-24T12:44:26.000Z</time>
      </trkpt>
      <trkpt lat="42.182893641293048858642578125" lon="1.754162348806858062744140625">
        <ele>2205</ele>
        <time>2020-10-24T12:44:31.000Z</time>
      </trkpt>
      <trkpt lat="42.18287461437284946441650390625" lon="1.7541782744228839874267578125">
        <ele>2205.199951171875</ele>
        <time>2020-10-24T12:44:33.000Z</time>
      </trkpt>
      <trkpt lat="42.1828586049377918243408203125" lon="1.754194535315036773681640625">
        <ele>2205.199951171875</ele>
        <time>2020-10-24T12:44:35.000Z</time>
      </trkpt>
      <trkpt lat="42.18285265378654003143310546875" lon="1.7542024143040180206298828125">
        <ele>2205.39990234375</ele>
        <time>2020-10-24T12:44:36.000Z</time>
      </trkpt>
      <trkpt lat="42.18280102126300334930419921875" lon="1.75424558110535144805908203125">
        <ele>2205.60009765625</ele>
        <time>2020-10-24T12:44:41.000Z</time>
      </trkpt>
      <trkpt lat="42.18275307677686214447021484375" lon="1.7543009854853153228759765625">
        <ele>2206.199951171875</ele>
        <time>2020-10-24T12:44:47.000Z</time>
      </trkpt>
      <trkpt lat="42.182739078998565673828125" lon="1.75432152114808559417724609375">
        <ele>2206.199951171875</ele>
        <time>2020-10-24T12:44:49.000Z</time>
      </trkpt>
      <trkpt lat="42.18268132768571376800537109375" lon="1.7544181644916534423828125">
        <ele>2206.60009765625</ele>
        <time>2020-10-24T12:44:57.000Z</time>
      </trkpt>
      <trkpt lat="42.182624749839305877685546875" lon="1.754495613276958465576171875">
        <ele>2207.199951171875</ele>
        <time>2020-10-24T12:45:05.000Z</time>
      </trkpt>
      <trkpt lat="42.18261594884097576141357421875" lon="1.75450407899916172027587890625">
        <ele>2207.39990234375</ele>
        <time>2020-10-24T12:45:06.000Z</time>
      </trkpt>
      <trkpt lat="42.18258895911276340484619140625" lon="1.7545410431921482086181640625">
        <ele>2207.60009765625</ele>
        <time>2020-10-24T12:45:10.000Z</time>
      </trkpt>
      <trkpt lat="42.18255199491977691650390625" lon="1.75457214005291461944580078125">
        <ele>2208</ele>
        <time>2020-10-24T12:45:15.000Z</time>
      </trkpt>
      <trkpt lat="42.1824882924556732177734375" lon="1.75466383807361125946044921875">
        <ele>2208</ele>
        <time>2020-10-24T12:45:24.000Z</time>
      </trkpt>
      <trkpt lat="42.18244009651243686676025390625" lon="1.7548008821904659271240234375">
        <ele>2208</ele>
        <time>2020-10-24T12:45:33.000Z</time>
      </trkpt>
      <trkpt lat="42.18236885033547878265380859375" lon="1.75490439869463443756103515625">
        <ele>2208.199951171875</ele>
        <time>2020-10-24T12:45:42.000Z</time>
      </trkpt>
      <trkpt lat="42.182299531996250152587890625" lon="1.75501428544521331787109375">
        <ele>2208.199951171875</ele>
        <time>2020-10-24T12:45:51.000Z</time>
      </trkpt>
      <trkpt lat="42.1822772361338138580322265625" lon="1.75505409948527812957763671875">
        <ele>2208.199951171875</ele>
        <time>2020-10-24T12:45:54.000Z</time>
      </trkpt>
      <trkpt lat="42.182240523397922515869140625" lon="1.75509466789662837982177734375">
        <ele>2208.800048828125</ele>
        <time>2020-10-24T12:45:59.000Z</time>
      </trkpt>
      <trkpt lat="42.1822031401097774505615234375" lon="1.755138337612152099609375">
        <ele>2209.39990234375</ele>
        <time>2020-10-24T12:46:03.000Z</time>
      </trkpt>
      <trkpt lat="42.182171456515789031982421875" lon="1.75517748109996318817138671875">
        <ele>2210</ele>
        <time>2020-10-24T12:46:08.000Z</time>
      </trkpt>
      <trkpt lat="42.182158716022968292236328125" lon="1.7551955021917819976806640625">
        <ele>2210.199951171875</ele>
        <time>2020-10-24T12:46:10.000Z</time>
      </trkpt>
      <trkpt lat="42.18214161694049835205078125" lon="1.75521234981715679168701171875">
        <ele>2210.39990234375</ele>
        <time>2020-10-24T12:46:12.000Z</time>
      </trkpt>
      <trkpt lat="42.182096354663372039794921875" lon="1.7552665807306766510009765625">
        <ele>2211</ele>
        <time>2020-10-24T12:46:18.000Z</time>
      </trkpt>
      <trkpt lat="42.18207548372447490692138671875" lon="1.75530002452433109283447265625">
        <ele>2210.800048828125</ele>
        <time>2020-10-24T12:46:21.000Z</time>
      </trkpt>
      <trkpt lat="42.1820510923862457275390625" lon="1.75534780137240886688232421875">
        <ele>2211.199951171875</ele>
        <time>2020-10-24T12:46:25.000Z</time>
      </trkpt>
      <trkpt lat="42.18203726224601268768310546875" lon="1.755391471087932586669921875">
        <ele>2211.60009765625</ele>
        <time>2020-10-24T12:46:28.000Z</time>
      </trkpt>
      <trkpt lat="42.1819982863962650299072265625" lon="1.75543899647891521453857421875">
        <ele>2212.39990234375</ele>
        <time>2020-10-24T12:46:33.000Z</time>
      </trkpt>
      <trkpt lat="42.181986384093761444091796875" lon="1.75546213053166866302490234375">
        <ele>2212.60009765625</ele>
        <time>2020-10-24T12:46:35.000Z</time>
      </trkpt>
      <trkpt lat="42.18195327557623386383056640625" lon="1.75554762594401836395263671875">
        <ele>2212.800048828125</ele>
        <time>2020-10-24T12:46:42.000Z</time>
      </trkpt>
      <trkpt lat="42.1819282136857509613037109375" lon="1.7556189559400081634521484375">
        <ele>2212.39990234375</ele>
        <time>2020-10-24T12:46:49.000Z</time>
      </trkpt>
      <trkpt lat="42.18192460946738719940185546875" lon="1.75562742166221141815185546875">
        <ele>2212.39990234375</ele>
        <time>2020-10-24T12:46:50.000Z</time>
      </trkpt>
      <trkpt lat="42.181905917823314666748046875" lon="1.75566136837005615234375">
        <ele>2212.60009765625</ele>
        <time>2020-10-24T12:46:54.000Z</time>
      </trkpt>
      <trkpt lat="42.1818842925131320953369140625" lon="1.75568073056638240814208984375">
        <ele>2212.800048828125</ele>
        <time>2020-10-24T12:46:57.000Z</time>
      </trkpt>
      <trkpt lat="42.18183810822665691375732421875" lon="1.7557684890925884246826171875">
        <ele>2213.39990234375</ele>
        <time>2020-10-24T12:47:06.000Z</time>
      </trkpt>
      <trkpt lat="42.1818242780864238739013671875" lon="1.75579858012497425079345703125">
        <ele>2213.60009765625</ele>
        <time>2020-10-24T12:47:09.000Z</time>
      </trkpt>
      <trkpt lat="42.1817927621304988861083984375" lon="1.75581500865519046783447265625">
        <ele>2213.800048828125</ele>
        <time>2020-10-24T12:47:13.000Z</time>
      </trkpt>
      <trkpt lat="42.18173417262732982635498046875" lon="1.7559210397303104400634765625">
        <ele>2214.199951171875</ele>
        <time>2020-10-24T12:47:23.000Z</time>
      </trkpt>
      <trkpt lat="42.1817287243902683258056640625" lon="1.7559341154992580413818359375">
        <ele>2214.199951171875</ele>
        <time>2020-10-24T12:47:24.000Z</time>
      </trkpt>
      <trkpt lat="42.1817042492330074310302734375" lon="1.7559599317610263824462890625">
        <ele>2214.199951171875</ele>
        <time>2020-10-24T12:47:27.000Z</time>
      </trkpt>
      <trkpt lat="42.181671559810638427734375" lon="1.75597091205418109893798828125">
        <ele>2214.39990234375</ele>
        <time>2020-10-24T12:47:31.000Z</time>
      </trkpt>
      <trkpt lat="42.18161724507808685302734375" lon="1.75600913353264331817626953125">
        <ele>2214.60009765625</ele>
        <time>2020-10-24T12:47:38.000Z</time>
      </trkpt>
      <trkpt lat="42.1815956197679042816162109375" lon="1.7560457624495029449462890625">
        <ele>2214.60009765625</ele>
        <time>2020-10-24T12:47:41.000Z</time>
      </trkpt>
      <trkpt lat="42.1815637685358524322509765625" lon="1.7560940422117710113525390625">
        <ele>2214.60009765625</ele>
        <time>2020-10-24T12:47:45.000Z</time>
      </trkpt>
      <trkpt lat="42.18154792673885822296142578125" lon="1.75611977465450763702392578125">
        <ele>2214.800048828125</ele>
        <time>2020-10-24T12:47:47.000Z</time>
      </trkpt>
      <trkpt lat="42.18151205219328403472900390625" lon="1.756171993911266326904296875">
        <ele>2215.199951171875</ele>
        <time>2020-10-24T12:47:53.000Z</time>
      </trkpt>
      <trkpt lat="42.18147282488644123077392578125" lon="1.7562286555767059326171875">
        <ele>2215.60009765625</ele>
        <time>2020-10-24T12:47:59.000Z</time>
      </trkpt>
      <trkpt lat="42.18146360479295253753662109375" lon="1.7562393844127655029296875">
        <ele>2215.800048828125</ele>
        <time>2020-10-24T12:48:01.000Z</time>
      </trkpt>
      <trkpt lat="42.18145304359495639801025390625" lon="1.75625522620975971221923828125">
        <ele>2215.800048828125</ele>
        <time>2020-10-24T12:48:03.000Z</time>
      </trkpt>
      <trkpt lat="42.18142638914287090301513671875" lon="1.756294034421443939208984375">
        <ele>2216.39990234375</ele>
        <time>2020-10-24T12:48:08.000Z</time>
      </trkpt>
      <trkpt lat="42.1813981421291828155517578125" lon="1.7563307471573352813720703125">
        <ele>2217</ele>
        <time>2020-10-24T12:48:12.000Z</time>
      </trkpt>
      <trkpt lat="42.181374169886112213134765625" lon="1.75633988343179225921630859375">
        <ele>2217.39990234375</ele>
        <time>2020-10-24T12:48:15.000Z</time>
      </trkpt>
      <trkpt lat="42.18136486597359180450439453125" lon="1.7563574016094207763671875">
        <ele>2218</ele>
        <time>2020-10-24T12:48:18.000Z</time>
      </trkpt>
      <trkpt lat="42.18136201612651348114013671875" lon="1.75636871717870235443115234375">
        <ele>2218.199951171875</ele>
        <time>2020-10-24T12:48:19.000Z</time>
      </trkpt>
      <trkpt lat="42.18134927563369274139404296875" lon="1.75639755092561244964599609375">
        <ele>2218.199951171875</ele>
        <time>2020-10-24T12:48:21.000Z</time>
      </trkpt>
      <trkpt lat="42.1813320927321910858154296875" lon="1.7564128898084163665771484375">
        <ele>2218.39990234375</ele>
        <time>2020-10-24T12:48:23.000Z</time>
      </trkpt>
      <trkpt lat="42.1812920272350311279296875" lon="1.75645488314330577850341796875">
        <ele>2218.800048828125</ele>
        <time>2020-10-24T12:48:28.000Z</time>
      </trkpt>
      <trkpt lat="42.1812759339809417724609375" lon="1.75648254342377185821533203125">
        <ele>2219</ele>
        <time>2020-10-24T12:48:31.000Z</time>
      </trkpt>
      <trkpt lat="42.1812707372009754180908203125" lon="1.75649042241275310516357421875">
        <ele>2219.199951171875</ele>
        <time>2020-10-24T12:48:32.000Z</time>
      </trkpt>
      <trkpt lat="42.1812529675662517547607421875" lon="1.75652302801609039306640625">
        <ele>2220</ele>
        <time>2020-10-24T12:48:36.000Z</time>
      </trkpt>
      <trkpt lat="42.18123905360698699951171875" lon="1.7565681226551532745361328125">
        <ele>2221</ele>
        <time>2020-10-24T12:48:41.000Z</time>
      </trkpt>
      <trkpt lat="42.1812335215508937835693359375" lon="1.75657591782510280609130859375">
        <ele>2221.199951171875</ele>
        <time>2020-10-24T12:48:42.000Z</time>
      </trkpt>
      <trkpt lat="42.181204520165920257568359375" lon="1.75663157366216182708740234375">
        <ele>2222.199951171875</ele>
        <time>2020-10-24T12:48:48.000Z</time>
      </trkpt>
      <trkpt lat="42.181185744702816009521484375" lon="1.7566576413810253143310546875">
        <ele>2222.60009765625</ele>
        <time>2020-10-24T12:48:51.000Z</time>
      </trkpt>
      <trkpt lat="42.18118079937994480133056640625" lon="1.756685636937618255615234375">
        <ele>2223.199951171875</ele>
        <time>2020-10-24T12:48:54.000Z</time>
      </trkpt>
      <trkpt lat="42.1811798773705959320068359375" lon="1.75670818425714969635009765625">
        <ele>2223.60009765625</ele>
        <time>2020-10-24T12:48:56.000Z</time>
      </trkpt>
      <trkpt lat="42.18117727898061275482177734375" lon="1.7567173205316066741943359375">
        <ele>2223.60009765625</ele>
        <time>2020-10-24T12:48:57.000Z</time>
      </trkpt>
      <trkpt lat="42.18115598894655704498291015625" lon="1.756757386028766632080078125">
        <ele>2224</ele>
        <time>2020-10-24T12:49:02.000Z</time>
      </trkpt>
      <trkpt lat="42.1811423264443874359130859375" lon="1.7567820288240909576416015625">
        <ele>2224.39990234375</ele>
        <time>2020-10-24T12:49:04.000Z</time>
      </trkpt>
      <trkpt lat="42.18108507804572582244873046875" lon="1.75683818757534027099609375">
        <ele>2225.199951171875</ele>
        <time>2020-10-24T12:49:12.000Z</time>
      </trkpt>
      <trkpt lat="42.18102187849581241607666015625" lon="1.75689526833593845367431640625">
        <ele>2225</ele>
        <time>2020-10-24T12:49:20.000Z</time>
      </trkpt>
      <trkpt lat="42.18092431314289569854736328125" lon="1.7569634132087230682373046875">
        <ele>2224.39990234375</ele>
        <time>2020-10-24T12:49:30.000Z</time>
      </trkpt>
      <trkpt lat="42.18091324903070926666259765625" lon="1.756965927779674530029296875">
        <ele>2224.39990234375</ele>
        <time>2020-10-24T12:49:31.000Z</time>
      </trkpt>
      <trkpt lat="42.18086815439164638519287109375" lon="1.7569823563098907470703125">
        <ele>2224.199951171875</ele>
        <time>2020-10-24T12:49:36.000Z</time>
      </trkpt>
      <trkpt lat="42.1808627061545848846435546875" lon="1.7569892294704914093017578125">
        <ele>2224</ele>
        <time>2020-10-24T12:49:37.000Z</time>
      </trkpt>
      <trkpt lat="42.18084703199565410614013671875" lon="1.75700741820037364959716796875">
        <ele>2223.800048828125</ele>
        <time>2020-10-24T12:49:39.000Z</time>
      </trkpt>
      <trkpt lat="42.18080813996493816375732421875" lon="1.7570881359279155731201171875">
        <ele>2224</ele>
        <time>2020-10-24T12:49:48.000Z</time>
      </trkpt>
      <trkpt lat="42.18080663122236728668212890625" lon="1.757102720439434051513671875">
        <ele>2224.39990234375</ele>
        <time>2020-10-24T12:49:50.000Z</time>
      </trkpt>
      <trkpt lat="42.1807698346674442291259765625" lon="1.7572152055799961090087890625">
        <ele>2225</ele>
        <time>2020-10-24T12:49:59.000Z</time>
      </trkpt>
      <trkpt lat="42.1807564236223697662353515625" lon="1.75725015811622142791748046875">
        <ele>2225.199951171875</ele>
        <time>2020-10-24T12:50:02.000Z</time>
      </trkpt>
      <trkpt lat="42.18074108473956584930419921875" lon="1.7573037184774875640869140625">
        <ele>2225.39990234375</ele>
        <time>2020-10-24T12:50:07.000Z</time>
      </trkpt>
      <trkpt lat="42.1807259134948253631591796875" lon="1.7574726976454257965087890625">
        <ele>2226</ele>
        <time>2020-10-24T12:50:19.000Z</time>
      </trkpt>
      <trkpt lat="42.180719710886478424072265625" lon="1.75757319666445255279541015625">
        <ele>2226</ele>
        <time>2020-10-24T12:50:29.000Z</time>
      </trkpt>
      <trkpt lat="42.18072197400033473968505859375" lon="1.75758141092956066131591796875">
        <ele>2226</ele>
        <time>2020-10-24T12:50:30.000Z</time>
      </trkpt>
      <trkpt lat="42.1807222254574298858642578125" lon="1.7575954087078571319580078125">
        <ele>2226</ele>
        <time>2020-10-24T12:50:31.000Z</time>
      </trkpt>
      <trkpt lat="42.18070722185075283050537109375" lon="1.757645197212696075439453125">
        <ele>2226.199951171875</ele>
        <time>2020-10-24T12:50:34.000Z</time>
      </trkpt>
      <trkpt lat="42.180705964565277099609375" lon="1.75766154192388057708740234375">
        <ele>2226.199951171875</ele>
        <time>2020-10-24T12:50:35.000Z</time>
      </trkpt>
      <trkpt lat="42.1807014383375644683837890625" lon="1.75771585665643215179443359375">
        <ele>2226.39990234375</ele>
        <time>2020-10-24T12:50:38.000Z</time>
      </trkpt>
      <trkpt lat="42.18068207614123821258544921875" lon="1.75783622078597545623779296875">
        <ele>2227.199951171875</ele>
        <time>2020-10-24T12:50:45.000Z</time>
      </trkpt>
      <trkpt lat="42.18066313304007053375244140625" lon="1.75794669426977634429931640625">
        <ele>2227.60009765625</ele>
        <time>2020-10-24T12:50:52.000Z</time>
      </trkpt>
      <trkpt lat="42.18066011555492877960205078125" lon="1.7580311000347137451171875">
        <ele>2227.800048828125</ele>
        <time>2020-10-24T12:50:57.000Z</time>
      </trkpt>
      <trkpt lat="42.180626504123210906982421875" lon="1.75824098289012908935546875">
        <ele>2228.39990234375</ele>
        <time>2020-10-24T12:51:11.000Z</time>
      </trkpt>
      <trkpt lat="42.1806228160858154296875" lon="1.75827073864638805389404296875">
        <ele>2228.60009765625</ele>
        <time>2020-10-24T12:51:13.000Z</time>
      </trkpt>
      <trkpt lat="42.18059691600501537322998046875" lon="1.75838045775890350341796875">
        <ele>2229</ele>
        <time>2020-10-24T12:51:21.000Z</time>
      </trkpt>
      <trkpt lat="42.1805713512003421783447265625" lon="1.75848430953919887542724609375">
        <ele>2229.199951171875</ele>
        <time>2020-10-24T12:51:29.000Z</time>
      </trkpt>
      <trkpt lat="42.1805582754313945770263671875" lon="1.758541055023670196533203125">
        <ele>2229.60009765625</ele>
        <time>2020-10-24T12:51:33.000Z</time>
      </trkpt>
      <trkpt lat="42.18055048026144504547119140625" lon="1.7585626803338527679443359375">
        <ele>2229.800048828125</ele>
        <time>2020-10-24T12:51:35.000Z</time>
      </trkpt>
      <trkpt lat="42.1805321238934993743896484375" lon="1.75861305557191371917724609375">
        <ele>2230.199951171875</ele>
        <time>2020-10-24T12:51:39.000Z</time>
      </trkpt>
      <trkpt lat="42.1805250830948352813720703125" lon="1.75861515104770660400390625">
        <ele>2230.199951171875</ele>
        <time>2020-10-24T12:51:40.000Z</time>
      </trkpt>
      <trkpt lat="42.1805106662213802337646484375" lon="1.75861925818026065826416015625">
        <ele>2230.39990234375</ele>
        <time>2020-10-24T12:51:42.000Z</time>
      </trkpt>
      <trkpt lat="42.1805006079375743865966796875" lon="1.75863794982433319091796875">
        <ele>2230.60009765625</ele>
        <time>2020-10-24T12:51:44.000Z</time>
      </trkpt>
      <trkpt lat="42.1805012784898281097412109375" lon="1.7586766742169857025146484375">
        <ele>2231</ele>
        <time>2020-10-24T12:51:48.000Z</time>
      </trkpt>
      <trkpt lat="42.1804509870707988739013671875" lon="1.7587832920253276824951171875">
        <ele>2231.39990234375</ele>
        <time>2020-10-24T12:51:59.000Z</time>
      </trkpt>
      <trkpt lat="42.18044579029083251953125" lon="1.7588218487799167633056640625">
        <ele>2231.800048828125</ele>
        <time>2020-10-24T12:52:02.000Z</time>
      </trkpt>
      <trkpt lat="42.18042475171387195587158203125" lon="1.75886183045804500579833984375">
        <ele>2232</ele>
        <time>2020-10-24T12:52:07.000Z</time>
      </trkpt>
      <trkpt lat="42.18042139895260334014892578125" lon="1.75887373276054859161376953125">
        <ele>2232</ele>
        <time>2020-10-24T12:52:08.000Z</time>
      </trkpt>
      <trkpt lat="42.1803666651248931884765625" lon="1.75896191038191318511962890625">
        <ele>2232.60009765625</ele>
        <time>2020-10-24T12:52:17.000Z</time>
      </trkpt>
      <trkpt lat="42.18033657409250736236572265625" lon="1.7590397782623767852783203125">
        <ele>2232.800048828125</ele>
        <time>2020-10-24T12:52:24.000Z</time>
      </trkpt>
      <trkpt lat="42.180311679840087890625" lon="1.7591138742864131927490234375">
        <ele>2233.199951171875</ele>
        <time>2020-10-24T12:52:29.000Z</time>
      </trkpt>
      <trkpt lat="42.18029282055795192718505859375" lon="1.75917883403599262237548828125">
        <ele>2233.800048828125</ele>
        <time>2020-10-24T12:52:33.000Z</time>
      </trkpt>
      <trkpt lat="42.18026348389685153961181640625" lon="1.759259216487407684326171875">
        <ele>2234.39990234375</ele>
        <time>2020-10-24T12:52:39.000Z</time>
      </trkpt>
      <trkpt lat="42.18022861517965793609619140625" lon="1.75934982486069202423095703125">
        <ele>2235</ele>
        <time>2020-10-24T12:52:46.000Z</time>
      </trkpt>
      <trkpt lat="42.1802139468491077423095703125" lon="1.7594156228005886077880859375">
        <ele>2235.199951171875</ele>
        <time>2020-10-24T12:52:50.000Z</time>
      </trkpt>
      <trkpt lat="42.18018737621605396270751953125" lon="1.75954529084265232086181640625">
        <ele>2235.800048828125</ele>
        <time>2020-10-24T12:53:00.000Z</time>
      </trkpt>
      <trkpt lat="42.18017195351421833038330078125" lon="1.75966381095349788665771484375">
        <ele>2236</ele>
        <time>2020-10-24T12:53:09.000Z</time>
      </trkpt>
      <trkpt lat="42.18015703372657299041748046875" lon="1.759722232818603515625">
        <ele>2236.60009765625</ele>
        <time>2020-10-24T12:53:13.000Z</time>
      </trkpt>
      <trkpt lat="42.18014965765178203582763671875" lon="1.75978166051208972930908203125">
        <ele>2237</ele>
        <time>2020-10-24T12:53:17.000Z</time>
      </trkpt>
      <trkpt lat="42.1801331453025341033935546875" lon="1.75986581481993198394775390625">
        <ele>2237.800048828125</ele>
        <time>2020-10-24T12:53:23.000Z</time>
      </trkpt>
      <trkpt lat="42.18013004399836063385009765625" lon="1.75989481620490550994873046875">
        <ele>2238</ele>
        <time>2020-10-24T12:53:25.000Z</time>
      </trkpt>
      <trkpt lat="42.180114872753620147705078125" lon="1.7599906213581562042236328125">
        <ele>2239.199951171875</ele>
        <time>2020-10-24T12:53:32.000Z</time>
      </trkpt>
      <trkpt lat="42.18010984361171722412109375" lon="1.75999908708035945892333984375">
        <ele>2239.39990234375</ele>
        <time>2020-10-24T12:53:33.000Z</time>
      </trkpt>
      <trkpt lat="42.1801012940704822540283203125" lon="1.76004284061491489410400390625">
        <ele>2240</ele>
        <time>2020-10-24T12:53:37.000Z</time>
      </trkpt>
      <trkpt lat="42.1800989471375942230224609375" lon="1.76006748341023921966552734375">
        <ele>2240.199951171875</ele>
        <time>2020-10-24T12:53:39.000Z</time>
      </trkpt>
      <trkpt lat="42.1800711192190647125244140625" lon="1.76013864576816558837890625">
        <ele>2241</ele>
        <time>2020-10-24T12:53:46.000Z</time>
      </trkpt>
      <trkpt lat="42.1800573728978633880615234375" lon="1.7601720057427883148193359375">
        <ele>2241.39990234375</ele>
        <time>2020-10-24T12:53:49.000Z</time>
      </trkpt>
      <trkpt lat="42.18001470901072025299072265625" lon="1.7602605186402797698974609375">
        <ele>2242.199951171875</ele>
        <time>2020-10-24T12:53:58.000Z</time>
      </trkpt>
      <trkpt lat="42.180011607706546783447265625" lon="1.76027007400989532470703125">
        <ele>2242.39990234375</ele>
        <time>2020-10-24T12:53:59.000Z</time>
      </trkpt>
      <trkpt lat="42.17996098101139068603515625" lon="1.76034660078585147857666015625">
        <ele>2243.39990234375</ele>
        <time>2020-10-24T12:54:07.000Z</time>
      </trkpt>
      <trkpt lat="42.17995285056531429290771484375" lon="1.7603624425828456878662109375">
        <ele>2243.800048828125</ele>
        <time>2020-10-24T12:54:09.000Z</time>
      </trkpt>
      <trkpt lat="42.1799370087683200836181640625" lon="1.76039404235780239105224609375">
        <ele>2244.199951171875</ele>
        <time>2020-10-24T12:54:13.000Z</time>
      </trkpt>
      <trkpt lat="42.17992485500872135162353515625" lon="1.76041332073509693145751953125">
        <ele>2244.199951171875</ele>
        <time>2020-10-24T12:54:16.000Z</time>
      </trkpt>
      <trkpt lat="42.17992208898067474365234375" lon="1.7604191042482852935791015625">
        <ele>2244.39990234375</ele>
        <time>2020-10-24T12:54:18.000Z</time>
      </trkpt>
      <trkpt lat="42.179909683763980865478515625" lon="1.76043930463492870330810546875">
        <ele>2244.39990234375</ele>
        <time>2020-10-24T12:54:21.000Z</time>
      </trkpt>
      <trkpt lat="42.1799031458795070648193359375" lon="1.76044441759586334228515625">
        <ele>2244.39990234375</ele>
        <time>2020-10-24T12:54:22.000Z</time>
      </trkpt>
      <trkpt lat="42.1799001283943653106689453125" lon="1.76045590080320835113525390625">
        <ele>2244.39990234375</ele>
        <time>2020-10-24T12:54:23.000Z</time>
      </trkpt>
      <trkpt lat="42.1798961050808429718017578125" lon="1.76046763546764850616455078125">
        <ele>2244.39990234375</ele>
        <time>2020-10-24T12:54:24.000Z</time>
      </trkpt>
      <trkpt lat="42.1798729710280895233154296875" lon="1.7605148255825042724609375">
        <ele>2244.800048828125</ele>
        <time>2020-10-24T12:54:29.000Z</time>
      </trkpt>
      <trkpt lat="42.1798280440270900726318359375" lon="1.76060375757515430450439453125">
        <ele>2244.60009765625</ele>
        <time>2020-10-24T12:54:38.000Z</time>
      </trkpt>
      <trkpt lat="42.17979141511023044586181640625" lon="1.76071800291538238525390625">
        <ele>2244</ele>
        <time>2020-10-24T12:54:48.000Z</time>
      </trkpt>
      <trkpt lat="42.17976124025881290435791015625" lon="1.76080995239317417144775390625">
        <ele>2243.199951171875</ele>
        <time>2020-10-24T12:54:56.000Z</time>
      </trkpt>
      <trkpt lat="42.17974464409053325653076171875" lon="1.76085420884191989898681640625">
        <ele>2242.60009765625</ele>
        <time>2020-10-24T12:55:00.000Z</time>
      </trkpt>
      <trkpt lat="42.1797375194728374481201171875" lon="1.76088438369333744049072265625">
        <ele>2242.199951171875</ele>
        <time>2020-10-24T12:55:03.000Z</time>
      </trkpt>
      <trkpt lat="42.17973357997834682464599609375" lon="1.760897375643253326416015625">
        <ele>2242.199951171875</ele>
        <time>2020-10-24T12:55:04.000Z</time>
      </trkpt>
      <trkpt lat="42.17973031103610992431640625" lon="1.760905422270298004150390625">
        <ele>2242</ele>
        <time>2020-10-24T12:55:05.000Z</time>
      </trkpt>
      <trkpt lat="42.1797160618007183074951171875" lon="1.7609654366970062255859375">
        <ele>2241</ele>
        <time>2020-10-24T12:55:12.000Z</time>
      </trkpt>
      <trkpt lat="42.1797291375696659088134765625" lon="1.76099854521453380584716796875">
        <ele>2240.60009765625</ele>
        <time>2020-10-24T12:55:15.000Z</time>
      </trkpt>
      <trkpt lat="42.1797497570514678955078125" lon="1.761034838855266571044921875">
        <ele>2240.199951171875</ele>
        <time>2020-10-24T12:55:19.000Z</time>
      </trkpt>
      <trkpt lat="42.17977414838969707489013671875" lon="1.76106962375342845916748046875">
        <ele>2240.199951171875</ele>
        <time>2020-10-24T12:55:22.000Z</time>
      </trkpt>
      <trkpt lat="42.17978521250188350677490234375" lon="1.761089824140071868896484375">
        <ele>2240.199951171875</ele>
        <time>2020-10-24T12:55:24.000Z</time>
      </trkpt>
      <trkpt lat="42.17982175759971141815185546875" lon="1.76113651134073734283447265625">
        <ele>2240.199951171875</ele>
        <time>2020-10-24T12:55:28.000Z</time>
      </trkpt>
      <trkpt lat="42.1798382699489593505859375" lon="1.76117808558046817779541015625">
        <ele>2240.199951171875</ele>
        <time>2020-10-24T12:55:31.000Z</time>
      </trkpt>
      <trkpt lat="42.1798411197960376739501953125" lon="1.76119082607328891754150390625">
        <ele>2240.199951171875</ele>
        <time>2020-10-24T12:55:32.000Z</time>
      </trkpt>
      <trkpt lat="42.17984992079436779022216796875" lon="1.76124832592904567718505859375">
        <ele>2240</ele>
        <time>2020-10-24T12:55:36.000Z</time>
      </trkpt>
      <trkpt lat="42.1798605658113956451416015625" lon="1.76131890155375003814697265625">
        <ele>2239.800048828125</ele>
        <time>2020-10-24T12:55:41.000Z</time>
      </trkpt>
      <trkpt lat="42.1798769943416118621826171875" lon="1.76138184964656829833984375">
        <ele>2239</ele>
        <time>2020-10-24T12:55:46.000Z</time>
      </trkpt>
      <trkpt lat="42.1798892319202423095703125" lon="1.76143574528396129608154296875">
        <ele>2238.800048828125</ele>
        <time>2020-10-24T12:55:49.000Z</time>
      </trkpt>
      <trkpt lat="42.1798932552337646484375" lon="1.76145368255674839019775390625">
        <ele>2238.800048828125</ele>
        <time>2020-10-24T12:55:50.000Z</time>
      </trkpt>
      <trkpt lat="42.1799080073833465576171875" lon="1.761558540165424346923828125">
        <ele>2238</ele>
        <time>2020-10-24T12:55:56.000Z</time>
      </trkpt>
      <trkpt lat="42.1799185685813426971435546875" lon="1.76161796785891056060791015625">
        <ele>2237.199951171875</ele>
        <time>2020-10-24T12:56:00.000Z</time>
      </trkpt>
      <trkpt lat="42.17991898767650127410888671875" lon="1.76165568642318248748779296875">
        <ele>2237</ele>
        <time>2020-10-24T12:56:03.000Z</time>
      </trkpt>
      <trkpt lat="42.17993441037833690643310546875" lon="1.76170597784221172332763671875">
        <ele>2236.60009765625</ele>
        <time>2020-10-24T12:56:08.000Z</time>
      </trkpt>
      <trkpt lat="42.17994513921439647674560546875" lon="1.76174285821616649627685546875">
        <ele>2236.60009765625</ele>
        <time>2020-10-24T12:56:13.000Z</time>
      </trkpt>
      <trkpt lat="42.17994631268084049224853515625" lon="1.76173749379813671112060546875">
        <ele>2236.60009765625</ele>
        <time>2020-10-24T12:56:14.000Z</time>
      </trkpt>
      <trkpt lat="42.179949246346950531005859375" lon="1.7617499828338623046875">
        <ele>2236.60009765625</ele>
        <time>2020-10-24T12:56:16.000Z</time>
      </trkpt>
      <trkpt lat="42.17995695769786834716796875" lon="1.76177940331399440765380859375">
        <ele>2236.60009765625</ele>
        <time>2020-10-24T12:56:18.000Z</time>
      </trkpt>
      <trkpt lat="42.17995963990688323974609375" lon="1.76180320791900157928466796875">
        <ele>2236.60009765625</ele>
        <time>2020-10-24T12:56:20.000Z</time>
      </trkpt>
      <trkpt lat="42.17996299266815185546875" lon="1.761833466589450836181640625">
        <ele>2236.39990234375</ele>
        <time>2020-10-24T12:56:23.000Z</time>
      </trkpt>
      <trkpt lat="42.17996257357299327850341796875" lon="1.761873699724674224853515625">
        <ele>2236.199951171875</ele>
        <time>2020-10-24T12:56:26.000Z</time>
      </trkpt>
      <trkpt lat="42.17996492050588130950927734375" lon="1.7619080655276775360107421875">
        <ele>2235.800048828125</ele>
        <time>2020-10-24T12:56:28.000Z</time>
      </trkpt>
      <trkpt lat="42.17996777035295963287353515625" lon="1.7619254998862743377685546875">
        <ele>2235.60009765625</ele>
        <time>2020-10-24T12:56:29.000Z</time>
      </trkpt>
      <trkpt lat="42.1799698658287525177001953125" lon="1.76197218708693981170654296875">
        <ele>2235.199951171875</ele>
        <time>2020-10-24T12:56:33.000Z</time>
      </trkpt>
      <trkpt lat="42.179968357086181640625" lon="1.76197922788560390472412109375">
        <ele>2235</ele>
        <time>2020-10-24T12:56:36.000Z</time>
      </trkpt>
      <trkpt lat="42.1799504198133945465087890625" lon="1.76196464337408542633056640625">
        <ele>2235</ele>
        <time>2020-10-24T12:56:47.000Z</time>
      </trkpt>
      <trkpt lat="42.17995368875563144683837890625" lon="1.7620973289012908935546875">
        <ele>2233.199951171875</ele>
        <time>2020-10-24T12:57:08.000Z</time>
      </trkpt>
      <trkpt lat="42.1799564547836780548095703125" lon="1.762117445468902587890625">
        <ele>2233</ele>
        <time>2020-10-24T12:57:09.000Z</time>
      </trkpt>
      <trkpt lat="42.17995570041239261627197265625" lon="1.76213965751230716705322265625">
        <ele>2232.800048828125</ele>
        <time>2020-10-24T12:57:10.000Z</time>
      </trkpt>
      <trkpt lat="42.1799510903656482696533203125" lon="1.7621598578989505767822265625">
        <ele>2232.60009765625</ele>
        <time>2020-10-24T12:57:11.000Z</time>
      </trkpt>
      <trkpt lat="42.17994128353893756866455078125" lon="1.7621950618922710418701171875">
        <ele>2232</ele>
        <time>2020-10-24T12:57:13.000Z</time>
      </trkpt>
      <trkpt lat="42.17994111590087413787841796875" lon="1.7622466944158077239990234375">
        <ele>2231.39990234375</ele>
        <time>2020-10-24T12:57:16.000Z</time>
      </trkpt>
      <trkpt lat="42.17994497157633304595947265625" lon="1.7622979916632175445556640625">
        <ele>2231.199951171875</ele>
        <time>2020-10-24T12:57:19.000Z</time>
      </trkpt>
      <trkpt lat="42.179951928555965423583984375" lon="1.7623288370668888092041015625">
        <ele>2231</ele>
        <time>2020-10-24T12:57:21.000Z</time>
      </trkpt>
      <trkpt lat="42.1799634955823421478271484375" lon="1.7623606882989406585693359375">
        <ele>2230.800048828125</ele>
        <time>2020-10-24T12:57:25.000Z</time>
      </trkpt>
      <trkpt lat="42.1799655072391033172607421875" lon="1.76237200386822223663330078125">
        <ele>2230.800048828125</ele>
        <time>2020-10-24T12:57:26.000Z</time>
      </trkpt>
      <trkpt lat="42.1799643337726593017578125" lon="1.762394718825817108154296875">
        <ele>2230.39990234375</ele>
        <time>2020-10-24T12:57:28.000Z</time>
      </trkpt>
      <trkpt lat="42.17995955608785152435302734375" lon="1.762410812079906463623046875">
        <ele>2229.800048828125</ele>
        <time>2020-10-24T12:57:30.000Z</time>
      </trkpt>
      <trkpt lat="42.1799547784030437469482421875" lon="1.7624378018081188201904296875">
        <ele>2228.800048828125</ele>
        <time>2020-10-24T12:57:33.000Z</time>
      </trkpt>
      <trkpt lat="42.17995150946080684661865234375" lon="1.762447021901607513427734375">
        <ele>2228.199951171875</ele>
        <time>2020-10-24T12:57:34.000Z</time>
      </trkpt>
      <trkpt lat="42.17994631268084049224853515625" lon="1.76245431415736675262451171875">
        <ele>2227.800048828125</ele>
        <time>2020-10-24T12:57:35.000Z</time>
      </trkpt>
      <trkpt lat="42.1799309737980365753173828125" lon="1.76247191615402698516845703125">
        <ele>2227.199951171875</ele>
        <time>2020-10-24T12:57:39.000Z</time>
      </trkpt>
      <trkpt lat="42.17994078062474727630615234375" lon="1.7624730058014392852783203125">
        <ele>2227</ele>
        <time>2020-10-24T12:57:41.000Z</time>
      </trkpt>
      <trkpt lat="42.17994715087115764617919921875" lon="1.76247593946754932403564453125">
        <ele>2227.199951171875</ele>
        <time>2020-10-24T12:57:42.000Z</time>
      </trkpt>
      <trkpt lat="42.1799591369926929473876953125" lon="1.76249505020678043365478515625">
        <ele>2227.39990234375</ele>
        <time>2020-10-24T12:57:44.000Z</time>
      </trkpt>
      <trkpt lat="42.17998587526381015777587890625" lon="1.7625318467617034912109375">
        <ele>2228.60009765625</ele>
        <time>2020-10-24T12:57:48.000Z</time>
      </trkpt>
      <trkpt lat="42.1799965202808380126953125" lon="1.76255573518574237823486328125">
        <ele>2228.800048828125</ele>
        <time>2020-10-24T12:57:50.000Z</time>
      </trkpt>
      <trkpt lat="42.17999811284244060516357421875" lon="1.7625869996845722198486328125">
        <ele>2228.60009765625</ele>
        <time>2020-10-24T12:57:54.000Z</time>
      </trkpt>
      <trkpt lat="42.180001549422740936279296875" lon="1.762637794017791748046875">
        <ele>2228.39990234375</ele>
        <time>2020-10-24T12:57:58.000Z</time>
      </trkpt>
      <trkpt lat="42.180020995438098907470703125" lon="1.7627258040010929107666015625">
        <ele>2228</ele>
        <time>2020-10-24T12:58:05.000Z</time>
      </trkpt>
      <trkpt lat="42.18003180809319019317626953125" lon="1.76276075653731822967529296875">
        <ele>2229</ele>
        <time>2020-10-24T12:58:11.000Z</time>
      </trkpt>
      <trkpt lat="42.18003231100738048553466796875" lon="1.7627646960318088531494140625">
        <ele>2229.199951171875</ele>
        <time>2020-10-24T12:58:12.000Z</time>
      </trkpt>
      <trkpt lat="42.180034406483173370361328125" lon="1.76277500577270984649658203125">
        <ele>2229.60009765625</ele>
        <time>2020-10-24T12:58:14.000Z</time>
      </trkpt>
      <trkpt lat="42.18003566376864910125732421875" lon="1.76278573460876941680908203125">
        <ele>2229.800048828125</ele>
        <time>2020-10-24T12:58:16.000Z</time>
      </trkpt>
      <trkpt lat="42.18003516085445880889892578125" lon="1.76279746927320957183837890625">
        <ele>2229.800048828125</ele>
        <time>2020-10-24T12:58:18.000Z</time>
      </trkpt>
      <trkpt lat="42.18003465794026851654052734375" lon="1.7628230340778827667236328125">
        <ele>2229.60009765625</ele>
        <time>2020-10-24T12:58:20.000Z</time>
      </trkpt>
      <trkpt lat="42.18002962879836559295654296875" lon="1.762886904180049896240234375">
        <ele>2228.39990234375</ele>
        <time>2020-10-24T12:58:25.000Z</time>
      </trkpt>
      <trkpt lat="42.18002879060804843902587890625" lon="1.76290023140609264373779296875">
        <ele>2228.199951171875</ele>
        <time>2020-10-24T12:58:26.000Z</time>
      </trkpt>
      <trkpt lat="42.18002812005579471588134765625" lon="1.7629226110875606536865234375">
        <ele>2228</ele>
        <time>2020-10-24T12:58:28.000Z</time>
      </trkpt>
      <trkpt lat="42.180034406483173370361328125" lon="1.76299461163580417633056640625">
        <ele>2227.60009765625</ele>
        <time>2020-10-24T12:58:35.000Z</time>
      </trkpt>
      <trkpt lat="42.18003482557833194732666015625" lon="1.7629953660070896148681640625">
        <ele>2227.60009765625</ele>
        <time>2020-10-24T12:58:36.000Z</time>
      </trkpt>
      <trkpt lat="42.1800349093973636627197265625" lon="1.7629967071115970611572265625">
        <ele>2227.39990234375</ele>
        <time>2020-10-24T12:58:37.000Z</time>
      </trkpt>
      <trkpt lat="42.18003247864544391632080078125" lon="1.763002909719944000244140625">
        <ele>2227.39990234375</ele>
        <time>2020-10-24T12:58:38.000Z</time>
      </trkpt>
      <trkpt lat="42.180026359856128692626953125" lon="1.763025708496570587158203125">
        <ele>2227</ele>
        <time>2020-10-24T12:58:40.000Z</time>
      </trkpt>
      <trkpt lat="42.18002577312290668487548828125" lon="1.76303233020007610321044921875">
        <ele>2226.60009765625</ele>
        <time>2020-10-24T12:58:41.000Z</time>
      </trkpt>
      <trkpt lat="42.18002577312290668487548828125" lon="1.763037778437137603759765625">
        <ele>2226.39990234375</ele>
        <time>2020-10-24T12:58:42.000Z</time>
      </trkpt>
      <trkpt lat="42.1800271980464458465576171875" lon="1.76304875873029232025146484375">
        <ele>2226.199951171875</ele>
        <time>2020-10-24T12:58:43.000Z</time>
      </trkpt>
      <trkpt lat="42.18002543784677982330322265625" lon="1.7630862258374691009521484375">
        <ele>2226</ele>
        <time>2020-10-24T12:58:46.000Z</time>
      </trkpt>
      <trkpt lat="42.18002493493258953094482421875" lon="1.76309620030224323272705078125">
        <ele>2225.60009765625</ele>
        <time>2020-10-24T12:58:47.000Z</time>
      </trkpt>
      <trkpt lat="42.1800225041806697845458984375" lon="1.76310542039573192596435546875">
        <ele>2225.199951171875</ele>
        <time>2020-10-24T12:58:49.000Z</time>
      </trkpt>
      <trkpt lat="42.18003197573125362396240234375" lon="1.763137020170688629150390625">
        <ele>2224.800048828125</ele>
        <time>2020-10-24T12:58:53.000Z</time>
      </trkpt>
      <trkpt lat="42.18003734014928340911865234375" lon="1.7631782591342926025390625">
        <ele>2224.60009765625</ele>
        <time>2020-10-24T12:58:56.000Z</time>
      </trkpt>
      <trkpt lat="42.1800369210541248321533203125" lon="1.76318831741809844970703125">
        <ele>2224.60009765625</ele>
        <time>2020-10-24T12:58:57.000Z</time>
      </trkpt>
      <trkpt lat="42.1800396032631397247314453125" lon="1.7632679454982280731201171875">
        <ele>2224</ele>
        <time>2020-10-24T12:59:02.000Z</time>
      </trkpt>
      <trkpt lat="42.18004689551889896392822265625" lon="1.7633269540965557098388671875">
        <ele>2223.39990234375</ele>
        <time>2020-10-24T12:59:06.000Z</time>
      </trkpt>
      <trkpt lat="42.18005217611789703369140625" lon="1.7633383534848690032958984375">
        <ele>2223.39990234375</ele>
        <time>2020-10-24T12:59:07.000Z</time>
      </trkpt>
      <trkpt lat="42.18005728907883167266845703125" lon="1.7633499205112457275390625">
        <ele>2223.39990234375</ele>
        <time>2020-10-24T12:59:08.000Z</time>
      </trkpt>
      <trkpt lat="42.1800677664577960968017578125" lon="1.76337598823010921478271484375">
        <ele>2223.199951171875</ele>
        <time>2020-10-24T12:59:10.000Z</time>
      </trkpt>
      <trkpt lat="42.1800909005105495452880859375" lon="1.76344874314963817596435546875">
        <ele>2223.60009765625</ele>
        <time>2020-10-24T12:59:16.000Z</time>
      </trkpt>
      <trkpt lat="42.180098779499530792236328125" lon="1.7634610645473003387451171875">
        <ele>2223.39990234375</ele>
        <time>2020-10-24T12:59:18.000Z</time>
      </trkpt>
      <trkpt lat="42.18010121025145053863525390625" lon="1.7634664289653301239013671875">
        <ele>2223.39990234375</ele>
        <time>2020-10-24T12:59:19.000Z</time>
      </trkpt>
      <trkpt lat="42.1801106818020343780517578125" lon="1.76352669484913349151611328125">
        <ele>2223.199951171875</ele>
        <time>2020-10-24T12:59:27.000Z</time>
      </trkpt>
      <trkpt lat="42.18012853525578975677490234375" lon="1.763575561344623565673828125">
        <ele>2222.800048828125</ele>
        <time>2020-10-24T12:59:33.000Z</time>
      </trkpt>
      <trkpt lat="42.1801294572651386260986328125" lon="1.763625852763652801513671875">
        <ele>2222.39990234375</ele>
        <time>2020-10-24T12:59:38.000Z</time>
      </trkpt>
      <trkpt lat="42.1801311336457729339599609375" lon="1.7637011222541332244873046875">
        <ele>2221.39990234375</ele>
        <time>2020-10-24T12:59:46.000Z</time>
      </trkpt>
      <trkpt lat="42.1801281161606311798095703125" lon="1.76371260546147823333740234375">
        <ele>2221.199951171875</ele>
        <time>2020-10-24T12:59:47.000Z</time>
      </trkpt>
      <trkpt lat="42.18011847697198390960693359375" lon="1.763780750334262847900390625">
        <ele>2220</ele>
        <time>2020-10-24T12:59:54.000Z</time>
      </trkpt>
      <trkpt lat="42.18012166209518909454345703125" lon="1.76380924880504608154296875">
        <ele>2219.39990234375</ele>
        <time>2020-10-24T12:59:57.000Z</time>
      </trkpt>
      <trkpt lat="42.18012459576129913330078125" lon="1.76383900456130504608154296875">
        <ele>2219</ele>
        <time>2020-10-24T13:00:00.000Z</time>
      </trkpt>
      <trkpt lat="42.18013222329318523406982421875" lon="1.76390178501605987548828125">
        <ele>2218.199951171875</ele>
        <time>2020-10-24T13:00:07.000Z</time>
      </trkpt>
      <trkpt lat="42.18013255856931209564208984375" lon="1.76392248831689357757568359375">
        <ele>2217.800048828125</ele>
        <time>2020-10-24T13:00:09.000Z</time>
      </trkpt>
      <trkpt lat="42.18013239093124866485595703125" lon="1.7639468796551227569580078125">
        <ele>2217.39990234375</ele>
        <time>2020-10-24T13:00:15.000Z</time>
      </trkpt>
      <trkpt lat="42.1801225841045379638671875" lon="1.76401636563241481781005859375">
        <ele>2217</ele>
        <time>2020-10-24T13:00:21.000Z</time>
      </trkpt>
      <trkpt lat="42.1801180578768253326416015625" lon="1.76405274309217929840087890625">
        <ele>2216.800048828125</ele>
        <time>2020-10-24T13:00:24.000Z</time>
      </trkpt>
      <trkpt lat="42.1801291219890117645263671875" lon="1.764117367565631866455078125">
        <ele>2216.39990234375</ele>
        <time>2020-10-24T13:00:29.000Z</time>
      </trkpt>
      <trkpt lat="42.18014177866280078887939453125" lon="1.7642100714147090911865234375">
        <ele>2216</ele>
        <time>2020-10-24T13:00:35.000Z</time>
      </trkpt>
      <trkpt lat="42.18014479614794254302978515625" lon="1.76421962678432464599609375">
        <ele>2215.800048828125</ele>
        <time>2020-10-24T13:00:36.000Z</time>
      </trkpt>
      <trkpt lat="42.18014697544276714324951171875" lon="1.76423035562038421630859375">
        <ele>2215.800048828125</ele>
        <time>2020-10-24T13:00:37.000Z</time>
      </trkpt>
      <trkpt lat="42.1801552735269069671630859375" lon="1.764285676181316375732421875">
        <ele>2215.60009765625</ele>
        <time>2020-10-24T13:00:42.000Z</time>
      </trkpt>
      <trkpt lat="42.180154435336589813232421875" lon="1.76429078914225101470947265625">
        <ele>2215.60009765625</ele>
        <time>2020-10-24T13:00:43.000Z</time>
      </trkpt>
      <trkpt lat="42.18015141785144805908203125" lon="1.764296405017375946044921875">
        <ele>2215.39990234375</ele>
        <time>2020-10-24T13:00:45.000Z</time>
      </trkpt>
      <trkpt lat="42.18014647252857685089111328125" lon="1.76430637948215007781982421875">
        <ele>2215</ele>
        <time>2020-10-24T13:00:47.000Z</time>
      </trkpt>
      <trkpt lat="42.18014563433825969696044921875" lon="1.7643140070140361785888671875">
        <ele>2214.800048828125</ele>
        <time>2020-10-24T13:00:49.000Z</time>
      </trkpt>
      <trkpt lat="42.18015410006046295166015625" lon="1.76433655433356761932373046875">
        <ele>2214.60009765625</ele>
        <time>2020-10-24T13:00:53.000Z</time>
      </trkpt>
      <trkpt lat="42.18015368096530437469482421875" lon="1.7643391527235507965087890625">
        <ele>2214.60009765625</ele>
        <time>2020-10-24T13:00:54.000Z</time>
      </trkpt>
      <trkpt lat="42.18014798127114772796630859375" lon="1.7643549107015132904052734375">
        <ele>2214.39990234375</ele>
        <time>2020-10-24T13:00:57.000Z</time>
      </trkpt>
      <trkpt lat="42.18012970872223377227783203125" lon="1.76441299729049205780029296875">
        <ele>2213.800048828125</ele>
        <time>2020-10-24T13:01:02.000Z</time>
      </trkpt>
      <trkpt lat="42.18012887053191661834716796875" lon="1.7644306831061840057373046875">
        <ele>2213.60009765625</ele>
        <time>2020-10-24T13:01:03.000Z</time>
      </trkpt>
      <trkpt lat="42.1801291219890117645263671875" lon="1.76444384269416332244873046875">
        <ele>2213.39990234375</ele>
        <time>2020-10-24T13:01:04.000Z</time>
      </trkpt>
      <trkpt lat="42.180129624903202056884765625" lon="1.7644746042788028717041015625">
        <ele>2212.60009765625</ele>
        <time>2020-10-24T13:01:07.000Z</time>
      </trkpt>
      <trkpt lat="42.18012618832290172576904296875" lon="1.76450888626277446746826171875">
        <ele>2211.800048828125</ele>
        <time>2020-10-24T13:01:11.000Z</time>
      </trkpt>
      <trkpt lat="42.18012132681906223297119140625" lon="1.7645460180938243865966796875">
        <ele>2211.39990234375</ele>
        <time>2020-10-24T13:01:14.000Z</time>
      </trkpt>
      <trkpt lat="42.18011965043842792510986328125" lon="1.7646315135061740875244140625">
        <ele>2210.39990234375</ele>
        <time>2020-10-24T13:01:19.000Z</time>
      </trkpt>
      <trkpt lat="42.18012501485645771026611328125" lon="1.76473653875291347503662109375">
        <ele>2209.800048828125</ele>
        <time>2020-10-24T13:01:26.000Z</time>
      </trkpt>
      <trkpt lat="42.18012618832290172576904296875" lon="1.7647914402186870574951171875">
        <ele>2209.199951171875</ele>
        <time>2020-10-24T13:01:30.000Z</time>
      </trkpt>
      <trkpt lat="42.18012484721839427947998046875" lon="1.76485287956893444061279296875">
        <ele>2208.39990234375</ele>
        <time>2020-10-24T13:01:35.000Z</time>
      </trkpt>
      <trkpt lat="42.180130295455455780029296875" lon="1.764870397746562957763671875">
        <ele>2208.199951171875</ele>
        <time>2020-10-24T13:01:37.000Z</time>
      </trkpt>
      <trkpt lat="42.1801304630935192108154296875" lon="1.76488590426743030548095703125">
        <ele>2208</ele>
        <time>2020-10-24T13:01:40.000Z</time>
      </trkpt>
      <trkpt lat="42.180132977664470672607421875" lon="1.76489152014255523681640625">
        <ele>2208</ele>
        <time>2020-10-24T13:01:41.000Z</time>
      </trkpt>
      <trkpt lat="42.18013222329318523406982421875" lon="1.76490761339664459228515625">
        <ele>2208</ele>
        <time>2020-10-24T13:01:43.000Z</time>
      </trkpt>
      <trkpt lat="42.1801314689218997955322265625" lon="1.76492848433554172515869140625">
        <ele>2208</ele>
        <time>2020-10-24T13:01:45.000Z</time>
      </trkpt>
      <trkpt lat="42.180127613246440887451171875" lon="1.7649684660136699676513671875">
        <ele>2207.199951171875</ele>
        <time>2020-10-24T13:01:48.000Z</time>
      </trkpt>
      <trkpt lat="42.18012736178934574127197265625" lon="1.764978356659412384033203125">
        <ele>2207</ele>
        <time>2020-10-24T13:01:49.000Z</time>
      </trkpt>
      <trkpt lat="42.1801281161606311798095703125" lon="1.7650450766086578369140625">
        <ele>2205.800048828125</ele>
        <time>2020-10-24T13:01:55.000Z</time>
      </trkpt>
      <trkpt lat="42.18012887053191661834716796875" lon="1.765060834586620330810546875">
        <ele>2205.60009765625</ele>
        <time>2020-10-24T13:01:56.000Z</time>
      </trkpt>
      <trkpt lat="42.1801344864070415496826171875" lon="1.765127219259738922119140625">
        <ele>2205</ele>
        <time>2020-10-24T13:02:01.000Z</time>
      </trkpt>
      <trkpt lat="42.18013406731188297271728515625" lon="1.7651402950286865234375">
        <ele>2204.800048828125</ele>
        <time>2020-10-24T13:02:03.000Z</time>
      </trkpt>
      <trkpt lat="42.18013356439769268035888671875" lon="1.765149347484111785888671875">
        <ele>2204.60009765625</ele>
        <time>2020-10-24T13:02:04.000Z</time>
      </trkpt>
      <trkpt lat="42.18013389967381954193115234375" lon="1.76515982486307621002197265625">
        <ele>2204.39990234375</ele>
        <time>2020-10-24T13:02:05.000Z</time>
      </trkpt>
      <trkpt lat="42.180124931037425994873046875" lon="1.7651847191154956817626953125">
        <ele>2203.60009765625</ele>
        <time>2020-10-24T13:02:08.000Z</time>
      </trkpt>
      <trkpt lat="42.18012099154293537139892578125" lon="1.765234507620334625244140625">
        <ele>2203</ele>
        <time>2020-10-24T13:02:12.000Z</time>
      </trkpt>
      <trkpt lat="42.180123589932918548583984375" lon="1.76526367664337158203125">
        <ele>2202.60009765625</ele>
        <time>2020-10-24T13:02:14.000Z</time>
      </trkpt>
      <trkpt lat="42.1801173873245716094970703125" lon="1.76533232443034648895263671875">
        <ele>2201.800048828125</ele>
        <time>2020-10-24T13:02:19.000Z</time>
      </trkpt>
      <trkpt lat="42.18011311255395412445068359375" lon="1.76536467857658863067626953125">
        <ele>2201.39990234375</ele>
        <time>2020-10-24T13:02:21.000Z</time>
      </trkpt>
      <trkpt lat="42.18010892160236835479736328125" lon="1.765424944460391998291015625">
        <ele>2201</ele>
        <time>2020-10-24T13:02:25.000Z</time>
      </trkpt>
      <trkpt lat="42.18010858632624149322509765625" lon="1.76546710543334484100341796875">
        <ele>2200.60009765625</ele>
        <time>2020-10-24T13:02:29.000Z</time>
      </trkpt>
      <trkpt lat="42.1801076643168926239013671875" lon="1.7655015550553798675537109375">
        <ele>2200.39990234375</ele>
        <time>2020-10-24T13:02:32.000Z</time>
      </trkpt>
      <trkpt lat="42.180094085633754730224609375" lon="1.76554656587541103363037109375">
        <ele>2199.60009765625</ele>
        <time>2020-10-24T13:02:37.000Z</time>
      </trkpt>
      <trkpt lat="42.18008629046380519866943359375" lon="1.76557674072682857513427734375">
        <ele>2199</ele>
        <time>2020-10-24T13:02:39.000Z</time>
      </trkpt>
      <trkpt lat="42.1800865419209003448486328125" lon="1.7656259424984455108642578125">
        <ele>2198</ele>
        <time>2020-10-24T13:02:44.000Z</time>
      </trkpt>
      <trkpt lat="42.180088721215724945068359375" lon="1.76567397080361843109130859375">
        <ele>2197.800048828125</ele>
        <time>2020-10-24T13:02:47.000Z</time>
      </trkpt>
      <trkpt lat="42.18008972704410552978515625" lon="1.76579064689576625823974609375">
        <ele>2197</ele>
        <time>2020-10-24T13:02:55.000Z</time>
      </trkpt>
      <trkpt lat="42.1800795011222362518310546875" lon="1.765822581946849822998046875">
        <ele>2196.800048828125</ele>
        <time>2020-10-24T13:02:59.000Z</time>
      </trkpt>
      <trkpt lat="42.18007455579936504364013671875" lon="1.765856109559535980224609375">
        <ele>2196.39990234375</ele>
        <time>2020-10-24T13:03:02.000Z</time>
      </trkpt>
      <trkpt lat="42.18006315641105175018310546875" lon="1.7659025453031063079833984375">
        <ele>2196</ele>
        <time>2020-10-24T13:03:05.000Z</time>
      </trkpt>
      <trkpt lat="42.180049158632755279541015625" lon="1.7659602127969264984130859375">
        <ele>2195</ele>
        <time>2020-10-24T13:03:10.000Z</time>
      </trkpt>
      <trkpt lat="42.1800448000431060791015625" lon="1.7659783177077770233154296875">
        <ele>2194.800048828125</ele>
        <time>2020-10-24T13:03:12.000Z</time>
      </trkpt>
      <trkpt lat="42.18003583140671253204345703125" lon="1.7660430260002613067626953125">
        <ele>2194.39990234375</ele>
        <time>2020-10-24T13:03:18.000Z</time>
      </trkpt>
      <trkpt lat="42.18003516085445880889892578125" lon="1.76609574817121028900146484375">
        <ele>2194.39990234375</ele>
        <time>2020-10-24T13:03:22.000Z</time>
      </trkpt>
      <trkpt lat="42.18002795241773128509521484375" lon="1.76612391136586666107177734375">
        <ele>2194</ele>
        <time>2020-10-24T13:03:26.000Z</time>
      </trkpt>
      <trkpt lat="42.180024683475494384765625" lon="1.7661315388977527618408203125">
        <ele>2193.800048828125</ele>
        <time>2020-10-24T13:03:27.000Z</time>
      </trkpt>
      <trkpt lat="42.18001688830554485321044921875" lon="1.76619666628539562225341796875">
        <ele>2192.800048828125</ele>
        <time>2020-10-24T13:03:31.000Z</time>
      </trkpt>
      <trkpt lat="42.18001596629619598388671875" lon="1.766214184463024139404296875">
        <ele>2192.60009765625</ele>
        <time>2020-10-24T13:03:32.000Z</time>
      </trkpt>
      <trkpt lat="42.18000314198434352874755859375" lon="1.76633144728839397430419921875">
        <ele>2192.199951171875</ele>
        <time>2020-10-24T13:03:39.000Z</time>
      </trkpt>
      <trkpt lat="42.18000414781272411346435546875" lon="1.76635139621794223785400390625">
        <ele>2192</ele>
        <time>2020-10-24T13:03:41.000Z</time>
      </trkpt>
      <trkpt lat="42.17999040149152278900146484375" lon="1.76640755496919155120849609375">
        <ele>2191.60009765625</ele>
        <time>2020-10-24T13:03:45.000Z</time>
      </trkpt>
      <trkpt lat="42.17997648753225803375244140625" lon="1.76645868457853794097900390625">
        <ele>2191</ele>
        <time>2020-10-24T13:03:49.000Z</time>
      </trkpt>
      <trkpt lat="42.17996877618134021759033203125" lon="1.76649682223796844482421875">
        <ele>2190.60009765625</ele>
        <time>2020-10-24T13:03:52.000Z</time>
      </trkpt>
      <trkpt lat="42.1799651719629764556884765625" lon="1.76652037538588047027587890625">
        <ele>2190.39990234375</ele>
        <time>2020-10-24T13:03:54.000Z</time>
      </trkpt>
      <trkpt lat="42.1799631603062152862548828125" lon="1.7665653862059116363525390625">
        <ele>2190</ele>
        <time>2020-10-24T13:03:57.000Z</time>
      </trkpt>
      <trkpt lat="42.17996257357299327850341796875" lon="1.7666089721024036407470703125">
        <ele>2189.60009765625</ele>
        <time>2020-10-24T13:04:00.000Z</time>
      </trkpt>
      <trkpt lat="42.1799361705780029296875" lon="1.7666354589164257049560546875">
        <ele>2189.199951171875</ele>
        <time>2020-10-24T13:04:03.000Z</time>
      </trkpt>
      <trkpt lat="42.1799313090741634368896484375" lon="1.7666471935808658599853515625">
        <ele>2189.199951171875</ele>
        <time>2020-10-24T13:04:04.000Z</time>
      </trkpt>
      <trkpt lat="42.17991194687783718109130859375" lon="1.7666834034025669097900390625">
        <ele>2188.39990234375</ele>
        <time>2020-10-24T13:04:07.000Z</time>
      </trkpt>
      <trkpt lat="42.17989937402307987213134765625" lon="1.7667115665972232818603515625">
        <ele>2187.800048828125</ele>
        <time>2020-10-24T13:04:09.000Z</time>
      </trkpt>
      <trkpt lat="42.17988914810121059417724609375" lon="1.76673294045031070709228515625">
        <ele>2187.199951171875</ele>
        <time>2020-10-24T13:04:11.000Z</time>
      </trkpt>
      <trkpt lat="42.17988093383610248565673828125" lon="1.76674769259989261627197265625">
        <ele>2187</ele>
        <time>2020-10-24T13:04:13.000Z</time>
      </trkpt>
      <trkpt lat="42.179876826703548431396484375" lon="1.7667621932923793792724609375">
        <ele>2187</ele>
        <time>2020-10-24T13:04:15.000Z</time>
      </trkpt>
      <trkpt lat="42.17986400239169597625732421875" lon="1.76677468232810497283935546875">
        <ele>2186.60009765625</ele>
        <time>2020-10-24T13:04:19.000Z</time>
      </trkpt>
      <trkpt lat="42.17984656803309917449951171875" lon="1.7668269015848636627197265625">
        <ele>2186.60009765625</ele>
        <time>2020-10-24T13:04:24.000Z</time>
      </trkpt>
      <trkpt lat="42.17983885668218135833740234375" lon="1.76683788187801837921142578125">
        <ele>2186.60009765625</ele>
        <time>2020-10-24T13:04:25.000Z</time>
      </trkpt>
      <trkpt lat="42.1798302233219146728515625" lon="1.76684961654245853424072265625">
        <ele>2186.39990234375</ele>
        <time>2020-10-24T13:04:26.000Z</time>
      </trkpt>
      <trkpt lat="42.17982326634228229522705078125" lon="1.7668735049664974212646484375">
        <ele>2186.199951171875</ele>
        <time>2020-10-24T13:04:28.000Z</time>
      </trkpt>
      <trkpt lat="42.17978856526315212249755859375" lon="1.76691097207367420196533203125">
        <ele>2185.800048828125</ele>
        <time>2020-10-24T13:04:33.000Z</time>
      </trkpt>
      <trkpt lat="42.17976710759103298187255859375" lon="1.7669455893337726593017578125">
        <ele>2185.800048828125</ele>
        <time>2020-10-24T13:04:37.000Z</time>
      </trkpt>
      <trkpt lat="42.1797643415629863739013671875" lon="1.76695573143661022186279296875">
        <ele>2185.800048828125</ele>
        <time>2020-10-24T13:04:38.000Z</time>
      </trkpt>
      <trkpt lat="42.1797241084277629852294921875" lon="1.767039634287357330322265625">
        <ele>2186.199951171875</ele>
        <time>2020-10-24T13:04:46.000Z</time>
      </trkpt>
      <trkpt lat="42.17970022000372409820556640625" lon="1.7670726589858531951904296875">
        <ele>2186</ele>
        <time>2020-10-24T13:04:50.000Z</time>
      </trkpt>
      <trkpt lat="42.17969276010990142822265625" lon="1.76708330400288105010986328125">
        <ele>2186</ele>
        <time>2020-10-24T13:04:53.000Z</time>
      </trkpt>
      <trkpt lat="42.179689742624759674072265625" lon="1.76708498038351535797119140625">
        <ele>2185.800048828125</ele>
        <time>2020-10-24T13:04:54.000Z</time>
      </trkpt>
      <trkpt lat="42.17965831048786640167236328125" lon="1.76710224710404872894287109375">
        <ele>2185.39990234375</ele>
        <time>2020-10-24T13:04:57.000Z</time>
      </trkpt>
      <trkpt lat="42.17964976094663143157958984375" lon="1.76710761152207851409912109375">
        <ele>2185.39990234375</ele>
        <time>2020-10-24T13:04:58.000Z</time>
      </trkpt>
      <trkpt lat="42.17961170710623264312744140625" lon="1.7671655304729938507080078125">
        <ele>2185.199951171875</ele>
        <time>2020-10-24T13:05:05.000Z</time>
      </trkpt>
      <trkpt lat="42.17959410510957241058349609375" lon="1.7671787738800048828125">
        <ele>2185</ele>
        <time>2020-10-24T13:05:07.000Z</time>
      </trkpt>
      <trkpt lat="42.1795568056404590606689453125" lon="1.7672131396830081939697265625">
        <ele>2184.800048828125</ele>
        <time>2020-10-24T13:05:12.000Z</time>
      </trkpt>
      <trkpt lat="42.1795343421399593353271484375" lon="1.7672768421471118927001953125">
        <ele>2185.199951171875</ele>
        <time>2020-10-24T13:05:18.000Z</time>
      </trkpt>
      <trkpt lat="42.17949737794697284698486328125" lon="1.7673303186893463134765625">
        <ele>2185</ele>
        <time>2020-10-24T13:05:25.000Z</time>
      </trkpt>
      <trkpt lat="42.17946074903011322021484375" lon="1.7673717252910137176513671875">
        <ele>2184.60009765625</ele>
        <time>2020-10-24T13:05:31.000Z</time>
      </trkpt>
      <trkpt lat="42.1794545464217662811279296875" lon="1.76738488487899303436279296875">
        <ele>2184.60009765625</ele>
        <time>2020-10-24T13:05:33.000Z</time>
      </trkpt>
      <trkpt lat="42.17944926582276821136474609375" lon="1.7673921771347522735595703125">
        <ele>2184.60009765625</ele>
        <time>2020-10-24T13:05:35.000Z</time>
      </trkpt>
      <trkpt lat="42.17944256030023097991943359375" lon="1.7674092762172222137451171875">
        <ele>2184.39990234375</ele>
        <time>2020-10-24T13:05:38.000Z</time>
      </trkpt>
      <trkpt lat="42.17942378483712673187255859375" lon="1.76745973527431488037109375">
        <ele>2184.199951171875</ele>
        <time>2020-10-24T13:05:45.000Z</time>
      </trkpt>
      <trkpt lat="42.17941909097135066986083984375" lon="1.76747524179518222808837890625">
        <ele>2184</ele>
        <time>2020-10-24T13:05:46.000Z</time>
      </trkpt>
      <trkpt lat="42.17939981259405612945556640625" lon="1.7675219289958477020263671875">
        <ele>2183.800048828125</ele>
        <time>2020-10-24T13:05:51.000Z</time>
      </trkpt>
      <trkpt lat="42.1793878264725208282470703125" lon="1.76754313521087169647216796875">
        <ele>2183.800048828125</ele>
        <time>2020-10-24T13:05:53.000Z</time>
      </trkpt>
      <trkpt lat="42.17936913482844829559326171875" lon="1.76758068613708019256591796875">
        <ele>2183.39990234375</ele>
        <time>2020-10-24T13:05:56.000Z</time>
      </trkpt>
      <trkpt lat="42.17933929525315761566162109375" lon="1.767607592046260833740234375">
        <ele>2182.800048828125</ele>
        <time>2020-10-24T13:05:59.000Z</time>
      </trkpt>
      <trkpt lat="42.17932932078838348388671875" lon="1.76761371083557605743408203125">
        <ele>2182.800048828125</ele>
        <time>2020-10-24T13:06:00.000Z</time>
      </trkpt>
      <trkpt lat="42.17929042875766754150390625" lon="1.767639778554439544677734375">
        <ele>2182.39990234375</ele>
        <time>2020-10-24T13:06:04.000Z</time>
      </trkpt>
      <trkpt lat="42.17928774654865264892578125" lon="1.76763483323156833648681640625">
        <ele>2182</ele>
        <time>2020-10-24T13:06:06.000Z</time>
      </trkpt>
      <trkpt lat="42.17929637990891933441162109375" lon="1.767642460763454437255859375">
        <ele>2181.800048828125</ele>
        <time>2020-10-24T13:06:09.000Z</time>
      </trkpt>
      <trkpt lat="42.1793013252317905426025390625" lon="1.7676536925137042999267578125">
        <ele>2181.800048828125</ele>
        <time>2020-10-24T13:06:10.000Z</time>
      </trkpt>
      <trkpt lat="42.17929470352828502655029296875" lon="1.76766349934041500091552734375">
        <ele>2181.800048828125</ele>
        <time>2020-10-24T13:06:11.000Z</time>
      </trkpt>
      <trkpt lat="42.17928179539740085601806640625" lon="1.767676658928394317626953125">
        <ele>2181.800048828125</ele>
        <time>2020-10-24T13:06:13.000Z</time>
      </trkpt>
      <trkpt lat="42.1792574040591716766357421875" lon="1.767732314765453338623046875">
        <ele>2181.800048828125</ele>
        <time>2020-10-24T13:06:19.000Z</time>
      </trkpt>
      <trkpt lat="42.1792091242969036102294921875" lon="1.76777757704257965087890625">
        <ele>2181.199951171875</ele>
        <time>2020-10-24T13:06:25.000Z</time>
      </trkpt>
      <trkpt lat="42.17919697053730487823486328125" lon="1.7677844502031803131103515625">
        <ele>2180.800048828125</ele>
        <time>2020-10-24T13:06:27.000Z</time>
      </trkpt>
      <trkpt lat="42.179182805120944976806640625" lon="1.7677874676883220672607421875">
        <ele>2180.39990234375</ele>
        <time>2020-10-24T13:06:31.000Z</time>
      </trkpt>
      <trkpt lat="42.17916076071560382843017578125" lon="1.7678126133978366851806640625">
        <ele>2179.800048828125</ele>
        <time>2020-10-24T13:06:35.000Z</time>
      </trkpt>
      <trkpt lat="42.1791310049593448638916015625" lon="1.76784572191536426544189453125">
        <ele>2178.39990234375</ele>
        <time>2020-10-24T13:06:41.000Z</time>
      </trkpt>
      <trkpt lat="42.17912706546485424041748046875" lon="1.76785259507596492767333984375">
        <ele>2178.199951171875</ele>
        <time>2020-10-24T13:06:42.000Z</time>
      </trkpt>
      <trkpt lat="42.1791118942201137542724609375" lon="1.7678843624889850616455078125">
        <ele>2177.39990234375</ele>
        <time>2020-10-24T13:06:47.000Z</time>
      </trkpt>
      <trkpt lat="42.17910845763981342315673828125" lon="1.7678914032876491546630859375">
        <ele>2177.199951171875</ele>
        <time>2020-10-24T13:06:48.000Z</time>
      </trkpt>
      <trkpt lat="42.17909068800508975982666015625" lon="1.767943203449249267578125">
        <ele>2176.39990234375</ele>
        <time>2020-10-24T13:06:55.000Z</time>
      </trkpt>
      <trkpt lat="42.17909194529056549072265625" lon="1.76794446073472499847412109375">
        <ele>2176.39990234375</ele>
        <time>2020-10-24T13:06:56.000Z</time>
      </trkpt>
      <trkpt lat="42.17909638769924640655517578125" lon="1.7679517529904842376708984375">
        <ele>2176.199951171875</ele>
        <time>2020-10-24T13:07:01.000Z</time>
      </trkpt>
      <trkpt lat="42.179102338850498199462890625" lon="1.7679497413337230682373046875">
        <ele>2176</ele>
        <time>2020-10-24T13:07:07.000Z</time>
      </trkpt>
      <trkpt lat="42.179102338850498199462890625" lon="1.7679497413337230682373046875">
        <ele>2176</ele>
        <time>2020-10-24T13:07:08.000Z</time>
      </trkpt>
      <trkpt lat="42.1790797077119350433349609375" lon="1.76803951151669025421142578125">
        <ele>2175</ele>
        <time>2020-10-24T13:07:24.000Z</time>
      </trkpt>
      <trkpt lat="42.1790766902267932891845703125" lon="1.76807220093905925750732421875">
        <ele>2174.800048828125</ele>
        <time>2020-10-24T13:07:26.000Z</time>
      </trkpt>
      <trkpt lat="42.1790636144578456878662109375" lon="1.7681049741804599761962890625">
        <ele>2174.800048828125</ele>
        <time>2020-10-24T13:07:29.000Z</time>
      </trkpt>
      <trkpt lat="42.17903955839574337005615234375" lon="1.7682132683694362640380859375">
        <ele>2174.199951171875</ele>
        <time>2020-10-24T13:07:38.000Z</time>
      </trkpt>
      <trkpt lat="42.17903385870158672332763671875" lon="1.7682193033397197723388671875">
        <ele>2174.199951171875</ele>
        <time>2020-10-24T13:07:39.000Z</time>
      </trkpt>
      <trkpt lat="42.17902891337871551513671875" lon="1.76823397167026996612548828125">
        <ele>2174</ele>
        <time>2020-10-24T13:07:42.000Z</time>
      </trkpt>
      <trkpt lat="42.1790267340838909149169921875" lon="1.7682380788028240203857421875">
        <ele>2174</ele>
        <time>2020-10-24T13:07:43.000Z</time>
      </trkpt>
      <trkpt lat="42.179026901721954345703125" lon="1.7682397551834583282470703125">
        <ele>2173.800048828125</ele>
        <time>2020-10-24T13:07:44.000Z</time>
      </trkpt>
      <trkpt lat="42.1790109761059284210205078125" lon="1.76825459115207195281982421875">
        <ele>2173.60009765625</ele>
        <time>2020-10-24T13:07:48.000Z</time>
      </trkpt>
      <trkpt lat="42.17887527309358119964599609375" lon="1.76912547089159488677978515625">
        <ele>2168</ele>
        <time>2020-10-24T13:09:37.000Z</time>
      </trkpt>
      <trkpt lat="42.17885859310626983642578125" lon="1.76915396936237812042236328125">
        <ele>2167.199951171875</ele>
        <time>2020-10-24T13:09:40.000Z</time>
      </trkpt>
      <trkpt lat="42.17885549180209636688232421875" lon="1.7691627703607082366943359375">
        <ele>2166.60009765625</ele>
        <time>2020-10-24T13:09:41.000Z</time>
      </trkpt>
      <trkpt lat="42.178841494023799896240234375" lon="1.76920493133366107940673828125">
        <ele>2165.60009765625</ele>
        <time>2020-10-24T13:09:45.000Z</time>
      </trkpt>
      <trkpt lat="42.17883856035768985748291015625" lon="1.76921783946454524993896484375">
        <ele>2165.39990234375</ele>
        <time>2020-10-24T13:09:46.000Z</time>
      </trkpt>
      <trkpt lat="42.1788297593593597412109375" lon="1.769241392612457275390625">
        <ele>2164.800048828125</ele>
        <time>2020-10-24T13:09:48.000Z</time>
      </trkpt>
      <trkpt lat="42.1788141690194606781005859375" lon="1.76926477812230587005615234375">
        <ele>2164.39990234375</ele>
        <time>2020-10-24T13:09:50.000Z</time>
      </trkpt>
      <trkpt lat="42.1787967346608638763427734375" lon="1.769312806427478790283203125">
        <ele>2163</ele>
        <time>2020-10-24T13:09:56.000Z</time>
      </trkpt>
      <trkpt lat="42.17879430390894412994384765625" lon="1.76931314170360565185546875">
        <ele>2163</ele>
        <time>2020-10-24T13:09:57.000Z</time>
      </trkpt>
      <trkpt lat="42.1787836588919162750244140625" lon="1.76930752582848072052001953125">
        <ele>2162.60009765625</ele>
        <time>2020-10-24T13:09:59.000Z</time>
      </trkpt>
      <trkpt lat="42.17876949347555637359619140625" lon="1.76930903457105159759521484375">
        <ele>2162</ele>
        <time>2020-10-24T13:10:01.000Z</time>
      </trkpt>
      <trkpt lat="42.17875792644917964935302734375" lon="1.76933703012764453887939453125">
        <ele>2161.199951171875</ele>
        <time>2020-10-24T13:10:03.000Z</time>
      </trkpt>
      <trkpt lat="42.17875105328857898712158203125" lon="1.76934859715402126312255859375">
        <ele>2160.800048828125</ele>
        <time>2020-10-24T13:10:04.000Z</time>
      </trkpt>
      <trkpt lat="42.17873076908290386199951171875" lon="1.7693636007606983184814453125">
        <ele>2160</ele>
        <time>2020-10-24T13:10:06.000Z</time>
      </trkpt>
      <trkpt lat="42.17872305773198604583740234375" lon="1.76936821080744266510009765625">
        <ele>2159.60009765625</ele>
        <time>2020-10-24T13:10:07.000Z</time>
      </trkpt>
      <trkpt lat="42.178712747991085052490234375" lon="1.76937357522547245025634765625">
        <ele>2158.60009765625</ele>
        <time>2020-10-24T13:10:09.000Z</time>
      </trkpt>
      <trkpt lat="42.178709395229816436767578125" lon="1.76937910728156566619873046875">
        <ele>2158.39990234375</ele>
        <time>2020-10-24T13:10:10.000Z</time>
      </trkpt>
      <trkpt lat="42.1787092275917530059814453125" lon="1.769395954906940460205078125">
        <ele>2157.800048828125</ele>
        <time>2020-10-24T13:10:12.000Z</time>
      </trkpt>
      <trkpt lat="42.17870864085853099822998046875" lon="1.7694224417209625244140625">
        <ele>2157.199951171875</ele>
        <time>2020-10-24T13:10:14.000Z</time>
      </trkpt>
      <trkpt lat="42.17870612628757953643798828125" lon="1.76943392492830753326416015625">
        <ele>2157</ele>
        <time>2020-10-24T13:10:15.000Z</time>
      </trkpt>
      <trkpt lat="42.1786988340318202972412109375" lon="1.7694856412708759307861328125">
        <ele>2156</ele>
        <time>2020-10-24T13:10:19.000Z</time>
      </trkpt>
      <trkpt lat="42.178697995841503143310546875" lon="1.76952369511127471923828125">
        <ele>2155</ele>
        <time>2020-10-24T13:10:22.000Z</time>
      </trkpt>
      <trkpt lat="42.17870042659342288970947265625" lon="1.76955378614366054534912109375">
        <ele>2153.60009765625</ele>
        <time>2020-10-24T13:10:26.000Z</time>
      </trkpt>
      <trkpt lat="42.1786954812705516815185546875" lon="1.769563592970371246337890625">
        <ele>2153.39990234375</ele>
        <time>2020-10-24T13:10:27.000Z</time>
      </trkpt>
      <trkpt lat="42.178688608109951019287109375" lon="1.76957021467387676239013671875">
        <ele>2152.800048828125</ele>
        <time>2020-10-24T13:10:29.000Z</time>
      </trkpt>
      <trkpt lat="42.17868131585419178009033203125" lon="1.769565604627132415771484375">
        <ele>2152.39990234375</ele>
        <time>2020-10-24T13:10:30.000Z</time>
      </trkpt>
      <trkpt lat="42.1786398254334926605224609375" lon="1.76954381167888641357421875">
        <ele>2151.199951171875</ele>
        <time>2020-10-24T13:10:35.000Z</time>
      </trkpt>
      <trkpt lat="42.17860705219209194183349609375" lon="1.76952771842479705810546875">
        <ele>2150</ele>
        <time>2020-10-24T13:10:39.000Z</time>
      </trkpt>
      <trkpt lat="42.17856824398040771484375" lon="1.7694916762411594390869140625">
        <ele>2149</ele>
        <time>2020-10-24T13:10:45.000Z</time>
      </trkpt>
      <trkpt lat="42.17855751514434814453125" lon="1.769482791423797607421875">
        <ele>2148.800048828125</ele>
        <time>2020-10-24T13:10:46.000Z</time>
      </trkpt>
      <trkpt lat="42.178537733852863311767578125" lon="1.76945789717137813568115234375">
        <ele>2147.60009765625</ele>
        <time>2020-10-24T13:10:50.000Z</time>
      </trkpt>
      <trkpt lat="42.17851904220879077911376953125" lon="1.76943518221378326416015625">
        <ele>2147.199951171875</ele>
        <time>2020-10-24T13:10:53.000Z</time>
      </trkpt>
      <trkpt lat="42.17850663699209690093994140625" lon="1.7694122157990932464599609375">
        <ele>2146.60009765625</ele>
        <time>2020-10-24T13:10:56.000Z</time>
      </trkpt>
      <trkpt lat="42.1785052120685577392578125" lon="1.76940224133431911468505859375">
        <ele>2146.39990234375</ele>
        <time>2020-10-24T13:10:57.000Z</time>
      </trkpt>
      <trkpt lat="42.1785053797066211700439453125" lon="1.76937340758740901947021484375">
        <ele>2146.199951171875</ele>
        <time>2020-10-24T13:10:59.000Z</time>
      </trkpt>
      <trkpt lat="42.1785063855350017547607421875" lon="1.76934272982180118560791015625">
        <ele>2146</ele>
        <time>2020-10-24T13:11:01.000Z</time>
      </trkpt>
      <trkpt lat="42.1784986741840839385986328125" lon="1.76930517889559268951416015625">
        <ele>2145.800048828125</ele>
        <time>2020-10-24T13:11:03.000Z</time>
      </trkpt>
      <trkpt lat="42.178492136299610137939453125" lon="1.76929042674601078033447265625">
        <ele>2145.60009765625</ele>
        <time>2020-10-24T13:11:04.000Z</time>
      </trkpt>
      <trkpt lat="42.178482078015804290771484375" lon="1.76927014254033565521240234375">
        <ele>2145.199951171875</ele>
        <time>2020-10-24T13:11:06.000Z</time>
      </trkpt>
      <trkpt lat="42.1784735284745693206787109375" lon="1.76925086416304111480712890625">
        <ele>2144.60009765625</ele>
        <time>2020-10-24T13:11:09.000Z</time>
      </trkpt>
      <trkpt lat="42.17846489511430263519287109375" lon="1.769241727888584136962890625">
        <ele>2144.39990234375</ele>
        <time>2020-10-24T13:11:10.000Z</time>
      </trkpt>
      <trkpt lat="42.17845332808792591094970703125" lon="1.7692373692989349365234375">
        <ele>2144</ele>
        <time>2020-10-24T13:11:12.000Z</time>
      </trkpt>
      <trkpt lat="42.17843974940478801727294921875" lon="1.76923812367022037506103515625">
        <ele>2143.60009765625</ele>
        <time>2020-10-24T13:11:14.000Z</time>
      </trkpt>
      <trkpt lat="42.17842801474034786224365234375" lon="1.76924097351729869842529296875">
        <ele>2143.199951171875</ele>
        <time>2020-10-24T13:11:16.000Z</time>
      </trkpt>
      <trkpt lat="42.1784054674208164215087890625" lon="1.76925153471529483795166015625">
        <ele>2141.800048828125</ele>
        <time>2020-10-24T13:11:20.000Z</time>
      </trkpt>
      <trkpt lat="42.1784058026969432830810546875" lon="1.7692601680755615234375">
        <ele>2141.39990234375</ele>
        <time>2020-10-24T13:11:21.000Z</time>
      </trkpt>
      <trkpt lat="42.178395576775074005126953125" lon="1.76928087137639522552490234375">
        <ele>2140.60009765625</ele>
        <time>2020-10-24T13:11:23.000Z</time>
      </trkpt>
      <trkpt lat="42.17838845215737819671630859375" lon="1.769290678203105926513671875">
        <ele>2140.199951171875</ele>
        <time>2020-10-24T13:11:24.000Z</time>
      </trkpt>
      <trkpt lat="42.17837353236973285675048828125" lon="1.76930987276136875152587890625">
        <ele>2139.39990234375</ele>
        <time>2020-10-24T13:11:27.000Z</time>
      </trkpt>
      <trkpt lat="42.1783612109720706939697265625" lon="1.76932345144450664520263671875">
        <ele>2138.800048828125</ele>
        <time>2020-10-24T13:11:29.000Z</time>
      </trkpt>
      <trkpt lat="42.178354673087596893310546875" lon="1.76933652721345424652099609375">
        <ele>2138.199951171875</ele>
        <time>2020-10-24T13:11:31.000Z</time>
      </trkpt>
      <trkpt lat="42.1783415973186492919921875" lon="1.76935530267655849456787109375">
        <ele>2137.199951171875</ele>
        <time>2020-10-24T13:11:33.000Z</time>
      </trkpt>
      <trkpt lat="42.17833749018609523773193359375" lon="1.76936167292296886444091796875">
        <ele>2136.800048828125</ele>
        <time>2020-10-24T13:11:34.000Z</time>
      </trkpt>
      <trkpt lat="42.1783357299864292144775390625" lon="1.76936837844550609588623046875">
        <ele>2136.39990234375</ele>
        <time>2020-10-24T13:11:35.000Z</time>
      </trkpt>
      <trkpt lat="42.17833162285387516021728515625" lon="1.7693739943206310272216796875">
        <ele>2136.199951171875</ele>
        <time>2020-10-24T13:11:36.000Z</time>
      </trkpt>
      <trkpt lat="42.17832491733133792877197265625" lon="1.76937391050159931182861328125">
        <ele>2136</ele>
        <time>2020-10-24T13:11:37.000Z</time>
      </trkpt>
      <trkpt lat="42.1783216483891010284423828125" lon="1.76937617361545562744140625">
        <ele>2135.800048828125</ele>
        <time>2020-10-24T13:11:38.000Z</time>
      </trkpt>
      <trkpt lat="42.1783062256872653961181640625" lon="1.7693934403359889984130859375">
        <ele>2134.800048828125</ele>
        <time>2020-10-24T13:11:41.000Z</time>
      </trkpt>
      <trkpt lat="42.17830027453601360321044921875" lon="1.76940123550593852996826171875">
        <ele>2134.60009765625</ele>
        <time>2020-10-24T13:11:42.000Z</time>
      </trkpt>
      <trkpt lat="42.17828904278576374053955078125" lon="1.7694105394184589385986328125">
        <ele>2133.60009765625</ele>
        <time>2020-10-24T13:11:44.000Z</time>
      </trkpt>
      <trkpt lat="42.1782824210822582244873046875" lon="1.769417412579059600830078125">
        <ele>2133.39990234375</ele>
        <time>2020-10-24T13:11:45.000Z</time>
      </trkpt>
      <trkpt lat="42.1782596223056316375732421875" lon="1.76942135207355022430419921875">
        <ele>2132.39990234375</ele>
        <time>2020-10-24T13:11:49.000Z</time>
      </trkpt>
      <trkpt lat="42.178252078592777252197265625" lon="1.76942839287221431732177734375">
        <ele>2132.199951171875</ele>
        <time>2020-10-24T13:11:50.000Z</time>
      </trkpt>
      <trkpt lat="42.17824528925120830535888671875" lon="1.76943174563348293304443359375">
        <ele>2131.800048828125</ele>
        <time>2020-10-24T13:11:51.000Z</time>
      </trkpt>
      <trkpt lat="42.178233303129673004150390625" lon="1.76943811587989330291748046875">
        <ele>2131.199951171875</ele>
        <time>2020-10-24T13:11:53.000Z</time>
      </trkpt>
      <trkpt lat="42.1782207302749156951904296875" lon="1.76944549195468425750732421875">
        <ele>2130.60009765625</ele>
        <time>2020-10-24T13:11:55.000Z</time>
      </trkpt>
      <trkpt lat="42.178215198218822479248046875" lon="1.7694437317550182342529296875">
        <ele>2130.199951171875</ele>
        <time>2020-10-24T13:11:56.000Z</time>
      </trkpt>
      <trkpt lat="42.17821176163852214813232421875" lon="1.7694383673369884490966796875">
        <ele>2130</ele>
        <time>2020-10-24T13:11:57.000Z</time>
      </trkpt>
      <trkpt lat="42.17819633893668651580810546875" lon="1.76941816695034503936767578125">
        <ele>2129.60009765625</ele>
        <time>2020-10-24T13:12:00.000Z</time>
      </trkpt>
      <trkpt lat="42.17818343080580234527587890625" lon="1.7693931050598621368408203125">
        <ele>2129</ele>
        <time>2020-10-24T13:12:02.000Z</time>
      </trkpt>
      <trkpt lat="42.17817865312099456787109375" lon="1.7693783529102802276611328125">
        <ele>2128.60009765625</ele>
        <time>2020-10-24T13:12:03.000Z</time>
      </trkpt>
      <trkpt lat="42.17816390097141265869140625" lon="1.769340969622135162353515625">
        <ele>2127.800048828125</ele>
        <time>2020-10-24T13:12:07.000Z</time>
      </trkpt>
      <trkpt lat="42.1781633980572223663330078125" lon="1.76933669485151767730712890625">
        <ele>2127.39990234375</ele>
        <time>2020-10-24T13:12:09.000Z</time>
      </trkpt>
      <trkpt lat="42.1781593747437000274658203125" lon="1.76934055052697658538818359375">
        <ele>2127.39990234375</ele>
        <time>2020-10-24T13:12:10.000Z</time>
      </trkpt>
      <trkpt lat="42.1781342290341854095458984375" lon="1.76935982890427112579345703125">
        <ele>2126.60009765625</ele>
        <time>2020-10-24T13:12:15.000Z</time>
      </trkpt>
      <trkpt lat="42.17811939306557178497314453125" lon="1.76938111893832683563232421875">
        <ele>2126.199951171875</ele>
        <time>2020-10-24T13:12:18.000Z</time>
      </trkpt>
      <trkpt lat="42.1781040541827678680419921875" lon="1.769399978220462799072265625">
        <ele>2125.60009765625</ele>
        <time>2020-10-24T13:12:20.000Z</time>
      </trkpt>
      <trkpt lat="42.17808083631098270416259765625" lon="1.76943174563348293304443359375">
        <ele>2124.39990234375</ele>
        <time>2020-10-24T13:12:24.000Z</time>
      </trkpt>
      <trkpt lat="42.1780772320926189422607421875" lon="1.76943526603281497955322265625">
        <ele>2123.199951171875</ele>
        <time>2020-10-24T13:12:26.000Z</time>
      </trkpt>
      <trkpt lat="42.178076393902301788330078125" lon="1.76943828351795673370361328125">
        <ele>2123</ele>
        <time>2020-10-24T13:12:27.000Z</time>
      </trkpt>
      <trkpt lat="42.1780814230442047119140625" lon="1.76943761296570301055908203125">
        <ele>2122.800048828125</ele>
        <time>2020-10-24T13:12:32.000Z</time>
      </trkpt>
      <trkpt lat="42.1780929900705814361572265625" lon="1.769472062587738037109375">
        <ele>2122.800048828125</ele>
        <time>2020-10-24T13:12:40.000Z</time>
      </trkpt>
      <trkpt lat="42.17803180217742919921875" lon="1.76967230625450611114501953125">
        <ele>2118</ele>
        <time>2020-10-24T13:12:58.000Z</time>
      </trkpt>
      <trkpt lat="42.1780282817780971527099609375" lon="1.76968269981443881988525390625">
        <ele>2117.800048828125</ele>
        <time>2020-10-24T13:12:59.000Z</time>
      </trkpt>
      <trkpt lat="42.17799332924187183380126953125" lon="1.7699178121984004974365234375">
        <ele>2110.800048828125</ele>
        <time>2020-10-24T13:13:23.000Z</time>
      </trkpt>
      <trkpt lat="42.17799165286123752593994140625" lon="1.76992761902511119842529296875">
        <ele>2110.39990234375</ele>
        <time>2020-10-24T13:13:24.000Z</time>
      </trkpt>
      <trkpt lat="42.177787721157073974609375" lon="1.769900880753993988037109375">
        <ele>2101.199951171875</ele>
        <time>2020-10-24T13:13:55.000Z</time>
      </trkpt>
      <trkpt lat="42.17778076417744159698486328125" lon="1.76990163512527942657470703125">
        <ele>2100.800048828125</ele>
        <time>2020-10-24T13:13:56.000Z</time>
      </trkpt>
      <trkpt lat="42.17777372337877750396728515625" lon="1.769902221858501434326171875">
        <ele>2100.39990234375</ele>
        <time>2020-10-24T13:13:57.000Z</time>
      </trkpt>
      <trkpt lat="42.1777617372572422027587890625" lon="1.76989895291626453399658203125">
        <ele>2100.199951171875</ele>
        <time>2020-10-24T13:13:58.000Z</time>
      </trkpt>
      <trkpt lat="42.1777550317347049713134765625" lon="1.76989509724080562591552734375">
        <ele>2099.800048828125</ele>
        <time>2020-10-24T13:13:59.000Z</time>
      </trkpt>
      <trkpt lat="42.17771789990365505218505859375" lon="1.7698769085109233856201171875">
        <ele>2098.800048828125</ele>
        <time>2020-10-24T13:14:03.000Z</time>
      </trkpt>
      <trkpt lat="42.177703566849231719970703125" lon="1.7698950134217739105224609375">
        <ele>2097.60009765625</ele>
        <time>2020-10-24T13:14:06.000Z</time>
      </trkpt>
      <trkpt lat="42.177699543535709381103515625" lon="1.76995762623846530914306640625">
        <ele>2096.199951171875</ele>
        <time>2020-10-24T13:14:11.000Z</time>
      </trkpt>
      <trkpt lat="42.1776963584125041961669921875" lon="1.769987381994724273681640625">
        <ele>2095.60009765625</ele>
        <time>2020-10-24T13:14:13.000Z</time>
      </trkpt>
      <trkpt lat="42.177696861326694488525390625" lon="1.7700103484094142913818359375">
        <ele>2095.199951171875</ele>
        <time>2020-10-24T13:14:15.000Z</time>
      </trkpt>
      <trkpt lat="42.1776966936886310577392578125" lon="1.770022921264171600341796875">
        <ele>2095</ele>
        <time>2020-10-24T13:14:16.000Z</time>
      </trkpt>
      <trkpt lat="42.17769912444055080413818359375" lon="1.77004999481141567230224609375">
        <ele>2094.39990234375</ele>
        <time>2020-10-24T13:14:18.000Z</time>
      </trkpt>
      <trkpt lat="42.17770448885858058929443359375" lon="1.770080588757991790771484375">
        <ele>2094.199951171875</ele>
        <time>2020-10-24T13:14:20.000Z</time>
      </trkpt>
      <trkpt lat="42.1777273714542388916015625" lon="1.7701424472033977508544921875">
        <ele>2093.39990234375</ele>
        <time>2020-10-24T13:14:25.000Z</time>
      </trkpt>
      <trkpt lat="42.17773080803453922271728515625" lon="1.77015376277267932891845703125">
        <ele>2093</ele>
        <time>2020-10-24T13:14:26.000Z</time>
      </trkpt>
      <trkpt lat="42.177736423909664154052734375" lon="1.77020153962075710296630859375">
        <ele>2092.199951171875</ele>
        <time>2020-10-24T13:14:30.000Z</time>
      </trkpt>
      <trkpt lat="42.1777345798909664154052734375" lon="1.77021092735230922698974609375">
        <ele>2092</ele>
        <time>2020-10-24T13:14:31.000Z</time>
      </trkpt>
      <trkpt lat="42.17773231677711009979248046875" lon="1.77022039890289306640625">
        <ele>2091.60009765625</ele>
        <time>2020-10-24T13:14:32.000Z</time>
      </trkpt>
      <trkpt lat="42.177727036178112030029296875" lon="1.77024386823177337646484375">
        <ele>2090.800048828125</ele>
        <time>2020-10-24T13:14:34.000Z</time>
      </trkpt>
      <trkpt lat="42.17772896401584148406982421875" lon="1.770301871001720428466796875">
        <ele>2089.60009765625</ele>
        <time>2020-10-24T13:14:38.000Z</time>
      </trkpt>
      <trkpt lat="42.1777302213013172149658203125" lon="1.770325005054473876953125">
        <ele>2089.199951171875</ele>
        <time>2020-10-24T13:14:40.000Z</time>
      </trkpt>
      <trkpt lat="42.177734412252902984619140625" lon="1.77034989930689334869384765625">
        <ele>2088.60009765625</ele>
        <time>2020-10-24T13:14:42.000Z</time>
      </trkpt>
      <trkpt lat="42.17773416079580783843994140625" lon="1.7703690938651561737060546875">
        <ele>2088.199951171875</ele>
        <time>2020-10-24T13:14:44.000Z</time>
      </trkpt>
      <trkpt lat="42.17773851938545703887939453125" lon="1.7703962512314319610595703125">
        <ele>2088</ele>
        <time>2020-10-24T13:14:46.000Z</time>
      </trkpt>
      <trkpt lat="42.1777389384806156158447265625" lon="1.77043388597667217254638671875">
        <ele>2087.800048828125</ele>
        <time>2020-10-24T13:14:48.000Z</time>
      </trkpt>
      <trkpt lat="42.17772711999714374542236328125" lon="1.77045819349586963653564453125">
        <ele>2087.199951171875</ele>
        <time>2020-10-24T13:14:50.000Z</time>
      </trkpt>
      <trkpt lat="42.17771655879914760589599609375" lon="1.77046087570488452911376953125">
        <ele>2086.800048828125</ele>
        <time>2020-10-24T13:14:51.000Z</time>
      </trkpt>
      <trkpt lat="42.17769719660282135009765625" lon="1.7704606242477893829345703125">
        <ele>2086</ele>
        <time>2020-10-24T13:14:53.000Z</time>
      </trkpt>
      <trkpt lat="42.17767884023487567901611328125" lon="1.7704559303820133209228515625">
        <ele>2085.39990234375</ele>
        <time>2020-10-24T13:14:55.000Z</time>
      </trkpt>
      <trkpt lat="42.17766324989497661590576171875" lon="1.77044612355530261993408203125">
        <ele>2084.800048828125</ele>
        <time>2020-10-24T13:14:57.000Z</time>
      </trkpt>
      <trkpt lat="42.17765319161117076873779296875" lon="1.77044495008885860443115234375">
        <ele>2084.39990234375</ele>
        <time>2020-10-24T13:14:58.000Z</time>
      </trkpt>
      <trkpt lat="42.1776361763477325439453125" lon="1.7704470455646514892578125">
        <ele>2083.800048828125</ele>
        <time>2020-10-24T13:15:00.000Z</time>
      </trkpt>
      <trkpt lat="42.17762704007327556610107421875" lon="1.7704428546130657196044921875">
        <ele>2083.60009765625</ele>
        <time>2020-10-24T13:15:01.000Z</time>
      </trkpt>
      <trkpt lat="42.17758965678513050079345703125" lon="1.770407818257808685302734375">
        <ele>2082.39990234375</ele>
        <time>2020-10-24T13:15:05.000Z</time>
      </trkpt>
      <trkpt lat="42.17756736092269420623779296875" lon="1.77037739194929599761962890625">
        <ele>2081.199951171875</ele>
        <time>2020-10-24T13:15:10.000Z</time>
      </trkpt>
      <trkpt lat="42.177562750875949859619140625" lon="1.77037118934094905853271484375">
        <ele>2081</ele>
        <time>2020-10-24T13:15:12.000Z</time>
      </trkpt>
      <trkpt lat="42.177561409771442413330078125" lon="1.770367920398712158203125">
        <ele>2080.800048828125</ele>
        <time>2020-10-24T13:15:13.000Z</time>
      </trkpt>
      <trkpt lat="42.17754556797444820404052734375" lon="1.77037772722542285919189453125">
        <ele>2080.199951171875</ele>
        <time>2020-10-24T13:15:15.000Z</time>
      </trkpt>
      <trkpt lat="42.17753819189965724945068359375" lon="1.77037940360605716705322265625">
        <ele>2080</ele>
        <time>2020-10-24T13:15:16.000Z</time>
      </trkpt>
      <trkpt lat="42.177531234920024871826171875" lon="1.77037722431123256683349609375">
        <ele>2079.800048828125</ele>
        <time>2020-10-24T13:15:17.000Z</time>
      </trkpt>
      <trkpt lat="42.1775109507143497467041015625" lon="1.77036968059837818145751953125">
        <ele>2079.39990234375</ele>
        <time>2020-10-24T13:15:19.000Z</time>
      </trkpt>
      <trkpt lat="42.17750432901084423065185546875" lon="1.7703620530664920806884765625">
        <ele>2079.199951171875</ele>
        <time>2020-10-24T13:15:20.000Z</time>
      </trkpt>
      <trkpt lat="42.1774998866021633148193359375" lon="1.77035409025847911834716796875">
        <ele>2079</ele>
        <time>2020-10-24T13:15:21.000Z</time>
      </trkpt>
      <trkpt lat="42.1774824522435665130615234375" lon="1.77033514715731143951416015625">
        <ele>2078.199951171875</ele>
        <time>2020-10-24T13:15:24.000Z</time>
      </trkpt>
      <trkpt lat="42.17747499234974384307861328125" lon="1.7703322134912014007568359375">
        <ele>2078</ele>
        <time>2020-10-24T13:15:25.000Z</time>
      </trkpt>
      <trkpt lat="42.17746610753238201141357421875" lon="1.7703263461589813232421875">
        <ele>2077.60009765625</ele>
        <time>2020-10-24T13:15:26.000Z</time>
      </trkpt>
      <trkpt lat="42.17746141366660594940185546875" lon="1.7703174613416194915771484375">
        <ele>2077.39990234375</ele>
        <time>2020-10-24T13:15:27.000Z</time>
      </trkpt>
      <trkpt lat="42.1774469129741191864013671875" lon="1.77030782215297222137451171875">
        <ele>2076.800048828125</ele>
        <time>2020-10-24T13:15:29.000Z</time>
      </trkpt>
      <trkpt lat="42.1774415485560894012451171875" lon="1.77030622959136962890625">
        <ele>2076.60009765625</ele>
        <time>2020-10-24T13:15:30.000Z</time>
      </trkpt>
      <trkpt lat="42.17743274755775928497314453125" lon="1.7703077383339405059814453125">
        <ele>2076.199951171875</ele>
        <time>2020-10-24T13:15:31.000Z</time>
      </trkpt>
      <trkpt lat="42.1774170733988285064697265625" lon="1.77031385712325572967529296875">
        <ele>2075.800048828125</ele>
        <time>2020-10-24T13:15:33.000Z</time>
      </trkpt>
      <trkpt lat="42.17740307562053203582763671875" lon="1.7703131027519702911376953125">
        <ele>2075.39990234375</ele>
        <time>2020-10-24T13:15:35.000Z</time>
      </trkpt>
      <trkpt lat="42.17738798819482326507568359375" lon="1.7703027091920375823974609375">
        <ele>2074.800048828125</ele>
        <time>2020-10-24T13:15:37.000Z</time>
      </trkpt>
      <trkpt lat="42.177375666797161102294921875" lon="1.77029944024980068206787109375">
        <ele>2074.60009765625</ele>
        <time>2020-10-24T13:15:38.000Z</time>
      </trkpt>
      <trkpt lat="42.17735965736210346221923828125" lon="1.77029617130756378173828125">
        <ele>2073.800048828125</ele>
        <time>2020-10-24T13:15:40.000Z</time>
      </trkpt>
      <trkpt lat="42.17735881917178630828857421875" lon="1.7702983506023883819580078125">
        <ele>2073.39990234375</ele>
        <time>2020-10-24T13:15:41.000Z</time>
      </trkpt>
      <trkpt lat="42.17735144309699535369873046875" lon="1.7703094147145748138427734375">
        <ele>2073.199951171875</ele>
        <time>2020-10-24T13:15:42.000Z</time>
      </trkpt>
      <trkpt lat="42.17734641395509243011474609375" lon="1.77030698396265506744384765625">
        <ele>2073</ele>
        <time>2020-10-24T13:15:43.000Z</time>
      </trkpt>
      <trkpt lat="42.17733903788030147552490234375" lon="1.770293824374675750732421875">
        <ele>2072.800048828125</ele>
        <time>2020-10-24T13:15:45.000Z</time>
      </trkpt>
      <trkpt lat="42.177333422005176544189453125" lon="1.7702889628708362579345703125">
        <ele>2072.60009765625</ele>
        <time>2020-10-24T13:15:46.000Z</time>
      </trkpt>
      <trkpt lat="42.177329398691654205322265625" lon="1.77028636448085308074951171875">
        <ele>2072.39990234375</ele>
        <time>2020-10-24T13:15:47.000Z</time>
      </trkpt>
      <trkpt lat="42.17732646502554416656494140625" lon="1.7702876217663288116455078125">
        <ele>2072</ele>
        <time>2020-10-24T13:15:48.000Z</time>
      </trkpt>
      <trkpt lat="42.17732478864490985870361328125" lon="1.77029591985046863555908203125">
        <ele>2071.800048828125</ele>
        <time>2020-10-24T13:15:50.000Z</time>
      </trkpt>
      <trkpt lat="42.17732747085392475128173828125" lon="1.770296506583690643310546875">
        <ele>2071.199951171875</ele>
        <time>2020-10-24T13:15:52.000Z</time>
      </trkpt>
      <trkpt lat="42.17732705175876617431640625" lon="1.77030513994395732879638671875">
        <ele>2071</ele>
        <time>2020-10-24T13:15:53.000Z</time>
      </trkpt>
      <trkpt lat="42.1773089468479156494140625" lon="1.77032969892024993896484375">
        <ele>2070.199951171875</ele>
        <time>2020-10-24T13:15:57.000Z</time>
      </trkpt>
      <trkpt lat="42.17729260213673114776611328125" lon="1.770350150763988494873046875">
        <ele>2069</ele>
        <time>2020-10-24T13:16:03.000Z</time>
      </trkpt>
      <trkpt lat="42.17728941701352596282958984375" lon="1.77036046050488948822021484375">
        <ele>2068.60009765625</ele>
        <time>2020-10-24T13:16:05.000Z</time>
      </trkpt>
      <trkpt lat="42.17728740535676479339599609375" lon="1.77038661204278469085693359375">
        <ele>2068</ele>
        <time>2020-10-24T13:16:07.000Z</time>
      </trkpt>
      <trkpt lat="42.1772822923958301544189453125" lon="1.77042801864445209503173828125">
        <ele>2067</ele>
        <time>2020-10-24T13:16:11.000Z</time>
      </trkpt>
      <trkpt lat="42.1772712282836437225341796875" lon="1.7704438604414463043212890625">
        <ele>2066.39990234375</ele>
        <time>2020-10-24T13:16:13.000Z</time>
      </trkpt>
      <trkpt lat="42.17725639231503009796142578125" lon="1.7704452015459537506103515625">
        <ele>2066</ele>
        <time>2020-10-24T13:16:15.000Z</time>
      </trkpt>
      <trkpt lat="42.17722353525459766387939453125" lon="1.77043036557734012603759765625">
        <ele>2064.800048828125</ele>
        <time>2020-10-24T13:16:19.000Z</time>
      </trkpt>
      <trkpt lat="42.17720501124858856201171875" lon="1.77039281465113162994384765625">
        <ele>2063.60009765625</ele>
        <time>2020-10-24T13:16:23.000Z</time>
      </trkpt>
      <trkpt lat="42.177173160016536712646484375" lon="1.77036456763744354248046875">
        <ele>2063</ele>
        <time>2020-10-24T13:16:27.000Z</time>
      </trkpt>
      <trkpt lat="42.1771582402288913726806640625" lon="1.77035325206816196441650390625">
        <ele>2062.60009765625</ele>
        <time>2020-10-24T13:16:30.000Z</time>
      </trkpt>
      <trkpt lat="42.1771330945193767547607421875" lon="1.77035341970622539520263671875">
        <ele>2062.199951171875</ele>
        <time>2020-10-24T13:16:33.000Z</time>
      </trkpt>
      <trkpt lat="42.1771126426756381988525390625" lon="1.77032760344445705413818359375">
        <ele>2061.39990234375</ele>
        <time>2020-10-24T13:16:37.000Z</time>
      </trkpt>
      <trkpt lat="42.17710183002054691314697265625" lon="1.7703208141028881072998046875">
        <ele>2061</ele>
        <time>2020-10-24T13:16:39.000Z</time>
      </trkpt>
      <trkpt lat="42.17709177173674106597900390625" lon="1.770314276218414306640625">
        <ele>2060.39990234375</ele>
        <time>2020-10-24T13:16:41.000Z</time>
      </trkpt>
      <trkpt lat="42.17708431184291839599609375" lon="1.77030379883944988250732421875">
        <ele>2059.800048828125</ele>
        <time>2020-10-24T13:16:43.000Z</time>
      </trkpt>
      <trkpt lat="42.1770730800926685333251953125" lon="1.77030086517333984375">
        <ele>2059.199951171875</ele>
        <time>2020-10-24T13:16:45.000Z</time>
      </trkpt>
      <trkpt lat="42.1770677156746387481689453125" lon="1.7702966742217540740966796875">
        <ele>2059</ele>
        <time>2020-10-24T13:16:46.000Z</time>
      </trkpt>
      <trkpt lat="42.17703276313841342926025390625" lon="1.77029659040272235870361328125">
        <ele>2058</ele>
        <time>2020-10-24T13:16:52.000Z</time>
      </trkpt>
      <trkpt lat="42.17700476758182048797607421875" lon="1.77029139362275600433349609375">
        <ele>2057</ele>
        <time>2020-10-24T13:16:56.000Z</time>
      </trkpt>
      <trkpt lat="42.17696352861821651458740234375" lon="1.77027496509253978729248046875">
        <ele>2055.800048828125</ele>
        <time>2020-10-24T13:17:02.000Z</time>
      </trkpt>
      <trkpt lat="42.1769473515450954437255859375" lon="1.7702896334230899810791015625">
        <ele>2054.60009765625</ele>
        <time>2020-10-24T13:17:06.000Z</time>
      </trkpt>
      <trkpt lat="42.1769428253173828125" lon="1.7703020386397838592529296875">
        <ele>2054</ele>
        <time>2020-10-24T13:17:08.000Z</time>
      </trkpt>
      <trkpt lat="42.17694089747965335845947265625" lon="1.77032458595931529998779296875">
        <ele>2053.60009765625</ele>
        <time>2020-10-24T13:17:11.000Z</time>
      </trkpt>
      <trkpt lat="42.17691541649401187896728515625" lon="1.77033632062375545501708984375">
        <ele>2052.60009765625</ele>
        <time>2020-10-24T13:17:15.000Z</time>
      </trkpt>
      <trkpt lat="42.1769121475517749786376953125" lon="1.77033950574696063995361328125">
        <ele>2052.39990234375</ele>
        <time>2020-10-24T13:17:16.000Z</time>
      </trkpt>
      <trkpt lat="42.1768906898796558380126953125" lon="1.77036800421774387359619140625">
        <ele>2051</ele>
        <time>2020-10-24T13:17:21.000Z</time>
      </trkpt>
      <trkpt lat="42.17688742093741893768310546875" lon="1.77036699838936328887939453125">
        <ele>2050.800048828125</ele>
        <time>2020-10-24T13:17:22.000Z</time>
      </trkpt>
      <trkpt lat="42.17686839401721954345703125" lon="1.77036129869520664215087890625">
        <ele>2049.800048828125</ele>
        <time>2020-10-24T13:17:27.000Z</time>
      </trkpt>
      <trkpt lat="42.176849283277988433837890625" lon="1.77036724984645843505859375">
        <ele>2049</ele>
        <time>2020-10-24T13:17:30.000Z</time>
      </trkpt>
      <trkpt lat="42.1768330223858356475830078125" lon="1.770367585122585296630859375">
        <ele>2048.60009765625</ele>
        <time>2020-10-24T13:17:32.000Z</time>
      </trkpt>
      <trkpt lat="42.17678700573742389678955078125" lon="1.77038275636732578277587890625">
        <ele>2047.5999755859375</ele>
        <time>2020-10-24T13:17:37.000Z</time>
      </trkpt>
      <trkpt lat="42.17677988111972808837890625" lon="1.77037588320672512054443359375">
        <ele>2047.199951171875</ele>
        <time>2020-10-24T13:17:38.000Z</time>
      </trkpt>
      <trkpt lat="42.176778875291347503662109375" lon="1.77035928703844547271728515625">
        <ele>2046.5999755859375</ele>
        <time>2020-10-24T13:17:41.000Z</time>
      </trkpt>
      <trkpt lat="42.17677258886396884918212890625" lon="1.77035526372492313385009765625">
        <ele>2046.4000244140625</ele>
        <time>2020-10-24T13:17:43.000Z</time>
      </trkpt>
      <trkpt lat="42.1767260693013668060302734375" lon="1.7703318782150745391845703125">
        <ele>2045.4000244140625</ele>
        <time>2020-10-24T13:17:50.000Z</time>
      </trkpt>
      <trkpt lat="42.17670352198183536529541015625" lon="1.7703399248421192169189453125">
        <ele>2044.199951171875</ele>
        <time>2020-10-24T13:17:54.000Z</time>
      </trkpt>
      <trkpt lat="42.17668508179485797882080078125" lon="1.7703452892601490020751953125">
        <ele>2043</ele>
        <time>2020-10-24T13:17:59.000Z</time>
      </trkpt>
      <trkpt lat="42.17665918171405792236328125" lon="1.7703330516815185546875">
        <ele>2042</ele>
        <time>2020-10-24T13:18:03.000Z</time>
      </trkpt>
      <trkpt lat="42.17664216645061969757080078125" lon="1.7703335545957088470458984375">
        <ele>2041</ele>
        <time>2020-10-24T13:18:06.000Z</time>
      </trkpt>
      <trkpt lat="42.17663948424160480499267578125" lon="1.770332045853137969970703125">
        <ele>2040.800048828125</ele>
        <time>2020-10-24T13:18:07.000Z</time>
      </trkpt>
      <trkpt lat="42.176606543362140655517578125" lon="1.77035023458302021026611328125">
        <ele>2039.800048828125</ele>
        <time>2020-10-24T13:18:12.000Z</time>
      </trkpt>
      <trkpt lat="42.176598496735095977783203125" lon="1.77035786211490631103515625">
        <ele>2039.4000244140625</ele>
        <time>2020-10-24T13:18:13.000Z</time>
      </trkpt>
      <trkpt lat="42.17658600769937038421630859375" lon="1.77036096341907978057861328125">
        <ele>2038.5999755859375</ele>
        <time>2020-10-24T13:18:15.000Z</time>
      </trkpt>
      <trkpt lat="42.17656186781823635101318359375" lon="1.77036465145647525787353515625">
        <ele>2037.5999755859375</ele>
        <time>2020-10-24T13:18:19.000Z</time>
      </trkpt>
      <trkpt lat="42.1765547432005405426025390625" lon="1.770363561809062957763671875">
        <ele>2037.4000244140625</ele>
        <time>2020-10-24T13:18:20.000Z</time>
      </trkpt>
      <trkpt lat="42.1765339560806751251220703125" lon="1.7703638970851898193359375">
        <ele>2036.4000244140625</ele>
        <time>2020-10-24T13:18:23.000Z</time>
      </trkpt>
      <trkpt lat="42.1765198744833469390869140625" lon="1.77035492844879627227783203125">
        <ele>2036</ele>
        <time>2020-10-24T13:18:25.000Z</time>
      </trkpt>
      <trkpt lat="42.1765031106770038604736328125" lon="1.77034134976565837860107421875">
        <ele>2035.4000244140625</ele>
        <time>2020-10-24T13:18:28.000Z</time>
      </trkpt>
      <trkpt lat="42.17647486366331577301025390625" lon="1.77032299339771270751953125">
        <ele>2034.4000244140625</ele>
        <time>2020-10-24T13:18:32.000Z</time>
      </trkpt>
      <trkpt lat="42.176450304687023162841796875" lon="1.7702949978411197662353515625">
        <ele>2033.5999755859375</ele>
        <time>2020-10-24T13:18:35.000Z</time>
      </trkpt>
      <trkpt lat="42.17643915675580501556396484375" lon="1.77028904668986797332763671875">
        <ele>2033.199951171875</ele>
        <time>2020-10-24T13:18:36.000Z</time>
      </trkpt>
      <trkpt lat="42.17641585506498813629150390625" lon="1.77027312107384204864501953125">
        <ele>2032.199951171875</ele>
        <time>2020-10-24T13:18:40.000Z</time>
      </trkpt>
      <trkpt lat="42.1764130890369415283203125" lon="1.77026524208486080169677734375">
        <ele>2031.800048828125</ele>
        <time>2020-10-24T13:18:41.000Z</time>
      </trkpt>
      <trkpt lat="42.176400013267993927001953125" lon="1.7702420242130756378173828125">
        <ele>2031.199951171875</ele>
        <time>2020-10-24T13:18:44.000Z</time>
      </trkpt>
      <trkpt lat="42.1763746999204158782958984375" lon="1.7702329717576503753662109375">
        <ele>2030</ele>
        <time>2020-10-24T13:18:48.000Z</time>
      </trkpt>
      <trkpt lat="42.17634678818285465240478515625" lon="1.77022551186382770538330078125">
        <ele>2029</ele>
        <time>2020-10-24T13:18:52.000Z</time>
      </trkpt>
      <trkpt lat="42.17632113955914974212646484375" lon="1.77022048272192478179931640625">
        <ele>2028</ele>
        <time>2020-10-24T13:18:56.000Z</time>
      </trkpt>
      <trkpt lat="42.1763187088072299957275390625" lon="1.77021243609488010406494140625">
        <ele>2027.5999755859375</ele>
        <time>2020-10-24T13:18:57.000Z</time>
      </trkpt>
      <trkpt lat="42.1762969158589839935302734375" lon="1.77022903226315975189208984375">
        <ele>2026.5999755859375</ele>
        <time>2020-10-24T13:19:01.000Z</time>
      </trkpt>
      <trkpt lat="42.17628962360322475433349609375" lon="1.77025191485881805419921875">
        <ele>2026.4000244140625</ele>
        <time>2020-10-24T13:19:03.000Z</time>
      </trkpt>
      <trkpt lat="42.17626514844596385955810546875" lon="1.77026264369487762451171875">
        <ele>2025.4000244140625</ele>
        <time>2020-10-24T13:19:06.000Z</time>
      </trkpt>
      <trkpt lat="42.17625819146633148193359375" lon="1.770250238478183746337890625">
        <ele>2024.800048828125</ele>
        <time>2020-10-24T13:19:08.000Z</time>
      </trkpt>
      <trkpt lat="42.176248468458652496337890625" lon="1.77023657597601413726806640625">
        <ele>2024.4000244140625</ele>
        <time>2020-10-24T13:19:11.000Z</time>
      </trkpt>
      <trkpt lat="42.1762301959097385406494140625" lon="1.77021880634129047393798828125">
        <ele>2023.4000244140625</ele>
        <time>2020-10-24T13:19:15.000Z</time>
      </trkpt>
      <trkpt lat="42.176220305263996124267578125" lon="1.7702175490558147430419921875">
        <ele>2023.199951171875</ele>
        <time>2020-10-24T13:19:16.000Z</time>
      </trkpt>
      <trkpt lat="42.176188118755817413330078125" lon="1.7702034674584865570068359375">
        <ele>2022</ele>
        <time>2020-10-24T13:19:20.000Z</time>
      </trkpt>
      <trkpt lat="42.17617814429104328155517578125" lon="1.77019827067852020263671875">
        <ele>2021.4000244140625</ele>
        <time>2020-10-24T13:19:21.000Z</time>
      </trkpt>
      <trkpt lat="42.17615702189505100250244140625" lon="1.7701897211372852325439453125">
        <ele>2020.800048828125</ele>
        <time>2020-10-24T13:19:23.000Z</time>
      </trkpt>
      <trkpt lat="42.17613154090940952301025390625" lon="1.770184524357318878173828125">
        <ele>2019.5999755859375</ele>
        <time>2020-10-24T13:19:27.000Z</time>
      </trkpt>
      <trkpt lat="42.17612014152109622955322265625" lon="1.77017974667251110076904296875">
        <ele>2019.4000244140625</ele>
        <time>2020-10-24T13:19:29.000Z</time>
      </trkpt>
      <trkpt lat="42.1760947443544864654541015625" lon="1.77016516216099262237548828125">
        <ele>2018.800048828125</ele>
        <time>2020-10-24T13:19:32.000Z</time>
      </trkpt>
      <trkpt lat="42.17609114013612270355224609375" lon="1.77015577442944049835205078125">
        <ele>2018.5999755859375</ele>
        <time>2020-10-24T13:19:33.000Z</time>
      </trkpt>
      <trkpt lat="42.1760722808539867401123046875" lon="1.770124845206737518310546875">
        <ele>2017.4000244140625</ele>
        <time>2020-10-24T13:19:37.000Z</time>
      </trkpt>
      <trkpt lat="42.17606641352176666259765625" lon="1.77011386491358280181884765625">
        <ele>2017.199951171875</ele>
        <time>2020-10-24T13:19:38.000Z</time>
      </trkpt>
      <trkpt lat="42.17604621313512325286865234375" lon="1.77008293569087982177734375">
        <ele>2016.4000244140625</ele>
        <time>2020-10-24T13:19:43.000Z</time>
      </trkpt>
      <trkpt lat="42.17603062279522418975830078125" lon="1.77007061429321765899658203125">
        <ele>2015.800048828125</ele>
        <time>2020-10-24T13:19:46.000Z</time>
      </trkpt>
      <trkpt lat="42.17602559365332126617431640625" lon="1.77005485631525516510009765625">
        <ele>2015.199951171875</ele>
        <time>2020-10-24T13:19:48.000Z</time>
      </trkpt>
      <trkpt lat="42.17599558643996715545654296875" lon="1.77003859542310237884521484375">
        <ele>2014.199951171875</ele>
        <time>2020-10-24T13:19:52.000Z</time>
      </trkpt>
      <trkpt lat="42.17599173076450824737548828125" lon="1.770030297338962554931640625">
        <ele>2014</ele>
        <time>2020-10-24T13:19:53.000Z</time>
      </trkpt>
      <trkpt lat="42.17597597278654575347900390625" lon="1.77002116106450557708740234375">
        <ele>2013</ele>
        <time>2020-10-24T13:19:58.000Z</time>
      </trkpt>
      <trkpt lat="42.1759706921875476837158203125" lon="1.77002602256834506988525390625">
        <ele>2012.800048828125</ele>
        <time>2020-10-24T13:19:59.000Z</time>
      </trkpt>
      <trkpt lat="42.17595602385699748992919921875" lon="1.77004027180373668670654296875">
        <ele>2012.199951171875</ele>
        <time>2020-10-24T13:20:01.000Z</time>
      </trkpt>
      <trkpt lat="42.1759505756199359893798828125" lon="1.77004546858370304107666015625">
        <ele>2012</ele>
        <time>2020-10-24T13:20:02.000Z</time>
      </trkpt>
      <trkpt lat="42.1759475581347942352294921875" lon="1.770068518817424774169921875">
        <ele>2011.199951171875</ele>
        <time>2020-10-24T13:20:05.000Z</time>
      </trkpt>
      <trkpt lat="42.1759435348212718963623046875" lon="1.77008092403411865234375">
        <ele>2010.800048828125</ele>
        <time>2020-10-24T13:20:06.000Z</time>
      </trkpt>
      <trkpt lat="42.1759250946342945098876953125" lon="1.77013792097568511962890625">
        <ele>2009.5999755859375</ele>
        <time>2020-10-24T13:20:12.000Z</time>
      </trkpt>
      <trkpt lat="42.1759195625782012939453125" lon="1.7701612226665019989013671875">
        <ele>2009.199951171875</ele>
        <time>2020-10-24T13:20:14.000Z</time>
      </trkpt>
      <trkpt lat="42.175913862884044647216796875" lon="1.77018796093761920928955078125">
        <ele>2008.4000244140625</ele>
        <time>2020-10-24T13:20:17.000Z</time>
      </trkpt>
      <trkpt lat="42.1759110130369663238525390625" lon="1.77020288072526454925537109375">
        <ele>2007.800048828125</ele>
        <time>2020-10-24T13:20:20.000Z</time>
      </trkpt>
      <trkpt lat="42.1759022958576679229736328125" lon="1.7702158726751804351806640625">
        <ele>2007.4000244140625</ele>
        <time>2020-10-24T13:20:22.000Z</time>
      </trkpt>
      <trkpt lat="42.17587438412010669708251953125" lon="1.7702537588775157928466796875">
        <ele>2006.4000244140625</ele>
        <time>2020-10-24T13:20:27.000Z</time>
      </trkpt>
      <trkpt lat="42.17586030252277851104736328125" lon="1.7702923156321048736572265625">
        <ele>2005.199951171875</ele>
        <time>2020-10-24T13:20:31.000Z</time>
      </trkpt>
      <trkpt lat="42.17583934776484966278076171875" lon="1.7703161202371120452880859375">
        <ele>2004</ele>
        <time>2020-10-24T13:20:35.000Z</time>
      </trkpt>
      <trkpt lat="42.17581721954047679901123046875" lon="1.77034176886081695556640625">
        <ele>2002.800048828125</ele>
        <time>2020-10-24T13:20:39.000Z</time>
      </trkpt>
      <trkpt lat="42.175799869000911712646484375" lon="1.77034855820238590240478515625">
        <ele>2001.800048828125</ele>
        <time>2020-10-24T13:20:43.000Z</time>
      </trkpt>
      <trkpt lat="42.17579626478254795074462890625" lon="1.77034889347851276397705078125">
        <ele>2001.5999755859375</ele>
        <time>2020-10-24T13:20:44.000Z</time>
      </trkpt>
      <trkpt lat="42.17579375021159648895263671875" lon="1.77038728259503841400146484375">
        <ele>2000.5999755859375</ele>
        <time>2020-10-24T13:20:48.000Z</time>
      </trkpt>
      <trkpt lat="42.17579140327870845794677734375" lon="1.7703918926417827606201171875">
        <ele>2000.199951171875</ele>
        <time>2020-10-24T13:20:49.000Z</time>
      </trkpt>
      <trkpt lat="42.17578201554715633392333984375" lon="1.77040890790522098541259765625">
        <ele>1999.5999755859375</ele>
        <time>2020-10-24T13:20:52.000Z</time>
      </trkpt>
      <trkpt lat="42.17575401999056339263916015625" lon="1.77043489180505275726318359375">
        <ele>1998.199951171875</ele>
        <time>2020-10-24T13:20:56.000Z</time>
      </trkpt>
      <trkpt lat="42.175728119909763336181640625" lon="1.770444698631763458251953125">
        <ele>1997</ele>
        <time>2020-10-24T13:21:00.000Z</time>
      </trkpt>
      <trkpt lat="42.17570473439991474151611328125" lon="1.77047445438802242279052734375">
        <ele>1996</ele>
        <time>2020-10-24T13:21:04.000Z</time>
      </trkpt>
      <trkpt lat="42.175693251192569732666015625" lon="1.770499013364315032958984375">
        <ele>1995.5999755859375</ele>
        <time>2020-10-24T13:21:06.000Z</time>
      </trkpt>
      <trkpt lat="42.17568126507103443145751953125" lon="1.7705162800848484039306640625">
        <ele>1995</ele>
        <time>2020-10-24T13:21:08.000Z</time>
      </trkpt>
      <trkpt lat="42.17565092258155345916748046875" lon="1.7705275118350982666015625">
        <ele>1993.800048828125</ele>
        <time>2020-10-24T13:21:13.000Z</time>
      </trkpt>
      <trkpt lat="42.1756437979638576507568359375" lon="1.7705219797790050506591796875">
        <ele>1993.5999755859375</ele>
        <time>2020-10-24T13:21:14.000Z</time>
      </trkpt>
      <trkpt lat="42.17561043798923492431640625" lon="1.7705065570771694183349609375">
        <ele>1993</ele>
        <time>2020-10-24T13:21:17.000Z</time>
      </trkpt>
      <trkpt lat="42.17559635639190673828125" lon="1.77049121819436550140380859375">
        <ele>1992.800048828125</ele>
        <time>2020-10-24T13:21:19.000Z</time>
      </trkpt>
      <trkpt lat="42.175591327250003814697265625" lon="1.7704777233302593231201171875">
        <ele>1992.5999755859375</ele>
        <time>2020-10-24T13:21:21.000Z</time>
      </trkpt>
      <trkpt lat="42.1755881421267986297607421875" lon="1.770465485751628875732421875">
        <ele>1992</ele>
        <time>2020-10-24T13:21:24.000Z</time>
      </trkpt>
      <trkpt lat="42.17558671720325946807861328125" lon="1.77045978605747222900390625">
        <ele>1991.800048828125</ele>
        <time>2020-10-24T13:21:26.000Z</time>
      </trkpt>
      <trkpt lat="42.1755888126790523529052734375" lon="1.77045400254428386688232421875">
        <ele>1991.5999755859375</ele>
        <time>2020-10-24T13:21:28.000Z</time>
      </trkpt>
      <trkpt lat="42.1755851246416568756103515625" lon="1.77043966948986053466796875">
        <ele>1991.5999755859375</ele>
        <time>2020-10-24T13:21:37.000Z</time>
      </trkpt>
      <trkpt lat="42.1755851246416568756103515625" lon="1.77043966948986053466796875">
        <ele>1991.4000244140625</ele>
        <time>2020-10-24T13:21:40.000Z</time>
      </trkpt>
      <trkpt lat="42.175438106060028076171875" lon="1.77037856541574001312255859375">
        <ele>1982.5999755859375</ele>
        <time>2020-10-24T13:22:27.000Z</time>
      </trkpt>
      <trkpt lat="42.17536342330276966094970703125" lon="1.77038057707250118255615234375">
        <ele>1981.5999755859375</ele>
        <time>2020-10-24T13:22:31.000Z</time>
      </trkpt>
      <trkpt lat="42.17535152100026607513427734375" lon="1.77038560621440410614013671875">
        <ele>1981.199951171875</ele>
        <time>2020-10-24T13:22:32.000Z</time>
      </trkpt>
      <trkpt lat="42.17531933449208736419677734375" lon="1.7703928984701633453369140625">
        <ele>1980.4000244140625</ele>
        <time>2020-10-24T13:22:35.000Z</time>
      </trkpt>
      <trkpt lat="42.17530592344701290130615234375" lon="1.7704150266945362091064453125">
        <ele>1979.800048828125</ele>
        <time>2020-10-24T13:22:37.000Z</time>
      </trkpt>
      <trkpt lat="42.175231911242008209228515625" lon="1.77041309885680675506591796875">
        <ele>1977.5999755859375</ele>
        <time>2020-10-24T13:22:46.000Z</time>
      </trkpt>
      <trkpt lat="42.17520215548574924468994140625" lon="1.77039675414562225341796875">
        <ele>1976.4000244140625</ele>
        <time>2020-10-24T13:22:51.000Z</time>
      </trkpt>
      <trkpt lat="42.1751926839351654052734375" lon="1.77038870751857757568359375">
        <ele>1975.5999755859375</ele>
        <time>2020-10-24T13:22:52.000Z</time>
      </trkpt>
      <trkpt lat="42.1751864813268184661865234375" lon="1.770390383899211883544921875">
        <ele>1975.4000244140625</ele>
        <time>2020-10-24T13:22:54.000Z</time>
      </trkpt>
      <trkpt lat="42.175152115523815155029296875" lon="1.77039583213627338409423828125">
        <ele>1974.4000244140625</ele>
        <time>2020-10-24T13:22:58.000Z</time>
      </trkpt>
      <trkpt lat="42.1751355193555355072021484375" lon="1.77038325928151607513427734375">
        <ele>1973.4000244140625</ele>
        <time>2020-10-24T13:23:01.000Z</time>
      </trkpt>
      <trkpt lat="42.175129316747188568115234375" lon="1.77037286572158336639404296875">
        <ele>1973</ele>
        <time>2020-10-24T13:23:02.000Z</time>
      </trkpt>
      <trkpt lat="42.1751023270189762115478515625" lon="1.77035593427717685699462890625">
        <ele>1972</ele>
        <time>2020-10-24T13:23:06.000Z</time>
      </trkpt>
      <trkpt lat="42.175091095268726348876953125" lon="1.77034503780305385589599609375">
        <ele>1971.5999755859375</ele>
        <time>2020-10-24T13:23:08.000Z</time>
      </trkpt>
      <trkpt lat="42.17506594955921173095703125" lon="1.77034554071724414825439453125">
        <ele>1971</ele>
        <time>2020-10-24T13:23:11.000Z</time>
      </trkpt>
      <trkpt lat="42.1750366128981113433837890625" lon="1.77033363841474056243896484375">
        <ele>1969.800048828125</ele>
        <time>2020-10-24T13:23:15.000Z</time>
      </trkpt>
      <trkpt lat="42.17500736005604267120361328125" lon="1.77031452767550945281982421875">
        <ele>1968.5999755859375</ele>
        <time>2020-10-24T13:23:20.000Z</time>
      </trkpt>
      <trkpt lat="42.174992524087429046630859375" lon="1.770296506583690643310546875">
        <ele>1968.199951171875</ele>
        <time>2020-10-24T13:23:23.000Z</time>
      </trkpt>
      <trkpt lat="42.1749648638069629669189453125" lon="1.77028200589120388031005859375">
        <ele>1967.4000244140625</ele>
        <time>2020-10-24T13:23:26.000Z</time>
      </trkpt>
      <trkpt lat="42.17494449578225612640380859375" lon="1.77027094177901744842529296875">
        <ele>1966.4000244140625</ele>
        <time>2020-10-24T13:23:30.000Z</time>
      </trkpt>
      <trkpt lat="42.17490962706506252288818359375" lon="1.77025870420038700103759765625">
        <ele>1965.4000244140625</ele>
        <time>2020-10-24T13:23:35.000Z</time>
      </trkpt>
      <trkpt lat="42.1748951263725757598876953125" lon="1.7702500708401203155517578125">
        <ele>1964.800048828125</ele>
        <time>2020-10-24T13:23:37.000Z</time>
      </trkpt>
      <trkpt lat="42.17486679553985595703125" lon="1.77026038058102130889892578125">
        <ele>1964.199951171875</ele>
        <time>2020-10-24T13:23:39.000Z</time>
      </trkpt>
      <trkpt lat="42.17484709806740283966064453125" lon="1.77024411968886852264404296875">
        <ele>1963.4000244140625</ele>
        <time>2020-10-24T13:23:42.000Z</time>
      </trkpt>
      <trkpt lat="42.17484072782099246978759765625" lon="1.77024093456566333770751953125">
        <ele>1963.199951171875</ele>
        <time>2020-10-24T13:23:43.000Z</time>
      </trkpt>
      <trkpt lat="42.174809463322162628173828125" lon="1.77023774944245815277099609375">
        <ele>1962</ele>
        <time>2020-10-24T13:23:47.000Z</time>
      </trkpt>
      <trkpt lat="42.174783647060394287109375" lon="1.77023221738636493682861328125">
        <ele>1961.4000244140625</ele>
        <time>2020-10-24T13:23:50.000Z</time>
      </trkpt>
      <trkpt lat="42.174776606261730194091796875" lon="1.77023003809154033660888671875">
        <ele>1961.199951171875</ele>
        <time>2020-10-24T13:23:51.000Z</time>
      </trkpt>
      <trkpt lat="42.1747603453695774078369140625" lon="1.77022333256900310516357421875">
        <ele>1960.5999755859375</ele>
        <time>2020-10-24T13:23:52.000Z</time>
      </trkpt>
      <trkpt lat="42.1747603453695774078369140625" lon="1.77022333256900310516357421875">
        <ele>1960.5999755859375</ele>
        <time>2020-10-24T13:23:53.000Z</time>
      </trkpt>
      <trkpt lat="42.17472933232784271240234375" lon="1.77021880634129047393798828125">
        <ele>1960</ele>
        <time>2020-10-24T13:23:56.000Z</time>
      </trkpt>
      <trkpt lat="42.174723632633686065673828125" lon="1.7702212370932102203369140625">
        <ele>1959.800048828125</ele>
        <time>2020-10-24T13:23:57.000Z</time>
      </trkpt>
      <trkpt lat="42.17471734620630741119384765625" lon="1.77021830342710018157958984375">
        <ele>1959.4000244140625</ele>
        <time>2020-10-24T13:23:59.000Z</time>
      </trkpt>
      <trkpt lat="42.1747147478163242340087890625" lon="1.77021503448486328125">
        <ele>1959.199951171875</ele>
        <time>2020-10-24T13:24:00.000Z</time>
      </trkpt>
      <trkpt lat="42.17470309697091579437255859375" lon="1.77020891569554805755615234375">
        <ele>1958.4000244140625</ele>
        <time>2020-10-24T13:24:04.000Z</time>
      </trkpt>
      <trkpt lat="42.1746899373829364776611328125" lon="1.77021562121808528900146484375">
        <ele>1958</ele>
        <time>2020-10-24T13:24:06.000Z</time>
      </trkpt>
      <trkpt lat="42.17467610724270343780517578125" lon="1.7702064849436283111572265625">
        <ele>1957.199951171875</ele>
        <time>2020-10-24T13:24:10.000Z</time>
      </trkpt>
      <trkpt lat="42.17466286383569240570068359375" lon="1.77019567228853702545166015625">
        <ele>1956.800048828125</ele>
        <time>2020-10-24T13:24:12.000Z</time>
      </trkpt>
      <trkpt lat="42.1746476925909519195556640625" lon="1.77018376998603343963623046875">
        <ele>1956.199951171875</ele>
        <time>2020-10-24T13:24:16.000Z</time>
      </trkpt>
      <trkpt lat="42.1746279112994670867919921875" lon="1.7701592110097408294677734375">
        <ele>1955.199951171875</ele>
        <time>2020-10-24T13:24:21.000Z</time>
      </trkpt>
      <trkpt lat="42.17461441643536090850830078125" lon="1.7700903117656707763671875">
        <ele>1954</ele>
        <time>2020-10-24T13:24:28.000Z</time>
      </trkpt>
      <trkpt lat="42.17461022548377513885498046875" lon="1.7700817622244358062744140625">
        <ele>1953.5999755859375</ele>
        <time>2020-10-24T13:24:29.000Z</time>
      </trkpt>
      <trkpt lat="42.1745930425822734832763671875" lon="1.7700653336942195892333984375">
        <ele>1953</ele>
        <time>2020-10-24T13:24:32.000Z</time>
      </trkpt>
      <trkpt lat="42.174576111137866973876953125" lon="1.7700582928955554962158203125">
        <ele>1952</ele>
        <time>2020-10-24T13:24:35.000Z</time>
      </trkpt>
      <trkpt lat="42.1745732612907886505126953125" lon="1.77005267702043056488037109375">
        <ele>1951.800048828125</ele>
        <time>2020-10-24T13:24:36.000Z</time>
      </trkpt>
      <trkpt lat="42.17456663958728313446044921875" lon="1.77003071643412113189697265625">
        <ele>1951.4000244140625</ele>
        <time>2020-10-24T13:24:38.000Z</time>
      </trkpt>
      <trkpt lat="42.1745502948760986328125" lon="1.76999819464981555938720703125">
        <ele>1950.5999755859375</ele>
        <time>2020-10-24T13:24:41.000Z</time>
      </trkpt>
      <trkpt lat="42.1745347045361995697021484375" lon="1.76995712332427501678466796875">
        <ele>1949.800048828125</ele>
        <time>2020-10-24T13:24:45.000Z</time>
      </trkpt>
      <trkpt lat="42.174529843032360076904296875" lon="1.7699459753930568695068359375">
        <ele>1949.5999755859375</ele>
        <time>2020-10-24T13:24:46.000Z</time>
      </trkpt>
      <trkpt lat="42.1745088882744312286376953125" lon="1.76992074586451053619384765625">
        <ele>1948.5999755859375</ele>
        <time>2020-10-24T13:24:51.000Z</time>
      </trkpt>
      <trkpt lat="42.174508385360240936279296875" lon="1.76991823129355907440185546875">
        <ele>1948.199951171875</ele>
        <time>2020-10-24T13:24:52.000Z</time>
      </trkpt>
      <trkpt lat="42.17450528405606746673583984375" lon="1.769904233515262603759765625">
        <ele>1947.4000244140625</ele>
        <time>2020-10-24T13:24:55.000Z</time>
      </trkpt>
      <trkpt lat="42.1745035238564014434814453125" lon="1.76988570950925350189208984375">
        <ele>1947</ele>
        <time>2020-10-24T13:24:58.000Z</time>
      </trkpt>
      <trkpt lat="42.17449220828711986541748046875" lon="1.7698480747640132904052734375">
        <ele>1946.4000244140625</ele>
        <time>2020-10-24T13:25:01.000Z</time>
      </trkpt>
      <trkpt lat="42.17448784969747066497802734375" lon="1.76981069147586822509765625">
        <ele>1945.199951171875</ele>
        <time>2020-10-24T13:25:06.000Z</time>
      </trkpt>
      <trkpt lat="42.17448650859296321868896484375" lon="1.76980759017169475555419921875">
        <ele>1945</ele>
        <time>2020-10-24T13:25:07.000Z</time>
      </trkpt>
      <trkpt lat="42.174470834434032440185546875" lon="1.769756376743316650390625">
        <ele>1944.199951171875</ele>
        <time>2020-10-24T13:25:11.000Z</time>
      </trkpt>
      <trkpt lat="42.17447913251817226409912109375" lon="1.769721843302249908447265625">
        <ele>1943.5999755859375</ele>
        <time>2020-10-24T13:25:14.000Z</time>
      </trkpt>
      <trkpt lat="42.1744864247739315032958984375" lon="1.76970583386719226837158203125">
        <ele>1943</ele>
        <time>2020-10-24T13:25:17.000Z</time>
      </trkpt>
      <trkpt lat="42.17447376810014247894287109375" lon="1.7696552909910678863525390625">
        <ele>1941.800048828125</ele>
        <time>2020-10-24T13:25:22.000Z</time>
      </trkpt>
      <trkpt lat="42.17445298098027706146240234375" lon="1.769605167210102081298828125">
        <ele>1940.5999755859375</ele>
        <time>2020-10-24T13:25:27.000Z</time>
      </trkpt>
      <trkpt lat="42.17444459907710552215576171875" lon="1.76959485746920108795166015625">
        <ele>1940.5999755859375</ele>
        <time>2020-10-24T13:25:28.000Z</time>
      </trkpt>
      <trkpt lat="42.17442733235657215118408203125" lon="1.76957742311060428619384765625">
        <ele>1939.5999755859375</ele>
        <time>2020-10-24T13:25:33.000Z</time>
      </trkpt>
      <trkpt lat="42.17442749999463558197021484375" lon="1.76954657770693302154541015625">
        <ele>1938.5999755859375</ele>
        <time>2020-10-24T13:25:39.000Z</time>
      </trkpt>
      <trkpt lat="42.17441978864371776580810546875" lon="1.7695382796227931976318359375">
        <ele>1938.5999755859375</ele>
        <time>2020-10-24T13:25:40.000Z</time>
      </trkpt>
      <trkpt lat="42.1743912063539028167724609375" lon="1.7695082724094390869140625">
        <ele>1937.199951171875</ele>
        <time>2020-10-24T13:25:45.000Z</time>
      </trkpt>
      <trkpt lat="42.17438760213553905487060546875" lon="1.76950357854366302490234375">
        <ele>1937</ele>
        <time>2020-10-24T13:25:46.000Z</time>
      </trkpt>
      <trkpt lat="42.1743665635585784912109375" lon="1.76949678920209407806396484375">
        <ele>1936.199951171875</ele>
        <time>2020-10-24T13:25:49.000Z</time>
      </trkpt>
      <trkpt lat="42.1743633784353733062744140625" lon="1.7694962024688720703125">
        <ele>1935.800048828125</ele>
        <time>2020-10-24T13:25:50.000Z</time>
      </trkpt>
      <trkpt lat="42.1743558347225189208984375" lon="1.76949528045952320098876953125">
        <ele>1935</ele>
        <time>2020-10-24T13:25:54.000Z</time>
      </trkpt>
      <trkpt lat="42.17435139231383800506591796875" lon="1.7694779299199581146240234375">
        <ele>1934.4000244140625</ele>
        <time>2020-10-24T13:25:57.000Z</time>
      </trkpt>
      <trkpt lat="42.17435155995190143585205078125" lon="1.7694678716361522674560546875">
        <ele>1934</ele>
        <time>2020-10-24T13:25:59.000Z</time>
      </trkpt>
      <trkpt lat="42.17430579476058483123779296875" lon="1.7694492638111114501953125">
        <ele>1932.800048828125</ele>
        <time>2020-10-24T13:26:04.000Z</time>
      </trkpt>
      <trkpt lat="42.17429674230515956878662109375" lon="1.7694014869630336761474609375">
        <ele>1931.800048828125</ele>
        <time>2020-10-24T13:26:08.000Z</time>
      </trkpt>
      <trkpt lat="42.17429590411484241485595703125" lon="1.76939452998340129852294921875">
        <ele>1931.199951171875</ele>
        <time>2020-10-24T13:26:10.000Z</time>
      </trkpt>
      <trkpt lat="42.1742835827171802520751953125" lon="1.76938396878540515899658203125">
        <ele>1930.5999755859375</ele>
        <time>2020-10-24T13:26:13.000Z</time>
      </trkpt>
      <trkpt lat="42.17426707036793231964111328125" lon="1.76936871372163295745849609375">
        <ele>1929.5999755859375</ele>
        <time>2020-10-24T13:26:16.000Z</time>
      </trkpt>
      <trkpt lat="42.17426262795925140380859375" lon="1.7693719826638698577880859375">
        <ele>1929.4000244140625</ele>
        <time>2020-10-24T13:26:17.000Z</time>
      </trkpt>
      <trkpt lat="42.1742416732013225555419921875" lon="1.76939067430794239044189453125">
        <ele>1928.4000244140625</ele>
        <time>2020-10-24T13:26:23.000Z</time>
      </trkpt>
      <trkpt lat="42.174220718443393707275390625" lon="1.76938480697572231292724609375">
        <ele>1927.199951171875</ele>
        <time>2020-10-24T13:26:27.000Z</time>
      </trkpt>
      <trkpt lat="42.17419666238129138946533203125" lon="1.7693687975406646728515625">
        <ele>1926.199951171875</ele>
        <time>2020-10-24T13:26:31.000Z</time>
      </trkpt>
      <trkpt lat="42.17418476007878780364990234375" lon="1.76935815252363681793212890625">
        <ele>1926</ele>
        <time>2020-10-24T13:26:32.000Z</time>
      </trkpt>
      <trkpt lat="42.17416682280600070953369140625" lon="1.7693451605737209320068359375">
        <ele>1924.800048828125</ele>
        <time>2020-10-24T13:26:35.000Z</time>
      </trkpt>
      <trkpt lat="42.17414804734289646148681640625" lon="1.76933971233665943145751953125">
        <ele>1924</ele>
        <time>2020-10-24T13:26:38.000Z</time>
      </trkpt>
      <trkpt lat="42.17413815669715404510498046875" lon="1.76934910006821155548095703125">
        <ele>1923.800048828125</ele>
        <time>2020-10-24T13:26:39.000Z</time>
      </trkpt>
      <trkpt lat="42.17411267571151256561279296875" lon="1.769348345696926116943359375">
        <ele>1922.5999755859375</ele>
        <time>2020-10-24T13:26:43.000Z</time>
      </trkpt>
      <trkpt lat="42.17410437762737274169921875" lon="1.76934641785919666290283203125">
        <ele>1922.4000244140625</ele>
        <time>2020-10-24T13:26:44.000Z</time>
      </trkpt>
      <trkpt lat="42.17409037984907627105712890625" lon="1.7693200148642063140869140625">
        <ele>1921.4000244140625</ele>
        <time>2020-10-24T13:26:47.000Z</time>
      </trkpt>
      <trkpt lat="42.17407462187111377716064453125" lon="1.76926863379776477813720703125">
        <ele>1920.4000244140625</ele>
        <time>2020-10-24T13:26:51.000Z</time>
      </trkpt>
      <trkpt lat="42.174069844186305999755859375" lon="1.7692536301910877227783203125">
        <ele>1920.199951171875</ele>
        <time>2020-10-24T13:26:52.000Z</time>
      </trkpt>
      <trkpt lat="42.17405433766543865203857421875" lon="1.769219934940338134765625">
        <ele>1919</ele>
        <time>2020-10-24T13:26:56.000Z</time>
      </trkpt>
      <trkpt lat="42.17402902431786060333251953125" lon="1.7692211084067821502685546875">
        <ele>1918</ele>
        <time>2020-10-24T13:27:00.000Z</time>
      </trkpt>
      <trkpt lat="42.1740270964801311492919921875" lon="1.76922169514000415802001953125">
        <ele>1917.800048828125</ele>
        <time>2020-10-24T13:27:01.000Z</time>
      </trkpt>
      <trkpt lat="42.1740076504647731781005859375" lon="1.76920224912464618682861328125">
        <ele>1916.800048828125</ele>
        <time>2020-10-24T13:27:05.000Z</time>
      </trkpt>
      <trkpt lat="42.17399130575358867645263671875" lon="1.76918012090027332305908203125">
        <ele>1915.800048828125</ele>
        <time>2020-10-24T13:27:09.000Z</time>
      </trkpt>
      <trkpt lat="42.17398325912654399871826171875" lon="1.76917928270995616912841796875">
        <ele>1915.5999755859375</ele>
        <time>2020-10-24T13:27:10.000Z</time>
      </trkpt>
      <trkpt lat="42.1739757992327213287353515625" lon="1.7691802047193050384521484375">
        <ele>1915.4000244140625</ele>
        <time>2020-10-24T13:27:11.000Z</time>
      </trkpt>
      <trkpt lat="42.1739623881876468658447265625" lon="1.76918179728090763092041015625">
        <ele>1915</ele>
        <time>2020-10-24T13:27:12.000Z</time>
      </trkpt>
      <trkpt lat="42.17394654639065265655517578125" lon="1.76917894743382930755615234375">
        <ele>1914.5999755859375</ele>
        <time>2020-10-24T13:27:14.000Z</time>
      </trkpt>
      <trkpt lat="42.17391268350183963775634765625" lon="1.76916771568357944488525390625">
        <ele>1913.4000244140625</ele>
        <time>2020-10-24T13:27:18.000Z</time>
      </trkpt>
      <trkpt lat="42.17389491386711597442626953125" lon="1.76914625801146030426025390625">
        <ele>1912.5999755859375</ele>
        <time>2020-10-24T13:27:20.000Z</time>
      </trkpt>
      <trkpt lat="42.17388787306845188140869140625" lon="1.76913485862314701080322265625">
        <ele>1912.199951171875</ele>
        <time>2020-10-24T13:27:21.000Z</time>
      </trkpt>
      <trkpt lat="42.17388200573623180389404296875" lon="1.7691315896809101104736328125">
        <ele>1911.800048828125</ele>
        <time>2020-10-24T13:27:22.000Z</time>
      </trkpt>
      <trkpt lat="42.1738738752901554107666015625" lon="1.76911474205553531646728515625">
        <ele>1911.199951171875</ele>
        <time>2020-10-24T13:27:24.000Z</time>
      </trkpt>
      <trkpt lat="42.1738641522824764251708984375" lon="1.76910367794334888458251953125">
        <ele>1910.5999755859375</ele>
        <time>2020-10-24T13:27:26.000Z</time>
      </trkpt>
      <trkpt lat="42.17384696938097476959228515625" lon="1.76909445784986019134521484375">
        <ele>1910.199951171875</ele>
        <time>2020-10-24T13:27:28.000Z</time>
      </trkpt>
      <trkpt lat="42.17381738126277923583984375" lon="1.769089512526988983154296875">
        <ele>1908.800048828125</ele>
        <time>2020-10-24T13:27:32.000Z</time>
      </trkpt>
      <trkpt lat="42.1738108433783054351806640625" lon="1.76908423192799091339111328125">
        <ele>1908.199951171875</ele>
        <time>2020-10-24T13:27:34.000Z</time>
      </trkpt>
      <trkpt lat="42.17380355112254619598388671875" lon="1.76907266490161418914794921875">
        <ele>1907.800048828125</ele>
        <time>2020-10-24T13:27:36.000Z</time>
      </trkpt>
      <trkpt lat="42.17379583977162837982177734375" lon="1.76906964741647243499755859375">
        <ele>1907.4000244140625</ele>
        <time>2020-10-24T13:27:37.000Z</time>
      </trkpt>
      <trkpt lat="42.173776812851428985595703125" lon="1.7690618522465229034423828125">
        <ele>1906.5999755859375</ele>
        <time>2020-10-24T13:27:41.000Z</time>
      </trkpt>
      <trkpt lat="42.1737531758844852447509765625" lon="1.76905833184719085693359375">
        <ele>1905.4000244140625</ele>
        <time>2020-10-24T13:27:45.000Z</time>
      </trkpt>
      <trkpt lat="42.173743285238742828369140625" lon="1.76906210370361804962158203125">
        <ele>1905</ele>
        <time>2020-10-24T13:27:47.000Z</time>
      </trkpt>
      <trkpt lat="42.1737360768020153045654296875" lon="1.769044585525989532470703125">
        <ele>1904.4000244140625</ele>
        <time>2020-10-24T13:27:50.000Z</time>
      </trkpt>
      <trkpt lat="42.1737290360033512115478515625" lon="1.76901767961680889129638671875">
        <ele>1903.5999755859375</ele>
        <time>2020-10-24T13:27:53.000Z</time>
      </trkpt>
      <trkpt lat="42.17371420003473758697509765625" lon="1.7690122313797473907470703125">
        <ele>1903</ele>
        <time>2020-10-24T13:27:55.000Z</time>
      </trkpt>
      <trkpt lat="42.17368653975427150726318359375" lon="1.76903679035604000091552734375">
        <ele>1902.199951171875</ele>
        <time>2020-10-24T13:27:59.000Z</time>
      </trkpt>
      <trkpt lat="42.1736812591552734375" lon="1.76904198713600635528564453125">
        <ele>1901.800048828125</ele>
        <time>2020-10-24T13:28:00.000Z</time>
      </trkpt>
      <trkpt lat="42.17365955002605915069580078125" lon="1.76905975677073001861572265625">
        <ele>1901.4000244140625</ele>
        <time>2020-10-24T13:28:05.000Z</time>
      </trkpt>
      <trkpt lat="42.173635661602020263671875" lon="1.7690947093069553375244140625">
        <ele>1901</ele>
        <time>2020-10-24T13:28:12.000Z</time>
      </trkpt>
      <trkpt lat="42.17363230884075164794921875" lon="1.769097559154033660888671875">
        <ele>1900.800048828125</ele>
        <time>2020-10-24T13:28:13.000Z</time>
      </trkpt>
      <trkpt lat="42.17360959388315677642822265625" lon="1.7691134847700595855712890625">
        <ele>1899.5999755859375</ele>
        <time>2020-10-24T13:28:18.000Z</time>
      </trkpt>
      <trkpt lat="42.17357623390853404998779296875" lon="1.76913955248892307281494140625">
        <ele>1898.4000244140625</ele>
        <time>2020-10-24T13:28:22.000Z</time>
      </trkpt>
      <trkpt lat="42.17356416396796703338623046875" lon="1.7691332660615444183349609375">
        <ele>1897.4000244140625</ele>
        <time>2020-10-24T13:28:25.000Z</time>
      </trkpt>
      <trkpt lat="42.17355326749384403228759765625" lon="1.76912832073867321014404296875">
        <ele>1897.199951171875</ele>
        <time>2020-10-24T13:28:26.000Z</time>
      </trkpt>
      <trkpt lat="42.17351051978766918182373046875" lon="1.769114322960376739501953125">
        <ele>1896.199951171875</ele>
        <time>2020-10-24T13:28:30.000Z</time>
      </trkpt>
      <trkpt lat="42.1735055744647979736328125" lon="1.769119687378406524658203125">
        <ele>1896</ele>
        <time>2020-10-24T13:28:31.000Z</time>
      </trkpt>
      <trkpt lat="42.1734936721622943878173828125" lon="1.7691369540989398956298828125">
        <ele>1895.5999755859375</ele>
        <time>2020-10-24T13:28:33.000Z</time>
      </trkpt>
      <trkpt lat="42.17348587699234485626220703125" lon="1.769144497811794281005859375">
        <ele>1894.800048828125</ele>
        <time>2020-10-24T13:28:36.000Z</time>
      </trkpt>
      <trkpt lat="42.173483781516551971435546875" lon="1.76914474926888942718505859375">
        <ele>1894.5999755859375</ele>
        <time>2020-10-24T13:28:37.000Z</time>
      </trkpt>
      <trkpt lat="42.1734752319753170013427734375" lon="1.76913670264184474945068359375">
        <ele>1893.800048828125</ele>
        <time>2020-10-24T13:28:40.000Z</time>
      </trkpt>
      <trkpt lat="42.17345838434994220733642578125" lon="1.76912781782448291778564453125">
        <ele>1893.199951171875</ele>
        <time>2020-10-24T13:28:43.000Z</time>
      </trkpt>
      <trkpt lat="42.17345553450286388397216796875" lon="1.7691258899867534637451171875">
        <ele>1892.800048828125</ele>
        <time>2020-10-24T13:28:45.000Z</time>
      </trkpt>
      <trkpt lat="42.17345754615962505340576171875" lon="1.7691332660615444183349609375">
        <ele>1892.5999755859375</ele>
        <time>2020-10-24T13:28:46.000Z</time>
      </trkpt>
      <trkpt lat="42.17344363220036029815673828125" lon="1.7691523768007755279541015625">
        <ele>1891.800048828125</ele>
        <time>2020-10-24T13:28:49.000Z</time>
      </trkpt>
      <trkpt lat="42.1734433807432651519775390625" lon="1.76916553638875484466552734375">
        <ele>1891.4000244140625</ele>
        <time>2020-10-24T13:28:50.000Z</time>
      </trkpt>
      <trkpt lat="42.17339568771421909332275390625" lon="1.76918330602347850799560546875">
        <ele>1890.199951171875</ele>
        <time>2020-10-24T13:28:55.000Z</time>
      </trkpt>
      <trkpt lat="42.17339091002941131591796875" lon="1.7691822163760662078857421875">
        <ele>1889.800048828125</ele>
        <time>2020-10-24T13:28:56.000Z</time>
      </trkpt>
      <trkpt lat="42.17337624169886112213134765625" lon="1.76918598823249340057373046875">
        <ele>1889.199951171875</ele>
        <time>2020-10-24T13:28:58.000Z</time>
      </trkpt>
      <trkpt lat="42.17335109598934650421142578125" lon="1.76917308010160923004150390625">
        <ele>1888.4000244140625</ele>
        <time>2020-10-24T13:29:01.000Z</time>
      </trkpt>
      <trkpt lat="42.1733394451439380645751953125" lon="1.76916788332164287567138671875">
        <ele>1888.199951171875</ele>
        <time>2020-10-24T13:29:02.000Z</time>
      </trkpt>
      <trkpt lat="42.17333265580236911773681640625" lon="1.7691681347787380218505859375">
        <ele>1888</ele>
        <time>2020-10-24T13:29:03.000Z</time>
      </trkpt>
      <trkpt lat="42.17330633662641048431396484375" lon="1.76920644007623195648193359375">
        <ele>1887.199951171875</ele>
        <time>2020-10-24T13:29:07.000Z</time>
      </trkpt>
      <trkpt lat="42.1732760779559612274169921875" lon="1.76922261714935302734375">
        <ele>1886</ele>
        <time>2020-10-24T13:29:11.000Z</time>
      </trkpt>
      <trkpt lat="42.17325143516063690185546875" lon="1.7692462541162967681884765625">
        <ele>1884.800048828125</ele>
        <time>2020-10-24T13:29:14.000Z</time>
      </trkpt>
      <trkpt lat="42.17322687618434429168701171875" lon="1.769277937710285186767578125">
        <ele>1883.800048828125</ele>
        <time>2020-10-24T13:29:18.000Z</time>
      </trkpt>
      <trkpt lat="42.17319066636264324188232421875" lon="1.7692794464528560638427734375">
        <ele>1882.5999755859375</ele>
        <time>2020-10-24T13:29:22.000Z</time>
      </trkpt>
      <trkpt lat="42.17316116206347942352294921875" lon="1.76927961409091949462890625">
        <ele>1881.800048828125</ele>
        <time>2020-10-24T13:29:25.000Z</time>
      </trkpt>
      <trkpt lat="42.17313618399202823638916015625" lon="1.76928673870861530303955078125">
        <ele>1881.4000244140625</ele>
        <time>2020-10-24T13:29:28.000Z</time>
      </trkpt>
      <trkpt lat="42.173104248940944671630859375" lon="1.76931590773165225982666015625">
        <ele>1881</ele>
        <time>2020-10-24T13:29:31.000Z</time>
      </trkpt>
      <trkpt lat="42.1730574779212474822998046875" lon="1.76935094408690929412841796875">
        <ele>1880.4000244140625</ele>
        <time>2020-10-24T13:29:34.000Z</time>
      </trkpt>
      <trkpt lat="42.1730387024581432342529296875" lon="1.76935496740043163299560546875">
        <ele>1880.199951171875</ele>
        <time>2020-10-24T13:29:36.000Z</time>
      </trkpt>
      <trkpt lat="42.1730179153382778167724609375" lon="1.76937642507255077362060546875">
        <ele>1879.800048828125</ele>
        <time>2020-10-24T13:29:38.000Z</time>
      </trkpt>
      <trkpt lat="42.1729907579720020294189453125" lon="1.76939989440143108367919921875">
        <ele>1879.199951171875</ele>
        <time>2020-10-24T13:29:41.000Z</time>
      </trkpt>
      <trkpt lat="42.17295102775096893310546875" lon="1.769413389265537261962890625">
        <ele>1878.4000244140625</ele>
        <time>2020-10-24T13:29:45.000Z</time>
      </trkpt>
      <trkpt lat="42.17294205911457538604736328125" lon="1.76942001096904277801513671875">
        <ele>1878.199951171875</ele>
        <time>2020-10-24T13:29:46.000Z</time>
      </trkpt>
      <trkpt lat="42.17292361892759799957275390625" lon="1.7694561369717121124267578125">
        <ele>1877.4000244140625</ele>
        <time>2020-10-24T13:29:50.000Z</time>
      </trkpt>
      <trkpt lat="42.172910459339618682861328125" lon="1.769465692341327667236328125">
        <ele>1877</ele>
        <time>2020-10-24T13:29:53.000Z</time>
      </trkpt>
      <trkpt lat="42.17289947904646396636962890625" lon="1.769469715654850006103515625">
        <ele>1876.800048828125</ele>
        <time>2020-10-24T13:29:54.000Z</time>
      </trkpt>
      <trkpt lat="42.1728833019733428955078125" lon="1.7694729007780551910400390625">
        <ele>1876.4000244140625</ele>
        <time>2020-10-24T13:29:56.000Z</time>
      </trkpt>
      <trkpt lat="42.1728727407753467559814453125" lon="1.76948212087154388427734375">
        <ele>1876</ele>
        <time>2020-10-24T13:29:58.000Z</time>
      </trkpt>
      <trkpt lat="42.17286393977701663970947265625" lon="1.76954456605017185211181640625">
        <ele>1875</ele>
        <time>2020-10-24T13:30:02.000Z</time>
      </trkpt>
      <trkpt lat="42.17286326922476291656494140625" lon="1.769556216895580291748046875">
        <ele>1874.5999755859375</ele>
        <time>2020-10-24T13:30:03.000Z</time>
      </trkpt>
      <trkpt lat="42.17284851707518100738525390625" lon="1.769584380090236663818359375">
        <ele>1874.4000244140625</ele>
        <time>2020-10-24T13:30:05.000Z</time>
      </trkpt>
      <trkpt lat="42.1728234551846981048583984375" lon="1.76963207311928272247314453125">
        <ele>1874.199951171875</ele>
        <time>2020-10-24T13:30:10.000Z</time>
      </trkpt>
      <trkpt lat="42.172819934785366058349609375" lon="1.76963760517537593841552734375">
        <ele>1874.4000244140625</ele>
        <time>2020-10-24T13:30:11.000Z</time>
      </trkpt>
      <trkpt lat="42.17281733639538288116455078125" lon="1.769648082554340362548828125">
        <ele>1874.199951171875</ele>
        <time>2020-10-24T13:30:12.000Z</time>
      </trkpt>
      <trkpt lat="42.17280593700706958770751953125" lon="1.76966308616101741790771484375">
        <ele>1874</ele>
        <time>2020-10-24T13:30:14.000Z</time>
      </trkpt>
      <trkpt lat="42.17280141077935695648193359375" lon="1.769660823047161102294921875">
        <ele>1873.800048828125</ele>
        <time>2020-10-24T13:30:15.000Z</time>
      </trkpt>
      <trkpt lat="42.1728006564080715179443359375" lon="1.76965805701911449432373046875">
        <ele>1873.5999755859375</ele>
        <time>2020-10-24T13:30:16.000Z</time>
      </trkpt>
      <trkpt lat="42.17279545962810516357421875" lon="1.76966811530292034149169921875">
        <ele>1873.4000244140625</ele>
        <time>2020-10-24T13:30:17.000Z</time>
      </trkpt>
      <trkpt lat="42.17279319651424884796142578125" lon="1.7696666903793811798095703125">
        <ele>1872.800048828125</ele>
        <time>2020-10-24T13:30:21.000Z</time>
      </trkpt>
      <trkpt lat="42.17279185540974140167236328125" lon="1.76967096514999866485595703125">
        <ele>1872.800048828125</ele>
        <time>2020-10-24T13:30:23.000Z</time>
      </trkpt>
      <trkpt lat="42.1728023327887058258056640625" lon="1.76964984275400638580322265625">
        <ele>1872.5999755859375</ele>
        <time>2020-10-24T13:30:31.000Z</time>
      </trkpt>
      <trkpt lat="42.1728023327887058258056640625" lon="1.76964984275400638580322265625">
        <ele>1872.5999755859375</ele>
        <time>2020-10-24T13:30:37.000Z</time>
      </trkpt>
      <trkpt lat="42.1725616045296192169189453125" lon="1.7698215879499912261962890625">
        <ele>1866.800048828125</ele>
        <time>2020-10-24T13:33:44.000Z</time>
      </trkpt>
      <trkpt lat="42.172562442719936370849609375" lon="1.7698343284428119659423828125">
        <ele>1866.5999755859375</ele>
        <time>2020-10-24T13:33:45.000Z</time>
      </trkpt>
      <trkpt lat="42.1725398115813732147216796875" lon="1.76984949968755245208740234375">
        <ele>1866.4000244140625</ele>
        <time>2020-10-24T13:33:47.000Z</time>
      </trkpt>
      <trkpt lat="42.17253486625850200653076171875" lon="1.76985218189656734466552734375">
        <ele>1865.199951171875</ele>
        <time>2020-10-24T13:33:49.000Z</time>
      </trkpt>
      <trkpt lat="42.17249547131359577178955078125" lon="1.769889481365680694580078125">
        <ele>1863.800048828125</ele>
        <time>2020-10-24T13:33:52.000Z</time>
      </trkpt>
      <trkpt lat="42.17249547131359577178955078125" lon="1.769889481365680694580078125">
        <ele>1863.800048828125</ele>
        <time>2020-10-24T13:33:53.000Z</time>
      </trkpt>
      <trkpt lat="42.17246244661509990692138671875" lon="1.769916974008083343505859375">
        <ele>1862.800048828125</ele>
        <time>2020-10-24T13:33:57.000Z</time>
      </trkpt>
      <trkpt lat="42.1724499575793743133544921875" lon="1.76991588436067104339599609375">
        <ele>1862.5999755859375</ele>
        <time>2020-10-24T13:33:58.000Z</time>
      </trkpt>
      <trkpt lat="42.1724395640194416046142578125" lon="1.76991554908454418182373046875">
        <ele>1862.4000244140625</ele>
        <time>2020-10-24T13:33:59.000Z</time>
      </trkpt>
      <trkpt lat="42.17243445105850696563720703125" lon="1.76991035230457782745361328125">
        <ele>1862.199951171875</ele>
        <time>2020-10-24T13:34:00.000Z</time>
      </trkpt>
      <trkpt lat="42.1724031865596771240234375" lon="1.76991202868521213531494140625">
        <ele>1861.4000244140625</ele>
        <time>2020-10-24T13:34:03.000Z</time>
      </trkpt>
      <trkpt lat="42.17234711162745952606201171875" lon="1.76993683911859989166259765625">
        <ele>1860.199951171875</ele>
        <time>2020-10-24T13:34:09.000Z</time>
      </trkpt>
      <trkpt lat="42.172312326729297637939453125" lon="1.76994723267853260040283203125">
        <ele>1859.199951171875</ele>
        <time>2020-10-24T13:34:14.000Z</time>
      </trkpt>
      <trkpt lat="42.17229883186519145965576171875" lon="1.7699540220201015472412109375">
        <ele>1859</ele>
        <time>2020-10-24T13:34:15.000Z</time>
      </trkpt>
      <trkpt lat="42.17228190042078495025634765625" lon="1.76996382884681224822998046875">
        <ele>1858.4000244140625</ele>
        <time>2020-10-24T13:34:17.000Z</time>
      </trkpt>
      <trkpt lat="42.17227703891694545745849609375" lon="1.7699681036174297332763671875">
        <ele>1858</ele>
        <time>2020-10-24T13:34:18.000Z</time>
      </trkpt>
      <trkpt lat="42.17226882465183734893798828125" lon="1.7699697799980640411376953125">
        <ele>1858</ele>
        <time>2020-10-24T13:34:19.000Z</time>
      </trkpt>
      <trkpt lat="42.172243259847164154052734375" lon="1.7699761502444744110107421875">
        <ele>1857.5999755859375</ele>
        <time>2020-10-24T13:34:21.000Z</time>
      </trkpt>
      <trkpt lat="42.172224819660186767578125" lon="1.76998369395732879638671875">
        <ele>1857</ele>
        <time>2020-10-24T13:34:23.000Z</time>
      </trkpt>
      <trkpt lat="42.1722082234919071197509765625" lon="1.76998612470924854278564453125">
        <ele>1856.4000244140625</ele>
        <time>2020-10-24T13:34:25.000Z</time>
      </trkpt>
      <trkpt lat="42.1722031943500041961669921875" lon="1.76998394541442394256591796875">
        <ele>1856.199951171875</ele>
        <time>2020-10-24T13:34:26.000Z</time>
      </trkpt>
      <trkpt lat="42.1721901185810565948486328125" lon="1.7699841968715190887451171875">
        <ele>1856</ele>
        <time>2020-10-24T13:34:27.000Z</time>
      </trkpt>
      <trkpt lat="42.17217511497437953948974609375" lon="1.769988052546977996826171875">
        <ele>1856</ele>
        <time>2020-10-24T13:34:28.000Z</time>
      </trkpt>
      <trkpt lat="42.17212834395468235015869140625" lon="1.76999920047819614410400390625">
        <ele>1855</ele>
        <time>2020-10-24T13:34:32.000Z</time>
      </trkpt>
      <trkpt lat="42.17211878858506679534912109375" lon="1.770009510219097137451171875">
        <ele>1854.5999755859375</ele>
        <time>2020-10-24T13:34:33.000Z</time>
      </trkpt>
      <trkpt lat="42.172091044485569000244140625" lon="1.77003256045281887054443359375">
        <ele>1853.800048828125</ele>
        <time>2020-10-24T13:34:36.000Z</time>
      </trkpt>
      <trkpt lat="42.17207469977438449859619140625" lon="1.77003859542310237884521484375">
        <ele>1853.4000244140625</ele>
        <time>2020-10-24T13:34:38.000Z</time>
      </trkpt>
      <trkpt lat="42.172031365334987640380859375" lon="1.77004530094563961029052734375">
        <ele>1852.199951171875</ele>
        <time>2020-10-24T13:34:42.000Z</time>
      </trkpt>
      <trkpt lat="42.17200479470193386077880859375" lon="1.77004110999405384063720703125">
        <ele>1851.5999755859375</ele>
        <time>2020-10-24T13:34:44.000Z</time>
      </trkpt>
      <trkpt lat="42.171998508274555206298828125" lon="1.77004463039338588714599609375">
        <ele>1851.199951171875</ele>
        <time>2020-10-24T13:34:45.000Z</time>
      </trkpt>
      <trkpt lat="42.17198635451495647430419921875" lon="1.7700589634478092193603515625">
        <ele>1850.4000244140625</ele>
        <time>2020-10-24T13:34:48.000Z</time>
      </trkpt>
      <trkpt lat="42.1719688363373279571533203125" lon="1.77006709389388561248779296875">
        <ele>1850</ele>
        <time>2020-10-24T13:34:49.000Z</time>
      </trkpt>
      <trkpt lat="42.17195316217839717864990234375" lon="1.77006659097969532012939453125">
        <ele>1849.800048828125</ele>
        <time>2020-10-24T13:34:50.000Z</time>
      </trkpt>
      <trkpt lat="42.17194779776036739349365234375" lon="1.77007019519805908203125">
        <ele>1849.4000244140625</ele>
        <time>2020-10-24T13:34:51.000Z</time>
      </trkpt>
      <trkpt lat="42.17194394208490848541259765625" lon="1.7700753919780254364013671875">
        <ele>1849</ele>
        <time>2020-10-24T13:34:52.000Z</time>
      </trkpt>
      <trkpt lat="42.1719257533550262451171875" lon="1.7700995318591594696044921875">
        <ele>1847.5999755859375</ele>
        <time>2020-10-24T13:34:55.000Z</time>
      </trkpt>
      <trkpt lat="42.17190370894968509674072265625" lon="1.77010305225849151611328125">
        <ele>1847.199951171875</ele>
        <time>2020-10-24T13:34:57.000Z</time>
      </trkpt>
      <trkpt lat="42.17189482413232326507568359375" lon="1.77010347135365009307861328125">
        <ele>1847</ele>
        <time>2020-10-24T13:34:58.000Z</time>
      </trkpt>
      <trkpt lat="42.1718793176114559173583984375" lon="1.7701092548668384552001953125">
        <ele>1846.4000244140625</ele>
        <time>2020-10-24T13:35:00.000Z</time>
      </trkpt>
      <trkpt lat="42.17185308225452899932861328125" lon="1.77012853324413299560546875">
        <ele>1845.800048828125</ele>
        <time>2020-10-24T13:35:02.000Z</time>
      </trkpt>
      <trkpt lat="42.171842940151691436767578125" lon="1.77013817243278026580810546875">
        <ele>1845.4000244140625</ele>
        <time>2020-10-24T13:35:03.000Z</time>
      </trkpt>
      <trkpt lat="42.17182206921279430389404296875" lon="1.77016030065715312957763671875">
        <ele>1844.5999755859375</ele>
        <time>2020-10-24T13:35:05.000Z</time>
      </trkpt>
      <trkpt lat="42.1718159504234790802001953125" lon="1.77017052657902240753173828125">
        <ele>1844.4000244140625</ele>
        <time>2020-10-24T13:35:06.000Z</time>
      </trkpt>
      <trkpt lat="42.17180849052965641021728515625" lon="1.77017739973962306976318359375">
        <ele>1844.199951171875</ele>
        <time>2020-10-24T13:35:07.000Z</time>
      </trkpt>
      <trkpt lat="42.1717914752662181854248046875" lon="1.7702011205255985260009765625">
        <ele>1844</ele>
        <time>2020-10-24T13:35:09.000Z</time>
      </trkpt>
      <trkpt lat="42.17180329374969005584716796875" lon="1.77027479745447635650634765625">
        <ele>1843.4000244140625</ele>
        <time>2020-10-24T13:35:12.000Z</time>
      </trkpt>
      <trkpt lat="42.17179767787456512451171875" lon="1.77029290236532688140869140625">
        <ele>1843.199951171875</ele>
        <time>2020-10-24T13:35:13.000Z</time>
      </trkpt>
      <trkpt lat="42.171770520508289337158203125" lon="1.770348139107227325439453125">
        <ele>1841.800048828125</ele>
        <time>2020-10-24T13:35:16.000Z</time>
      </trkpt>
      <trkpt lat="42.1717607975006103515625" lon="1.77036381326615810394287109375">
        <ele>1841.5999755859375</ele>
        <time>2020-10-24T13:35:17.000Z</time>
      </trkpt>
      <trkpt lat="42.1717192232608795166015625" lon="1.77042701281607151031494140625">
        <ele>1840.5999755859375</ele>
        <time>2020-10-24T13:35:22.000Z</time>
      </trkpt>
      <trkpt lat="42.17167253606021404266357421875" lon="1.77043673582375049591064453125">
        <ele>1840</ele>
        <time>2020-10-24T13:35:25.000Z</time>
      </trkpt>
      <trkpt lat="42.17166180722415447235107421875" lon="1.770459450781345367431640625">
        <ele>1839.5999755859375</ele>
        <time>2020-10-24T13:35:27.000Z</time>
      </trkpt>
      <trkpt lat="42.17165057547390460968017578125" lon="1.770481579005718231201171875">
        <ele>1839.4000244140625</ele>
        <time>2020-10-24T13:35:29.000Z</time>
      </trkpt>
      <trkpt lat="42.1716426126658916473388671875" lon="1.77049021236598491668701171875">
        <ele>1839.199951171875</ele>
        <time>2020-10-24T13:35:30.000Z</time>
      </trkpt>
      <trkpt lat="42.17163448221981525421142578125" lon="1.77049976773560047149658203125">
        <ele>1839</ele>
        <time>2020-10-24T13:35:31.000Z</time>
      </trkpt>
      <trkpt lat="42.17162727378308773040771484375" lon="1.77050915546715259552001953125">
        <ele>1838.800048828125</ele>
        <time>2020-10-24T13:35:32.000Z</time>
      </trkpt>
      <trkpt lat="42.1716161258518695831298828125" lon="1.77053547464311122894287109375">
        <ele>1838.5999755859375</ele>
        <time>2020-10-24T13:35:34.000Z</time>
      </trkpt>
      <trkpt lat="42.17161017470061779022216796875" lon="1.770546622574329376220703125">
        <ele>1838.5999755859375</ele>
        <time>2020-10-24T13:35:35.000Z</time>
      </trkpt>
      <trkpt lat="42.171589471399784088134765625" lon="1.77057185210287570953369140625">
        <ele>1838.199951171875</ele>
        <time>2020-10-24T13:35:38.000Z</time>
      </trkpt>
      <trkpt lat="42.17154663987457752227783203125" lon="1.7706131748855113983154296875">
        <ele>1837.4000244140625</ele>
        <time>2020-10-24T13:35:43.000Z</time>
      </trkpt>
      <trkpt lat="42.17152551747858524322509765625" lon="1.77064544521272182464599609375">
        <ele>1837</ele>
        <time>2020-10-24T13:35:45.000Z</time>
      </trkpt>
      <trkpt lat="42.17149266041815280914306640625" lon="1.77068249322474002838134765625">
        <ele>1836.5999755859375</ele>
        <time>2020-10-24T13:35:48.000Z</time>
      </trkpt>
      <trkpt lat="42.17148025520145893096923828125" lon="1.77069975994527339935302734375">
        <ele>1836.4000244140625</ele>
        <time>2020-10-24T13:35:50.000Z</time>
      </trkpt>
      <trkpt lat="42.1714709512889385223388671875" lon="1.77072004415094852447509765625">
        <ele>1836.199951171875</ele>
        <time>2020-10-24T13:35:51.000Z</time>
      </trkpt>
      <trkpt lat="42.17143113724887371063232421875" lon="1.770802102982997894287109375">
        <ele>1835.199951171875</ele>
        <time>2020-10-24T13:35:57.000Z</time>
      </trkpt>
      <trkpt lat="42.17141889967024326324462890625" lon="1.77080235444009304046630859375">
        <ele>1835</ele>
        <time>2020-10-24T13:35:58.000Z</time>
      </trkpt>
      <trkpt lat="42.1713924966752529144287109375" lon="1.7707972414791584014892578125">
        <ele>1834.4000244140625</ele>
        <time>2020-10-24T13:36:01.000Z</time>
      </trkpt>
      <trkpt lat="42.17138218693435192108154296875" lon="1.77079916931688785552978515625">
        <ele>1834.199951171875</ele>
        <time>2020-10-24T13:36:02.000Z</time>
      </trkpt>
      <trkpt lat="42.171355783939361572265625" lon="1.770820878446102142333984375">
        <ele>1833.199951171875</ele>
        <time>2020-10-24T13:36:06.000Z</time>
      </trkpt>
      <trkpt lat="42.17134438455104827880859375" lon="1.77082498557865619659423828125">
        <ele>1832.4000244140625</ele>
        <time>2020-10-24T13:36:08.000Z</time>
      </trkpt>
      <trkpt lat="42.17132451944053173065185546875" lon="1.7708279192447662353515625">
        <ele>1831.800048828125</ele>
        <time>2020-10-24T13:36:10.000Z</time>
      </trkpt>
      <trkpt lat="42.17129518277943134307861328125" lon="1.7708388157188892364501953125">
        <ele>1830.800048828125</ele>
        <time>2020-10-24T13:36:13.000Z</time>
      </trkpt>
      <trkpt lat="42.1712852083146572113037109375" lon="1.770844347774982452392578125">
        <ele>1830.5999755859375</ele>
        <time>2020-10-24T13:36:14.000Z</time>
      </trkpt>
      <trkpt lat="42.17127791605889797210693359375" lon="1.77085096947848796844482421875">
        <ele>1830.4000244140625</ele>
        <time>2020-10-24T13:36:15.000Z</time>
      </trkpt>
      <trkpt lat="42.1712231822311878204345703125" lon="1.7708619497716426849365234375">
        <ele>1829.5999755859375</ele>
        <time>2020-10-24T13:36:20.000Z</time>
      </trkpt>
      <trkpt lat="42.1712168119847774505615234375" lon="1.77086454816162586212158203125">
        <ele>1829.4000244140625</ele>
        <time>2020-10-24T13:36:21.000Z</time>
      </trkpt>
      <trkpt lat="42.1712107770144939422607421875" lon="1.77087142132222652435302734375">
        <ele>1829.199951171875</ele>
        <time>2020-10-24T13:36:22.000Z</time>
      </trkpt>
      <trkpt lat="42.1711883135139942169189453125" lon="1.770879887044429779052734375">
        <ele>1829</ele>
        <time>2020-10-24T13:36:24.000Z</time>
      </trkpt>
      <trkpt lat="42.17115931212902069091796875" lon="1.77089790813624858856201171875">
        <ele>1828.5999755859375</ele>
        <time>2020-10-24T13:36:26.000Z</time>
      </trkpt>
      <trkpt lat="42.1711350046098232269287109375" lon="1.77091835997998714447021484375">
        <ele>1828.199951171875</ele>
        <time>2020-10-24T13:36:29.000Z</time>
      </trkpt>
      <trkpt lat="42.17110432684421539306640625" lon="1.77093797363340854644775390625">
        <ele>1827.5999755859375</ele>
        <time>2020-10-24T13:36:33.000Z</time>
      </trkpt>
      <trkpt lat="42.1710961125791072845458984375" lon="1.77094317041337490081787109375">
        <ele>1827.4000244140625</ele>
        <time>2020-10-24T13:36:34.000Z</time>
      </trkpt>
      <trkpt lat="42.171072475612163543701171875" lon="1.77095876075327396392822265625">
        <ele>1826.800048828125</ele>
        <time>2020-10-24T13:36:37.000Z</time>
      </trkpt>
      <trkpt lat="42.17106250114738941192626953125" lon="1.77095733582973480224609375">
        <ele>1826.800048828125</ele>
        <time>2020-10-24T13:36:38.000Z</time>
      </trkpt>
      <trkpt lat="42.17105613090097904205322265625" lon="1.77095876075327396392822265625">
        <ele>1826.5999755859375</ele>
        <time>2020-10-24T13:36:40.000Z</time>
      </trkpt>
      <trkpt lat="42.171055376529693603515625" lon="1.7709638737142086029052734375">
        <ele>1826.4000244140625</ele>
        <time>2020-10-24T13:36:42.000Z</time>
      </trkpt>
      <trkpt lat="42.171043641865253448486328125" lon="1.7709689028561115264892578125">
        <ele>1826.4000244140625</ele>
        <time>2020-10-24T13:36:45.000Z</time>
      </trkpt>
      <trkpt lat="42.17102847062051296234130859375" lon="1.770975776016712188720703125">
        <ele>1826.199951171875</ele>
        <time>2020-10-24T13:36:47.000Z</time>
      </trkpt>
      <trkpt lat="42.171014137566089630126953125" lon="1.77098843269050121307373046875">
        <ele>1825.5999755859375</ele>
        <time>2020-10-24T13:36:50.000Z</time>
      </trkpt>
      <trkpt lat="42.1710057556629180908203125" lon="1.7709943838417530059814453125">
        <ele>1825.5999755859375</ele>
        <time>2020-10-24T13:36:51.000Z</time>
      </trkpt>
      <trkpt lat="42.17098270542919635772705078125" lon="1.7710101418197154998779296875">
        <ele>1825</ele>
        <time>2020-10-24T13:36:54.000Z</time>
      </trkpt>
      <trkpt lat="42.17097599990665912628173828125" lon="1.77102170884609222412109375">
        <ele>1824.800048828125</ele>
        <time>2020-10-24T13:36:55.000Z</time>
      </trkpt>
      <trkpt lat="42.17096845619380474090576171875" lon="1.7710292525589466094970703125">
        <ele>1824.5999755859375</ele>
        <time>2020-10-24T13:36:56.000Z</time>
      </trkpt>
      <trkpt lat="42.17096426524221897125244140625" lon="1.7710319347679615020751953125">
        <ele>1824.4000244140625</ele>
        <time>2020-10-24T13:36:57.000Z</time>
      </trkpt>
      <trkpt lat="42.17095219530165195465087890625" lon="1.77103671245276927947998046875">
        <ele>1823.800048828125</ele>
        <time>2020-10-24T13:37:00.000Z</time>
      </trkpt>
      <trkpt lat="42.170945070683956146240234375" lon="1.77104542963206768035888671875">
        <ele>1823.4000244140625</ele>
        <time>2020-10-24T13:37:02.000Z</time>
      </trkpt>
      <trkpt lat="42.1709418855607509613037109375" lon="1.77105247043073177337646484375">
        <ele>1823</ele>
        <time>2020-10-24T13:37:03.000Z</time>
      </trkpt>
      <trkpt lat="42.17091682367026805877685546875" lon="1.77109622396528720855712890625">
        <ele>1822</ele>
        <time>2020-10-24T13:37:07.000Z</time>
      </trkpt>
      <trkpt lat="42.17089771293103694915771484375" lon="1.7711073718965053558349609375">
        <ele>1821.5999755859375</ele>
        <time>2020-10-24T13:37:09.000Z</time>
      </trkpt>
      <trkpt lat="42.17087038792669773101806640625" lon="1.771127320826053619384765625">
        <ele>1821.199951171875</ele>
        <time>2020-10-24T13:37:11.000Z</time>
      </trkpt>
      <trkpt lat="42.170853875577449798583984375" lon="1.7711310088634490966796875">
        <ele>1821</ele>
        <time>2020-10-24T13:37:12.000Z</time>
      </trkpt>
      <trkpt lat="42.170820347964763641357421875" lon="1.77114752121269702911376953125">
        <ele>1820.199951171875</ele>
        <time>2020-10-24T13:37:15.000Z</time>
      </trkpt>
      <trkpt lat="42.17081204988062381744384765625" lon="1.77116026170551776885986328125">
        <ele>1820</ele>
        <time>2020-10-24T13:37:16.000Z</time>
      </trkpt>
      <trkpt lat="42.1708064340054988861083984375" lon="1.77116788923740386962890625">
        <ele>1819.5999755859375</ele>
        <time>2020-10-24T13:37:17.000Z</time>
      </trkpt>
      <trkpt lat="42.1707950346171855926513671875" lon="1.77118021063506603240966796875">
        <ele>1819.199951171875</ele>
        <time>2020-10-24T13:37:19.000Z</time>
      </trkpt>
      <trkpt lat="42.170784808695316314697265625" lon="1.7711888439953327178955078125">
        <ele>1818.800048828125</ele>
        <time>2020-10-24T13:37:21.000Z</time>
      </trkpt>
      <trkpt lat="42.17077751643955707550048828125" lon="1.77119060419499874114990234375">
        <ele>1818.5999755859375</ele>
        <time>2020-10-24T13:37:22.000Z</time>
      </trkpt>
      <trkpt lat="42.1707444079220294952392578125" lon="1.77120753563940525054931640625">
        <ele>1817.5999755859375</ele>
        <time>2020-10-24T13:37:26.000Z</time>
      </trkpt>
      <trkpt lat="42.17069436796009540557861328125" lon="1.77125313319265842437744140625">
        <ele>1816.800048828125</ele>
        <time>2020-10-24T13:37:30.000Z</time>
      </trkpt>
      <trkpt lat="42.17068347148597240447998046875" lon="1.77125371992588043212890625">
        <ele>1816.5999755859375</ele>
        <time>2020-10-24T13:37:31.000Z</time>
      </trkpt>
      <trkpt lat="42.17067525722086429595947265625" lon="1.77125698886811733245849609375">
        <ele>1816.4000244140625</ele>
        <time>2020-10-24T13:37:32.000Z</time>
      </trkpt>
      <trkpt lat="42.1706609241664409637451171875" lon="1.77129085175693035125732421875">
        <ele>1816</ele>
        <time>2020-10-24T13:37:35.000Z</time>
      </trkpt>
      <trkpt lat="42.17064558528363704681396484375" lon="1.77130325697362422943115234375">
        <ele>1815.5999755859375</ele>
        <time>2020-10-24T13:37:37.000Z</time>
      </trkpt>
      <trkpt lat="42.17063770629465579986572265625" lon="1.771309375762939453125">
        <ele>1815</ele>
        <time>2020-10-24T13:37:39.000Z</time>
      </trkpt>
      <trkpt lat="42.1706227026879787445068359375" lon="1.7713187634944915771484375">
        <ele>1814.5999755859375</ele>
        <time>2020-10-24T13:37:41.000Z</time>
      </trkpt>
      <trkpt lat="42.17061457224190235137939453125" lon="1.77132504992187023162841796875">
        <ele>1814.4000244140625</ele>
        <time>2020-10-24T13:37:42.000Z</time>
      </trkpt>
      <trkpt lat="42.17060744762420654296875" lon="1.7713326774537563323974609375">
        <ele>1814</ele>
        <time>2020-10-24T13:37:43.000Z</time>
      </trkpt>
      <trkpt lat="42.17058909125626087188720703125" lon="1.771352291107177734375">
        <ele>1813.4000244140625</ele>
        <time>2020-10-24T13:37:45.000Z</time>
      </trkpt>
      <trkpt lat="42.17056830413639545440673828125" lon="1.7713755927979946136474609375">
        <ele>1812.5999755859375</ele>
        <time>2020-10-24T13:37:48.000Z</time>
      </trkpt>
      <trkpt lat="42.17056252062320709228515625" lon="1.77138355560600757598876953125">
        <ele>1812.4000244140625</ele>
        <time>2020-10-24T13:37:49.000Z</time>
      </trkpt>
      <trkpt lat="42.1705576591193675994873046875" lon="1.7713859863579273223876953125">
        <ele>1812.199951171875</ele>
        <time>2020-10-24T13:37:51.000Z</time>
      </trkpt>
      <trkpt lat="42.170555479824542999267578125" lon="1.77138322032988071441650390625">
        <ele>1812</ele>
        <time>2020-10-24T13:37:52.000Z</time>
      </trkpt>
      <trkpt lat="42.17054366134107112884521484375" lon="1.7713819630444049835205078125">
        <ele>1811.800048828125</ele>
        <time>2020-10-24T13:37:54.000Z</time>
      </trkpt>
      <trkpt lat="42.170519270002841949462890625" lon="1.77139378152787685394287109375">
        <ele>1811</ele>
        <time>2020-10-24T13:37:57.000Z</time>
      </trkpt>
      <trkpt lat="42.17049144208431243896484375" lon="1.77140182815492153167724609375">
        <ele>1809.800048828125</ele>
        <time>2020-10-24T13:38:01.000Z</time>
      </trkpt>
      <trkpt lat="42.17048515565693378448486328125" lon="1.77140719257295131683349609375">
        <ele>1809.5999755859375</ele>
        <time>2020-10-24T13:38:02.000Z</time>
      </trkpt>
      <trkpt lat="42.17047694139182567596435546875" lon="1.771413646638393402099609375">
        <ele>1809.199951171875</ele>
        <time>2020-10-24T13:38:03.000Z</time>
      </trkpt>
      <trkpt lat="42.1704704873263835906982421875" lon="1.77141725085675716400146484375">
        <ele>1808.800048828125</ele>
        <time>2020-10-24T13:38:04.000Z</time>
      </trkpt>
      <trkpt lat="42.17044944874942302703857421875" lon="1.7714476771652698516845703125">
        <ele>1807.5999755859375</ele>
        <time>2020-10-24T13:38:09.000Z</time>
      </trkpt>
      <trkpt lat="42.1704456768929958343505859375" lon="1.771451532840728759765625">
        <ele>1807.4000244140625</ele>
        <time>2020-10-24T13:38:10.000Z</time>
      </trkpt>
      <trkpt lat="42.1704372949898242950439453125" lon="1.77145798690617084503173828125">
        <ele>1807.199951171875</ele>
        <time>2020-10-24T13:38:11.000Z</time>
      </trkpt>
      <trkpt lat="42.17042547650635242462158203125" lon="1.77146385423839092254638671875">
        <ele>1807</ele>
        <time>2020-10-24T13:38:12.000Z</time>
      </trkpt>
      <trkpt lat="42.1704196929931640625" lon="1.7714637704193592071533203125">
        <ele>1806.800048828125</ele>
        <time>2020-10-24T13:38:13.000Z</time>
      </trkpt>
      <trkpt lat="42.17041508294641971588134765625" lon="1.7714662849903106689453125">
        <ele>1806.5999755859375</ele>
        <time>2020-10-24T13:38:14.000Z</time>
      </trkpt>
      <trkpt lat="42.1704089641571044921875" lon="1.7714716494083404541015625">
        <ele>1806.4000244140625</ele>
        <time>2020-10-24T13:38:15.000Z</time>
      </trkpt>
      <trkpt lat="42.17038658447563648223876953125" lon="1.771481372416019439697265625">
        <ele>1806</ele>
        <time>2020-10-24T13:38:18.000Z</time>
      </trkpt>
      <trkpt lat="42.1703779511153697967529296875" lon="1.77148246206343173980712890625">
        <ele>1805.800048828125</ele>
        <time>2020-10-24T13:38:19.000Z</time>
      </trkpt>
      <trkpt lat="42.17036814428865909576416015625" lon="1.77148380316793918609619140625">
        <ele>1805.4000244140625</ele>
        <time>2020-10-24T13:38:20.000Z</time>
      </trkpt>
      <trkpt lat="42.17034568078815937042236328125" lon="1.7715009860694408416748046875">
        <ele>1804.5999755859375</ele>
        <time>2020-10-24T13:38:23.000Z</time>
      </trkpt>
      <trkpt lat="42.17033880762755870819091796875" lon="1.77149872295558452606201171875">
        <ele>1804.4000244140625</ele>
        <time>2020-10-24T13:38:24.000Z</time>
      </trkpt>
      <trkpt lat="42.17032372020184993743896484375" lon="1.7715011537075042724609375">
        <ele>1803.5999755859375</ele>
        <time>2020-10-24T13:38:27.000Z</time>
      </trkpt>
      <trkpt lat="42.17031131498515605926513671875" lon="1.7715043388307094573974609375">
        <ele>1803.199951171875</ele>
        <time>2020-10-24T13:38:29.000Z</time>
      </trkpt>
      <trkpt lat="42.1702770330011844635009765625" lon="1.771535687148571014404296875">
        <ele>1802.5999755859375</ele>
        <time>2020-10-24T13:38:33.000Z</time>
      </trkpt>
      <trkpt lat="42.17025917954742908477783203125" lon="1.7715304903686046600341796875">
        <ele>1802.199951171875</ele>
        <time>2020-10-24T13:38:37.000Z</time>
      </trkpt>
      <trkpt lat="42.17025716789066791534423828125" lon="1.7715227790176868438720703125">
        <ele>1802.199951171875</ele>
        <time>2020-10-24T13:38:38.000Z</time>
      </trkpt>
      <trkpt lat="42.1702233888208866119384765625" lon="1.77153090946376323699951171875">
        <ele>1801</ele>
        <time>2020-10-24T13:38:43.000Z</time>
      </trkpt>
      <trkpt lat="42.170188017189502716064453125" lon="1.77154331468045711517333984375">
        <ele>1800.199951171875</ele>
        <time>2020-10-24T13:38:49.000Z</time>
      </trkpt>
      <trkpt lat="42.17018206603825092315673828125" lon="1.77153912372887134552001953125">
        <ele>1800</ele>
        <time>2020-10-24T13:38:50.000Z</time>
      </trkpt>
      <trkpt lat="42.170163877308368682861328125" lon="1.77152588032186031341552734375">
        <ele>1798.800048828125</ele>
        <time>2020-10-24T13:38:53.000Z</time>
      </trkpt>
      <trkpt lat="42.17014920897781848907470703125" lon="1.77149134688079357147216796875">
        <ele>1797.800048828125</ele>
        <time>2020-10-24T13:38:57.000Z</time>
      </trkpt>
      <trkpt lat="42.1701254881918430328369140625" lon="1.77147022448480129241943359375">
        <ele>1796.5999755859375</ele>
        <time>2020-10-24T13:39:03.000Z</time>
      </trkpt>
      <trkpt lat="42.1701179444789886474609375" lon="1.77147257141768932342529296875">
        <ele>1796.4000244140625</ele>
        <time>2020-10-24T13:39:04.000Z</time>
      </trkpt>
      <trkpt lat="42.17009623534977436065673828125" lon="1.77148564718663692474365234375">
        <ele>1795.5999755859375</ele>
        <time>2020-10-24T13:39:07.000Z</time>
      </trkpt>
      <trkpt lat="42.17007326893508434295654296875" lon="1.7714818753302097320556640625">
        <ele>1794.800048828125</ele>
        <time>2020-10-24T13:39:10.000Z</time>
      </trkpt>
      <trkpt lat="42.17006622813642024993896484375" lon="1.7714741639792919158935546875">
        <ele>1794.4000244140625</ele>
        <time>2020-10-24T13:39:11.000Z</time>
      </trkpt>
      <trkpt lat="42.170053236186504364013671875" lon="1.7714624293148517608642578125">
        <ele>1793.800048828125</ele>
        <time>2020-10-24T13:39:13.000Z</time>
      </trkpt>
      <trkpt lat="42.1700379811227321624755859375" lon="1.77145513705909252166748046875">
        <ele>1793.4000244140625</ele>
        <time>2020-10-24T13:39:15.000Z</time>
      </trkpt>
      <trkpt lat="42.17002666555345058441162109375" lon="1.7714513652026653289794921875">
        <ele>1793.199951171875</ele>
        <time>2020-10-24T13:39:16.000Z</time>
      </trkpt>
      <trkpt lat="42.17000638134777545928955078125" lon="1.77142831496894359588623046875">
        <ele>1792.800048828125</ele>
        <time>2020-10-24T13:39:18.000Z</time>
      </trkpt>
      <trkpt lat="42.16998844407498836517333984375" lon="1.7714111320674419403076171875">
        <ele>1792.4000244140625</ele>
        <time>2020-10-24T13:39:20.000Z</time>
      </trkpt>
      <trkpt lat="42.16996380127966403961181640625" lon="1.771384812891483306884765625">
        <ele>1791.199951171875</ele>
        <time>2020-10-24T13:39:23.000Z</time>
      </trkpt>
      <trkpt lat="42.16995424591004848480224609375" lon="1.7713670432567596435546875">
        <ele>1790.5999755859375</ele>
        <time>2020-10-24T13:39:25.000Z</time>
      </trkpt>
      <trkpt lat="42.16993798501789569854736328125" lon="1.77138112485408782958984375">
        <ele>1790.199951171875</ele>
        <time>2020-10-24T13:39:27.000Z</time>
      </trkpt>
      <trkpt lat="42.169929854571819305419921875" lon="1.77138338796794414520263671875">
        <ele>1790</ele>
        <time>2020-10-24T13:39:28.000Z</time>
      </trkpt>
      <trkpt lat="42.169894315302371978759765625" lon="1.771367378532886505126953125">
        <ele>1789</ele>
        <time>2020-10-24T13:39:32.000Z</time>
      </trkpt>
      <trkpt lat="42.1698844246566295623779296875" lon="1.7713692225515842437744140625">
        <ele>1788.800048828125</ele>
        <time>2020-10-24T13:39:33.000Z</time>
      </trkpt>
      <trkpt lat="42.16987528838217258453369140625" lon="1.77136980928480625152587890625">
        <ele>1788.199951171875</ele>
        <time>2020-10-24T13:39:35.000Z</time>
      </trkpt>
      <trkpt lat="42.16986891813576221466064453125" lon="1.7713685519993305206298828125">
        <ele>1788</ele>
        <time>2020-10-24T13:39:36.000Z</time>
      </trkpt>
      <trkpt lat="42.16984528116881847381591796875" lon="1.7713816277682781219482421875">
        <ele>1786.800048828125</ele>
        <time>2020-10-24T13:39:41.000Z</time>
      </trkpt>
      <trkpt lat="42.16982197947800159454345703125" lon="1.77140132524073123931884765625">
        <ele>1785.800048828125</ele>
        <time>2020-10-24T13:39:45.000Z</time>
      </trkpt>
      <trkpt lat="42.16981686651706695556640625" lon="1.77140434272587299346923828125">
        <ele>1785.5999755859375</ele>
        <time>2020-10-24T13:39:46.000Z</time>
      </trkpt>
      <trkpt lat="42.16980571858584880828857421875" lon="1.771425046026706695556640625">
        <ele>1785.5999755859375</ele>
        <time>2020-10-24T13:39:48.000Z</time>
      </trkpt>
      <trkpt lat="42.1697972528636455535888671875" lon="1.77143619395792484283447265625">
        <ele>1785.199951171875</ele>
        <time>2020-10-24T13:39:51.000Z</time>
      </trkpt>
      <trkpt lat="42.16978560201823711395263671875" lon="1.771449185907840728759765625">
        <ele>1784.800048828125</ele>
        <time>2020-10-24T13:39:54.000Z</time>
      </trkpt>
      <trkpt lat="42.16977822594344615936279296875" lon="1.77145195193588733673095703125">
        <ele>1784.5999755859375</ele>
        <time>2020-10-24T13:39:55.000Z</time>
      </trkpt>
      <trkpt lat="42.16974201612174510955810546875" lon="1.7714577354490756988525390625">
        <ele>1783.4000244140625</ele>
        <time>2020-10-24T13:39:59.000Z</time>
      </trkpt>
      <trkpt lat="42.16972961090505123138427734375" lon="1.77146603353321552276611328125">
        <ele>1782.800048828125</ele>
        <time>2020-10-24T13:40:01.000Z</time>
      </trkpt>
      <trkpt lat="42.16972223483026027679443359375" lon="1.77147776819765567779541015625">
        <ele>1782.4000244140625</ele>
        <time>2020-10-24T13:40:03.000Z</time>
      </trkpt>
      <trkpt lat="42.16969055123627185821533203125" lon="1.77149000577628612518310546875">
        <ele>1781.199951171875</ele>
        <time>2020-10-24T13:40:07.000Z</time>
      </trkpt>
      <trkpt lat="42.16964780353009700775146484375" lon="1.7714976333081722259521484375">
        <ele>1780</ele>
        <time>2020-10-24T13:40:12.000Z</time>
      </trkpt>
      <trkpt lat="42.1696400083601474761962890625" lon="1.77152085117995738983154296875">
        <ele>1779.4000244140625</ele>
        <time>2020-10-24T13:40:15.000Z</time>
      </trkpt>
      <trkpt lat="42.169620059430599212646484375" lon="1.77151934243738651275634765625">
        <ele>1779</ele>
        <time>2020-10-24T13:40:17.000Z</time>
      </trkpt>
      <trkpt lat="42.1695907227694988250732421875" lon="1.77154700271785259246826171875">
        <ele>1777.800048828125</ele>
        <time>2020-10-24T13:40:22.000Z</time>
      </trkpt>
      <trkpt lat="42.1695615537464618682861328125" lon="1.7715740762650966644287109375">
        <ele>1776.5999755859375</ele>
        <time>2020-10-24T13:40:27.000Z</time>
      </trkpt>
      <trkpt lat="42.1695551835000514984130859375" lon="1.77157751284539699554443359375">
        <ele>1776.4000244140625</ele>
        <time>2020-10-24T13:40:28.000Z</time>
      </trkpt>
      <trkpt lat="42.16952878050506114959716796875" lon="1.7715938575565814971923828125">
        <ele>1775.4000244140625</ele>
        <time>2020-10-24T13:40:32.000Z</time>
      </trkpt>
      <trkpt lat="42.16952090151607990264892578125" lon="1.77160047926008701324462890625">
        <ele>1775</ele>
        <time>2020-10-24T13:40:34.000Z</time>
      </trkpt>
      <trkpt lat="42.169505394995212554931640625" lon="1.7716065980494022369384765625">
        <ele>1774.4000244140625</ele>
        <time>2020-10-24T13:40:36.000Z</time>
      </trkpt>
      <trkpt lat="42.169492654502391815185546875" lon="1.7716055922210216522216796875">
        <ele>1773.800048828125</ele>
        <time>2020-10-24T13:40:38.000Z</time>
      </trkpt>
      <trkpt lat="42.169475220143795013427734375" lon="1.77160031162202358245849609375">
        <ele>1773</ele>
        <time>2020-10-24T13:40:40.000Z</time>
      </trkpt>
      <trkpt lat="42.16946415603160858154296875" lon="1.7715935222804546356201171875">
        <ele>1772.4000244140625</ele>
        <time>2020-10-24T13:40:42.000Z</time>
      </trkpt>
      <trkpt lat="42.16945954598486423492431640625" lon="1.77159444428980350494384765625">
        <ele>1772.199951171875</ele>
        <time>2020-10-24T13:40:43.000Z</time>
      </trkpt>
      <trkpt lat="42.16945535503327846527099609375" lon="1.77159192971885204315185546875">
        <ele>1771.800048828125</ele>
        <time>2020-10-24T13:40:44.000Z</time>
      </trkpt>
      <trkpt lat="42.169449068605899810791015625" lon="1.77158975042402744293212890625">
        <ele>1771.5999755859375</ele>
        <time>2020-10-24T13:40:45.000Z</time>
      </trkpt>
      <trkpt lat="42.16941880993545055389404296875" lon="1.771590001881122589111328125">
        <ele>1770.800048828125</ele>
        <time>2020-10-24T13:40:49.000Z</time>
      </trkpt>
      <trkpt lat="42.169398777186870574951171875" lon="1.77159260027110576629638671875">
        <ele>1770</ele>
        <time>2020-10-24T13:40:51.000Z</time>
      </trkpt>
      <trkpt lat="42.16939081437885761260986328125" lon="1.77159058861434459686279296875">
        <ele>1769.5999755859375</ele>
        <time>2020-10-24T13:40:52.000Z</time>
      </trkpt>
      <trkpt lat="42.16937698423862457275390625" lon="1.77158555947244167327880859375">
        <ele>1769.199951171875</ele>
        <time>2020-10-24T13:40:54.000Z</time>
      </trkpt>
      <trkpt lat="42.16936415992677211761474609375" lon="1.771580614149570465087890625">
        <ele>1768.5999755859375</ele>
        <time>2020-10-24T13:40:56.000Z</time>
      </trkpt>
      <trkpt lat="42.1693493239581584930419921875" lon="1.77158321253955364227294921875">
        <ele>1768</ele>
        <time>2020-10-24T13:40:58.000Z</time>
      </trkpt>
      <trkpt lat="42.1693293750286102294921875" lon="1.771587319672107696533203125">
        <ele>1767.4000244140625</ele>
        <time>2020-10-24T13:41:00.000Z</time>
      </trkpt>
      <trkpt lat="42.1693033911287784576416015625" lon="1.771542392671108245849609375">
        <ele>1766.4000244140625</ele>
        <time>2020-10-24T13:41:05.000Z</time>
      </trkpt>
      <trkpt lat="42.1693003736436367034912109375" lon="1.77153660915791988372802734375">
        <ele>1766.199951171875</ele>
        <time>2020-10-24T13:41:06.000Z</time>
      </trkpt>
      <trkpt lat="42.1692993678152561187744140625" lon="1.77153158001601696014404296875">
        <ele>1766</ele>
        <time>2020-10-24T13:41:08.000Z</time>
      </trkpt>
      <trkpt lat="42.1692772395908832550048828125" lon="1.77151255309581756591796875">
        <ele>1765.4000244140625</ele>
        <time>2020-10-24T13:41:13.000Z</time>
      </trkpt>
      <trkpt lat="42.16926860623061656951904296875" lon="1.77150442264974117279052734375">
        <ele>1765.199951171875</ele>
        <time>2020-10-24T13:41:14.000Z</time>
      </trkpt>
      <trkpt lat="42.169263996183872222900390625" lon="1.77148682065308094024658203125">
        <ele>1764.5999755859375</ele>
        <time>2020-10-24T13:41:16.000Z</time>
      </trkpt>
      <trkpt lat="42.16926525346934795379638671875" lon="1.77147491835057735443115234375">
        <ele>1764.199951171875</ele>
        <time>2020-10-24T13:41:17.000Z</time>
      </trkpt>
      <trkpt lat="42.16925335116684436798095703125" lon="1.771451868116855621337890625">
        <ele>1763.4000244140625</ele>
        <time>2020-10-24T13:41:19.000Z</time>
      </trkpt>
      <trkpt lat="42.16924698092043399810791015625" lon="1.7714399658143520355224609375">
        <ele>1763</ele>
        <time>2020-10-24T13:41:20.000Z</time>
      </trkpt>
      <trkpt lat="42.16925033368170261383056640625" lon="1.77141138352453708648681640625">
        <ele>1762.5999755859375</ele>
        <time>2020-10-24T13:41:22.000Z</time>
      </trkpt>
      <trkpt lat="42.16925536282360553741455078125" lon="1.77138070575892925262451171875">
        <ele>1762.199951171875</ele>
        <time>2020-10-24T13:41:24.000Z</time>
      </trkpt>
      <trkpt lat="42.16925636865198612213134765625" lon="1.7713705636560916900634765625">
        <ele>1762</ele>
        <time>2020-10-24T13:41:25.000Z</time>
      </trkpt>
      <trkpt lat="42.16925368644297122955322265625" lon="1.7713289894163608551025390625">
        <ele>1760.800048828125</ele>
        <time>2020-10-24T13:41:30.000Z</time>
      </trkpt>
      <trkpt lat="42.16924295760691165924072265625" lon="1.77130945958197116851806640625">
        <ele>1760.199951171875</ele>
        <time>2020-10-24T13:41:32.000Z</time>
      </trkpt>
      <trkpt lat="42.1692417003214359283447265625" lon="1.77129470743238925933837890625">
        <ele>1759.800048828125</ele>
        <time>2020-10-24T13:41:33.000Z</time>
      </trkpt>
      <trkpt lat="42.16923943720757961273193359375" lon="1.771282888948917388916015625">
        <ele>1759.5999755859375</ele>
        <time>2020-10-24T13:41:34.000Z</time>
      </trkpt>
      <trkpt lat="42.16923885047435760498046875" lon="1.77127375267446041107177734375">
        <ele>1759.4000244140625</ele>
        <time>2020-10-24T13:41:35.000Z</time>
      </trkpt>
      <trkpt lat="42.16923625208437442779541015625" lon="1.77126503549516201019287109375">
        <ele>1759</ele>
        <time>2020-10-24T13:41:36.000Z</time>
      </trkpt>
      <trkpt lat="42.1692339889705181121826171875" lon="1.77125598303973674774169921875">
        <ele>1758.800048828125</ele>
        <time>2020-10-24T13:41:37.000Z</time>
      </trkpt>
      <trkpt lat="42.1692323125898838043212890625" lon="1.7712418176233768463134765625">
        <ele>1758.199951171875</ele>
        <time>2020-10-24T13:41:39.000Z</time>
      </trkpt>
      <trkpt lat="42.16922870837152004241943359375" lon="1.77123050205409526824951171875">
        <ele>1757.5999755859375</ele>
        <time>2020-10-24T13:41:41.000Z</time>
      </trkpt>
      <trkpt lat="42.16921965591609477996826171875" lon="1.77122530527412891387939453125">
        <ele>1757.4000244140625</ele>
        <time>2020-10-24T13:41:42.000Z</time>
      </trkpt>
      <trkpt lat="42.16921227984130382537841796875" lon="1.77122463472187519073486328125">
        <ele>1757</ele>
        <time>2020-10-24T13:41:43.000Z</time>
      </trkpt>
      <trkpt lat="42.16920456849038600921630859375" lon="1.7712196893990039825439453125">
        <ele>1756.5999755859375</ele>
        <time>2020-10-24T13:41:45.000Z</time>
      </trkpt>
      <trkpt lat="42.16919727623462677001953125" lon="1.771207116544246673583984375">
        <ele>1755.5999755859375</ele>
        <time>2020-10-24T13:41:49.000Z</time>
      </trkpt>
      <trkpt lat="42.16919719241559505462646484375" lon="1.771199069917201995849609375">
        <ele>1755.4000244140625</ele>
        <time>2020-10-24T13:41:50.000Z</time>
      </trkpt>
      <trkpt lat="42.16917724348604679107666015625" lon="1.77119043655693531036376953125">
        <ele>1754.199951171875</ele>
        <time>2020-10-24T13:41:56.000Z</time>
      </trkpt>
      <trkpt lat="42.16917271725833415985107421875" lon="1.7711885087192058563232421875">
        <ele>1754</ele>
        <time>2020-10-24T13:41:57.000Z</time>
      </trkpt>
      <trkpt lat="42.168923355638980865478515625" lon="1.7711388878524303436279296875">
        <ele>1744</ele>
        <time>2020-10-24T13:42:47.000Z</time>
      </trkpt>
      <trkpt lat="42.1688936837017536163330078125" lon="1.771158166229724884033203125">
        <ele>1743.199951171875</ele>
        <time>2020-10-24T13:42:51.000Z</time>
      </trkpt>
      <trkpt lat="42.1688841283321380615234375" lon="1.77116478793323040008544921875">
        <ele>1742.800048828125</ele>
        <time>2020-10-24T13:42:53.000Z</time>
      </trkpt>
      <trkpt lat="42.16888052411377429962158203125" lon="1.77115908823907375335693359375">
        <ele>1742.199951171875</ele>
        <time>2020-10-24T13:42:56.000Z</time>
      </trkpt>
      <trkpt lat="42.168867699801921844482421875" lon="1.771181635558605194091796875">
        <ele>1741.800048828125</ele>
        <time>2020-10-24T13:42:58.000Z</time>
      </trkpt>
      <trkpt lat="42.168863005936145782470703125" lon="1.7711958847939968109130859375">
        <ele>1741.5999755859375</ele>
        <time>2020-10-24T13:42:59.000Z</time>
      </trkpt>
      <trkpt lat="42.1688618324697017669677734375" lon="1.771216504275798797607421875">
        <ele>1741</ele>
        <time>2020-10-24T13:43:01.000Z</time>
      </trkpt>
      <trkpt lat="42.16885286383330821990966796875" lon="1.77122832275927066802978515625">
        <ele>1740.4000244140625</ele>
        <time>2020-10-24T13:43:03.000Z</time>
      </trkpt>
      <trkpt lat="42.16884816996753215789794921875" lon="1.7712367884814739227294921875">
        <ele>1740.4000244140625</ele>
        <time>2020-10-24T13:43:04.000Z</time>
      </trkpt>
      <trkpt lat="42.16884498484432697296142578125" lon="1.77124357782304286956787109375">
        <ele>1740.199951171875</ele>
        <time>2020-10-24T13:43:05.000Z</time>
      </trkpt>
      <trkpt lat="42.16884146444499492645263671875" lon="1.77124609239399433135986328125">
        <ele>1740.199951171875</ele>
        <time>2020-10-24T13:43:06.000Z</time>
      </trkpt>
      <trkpt lat="42.1688262932002544403076171875" lon="1.7712436616420745849609375">
        <ele>1740</ele>
        <time>2020-10-24T13:43:11.000Z</time>
      </trkpt>
      <trkpt lat="42.1688212640583515167236328125" lon="1.7712458409368991851806640625">
        <ele>1740</ele>
        <time>2020-10-24T13:43:12.000Z</time>
      </trkpt>
      <trkpt lat="42.1687330864369869232177734375" lon="1.7712517082691192626953125">
        <ele>1737.199951171875</ele>
        <time>2020-10-24T13:43:28.000Z</time>
      </trkpt>
      <trkpt lat="42.16872545890510082244873046875" lon="1.77124835550785064697265625">
        <ele>1737</ele>
        <time>2020-10-24T13:43:30.000Z</time>
      </trkpt>
      <trkpt lat="42.16848188079893589019775390625" lon="1.77133955061435699462890625">
        <ele>1731.4000244140625</ele>
        <time>2020-10-24T13:44:03.000Z</time>
      </trkpt>
      <trkpt lat="42.16847442090511322021484375" lon="1.7713517881929874420166015625">
        <ele>1731</ele>
        <time>2020-10-24T13:44:04.000Z</time>
      </trkpt>
      <trkpt lat="42.1684595011174678802490234375" lon="1.77137232385575771331787109375">
        <ele>1730.4000244140625</ele>
        <time>2020-10-24T13:44:06.000Z</time>
      </trkpt>
      <trkpt lat="42.1684470959007740020751953125" lon="1.7713911831378936767578125">
        <ele>1729.800048828125</ele>
        <time>2020-10-24T13:44:08.000Z</time>
      </trkpt>
      <trkpt lat="42.1684390492737293243408203125" lon="1.77139453589916229248046875">
        <ele>1729.4000244140625</ele>
        <time>2020-10-24T13:44:09.000Z</time>
      </trkpt>
      <trkpt lat="42.16842840425670146942138671875" lon="1.7713970504701137542724609375">
        <ele>1729</ele>
        <time>2020-10-24T13:44:10.000Z</time>
      </trkpt>
      <trkpt lat="42.16841884888708591461181640625" lon="1.7714017443358898162841796875">
        <ele>1728.5999755859375</ele>
        <time>2020-10-24T13:44:11.000Z</time>
      </trkpt>
      <trkpt lat="42.1684082038700580596923828125" lon="1.77141272462904453277587890625">
        <ele>1728.199951171875</ele>
        <time>2020-10-24T13:44:12.000Z</time>
      </trkpt>
      <trkpt lat="42.1683746762573719024658203125" lon="1.7714600823819637298583984375">
        <ele>1727</ele>
        <time>2020-10-24T13:44:16.000Z</time>
      </trkpt>
      <trkpt lat="42.168352715671062469482421875" lon="1.77150492556393146514892578125">
        <ele>1725.800048828125</ele>
        <time>2020-10-24T13:44:20.000Z</time>
      </trkpt>
      <trkpt lat="42.1683206968009471893310546875" lon="1.771540381014347076416015625">
        <ele>1724.5999755859375</ele>
        <time>2020-10-24T13:44:24.000Z</time>
      </trkpt>
      <trkpt lat="42.16826118528842926025390625" lon="1.7715982161462306976318359375">
        <ele>1723.4000244140625</ele>
        <time>2020-10-24T13:44:30.000Z</time>
      </trkpt>
      <trkpt lat="42.16825137846171855926513671875" lon="1.7716129682958126068115234375">
        <ele>1722.5999755859375</ele>
        <time>2020-10-24T13:44:32.000Z</time>
      </trkpt>
      <trkpt lat="42.1682455949485301971435546875" lon="1.7716272175312042236328125">
        <ele>1722.199951171875</ele>
        <time>2020-10-24T13:44:33.000Z</time>
      </trkpt>
      <trkpt lat="42.16821315698325634002685546875" lon="1.77165613509714603424072265625">
        <ele>1721.199951171875</ele>
        <time>2020-10-24T13:44:37.000Z</time>
      </trkpt>
      <trkpt lat="42.168190777301788330078125" lon="1.77166334353387355804443359375">
        <ele>1720.4000244140625</ele>
        <time>2020-10-24T13:44:40.000Z</time>
      </trkpt>
      <trkpt lat="42.1681855805218219757080078125" lon="1.771667785942554473876953125">
        <ele>1720</ele>
        <time>2020-10-24T13:44:41.000Z</time>
      </trkpt>
      <trkpt lat="42.168185077607631683349609375" lon="1.77168798632919788360595703125">
        <ele>1719.5999755859375</ele>
        <time>2020-10-24T13:44:43.000Z</time>
      </trkpt>
      <trkpt lat="42.16818197630345821380615234375" lon="1.7717122100293636322021484375">
        <ele>1719.199951171875</ele>
        <time>2020-10-24T13:44:45.000Z</time>
      </trkpt>
      <trkpt lat="42.16817527078092098236083984375" lon="1.77172687835991382598876953125">
        <ele>1719</ele>
        <time>2020-10-24T13:44:46.000Z</time>
      </trkpt>
      <trkpt lat="42.1681393124163150787353515625" lon="1.77175462245941162109375">
        <ele>1717.800048828125</ele>
        <time>2020-10-24T13:44:50.000Z</time>
      </trkpt>
      <trkpt lat="42.16811391524970531463623046875" lon="1.77176074124872684478759765625">
        <ele>1717.4000244140625</ele>
        <time>2020-10-24T13:44:52.000Z</time>
      </trkpt>
      <trkpt lat="42.16807879507541656494140625" lon="1.77176794968545436859130859375">
        <ele>1717</ele>
        <time>2020-10-24T13:44:54.000Z</time>
      </trkpt>
      <trkpt lat="42.16806714423000812530517578125" lon="1.77176333963871002197265625">
        <ele>1716.800048828125</ele>
        <time>2020-10-24T13:44:55.000Z</time>
      </trkpt>
      <trkpt lat="42.16805021278560161590576171875" lon="1.77178085781633853912353515625">
        <ele>1716</ele>
        <time>2020-10-24T13:44:57.000Z</time>
      </trkpt>
      <trkpt lat="42.16803495772182941436767578125" lon="1.77179552614688873291015625">
        <ele>1715.4000244140625</ele>
        <time>2020-10-24T13:44:59.000Z</time>
      </trkpt>
      <trkpt lat="42.1680286712944507598876953125" lon="1.7718020640313625335693359375">
        <ele>1715.199951171875</ele>
        <time>2020-10-24T13:45:00.000Z</time>
      </trkpt>
      <trkpt lat="42.16801584698259830474853515625" lon="1.7718149721622467041015625">
        <ele>1714.4000244140625</ele>
        <time>2020-10-24T13:45:02.000Z</time>
      </trkpt>
      <trkpt lat="42.16799162328243255615234375" lon="1.77184556610882282257080078125">
        <ele>1713.5999755859375</ele>
        <time>2020-10-24T13:45:05.000Z</time>
      </trkpt>
      <trkpt lat="42.167975865304470062255859375" lon="1.77186652086675167083740234375">
        <ele>1713.199951171875</ele>
        <time>2020-10-24T13:45:07.000Z</time>
      </trkpt>
      <trkpt lat="42.16795214451849460601806640625" lon="1.7718889005482196807861328125">
        <ele>1712.800048828125</ele>
        <time>2020-10-24T13:45:09.000Z</time>
      </trkpt>
      <trkpt lat="42.16794007457792758941650390625" lon="1.77190558053553104400634765625">
        <ele>1712.4000244140625</ele>
        <time>2020-10-24T13:45:11.000Z</time>
      </trkpt>
      <trkpt lat="42.1679373085498809814453125" lon="1.7719170637428760528564453125">
        <ele>1712</ele>
        <time>2020-10-24T13:45:13.000Z</time>
      </trkpt>
      <trkpt lat="42.1679290942847728729248046875" lon="1.77192737348377704620361328125">
        <ele>1711.5999755859375</ele>
        <time>2020-10-24T13:45:15.000Z</time>
      </trkpt>
      <trkpt lat="42.1679284237325191497802734375" lon="1.77192695438861846923828125">
        <ele>1711.4000244140625</ele>
        <time>2020-10-24T13:45:16.000Z</time>
      </trkpt>
      <trkpt lat="42.167920880019664764404296875" lon="1.77193257026374340057373046875">
        <ele>1710.800048828125</ele>
        <time>2020-10-24T13:45:18.000Z</time>
      </trkpt>
      <trkpt lat="42.16789162717759609222412109375" lon="1.7719544470310211181640625">
        <ele>1710.4000244140625</ele>
        <time>2020-10-24T13:45:20.000Z</time>
      </trkpt>
      <trkpt lat="42.16787905432283878326416015625" lon="1.7719732224941253662109375">
        <ele>1710</ele>
        <time>2020-10-24T13:45:23.000Z</time>
      </trkpt>
      <trkpt lat="42.1678690798580646514892578125" lon="1.77198437042534351348876953125">
        <ele>1709.800048828125</ele>
        <time>2020-10-24T13:45:24.000Z</time>
      </trkpt>
      <trkpt lat="42.16784904710948467254638671875" lon="1.77200867794454097747802734375">
        <ele>1709.199951171875</ele>
        <time>2020-10-24T13:45:26.000Z</time>
      </trkpt>
      <trkpt lat="42.1678305231034755706787109375" lon="1.77203248254954814910888671875">
        <ele>1708.5999755859375</ele>
        <time>2020-10-24T13:45:28.000Z</time>
      </trkpt>
      <trkpt lat="42.167804539203643798828125" lon="1.77208361215889453887939453125">
        <ele>1707.4000244140625</ele>
        <time>2020-10-24T13:45:33.000Z</time>
      </trkpt>
      <trkpt lat="42.1677711792290210723876953125" lon="1.7721276171505451202392578125">
        <ele>1706.5999755859375</ele>
        <time>2020-10-24T13:45:36.000Z</time>
      </trkpt>
      <trkpt lat="42.1677629649639129638671875" lon="1.77214513532817363739013671875">
        <ele>1706.4000244140625</ele>
        <time>2020-10-24T13:45:37.000Z</time>
      </trkpt>
      <trkpt lat="42.167753912508487701416015625" lon="1.77215569652616977691650390625">
        <ele>1706</ele>
        <time>2020-10-24T13:45:39.000Z</time>
      </trkpt>
      <trkpt lat="42.16773086227476596832275390625" lon="1.77217547781765460968017578125">
        <ele>1705.5999755859375</ele>
        <time>2020-10-24T13:45:41.000Z</time>
      </trkpt>
      <trkpt lat="42.16770596802234649658203125" lon="1.7721886374056339263916015625">
        <ele>1705.199951171875</ele>
        <time>2020-10-24T13:45:43.000Z</time>
      </trkpt>
      <trkpt lat="42.16769783757627010345458984375" lon="1.77218377590179443359375">
        <ele>1704.800048828125</ele>
        <time>2020-10-24T13:45:45.000Z</time>
      </trkpt>
      <trkpt lat="42.16769683174788951873779296875" lon="1.77217908203601837158203125">
        <ele>1704.199951171875</ele>
        <time>2020-10-24T13:45:47.000Z</time>
      </trkpt>
      <trkpt lat="42.1676793135702610015869140625" lon="1.772200204432010650634765625">
        <ele>1703.800048828125</ele>
        <time>2020-10-24T13:45:49.000Z</time>
      </trkpt>
      <trkpt lat="42.1676731109619140625" lon="1.77224353887140750885009765625">
        <ele>1703</ele>
        <time>2020-10-24T13:45:52.000Z</time>
      </trkpt>
      <trkpt lat="42.16766531579196453094482421875" lon="1.7722503282129764556884765625">
        <ele>1702.5999755859375</ele>
        <time>2020-10-24T13:45:53.000Z</time>
      </trkpt>
      <trkpt lat="42.16765190474689006805419921875" lon="1.7723043076694011688232421875">
        <ele>1702</ele>
        <time>2020-10-24T13:45:58.000Z</time>
      </trkpt>
      <trkpt lat="42.16765844263136386871337890625" lon="1.77231109701097011566162109375">
        <ele>1701.5999755859375</ele>
        <time>2020-10-24T13:45:59.000Z</time>
      </trkpt>
      <trkpt lat="42.167659364640712738037109375" lon="1.77235485054552555084228515625">
        <ele>1700.800048828125</ele>
        <time>2020-10-24T13:46:02.000Z</time>
      </trkpt>
      <trkpt lat="42.1676578558981418609619140625" lon="1.7724085785448551177978515625">
        <ele>1700</ele>
        <time>2020-10-24T13:46:04.000Z</time>
      </trkpt>
      <trkpt lat="42.16765768826007843017578125" lon="1.7724345624446868896484375">
        <ele>1699.5999755859375</ele>
        <time>2020-10-24T13:46:05.000Z</time>
      </trkpt>
      <trkpt lat="42.16763514094054698944091796875" lon="1.77253455854952335357666015625">
        <ele>1698.4000244140625</ele>
        <time>2020-10-24T13:46:10.000Z</time>
      </trkpt>
      <trkpt lat="42.1676139347255229949951171875" lon="1.77256355993449687957763671875">
        <ele>1697.5999755859375</ele>
        <time>2020-10-24T13:46:13.000Z</time>
      </trkpt>
      <trkpt lat="42.1676025353372097015380859375" lon="1.7725718580186367034912109375">
        <ele>1697.4000244140625</ele>
        <time>2020-10-24T13:46:14.000Z</time>
      </trkpt>
      <trkpt lat="42.167578898370265960693359375" lon="1.7726130969822406768798828125">
        <ele>1696.199951171875</ele>
        <time>2020-10-24T13:46:18.000Z</time>
      </trkpt>
      <trkpt lat="42.1675851009786128997802734375" lon="1.77261762320995330810546875">
        <ele>1696</ele>
        <time>2020-10-24T13:46:20.000Z</time>
      </trkpt>
      <trkpt lat="42.167625837028026580810546875" lon="1.772685348987579345703125">
        <ele>1695.5999755859375</ele>
        <time>2020-10-24T13:46:27.000Z</time>
      </trkpt>
      <trkpt lat="42.1676330454647541046142578125" lon="1.77271812222898006439208984375">
        <ele>1695.199951171875</ele>
        <time>2020-10-24T13:46:29.000Z</time>
      </trkpt>
      <trkpt lat="42.167634554207324981689453125" lon="1.77273237146437168121337890625">
        <ele>1695.199951171875</ele>
        <time>2020-10-24T13:46:30.000Z</time>
      </trkpt>
      <trkpt lat="42.1676357276737689971923828125" lon="1.77278601564466953277587890625">
        <ele>1694.4000244140625</ele>
        <time>2020-10-24T13:46:34.000Z</time>
      </trkpt>
      <trkpt lat="42.167632877826690673828125" lon="1.7728045396506786346435546875">
        <ele>1694.199951171875</ele>
        <time>2020-10-24T13:46:35.000Z</time>
      </trkpt>
      <trkpt lat="42.16763363219797611236572265625" lon="1.7728189565241336822509765625">
        <ele>1694.199951171875</ele>
        <time>2020-10-24T13:46:36.000Z</time>
      </trkpt>
      <trkpt lat="42.16763547621667385101318359375" lon="1.772833876311779022216796875">
        <ele>1694</ele>
        <time>2020-10-24T13:46:37.000Z</time>
      </trkpt>
      <trkpt lat="42.16763312928378582000732421875" lon="1.77284938283264636993408203125">
        <ele>1694</ele>
        <time>2020-10-24T13:46:38.000Z</time>
      </trkpt>
      <trkpt lat="42.1676330454647541046142578125" lon="1.7728793062269687652587890625">
        <ele>1693.5999755859375</ele>
        <time>2020-10-24T13:46:40.000Z</time>
      </trkpt>
      <trkpt lat="42.16763497330248355865478515625" lon="1.77290654741227626800537109375">
        <ele>1692.800048828125</ele>
        <time>2020-10-24T13:46:42.000Z</time>
      </trkpt>
      <trkpt lat="42.16763815842568874359130859375" lon="1.77298215217888355255126953125">
        <ele>1692</ele>
        <time>2020-10-24T13:46:47.000Z</time>
      </trkpt>
      <trkpt lat="42.16763229109346866607666015625" lon="1.77302590571343898773193359375">
        <ele>1691.800048828125</ele>
        <time>2020-10-24T13:46:50.000Z</time>
      </trkpt>
      <trkpt lat="42.16762793250381946563720703125" lon="1.7730523087084293365478515625">
        <ele>1691.5999755859375</ele>
        <time>2020-10-24T13:46:52.000Z</time>
      </trkpt>
      <trkpt lat="42.16762877069413661956787109375" lon="1.773068569600582122802734375">
        <ele>1691.4000244140625</ele>
        <time>2020-10-24T13:46:53.000Z</time>
      </trkpt>
      <trkpt lat="42.16762089170515537261962890625" lon="1.77313654683530330657958984375">
        <ele>1690.800048828125</ele>
        <time>2020-10-24T13:46:58.000Z</time>
      </trkpt>
      <trkpt lat="42.1676073968410491943359375" lon="1.77317191846668720245361328125">
        <ele>1690.4000244140625</ele>
        <time>2020-10-24T13:47:00.000Z</time>
      </trkpt>
      <trkpt lat="42.16759457252919673919677734375" lon="1.7732216231524944305419921875">
        <ele>1690</ele>
        <time>2020-10-24T13:47:02.000Z</time>
      </trkpt>
      <trkpt lat="42.1675981767475605010986328125" lon="1.77326864562928676605224609375">
        <ele>1689.5999755859375</ele>
        <time>2020-10-24T13:47:04.000Z</time>
      </trkpt>
      <trkpt lat="42.16758032329380512237548828125" lon="1.77332027815282344818115234375">
        <ele>1689</ele>
        <time>2020-10-24T13:47:08.000Z</time>
      </trkpt>
      <trkpt lat="42.167580239474773406982421875" lon="1.7733572423458099365234375">
        <ele>1688.800048828125</ele>
        <time>2020-10-24T13:47:10.000Z</time>
      </trkpt>
      <trkpt lat="42.16757194139063358306884765625" lon="1.7734108865261077880859375">
        <ele>1688.5999755859375</ele>
        <time>2020-10-24T13:47:13.000Z</time>
      </trkpt>
      <trkpt lat="42.16758233495056629180908203125" lon="1.77344047464430332183837890625">
        <ele>1688.4000244140625</ele>
        <time>2020-10-24T13:47:15.000Z</time>
      </trkpt>
      <trkpt lat="42.16756825335323810577392578125" lon="1.773536615073680877685546875">
        <ele>1687.4000244140625</ele>
        <time>2020-10-24T13:47:21.000Z</time>
      </trkpt>
      <trkpt lat="42.1675438620150089263916015625" lon="1.7736013233661651611328125">
        <ele>1686.5999755859375</ele>
        <time>2020-10-24T13:47:27.000Z</time>
      </trkpt>
      <trkpt lat="42.16752500273287296295166015625" lon="1.77365706302225589752197265625">
        <ele>1686.4000244140625</ele>
        <time>2020-10-24T13:47:30.000Z</time>
      </trkpt>
      <trkpt lat="42.167517878115177154541015625" lon="1.773724369704723358154296875">
        <ele>1686.199951171875</ele>
        <time>2020-10-24T13:47:33.000Z</time>
      </trkpt>
      <trkpt lat="42.16749801300466060638427734375" lon="1.7737944424152374267578125">
        <ele>1686.199951171875</ele>
        <time>2020-10-24T13:47:37.000Z</time>
      </trkpt>
      <trkpt lat="42.1674975939095020294189453125" lon="1.77380575798451900482177734375">
        <ele>1686.199951171875</ele>
        <time>2020-10-24T13:47:38.000Z</time>
      </trkpt>
      <trkpt lat="42.1674912236630916595458984375" lon="1.7738294787704944610595703125">
        <ele>1686</ele>
        <time>2020-10-24T13:47:40.000Z</time>
      </trkpt>
      <trkpt lat="42.167453505098819732666015625" lon="1.773936934769153594970703125">
        <ele>1685.4000244140625</ele>
        <time>2020-10-24T13:47:48.000Z</time>
      </trkpt>
      <trkpt lat="42.16745115816593170166015625" lon="1.77395126782357692718505859375">
        <ele>1685.199951171875</ele>
        <time>2020-10-24T13:47:49.000Z</time>
      </trkpt>
      <trkpt lat="42.16744302771985530853271484375" lon="1.7739848792552947998046875">
        <ele>1685</ele>
        <time>2020-10-24T13:47:51.000Z</time>
      </trkpt>
      <trkpt lat="42.16743598692119121551513671875" lon="1.77402980625629425048828125">
        <ele>1684.800048828125</ele>
        <time>2020-10-24T13:47:54.000Z</time>
      </trkpt>
      <trkpt lat="42.167391143739223480224609375" lon="1.77411974407732486724853515625">
        <ele>1684.4000244140625</ele>
        <time>2020-10-24T13:48:00.000Z</time>
      </trkpt>
      <trkpt lat="42.167387790977954864501953125" lon="1.7741335742175579071044921875">
        <ele>1684.199951171875</ele>
        <time>2020-10-24T13:48:01.000Z</time>
      </trkpt>
      <trkpt lat="42.1673614718019962310791015625" lon="1.77427564747631549835205078125">
        <ele>1684</ele>
        <time>2020-10-24T13:48:08.000Z</time>
      </trkpt>
      <trkpt lat="42.16738217510282993316650390625" lon="1.7743979394435882568359375">
        <ele>1683.5999755859375</ele>
        <time>2020-10-24T13:48:15.000Z</time>
      </trkpt>
      <trkpt lat="42.16738485731184482574462890625" lon="1.7744111828505992889404296875">
        <ele>1683.5999755859375</ele>
        <time>2020-10-24T13:48:16.000Z</time>
      </trkpt>
      <trkpt lat="42.167391143739223480224609375" lon="1.7744239233434200286865234375">
        <ele>1683.5999755859375</ele>
        <time>2020-10-24T13:48:17.000Z</time>
      </trkpt>
      <trkpt lat="42.1674040518701076507568359375" lon="1.77444948814809322357177734375">
        <ele>1683.4000244140625</ele>
        <time>2020-10-24T13:48:19.000Z</time>
      </trkpt>
      <trkpt lat="42.1674151159822940826416015625" lon="1.77447195164859294891357421875">
        <ele>1683.199951171875</ele>
        <time>2020-10-24T13:48:21.000Z</time>
      </trkpt>
      <trkpt lat="42.16741905547678470611572265625" lon="1.774486117064952850341796875">
        <ele>1683.199951171875</ele>
        <time>2020-10-24T13:48:22.000Z</time>
      </trkpt>
      <trkpt lat="42.1674518287181854248046875" lon="1.77457203157246112823486328125">
        <ele>1683</ele>
        <time>2020-10-24T13:48:27.000Z</time>
      </trkpt>
      <trkpt lat="42.16748041100800037384033203125" lon="1.77469256334006786346435546875">
        <ele>1682.800048828125</ele>
        <time>2020-10-24T13:48:34.000Z</time>
      </trkpt>
      <trkpt lat="42.16748426668345928192138671875" lon="1.7747062258422374725341796875">
        <ele>1682.800048828125</ele>
        <time>2020-10-24T13:48:35.000Z</time>
      </trkpt>
      <trkpt lat="42.16749113984405994415283203125" lon="1.7747278511524200439453125">
        <ele>1682.5999755859375</ele>
        <time>2020-10-24T13:48:37.000Z</time>
      </trkpt>
      <trkpt lat="42.1675032936036586761474609375" lon="1.77476028911769390106201171875">
        <ele>1682.199951171875</ele>
        <time>2020-10-24T13:48:39.000Z</time>
      </trkpt>
      <trkpt lat="42.16750958003103733062744140625" lon="1.77477738820016384124755859375">
        <ele>1682</ele>
        <time>2020-10-24T13:48:40.000Z</time>
      </trkpt>
      <trkpt lat="42.1675220690667629241943359375" lon="1.77489942871034145355224609375">
        <ele>1681</ele>
        <time>2020-10-24T13:48:46.000Z</time>
      </trkpt>
      <trkpt lat="42.167518548667430877685546875" lon="1.7749456129968166351318359375">
        <ele>1680.5999755859375</ele>
        <time>2020-10-24T13:48:49.000Z</time>
      </trkpt>
      <trkpt lat="42.16750958003103733062744140625" lon="1.7749741114675998687744140625">
        <ele>1680.4000244140625</ele>
        <time>2020-10-24T13:48:51.000Z</time>
      </trkpt>
      <trkpt lat="42.16749097220599651336669921875" lon="1.7750391550362110137939453125">
        <ele>1680.199951171875</ele>
        <time>2020-10-24T13:48:55.000Z</time>
      </trkpt>
      <trkpt lat="42.16748158447444438934326171875" lon="1.77505734376609325408935546875">
        <ele>1680</ele>
        <time>2020-10-24T13:48:56.000Z</time>
      </trkpt>
      <trkpt lat="42.167453505098819732666015625" lon="1.77510797046124935150146484375">
        <ele>1679.800048828125</ele>
        <time>2020-10-24T13:48:59.000Z</time>
      </trkpt>
      <trkpt lat="42.16744068078696727752685546875" lon="1.77512607537209987640380859375">
        <ele>1679.5999755859375</ele>
        <time>2020-10-24T13:49:00.000Z</time>
      </trkpt>
      <trkpt lat="42.1674298681318759918212890625" lon="1.775149293243885040283203125">
        <ele>1679.4000244140625</ele>
        <time>2020-10-24T13:49:01.000Z</time>
      </trkpt>
      <trkpt lat="42.16742123477160930633544921875" lon="1.7751699127256870269775390625">
        <ele>1679.4000244140625</ele>
        <time>2020-10-24T13:49:02.000Z</time>
      </trkpt>
      <trkpt lat="42.16740153729915618896484375" lon="1.77525498904287815093994140625">
        <ele>1679</ele>
        <time>2020-10-24T13:49:07.000Z</time>
      </trkpt>
      <trkpt lat="42.16738703660666942596435546875" lon="1.7752738483250141143798828125">
        <ele>1678.800048828125</ele>
        <time>2020-10-24T13:49:09.000Z</time>
      </trkpt>
      <trkpt lat="42.167338170111179351806640625" lon="1.7753026820719242095947265625">
        <ele>1678.800048828125</ele>
        <time>2020-10-24T13:49:13.000Z</time>
      </trkpt>
      <trkpt lat="42.16726600192487239837646484375" lon="1.7752986587584018707275390625">
        <ele>1679</ele>
        <time>2020-10-24T13:49:18.000Z</time>
      </trkpt>
      <trkpt lat="42.16723767109215259552001953125" lon="1.77528508007526397705078125">
        <ele>1679</ele>
        <time>2020-10-24T13:49:20.000Z</time>
      </trkpt>
      <trkpt lat="42.16716625727713108062744140625" lon="1.7752523906528949737548828125">
        <ele>1678.4000244140625</ele>
        <time>2020-10-24T13:49:26.000Z</time>
      </trkpt>
      <trkpt lat="42.1671509183943271636962890625" lon="1.775241158902645111083984375">
        <ele>1678.4000244140625</ele>
        <time>2020-10-24T13:49:28.000Z</time>
      </trkpt>
      <trkpt lat="42.16707556508481502532958984375" lon="1.775194890797138214111328125">
        <ele>1678</ele>
        <time>2020-10-24T13:49:36.000Z</time>
      </trkpt>
      <trkpt lat="42.1670563705265522003173828125" lon="1.77519028075039386749267578125">
        <ele>1677.800048828125</ele>
        <time>2020-10-24T13:49:38.000Z</time>
      </trkpt>
      <trkpt lat="42.167009599506855010986328125" lon="1.77517418749630451202392578125">
        <ele>1677.800048828125</ele>
        <time>2020-10-24T13:49:42.000Z</time>
      </trkpt>
      <trkpt lat="42.16696559451520442962646484375" lon="1.775153987109661102294921875">
        <ele>1677.5999755859375</ele>
        <time>2020-10-24T13:49:47.000Z</time>
      </trkpt>
      <trkpt lat="42.16694614849984645843505859375" lon="1.77515038289129734039306640625">
        <ele>1677.4000244140625</ele>
        <time>2020-10-24T13:49:49.000Z</time>
      </trkpt>
      <trkpt lat="42.1669326536357402801513671875" lon="1.775145269930362701416015625">
        <ele>1677.4000244140625</ele>
        <time>2020-10-24T13:49:50.000Z</time>
      </trkpt>
      <trkpt lat="42.1668588928878307342529296875" lon="1.7751202918589115142822265625">
        <ele>1677.199951171875</ele>
        <time>2020-10-24T13:49:56.000Z</time>
      </trkpt>
      <trkpt lat="42.16685009188950061798095703125" lon="1.7751162685453891754150390625">
        <ele>1677</ele>
        <time>2020-10-24T13:49:57.000Z</time>
      </trkpt>
      <trkpt lat="42.16683969832956790924072265625" lon="1.77511417306959629058837890625">
        <ele>1677</ele>
        <time>2020-10-24T13:49:59.000Z</time>
      </trkpt>
      <trkpt lat="42.16681991703808307647705078125" lon="1.77510277368128299713134765625">
        <ele>1676.5999755859375</ele>
        <time>2020-10-24T13:50:02.000Z</time>
      </trkpt>
      <trkpt lat="42.16675252653658390045166015625" lon="1.77506505511701107025146484375">
        <ele>1676.199951171875</ele>
        <time>2020-10-24T13:50:09.000Z</time>
      </trkpt>
      <trkpt lat="42.166726626455783843994140625" lon="1.77503856830298900604248046875">
        <ele>1676</ele>
        <time>2020-10-24T13:50:12.000Z</time>
      </trkpt>
      <trkpt lat="42.1666805259883403778076171875" lon="1.77501057274639606475830078125">
        <ele>1675.800048828125</ele>
        <time>2020-10-24T13:50:16.000Z</time>
      </trkpt>
      <trkpt lat="42.16666367836296558380126953125" lon="1.77500386722385883331298828125">
        <ele>1675.800048828125</ele>
        <time>2020-10-24T13:50:17.000Z</time>
      </trkpt>
      <trkpt lat="42.1665839664638042449951171875" lon="1.7749828286468982696533203125">
        <ele>1675.5999755859375</ele>
        <time>2020-10-24T13:50:23.000Z</time>
      </trkpt>
      <trkpt lat="42.16648212634027004241943359375" lon="1.7749513126909732818603515625">
        <ele>1675.199951171875</ele>
        <time>2020-10-24T13:50:31.000Z</time>
      </trkpt>
      <trkpt lat="42.16642261482775211334228515625" lon="1.77494217641651630401611328125">
        <ele>1674.800048828125</ele>
        <time>2020-10-24T13:50:37.000Z</time>
      </trkpt>
      <trkpt lat="42.16639914549887180328369140625" lon="1.77493027411401271820068359375">
        <ele>1674.800048828125</ele>
        <time>2020-10-24T13:50:39.000Z</time>
      </trkpt>
      <trkpt lat="42.1662792004644870758056640625" lon="1.7748728580772876739501953125">
        <ele>1674.199951171875</ele>
        <time>2020-10-24T13:50:48.000Z</time>
      </trkpt>
      <trkpt lat="42.1662480197846889495849609375" lon="1.77485701628029346466064453125">
        <ele>1673.800048828125</ele>
        <time>2020-10-24T13:50:51.000Z</time>
      </trkpt>
      <trkpt lat="42.16621440835297107696533203125" lon="1.77483773790299892425537109375">
        <ele>1673.199951171875</ele>
        <time>2020-10-24T13:50:55.000Z</time>
      </trkpt>
      <trkpt lat="42.16620661318302154541015625" lon="1.7748297750949859619140625">
        <ele>1673</ele>
        <time>2020-10-24T13:50:56.000Z</time>
      </trkpt>
      <trkpt lat="42.16615439392626285552978515625" lon="1.77479214034974575042724609375">
        <ele>1672.800048828125</ele>
        <time>2020-10-24T13:51:00.000Z</time>
      </trkpt>
      <trkpt lat="42.16609991155564785003662109375" lon="1.77473782561719417572021484375">
        <ele>1672.5999755859375</ele>
        <time>2020-10-24T13:51:05.000Z</time>
      </trkpt>
      <trkpt lat="42.16608323156833648681640625" lon="1.7746666632592678070068359375">
        <ele>1672.199951171875</ele>
        <time>2020-10-24T13:51:12.000Z</time>
      </trkpt>
      <trkpt lat="42.16608465649187564849853515625" lon="1.77466272376477718353271484375">
        <ele>1672</ele>
        <time>2020-10-24T13:51:13.000Z</time>
      </trkpt>
      <trkpt lat="42.16608163900673389434814453125" lon="1.77466012537479400634765625">
        <ele>1672.199951171875</ele>
        <time>2020-10-24T13:51:15.000Z</time>
      </trkpt>
      <trkpt lat="42.16607241891324520111083984375" lon="1.7746475525200366973876953125">
        <ele>1672.199951171875</ele>
        <time>2020-10-24T13:51:18.000Z</time>
      </trkpt>
      <trkpt lat="42.166070826351642608642578125" lon="1.77461025305092334747314453125">
        <ele>1671.800048828125</ele>
        <time>2020-10-24T13:51:23.000Z</time>
      </trkpt>
      <trkpt lat="42.166070155799388885498046875" lon="1.7746073193848133087158203125">
        <ele>1671.800048828125</ele>
        <time>2020-10-24T13:51:24.000Z</time>
      </trkpt>
      <trkpt lat="42.166069485247135162353515625" lon="1.774597428739070892333984375">
        <ele>1671.800048828125</ele>
        <time>2020-10-24T13:51:29.000Z</time>
      </trkpt>
      <trkpt lat="42.16606822796165943145751953125" lon="1.77459684200584888458251953125">
        <ele>1671.800048828125</ele>
        <time>2020-10-24T13:51:30.000Z</time>
      </trkpt>
      <trkpt lat="42.166070155799388885498046875" lon="1.77460287697613239288330078125">
        <ele>1671.800048828125</ele>
        <time>2020-10-24T13:51:36.000Z</time>
      </trkpt>
      <trkpt lat="42.166070155799388885498046875" lon="1.77460287697613239288330078125">
        <ele>1671.800048828125</ele>
        <time>2020-10-24T13:51:37.000Z</time>
      </trkpt>
      <trkpt lat="42.16614919714629650115966796875" lon="1.77451956085860729217529296875">
        <ele>1672.199951171875</ele>
        <time>2020-10-24T13:52:54.000Z</time>
      </trkpt>
      <trkpt lat="42.16614852659404277801513671875" lon="1.77451956085860729217529296875">
        <ele>1672.199951171875</ele>
        <time>2020-10-24T13:52:55.000Z</time>
      </trkpt>
      <trkpt lat="42.166143245995044708251953125" lon="1.77451956085860729217529296875">
        <ele>1672.199951171875</ele>
        <time>2020-10-24T13:52:56.000Z</time>
      </trkpt>
    </trkseg>
  </trk>
</gpx>
